<?xml version="1.0" encoding="UTF-8" standalone="no" ?>
<gpx xmlns="http://www.topografix.com/GPX/1/1" xmlns:xsi="http://www.w3.org/2001/XMLSchema-instance" xsi:schemaLocation="http://www.topografix.com/GPX/1/1 http://www.topografix.com/GPX/1/1/gpx.xsd" version="1.1" creator="VisuGPX - https://www.visugpx.com">
  <metadata>
    <name>Balade hivernale</name>
    <desc><![CDATA[Balade effectuée du 9 décembre 2022 au 7 janvier 2023.]]></desc>
  </metadata>
  <trk>
    <name><![CDATA[St-Jean de Monts - Jard sur mer]]></name>
    <extensions>
      <line xmlns="http://www.topografix.com/GPX/gpx_style/0/2">
        <color>ff0000</color>
        <width>4</width>
      </line>
    </extensions>
    <trkseg>
      <trkpt lat="46.76889" lon="-2.02664">
        <ele>48.599157</ele>
        <time>2022-12-18T10:49:34.599Z</time>
      </trkpt>
      <trkpt lat="46.76881" lon="-2.02654">
        <ele>48.599157</ele>
        <time>2022-12-18T10:49:39.594Z</time>
      </trkpt>
      <trkpt lat="46.76874" lon="-2.02645">
        <ele>48.599157</ele>
        <time>2022-12-18T10:49:42.601Z</time>
      </trkpt>
      <trkpt lat="46.76865" lon="-2.02638">
        <ele>48.599157</ele>
        <time>2022-12-18T10:49:45.603Z</time>
      </trkpt>
      <trkpt lat="46.76857" lon="-2.02632">
        <ele>48.599157</ele>
        <time>2022-12-18T10:49:48.597Z</time>
      </trkpt>
      <trkpt lat="46.76848" lon="-2.02626">
        <ele>48.599157</ele>
        <time>2022-12-18T10:49:51.603Z</time>
      </trkpt>
      <trkpt lat="46.76838" lon="-2.0262">
        <ele>48.599157</ele>
        <time>2022-12-18T10:49:54.584Z</time>
      </trkpt>
      <trkpt lat="46.76828" lon="-2.02614">
        <ele>48.599157</ele>
        <time>2022-12-18T10:49:57.590Z</time>
      </trkpt>
      <trkpt lat="46.76818" lon="-2.02608">
        <ele>48.599157</ele>
        <time>2022-12-18T10:50:00.596Z</time>
      </trkpt>
      <trkpt lat="46.76807" lon="-2.026">
        <ele>48.613974</ele>
        <time>2022-12-18T10:50:03.603Z</time>
      </trkpt>
      <trkpt lat="46.76797" lon="-2.02593">
        <ele>48.660334</ele>
        <time>2022-12-18T10:50:06.604Z</time>
      </trkpt>
      <trkpt lat="46.76787" lon="-2.02584">
        <ele>48.704809</ele>
        <time>2022-12-18T10:50:09.586Z</time>
      </trkpt>
      <trkpt lat="46.76778" lon="-2.02576">
        <ele>48.746118</ele>
        <time>2022-12-18T10:50:12.603Z</time>
      </trkpt>
      <trkpt lat="46.7677" lon="-2.02568">
        <ele>48.787041</ele>
        <time>2022-12-18T10:50:15.614Z</time>
      </trkpt>
      <trkpt lat="46.7676" lon="-2.02559">
        <ele>48.830481</ele>
        <time>2022-12-18T10:50:18.619Z</time>
      </trkpt>
      <trkpt lat="46.76751" lon="-2.02549">
        <ele>48.876291</ele>
        <time>2022-12-18T10:50:21.588Z</time>
      </trkpt>
      <trkpt lat="46.76742" lon="-2.02538">
        <ele>48.923799</ele>
        <time>2022-12-18T10:50:24.585Z</time>
      </trkpt>
      <trkpt lat="46.76732" lon="-2.02525">
        <ele>48.976009</ele>
        <time>2022-12-18T10:50:27.594Z</time>
      </trkpt>
      <trkpt lat="46.76722" lon="-2.02512">
        <ele>49.02941</ele>
        <time>2022-12-18T10:50:30.612Z</time>
      </trkpt>
      <trkpt lat="46.76712" lon="-2.02499">
        <ele>49.082842</ele>
        <time>2022-12-18T10:50:33.603Z</time>
      </trkpt>
      <trkpt lat="46.76706" lon="-2.02489">
        <ele>49.119039</ele>
        <time>2022-12-18T10:50:35.600Z</time>
      </trkpt>
      <trkpt lat="46.76696" lon="-2.02475">
        <ele>49.172565</ele>
        <time>2022-12-18T10:50:38.600Z</time>
      </trkpt>
      <trkpt lat="46.76687" lon="-2.02461">
        <ele>49.225989</ele>
        <time>2022-12-18T10:50:41.602Z</time>
      </trkpt>
      <trkpt lat="46.76678" lon="-2.02447">
        <ele>49.278194</ele>
        <time>2022-12-18T10:50:44.611Z</time>
      </trkpt>
      <trkpt lat="46.76669" lon="-2.02434">
        <ele>49.339032</ele>
        <time>2022-12-18T10:50:47.592Z</time>
      </trkpt>
      <trkpt lat="46.76662" lon="-2.02422">
        <ele>49.43046</ele>
        <time>2022-12-18T10:50:50.604Z</time>
      </trkpt>
      <trkpt lat="46.76654" lon="-2.02408">
        <ele>49.526637</ele>
        <time>2022-12-18T10:50:53.610Z</time>
      </trkpt>
      <trkpt lat="46.76646" lon="-2.02394">
        <ele>49.621386</ele>
        <time>2022-12-18T10:50:56.603Z</time>
      </trkpt>
      <trkpt lat="46.76639" lon="-2.02379">
        <ele>49.718715</ele>
        <time>2022-12-18T10:50:59.604Z</time>
      </trkpt>
      <trkpt lat="46.76632" lon="-2.02364">
        <ele>49.81559</ele>
        <time>2022-12-18T10:51:02.601Z</time>
      </trkpt>
      <trkpt lat="46.76625" lon="-2.02349">
        <ele>49.913336</ele>
        <time>2022-12-18T10:51:05.603Z</time>
      </trkpt>
      <trkpt lat="46.76617" lon="-2.02334">
        <ele>50.011533</ele>
        <time>2022-12-18T10:51:08.613Z</time>
      </trkpt>
      <trkpt lat="46.76609" lon="-2.02319">
        <ele>50.113789</ele>
        <time>2022-12-18T10:51:11.591Z</time>
      </trkpt>
      <trkpt lat="46.766" lon="-2.02305">
        <ele>50.2169</ele>
        <time>2022-12-18T10:51:14.598Z</time>
      </trkpt>
      <trkpt lat="46.76591" lon="-2.0229">
        <ele>50.321489</ele>
        <time>2022-12-18T10:51:17.611Z</time>
      </trkpt>
      <trkpt lat="46.76585" lon="-2.0228">
        <ele>50.392837</ele>
        <time>2022-12-18T10:51:19.602Z</time>
      </trkpt>
      <trkpt lat="46.76577" lon="-2.02266">
        <ele>50.492052</ele>
        <time>2022-12-18T10:51:22.603Z</time>
      </trkpt>
      <trkpt lat="46.76569" lon="-2.02252">
        <ele>50.589951</ele>
        <time>2022-12-18T10:51:25.603Z</time>
      </trkpt>
      <trkpt lat="46.7656" lon="-2.02238">
        <ele>50.691297</ele>
        <time>2022-12-18T10:51:28.606Z</time>
      </trkpt>
      <trkpt lat="46.76552" lon="-2.02223">
        <ele>50.72159</ele>
        <time>2022-12-18T10:51:31.598Z</time>
      </trkpt>
      <trkpt lat="46.76544" lon="-2.02208">
        <ele>50.731651</ele>
        <time>2022-12-18T10:51:34.605Z</time>
      </trkpt>
      <trkpt lat="46.76535" lon="-2.02194">
        <ele>50.741514</ele>
        <time>2022-12-18T10:51:37.601Z</time>
      </trkpt>
      <trkpt lat="46.76527" lon="-2.0218">
        <ele>50.751182</ele>
        <time>2022-12-18T10:51:40.602Z</time>
      </trkpt>
      <trkpt lat="46.76518" lon="-2.02167">
        <ele>50.760719</ele>
        <time>2022-12-18T10:51:43.605Z</time>
      </trkpt>
      <trkpt lat="46.76508" lon="-2.02153">
        <ele>50.77049</ele>
        <time>2022-12-18T10:51:46.607Z</time>
      </trkpt>
      <trkpt lat="46.76499" lon="-2.02142">
        <ele>50.780087</ele>
        <time>2022-12-18T10:51:49.605Z</time>
      </trkpt>
      <trkpt lat="46.76489" lon="-2.02131">
        <ele>50.789265</ele>
        <time>2022-12-18T10:51:52.602Z</time>
      </trkpt>
      <trkpt lat="46.76479" lon="-2.02121">
        <ele>50.798727</ele>
        <time>2022-12-18T10:51:55.604Z</time>
      </trkpt>
      <trkpt lat="46.76468" lon="-2.0211">
        <ele>50.808334</ele>
        <time>2022-12-18T10:51:58.602Z</time>
      </trkpt>
      <trkpt lat="46.76457" lon="-2.021">
        <ele>50.818554</ele>
        <time>2022-12-18T10:52:01.589Z</time>
      </trkpt>
      <trkpt lat="46.76449" lon="-2.02093">
        <ele>50.825572</ele>
        <time>2022-12-18T10:52:03.617Z</time>
      </trkpt>
      <trkpt lat="46.76441" lon="-2.02085">
        <ele>50.832527</ele>
        <time>2022-12-18T10:52:05.605Z</time>
      </trkpt>
      <trkpt lat="46.76433" lon="-2.02079">
        <ele>50.83957</ele>
        <time>2022-12-18T10:52:07.614Z</time>
      </trkpt>
      <trkpt lat="46.76421" lon="-2.02069">
        <ele>50.849737</ele>
        <time>2022-12-18T10:52:10.609Z</time>
      </trkpt>
      <trkpt lat="46.7641" lon="-2.02059">
        <ele>50.647191</ele>
        <time>2022-12-18T10:52:13.602Z</time>
      </trkpt>
      <trkpt lat="46.76399" lon="-2.02051">
        <ele>50.444079</ele>
        <time>2022-12-18T10:52:16.603Z</time>
      </trkpt>
      <trkpt lat="46.76388" lon="-2.02042">
        <ele>50.248595</ele>
        <time>2022-12-18T10:52:19.604Z</time>
      </trkpt>
      <trkpt lat="46.76379" lon="-2.02037">
        <ele>50.090119</ele>
        <time>2022-12-18T10:52:22.605Z</time>
      </trkpt>
      <trkpt lat="46.76366" lon="-2.02031">
        <ele>49.873568</ele>
        <time>2022-12-18T10:52:25.604Z</time>
      </trkpt>
      <trkpt lat="46.76357" lon="-2.02027">
        <ele>49.714733</ele>
        <time>2022-12-18T10:52:27.600Z</time>
      </trkpt>
      <trkpt lat="46.76348" lon="-2.02023">
        <ele>49.567072</ele>
        <time>2022-12-18T10:52:29.589Z</time>
      </trkpt>
      <trkpt lat="46.76339" lon="-2.02019">
        <ele>49.417867</ele>
        <time>2022-12-18T10:52:31.604Z</time>
      </trkpt>
      <trkpt lat="46.76327" lon="-2.02013">
        <ele>49.200163</ele>
        <time>2022-12-18T10:52:34.604Z</time>
      </trkpt>
      <trkpt lat="46.76314" lon="-2.02006">
        <ele>48.982879</ele>
        <time>2022-12-18T10:52:37.591Z</time>
      </trkpt>
      <trkpt lat="46.76302" lon="-2.01998">
        <ele>48.770611</ele>
        <time>2022-12-18T10:52:40.602Z</time>
      </trkpt>
      <trkpt lat="46.76293" lon="-2.01993">
        <ele>48.623237</ele>
        <time>2022-12-18T10:52:42.604Z</time>
      </trkpt>
      <trkpt lat="46.76285" lon="-2.01989">
        <ele>48.475086</ele>
        <time>2022-12-18T10:52:44.609Z</time>
      </trkpt>
      <trkpt lat="46.76272" lon="-2.01982">
        <ele>48.254761</ele>
        <time>2022-12-18T10:52:47.599Z</time>
      </trkpt>
      <trkpt lat="46.7626" lon="-2.01975">
        <ele>48.056334</ele>
        <time>2022-12-18T10:52:50.603Z</time>
      </trkpt>
      <trkpt lat="46.7625" lon="-2.01967">
        <ele>47.960657</ele>
        <time>2022-12-18T10:52:53.595Z</time>
      </trkpt>
      <trkpt lat="46.76238" lon="-2.0196">
        <ele>47.970623</ele>
        <time>2022-12-18T10:52:56.596Z</time>
      </trkpt>
      <trkpt lat="46.76227" lon="-2.01952">
        <ele>47.980758</ele>
        <time>2022-12-18T10:52:59.614Z</time>
      </trkpt>
      <trkpt lat="46.76215" lon="-2.01945">
        <ele>47.99104</ele>
        <time>2022-12-18T10:53:02.605Z</time>
      </trkpt>
      <trkpt lat="46.76203" lon="-2.01939">
        <ele>48.000818</ele>
        <time>2022-12-18T10:53:05.603Z</time>
      </trkpt>
      <trkpt lat="46.76193" lon="-2.01931">
        <ele>48.009773</ele>
        <time>2022-12-18T10:53:08.617Z</time>
      </trkpt>
      <trkpt lat="46.76183" lon="-2.01925">
        <ele>48.019004</ele>
        <time>2022-12-18T10:53:11.611Z</time>
      </trkpt>
      <trkpt lat="46.76171" lon="-2.01918">
        <ele>48.028949</ele>
        <time>2022-12-18T10:53:14.613Z</time>
      </trkpt>
      <trkpt lat="46.76159" lon="-2.0191">
        <ele>48.039369</ele>
        <time>2022-12-18T10:53:17.603Z</time>
      </trkpt>
      <trkpt lat="46.76147" lon="-2.01903">
        <ele>48.049925</ele>
        <time>2022-12-18T10:53:20.611Z</time>
      </trkpt>
      <trkpt lat="46.76135" lon="-2.01896">
        <ele>48.060191</ele>
        <time>2022-12-18T10:53:23.603Z</time>
      </trkpt>
      <trkpt lat="46.76124" lon="-2.0189">
        <ele>48.069706</ele>
        <time>2022-12-18T10:53:26.603Z</time>
      </trkpt>
      <trkpt lat="46.76112" lon="-2.01884">
        <ele>48.079709</ele>
        <time>2022-12-18T10:53:29.596Z</time>
      </trkpt>
      <trkpt lat="46.76101" lon="-2.01877">
        <ele>48.089527</ele>
        <time>2022-12-18T10:53:32.665Z</time>
      </trkpt>
      <trkpt lat="46.76088" lon="-2.01871">
        <ele>48.102509</ele>
        <time>2022-12-18T10:53:35.606Z</time>
      </trkpt>
      <trkpt lat="46.76077" lon="-2.01866">
        <ele>48.234679</ele>
        <time>2022-12-18T10:53:38.607Z</time>
      </trkpt>
      <trkpt lat="46.76067" lon="-2.0186">
        <ele>48.354784</ele>
        <time>2022-12-18T10:53:41.606Z</time>
      </trkpt>
      <trkpt lat="46.76055" lon="-2.01855">
        <ele>48.490546</ele>
        <time>2022-12-18T10:53:44.602Z</time>
      </trkpt>
      <trkpt lat="46.76044" lon="-2.01849">
        <ele>48.622124</ele>
        <time>2022-12-18T10:53:47.593Z</time>
      </trkpt>
      <trkpt lat="46.76033" lon="-2.01845">
        <ele>48.743883</ele>
        <time>2022-12-18T10:53:50.602Z</time>
      </trkpt>
      <trkpt lat="46.76023" lon="-2.01841">
        <ele>48.861822</ele>
        <time>2022-12-18T10:53:53.604Z</time>
      </trkpt>
      <trkpt lat="46.76012" lon="-2.01837">
        <ele>48.990144</ele>
        <time>2022-12-18T10:53:56.604Z</time>
      </trkpt>
      <trkpt lat="46.76" lon="-2.01832">
        <ele>49.12293</ele>
        <time>2022-12-18T10:53:59.590Z</time>
      </trkpt>
      <trkpt lat="46.75988" lon="-2.01828">
        <ele>49.257337</ele>
        <time>2022-12-18T10:54:02.595Z</time>
      </trkpt>
      <trkpt lat="46.75976" lon="-2.01823">
        <ele>49.397579</ele>
        <time>2022-12-18T10:54:05.598Z</time>
      </trkpt>
      <trkpt lat="46.75965" lon="-2.01819">
        <ele>49.525734</ele>
        <time>2022-12-18T10:54:08.602Z</time>
      </trkpt>
      <trkpt lat="46.75954" lon="-2.01814">
        <ele>49.652633</ele>
        <time>2022-12-18T10:54:11.586Z</time>
      </trkpt>
      <trkpt lat="46.75942" lon="-2.01808">
        <ele>49.789076</ele>
        <time>2022-12-18T10:54:14.603Z</time>
      </trkpt>
      <trkpt lat="46.75931" lon="-2.01802">
        <ele>49.928152</ele>
        <time>2022-12-18T10:54:17.604Z</time>
      </trkpt>
      <trkpt lat="46.75918" lon="-2.01795">
        <ele>50.072398</ele>
        <time>2022-12-18T10:54:20.602Z</time>
      </trkpt>
      <trkpt lat="46.75906" lon="-2.01789">
        <ele>49.986174</ele>
        <time>2022-12-18T10:54:23.595Z</time>
      </trkpt>
      <trkpt lat="46.75893" lon="-2.01782">
        <ele>49.868392</ele>
        <time>2022-12-18T10:54:26.579Z</time>
      </trkpt>
      <trkpt lat="46.75882" lon="-2.01777">
        <ele>49.763324</ele>
        <time>2022-12-18T10:54:29.596Z</time>
      </trkpt>
      <trkpt lat="46.75872" lon="-2.01772">
        <ele>49.665612</ele>
        <time>2022-12-18T10:54:32.579Z</time>
      </trkpt>
      <trkpt lat="46.75863" lon="-2.01767">
        <ele>49.580516</ele>
        <time>2022-12-18T10:54:35.602Z</time>
      </trkpt>
      <trkpt lat="46.75853" lon="-2.01762">
        <ele>49.490591</ele>
        <time>2022-12-18T10:54:38.596Z</time>
      </trkpt>
      <trkpt lat="46.75843" lon="-2.01757">
        <ele>49.390022</ele>
        <time>2022-12-18T10:54:41.590Z</time>
      </trkpt>
      <trkpt lat="46.75831" lon="-2.01755">
        <ele>49.286266</ele>
        <time>2022-12-18T10:54:44.602Z</time>
      </trkpt>
      <trkpt lat="46.75818" lon="-2.01754">
        <ele>49.170952</ele>
        <time>2022-12-18T10:54:47.583Z</time>
      </trkpt>
      <trkpt lat="46.75809" lon="-2.01756">
        <ele>49.085897</ele>
        <time>2022-12-18T10:54:49.605Z</time>
      </trkpt>
      <trkpt lat="46.75796" lon="-2.01754">
        <ele>48.974755</ele>
        <time>2022-12-18T10:54:52.607Z</time>
      </trkpt>
      <trkpt lat="46.75785" lon="-2.01753">
        <ele>48.877293</ele>
        <time>2022-12-18T10:54:55.601Z</time>
      </trkpt>
      <trkpt lat="46.75775" lon="-2.01751">
        <ele>48.781028</ele>
        <time>2022-12-18T10:54:58.600Z</time>
      </trkpt>
      <trkpt lat="46.75766" lon="-2.01751">
        <ele>48.699819</ele>
        <time>2022-12-18T10:55:01.602Z</time>
      </trkpt>
      <trkpt lat="46.75756" lon="-2.0175">
        <ele>48.616645</ele>
        <time>2022-12-18T10:55:04.585Z</time>
      </trkpt>
      <trkpt lat="46.75745" lon="-2.01748">
        <ele>48.51483</ele>
        <time>2022-12-18T10:55:07.584Z</time>
      </trkpt>
      <trkpt lat="46.75733" lon="-2.01745">
        <ele>48.485649</ele>
        <time>2022-12-18T10:55:10.589Z</time>
      </trkpt>
      <trkpt lat="46.7572" lon="-2.01742">
        <ele>48.486196</ele>
        <time>2022-12-18T10:55:13.606Z</time>
      </trkpt>
      <trkpt lat="46.75711" lon="-2.01739">
        <ele>48.486578</ele>
        <time>2022-12-18T10:55:15.600Z</time>
      </trkpt>
      <trkpt lat="46.75702" lon="-2.01737">
        <ele>48.486972</ele>
        <time>2022-12-18T10:55:17.600Z</time>
      </trkpt>
      <trkpt lat="46.75693" lon="-2.01736">
        <ele>48.487366</ele>
        <time>2022-12-18T10:55:19.616Z</time>
      </trkpt>
      <trkpt lat="46.75684" lon="-2.01733">
        <ele>48.487748</ele>
        <time>2022-12-18T10:55:21.605Z</time>
      </trkpt>
      <trkpt lat="46.75672" lon="-2.01731">
        <ele>48.488245</ele>
        <time>2022-12-18T10:55:24.605Z</time>
      </trkpt>
      <trkpt lat="46.7566" lon="-2.01729">
        <ele>48.488759</ele>
        <time>2022-12-18T10:55:27.599Z</time>
      </trkpt>
      <trkpt lat="46.75648" lon="-2.01728">
        <ele>48.489293</ele>
        <time>2022-12-18T10:55:30.597Z</time>
      </trkpt>
      <trkpt lat="46.75636" lon="-2.01726">
        <ele>48.4898</ele>
        <time>2022-12-18T10:55:33.602Z</time>
      </trkpt>
      <trkpt lat="46.75623" lon="-2.01723">
        <ele>48.490323</ele>
        <time>2022-12-18T10:55:36.616Z</time>
      </trkpt>
      <trkpt lat="46.7561" lon="-2.0172">
        <ele>48.490901</ele>
        <time>2022-12-18T10:55:39.595Z</time>
      </trkpt>
      <trkpt lat="46.75597" lon="-2.01716">
        <ele>48.491463</ele>
        <time>2022-12-18T10:55:42.610Z</time>
      </trkpt>
      <trkpt lat="46.75585" lon="-2.01711">
        <ele>48.492005</ele>
        <time>2022-12-18T10:55:45.603Z</time>
      </trkpt>
      <trkpt lat="46.75572" lon="-2.01704">
        <ele>48.492563</ele>
        <time>2022-12-18T10:55:48.585Z</time>
      </trkpt>
      <trkpt lat="46.75561" lon="-2.01695">
        <ele>48.503679</ele>
        <time>2022-12-18T10:55:51.603Z</time>
      </trkpt>
      <trkpt lat="46.75551" lon="-2.01684">
        <ele>48.526707</ele>
        <time>2022-12-18T10:55:54.593Z</time>
      </trkpt>
      <trkpt lat="46.75544" lon="-2.01674">
        <ele>48.546636</ele>
        <time>2022-12-18T10:55:57.612Z</time>
      </trkpt>
      <trkpt lat="46.75536" lon="-2.01663">
        <ele>48.567577</ele>
        <time>2022-12-18T10:56:00.596Z</time>
      </trkpt>
      <trkpt lat="46.75528" lon="-2.01651">
        <ele>48.589692</ele>
        <time>2022-12-18T10:56:03.601Z</time>
      </trkpt>
      <trkpt lat="46.75519" lon="-2.01639">
        <ele>48.612336</ele>
        <time>2022-12-18T10:56:06.593Z</time>
      </trkpt>
      <trkpt lat="46.7551" lon="-2.01627">
        <ele>48.635954</ele>
        <time>2022-12-18T10:56:09.604Z</time>
      </trkpt>
      <trkpt lat="46.75502" lon="-2.01614">
        <ele>48.660082</ele>
        <time>2022-12-18T10:56:12.606Z</time>
      </trkpt>
      <trkpt lat="46.75493" lon="-2.016">
        <ele>48.684134</ele>
        <time>2022-12-18T10:56:15.604Z</time>
      </trkpt>
      <trkpt lat="46.75485" lon="-2.01587">
        <ele>48.707924</ele>
        <time>2022-12-18T10:56:18.604Z</time>
      </trkpt>
      <trkpt lat="46.75476" lon="-2.01574">
        <ele>48.731865</ele>
        <time>2022-12-18T10:56:21.610Z</time>
      </trkpt>
      <trkpt lat="46.75469" lon="-2.01559">
        <ele>48.755759</ele>
        <time>2022-12-18T10:56:24.605Z</time>
      </trkpt>
      <trkpt lat="46.75462" lon="-2.01545">
        <ele>48.778978</ele>
        <time>2022-12-18T10:56:27.602Z</time>
      </trkpt>
      <trkpt lat="46.75455" lon="-2.01531">
        <ele>48.80134</ele>
        <time>2022-12-18T10:56:30.603Z</time>
      </trkpt>
      <trkpt lat="46.75448" lon="-2.01517">
        <ele>48.823691</ele>
        <time>2022-12-18T10:56:33.603Z</time>
      </trkpt>
      <trkpt lat="46.75441" lon="-2.01503">
        <ele>48.84078</ele>
        <time>2022-12-18T10:56:36.604Z</time>
      </trkpt>
      <trkpt lat="46.75435" lon="-2.01488">
        <ele>48.84823</ele>
        <time>2022-12-18T10:56:39.606Z</time>
      </trkpt>
      <trkpt lat="46.75428" lon="-2.01474">
        <ele>48.855397</ele>
        <time>2022-12-18T10:56:42.606Z</time>
      </trkpt>
      <trkpt lat="46.7542" lon="-2.01463">
        <ele>48.862282</ele>
        <time>2022-12-18T10:56:45.595Z</time>
      </trkpt>
      <trkpt lat="46.75412" lon="-2.01453">
        <ele>48.869073</ele>
        <time>2022-12-18T10:56:48.599Z</time>
      </trkpt>
      <trkpt lat="46.75402" lon="-2.01446">
        <ele>48.875383</ele>
        <time>2022-12-18T10:56:51.592Z</time>
      </trkpt>
      <trkpt lat="46.75393" lon="-2.0144">
        <ele>48.881609</ele>
        <time>2022-12-18T10:56:54.615Z</time>
      </trkpt>
      <trkpt lat="46.75383" lon="-2.01433">
        <ele>48.888306</ele>
        <time>2022-12-18T10:56:58.601Z</time>
      </trkpt>
      <trkpt lat="46.75374" lon="-2.01432">
        <ele>48.894081</ele>
        <time>2022-12-18T10:57:02.613Z</time>
      </trkpt>
      <trkpt lat="46.75365" lon="-2.01435">
        <ele>48.899934</ele>
        <time>2022-12-18T10:57:05.587Z</time>
      </trkpt>
      <trkpt lat="46.75355" lon="-2.01441">
        <ele>48.906282</ele>
        <time>2022-12-18T10:57:08.600Z</time>
      </trkpt>
      <trkpt lat="46.75346" lon="-2.01447">
        <ele>48.912751</ele>
        <time>2022-12-18T10:57:11.596Z</time>
      </trkpt>
      <trkpt lat="46.75335" lon="-2.01452">
        <ele>48.919735</ele>
        <time>2022-12-18T10:57:14.609Z</time>
      </trkpt>
      <trkpt lat="46.75324" lon="-2.01459">
        <ele>48.927196</ele>
        <time>2022-12-18T10:57:17.607Z</time>
      </trkpt>
      <trkpt lat="46.75312" lon="-2.01465">
        <ele>48.934786</ele>
        <time>2022-12-18T10:57:20.618Z</time>
      </trkpt>
      <trkpt lat="46.75301" lon="-2.01472">
        <ele>48.942489</ele>
        <time>2022-12-18T10:57:23.615Z</time>
      </trkpt>
      <trkpt lat="46.7529" lon="-2.01478">
        <ele>48.949732</ele>
        <time>2022-12-18T10:57:26.609Z</time>
      </trkpt>
      <trkpt lat="46.75279" lon="-2.01485">
        <ele>48.95866</ele>
        <time>2022-12-18T10:57:30.611Z</time>
      </trkpt>
      <trkpt lat="46.7527" lon="-2.0149">
        <ele>48.966363</ele>
        <time>2022-12-18T10:57:34.606Z</time>
      </trkpt>
      <trkpt lat="46.75254" lon="-2.01498">
        <ele>48.979808</ele>
        <time>2022-12-18T10:58:44.594Z</time>
      </trkpt>
      <trkpt lat="46.75244" lon="-2.01503">
        <ele>48.987639</ele>
        <time>2022-12-18T10:58:47.585Z</time>
      </trkpt>
      <trkpt lat="46.75234" lon="-2.01509">
        <ele>48.996374</ele>
        <time>2022-12-18T10:58:50.590Z</time>
      </trkpt>
      <trkpt lat="46.75223" lon="-2.01515">
        <ele>49.005518</ele>
        <time>2022-12-18T10:58:53.607Z</time>
      </trkpt>
      <trkpt lat="46.75212" lon="-2.01522">
        <ele>49.015107</ele>
        <time>2022-12-18T10:58:56.600Z</time>
      </trkpt>
      <trkpt lat="46.752" lon="-2.0153">
        <ele>49.025149</ele>
        <time>2022-12-18T10:58:59.600Z</time>
      </trkpt>
      <trkpt lat="46.75189" lon="-2.01538">
        <ele>49.034981</ele>
        <time>2022-12-18T10:59:02.582Z</time>
      </trkpt>
      <trkpt lat="46.75179" lon="-2.01545">
        <ele>49.043994</ele>
        <time>2022-12-18T10:59:05.614Z</time>
      </trkpt>
      <trkpt lat="46.75169" lon="-2.01553">
        <ele>49.05289</ele>
        <time>2022-12-18T10:59:08.610Z</time>
      </trkpt>
      <trkpt lat="46.75158" lon="-2.01562">
        <ele>49.062342</ele>
        <time>2022-12-18T10:59:11.601Z</time>
      </trkpt>
      <trkpt lat="46.75148" lon="-2.01572">
        <ele>49.071807</ele>
        <time>2022-12-18T10:59:14.591Z</time>
      </trkpt>
      <trkpt lat="46.75139" lon="-2.01582">
        <ele>49.080475</ele>
        <time>2022-12-18T10:59:17.586Z</time>
      </trkpt>
      <trkpt lat="46.75135" lon="-2.01598">
        <ele>49.090724</ele>
        <time>2022-12-18T10:59:21.581Z</time>
      </trkpt>
      <trkpt lat="46.75133" lon="-2.01612">
        <ele>49.142487</ele>
        <time>2022-12-18T10:59:24.608Z</time>
      </trkpt>
      <trkpt lat="46.75129" lon="-2.01624">
        <ele>49.191243</ele>
        <time>2022-12-18T10:59:27.587Z</time>
      </trkpt>
      <trkpt lat="46.75119" lon="-2.01627">
        <ele>49.245116</ele>
        <time>2022-12-18T10:59:31.594Z</time>
      </trkpt>
      <trkpt lat="46.7511" lon="-2.01617">
        <ele>49.302584</ele>
        <time>2022-12-18T10:59:35.592Z</time>
      </trkpt>
      <trkpt lat="46.75106" lon="-2.01603">
        <ele>49.355188</ele>
        <time>2022-12-18T10:59:38.594Z</time>
      </trkpt>
      <trkpt lat="46.75102" lon="-2.01589">
        <ele>49.411653</ele>
        <time>2022-12-18T10:59:41.601Z</time>
      </trkpt>
      <trkpt lat="46.75093" lon="-2.01578">
        <ele>49.471019</ele>
        <time>2022-12-18T10:59:44.595Z</time>
      </trkpt>
      <trkpt lat="46.75084" lon="-2.01568">
        <ele>49.530991</ele>
        <time>2022-12-18T10:59:47.609Z</time>
      </trkpt>
      <trkpt lat="46.75075" lon="-2.01558">
        <ele>49.591385</ele>
        <time>2022-12-18T10:59:50.605Z</time>
      </trkpt>
      <trkpt lat="46.75066" lon="-2.01547">
        <ele>49.653278</ele>
        <time>2022-12-18T10:59:53.606Z</time>
      </trkpt>
      <trkpt lat="46.75057" lon="-2.01535">
        <ele>49.716084</ele>
        <time>2022-12-18T10:59:56.602Z</time>
      </trkpt>
      <trkpt lat="46.75049" lon="-2.01522">
        <ele>49.78053</ele>
        <time>2022-12-18T10:59:59.603Z</time>
      </trkpt>
      <trkpt lat="46.7504" lon="-2.01509">
        <ele>49.844052</ele>
        <time>2022-12-18T11:00:02.600Z</time>
      </trkpt>
      <trkpt lat="46.75033" lon="-2.01496">
        <ele>49.904747</ele>
        <time>2022-12-18T11:00:05.605Z</time>
      </trkpt>
      <trkpt lat="46.75025" lon="-2.01486">
        <ele>49.960027</ele>
        <time>2022-12-18T11:00:08.614Z</time>
      </trkpt>
      <trkpt lat="46.75015" lon="-2.0148">
        <ele>50.014757</ele>
        <time>2022-12-18T11:00:11.593Z</time>
      </trkpt>
      <trkpt lat="46.75007" lon="-2.01471">
        <ele>50.118576</ele>
        <time>2022-12-18T11:00:15.602Z</time>
      </trkpt>
      <trkpt lat="46.75003" lon="-2.01458">
        <ele>50.224205</ele>
        <time>2022-12-18T11:00:18.605Z</time>
      </trkpt>
      <trkpt lat="46.74997" lon="-2.01448">
        <ele>50.338573</ele>
        <time>2022-12-18T11:00:21.588Z</time>
      </trkpt>
      <trkpt lat="46.74991" lon="-2.01436">
        <ele>50.458755</ele>
        <time>2022-12-18T11:00:24.612Z</time>
      </trkpt>
      <trkpt lat="46.74983" lon="-2.01424">
        <ele>50.586681</ele>
        <time>2022-12-18T11:00:27.611Z</time>
      </trkpt>
      <trkpt lat="46.74976" lon="-2.01411">
        <ele>50.722688</ele>
        <time>2022-12-18T11:00:30.605Z</time>
      </trkpt>
      <trkpt lat="46.74968" lon="-2.01398">
        <ele>50.861162</ele>
        <time>2022-12-18T11:00:33.585Z</time>
      </trkpt>
      <trkpt lat="46.74962" lon="-2.01384">
        <ele>50.994957</ele>
        <time>2022-12-18T11:00:36.606Z</time>
      </trkpt>
      <trkpt lat="46.74954" lon="-2.01375">
        <ele>51.114018</ele>
        <time>2022-12-18T11:00:39.592Z</time>
      </trkpt>
      <trkpt lat="46.74946" lon="-2.01361">
        <ele>51.252913</ele>
        <time>2022-12-18T11:00:43.595Z</time>
      </trkpt>
      <trkpt lat="46.74939" lon="-2.01353">
        <ele>51.36592</ele>
        <time>2022-12-18T11:00:46.596Z</time>
      </trkpt>
      <trkpt lat="46.74929" lon="-2.01346">
        <ele>51.488019</ele>
        <time>2022-12-18T11:00:49.585Z</time>
      </trkpt>
      <trkpt lat="46.74919" lon="-2.01341">
        <ele>51.610632</ele>
        <time>2022-12-18T11:00:52.604Z</time>
      </trkpt>
      <trkpt lat="46.74909" lon="-2.01336">
        <ele>51.735833</ele>
        <time>2022-12-18T11:00:55.586Z</time>
      </trkpt>
      <trkpt lat="46.74899" lon="-2.0133">
        <ele>51.861002</ele>
        <time>2022-12-18T11:00:58.598Z</time>
      </trkpt>
      <trkpt lat="46.74889" lon="-2.01325">
        <ele>51.991855</ele>
        <time>2022-12-18T11:01:01.606Z</time>
      </trkpt>
      <trkpt lat="46.74878" lon="-2.01319">
        <ele>52.128756</ele>
        <time>2022-12-18T11:01:04.607Z</time>
      </trkpt>
      <trkpt lat="46.74867" lon="-2.01313">
        <ele>52.163275</ele>
        <time>2022-12-18T11:01:07.607Z</time>
      </trkpt>
      <trkpt lat="46.74856" lon="-2.01307">
        <ele>52.190128</ele>
        <time>2022-12-18T11:01:10.605Z</time>
      </trkpt>
      <trkpt lat="46.74844" lon="-2.01301">
        <ele>52.217564</ele>
        <time>2022-12-18T11:01:13.611Z</time>
      </trkpt>
      <trkpt lat="46.74833" lon="-2.01294">
        <ele>52.246301</ele>
        <time>2022-12-18T11:01:16.604Z</time>
      </trkpt>
      <trkpt lat="46.74821" lon="-2.01288">
        <ele>52.27523</ele>
        <time>2022-12-18T11:01:19.612Z</time>
      </trkpt>
      <trkpt lat="46.74809" lon="-2.0128">
        <ele>52.304625</ele>
        <time>2022-12-18T11:01:22.613Z</time>
      </trkpt>
      <trkpt lat="46.74797" lon="-2.01273">
        <ele>52.334145</ele>
        <time>2022-12-18T11:01:25.588Z</time>
      </trkpt>
      <trkpt lat="46.74784" lon="-2.01265">
        <ele>52.364799</ele>
        <time>2022-12-18T11:01:28.602Z</time>
      </trkpt>
      <trkpt lat="46.74776" lon="-2.01261">
        <ele>52.3853</ele>
        <time>2022-12-18T11:01:30.605Z</time>
      </trkpt>
      <trkpt lat="46.74764" lon="-2.01254">
        <ele>52.413908</ele>
        <time>2022-12-18T11:01:33.615Z</time>
      </trkpt>
      <trkpt lat="46.74752" lon="-2.01247">
        <ele>52.443219</ele>
        <time>2022-12-18T11:01:36.614Z</time>
      </trkpt>
      <trkpt lat="46.7474" lon="-2.01239">
        <ele>52.472947</ele>
        <time>2022-12-18T11:01:39.628Z</time>
      </trkpt>
      <trkpt lat="46.74729" lon="-2.01232">
        <ele>52.501624</ele>
        <time>2022-12-18T11:01:42.596Z</time>
      </trkpt>
      <trkpt lat="46.74718" lon="-2.01225">
        <ele>52.529085</ele>
        <time>2022-12-18T11:01:45.614Z</time>
      </trkpt>
      <trkpt lat="46.74707" lon="-2.01217">
        <ele>52.488601</ele>
        <time>2022-12-18T11:01:48.603Z</time>
      </trkpt>
      <trkpt lat="46.74695" lon="-2.01209">
        <ele>52.303922</ele>
        <time>2022-12-18T11:01:51.602Z</time>
      </trkpt>
      <trkpt lat="46.74687" lon="-2.01204">
        <ele>52.177123</ele>
        <time>2022-12-18T11:01:53.589Z</time>
      </trkpt>
      <trkpt lat="46.74675" lon="-2.01195">
        <ele>51.98601</ele>
        <time>2022-12-18T11:01:56.603Z</time>
      </trkpt>
      <trkpt lat="46.74667" lon="-2.01189">
        <ele>51.85498</ele>
        <time>2022-12-18T11:01:58.602Z</time>
      </trkpt>
      <trkpt lat="46.74659" lon="-2.01182">
        <ele>51.726444</ele>
        <time>2022-12-18T11:02:00.589Z</time>
      </trkpt>
      <trkpt lat="46.74648" lon="-2.01171">
        <ele>51.544201</ele>
        <time>2022-12-18T11:02:03.610Z</time>
      </trkpt>
      <trkpt lat="46.74638" lon="-2.01161">
        <ele>51.370106</ele>
        <time>2022-12-18T11:02:06.589Z</time>
      </trkpt>
      <trkpt lat="46.7463" lon="-2.0115">
        <ele>51.210423</ele>
        <time>2022-12-18T11:02:09.601Z</time>
      </trkpt>
      <trkpt lat="46.74622" lon="-2.01139">
        <ele>51.051019</ele>
        <time>2022-12-18T11:02:12.603Z</time>
      </trkpt>
      <trkpt lat="46.74612" lon="-2.01128">
        <ele>50.877992</ele>
        <time>2022-12-18T11:02:15.596Z</time>
      </trkpt>
      <trkpt lat="46.74602" lon="-2.01116">
        <ele>50.69444</ele>
        <time>2022-12-18T11:02:18.605Z</time>
      </trkpt>
      <trkpt lat="46.74595" lon="-2.01107">
        <ele>50.56385</ele>
        <time>2022-12-18T11:02:20.603Z</time>
      </trkpt>
      <trkpt lat="46.74588" lon="-2.01098">
        <ele>50.430494</ele>
        <time>2022-12-18T11:02:22.600Z</time>
      </trkpt>
      <trkpt lat="46.74581" lon="-2.0109">
        <ele>50.292014</ele>
        <time>2022-12-18T11:02:24.584Z</time>
      </trkpt>
      <trkpt lat="46.74573" lon="-2.01081">
        <ele>50.157155</ele>
        <time>2022-12-18T11:02:26.604Z</time>
      </trkpt>
      <trkpt lat="46.74566" lon="-2.01072">
        <ele>50.023082</ele>
        <time>2022-12-18T11:02:28.588Z</time>
      </trkpt>
      <trkpt lat="46.74558" lon="-2.01063">
        <ele>49.908326</ele>
        <time>2022-12-18T11:02:30.605Z</time>
      </trkpt>
      <trkpt lat="46.74548" lon="-2.01051">
        <ele>49.760096</ele>
        <time>2022-12-18T11:02:33.607Z</time>
      </trkpt>
      <trkpt lat="46.74539" lon="-2.01039">
        <ele>49.623336</ele>
        <time>2022-12-18T11:02:36.604Z</time>
      </trkpt>
      <trkpt lat="46.7453" lon="-2.0103">
        <ele>49.498739</ele>
        <time>2022-12-18T11:02:39.609Z</time>
      </trkpt>
      <trkpt lat="46.74519" lon="-2.01021">
        <ele>49.361223</ele>
        <time>2022-12-18T11:02:42.605Z</time>
      </trkpt>
      <trkpt lat="46.74508" lon="-2.01011">
        <ele>49.216922</ele>
        <time>2022-12-18T11:02:45.604Z</time>
      </trkpt>
      <trkpt lat="46.74497" lon="-2.01001">
        <ele>49.06745</ele>
        <time>2022-12-18T11:02:48.591Z</time>
      </trkpt>
      <trkpt lat="46.74489" lon="-2.00995">
        <ele>48.967536</ele>
        <time>2022-12-18T11:02:50.600Z</time>
      </trkpt>
      <trkpt lat="46.74477" lon="-2.00985">
        <ele>48.820575</ele>
        <time>2022-12-18T11:02:53.612Z</time>
      </trkpt>
      <trkpt lat="46.7447" lon="-2.00978">
        <ele>48.719126</ele>
        <time>2022-12-18T11:02:55.604Z</time>
      </trkpt>
      <trkpt lat="46.74458" lon="-2.00969">
        <ele>48.571004</ele>
        <time>2022-12-18T11:02:58.604Z</time>
      </trkpt>
      <trkpt lat="46.7445" lon="-2.00961">
        <ele>48.464706</ele>
        <time>2022-12-18T11:03:00.604Z</time>
      </trkpt>
      <trkpt lat="46.74442" lon="-2.00955">
        <ele>48.358798</ele>
        <time>2022-12-18T11:03:02.598Z</time>
      </trkpt>
      <trkpt lat="46.74434" lon="-2.00948">
        <ele>48.256775</ele>
        <time>2022-12-18T11:03:04.615Z</time>
      </trkpt>
      <trkpt lat="46.74422" lon="-2.00938">
        <ele>48.102374</ele>
        <time>2022-12-18T11:03:07.608Z</time>
      </trkpt>
      <trkpt lat="46.74414" lon="-2.00931">
        <ele>47.996204</ele>
        <time>2022-12-18T11:03:09.614Z</time>
      </trkpt>
      <trkpt lat="46.74406" lon="-2.00924">
        <ele>47.992032</ele>
        <time>2022-12-18T11:03:11.603Z</time>
      </trkpt>
      <trkpt lat="46.74397" lon="-2.00916">
        <ele>48.005755</ele>
        <time>2022-12-18T11:03:13.605Z</time>
      </trkpt>
      <trkpt lat="46.74389" lon="-2.00909">
        <ele>48.019154</ele>
        <time>2022-12-18T11:03:15.604Z</time>
      </trkpt>
      <trkpt lat="46.74381" lon="-2.00902">
        <ele>48.032859</ele>
        <time>2022-12-18T11:03:17.614Z</time>
      </trkpt>
      <trkpt lat="46.7437" lon="-2.00893">
        <ele>48.051518</ele>
        <time>2022-12-18T11:03:20.591Z</time>
      </trkpt>
      <trkpt lat="46.7436" lon="-2.00883">
        <ele>48.067971</ele>
        <time>2022-12-18T11:03:23.586Z</time>
      </trkpt>
      <trkpt lat="46.74351" lon="-2.00873">
        <ele>48.084705</ele>
        <time>2022-12-18T11:03:26.604Z</time>
      </trkpt>
      <trkpt lat="46.74341" lon="-2.00862">
        <ele>48.102184</ele>
        <time>2022-12-18T11:03:29.606Z</time>
      </trkpt>
      <trkpt lat="46.74332" lon="-2.00848">
        <ele>48.120583</ele>
        <time>2022-12-18T11:03:32.585Z</time>
      </trkpt>
      <trkpt lat="46.74323" lon="-2.00835">
        <ele>48.139065</ele>
        <time>2022-12-18T11:03:35.586Z</time>
      </trkpt>
      <trkpt lat="46.74315" lon="-2.00821">
        <ele>48.157399</ele>
        <time>2022-12-18T11:03:38.604Z</time>
      </trkpt>
      <trkpt lat="46.74306" lon="-2.00807">
        <ele>48.175951</ele>
        <time>2022-12-18T11:03:41.615Z</time>
      </trkpt>
      <trkpt lat="46.74297" lon="-2.00794">
        <ele>48.19425</ele>
        <time>2022-12-18T11:03:44.606Z</time>
      </trkpt>
      <trkpt lat="46.74289" lon="-2.00779">
        <ele>48.212839</ele>
        <time>2022-12-18T11:03:47.607Z</time>
      </trkpt>
      <trkpt lat="46.74279" lon="-2.00765">
        <ele>48.231872</ele>
        <time>2022-12-18T11:03:50.612Z</time>
      </trkpt>
      <trkpt lat="46.74271" lon="-2.00751">
        <ele>48.314813</ele>
        <time>2022-12-18T11:03:53.603Z</time>
      </trkpt>
      <trkpt lat="46.74262" lon="-2.00736">
        <ele>48.423434</ele>
        <time>2022-12-18T11:03:56.602Z</time>
      </trkpt>
      <trkpt lat="46.74254" lon="-2.00722">
        <ele>48.533599</ele>
        <time>2022-12-18T11:03:59.604Z</time>
      </trkpt>
      <trkpt lat="46.74244" lon="-2.00708">
        <ele>48.646208</ele>
        <time>2022-12-18T11:04:02.603Z</time>
      </trkpt>
      <trkpt lat="46.74238" lon="-2.00698">
        <ele>48.723805</ele>
        <time>2022-12-18T11:04:04.606Z</time>
      </trkpt>
      <trkpt lat="46.74232" lon="-2.00688">
        <ele>48.801647</ele>
        <time>2022-12-18T11:04:06.590Z</time>
      </trkpt>
      <trkpt lat="46.74226" lon="-2.00678">
        <ele>48.879874</ele>
        <time>2022-12-18T11:04:08.602Z</time>
      </trkpt>
      <trkpt lat="46.74219" lon="-2.00668">
        <ele>48.958352</ele>
        <time>2022-12-18T11:04:10.606Z</time>
      </trkpt>
      <trkpt lat="46.74212" lon="-2.00659">
        <ele>49.037002</ele>
        <time>2022-12-18T11:04:12.589Z</time>
      </trkpt>
      <trkpt lat="46.74205" lon="-2.0065">
        <ele>49.114712</ele>
        <time>2022-12-18T11:04:14.615Z</time>
      </trkpt>
      <trkpt lat="46.74199" lon="-2.0064">
        <ele>49.192357</ele>
        <time>2022-12-18T11:04:16.605Z</time>
      </trkpt>
      <trkpt lat="46.74189" lon="-2.00627">
        <ele>49.305196</ele>
        <time>2022-12-18T11:04:19.605Z</time>
      </trkpt>
      <trkpt lat="46.74179" lon="-2.00614">
        <ele>49.415953</ele>
        <time>2022-12-18T11:04:22.609Z</time>
      </trkpt>
      <trkpt lat="46.7417" lon="-2.00601">
        <ele>49.521883</ele>
        <time>2022-12-18T11:04:25.602Z</time>
      </trkpt>
      <trkpt lat="46.74162" lon="-2.0059">
        <ele>49.612965</ele>
        <time>2022-12-18T11:04:28.601Z</time>
      </trkpt>
      <trkpt lat="46.74155" lon="-2.00579">
        <ele>49.702489</ele>
        <time>2022-12-18T11:04:31.592Z</time>
      </trkpt>
      <trkpt lat="46.74147" lon="-2.00568">
        <ele>49.778881</ele>
        <time>2022-12-18T11:04:34.587Z</time>
      </trkpt>
      <trkpt lat="46.74139" lon="-2.00557">
        <ele>49.845502</ele>
        <time>2022-12-18T11:04:37.614Z</time>
      </trkpt>
      <trkpt lat="46.7413" lon="-2.00544">
        <ele>49.916644</ele>
        <time>2022-12-18T11:04:40.602Z</time>
      </trkpt>
      <trkpt lat="46.74122" lon="-2.00531">
        <ele>49.989152</ele>
        <time>2022-12-18T11:04:43.605Z</time>
      </trkpt>
      <trkpt lat="46.74114" lon="-2.00518">
        <ele>50.060078</ele>
        <time>2022-12-18T11:04:46.605Z</time>
      </trkpt>
      <trkpt lat="46.74106" lon="-2.00506">
        <ele>50.126587</ele>
        <time>2022-12-18T11:04:49.610Z</time>
      </trkpt>
      <trkpt lat="46.741" lon="-2.00494">
        <ele>50.186427</ele>
        <time>2022-12-18T11:04:52.602Z</time>
      </trkpt>
      <trkpt lat="46.74094" lon="-2.00482">
        <ele>50.245734</ele>
        <time>2022-12-18T11:04:55.605Z</time>
      </trkpt>
      <trkpt lat="46.74088" lon="-2.00469">
        <ele>50.308738</ele>
        <time>2022-12-18T11:04:58.603Z</time>
      </trkpt>
      <trkpt lat="46.74083" lon="-2.00455">
        <ele>50.372879</ele>
        <time>2022-12-18T11:05:01.603Z</time>
      </trkpt>
      <trkpt lat="46.74077" lon="-2.00442">
        <ele>50.43585</ele>
        <time>2022-12-18T11:05:04.608Z</time>
      </trkpt>
      <trkpt lat="46.74071" lon="-2.00427">
        <ele>50.502259</ele>
        <time>2022-12-18T11:05:07.603Z</time>
      </trkpt>
      <trkpt lat="46.74067" lon="-2.00412">
        <ele>50.568497</ele>
        <time>2022-12-18T11:05:10.614Z</time>
      </trkpt>
      <trkpt lat="46.74064" lon="-2.00396">
        <ele>50.636948</ele>
        <time>2022-12-18T11:05:13.590Z</time>
      </trkpt>
      <trkpt lat="46.74063" lon="-2.00378">
        <ele>50.706886</ele>
        <time>2022-12-18T11:05:16.592Z</time>
      </trkpt>
      <trkpt lat="46.74063" lon="-2.0036">
        <ele>50.779604</ele>
        <time>2022-12-18T11:05:19.614Z</time>
      </trkpt>
      <trkpt lat="46.74066" lon="-2.00342">
        <ele>50.703206</ele>
        <time>2022-12-18T11:05:22.603Z</time>
      </trkpt>
      <trkpt lat="46.74071" lon="-2.00324">
        <ele>50.564616</ele>
        <time>2022-12-18T11:05:25.596Z</time>
      </trkpt>
      <trkpt lat="46.74075" lon="-2.00305">
        <ele>50.422949</ele>
        <time>2022-12-18T11:05:28.603Z</time>
      </trkpt>
      <trkpt lat="46.74078" lon="-2.00292">
        <ele>50.325299</ele>
        <time>2022-12-18T11:05:30.616Z</time>
      </trkpt>
      <trkpt lat="46.74082" lon="-2.00279">
        <ele>50.225557</ele>
        <time>2022-12-18T11:05:32.605Z</time>
      </trkpt>
      <trkpt lat="46.74085" lon="-2.00266">
        <ele>50.124371</ele>
        <time>2022-12-18T11:05:34.610Z</time>
      </trkpt>
      <trkpt lat="46.74089" lon="-2.00254">
        <ele>50.025446</ele>
        <time>2022-12-18T11:05:36.595Z</time>
      </trkpt>
      <trkpt lat="46.74093" lon="-2.00241">
        <ele>49.927597</ele>
        <time>2022-12-18T11:05:38.589Z</time>
      </trkpt>
      <trkpt lat="46.74097" lon="-2.00229">
        <ele>49.829137</ele>
        <time>2022-12-18T11:05:40.612Z</time>
      </trkpt>
      <trkpt lat="46.741" lon="-2.00215">
        <ele>49.724597</ele>
        <time>2022-12-18T11:05:42.608Z</time>
      </trkpt>
      <trkpt lat="46.74103" lon="-2.00203">
        <ele>49.629343</ele>
        <time>2022-12-18T11:05:44.610Z</time>
      </trkpt>
      <trkpt lat="46.74107" lon="-2.00191">
        <ele>49.533347</ele>
        <time>2022-12-18T11:05:46.602Z</time>
      </trkpt>
      <trkpt lat="46.74111" lon="-2.00174">
        <ele>49.402504</ele>
        <time>2022-12-18T11:05:49.602Z</time>
      </trkpt>
      <trkpt lat="46.74115" lon="-2.00157">
        <ele>49.275097</ele>
        <time>2022-12-18T11:05:52.589Z</time>
      </trkpt>
      <trkpt lat="46.74118" lon="-2.0014">
        <ele>49.146307</ele>
        <time>2022-12-18T11:05:55.603Z</time>
      </trkpt>
      <trkpt lat="46.74121" lon="-2.00122">
        <ele>49.01097</ele>
        <time>2022-12-18T11:05:58.587Z</time>
      </trkpt>
      <trkpt lat="46.74124" lon="-2.00103">
        <ele>48.939493</ele>
        <time>2022-12-18T11:06:01.607Z</time>
      </trkpt>
      <trkpt lat="46.74127" lon="-2.0009">
        <ele>49.023039</ele>
        <time>2022-12-18T11:06:03.603Z</time>
      </trkpt>
      <trkpt lat="46.74128" lon="-2.00076">
        <ele>49.106384</ele>
        <time>2022-12-18T11:06:05.612Z</time>
      </trkpt>
      <trkpt lat="46.7413" lon="-2.00062">
        <ele>49.196164</ele>
        <time>2022-12-18T11:06:07.594Z</time>
      </trkpt>
      <trkpt lat="46.74132" lon="-2.00049">
        <ele>49.281504</ele>
        <time>2022-12-18T11:06:09.604Z</time>
      </trkpt>
      <trkpt lat="46.74133" lon="-2.00034">
        <ele>49.370955</ele>
        <time>2022-12-18T11:06:11.609Z</time>
      </trkpt>
      <trkpt lat="46.74135" lon="-2.0002">
        <ele>49.459123</ele>
        <time>2022-12-18T11:06:13.604Z</time>
      </trkpt>
      <trkpt lat="46.74135" lon="-2.00006">
        <ele>49.547356</ele>
        <time>2022-12-18T11:06:15.614Z</time>
      </trkpt>
      <trkpt lat="46.74136" lon="-1.99993">
        <ele>49.629054</ele>
        <time>2022-12-18T11:06:17.615Z</time>
      </trkpt>
      <trkpt lat="46.74137" lon="-1.99974">
        <ele>49.746066</ele>
        <time>2022-12-18T11:06:20.603Z</time>
      </trkpt>
      <trkpt lat="46.74138" lon="-1.99957">
        <ele>49.854347</ele>
        <time>2022-12-18T11:06:23.604Z</time>
      </trkpt>
      <trkpt lat="46.74139" lon="-1.99938">
        <ele>49.968611</ele>
        <time>2022-12-18T11:06:26.611Z</time>
      </trkpt>
      <trkpt lat="46.7414" lon="-1.9992">
        <ele>50.082605</ele>
        <time>2022-12-18T11:06:29.601Z</time>
      </trkpt>
      <trkpt lat="46.74141" lon="-1.99901">
        <ele>50.198819</ele>
        <time>2022-12-18T11:06:32.591Z</time>
      </trkpt>
      <trkpt lat="46.74142" lon="-1.99882">
        <ele>50.319421</ele>
        <time>2022-12-18T11:06:35.606Z</time>
      </trkpt>
      <trkpt lat="46.74143" lon="-1.99862">
        <ele>50.442002</ele>
        <time>2022-12-18T11:06:38.608Z</time>
      </trkpt>
      <trkpt lat="46.74145" lon="-1.99844">
        <ele>50.533328</ele>
        <time>2022-12-18T11:06:41.614Z</time>
      </trkpt>
      <trkpt lat="46.74145" lon="-1.9983">
        <ele>50.523212</ele>
        <time>2022-12-18T11:06:43.590Z</time>
      </trkpt>
      <trkpt lat="46.74146" lon="-1.99811">
        <ele>50.509069</ele>
        <time>2022-12-18T11:06:46.614Z</time>
      </trkpt>
      <trkpt lat="46.74147" lon="-1.99798">
        <ele>50.498805</ele>
        <time>2022-12-18T11:06:48.614Z</time>
      </trkpt>
      <trkpt lat="46.74148" lon="-1.99785">
        <ele>50.488902</ele>
        <time>2022-12-18T11:06:50.608Z</time>
      </trkpt>
      <trkpt lat="46.74149" lon="-1.99771">
        <ele>50.478988</ele>
        <time>2022-12-18T11:06:52.598Z</time>
      </trkpt>
      <trkpt lat="46.7415" lon="-1.99758">
        <ele>50.469112</ele>
        <time>2022-12-18T11:06:54.606Z</time>
      </trkpt>
      <trkpt lat="46.74151" lon="-1.99739">
        <ele>50.454773</ele>
        <time>2022-12-18T11:06:57.606Z</time>
      </trkpt>
      <trkpt lat="46.74152" lon="-1.9972">
        <ele>50.440421</ele>
        <time>2022-12-18T11:07:00.604Z</time>
      </trkpt>
      <trkpt lat="46.74153" lon="-1.99706">
        <ele>50.429726</ele>
        <time>2022-12-18T11:07:02.615Z</time>
      </trkpt>
      <trkpt lat="46.74153" lon="-1.99691">
        <ele>50.418893</ele>
        <time>2022-12-18T11:07:04.610Z</time>
      </trkpt>
      <trkpt lat="46.74155" lon="-1.99677">
        <ele>50.408272</ele>
        <time>2022-12-18T11:07:06.600Z</time>
      </trkpt>
      <trkpt lat="46.74156" lon="-1.99661">
        <ele>50.396497</ele>
        <time>2022-12-18T11:07:08.604Z</time>
      </trkpt>
      <trkpt lat="46.74159" lon="-1.99648">
        <ele>50.385993</ele>
        <time>2022-12-18T11:07:10.588Z</time>
      </trkpt>
      <trkpt lat="46.74162" lon="-1.9963">
        <ele>50.372138</ele>
        <time>2022-12-18T11:07:13.603Z</time>
      </trkpt>
      <trkpt lat="46.74166" lon="-1.99613">
        <ele>50.35899</ele>
        <time>2022-12-18T11:07:16.605Z</time>
      </trkpt>
      <trkpt lat="46.74171" lon="-1.99596">
        <ele>50.345042</ele>
        <time>2022-12-18T11:07:19.585Z</time>
      </trkpt>
      <trkpt lat="46.74175" lon="-1.99578">
        <ele>50.31682</ele>
        <time>2022-12-18T11:07:22.604Z</time>
      </trkpt>
      <trkpt lat="46.7418" lon="-1.99562">
        <ele>50.282457</ele>
        <time>2022-12-18T11:07:25.613Z</time>
      </trkpt>
      <trkpt lat="46.74185" lon="-1.99546">
        <ele>50.248216</ele>
        <time>2022-12-18T11:07:28.602Z</time>
      </trkpt>
      <trkpt lat="46.74191" lon="-1.99528">
        <ele>50.210124</ele>
        <time>2022-12-18T11:07:31.614Z</time>
      </trkpt>
      <trkpt lat="46.74194" lon="-1.99515">
        <ele>50.184772</ele>
        <time>2022-12-18T11:07:33.601Z</time>
      </trkpt>
      <trkpt lat="46.74197" lon="-1.99502">
        <ele>50.158516</ele>
        <time>2022-12-18T11:07:35.610Z</time>
      </trkpt>
      <trkpt lat="46.74201" lon="-1.99485">
        <ele>50.123176</ele>
        <time>2022-12-18T11:07:38.611Z</time>
      </trkpt>
      <trkpt lat="46.74205" lon="-1.99467">
        <ele>50.086449</ele>
        <time>2022-12-18T11:07:41.593Z</time>
      </trkpt>
      <trkpt lat="46.74208" lon="-1.9945">
        <ele>50.05329</ele>
        <time>2022-12-18T11:07:44.607Z</time>
      </trkpt>
      <trkpt lat="46.74211" lon="-1.99433">
        <ele>50.019723</ele>
        <time>2022-12-18T11:07:47.606Z</time>
      </trkpt>
      <trkpt lat="46.74214" lon="-1.99415">
        <ele>49.984933</ele>
        <time>2022-12-18T11:07:50.588Z</time>
      </trkpt>
      <trkpt lat="46.74216" lon="-1.99397">
        <ele>49.949151</ele>
        <time>2022-12-18T11:07:53.616Z</time>
      </trkpt>
      <trkpt lat="46.74216" lon="-1.99377">
        <ele>49.911671</ele>
        <time>2022-12-18T11:07:56.609Z</time>
      </trkpt>
      <trkpt lat="46.74214" lon="-1.99359">
        <ele>49.876079</ele>
        <time>2022-12-18T11:07:59.589Z</time>
      </trkpt>
      <trkpt lat="46.7421" lon="-1.99345">
        <ele>49.846638</ele>
        <time>2022-12-18T11:08:02.588Z</time>
      </trkpt>
      <trkpt lat="46.74205" lon="-1.99333">
        <ele>49.831318</ele>
        <time>2022-12-18T11:08:05.597Z</time>
      </trkpt>
      <trkpt lat="46.74197" lon="-1.99325">
        <ele>49.824245</ele>
        <time>2022-12-18T11:08:08.591Z</time>
      </trkpt>
      <trkpt lat="46.74188" lon="-1.99317">
        <ele>49.816257</ele>
        <time>2022-12-18T11:08:11.614Z</time>
      </trkpt>
      <trkpt lat="46.74182" lon="-1.99304">
        <ele>49.808328</ele>
        <time>2022-12-18T11:08:14.591Z</time>
      </trkpt>
      <trkpt lat="46.74184" lon="-1.99288">
        <ele>49.800216</ele>
        <time>2022-12-18T11:08:17.591Z</time>
      </trkpt>
      <trkpt lat="46.74193" lon="-1.99278">
        <ele>49.791672</ele>
        <time>2022-12-18T11:08:20.593Z</time>
      </trkpt>
      <trkpt lat="46.74201" lon="-1.99263">
        <ele>49.7824</ele>
        <time>2022-12-18T11:08:23.596Z</time>
      </trkpt>
      <trkpt lat="46.74201" lon="-1.99244">
        <ele>49.772283</ele>
        <time>2022-12-18T11:08:26.595Z</time>
      </trkpt>
      <trkpt lat="46.74199" lon="-1.9923">
        <ele>49.765518</ele>
        <time>2022-12-18T11:08:28.596Z</time>
      </trkpt>
      <trkpt lat="46.74197" lon="-1.99218">
        <ele>49.758794</ele>
        <time>2022-12-18T11:08:30.611Z</time>
      </trkpt>
      <trkpt lat="46.74195" lon="-1.99198">
        <ele>49.748886</ele>
        <time>2022-12-18T11:08:33.595Z</time>
      </trkpt>
      <trkpt lat="46.74192" lon="-1.99185">
        <ele>49.74198</ele>
        <time>2022-12-18T11:08:35.591Z</time>
      </trkpt>
      <trkpt lat="46.74191" lon="-1.99172">
        <ele>49.735279</ele>
        <time>2022-12-18T11:08:37.598Z</time>
      </trkpt>
      <trkpt lat="46.74189" lon="-1.99153">
        <ele>49.725282</ele>
        <time>2022-12-18T11:08:40.606Z</time>
      </trkpt>
      <trkpt lat="46.74188" lon="-1.9914">
        <ele>49.71858</ele>
        <time>2022-12-18T11:08:42.602Z</time>
      </trkpt>
      <trkpt lat="46.74185" lon="-1.9912">
        <ele>49.708645</ele>
        <time>2022-12-18T11:08:45.616Z</time>
      </trkpt>
      <trkpt lat="46.74183" lon="-1.99102">
        <ele>49.764783</ele>
        <time>2022-12-18T11:08:48.604Z</time>
      </trkpt>
      <trkpt lat="46.74181" lon="-1.99085">
        <ele>49.920216</ele>
        <time>2022-12-18T11:08:51.600Z</time>
      </trkpt>
      <trkpt lat="46.74179" lon="-1.99069">
        <ele>50.071761</ele>
        <time>2022-12-18T11:08:54.615Z</time>
      </trkpt>
      <trkpt lat="46.74177" lon="-1.99053">
        <ele>50.226278</ele>
        <time>2022-12-18T11:08:57.608Z</time>
      </trkpt>
      <trkpt lat="46.74175" lon="-1.99035">
        <ele>50.393898</ele>
        <time>2022-12-18T11:09:00.615Z</time>
      </trkpt>
      <trkpt lat="46.74173" lon="-1.99017">
        <ele>50.561969</ele>
        <time>2022-12-18T11:09:03.604Z</time>
      </trkpt>
      <trkpt lat="46.74171" lon="-1.98999">
        <ele>50.733236</ele>
        <time>2022-12-18T11:09:06.589Z</time>
      </trkpt>
      <trkpt lat="46.74168" lon="-1.98981">
        <ele>50.906858</ele>
        <time>2022-12-18T11:09:09.616Z</time>
      </trkpt>
      <trkpt lat="46.74166" lon="-1.98962">
        <ele>51.088728</ele>
        <time>2022-12-18T11:09:12.590Z</time>
      </trkpt>
      <trkpt lat="46.74165" lon="-1.98948">
        <ele>51.217408</ele>
        <time>2022-12-18T11:09:14.591Z</time>
      </trkpt>
      <trkpt lat="46.74163" lon="-1.98928">
        <ele>51.402835</ele>
        <time>2022-12-18T11:09:17.589Z</time>
      </trkpt>
      <trkpt lat="46.74161" lon="-1.98914">
        <ele>51.533556</ele>
        <time>2022-12-18T11:09:19.621Z</time>
      </trkpt>
      <trkpt lat="46.7416" lon="-1.98901">
        <ele>51.660609</ele>
        <time>2022-12-18T11:09:21.600Z</time>
      </trkpt>
      <trkpt lat="46.74158" lon="-1.98887">
        <ele>51.788921</ele>
        <time>2022-12-18T11:09:23.614Z</time>
      </trkpt>
      <trkpt lat="46.74155" lon="-1.98869">
        <ele>51.961301</ele>
        <time>2022-12-18T11:09:26.605Z</time>
      </trkpt>
      <trkpt lat="46.74152" lon="-1.98853">
        <ele>52.117413</ele>
        <time>2022-12-18T11:09:29.605Z</time>
      </trkpt>
      <trkpt lat="46.74148" lon="-1.98837">
        <ele>52.072015</ele>
        <time>2022-12-18T11:09:32.588Z</time>
      </trkpt>
      <trkpt lat="46.74144" lon="-1.9882">
        <ele>51.988983</ele>
        <time>2022-12-18T11:09:35.620Z</time>
      </trkpt>
      <trkpt lat="46.74139" lon="-1.98803">
        <ele>51.899993</ele>
        <time>2022-12-18T11:09:38.618Z</time>
      </trkpt>
      <trkpt lat="46.74134" lon="-1.98791">
        <ele>51.836721</ele>
        <time>2022-12-18T11:09:40.601Z</time>
      </trkpt>
      <trkpt lat="46.7413" lon="-1.98779">
        <ele>51.772178</ele>
        <time>2022-12-18T11:09:42.587Z</time>
      </trkpt>
      <trkpt lat="46.74126" lon="-1.98767">
        <ele>51.709015</ele>
        <time>2022-12-18T11:09:44.594Z</time>
      </trkpt>
      <trkpt lat="46.74122" lon="-1.98754">
        <ele>51.643197</ele>
        <time>2022-12-18T11:09:46.593Z</time>
      </trkpt>
      <trkpt lat="46.74117" lon="-1.98742">
        <ele>51.576062</ele>
        <time>2022-12-18T11:09:48.587Z</time>
      </trkpt>
      <trkpt lat="46.74113" lon="-1.98729">
        <ele>51.509095</ele>
        <time>2022-12-18T11:09:50.586Z</time>
      </trkpt>
      <trkpt lat="46.74108" lon="-1.98716">
        <ele>51.439414</ele>
        <time>2022-12-18T11:09:52.596Z</time>
      </trkpt>
      <trkpt lat="46.74104" lon="-1.98703">
        <ele>51.371853</ele>
        <time>2022-12-18T11:09:54.592Z</time>
      </trkpt>
      <trkpt lat="46.741" lon="-1.98691">
        <ele>51.30638</ele>
        <time>2022-12-18T11:09:56.607Z</time>
      </trkpt>
      <trkpt lat="46.74094" lon="-1.98675">
        <ele>51.222153</ele>
        <time>2022-12-18T11:09:59.617Z</time>
      </trkpt>
      <trkpt lat="46.74088" lon="-1.98661">
        <ele>51.14101</ele>
        <time>2022-12-18T11:10:02.590Z</time>
      </trkpt>
      <trkpt lat="46.74081" lon="-1.98646">
        <ele>51.06002</ele>
        <time>2022-12-18T11:10:05.593Z</time>
      </trkpt>
      <trkpt lat="46.74074" lon="-1.98631">
        <ele>50.974378</ele>
        <time>2022-12-18T11:10:08.603Z</time>
      </trkpt>
      <trkpt lat="46.74067" lon="-1.98616">
        <ele>50.882552</ele>
        <time>2022-12-18T11:10:11.597Z</time>
      </trkpt>
      <trkpt lat="46.74061" lon="-1.986">
        <ele>50.772436</ele>
        <time>2022-12-18T11:10:14.591Z</time>
      </trkpt>
      <trkpt lat="46.74056" lon="-1.98588">
        <ele>50.694329</ele>
        <time>2022-12-18T11:10:16.610Z</time>
      </trkpt>
      <trkpt lat="46.74051" lon="-1.98576">
        <ele>50.614341</ele>
        <time>2022-12-18T11:10:18.597Z</time>
      </trkpt>
      <trkpt lat="46.74047" lon="-1.98565">
        <ele>50.536465</ele>
        <time>2022-12-18T11:10:20.587Z</time>
      </trkpt>
      <trkpt lat="46.74041" lon="-1.98546">
        <ele>50.415174</ele>
        <time>2022-12-18T11:10:23.605Z</time>
      </trkpt>
      <trkpt lat="46.74037" lon="-1.98533">
        <ele>50.330697</ele>
        <time>2022-12-18T11:10:25.602Z</time>
      </trkpt>
      <trkpt lat="46.74033" lon="-1.9852">
        <ele>50.245861</ele>
        <time>2022-12-18T11:10:27.609Z</time>
      </trkpt>
      <trkpt lat="46.74029" lon="-1.98507">
        <ele>50.162806</ele>
        <time>2022-12-18T11:10:29.615Z</time>
      </trkpt>
      <trkpt lat="46.74025" lon="-1.98494">
        <ele>50.079693</ele>
        <time>2022-12-18T11:10:31.614Z</time>
      </trkpt>
      <trkpt lat="46.74021" lon="-1.98482">
        <ele>50.001564</ele>
        <time>2022-12-18T11:10:33.599Z</time>
      </trkpt>
      <trkpt lat="46.74016" lon="-1.98465">
        <ele>49.892843</ele>
        <time>2022-12-18T11:10:36.615Z</time>
      </trkpt>
      <trkpt lat="46.74011" lon="-1.98448">
        <ele>49.783987</ele>
        <time>2022-12-18T11:10:39.605Z</time>
      </trkpt>
      <trkpt lat="46.74006" lon="-1.9843">
        <ele>49.67122</ele>
        <time>2022-12-18T11:10:42.615Z</time>
      </trkpt>
      <trkpt lat="46.74" lon="-1.98412">
        <ele>49.556424</ele>
        <time>2022-12-18T11:10:45.674Z</time>
      </trkpt>
      <trkpt lat="46.73997" lon="-1.984">
        <ele>49.477759</ele>
        <time>2022-12-18T11:10:47.602Z</time>
      </trkpt>
      <trkpt lat="46.73993" lon="-1.98387">
        <ele>49.400381</ele>
        <time>2022-12-18T11:10:49.604Z</time>
      </trkpt>
      <trkpt lat="46.73989" lon="-1.98376">
        <ele>49.360531</ele>
        <time>2022-12-18T11:10:51.607Z</time>
      </trkpt>
      <trkpt lat="46.73985" lon="-1.98363">
        <ele>49.356069</ele>
        <time>2022-12-18T11:10:53.606Z</time>
      </trkpt>
      <trkpt lat="46.7398" lon="-1.98346">
        <ele>49.349961</ele>
        <time>2022-12-18T11:10:56.604Z</time>
      </trkpt>
      <trkpt lat="46.73976" lon="-1.9833">
        <ele>49.344335</ele>
        <time>2022-12-18T11:10:59.611Z</time>
      </trkpt>
      <trkpt lat="46.73971" lon="-1.98314">
        <ele>49.338641</ele>
        <time>2022-12-18T11:11:02.601Z</time>
      </trkpt>
      <trkpt lat="46.73966" lon="-1.98297">
        <ele>49.33272</ele>
        <time>2022-12-18T11:11:05.605Z</time>
      </trkpt>
      <trkpt lat="46.73961" lon="-1.9828">
        <ele>49.326721</ele>
        <time>2022-12-18T11:11:08.604Z</time>
      </trkpt>
      <trkpt lat="46.73956" lon="-1.98263">
        <ele>49.320542</ele>
        <time>2022-12-18T11:11:11.615Z</time>
      </trkpt>
      <trkpt lat="46.7395" lon="-1.98245">
        <ele>49.314287</ele>
        <time>2022-12-18T11:11:14.608Z</time>
      </trkpt>
      <trkpt lat="46.73945" lon="-1.98228">
        <ele>49.307942</ele>
        <time>2022-12-18T11:11:17.609Z</time>
      </trkpt>
      <trkpt lat="46.7394" lon="-1.98211">
        <ele>49.302268</ele>
        <time>2022-12-18T11:11:20.620Z</time>
      </trkpt>
      <trkpt lat="46.73936" lon="-1.98196">
        <ele>49.297099</ele>
        <time>2022-12-18T11:11:23.608Z</time>
      </trkpt>
      <trkpt lat="46.73932" lon="-1.98181">
        <ele>49.29172</ele>
        <time>2022-12-18T11:11:27.612Z</time>
      </trkpt>
      <trkpt lat="46.73926" lon="-1.98168">
        <ele>49.286693</ele>
        <time>2022-12-18T11:11:30.595Z</time>
      </trkpt>
      <trkpt lat="46.73921" lon="-1.98153">
        <ele>49.281265</ele>
        <time>2022-12-18T11:11:33.614Z</time>
      </trkpt>
      <trkpt lat="46.73917" lon="-1.98137">
        <ele>49.37848</ele>
        <time>2022-12-18T11:11:36.585Z</time>
      </trkpt>
      <trkpt lat="46.73911" lon="-1.9812">
        <ele>49.719898</ele>
        <time>2022-12-18T11:11:39.591Z</time>
      </trkpt>
      <trkpt lat="46.73906" lon="-1.98103">
        <ele>50.068519</ele>
        <time>2022-12-18T11:11:42.607Z</time>
      </trkpt>
      <trkpt lat="46.73901" lon="-1.98085">
        <ele>50.416703</ele>
        <time>2022-12-18T11:11:45.611Z</time>
      </trkpt>
      <trkpt lat="46.73897" lon="-1.98073">
        <ele>50.660886</ele>
        <time>2022-12-18T11:11:47.602Z</time>
      </trkpt>
      <trkpt lat="46.73892" lon="-1.98057">
        <ele>50.98209</ele>
        <time>2022-12-18T11:11:50.611Z</time>
      </trkpt>
      <trkpt lat="46.73887" lon="-1.98041">
        <ele>51.304753</ele>
        <time>2022-12-18T11:11:53.614Z</time>
      </trkpt>
      <trkpt lat="46.73882" lon="-1.98024">
        <ele>51.639082</ele>
        <time>2022-12-18T11:11:56.609Z</time>
      </trkpt>
      <trkpt lat="46.73876" lon="-1.98006">
        <ele>51.991042</ele>
        <time>2022-12-18T11:11:59.613Z</time>
      </trkpt>
      <trkpt lat="46.73871" lon="-1.97989">
        <ele>52.341849</ele>
        <time>2022-12-18T11:12:02.606Z</time>
      </trkpt>
      <trkpt lat="46.73867" lon="-1.97977">
        <ele>52.579956</ele>
        <time>2022-12-18T11:12:04.608Z</time>
      </trkpt>
      <trkpt lat="46.73862" lon="-1.97959">
        <ele>52.933531</ele>
        <time>2022-12-18T11:12:07.600Z</time>
      </trkpt>
      <trkpt lat="46.73857" lon="-1.97943">
        <ele>53.251785</ele>
        <time>2022-12-18T11:12:10.607Z</time>
      </trkpt>
      <trkpt lat="46.73852" lon="-1.97928">
        <ele>53.562293</ele>
        <time>2022-12-18T11:12:13.606Z</time>
      </trkpt>
      <trkpt lat="46.73847" lon="-1.97911">
        <ele>53.896625</ele>
        <time>2022-12-18T11:12:16.609Z</time>
      </trkpt>
      <trkpt lat="46.7384" lon="-1.97895">
        <ele>54.141862</ele>
        <time>2022-12-18T11:12:19.627Z</time>
      </trkpt>
      <trkpt lat="46.73833" lon="-1.97879">
        <ele>54.298949</ele>
        <time>2022-12-18T11:12:22.614Z</time>
      </trkpt>
      <trkpt lat="46.73826" lon="-1.97864">
        <ele>54.450427</ele>
        <time>2022-12-18T11:12:25.610Z</time>
      </trkpt>
      <trkpt lat="46.73819" lon="-1.97851">
        <ele>54.582555</ele>
        <time>2022-12-18T11:12:28.594Z</time>
      </trkpt>
      <trkpt lat="46.73813" lon="-1.97841">
        <ele>54.69347</ele>
        <time>2022-12-18T11:12:31.604Z</time>
      </trkpt>
      <trkpt lat="46.73807" lon="-1.97831">
        <ele>54.808853</ele>
        <time>2022-12-18T11:12:34.603Z</time>
      </trkpt>
      <trkpt lat="46.738" lon="-1.97819">
        <ele>54.929217</ele>
        <time>2022-12-18T11:12:37.602Z</time>
      </trkpt>
      <trkpt lat="46.73795" lon="-1.97808">
        <ele>55.042741</ele>
        <time>2022-12-18T11:12:40.609Z</time>
      </trkpt>
      <trkpt lat="46.73787" lon="-1.97795">
        <ele>55.186695</ele>
        <time>2022-12-18T11:12:44.603Z</time>
      </trkpt>
      <trkpt lat="46.73779" lon="-1.97781">
        <ele>55.331914</ele>
        <time>2022-12-18T11:12:48.593Z</time>
      </trkpt>
      <trkpt lat="46.73774" lon="-1.9777">
        <ele>55.442092</ele>
        <time>2022-12-18T11:12:51.609Z</time>
      </trkpt>
      <trkpt lat="46.73767" lon="-1.97759">
        <ele>55.567752</ele>
        <time>2022-12-18T11:12:55.616Z</time>
      </trkpt>
      <trkpt lat="46.7376" lon="-1.97747">
        <ele>55.700137</ele>
        <time>2022-12-18T11:12:59.611Z</time>
      </trkpt>
      <trkpt lat="46.73752" lon="-1.97733">
        <ele>55.841289</ele>
        <time>2022-12-18T11:13:03.617Z</time>
      </trkpt>
      <trkpt lat="46.73746" lon="-1.97723">
        <ele>55.953107</ele>
        <time>2022-12-18T11:13:06.604Z</time>
      </trkpt>
      <trkpt lat="46.7374" lon="-1.97712">
        <ele>56.066708</ele>
        <time>2022-12-18T11:13:09.604Z</time>
      </trkpt>
      <trkpt lat="46.73734" lon="-1.97702">
        <ele>56.180181</ele>
        <time>2022-12-18T11:13:12.606Z</time>
      </trkpt>
      <trkpt lat="46.73727" lon="-1.97692">
        <ele>56.126191</ele>
        <time>2022-12-18T11:13:15.589Z</time>
      </trkpt>
      <trkpt lat="46.7372" lon="-1.97682">
        <ele>55.981689</ele>
        <time>2022-12-18T11:13:18.611Z</time>
      </trkpt>
      <trkpt lat="46.73713" lon="-1.97671">
        <ele>55.837503</ele>
        <time>2022-12-18T11:13:21.604Z</time>
      </trkpt>
      <trkpt lat="46.73705" lon="-1.97661">
        <ele>55.689607</ele>
        <time>2022-12-18T11:13:24.614Z</time>
      </trkpt>
      <trkpt lat="46.73696" lon="-1.97651">
        <ele>55.52747</ele>
        <time>2022-12-18T11:13:27.597Z</time>
      </trkpt>
      <trkpt lat="46.73686" lon="-1.9764">
        <ele>55.355785</ele>
        <time>2022-12-18T11:13:30.598Z</time>
      </trkpt>
      <trkpt lat="46.73677" lon="-1.97631">
        <ele>55.190774</ele>
        <time>2022-12-18T11:13:33.605Z</time>
      </trkpt>
      <trkpt lat="46.73667" lon="-1.97622">
        <ele>55.029452</ele>
        <time>2022-12-18T11:13:36.612Z</time>
      </trkpt>
      <trkpt lat="46.73657" lon="-1.97611">
        <ele>54.850853</ele>
        <time>2022-12-18T11:13:39.608Z</time>
      </trkpt>
      <trkpt lat="46.73646" lon="-1.97599">
        <ele>54.659002</ele>
        <time>2022-12-18T11:13:42.608Z</time>
      </trkpt>
      <trkpt lat="46.73639" lon="-1.97591">
        <ele>54.524745</ele>
        <time>2022-12-18T11:13:44.611Z</time>
      </trkpt>
      <trkpt lat="46.73631" lon="-1.97583">
        <ele>54.390508</ele>
        <time>2022-12-18T11:13:46.605Z</time>
      </trkpt>
      <trkpt lat="46.73623" lon="-1.97575">
        <ele>54.252236</ele>
        <time>2022-12-18T11:13:48.604Z</time>
      </trkpt>
      <trkpt lat="46.73615" lon="-1.97568">
        <ele>54.121907</ele>
        <time>2022-12-18T11:13:50.614Z</time>
      </trkpt>
      <trkpt lat="46.73607" lon="-1.9756">
        <ele>53.982291</ele>
        <time>2022-12-18T11:13:52.606Z</time>
      </trkpt>
      <trkpt lat="46.736" lon="-1.97552">
        <ele>53.845114</ele>
        <time>2022-12-18T11:13:54.606Z</time>
      </trkpt>
      <trkpt lat="46.73588" lon="-1.97541">
        <ele>53.651187</ele>
        <time>2022-12-18T11:13:57.604Z</time>
      </trkpt>
      <trkpt lat="46.73577" lon="-1.9753">
        <ele>53.545236</ele>
        <time>2022-12-18T11:14:00.608Z</time>
      </trkpt>
      <trkpt lat="46.7357" lon="-1.97522">
        <ele>53.472216</ele>
        <time>2022-12-18T11:14:02.583Z</time>
      </trkpt>
      <trkpt lat="46.73563" lon="-1.97514">
        <ele>53.398506</ele>
        <time>2022-12-18T11:14:04.606Z</time>
      </trkpt>
      <trkpt lat="46.73552" lon="-1.97503">
        <ele>53.291864</ele>
        <time>2022-12-18T11:14:07.608Z</time>
      </trkpt>
      <trkpt lat="46.73541" lon="-1.97492">
        <ele>53.188469</ele>
        <time>2022-12-18T11:14:10.603Z</time>
      </trkpt>
      <trkpt lat="46.73531" lon="-1.97482">
        <ele>53.087953</ele>
        <time>2022-12-18T11:14:13.595Z</time>
      </trkpt>
      <trkpt lat="46.73521" lon="-1.97472">
        <ele>52.989169</ele>
        <time>2022-12-18T11:14:16.589Z</time>
      </trkpt>
      <trkpt lat="46.73511" lon="-1.97461">
        <ele>52.887124</ele>
        <time>2022-12-18T11:14:19.604Z</time>
      </trkpt>
      <trkpt lat="46.735" lon="-1.9745">
        <ele>52.782788</ele>
        <time>2022-12-18T11:14:22.594Z</time>
      </trkpt>
      <trkpt lat="46.7349" lon="-1.9744">
        <ele>52.681702</ele>
        <time>2022-12-18T11:14:25.610Z</time>
      </trkpt>
      <trkpt lat="46.7348" lon="-1.97429">
        <ele>52.580616</ele>
        <time>2022-12-18T11:14:28.602Z</time>
      </trkpt>
      <trkpt lat="46.7347" lon="-1.97419">
        <ele>52.488359</ele>
        <time>2022-12-18T11:14:31.615Z</time>
      </trkpt>
      <trkpt lat="46.73461" lon="-1.97411">
        <ele>52.398603</ele>
        <time>2022-12-18T11:14:34.608Z</time>
      </trkpt>
      <trkpt lat="46.73451" lon="-1.97401">
        <ele>52.303071</ele>
        <time>2022-12-18T11:14:37.606Z</time>
      </trkpt>
      <trkpt lat="46.73441" lon="-1.97391">
        <ele>52.208049</ele>
        <time>2022-12-18T11:14:40.609Z</time>
      </trkpt>
      <trkpt lat="46.73431" lon="-1.97381">
        <ele>52.241488</ele>
        <time>2022-12-18T11:14:43.604Z</time>
      </trkpt>
      <trkpt lat="46.7342" lon="-1.97373">
        <ele>52.281933</ele>
        <time>2022-12-18T11:14:46.603Z</time>
      </trkpt>
      <trkpt lat="46.7341" lon="-1.97365">
        <ele>52.320269</ele>
        <time>2022-12-18T11:14:49.609Z</time>
      </trkpt>
      <trkpt lat="46.734" lon="-1.97358">
        <ele>52.356435</ele>
        <time>2022-12-18T11:14:52.589Z</time>
      </trkpt>
      <trkpt lat="46.7339" lon="-1.97352">
        <ele>52.390821</ele>
        <time>2022-12-18T11:14:55.591Z</time>
      </trkpt>
      <trkpt lat="46.73381" lon="-1.97348">
        <ele>52.423322</ele>
        <time>2022-12-18T11:14:58.605Z</time>
      </trkpt>
      <trkpt lat="46.7337" lon="-1.97343">
        <ele>52.458338</ele>
        <time>2022-12-18T11:15:01.616Z</time>
      </trkpt>
      <trkpt lat="46.7336" lon="-1.97338">
        <ele>52.495152</ele>
        <time>2022-12-18T11:15:04.605Z</time>
      </trkpt>
      <trkpt lat="46.73349" lon="-1.97332">
        <ele>52.532372</ele>
        <time>2022-12-18T11:15:07.615Z</time>
      </trkpt>
      <trkpt lat="46.73338" lon="-1.97327">
        <ele>52.569133</ele>
        <time>2022-12-18T11:15:10.595Z</time>
      </trkpt>
      <trkpt lat="46.73327" lon="-1.97321">
        <ele>52.60743</ele>
        <time>2022-12-18T11:15:13.607Z</time>
      </trkpt>
      <trkpt lat="46.73316" lon="-1.97316">
        <ele>52.646203</ele>
        <time>2022-12-18T11:15:16.596Z</time>
      </trkpt>
      <trkpt lat="46.73305" lon="-1.9731">
        <ele>52.685189</ele>
        <time>2022-12-18T11:15:19.619Z</time>
      </trkpt>
      <trkpt lat="46.73293" lon="-1.97305">
        <ele>52.723069</ele>
        <time>2022-12-18T11:15:22.617Z</time>
      </trkpt>
      <trkpt lat="46.73282" lon="-1.973">
        <ele>52.761084</ele>
        <time>2022-12-18T11:15:25.608Z</time>
      </trkpt>
      <trkpt lat="46.73273" lon="-1.97294">
        <ele>52.803075</ele>
        <time>2022-12-18T11:15:28.585Z</time>
      </trkpt>
      <trkpt lat="46.73264" lon="-1.97289">
        <ele>52.890476</ele>
        <time>2022-12-18T11:15:31.605Z</time>
      </trkpt>
      <trkpt lat="46.73254" lon="-1.97282">
        <ele>52.983422</ele>
        <time>2022-12-18T11:15:34.613Z</time>
      </trkpt>
      <trkpt lat="46.73244" lon="-1.97276">
        <ele>53.078617</ele>
        <time>2022-12-18T11:15:37.605Z</time>
      </trkpt>
      <trkpt lat="46.73234" lon="-1.97267">
        <ele>53.180679</ele>
        <time>2022-12-18T11:15:40.594Z</time>
      </trkpt>
      <trkpt lat="46.73224" lon="-1.97257">
        <ele>53.294513</ele>
        <time>2022-12-18T11:15:43.613Z</time>
      </trkpt>
      <trkpt lat="46.73216" lon="-1.9725">
        <ele>53.375951</ele>
        <time>2022-12-18T11:15:45.588Z</time>
      </trkpt>
      <trkpt lat="46.73209" lon="-1.97241">
        <ele>53.457932</ele>
        <time>2022-12-18T11:15:47.610Z</time>
      </trkpt>
      <trkpt lat="46.73202" lon="-1.97233">
        <ele>53.540358</ele>
        <time>2022-12-18T11:15:49.614Z</time>
      </trkpt>
      <trkpt lat="46.73194" lon="-1.97225">
        <ele>53.62057</ele>
        <time>2022-12-18T11:15:51.606Z</time>
      </trkpt>
      <trkpt lat="46.73187" lon="-1.97215">
        <ele>53.704844</ele>
        <time>2022-12-18T11:15:53.605Z</time>
      </trkpt>
      <trkpt lat="46.73177" lon="-1.97203">
        <ele>53.822841</ele>
        <time>2022-12-18T11:15:56.618Z</time>
      </trkpt>
      <trkpt lat="46.73167" lon="-1.9719">
        <ele>53.940168</ele>
        <time>2022-12-18T11:15:59.604Z</time>
      </trkpt>
      <trkpt lat="46.73158" lon="-1.97177">
        <ele>54.053241</ele>
        <time>2022-12-18T11:16:02.617Z</time>
      </trkpt>
      <trkpt lat="46.73149" lon="-1.97164">
        <ele>54.167331</ele>
        <time>2022-12-18T11:16:05.606Z</time>
      </trkpt>
      <trkpt lat="46.7314" lon="-1.97151">
        <ele>54.279132</ele>
        <time>2022-12-18T11:16:08.605Z</time>
      </trkpt>
      <trkpt lat="46.73131" lon="-1.97138">
        <ele>54.382741</ele>
        <time>2022-12-18T11:16:11.619Z</time>
      </trkpt>
      <trkpt lat="46.73121" lon="-1.97125">
        <ele>54.379742</ele>
        <time>2022-12-18T11:16:14.595Z</time>
      </trkpt>
      <trkpt lat="46.73115" lon="-1.97116">
        <ele>54.377635</ele>
        <time>2022-12-18T11:16:16.605Z</time>
      </trkpt>
      <trkpt lat="46.73105" lon="-1.97102">
        <ele>54.37457</ele>
        <time>2022-12-18T11:16:19.617Z</time>
      </trkpt>
      <trkpt lat="46.73098" lon="-1.97093">
        <ele>54.37246</ele>
        <time>2022-12-18T11:16:21.608Z</time>
      </trkpt>
      <trkpt lat="46.73091" lon="-1.97084">
        <ele>54.370365</ele>
        <time>2022-12-18T11:16:23.608Z</time>
      </trkpt>
      <trkpt lat="46.73084" lon="-1.97075">
        <ele>54.368196</ele>
        <time>2022-12-18T11:16:25.606Z</time>
      </trkpt>
      <trkpt lat="46.73078" lon="-1.97066">
        <ele>54.366127</ele>
        <time>2022-12-18T11:16:27.616Z</time>
      </trkpt>
      <trkpt lat="46.73071" lon="-1.97056">
        <ele>54.3639</ele>
        <time>2022-12-18T11:16:29.617Z</time>
      </trkpt>
      <trkpt lat="46.73064" lon="-1.97046">
        <ele>54.361749</ele>
        <time>2022-12-18T11:16:31.607Z</time>
      </trkpt>
      <trkpt lat="46.73056" lon="-1.97033">
        <ele>54.358906</ele>
        <time>2022-12-18T11:16:34.603Z</time>
      </trkpt>
      <trkpt lat="46.73047" lon="-1.97021">
        <ele>54.356153</ele>
        <time>2022-12-18T11:16:37.605Z</time>
      </trkpt>
      <trkpt lat="46.73037" lon="-1.97008">
        <ele>54.353079</ele>
        <time>2022-12-18T11:16:40.607Z</time>
      </trkpt>
      <trkpt lat="46.73031" lon="-1.96998">
        <ele>54.351001</ele>
        <time>2022-12-18T11:16:42.618Z</time>
      </trkpt>
      <trkpt lat="46.73024" lon="-1.96987">
        <ele>54.348772</ele>
        <time>2022-12-18T11:16:44.603Z</time>
      </trkpt>
      <trkpt lat="46.73018" lon="-1.96977">
        <ele>54.346609</ele>
        <time>2022-12-18T11:16:46.606Z</time>
      </trkpt>
      <trkpt lat="46.73008" lon="-1.96964">
        <ele>54.34349</ele>
        <time>2022-12-18T11:16:49.621Z</time>
      </trkpt>
      <trkpt lat="46.73002" lon="-1.96953">
        <ele>54.313041</ele>
        <time>2022-12-18T11:16:51.607Z</time>
      </trkpt>
      <trkpt lat="46.72994" lon="-1.96938">
        <ele>54.090625</ele>
        <time>2022-12-18T11:16:54.596Z</time>
      </trkpt>
      <trkpt lat="46.72986" lon="-1.9692">
        <ele>53.859857</ele>
        <time>2022-12-18T11:16:57.620Z</time>
      </trkpt>
      <trkpt lat="46.72981" lon="-1.96907">
        <ele>53.689615</ele>
        <time>2022-12-18T11:16:59.594Z</time>
      </trkpt>
      <trkpt lat="46.72976" lon="-1.96893">
        <ele>53.51143</ele>
        <time>2022-12-18T11:17:01.618Z</time>
      </trkpt>
      <trkpt lat="46.72971" lon="-1.9688">
        <ele>53.343325</ele>
        <time>2022-12-18T11:17:03.611Z</time>
      </trkpt>
      <trkpt lat="46.72966" lon="-1.96867">
        <ele>53.173084</ele>
        <time>2022-12-18T11:17:05.587Z</time>
      </trkpt>
      <trkpt lat="46.72961" lon="-1.96854">
        <ele>53.010116</ele>
        <time>2022-12-18T11:17:07.614Z</time>
      </trkpt>
      <trkpt lat="46.72956" lon="-1.96842">
        <ele>52.853215</ele>
        <time>2022-12-18T11:17:09.608Z</time>
      </trkpt>
      <trkpt lat="46.72949" lon="-1.96827">
        <ele>52.641155</ele>
        <time>2022-12-18T11:17:12.607Z</time>
      </trkpt>
      <trkpt lat="46.72941" lon="-1.96811">
        <ele>52.41985</ele>
        <time>2022-12-18T11:17:15.598Z</time>
      </trkpt>
      <trkpt lat="46.72935" lon="-1.96799">
        <ele>52.263404</ele>
        <time>2022-12-18T11:17:17.586Z</time>
      </trkpt>
      <trkpt lat="46.72927" lon="-1.96783">
        <ele>52.038293</ele>
        <time>2022-12-18T11:17:20.609Z</time>
      </trkpt>
      <trkpt lat="46.72922" lon="-1.96771">
        <ele>51.873473</ele>
        <time>2022-12-18T11:17:22.608Z</time>
      </trkpt>
      <trkpt lat="46.72915" lon="-1.9676">
        <ele>51.704465</ele>
        <time>2022-12-18T11:17:24.620Z</time>
      </trkpt>
      <trkpt lat="46.72909" lon="-1.96747">
        <ele>51.533168</ele>
        <time>2022-12-18T11:17:26.606Z</time>
      </trkpt>
      <trkpt lat="46.72903" lon="-1.96735">
        <ele>51.398089</ele>
        <time>2022-12-18T11:17:28.603Z</time>
      </trkpt>
      <trkpt lat="46.72898" lon="-1.96723">
        <ele>51.406582</ele>
        <time>2022-12-18T11:17:30.605Z</time>
      </trkpt>
      <trkpt lat="46.72892" lon="-1.96712">
        <ele>51.414786</ele>
        <time>2022-12-18T11:17:32.612Z</time>
      </trkpt>
      <trkpt lat="46.72886" lon="-1.96701">
        <ele>51.422892</ele>
        <time>2022-12-18T11:17:34.615Z</time>
      </trkpt>
      <trkpt lat="46.72879" lon="-1.96685">
        <ele>51.434086</ele>
        <time>2022-12-18T11:17:37.609Z</time>
      </trkpt>
      <trkpt lat="46.72874" lon="-1.96674">
        <ele>51.441812</ele>
        <time>2022-12-18T11:17:39.614Z</time>
      </trkpt>
      <trkpt lat="46.72868" lon="-1.96662">
        <ele>51.450126</ele>
        <time>2022-12-18T11:17:41.605Z</time>
      </trkpt>
      <trkpt lat="46.72863" lon="-1.96651">
        <ele>51.458376</ele>
        <time>2022-12-18T11:17:43.605Z</time>
      </trkpt>
      <trkpt lat="46.72858" lon="-1.9664">
        <ele>51.46624</ele>
        <time>2022-12-18T11:17:45.615Z</time>
      </trkpt>
      <trkpt lat="46.72852" lon="-1.96629">
        <ele>51.474157</ele>
        <time>2022-12-18T11:17:47.613Z</time>
      </trkpt>
      <trkpt lat="46.72846" lon="-1.96618">
        <ele>51.482327</ele>
        <time>2022-12-18T11:17:49.607Z</time>
      </trkpt>
      <trkpt lat="46.72841" lon="-1.96607">
        <ele>51.490346</ele>
        <time>2022-12-18T11:17:51.605Z</time>
      </trkpt>
      <trkpt lat="46.72834" lon="-1.96597">
        <ele>51.498205</ele>
        <time>2022-12-18T11:17:53.612Z</time>
      </trkpt>
      <trkpt lat="46.72828" lon="-1.96587">
        <ele>51.506135</ele>
        <time>2022-12-18T11:17:55.607Z</time>
      </trkpt>
      <trkpt lat="46.7282" lon="-1.96575">
        <ele>51.516154</ele>
        <time>2022-12-18T11:17:58.604Z</time>
      </trkpt>
      <trkpt lat="46.72813" lon="-1.96563">
        <ele>51.525251</ele>
        <time>2022-12-18T11:18:01.610Z</time>
      </trkpt>
      <trkpt lat="46.72805" lon="-1.9655">
        <ele>51.535235</ele>
        <time>2022-12-18T11:18:04.615Z</time>
      </trkpt>
      <trkpt lat="46.72797" lon="-1.96536">
        <ele>51.545896</ele>
        <time>2022-12-18T11:18:07.608Z</time>
      </trkpt>
      <trkpt lat="46.7279" lon="-1.9652">
        <ele>51.563886</ele>
        <time>2022-12-18T11:18:10.605Z</time>
      </trkpt>
      <trkpt lat="46.72784" lon="-1.9651">
        <ele>51.579405</ele>
        <time>2022-12-18T11:18:12.587Z</time>
      </trkpt>
      <trkpt lat="46.72779" lon="-1.96499">
        <ele>51.594819</ele>
        <time>2022-12-18T11:18:14.603Z</time>
      </trkpt>
      <trkpt lat="46.72772" lon="-1.96483">
        <ele>51.617364</ele>
        <time>2022-12-18T11:18:17.616Z</time>
      </trkpt>
      <trkpt lat="46.72765" lon="-1.96469">
        <ele>51.637219</ele>
        <time>2022-12-18T11:18:20.613Z</time>
      </trkpt>
      <trkpt lat="46.72759" lon="-1.96456">
        <ele>51.65544</ele>
        <time>2022-12-18T11:18:23.616Z</time>
      </trkpt>
      <trkpt lat="46.72753" lon="-1.96442">
        <ele>51.674446</ele>
        <time>2022-12-18T11:18:26.608Z</time>
      </trkpt>
      <trkpt lat="46.72747" lon="-1.96427">
        <ele>51.695264</ele>
        <time>2022-12-18T11:18:29.617Z</time>
      </trkpt>
      <trkpt lat="46.7274" lon="-1.96411">
        <ele>51.717074</ele>
        <time>2022-12-18T11:18:32.611Z</time>
      </trkpt>
      <trkpt lat="46.72735" lon="-1.96399">
        <ele>51.733177</ele>
        <time>2022-12-18T11:18:34.612Z</time>
      </trkpt>
      <trkpt lat="46.7273" lon="-1.96387">
        <ele>51.749606</ele>
        <time>2022-12-18T11:18:36.603Z</time>
      </trkpt>
      <trkpt lat="46.72726" lon="-1.96374">
        <ele>51.767083</ele>
        <time>2022-12-18T11:18:38.596Z</time>
      </trkpt>
      <trkpt lat="46.72721" lon="-1.96359">
        <ele>51.785784</ele>
        <time>2022-12-18T11:18:40.616Z</time>
      </trkpt>
      <trkpt lat="46.72716" lon="-1.96345">
        <ele>51.805055</ele>
        <time>2022-12-18T11:18:42.611Z</time>
      </trkpt>
      <trkpt lat="46.72711" lon="-1.96331">
        <ele>51.822454</ele>
        <time>2022-12-18T11:18:44.607Z</time>
      </trkpt>
      <trkpt lat="46.72707" lon="-1.96318">
        <ele>51.839632</ele>
        <time>2022-12-18T11:18:46.608Z</time>
      </trkpt>
      <trkpt lat="46.72703" lon="-1.96304">
        <ele>51.856596</ele>
        <time>2022-12-18T11:18:48.588Z</time>
      </trkpt>
      <trkpt lat="46.72699" lon="-1.96291">
        <ele>51.813428</ele>
        <time>2022-12-18T11:18:50.615Z</time>
      </trkpt>
      <trkpt lat="46.72695" lon="-1.96277">
        <ele>51.767952</ele>
        <time>2022-12-18T11:18:52.613Z</time>
      </trkpt>
      <trkpt lat="46.72692" lon="-1.96263">
        <ele>51.72522</ele>
        <time>2022-12-18T11:18:54.604Z</time>
      </trkpt>
      <trkpt lat="46.72688" lon="-1.96251">
        <ele>51.683182</ele>
        <time>2022-12-18T11:18:56.592Z</time>
      </trkpt>
      <trkpt lat="46.72683" lon="-1.96238">
        <ele>51.640685</ele>
        <time>2022-12-18T11:18:58.605Z</time>
      </trkpt>
      <trkpt lat="46.72678" lon="-1.96226">
        <ele>51.598874</ele>
        <time>2022-12-18T11:19:00.588Z</time>
      </trkpt>
      <trkpt lat="46.72673" lon="-1.96214">
        <ele>51.557236</ele>
        <time>2022-12-18T11:19:02.596Z</time>
      </trkpt>
      <trkpt lat="46.72667" lon="-1.96204">
        <ele>51.517553</ele>
        <time>2022-12-18T11:19:04.597Z</time>
      </trkpt>
      <trkpt lat="46.72661" lon="-1.96194">
        <ele>51.477586</ele>
        <time>2022-12-18T11:19:06.589Z</time>
      </trkpt>
      <trkpt lat="46.72652" lon="-1.9618">
        <ele>51.421611</ele>
        <time>2022-12-18T11:19:09.612Z</time>
      </trkpt>
      <trkpt lat="46.72646" lon="-1.9617">
        <ele>51.382274</ele>
        <time>2022-12-18T11:19:11.615Z</time>
      </trkpt>
      <trkpt lat="46.72636" lon="-1.96156">
        <ele>51.323747</ele>
        <time>2022-12-18T11:19:14.604Z</time>
      </trkpt>
      <trkpt lat="46.7263" lon="-1.96146">
        <ele>51.284797</ele>
        <time>2022-12-18T11:19:16.606Z</time>
      </trkpt>
      <trkpt lat="46.72622" lon="-1.96133">
        <ele>51.232194</ele>
        <time>2022-12-18T11:19:19.620Z</time>
      </trkpt>
      <trkpt lat="46.72614" lon="-1.96119">
        <ele>51.178078</ele>
        <time>2022-12-18T11:19:22.607Z</time>
      </trkpt>
      <trkpt lat="46.72607" lon="-1.96103">
        <ele>51.121504</ele>
        <time>2022-12-18T11:19:25.604Z</time>
      </trkpt>
      <trkpt lat="46.72602" lon="-1.96091">
        <ele>51.079378</ele>
        <time>2022-12-18T11:19:27.622Z</time>
      </trkpt>
      <trkpt lat="46.72597" lon="-1.9608">
        <ele>51.088754</ele>
        <time>2022-12-18T11:19:29.606Z</time>
      </trkpt>
      <trkpt lat="46.72592" lon="-1.96069">
        <ele>51.100954</ele>
        <time>2022-12-18T11:19:31.615Z</time>
      </trkpt>
      <trkpt lat="46.72587" lon="-1.96057">
        <ele>51.112742</ele>
        <time>2022-12-18T11:19:33.607Z</time>
      </trkpt>
      <trkpt lat="46.72582" lon="-1.96046">
        <ele>51.124436</ele>
        <time>2022-12-18T11:19:35.593Z</time>
      </trkpt>
      <trkpt lat="46.72575" lon="-1.96029">
        <ele>51.141363</ele>
        <time>2022-12-18T11:19:38.593Z</time>
      </trkpt>
      <trkpt lat="46.72568" lon="-1.96013">
        <ele>51.158666</ele>
        <time>2022-12-18T11:19:41.607Z</time>
      </trkpt>
      <trkpt lat="46.72562" lon="-1.95995">
        <ele>51.175943</ele>
        <time>2022-12-18T11:19:44.597Z</time>
      </trkpt>
      <trkpt lat="46.72556" lon="-1.95982">
        <ele>51.189921</ele>
        <time>2022-12-18T11:19:47.615Z</time>
      </trkpt>
      <trkpt lat="46.72551" lon="-1.95967">
        <ele>51.203964</ele>
        <time>2022-12-18T11:19:50.614Z</time>
      </trkpt>
      <trkpt lat="46.72547" lon="-1.95955">
        <ele>51.216045</ele>
        <time>2022-12-18T11:19:53.614Z</time>
      </trkpt>
      <trkpt lat="46.72542" lon="-1.95942">
        <ele>51.229234</ele>
        <time>2022-12-18T11:19:57.595Z</time>
      </trkpt>
      <trkpt lat="46.72536" lon="-1.95929">
        <ele>51.243609</ele>
        <time>2022-12-18T11:20:01.604Z</time>
      </trkpt>
      <trkpt lat="46.7253" lon="-1.95917">
        <ele>51.256234</ele>
        <time>2022-12-18T11:20:05.595Z</time>
      </trkpt>
      <trkpt lat="46.72524" lon="-1.95903">
        <ele>51.270457</ele>
        <time>2022-12-18T11:20:10.602Z</time>
      </trkpt>
      <trkpt lat="46.72519" lon="-1.95891">
        <ele>51.283686</ele>
        <time>2022-12-18T11:20:14.613Z</time>
      </trkpt>
      <trkpt lat="46.72513" lon="-1.95876">
        <ele>51.297909</ele>
        <time>2022-12-18T11:20:18.587Z</time>
      </trkpt>
      <trkpt lat="46.72508" lon="-1.95863">
        <ele>51.328696</ele>
        <time>2022-12-18T11:20:22.611Z</time>
      </trkpt>
      <trkpt lat="46.72502" lon="-1.95848">
        <ele>51.411884</ele>
        <time>2022-12-18T11:20:26.617Z</time>
      </trkpt>
      <trkpt lat="46.72498" lon="-1.95835">
        <ele>51.482321</ele>
        <time>2022-12-18T11:20:29.590Z</time>
      </trkpt>
      <trkpt lat="46.72493" lon="-1.95822">
        <ele>51.553963</ele>
        <time>2022-12-18T11:20:32.609Z</time>
      </trkpt>
      <trkpt lat="46.72489" lon="-1.95809">
        <ele>51.624376</ele>
        <time>2022-12-18T11:20:35.615Z</time>
      </trkpt>
      <trkpt lat="46.72485" lon="-1.95795">
        <ele>51.698697</ele>
        <time>2022-12-18T11:20:38.612Z</time>
      </trkpt>
      <trkpt lat="46.72481" lon="-1.95781">
        <ele>51.774483</ele>
        <time>2022-12-18T11:20:41.584Z</time>
      </trkpt>
      <trkpt lat="46.72478" lon="-1.95766">
        <ele>51.854219</ele>
        <time>2022-12-18T11:20:44.617Z</time>
      </trkpt>
      <trkpt lat="46.72474" lon="-1.95751">
        <ele>51.932372</ele>
        <time>2022-12-18T11:20:47.587Z</time>
      </trkpt>
      <trkpt lat="46.7247" lon="-1.95739">
        <ele>51.998307</ele>
        <time>2022-12-18T11:20:50.615Z</time>
      </trkpt>
      <trkpt lat="46.72467" lon="-1.95725">
        <ele>52.068966</ele>
        <time>2022-12-18T11:20:53.610Z</time>
      </trkpt>
      <trkpt lat="46.72463" lon="-1.9571">
        <ele>52.146811</ele>
        <time>2022-12-18T11:20:56.596Z</time>
      </trkpt>
      <trkpt lat="46.72459" lon="-1.95696">
        <ele>52.226816</ele>
        <time>2022-12-18T11:20:59.617Z</time>
      </trkpt>
      <trkpt lat="46.72454" lon="-1.9568">
        <ele>52.308348</ele>
        <time>2022-12-18T11:21:02.612Z</time>
      </trkpt>
      <trkpt lat="46.7245" lon="-1.95665">
        <ele>52.388691</ele>
        <time>2022-12-18T11:21:05.608Z</time>
      </trkpt>
      <trkpt lat="46.72447" lon="-1.95653">
        <ele>52.455084</ele>
        <time>2022-12-18T11:21:08.604Z</time>
      </trkpt>
      <trkpt lat="46.72444" lon="-1.9564">
        <ele>52.522409</ele>
        <time>2022-12-18T11:21:11.595Z</time>
      </trkpt>
      <trkpt lat="46.7244" lon="-1.95627">
        <ele>52.592807</ele>
        <time>2022-12-18T11:21:14.595Z</time>
      </trkpt>
      <trkpt lat="46.72436" lon="-1.95614">
        <ele>52.651441</ele>
        <time>2022-12-18T11:21:17.590Z</time>
      </trkpt>
      <trkpt lat="46.72431" lon="-1.95601">
        <ele>52.709337</ele>
        <time>2022-12-18T11:21:20.605Z</time>
      </trkpt>
      <trkpt lat="46.72426" lon="-1.95589">
        <ele>52.76626</ele>
        <time>2022-12-18T11:21:23.604Z</time>
      </trkpt>
      <trkpt lat="46.72423" lon="-1.95574">
        <ele>52.825476</ele>
        <time>2022-12-18T11:21:26.592Z</time>
      </trkpt>
      <trkpt lat="46.72426" lon="-1.95559">
        <ele>52.888365</ele>
        <time>2022-12-18T11:21:29.592Z</time>
      </trkpt>
      <trkpt lat="46.72431" lon="-1.95543">
        <ele>52.957689</ele>
        <time>2022-12-18T11:21:32.613Z</time>
      </trkpt>
      <trkpt lat="46.72436" lon="-1.95527">
        <ele>53.029897</ele>
        <time>2022-12-18T11:21:35.610Z</time>
      </trkpt>
      <trkpt lat="46.7244" lon="-1.95509">
        <ele>53.102498</ele>
        <time>2022-12-18T11:21:38.588Z</time>
      </trkpt>
      <trkpt lat="46.72442" lon="-1.95492">
        <ele>53.171296</ele>
        <time>2022-12-18T11:21:41.588Z</time>
      </trkpt>
      <trkpt lat="46.72442" lon="-1.95473">
        <ele>53.243814</ele>
        <time>2022-12-18T11:21:44.591Z</time>
      </trkpt>
      <trkpt lat="46.72441" lon="-1.95455">
        <ele>53.315599</ele>
        <time>2022-12-18T11:21:47.614Z</time>
      </trkpt>
      <trkpt lat="46.7244" lon="-1.95437">
        <ele>53.387164</ele>
        <time>2022-12-18T11:21:50.598Z</time>
      </trkpt>
      <trkpt lat="46.72439" lon="-1.95421">
        <ele>53.451979</ele>
        <time>2022-12-18T11:21:53.610Z</time>
      </trkpt>
      <trkpt lat="46.72438" lon="-1.95406">
        <ele>53.510982</ele>
        <time>2022-12-18T11:21:56.593Z</time>
      </trkpt>
      <trkpt lat="46.72436" lon="-1.95391">
        <ele>53.571588</ele>
        <time>2022-12-18T11:21:59.594Z</time>
      </trkpt>
      <trkpt lat="46.72435" lon="-1.95375">
        <ele>53.635232</ele>
        <time>2022-12-18T11:22:02.618Z</time>
      </trkpt>
      <trkpt lat="46.72433" lon="-1.95357">
        <ele>53.722416</ele>
        <time>2022-12-18T11:22:05.620Z</time>
      </trkpt>
      <trkpt lat="46.72431" lon="-1.95339">
        <ele>53.813911</ele>
        <time>2022-12-18T11:22:08.601Z</time>
      </trkpt>
      <trkpt lat="46.72429" lon="-1.9532">
        <ele>53.907673</ele>
        <time>2022-12-18T11:22:11.592Z</time>
      </trkpt>
      <trkpt lat="46.72427" lon="-1.95303">
        <ele>53.998296</ele>
        <time>2022-12-18T11:22:14.617Z</time>
      </trkpt>
      <trkpt lat="46.72426" lon="-1.95286">
        <ele>54.084037</ele>
        <time>2022-12-18T11:22:17.598Z</time>
      </trkpt>
      <trkpt lat="46.72423" lon="-1.95269">
        <ele>54.170765</ele>
        <time>2022-12-18T11:22:20.589Z</time>
      </trkpt>
      <trkpt lat="46.72421" lon="-1.95251">
        <ele>54.260576</ele>
        <time>2022-12-18T11:22:23.611Z</time>
      </trkpt>
      <trkpt lat="46.72418" lon="-1.95233">
        <ele>54.353138</ele>
        <time>2022-12-18T11:22:26.604Z</time>
      </trkpt>
      <trkpt lat="46.72414" lon="-1.95215">
        <ele>54.448419</ele>
        <time>2022-12-18T11:22:29.596Z</time>
      </trkpt>
      <trkpt lat="46.72411" lon="-1.95196">
        <ele>54.547152</ele>
        <time>2022-12-18T11:22:32.587Z</time>
      </trkpt>
      <trkpt lat="46.72408" lon="-1.95182">
        <ele>54.61539</ele>
        <time>2022-12-18T11:22:34.618Z</time>
      </trkpt>
      <trkpt lat="46.72405" lon="-1.95164">
        <ele>54.711393</ele>
        <time>2022-12-18T11:22:37.616Z</time>
      </trkpt>
      <trkpt lat="46.72401" lon="-1.95147">
        <ele>54.802627</ele>
        <time>2022-12-18T11:22:40.609Z</time>
      </trkpt>
      <trkpt lat="46.72398" lon="-1.9513">
        <ele>54.888597</ele>
        <time>2022-12-18T11:22:43.604Z</time>
      </trkpt>
      <trkpt lat="46.72395" lon="-1.95115">
        <ele>54.941164</ele>
        <time>2022-12-18T11:22:46.619Z</time>
      </trkpt>
      <trkpt lat="46.72391" lon="-1.95098">
        <ele>54.897503</ele>
        <time>2022-12-18T11:22:49.615Z</time>
      </trkpt>
      <trkpt lat="46.72385" lon="-1.95081">
        <ele>54.849988</ele>
        <time>2022-12-18T11:22:52.596Z</time>
      </trkpt>
      <trkpt lat="46.72381" lon="-1.95069">
        <ele>54.815367</ele>
        <time>2022-12-18T11:22:54.610Z</time>
      </trkpt>
      <trkpt lat="46.72378" lon="-1.95057">
        <ele>54.781535</ele>
        <time>2022-12-18T11:22:56.615Z</time>
      </trkpt>
      <trkpt lat="46.72374" lon="-1.95045">
        <ele>54.747468</ele>
        <time>2022-12-18T11:22:58.608Z</time>
      </trkpt>
      <trkpt lat="46.7237" lon="-1.95033">
        <ele>54.713785</ele>
        <time>2022-12-18T11:23:00.608Z</time>
      </trkpt>
      <trkpt lat="46.72364" lon="-1.95016">
        <ele>54.665666</ele>
        <time>2022-12-18T11:23:03.605Z</time>
      </trkpt>
      <trkpt lat="46.72358" lon="-1.94999">
        <ele>54.617607</ele>
        <time>2022-12-18T11:23:06.617Z</time>
      </trkpt>
      <trkpt lat="46.72353" lon="-1.94982">
        <ele>54.569935</ele>
        <time>2022-12-18T11:23:09.588Z</time>
      </trkpt>
      <trkpt lat="46.72348" lon="-1.94966">
        <ele>54.525509</ele>
        <time>2022-12-18T11:23:12.607Z</time>
      </trkpt>
      <trkpt lat="46.72344" lon="-1.94951">
        <ele>54.485535</ele>
        <time>2022-12-18T11:23:15.607Z</time>
      </trkpt>
      <trkpt lat="46.72341" lon="-1.94938">
        <ele>54.451709</ele>
        <time>2022-12-18T11:23:18.615Z</time>
      </trkpt>
      <trkpt lat="46.72337" lon="-1.94923">
        <ele>54.411025</ele>
        <time>2022-12-18T11:23:22.597Z</time>
      </trkpt>
      <trkpt lat="46.72333" lon="-1.94911">
        <ele>54.377117</ele>
        <time>2022-12-18T11:23:25.615Z</time>
      </trkpt>
      <trkpt lat="46.7233" lon="-1.94898">
        <ele>54.340052</ele>
        <time>2022-12-18T11:23:28.597Z</time>
      </trkpt>
      <trkpt lat="46.72327" lon="-1.94883">
        <ele>54.301668</ele>
        <time>2022-12-18T11:23:31.605Z</time>
      </trkpt>
      <trkpt lat="46.72322" lon="-1.94868">
        <ele>54.317283</ele>
        <time>2022-12-18T11:23:34.613Z</time>
      </trkpt>
      <trkpt lat="46.72318" lon="-1.94852">
        <ele>54.370705</ele>
        <time>2022-12-18T11:23:37.608Z</time>
      </trkpt>
      <trkpt lat="46.72314" lon="-1.94836">
        <ele>54.423486</ele>
        <time>2022-12-18T11:23:40.619Z</time>
      </trkpt>
      <trkpt lat="46.7231" lon="-1.9482">
        <ele>54.474636</ele>
        <time>2022-12-18T11:23:43.620Z</time>
      </trkpt>
      <trkpt lat="46.72307" lon="-1.94806">
        <ele>54.522993</ele>
        <time>2022-12-18T11:23:46.600Z</time>
      </trkpt>
      <trkpt lat="46.72303" lon="-1.94792">
        <ele>54.568781</ele>
        <time>2022-12-18T11:23:49.593Z</time>
      </trkpt>
      <trkpt lat="46.723" lon="-1.94779">
        <ele>54.612308</ele>
        <time>2022-12-18T11:23:52.594Z</time>
      </trkpt>
      <trkpt lat="46.72296" lon="-1.94763">
        <ele>54.665972</ele>
        <time>2022-12-18T11:23:56.603Z</time>
      </trkpt>
      <trkpt lat="46.72293" lon="-1.94747">
        <ele>54.718626</ele>
        <time>2022-12-18T11:24:00.613Z</time>
      </trkpt>
      <trkpt lat="46.72289" lon="-1.94732">
        <ele>54.768475</ele>
        <time>2022-12-18T11:24:04.590Z</time>
      </trkpt>
      <trkpt lat="46.72284" lon="-1.94717">
        <ele>54.819738</ele>
        <time>2022-12-18T11:24:08.611Z</time>
      </trkpt>
      <trkpt lat="46.7228" lon="-1.94704">
        <ele>54.86373</ele>
        <time>2022-12-18T11:24:12.613Z</time>
      </trkpt>
      <trkpt lat="46.72276" lon="-1.94692">
        <ele>54.906399</ele>
        <time>2022-12-18T11:24:17.591Z</time>
      </trkpt>
      <trkpt lat="46.72269" lon="-1.94679">
        <ele>54.957047</ele>
        <time>2022-12-18T11:24:22.606Z</time>
      </trkpt>
      <trkpt lat="46.72262" lon="-1.94668">
        <ele>55.004164</ele>
        <time>2022-12-18T11:24:26.603Z</time>
      </trkpt>
      <trkpt lat="46.72256" lon="-1.94658">
        <ele>55.046242</ele>
        <time>2022-12-18T11:24:29.610Z</time>
      </trkpt>
      <trkpt lat="46.72248" lon="-1.94647">
        <ele>55.096906</ele>
        <time>2022-12-18T11:24:32.616Z</time>
      </trkpt>
      <trkpt lat="46.7224" lon="-1.94635">
        <ele>55.215414</ele>
        <time>2022-12-18T11:24:35.609Z</time>
      </trkpt>
      <trkpt lat="46.72231" lon="-1.94625">
        <ele>55.342658</ele>
        <time>2022-12-18T11:24:38.613Z</time>
      </trkpt>
      <trkpt lat="46.72224" lon="-1.94613">
        <ele>55.464329</ele>
        <time>2022-12-18T11:24:41.589Z</time>
      </trkpt>
      <trkpt lat="46.72216" lon="-1.94603">
        <ele>55.582164</ele>
        <time>2022-12-18T11:24:44.611Z</time>
      </trkpt>
      <trkpt lat="46.72209" lon="-1.94593">
        <ele>55.696732</ele>
        <time>2022-12-18T11:24:47.616Z</time>
      </trkpt>
      <trkpt lat="46.72202" lon="-1.94583">
        <ele>55.810858</ele>
        <time>2022-12-18T11:24:50.608Z</time>
      </trkpt>
      <trkpt lat="46.72194" lon="-1.94571">
        <ele>55.936039</ele>
        <time>2022-12-18T11:24:54.609Z</time>
      </trkpt>
      <trkpt lat="46.72183" lon="-1.94567">
        <ele>56.065955</ele>
        <time>2022-12-18T11:24:58.595Z</time>
      </trkpt>
      <trkpt lat="46.72173" lon="-1.94572">
        <ele>56.184909</ele>
        <time>2022-12-18T11:25:01.615Z</time>
      </trkpt>
      <trkpt lat="46.72163" lon="-1.94577">
        <ele>56.31046</ele>
        <time>2022-12-18T11:25:04.608Z</time>
      </trkpt>
      <trkpt lat="46.72152" lon="-1.94581">
        <ele>56.434014</ele>
        <time>2022-12-18T11:25:07.604Z</time>
      </trkpt>
      <trkpt lat="46.72141" lon="-1.94585">
        <ele>56.567441</ele>
        <time>2022-12-18T11:25:10.586Z</time>
      </trkpt>
      <trkpt lat="46.7213" lon="-1.94588">
        <ele>56.698299</ele>
        <time>2022-12-18T11:25:13.612Z</time>
      </trkpt>
      <trkpt lat="46.72119" lon="-1.94592">
        <ele>56.827463</ele>
        <time>2022-12-18T11:25:16.615Z</time>
      </trkpt>
      <trkpt lat="46.72107" lon="-1.94595">
        <ele>56.957392</ele>
        <time>2022-12-18T11:25:19.608Z</time>
      </trkpt>
      <trkpt lat="46.72096" lon="-1.94597">
        <ele>57.093028</ele>
        <time>2022-12-18T11:25:22.605Z</time>
      </trkpt>
      <trkpt lat="46.72084" lon="-1.946">
        <ele>57.265333</ele>
        <time>2022-12-18T11:25:25.603Z</time>
      </trkpt>
      <trkpt lat="46.72074" lon="-1.94604">
        <ele>57.455301</ele>
        <time>2022-12-18T11:25:28.612Z</time>
      </trkpt>
      <trkpt lat="46.72063" lon="-1.94607">
        <ele>57.65439</ele>
        <time>2022-12-18T11:25:32.620Z</time>
      </trkpt>
      <trkpt lat="46.72054" lon="-1.94609">
        <ele>57.818043</ele>
        <time>2022-12-18T11:25:35.614Z</time>
      </trkpt>
      <trkpt lat="46.72043" lon="-1.94612">
        <ele>58.022705</ele>
        <time>2022-12-18T11:25:39.618Z</time>
      </trkpt>
      <trkpt lat="46.72032" lon="-1.94618">
        <ele>58.232216</ele>
        <time>2022-12-18T11:25:43.596Z</time>
      </trkpt>
      <trkpt lat="46.72023" lon="-1.94624">
        <ele>58.417583</ele>
        <time>2022-12-18T11:25:46.606Z</time>
      </trkpt>
      <trkpt lat="46.72014" lon="-1.94633">
        <ele>58.617438</ele>
        <time>2022-12-18T11:25:49.620Z</time>
      </trkpt>
      <trkpt lat="46.72004" lon="-1.94642">
        <ele>58.820608</ele>
        <time>2022-12-18T11:25:52.605Z</time>
      </trkpt>
      <trkpt lat="46.71996" lon="-1.9465">
        <ele>59.004864</ele>
        <time>2022-12-18T11:25:55.618Z</time>
      </trkpt>
      <trkpt lat="46.71988" lon="-1.94657">
        <ele>59.182343</ele>
        <time>2022-12-18T11:25:58.610Z</time>
      </trkpt>
      <trkpt lat="46.7198" lon="-1.94665">
        <ele>59.35496</ele>
        <time>2022-12-18T11:26:01.595Z</time>
      </trkpt>
      <trkpt lat="46.7197" lon="-1.94671">
        <ele>59.538693</ele>
        <time>2022-12-18T11:26:04.609Z</time>
      </trkpt>
      <trkpt lat="46.71961" lon="-1.94678">
        <ele>59.735544</ele>
        <time>2022-12-18T11:26:07.597Z</time>
      </trkpt>
      <trkpt lat="46.71951" lon="-1.94687">
        <ele>59.943183</ele>
        <time>2022-12-18T11:26:10.605Z</time>
      </trkpt>
      <trkpt lat="46.7194" lon="-1.94695">
        <ele>60.161167</ele>
        <time>2022-12-18T11:26:13.605Z</time>
      </trkpt>
      <trkpt lat="46.7193" lon="-1.94702">
        <ele>60.371608</ele>
        <time>2022-12-18T11:26:16.620Z</time>
      </trkpt>
      <trkpt lat="46.7192" lon="-1.94709">
        <ele>60.588484</ele>
        <time>2022-12-18T11:26:19.606Z</time>
      </trkpt>
      <trkpt lat="46.7191" lon="-1.94716">
        <ele>60.810524</ele>
        <time>2022-12-18T11:26:22.593Z</time>
      </trkpt>
      <trkpt lat="46.719" lon="-1.94722">
        <ele>61.03088</ele>
        <time>2022-12-18T11:26:25.605Z</time>
      </trkpt>
      <trkpt lat="46.7189" lon="-1.94729">
        <ele>61.249367</ele>
        <time>2022-12-18T11:26:28.608Z</time>
      </trkpt>
      <trkpt lat="46.71881" lon="-1.94735">
        <ele>61.460362</ele>
        <time>2022-12-18T11:26:31.620Z</time>
      </trkpt>
      <trkpt lat="46.71873" lon="-1.94742">
        <ele>61.659932</ele>
        <time>2022-12-18T11:26:34.616Z</time>
      </trkpt>
      <trkpt lat="46.71865" lon="-1.94749">
        <ele>61.847786</ele>
        <time>2022-12-18T11:26:37.601Z</time>
      </trkpt>
      <trkpt lat="46.71854" lon="-1.94757">
        <ele>62.087852</ele>
        <time>2022-12-18T11:26:41.608Z</time>
      </trkpt>
      <trkpt lat="46.71846" lon="-1.94764">
        <ele>62.281383</ele>
        <time>2022-12-18T11:26:44.592Z</time>
      </trkpt>
      <trkpt lat="46.71836" lon="-1.94772">
        <ele>62.512076</ele>
        <time>2022-12-18T11:26:48.605Z</time>
      </trkpt>
      <trkpt lat="46.71827" lon="-1.9478">
        <ele>62.735172</ele>
        <time>2022-12-18T11:26:52.616Z</time>
      </trkpt>
      <trkpt lat="46.71818" lon="-1.94787">
        <ele>62.929005</ele>
        <time>2022-12-18T11:26:56.590Z</time>
      </trkpt>
      <trkpt lat="46.7181" lon="-1.94794">
        <ele>63.129682</ele>
        <time>2022-12-18T11:27:03.602Z</time>
      </trkpt>
      <trkpt lat="46.71801" lon="-1.94801">
        <ele>63.333064</ele>
        <time>2022-12-18T11:27:10.593Z</time>
      </trkpt>
      <trkpt lat="46.71793" lon="-1.94809">
        <ele>63.540673</ele>
        <time>2022-12-18T11:27:14.590Z</time>
      </trkpt>
      <trkpt lat="46.71784" lon="-1.94815">
        <ele>63.740845</ele>
        <time>2022-12-18T11:27:17.592Z</time>
      </trkpt>
      <trkpt lat="46.71774" lon="-1.94821">
        <ele>63.9599</ele>
        <time>2022-12-18T11:27:20.617Z</time>
      </trkpt>
      <trkpt lat="46.71764" lon="-1.94827">
        <ele>64.100594</ele>
        <time>2022-12-18T11:27:23.615Z</time>
      </trkpt>
      <trkpt lat="46.71755" lon="-1.94833">
        <ele>64.135114</ele>
        <time>2022-12-18T11:27:26.617Z</time>
      </trkpt>
      <trkpt lat="46.71745" lon="-1.94837">
        <ele>64.170315</ele>
        <time>2022-12-18T11:27:29.599Z</time>
      </trkpt>
      <trkpt lat="46.71735" lon="-1.94842">
        <ele>64.204719</ele>
        <time>2022-12-18T11:27:32.610Z</time>
      </trkpt>
      <trkpt lat="46.71725" lon="-1.94847">
        <ele>64.240619</ele>
        <time>2022-12-18T11:27:35.605Z</time>
      </trkpt>
      <trkpt lat="46.71715" lon="-1.94852">
        <ele>64.274034</ele>
        <time>2022-12-18T11:27:38.609Z</time>
      </trkpt>
      <trkpt lat="46.71706" lon="-1.94856">
        <ele>64.306747</ele>
        <time>2022-12-18T11:27:41.605Z</time>
      </trkpt>
      <trkpt lat="46.71696" lon="-1.94859">
        <ele>64.340349</ele>
        <time>2022-12-18T11:27:44.616Z</time>
      </trkpt>
      <trkpt lat="46.71686" lon="-1.94861">
        <ele>64.374125</ele>
        <time>2022-12-18T11:27:47.614Z</time>
      </trkpt>
      <trkpt lat="46.71675" lon="-1.94863">
        <ele>64.409487</ele>
        <time>2022-12-18T11:27:51.617Z</time>
      </trkpt>
      <trkpt lat="46.71663" lon="-1.94864">
        <ele>64.448274</ele>
        <time>2022-12-18T11:27:55.620Z</time>
      </trkpt>
      <trkpt lat="46.71653" lon="-1.94865">
        <ele>64.481475</ele>
        <time>2022-12-18T11:27:58.611Z</time>
      </trkpt>
      <trkpt lat="46.71643" lon="-1.94864">
        <ele>64.516028</ele>
        <time>2022-12-18T11:28:01.592Z</time>
      </trkpt>
      <trkpt lat="46.71632" lon="-1.94861">
        <ele>64.552459</ele>
        <time>2022-12-18T11:28:04.606Z</time>
      </trkpt>
      <trkpt lat="46.71621" lon="-1.94858">
        <ele>64.588156</ele>
        <time>2022-12-18T11:28:07.609Z</time>
      </trkpt>
      <trkpt lat="46.71611" lon="-1.94856">
        <ele>64.623075</ele>
        <time>2022-12-18T11:28:10.601Z</time>
      </trkpt>
      <trkpt lat="46.716" lon="-1.94854">
        <ele>64.658949</ele>
        <time>2022-12-18T11:28:13.608Z</time>
      </trkpt>
      <trkpt lat="46.71589" lon="-1.94851">
        <ele>64.580733</ele>
        <time>2022-12-18T11:28:16.599Z</time>
      </trkpt>
      <trkpt lat="46.71577" lon="-1.94848">
        <ele>64.270851</ele>
        <time>2022-12-18T11:28:19.591Z</time>
      </trkpt>
      <trkpt lat="46.71564" lon="-1.94846">
        <ele>63.922333</ele>
        <time>2022-12-18T11:28:22.608Z</time>
      </trkpt>
      <trkpt lat="46.71551" lon="-1.94844">
        <ele>63.584878</ele>
        <time>2022-12-18T11:28:25.619Z</time>
      </trkpt>
      <trkpt lat="46.71539" lon="-1.94843">
        <ele>63.276948</ele>
        <time>2022-12-18T11:28:28.612Z</time>
      </trkpt>
      <trkpt lat="46.71528" lon="-1.94842">
        <ele>62.995477</ele>
        <time>2022-12-18T11:28:31.618Z</time>
      </trkpt>
      <trkpt lat="46.71518" lon="-1.94842">
        <ele>62.734597</ele>
        <time>2022-12-18T11:28:34.616Z</time>
      </trkpt>
      <trkpt lat="46.71509" lon="-1.94841">
        <ele>62.493867</ele>
        <time>2022-12-18T11:28:37.615Z</time>
      </trkpt>
      <trkpt lat="46.71499" lon="-1.9484">
        <ele>62.250975</ele>
        <time>2022-12-18T11:28:40.609Z</time>
      </trkpt>
      <trkpt lat="46.71489" lon="-1.9484">
        <ele>61.982495</ele>
        <time>2022-12-18T11:28:43.609Z</time>
      </trkpt>
      <trkpt lat="46.71476" lon="-1.9484">
        <ele>61.654474</ele>
        <time>2022-12-18T11:28:46.610Z</time>
      </trkpt>
      <trkpt lat="46.71466" lon="-1.94839">
        <ele>61.401265</ele>
        <time>2022-12-18T11:28:48.620Z</time>
      </trkpt>
      <trkpt lat="46.71456" lon="-1.94839">
        <ele>61.135367</ele>
        <time>2022-12-18T11:28:50.605Z</time>
      </trkpt>
      <trkpt lat="46.71445" lon="-1.94839">
        <ele>60.859057</ele>
        <time>2022-12-18T11:28:52.595Z</time>
      </trkpt>
      <trkpt lat="46.71434" lon="-1.94838">
        <ele>60.569665</ele>
        <time>2022-12-18T11:28:54.586Z</time>
      </trkpt>
      <trkpt lat="46.71422" lon="-1.94837">
        <ele>60.267444</ele>
        <time>2022-12-18T11:28:56.603Z</time>
      </trkpt>
      <trkpt lat="46.71411" lon="-1.94837">
        <ele>60.075953</ele>
        <time>2022-12-18T11:28:58.597Z</time>
      </trkpt>
      <trkpt lat="46.71399" lon="-1.94837">
        <ele>60.231855</ele>
        <time>2022-12-18T11:29:00.610Z</time>
      </trkpt>
      <trkpt lat="46.71387" lon="-1.9484">
        <ele>60.386697</ele>
        <time>2022-12-18T11:29:02.600Z</time>
      </trkpt>
      <trkpt lat="46.71376" lon="-1.94845">
        <ele>60.53434</ele>
        <time>2022-12-18T11:29:04.599Z</time>
      </trkpt>
      <trkpt lat="46.71366" lon="-1.94848">
        <ele>60.661179</ele>
        <time>2022-12-18T11:29:06.589Z</time>
      </trkpt>
      <trkpt lat="46.71357" lon="-1.94852">
        <ele>60.777968</ele>
        <time>2022-12-18T11:29:08.613Z</time>
      </trkpt>
      <trkpt lat="46.71345" lon="-1.94858">
        <ele>60.946233</ele>
        <time>2022-12-18T11:29:11.609Z</time>
      </trkpt>
      <trkpt lat="46.71333" lon="-1.94864">
        <ele>61.103747</ele>
        <time>2022-12-18T11:29:14.609Z</time>
      </trkpt>
      <trkpt lat="46.71322" lon="-1.94869">
        <ele>61.246327</ele>
        <time>2022-12-18T11:29:17.607Z</time>
      </trkpt>
      <trkpt lat="46.71313" lon="-1.94874">
        <ele>61.379839</ele>
        <time>2022-12-18T11:29:20.611Z</time>
      </trkpt>
      <trkpt lat="46.71303" lon="-1.94879">
        <ele>61.50375</ele>
        <time>2022-12-18T11:29:23.594Z</time>
      </trkpt>
      <trkpt lat="46.71293" lon="-1.94883">
        <ele>61.643546</ele>
        <time>2022-12-18T11:29:26.607Z</time>
      </trkpt>
      <trkpt lat="46.71283" lon="-1.94889">
        <ele>61.784271</ele>
        <time>2022-12-18T11:29:29.593Z</time>
      </trkpt>
      <trkpt lat="46.71272" lon="-1.94894">
        <ele>61.93023</ele>
        <time>2022-12-18T11:29:32.611Z</time>
      </trkpt>
      <trkpt lat="46.71261" lon="-1.94899">
        <ele>62.074542</ele>
        <time>2022-12-18T11:29:35.615Z</time>
      </trkpt>
      <trkpt lat="46.7125" lon="-1.94905">
        <ele>62.22217</ele>
        <time>2022-12-18T11:29:38.595Z</time>
      </trkpt>
      <trkpt lat="46.71239" lon="-1.94911">
        <ele>62.370988</ele>
        <time>2022-12-18T11:29:41.608Z</time>
      </trkpt>
      <trkpt lat="46.7123" lon="-1.94917">
        <ele>62.510394</ele>
        <time>2022-12-18T11:29:44.614Z</time>
      </trkpt>
      <trkpt lat="46.7122" lon="-1.94922">
        <ele>62.645264</ele>
        <time>2022-12-18T11:29:47.611Z</time>
      </trkpt>
      <trkpt lat="46.71211" lon="-1.94928">
        <ele>62.778781</ele>
        <time>2022-12-18T11:29:50.608Z</time>
      </trkpt>
      <trkpt lat="46.71202" lon="-1.94935">
        <ele>62.916679</ele>
        <time>2022-12-18T11:29:53.605Z</time>
      </trkpt>
      <trkpt lat="46.71192" lon="-1.94942">
        <ele>63.054507</ele>
        <time>2022-12-18T11:29:56.608Z</time>
      </trkpt>
      <trkpt lat="46.71184" lon="-1.94948">
        <ele>63.176494</ele>
        <time>2022-12-18T11:29:59.605Z</time>
      </trkpt>
      <trkpt lat="46.71175" lon="-1.94954">
        <ele>63.312732</ele>
        <time>2022-12-18T11:30:02.616Z</time>
      </trkpt>
      <trkpt lat="46.71165" lon="-1.9496">
        <ele>63.453897</ele>
        <time>2022-12-18T11:30:05.615Z</time>
      </trkpt>
      <trkpt lat="46.71155" lon="-1.94967">
        <ele>63.596914</ele>
        <time>2022-12-18T11:30:08.605Z</time>
      </trkpt>
      <trkpt lat="46.71146" lon="-1.94974">
        <ele>63.739923</ele>
        <time>2022-12-18T11:30:11.618Z</time>
      </trkpt>
      <trkpt lat="46.71136" lon="-1.9498">
        <ele>63.883181</ele>
        <time>2022-12-18T11:30:14.602Z</time>
      </trkpt>
      <trkpt lat="46.71126" lon="-1.94987">
        <ele>64.027354</ele>
        <time>2022-12-18T11:30:17.606Z</time>
      </trkpt>
      <trkpt lat="46.71116" lon="-1.94993">
        <ele>64.171313</ele>
        <time>2022-12-18T11:30:20.597Z</time>
      </trkpt>
      <trkpt lat="46.71106" lon="-1.94999">
        <ele>64.304962</ele>
        <time>2022-12-18T11:30:23.618Z</time>
      </trkpt>
      <trkpt lat="46.71097" lon="-1.95005">
        <ele>64.441985</ele>
        <time>2022-12-18T11:30:26.620Z</time>
      </trkpt>
      <trkpt lat="46.71088" lon="-1.95011">
        <ele>64.570918</ele>
        <time>2022-12-18T11:30:29.619Z</time>
      </trkpt>
      <trkpt lat="46.71079" lon="-1.95016">
        <ele>64.696039</ele>
        <time>2022-12-18T11:30:32.596Z</time>
      </trkpt>
      <trkpt lat="46.7107" lon="-1.95021">
        <ele>64.71277</ele>
        <time>2022-12-18T11:30:35.611Z</time>
      </trkpt>
      <trkpt lat="46.71061" lon="-1.95026">
        <ele>64.702784</ele>
        <time>2022-12-18T11:30:38.620Z</time>
      </trkpt>
      <trkpt lat="46.71052" lon="-1.95031">
        <ele>64.693131</ele>
        <time>2022-12-18T11:30:41.609Z</time>
      </trkpt>
      <trkpt lat="46.71043" lon="-1.95035">
        <ele>64.682929</ele>
        <time>2022-12-18T11:30:44.612Z</time>
      </trkpt>
      <trkpt lat="46.71033" lon="-1.9504">
        <ele>64.672317</ele>
        <time>2022-12-18T11:30:47.626Z</time>
      </trkpt>
      <trkpt lat="46.71022" lon="-1.95043">
        <ele>64.661687</ele>
        <time>2022-12-18T11:30:50.608Z</time>
      </trkpt>
      <trkpt lat="46.71012" lon="-1.95046">
        <ele>64.651245</ele>
        <time>2022-12-18T11:30:53.617Z</time>
      </trkpt>
      <trkpt lat="46.71001" lon="-1.95048">
        <ele>64.640227</ele>
        <time>2022-12-18T11:30:56.596Z</time>
      </trkpt>
      <trkpt lat="46.7099" lon="-1.95051">
        <ele>64.628403</ele>
        <time>2022-12-18T11:30:59.619Z</time>
      </trkpt>
      <trkpt lat="46.70978" lon="-1.95053">
        <ele>64.616427</ele>
        <time>2022-12-18T11:31:02.608Z</time>
      </trkpt>
      <trkpt lat="46.70966" lon="-1.95054">
        <ele>64.604168</ele>
        <time>2022-12-18T11:31:05.595Z</time>
      </trkpt>
      <trkpt lat="46.70953" lon="-1.95055">
        <ele>64.590686</ele>
        <time>2022-12-18T11:31:08.610Z</time>
      </trkpt>
      <trkpt lat="46.70944" lon="-1.95056">
        <ele>64.581317</ele>
        <time>2022-12-18T11:31:10.609Z</time>
      </trkpt>
      <trkpt lat="46.70934" lon="-1.95056">
        <ele>64.571904</ele>
        <time>2022-12-18T11:31:12.614Z</time>
      </trkpt>
      <trkpt lat="46.70925" lon="-1.95057">
        <ele>64.562786</ele>
        <time>2022-12-18T11:31:14.612Z</time>
      </trkpt>
      <trkpt lat="46.70916" lon="-1.95057">
        <ele>64.553066</ele>
        <time>2022-12-18T11:31:16.606Z</time>
      </trkpt>
      <trkpt lat="46.70906" lon="-1.95057">
        <ele>64.543553</ele>
        <time>2022-12-18T11:31:18.615Z</time>
      </trkpt>
      <trkpt lat="46.70897" lon="-1.95057">
        <ele>64.506945</ele>
        <time>2022-12-18T11:31:20.614Z</time>
      </trkpt>
      <trkpt lat="46.70884" lon="-1.95058">
        <ele>64.410357</ele>
        <time>2022-12-18T11:31:23.610Z</time>
      </trkpt>
      <trkpt lat="46.70871" lon="-1.95058">
        <ele>64.315996</ele>
        <time>2022-12-18T11:31:26.604Z</time>
      </trkpt>
      <trkpt lat="46.70862" lon="-1.95058">
        <ele>64.248698</ele>
        <time>2022-12-18T11:31:28.618Z</time>
      </trkpt>
      <trkpt lat="46.70852" lon="-1.95057">
        <ele>64.179192</ele>
        <time>2022-12-18T11:31:30.614Z</time>
      </trkpt>
      <trkpt lat="46.70843" lon="-1.95058">
        <ele>64.108906</ele>
        <time>2022-12-18T11:31:32.616Z</time>
      </trkpt>
      <trkpt lat="46.70833" lon="-1.9506">
        <ele>64.036773</ele>
        <time>2022-12-18T11:31:34.604Z</time>
      </trkpt>
      <trkpt lat="46.70823" lon="-1.95061">
        <ele>63.963454</ele>
        <time>2022-12-18T11:31:36.616Z</time>
      </trkpt>
      <trkpt lat="46.70813" lon="-1.95062">
        <ele>63.891139</ele>
        <time>2022-12-18T11:31:38.616Z</time>
      </trkpt>
      <trkpt lat="46.70803" lon="-1.95066">
        <ele>63.819216</ele>
        <time>2022-12-18T11:31:40.614Z</time>
      </trkpt>
      <trkpt lat="46.70794" lon="-1.95069">
        <ele>63.750246</ele>
        <time>2022-12-18T11:31:42.614Z</time>
      </trkpt>
      <trkpt lat="46.70785" lon="-1.95072">
        <ele>63.679523</ele>
        <time>2022-12-18T11:31:44.617Z</time>
      </trkpt>
      <trkpt lat="46.70776" lon="-1.95077">
        <ele>63.609395</ele>
        <time>2022-12-18T11:31:46.609Z</time>
      </trkpt>
      <trkpt lat="46.70766" lon="-1.95081">
        <ele>63.536224</ele>
        <time>2022-12-18T11:31:48.592Z</time>
      </trkpt>
      <trkpt lat="46.70757" lon="-1.95085">
        <ele>63.462066</ele>
        <time>2022-12-18T11:31:50.612Z</time>
      </trkpt>
      <trkpt lat="46.70746" lon="-1.9509">
        <ele>63.382659</ele>
        <time>2022-12-18T11:31:52.599Z</time>
      </trkpt>
      <trkpt lat="46.70736" lon="-1.95095">
        <ele>63.305493</ele>
        <time>2022-12-18T11:31:54.606Z</time>
      </trkpt>
      <trkpt lat="46.70725" lon="-1.95101">
        <ele>63.217695</ele>
        <time>2022-12-18T11:31:56.604Z</time>
      </trkpt>
      <trkpt lat="46.70714" lon="-1.95105">
        <ele>63.118818</ele>
        <time>2022-12-18T11:31:58.607Z</time>
      </trkpt>
      <trkpt lat="46.70704" lon="-1.9511">
        <ele>63.026833</ele>
        <time>2022-12-18T11:32:00.618Z</time>
      </trkpt>
      <trkpt lat="46.70694" lon="-1.95113">
        <ele>62.940604</ele>
        <time>2022-12-18T11:32:02.618Z</time>
      </trkpt>
      <trkpt lat="46.70685" lon="-1.95117">
        <ele>62.85195</ele>
        <time>2022-12-18T11:32:04.608Z</time>
      </trkpt>
      <trkpt lat="46.70676" lon="-1.9512">
        <ele>62.771362</ele>
        <time>2022-12-18T11:32:06.610Z</time>
      </trkpt>
      <trkpt lat="46.70663" lon="-1.95123">
        <ele>62.660888</ele>
        <time>2022-12-18T11:32:09.617Z</time>
      </trkpt>
      <trkpt lat="46.70654" lon="-1.95125">
        <ele>62.580603</ele>
        <time>2022-12-18T11:32:11.620Z</time>
      </trkpt>
      <trkpt lat="46.70641" lon="-1.95128">
        <ele>62.467717</ele>
        <time>2022-12-18T11:32:14.615Z</time>
      </trkpt>
      <trkpt lat="46.70628" lon="-1.95131">
        <ele>62.351346</ele>
        <time>2022-12-18T11:32:17.610Z</time>
      </trkpt>
      <trkpt lat="46.70619" lon="-1.95132">
        <ele>62.271465</ele>
        <time>2022-12-18T11:32:19.610Z</time>
      </trkpt>
      <trkpt lat="46.7061" lon="-1.95131">
        <ele>62.192725</ele>
        <time>2022-12-18T11:32:21.617Z</time>
      </trkpt>
      <trkpt lat="46.70601" lon="-1.95131">
        <ele>62.109565</ele>
        <time>2022-12-18T11:32:23.590Z</time>
      </trkpt>
      <trkpt lat="46.70591" lon="-1.9513">
        <ele>62.027245</ele>
        <time>2022-12-18T11:32:25.605Z</time>
      </trkpt>
      <trkpt lat="46.70582" lon="-1.9513">
        <ele>61.945057</ele>
        <time>2022-12-18T11:32:27.612Z</time>
      </trkpt>
      <trkpt lat="46.70572" lon="-1.95129">
        <ele>61.862798</ele>
        <time>2022-12-18T11:32:29.614Z</time>
      </trkpt>
      <trkpt lat="46.70559" lon="-1.95128">
        <ele>61.74732</ele>
        <time>2022-12-18T11:32:32.606Z</time>
      </trkpt>
      <trkpt lat="46.70547" lon="-1.95128">
        <ele>61.618965</ele>
        <time>2022-12-18T11:32:35.619Z</time>
      </trkpt>
      <trkpt lat="46.70535" lon="-1.95127">
        <ele>61.354002</ele>
        <time>2022-12-18T11:32:38.619Z</time>
      </trkpt>
      <trkpt lat="46.70522" lon="-1.95124">
        <ele>61.076269</ele>
        <time>2022-12-18T11:32:41.600Z</time>
      </trkpt>
      <trkpt lat="46.70513" lon="-1.95123">
        <ele>60.877043</ele>
        <time>2022-12-18T11:32:43.615Z</time>
      </trkpt>
      <trkpt lat="46.70504" lon="-1.95121">
        <ele>60.669499</ele>
        <time>2022-12-18T11:32:45.609Z</time>
      </trkpt>
      <trkpt lat="46.70495" lon="-1.95119">
        <ele>60.460845</ele>
        <time>2022-12-18T11:32:47.618Z</time>
      </trkpt>
      <trkpt lat="46.70481" lon="-1.95116">
        <ele>60.163257</ele>
        <time>2022-12-18T11:32:50.592Z</time>
      </trkpt>
      <trkpt lat="46.70468" lon="-1.95115">
        <ele>59.867206</ele>
        <time>2022-12-18T11:32:53.616Z</time>
      </trkpt>
      <trkpt lat="46.70459" lon="-1.95113">
        <ele>59.665662</ele>
        <time>2022-12-18T11:32:55.618Z</time>
      </trkpt>
      <trkpt lat="46.70449" lon="-1.95111">
        <ele>59.459376</ele>
        <time>2022-12-18T11:32:57.607Z</time>
      </trkpt>
      <trkpt lat="46.7044" lon="-1.9511">
        <ele>59.256034</ele>
        <time>2022-12-18T11:32:59.622Z</time>
      </trkpt>
      <trkpt lat="46.70431" lon="-1.95109">
        <ele>59.042096</ele>
        <time>2022-12-18T11:33:01.592Z</time>
      </trkpt>
      <trkpt lat="46.70421" lon="-1.95108">
        <ele>58.823261</ele>
        <time>2022-12-18T11:33:03.620Z</time>
      </trkpt>
      <trkpt lat="46.7041" lon="-1.95106">
        <ele>58.595239</ele>
        <time>2022-12-18T11:33:05.617Z</time>
      </trkpt>
      <trkpt lat="46.70401" lon="-1.95105">
        <ele>58.380025</ele>
        <time>2022-12-18T11:33:07.608Z</time>
      </trkpt>
      <trkpt lat="46.70392" lon="-1.95103">
        <ele>58.177301</ele>
        <time>2022-12-18T11:33:09.619Z</time>
      </trkpt>
      <trkpt lat="46.70378" lon="-1.95101">
        <ele>57.885643</ele>
        <time>2022-12-18T11:33:12.606Z</time>
      </trkpt>
      <trkpt lat="46.70366" lon="-1.95099">
        <ele>57.598494</ele>
        <time>2022-12-18T11:33:15.591Z</time>
      </trkpt>
      <trkpt lat="46.70354" lon="-1.95096">
        <ele>57.24008</ele>
        <time>2022-12-18T11:33:18.594Z</time>
      </trkpt>
      <trkpt lat="46.70341" lon="-1.95094">
        <ele>56.878615</ele>
        <time>2022-12-18T11:33:21.614Z</time>
      </trkpt>
      <trkpt lat="46.70328" lon="-1.95091">
        <ele>56.514848</ele>
        <time>2022-12-18T11:33:24.619Z</time>
      </trkpt>
      <trkpt lat="46.70316" lon="-1.95088">
        <ele>56.151962</ele>
        <time>2022-12-18T11:33:27.616Z</time>
      </trkpt>
      <trkpt lat="46.70303" lon="-1.95085">
        <ele>55.782209</ele>
        <time>2022-12-18T11:33:30.616Z</time>
      </trkpt>
      <trkpt lat="46.70289" lon="-1.95083">
        <ele>55.394222</ele>
        <time>2022-12-18T11:33:33.595Z</time>
      </trkpt>
      <trkpt lat="46.7028" lon="-1.95082">
        <ele>55.127707</ele>
        <time>2022-12-18T11:33:35.612Z</time>
      </trkpt>
      <trkpt lat="46.7027" lon="-1.95081">
        <ele>54.850856</ele>
        <time>2022-12-18T11:33:37.612Z</time>
      </trkpt>
      <trkpt lat="46.7026" lon="-1.9508">
        <ele>54.562629</ele>
        <time>2022-12-18T11:33:39.628Z</time>
      </trkpt>
      <trkpt lat="46.7025" lon="-1.95078">
        <ele>54.286032</ele>
        <time>2022-12-18T11:33:41.608Z</time>
      </trkpt>
      <trkpt lat="46.70239" lon="-1.95077">
        <ele>53.985993</ele>
        <time>2022-12-18T11:33:43.618Z</time>
      </trkpt>
      <trkpt lat="46.70229" lon="-1.95075">
        <ele>53.696632</ele>
        <time>2022-12-18T11:33:45.624Z</time>
      </trkpt>
      <trkpt lat="46.70219" lon="-1.95072">
        <ele>53.39623</ele>
        <time>2022-12-18T11:33:47.619Z</time>
      </trkpt>
      <trkpt lat="46.70207" lon="-1.95071">
        <ele>53.075811</ele>
        <time>2022-12-18T11:33:49.611Z</time>
      </trkpt>
      <trkpt lat="46.70196" lon="-1.9507">
        <ele>52.764678</ele>
        <time>2022-12-18T11:33:51.615Z</time>
      </trkpt>
      <trkpt lat="46.70187" lon="-1.95067">
        <ele>52.662369</ele>
        <time>2022-12-18T11:33:53.609Z</time>
      </trkpt>
      <trkpt lat="46.70177" lon="-1.95066">
        <ele>52.758339</ele>
        <time>2022-12-18T11:33:55.606Z</time>
      </trkpt>
      <trkpt lat="46.70167" lon="-1.95065">
        <ele>52.868103</ele>
        <time>2022-12-18T11:33:58.606Z</time>
      </trkpt>
      <trkpt lat="46.70155" lon="-1.95065">
        <ele>52.991988</ele>
        <time>2022-12-18T11:34:02.590Z</time>
      </trkpt>
      <trkpt lat="46.70145" lon="-1.95063">
        <ele>53.09585</ele>
        <time>2022-12-18T11:34:05.598Z</time>
      </trkpt>
      <trkpt lat="46.70134" lon="-1.95061">
        <ele>53.213426</ele>
        <time>2022-12-18T11:34:08.616Z</time>
      </trkpt>
      <trkpt lat="46.70123" lon="-1.95059">
        <ele>53.333704</ele>
        <time>2022-12-18T11:34:11.614Z</time>
      </trkpt>
      <trkpt lat="46.70112" lon="-1.95057">
        <ele>53.449883</ele>
        <time>2022-12-18T11:34:14.610Z</time>
      </trkpt>
      <trkpt lat="46.70101" lon="-1.95055">
        <ele>53.567274</ele>
        <time>2022-12-18T11:34:17.600Z</time>
      </trkpt>
      <trkpt lat="46.7009" lon="-1.95054">
        <ele>53.679125</ele>
        <time>2022-12-18T11:34:20.606Z</time>
      </trkpt>
      <trkpt lat="46.7008" lon="-1.95051">
        <ele>53.788387</ele>
        <time>2022-12-18T11:34:23.622Z</time>
      </trkpt>
      <trkpt lat="46.70069" lon="-1.95049">
        <ele>53.908458</ele>
        <time>2022-12-18T11:34:27.615Z</time>
      </trkpt>
      <trkpt lat="46.70058" lon="-1.95046">
        <ele>54.023592</ele>
        <time>2022-12-18T11:34:31.609Z</time>
      </trkpt>
      <trkpt lat="46.70047" lon="-1.95044">
        <ele>54.137009</ele>
        <time>2022-12-18T11:34:35.619Z</time>
      </trkpt>
      <trkpt lat="46.70036" lon="-1.95041">
        <ele>54.255007</ele>
        <time>2022-12-18T11:34:39.616Z</time>
      </trkpt>
      <trkpt lat="46.70026" lon="-1.95039">
        <ele>54.358396</ele>
        <time>2022-12-18T11:34:43.605Z</time>
      </trkpt>
      <trkpt lat="46.70017" lon="-1.95034">
        <ele>54.464807</ele>
        <time>2022-12-18T11:34:47.609Z</time>
      </trkpt>
      <trkpt lat="46.70007" lon="-1.95029">
        <ele>54.410685</ele>
        <time>2022-12-18T11:34:51.616Z</time>
      </trkpt>
      <trkpt lat="46.69998" lon="-1.95022">
        <ele>54.269728</ele>
        <time>2022-12-18T11:34:55.615Z</time>
      </trkpt>
      <trkpt lat="46.69991" lon="-1.95014">
        <ele>54.144362</ele>
        <time>2022-12-18T11:34:58.608Z</time>
      </trkpt>
      <trkpt lat="46.69982" lon="-1.95006">
        <ele>54.000072</ele>
        <time>2022-12-18T11:35:01.596Z</time>
      </trkpt>
      <trkpt lat="46.69973" lon="-1.94996">
        <ele>53.850251</ele>
        <time>2022-12-18T11:35:04.613Z</time>
      </trkpt>
      <trkpt lat="46.69964" lon="-1.94987">
        <ele>53.696533</ele>
        <time>2022-12-18T11:35:07.606Z</time>
      </trkpt>
      <trkpt lat="46.69955" lon="-1.94977">
        <ele>53.538913</ele>
        <time>2022-12-18T11:35:10.617Z</time>
      </trkpt>
      <trkpt lat="46.69946" lon="-1.94967">
        <ele>53.382864</ele>
        <time>2022-12-18T11:35:13.618Z</time>
      </trkpt>
      <trkpt lat="46.69938" lon="-1.94955">
        <ele>53.222727</ele>
        <time>2022-12-18T11:35:16.616Z</time>
      </trkpt>
      <trkpt lat="46.69928" lon="-1.94943">
        <ele>53.049644</ele>
        <time>2022-12-18T11:35:19.618Z</time>
      </trkpt>
      <trkpt lat="46.69919" lon="-1.94931">
        <ele>52.881527</ele>
        <time>2022-12-18T11:35:22.616Z</time>
      </trkpt>
      <trkpt lat="46.69909" lon="-1.94918">
        <ele>52.69913</ele>
        <time>2022-12-18T11:35:25.591Z</time>
      </trkpt>
      <trkpt lat="46.69903" lon="-1.94908">
        <ele>52.566346</ele>
        <time>2022-12-18T11:35:27.608Z</time>
      </trkpt>
      <trkpt lat="46.69895" lon="-1.94898">
        <ele>52.433508</ele>
        <time>2022-12-18T11:35:29.621Z</time>
      </trkpt>
      <trkpt lat="46.69889" lon="-1.94887">
        <ele>52.293</ele>
        <time>2022-12-18T11:35:31.616Z</time>
      </trkpt>
      <trkpt lat="46.69882" lon="-1.94876">
        <ele>52.148542</ele>
        <time>2022-12-18T11:35:33.620Z</time>
      </trkpt>
      <trkpt lat="46.69875" lon="-1.94864">
        <ele>52.038076</ele>
        <time>2022-12-18T11:35:35.620Z</time>
      </trkpt>
      <trkpt lat="46.69869" lon="-1.94853">
        <ele>52.139626</ele>
        <time>2022-12-18T11:35:37.620Z</time>
      </trkpt>
      <trkpt lat="46.69864" lon="-1.94842">
        <ele>52.23387</ele>
        <time>2022-12-18T11:35:39.618Z</time>
      </trkpt>
      <trkpt lat="46.69857" lon="-1.94827">
        <ele>52.360492</ele>
        <time>2022-12-18T11:35:42.611Z</time>
      </trkpt>
      <trkpt lat="46.6985" lon="-1.94812">
        <ele>52.480179</ele>
        <time>2022-12-18T11:35:45.617Z</time>
      </trkpt>
      <trkpt lat="46.69844" lon="-1.94798">
        <ele>52.597173</ele>
        <time>2022-12-18T11:35:48.613Z</time>
      </trkpt>
      <trkpt lat="46.69839" lon="-1.94784">
        <ele>52.709895</ele>
        <time>2022-12-18T11:35:51.619Z</time>
      </trkpt>
      <trkpt lat="46.69835" lon="-1.94771">
        <ele>52.813183</ele>
        <time>2022-12-18T11:35:54.613Z</time>
      </trkpt>
      <trkpt lat="46.6983" lon="-1.94758">
        <ele>52.917063</ele>
        <time>2022-12-18T11:35:58.617Z</time>
      </trkpt>
      <trkpt lat="46.69826" lon="-1.94745">
        <ele>53.010421</ele>
        <time>2022-12-18T11:36:05.617Z</time>
      </trkpt>
      <trkpt lat="46.69823" lon="-1.94733">
        <ele>53.108448</ele>
        <time>2022-12-18T11:36:11.589Z</time>
      </trkpt>
      <trkpt lat="46.69818" lon="-1.94719">
        <ele>53.214662</ele>
        <time>2022-12-18T11:36:15.589Z</time>
      </trkpt>
      <trkpt lat="46.69813" lon="-1.94703">
        <ele>53.33888</ele>
        <time>2022-12-18T11:36:19.611Z</time>
      </trkpt>
      <trkpt lat="46.6981" lon="-1.94688">
        <ele>53.445986</ele>
        <time>2022-12-18T11:36:22.612Z</time>
      </trkpt>
      <trkpt lat="46.69806" lon="-1.94673">
        <ele>53.558723</ele>
        <time>2022-12-18T11:36:25.611Z</time>
      </trkpt>
      <trkpt lat="46.69802" lon="-1.94658">
        <ele>53.674782</ele>
        <time>2022-12-18T11:36:28.605Z</time>
      </trkpt>
      <trkpt lat="46.69799" lon="-1.94642">
        <ele>53.792883</ele>
        <time>2022-12-18T11:36:31.595Z</time>
      </trkpt>
      <trkpt lat="46.69796" lon="-1.94625">
        <ele>53.93628</ele>
        <time>2022-12-18T11:36:34.609Z</time>
      </trkpt>
      <trkpt lat="46.69794" lon="-1.94612">
        <ele>54.091188</ele>
        <time>2022-12-18T11:36:37.589Z</time>
      </trkpt>
      <trkpt lat="46.6979" lon="-1.94597">
        <ele>54.261236</ele>
        <time>2022-12-18T11:36:40.593Z</time>
      </trkpt>
      <trkpt lat="46.69787" lon="-1.94581">
        <ele>54.442725</ele>
        <time>2022-12-18T11:36:43.592Z</time>
      </trkpt>
      <trkpt lat="46.69783" lon="-1.94565">
        <ele>54.623169</ele>
        <time>2022-12-18T11:36:46.609Z</time>
      </trkpt>
      <trkpt lat="46.69779" lon="-1.94549">
        <ele>54.805842</ele>
        <time>2022-12-18T11:36:49.610Z</time>
      </trkpt>
      <trkpt lat="46.69775" lon="-1.94534">
        <ele>54.987904</ele>
        <time>2022-12-18T11:36:52.594Z</time>
      </trkpt>
      <trkpt lat="46.69769" lon="-1.94519">
        <ele>55.171552</ele>
        <time>2022-12-18T11:36:55.608Z</time>
      </trkpt>
      <trkpt lat="46.69764" lon="-1.94502">
        <ele>55.367331</ele>
        <time>2022-12-18T11:36:58.603Z</time>
      </trkpt>
      <trkpt lat="46.69759" lon="-1.94486">
        <ele>55.566436</ele>
        <time>2022-12-18T11:37:01.612Z</time>
      </trkpt>
      <trkpt lat="46.69753" lon="-1.94472">
        <ele>55.743271</ele>
        <time>2022-12-18T11:37:04.592Z</time>
      </trkpt>
      <trkpt lat="46.69748" lon="-1.94458">
        <ele>55.910772</ele>
        <time>2022-12-18T11:37:07.603Z</time>
      </trkpt>
      <trkpt lat="46.69744" lon="-1.94444">
        <ele>56.079603</ele>
        <time>2022-12-18T11:37:10.607Z</time>
      </trkpt>
      <trkpt lat="46.69739" lon="-1.94429">
        <ele>56.252124</ele>
        <time>2022-12-18T11:37:13.606Z</time>
      </trkpt>
      <trkpt lat="46.69734" lon="-1.94414">
        <ele>56.432154</ele>
        <time>2022-12-18T11:37:16.607Z</time>
      </trkpt>
      <trkpt lat="46.69729" lon="-1.94399">
        <ele>56.613857</ele>
        <time>2022-12-18T11:37:19.611Z</time>
      </trkpt>
      <trkpt lat="46.69725" lon="-1.94385">
        <ele>56.712636</ele>
        <time>2022-12-18T11:37:22.603Z</time>
      </trkpt>
      <trkpt lat="46.6972" lon="-1.94374">
        <ele>56.721196</ele>
        <time>2022-12-18T11:37:25.603Z</time>
      </trkpt>
      <trkpt lat="46.69716" lon="-1.94361">
        <ele>56.730041</ele>
        <time>2022-12-18T11:37:28.618Z</time>
      </trkpt>
      <trkpt lat="46.69711" lon="-1.94348">
        <ele>56.739591</ele>
        <time>2022-12-18T11:37:31.588Z</time>
      </trkpt>
      <trkpt lat="46.69707" lon="-1.94333">
        <ele>56.749812</ele>
        <time>2022-12-18T11:37:34.609Z</time>
      </trkpt>
      <trkpt lat="46.69701" lon="-1.94318">
        <ele>56.760427</ele>
        <time>2022-12-18T11:37:37.615Z</time>
      </trkpt>
      <trkpt lat="46.69696" lon="-1.94303">
        <ele>56.771202</ele>
        <time>2022-12-18T11:37:40.599Z</time>
      </trkpt>
      <trkpt lat="46.69692" lon="-1.94287">
        <ele>56.781875</ele>
        <time>2022-12-18T11:37:43.597Z</time>
      </trkpt>
      <trkpt lat="46.69688" lon="-1.94272">
        <ele>56.791551</ele>
        <time>2022-12-18T11:37:46.598Z</time>
      </trkpt>
      <trkpt lat="46.69685" lon="-1.94257">
        <ele>56.801616</ele>
        <time>2022-12-18T11:37:49.614Z</time>
      </trkpt>
      <trkpt lat="46.69681" lon="-1.94242">
        <ele>56.811977</ele>
        <time>2022-12-18T11:37:52.612Z</time>
      </trkpt>
      <trkpt lat="46.69677" lon="-1.94226">
        <ele>56.822548</ele>
        <time>2022-12-18T11:37:55.615Z</time>
      </trkpt>
      <trkpt lat="46.69674" lon="-1.9421">
        <ele>56.833208</ele>
        <time>2022-12-18T11:37:58.602Z</time>
      </trkpt>
      <trkpt lat="46.6967" lon="-1.94194">
        <ele>56.843779</ele>
        <time>2022-12-18T11:38:01.605Z</time>
      </trkpt>
      <trkpt lat="46.69666" lon="-1.94179">
        <ele>56.853781</ele>
        <time>2022-12-18T11:38:04.605Z</time>
      </trkpt>
      <trkpt lat="46.69663" lon="-1.94165">
        <ele>56.86343</ele>
        <time>2022-12-18T11:38:07.609Z</time>
      </trkpt>
      <trkpt lat="46.6966" lon="-1.94149">
        <ele>56.873676</ele>
        <time>2022-12-18T11:38:10.602Z</time>
      </trkpt>
      <trkpt lat="46.69656" lon="-1.94134">
        <ele>56.706362</ele>
        <time>2022-12-18T11:38:13.618Z</time>
      </trkpt>
      <trkpt lat="46.69652" lon="-1.94119">
        <ele>56.525917</ele>
        <time>2022-12-18T11:38:17.620Z</time>
      </trkpt>
      <trkpt lat="46.69646" lon="-1.94109">
        <ele>56.379962</ele>
        <time>2022-12-18T11:38:21.601Z</time>
      </trkpt>
      <trkpt lat="46.69634" lon="-1.94111">
        <ele>56.191096</ele>
        <time>2022-12-18T11:38:25.600Z</time>
      </trkpt>
      <trkpt lat="46.69624" lon="-1.94115">
        <ele>56.02857</ele>
        <time>2022-12-18T11:38:28.604Z</time>
      </trkpt>
      <trkpt lat="46.69614" lon="-1.94114">
        <ele>55.862305</ele>
        <time>2022-12-18T11:38:31.594Z</time>
      </trkpt>
      <trkpt lat="46.69606" lon="-1.94105">
        <ele>55.702125</ele>
        <time>2022-12-18T11:38:34.589Z</time>
      </trkpt>
      <trkpt lat="46.696" lon="-1.94092">
        <ele>55.529763</ele>
        <time>2022-12-18T11:38:37.598Z</time>
      </trkpt>
      <trkpt lat="46.69594" lon="-1.94077">
        <ele>55.348416</ele>
        <time>2022-12-18T11:38:40.619Z</time>
      </trkpt>
      <trkpt lat="46.69587" lon="-1.94063">
        <ele>55.16239</ele>
        <time>2022-12-18T11:38:43.614Z</time>
      </trkpt>
      <trkpt lat="46.69581" lon="-1.94049">
        <ele>54.976664</ele>
        <time>2022-12-18T11:38:46.597Z</time>
      </trkpt>
      <trkpt lat="46.69575" lon="-1.94034">
        <ele>54.793408</ele>
        <time>2022-12-18T11:38:49.614Z</time>
      </trkpt>
      <trkpt lat="46.69568" lon="-1.9402">
        <ele>54.60671</ele>
        <time>2022-12-18T11:38:52.605Z</time>
      </trkpt>
      <trkpt lat="46.69562" lon="-1.94006">
        <ele>54.420093</ele>
        <time>2022-12-18T11:38:55.607Z</time>
      </trkpt>
      <trkpt lat="46.69555" lon="-1.93991">
        <ele>54.229897</ele>
        <time>2022-12-18T11:38:58.612Z</time>
      </trkpt>
      <trkpt lat="46.69548" lon="-1.93976">
        <ele>54.034413</ele>
        <time>2022-12-18T11:39:01.608Z</time>
      </trkpt>
      <trkpt lat="46.69541" lon="-1.9396">
        <ele>54.030814</ele>
        <time>2022-12-18T11:39:04.611Z</time>
      </trkpt>
      <trkpt lat="46.69535" lon="-1.93943">
        <ele>54.027133</ele>
        <time>2022-12-18T11:39:07.618Z</time>
      </trkpt>
      <trkpt lat="46.69531" lon="-1.93931">
        <ele>54.024582</ele>
        <time>2022-12-18T11:39:09.634Z</time>
      </trkpt>
      <trkpt lat="46.69525" lon="-1.93914">
        <ele>54.020837</ele>
        <time>2022-12-18T11:39:12.608Z</time>
      </trkpt>
      <trkpt lat="46.69518" lon="-1.93899">
        <ele>54.017225</ele>
        <time>2022-12-18T11:39:15.596Z</time>
      </trkpt>
      <trkpt lat="46.6951" lon="-1.93883">
        <ele>54.013612</ele>
        <time>2022-12-18T11:39:18.610Z</time>
      </trkpt>
      <trkpt lat="46.69503" lon="-1.93868">
        <ele>54.009937</ele>
        <time>2022-12-18T11:39:21.617Z</time>
      </trkpt>
      <trkpt lat="46.69496" lon="-1.93853">
        <ele>54.006434</ele>
        <time>2022-12-18T11:39:24.596Z</time>
      </trkpt>
      <trkpt lat="46.69489" lon="-1.93839">
        <ele>54.003218</ele>
        <time>2022-12-18T11:39:27.619Z</time>
      </trkpt>
      <trkpt lat="46.69481" lon="-1.93826">
        <ele>53.999783</ele>
        <time>2022-12-18T11:39:30.618Z</time>
      </trkpt>
      <trkpt lat="46.69473" lon="-1.9381">
        <ele>53.996122</ele>
        <time>2022-12-18T11:39:33.616Z</time>
      </trkpt>
      <trkpt lat="46.69466" lon="-1.93795">
        <ele>53.992477</ele>
        <time>2022-12-18T11:39:36.590Z</time>
      </trkpt>
      <trkpt lat="46.69459" lon="-1.93781">
        <ele>53.989022</ele>
        <time>2022-12-18T11:39:39.615Z</time>
      </trkpt>
      <trkpt lat="46.69451" lon="-1.93766">
        <ele>53.985566</ele>
        <time>2022-12-18T11:39:42.611Z</time>
      </trkpt>
      <trkpt lat="46.69445" lon="-1.9375">
        <ele>53.858853</ele>
        <time>2022-12-18T11:39:45.593Z</time>
      </trkpt>
      <trkpt lat="46.6944" lon="-1.93734">
        <ele>53.63268</ele>
        <time>2022-12-18T11:39:48.616Z</time>
      </trkpt>
      <trkpt lat="46.69435" lon="-1.93719">
        <ele>53.41875</ele>
        <time>2022-12-18T11:39:51.597Z</time>
      </trkpt>
      <trkpt lat="46.69432" lon="-1.93704">
        <ele>53.212264</ele>
        <time>2022-12-18T11:39:54.616Z</time>
      </trkpt>
      <trkpt lat="46.69428" lon="-1.9369">
        <ele>53.028276</ele>
        <time>2022-12-18T11:39:57.596Z</time>
      </trkpt>
      <trkpt lat="46.69425" lon="-1.93677">
        <ele>52.850979</ele>
        <time>2022-12-18T11:40:00.611Z</time>
      </trkpt>
      <trkpt lat="46.69421" lon="-1.93664">
        <ele>52.663062</ele>
        <time>2022-12-18T11:40:03.621Z</time>
      </trkpt>
      <trkpt lat="46.69419" lon="-1.93649">
        <ele>52.469279</ele>
        <time>2022-12-18T11:40:06.613Z</time>
      </trkpt>
      <trkpt lat="46.69419" lon="-1.93634">
        <ele>52.26796</ele>
        <time>2022-12-18T11:40:09.600Z</time>
      </trkpt>
      <trkpt lat="46.69422" lon="-1.93618">
        <ele>52.06327</ele>
        <time>2022-12-18T11:40:12.591Z</time>
      </trkpt>
      <trkpt lat="46.69428" lon="-1.93605">
        <ele>51.860312</ele>
        <time>2022-12-18T11:40:15.595Z</time>
      </trkpt>
      <trkpt lat="46.69438" lon="-1.93595">
        <ele>51.639475</ele>
        <time>2022-12-18T11:40:18.601Z</time>
      </trkpt>
      <trkpt lat="46.6945" lon="-1.93589">
        <ele>51.401338</ele>
        <time>2022-12-18T11:40:21.603Z</time>
      </trkpt>
      <trkpt lat="46.69463" lon="-1.93585">
        <ele>51.149784</ele>
        <time>2022-12-18T11:40:24.595Z</time>
      </trkpt>
      <trkpt lat="46.69476" lon="-1.93581">
        <ele>50.9019</ele>
        <time>2022-12-18T11:40:27.616Z</time>
      </trkpt>
      <trkpt lat="46.69489" lon="-1.93577">
        <ele>50.650006</ele>
        <time>2022-12-18T11:40:30.621Z</time>
      </trkpt>
      <trkpt lat="46.69501" lon="-1.93575">
        <ele>50.685495</ele>
        <time>2022-12-18T11:40:33.607Z</time>
      </trkpt>
      <trkpt lat="46.69513" lon="-1.93574">
        <ele>50.786772</ele>
        <time>2022-12-18T11:40:36.598Z</time>
      </trkpt>
      <trkpt lat="46.69525" lon="-1.93575">
        <ele>50.888309</ele>
        <time>2022-12-18T11:40:39.592Z</time>
      </trkpt>
      <trkpt lat="46.69539" lon="-1.93579">
        <ele>51.003211</ele>
        <time>2022-12-18T11:40:42.597Z</time>
      </trkpt>
      <trkpt lat="46.69548" lon="-1.9358">
        <ele>51.077196</ele>
        <time>2022-12-18T11:40:44.614Z</time>
      </trkpt>
      <trkpt lat="46.6956" lon="-1.93581">
        <ele>51.175219</ele>
        <time>2022-12-18T11:40:47.598Z</time>
      </trkpt>
      <trkpt lat="46.6957" lon="-1.9358">
        <ele>51.254536</ele>
        <time>2022-12-18T11:40:50.615Z</time>
      </trkpt>
      <trkpt lat="46.69579" lon="-1.93578">
        <ele>51.329027</ele>
        <time>2022-12-18T11:40:53.598Z</time>
      </trkpt>
      <trkpt lat="46.69589" lon="-1.93574">
        <ele>51.410579</ele>
        <time>2022-12-18T11:40:56.605Z</time>
      </trkpt>
      <trkpt lat="46.69596" lon="-1.93565">
        <ele>51.492658</ele>
        <time>2022-12-18T11:40:59.598Z</time>
      </trkpt>
      <trkpt lat="46.69601" lon="-1.93551">
        <ele>51.579639</ele>
        <time>2022-12-18T11:41:02.601Z</time>
      </trkpt>
      <trkpt lat="46.69603" lon="-1.93536">
        <ele>51.664861</ele>
        <time>2022-12-18T11:41:05.605Z</time>
      </trkpt>
      <trkpt lat="46.69605" lon="-1.93521">
        <ele>51.75063</ele>
        <time>2022-12-18T11:41:08.604Z</time>
      </trkpt>
      <trkpt lat="46.69607" lon="-1.93507">
        <ele>51.827129</ele>
        <time>2022-12-18T11:41:11.608Z</time>
      </trkpt>
      <trkpt lat="46.69609" lon="-1.93495">
        <ele>51.900371</ele>
        <time>2022-12-18T11:41:14.594Z</time>
      </trkpt>
      <trkpt lat="46.69612" lon="-1.93482">
        <ele>51.973944</ele>
        <time>2022-12-18T11:41:17.612Z</time>
      </trkpt>
      <trkpt lat="46.69615" lon="-1.93467">
        <ele>52.061344</ele>
        <time>2022-12-18T11:41:21.616Z</time>
      </trkpt>
      <trkpt lat="46.69617" lon="-1.93454">
        <ele>51.987627</ele>
        <time>2022-12-18T11:41:25.603Z</time>
      </trkpt>
      <trkpt lat="46.69619" lon="-1.93439">
        <ele>51.88165</ele>
        <time>2022-12-18T11:41:30.606Z</time>
      </trkpt>
      <trkpt lat="46.69614" lon="-1.93425">
        <ele>51.763703</ele>
        <time>2022-12-18T11:41:36.596Z</time>
      </trkpt>
      <trkpt lat="46.69605" lon="-1.93416">
        <ele>51.645709</ele>
        <time>2022-12-18T11:41:40.594Z</time>
      </trkpt>
      <trkpt lat="46.69595" lon="-1.93411">
        <ele>51.52921</ele>
        <time>2022-12-18T11:41:43.600Z</time>
      </trkpt>
      <trkpt lat="46.69583" lon="-1.93407">
        <ele>51.401486</ele>
        <time>2022-12-18T11:41:46.591Z</time>
      </trkpt>
      <trkpt lat="46.69572" lon="-1.93402">
        <ele>51.278598</ele>
        <time>2022-12-18T11:41:49.598Z</time>
      </trkpt>
      <trkpt lat="46.69561" lon="-1.93398">
        <ele>51.154475</ele>
        <time>2022-12-18T11:41:52.604Z</time>
      </trkpt>
      <trkpt lat="46.69549" lon="-1.93392">
        <ele>51.023728</ele>
        <time>2022-12-18T11:41:55.617Z</time>
      </trkpt>
      <trkpt lat="46.69538" lon="-1.93387">
        <ele>50.892762</ele>
        <time>2022-12-18T11:41:58.606Z</time>
      </trkpt>
      <trkpt lat="46.69526" lon="-1.93382">
        <ele>50.754581</ele>
        <time>2022-12-18T11:42:01.607Z</time>
      </trkpt>
      <trkpt lat="46.69514" lon="-1.93377">
        <ele>50.623017</ele>
        <time>2022-12-18T11:42:04.612Z</time>
      </trkpt>
      <trkpt lat="46.69502" lon="-1.93372">
        <ele>50.493516</ele>
        <time>2022-12-18T11:42:07.616Z</time>
      </trkpt>
      <trkpt lat="46.6949" lon="-1.93367">
        <ele>50.356144</ele>
        <time>2022-12-18T11:42:10.604Z</time>
      </trkpt>
      <trkpt lat="46.69478" lon="-1.93362">
        <ele>50.221044</ele>
        <time>2022-12-18T11:42:13.613Z</time>
      </trkpt>
      <trkpt lat="46.69467" lon="-1.93357">
        <ele>50.144691</ele>
        <time>2022-12-18T11:42:16.606Z</time>
      </trkpt>
      <trkpt lat="46.69455" lon="-1.93352">
        <ele>50.173891</ele>
        <time>2022-12-18T11:42:19.609Z</time>
      </trkpt>
      <trkpt lat="46.69444" lon="-1.93347">
        <ele>50.201689</ele>
        <time>2022-12-18T11:42:22.607Z</time>
      </trkpt>
      <trkpt lat="46.69435" lon="-1.93344">
        <ele>50.22494</ele>
        <time>2022-12-18T11:42:25.600Z</time>
      </trkpt>
      <trkpt lat="46.69425" lon="-1.9334">
        <ele>50.250171</ele>
        <time>2022-12-18T11:42:28.592Z</time>
      </trkpt>
      <trkpt lat="46.69414" lon="-1.93337">
        <ele>50.276238</ele>
        <time>2022-12-18T11:42:31.614Z</time>
      </trkpt>
      <trkpt lat="46.69404" lon="-1.93335">
        <ele>50.300716</ele>
        <time>2022-12-18T11:42:34.620Z</time>
      </trkpt>
      <trkpt lat="46.69394" lon="-1.93336">
        <ele>50.325535</ele>
        <time>2022-12-18T11:42:37.600Z</time>
      </trkpt>
      <trkpt lat="46.69384" lon="-1.93334">
        <ele>50.350422</ele>
        <time>2022-12-18T11:42:40.605Z</time>
      </trkpt>
      <trkpt lat="46.69373" lon="-1.93331">
        <ele>50.377782</ele>
        <time>2022-12-18T11:42:43.594Z</time>
      </trkpt>
      <trkpt lat="46.69361" lon="-1.93328">
        <ele>50.406419</ele>
        <time>2022-12-18T11:42:46.591Z</time>
      </trkpt>
      <trkpt lat="46.69351" lon="-1.93329">
        <ele>50.43149</ele>
        <time>2022-12-18T11:42:49.601Z</time>
      </trkpt>
      <trkpt lat="46.69342" lon="-1.93328">
        <ele>50.45487</ele>
        <time>2022-12-18T11:42:52.611Z</time>
      </trkpt>
      <trkpt lat="46.69331" lon="-1.93326">
        <ele>50.481059</ele>
        <time>2022-12-18T11:42:55.595Z</time>
      </trkpt>
      <trkpt lat="46.6932" lon="-1.93325">
        <ele>50.506472</ele>
        <time>2022-12-18T11:42:58.609Z</time>
      </trkpt>
      <trkpt lat="46.6931" lon="-1.93322">
        <ele>50.533054</ele>
        <time>2022-12-18T11:43:01.617Z</time>
      </trkpt>
      <trkpt lat="46.69299" lon="-1.93321">
        <ele>50.559969</ele>
        <time>2022-12-18T11:43:04.607Z</time>
      </trkpt>
      <trkpt lat="46.69289" lon="-1.93318">
        <ele>50.555048</ele>
        <time>2022-12-18T11:43:07.606Z</time>
      </trkpt>
      <trkpt lat="46.69277" lon="-1.93317">
        <ele>50.512912</ele>
        <time>2022-12-18T11:43:11.590Z</time>
      </trkpt>
      <trkpt lat="46.69267" lon="-1.93315">
        <ele>50.473717</ele>
        <time>2022-12-18T11:43:14.615Z</time>
      </trkpt>
      <trkpt lat="46.69256" lon="-1.93313">
        <ele>50.433839</ele>
        <time>2022-12-18T11:43:17.616Z</time>
      </trkpt>
      <trkpt lat="46.69245" lon="-1.93311">
        <ele>50.392474</ele>
        <time>2022-12-18T11:43:20.607Z</time>
      </trkpt>
      <trkpt lat="46.69234" lon="-1.93308">
        <ele>50.350211</ele>
        <time>2022-12-18T11:43:23.589Z</time>
      </trkpt>
      <trkpt lat="46.69223" lon="-1.93306">
        <ele>50.308355</ele>
        <time>2022-12-18T11:43:26.616Z</time>
      </trkpt>
      <trkpt lat="46.69213" lon="-1.93304">
        <ele>50.268876</ele>
        <time>2022-12-18T11:43:29.617Z</time>
      </trkpt>
      <trkpt lat="46.69202" lon="-1.93303">
        <ele>50.227083</ele>
        <time>2022-12-18T11:43:33.614Z</time>
      </trkpt>
      <trkpt lat="46.69191" lon="-1.93302">
        <ele>50.187443</ele>
        <time>2022-12-18T11:43:37.610Z</time>
      </trkpt>
      <trkpt lat="46.69182" lon="-1.93308">
        <ele>50.152563</ele>
        <time>2022-12-18T11:43:40.600Z</time>
      </trkpt>
      <trkpt lat="46.69173" lon="-1.93311">
        <ele>50.117134</ele>
        <time>2022-12-18T11:43:43.606Z</time>
      </trkpt>
      <trkpt lat="46.69164" lon="-1.93302">
        <ele>50.075882</ele>
        <time>2022-12-18T11:43:47.598Z</time>
      </trkpt>
      <trkpt lat="46.69157" lon="-1.93289">
        <ele>50.031718</ele>
        <time>2022-12-18T11:43:51.617Z</time>
      </trkpt>
      <trkpt lat="46.69148" lon="-1.9328">
        <ele>49.990453</ele>
        <time>2022-12-18T11:43:55.596Z</time>
      </trkpt>
      <trkpt lat="46.69145" lon="-1.93275">
        <ele>49.974721</ele>
        <time>2022-12-18T11:44:14.879Z</time>
      </trkpt>
      <trkpt lat="46.69138" lon="-1.93262">
        <ele>49.9326</ele>
        <time>2022-12-18T11:49:36.605Z</time>
      </trkpt>
      <trkpt lat="46.6913" lon="-1.9325">
        <ele>49.88553</ele>
        <time>2022-12-18T11:49:40.612Z</time>
      </trkpt>
      <trkpt lat="46.69123" lon="-1.93238">
        <ele>49.829894</ele>
        <time>2022-12-18T11:49:43.600Z</time>
      </trkpt>
      <trkpt lat="46.69116" lon="-1.93225">
        <ele>49.77128</ele>
        <time>2022-12-18T11:49:46.596Z</time>
      </trkpt>
      <trkpt lat="46.69109" lon="-1.93212">
        <ele>49.712299</ele>
        <time>2022-12-18T11:49:49.609Z</time>
      </trkpt>
      <trkpt lat="46.69101" lon="-1.93199">
        <ele>49.651853</ele>
        <time>2022-12-18T11:49:52.609Z</time>
      </trkpt>
      <trkpt lat="46.69092" lon="-1.93186">
        <ele>49.589328</ele>
        <time>2022-12-18T11:49:55.622Z</time>
      </trkpt>
      <trkpt lat="46.69082" lon="-1.93176">
        <ele>49.527079</ele>
        <time>2022-12-18T11:49:58.602Z</time>
      </trkpt>
      <trkpt lat="46.69072" lon="-1.93169">
        <ele>49.467196</ele>
        <time>2022-12-18T11:50:01.600Z</time>
      </trkpt>
      <trkpt lat="46.69062" lon="-1.93165">
        <ele>49.416773</ele>
        <time>2022-12-18T11:50:04.605Z</time>
      </trkpt>
      <trkpt lat="46.69052" lon="-1.93164">
        <ele>49.363429</ele>
        <time>2022-12-18T11:50:07.617Z</time>
      </trkpt>
      <trkpt lat="46.69041" lon="-1.93163">
        <ele>49.309085</ele>
        <time>2022-12-18T11:50:10.608Z</time>
      </trkpt>
      <trkpt lat="46.6903" lon="-1.93163">
        <ele>49.253804</ele>
        <time>2022-12-18T11:50:13.607Z</time>
      </trkpt>
      <trkpt lat="46.69019" lon="-1.93164">
        <ele>49.195431</ele>
        <time>2022-12-18T11:50:16.611Z</time>
      </trkpt>
      <trkpt lat="46.69007" lon="-1.93163">
        <ele>49.135499</ele>
        <time>2022-12-18T11:50:19.611Z</time>
      </trkpt>
      <trkpt lat="46.68996" lon="-1.93163">
        <ele>49.078158</ele>
        <time>2022-12-18T11:50:22.598Z</time>
      </trkpt>
      <trkpt lat="46.68984" lon="-1.93163">
        <ele>49.018787</ele>
        <time>2022-12-18T11:50:25.628Z</time>
      </trkpt>
      <trkpt lat="46.68973" lon="-1.93164">
        <ele>49.000234</ele>
        <time>2022-12-18T11:50:28.609Z</time>
      </trkpt>
      <trkpt lat="46.68962" lon="-1.93166">
        <ele>49.059729</ele>
        <time>2022-12-18T11:50:31.603Z</time>
      </trkpt>
      <trkpt lat="46.68951" lon="-1.93168">
        <ele>49.117426</ele>
        <time>2022-12-18T11:50:34.607Z</time>
      </trkpt>
      <trkpt lat="46.6894" lon="-1.93171">
        <ele>49.172753</ele>
        <time>2022-12-18T11:50:37.605Z</time>
      </trkpt>
      <trkpt lat="46.68929" lon="-1.93174">
        <ele>49.232527</ele>
        <time>2022-12-18T11:50:40.620Z</time>
      </trkpt>
      <trkpt lat="46.68919" lon="-1.93177">
        <ele>49.289003</ele>
        <time>2022-12-18T11:50:43.622Z</time>
      </trkpt>
      <trkpt lat="46.68909" lon="-1.93183">
        <ele>49.345661</ele>
        <time>2022-12-18T11:50:46.617Z</time>
      </trkpt>
      <trkpt lat="46.68898" lon="-1.93189">
        <ele>49.405474</ele>
        <time>2022-12-18T11:50:49.603Z</time>
      </trkpt>
      <trkpt lat="46.68887" lon="-1.93197">
        <ele>49.468827</ele>
        <time>2022-12-18T11:50:52.609Z</time>
      </trkpt>
      <trkpt lat="46.68875" lon="-1.93204">
        <ele>49.536323</ele>
        <time>2022-12-18T11:50:55.614Z</time>
      </trkpt>
      <trkpt lat="46.68864" lon="-1.93211">
        <ele>49.601528</ele>
        <time>2022-12-18T11:50:58.607Z</time>
      </trkpt>
      <trkpt lat="46.68853" lon="-1.93218">
        <ele>49.664176</ele>
        <time>2022-12-18T11:51:01.622Z</time>
      </trkpt>
      <trkpt lat="46.68842" lon="-1.93225">
        <ele>49.72586</ele>
        <time>2022-12-18T11:51:04.604Z</time>
      </trkpt>
      <trkpt lat="46.68831" lon="-1.93232">
        <ele>49.787063</ele>
        <time>2022-12-18T11:51:07.598Z</time>
      </trkpt>
      <trkpt lat="46.68821" lon="-1.93238">
        <ele>49.848605</ele>
        <time>2022-12-18T11:51:10.593Z</time>
      </trkpt>
      <trkpt lat="46.68809" lon="-1.93242">
        <ele>49.908518</ele>
        <time>2022-12-18T11:51:13.597Z</time>
      </trkpt>
      <trkpt lat="46.68798" lon="-1.93243">
        <ele>49.891767</ele>
        <time>2022-12-18T11:51:16.610Z</time>
      </trkpt>
      <trkpt lat="46.68787" lon="-1.93244">
        <ele>49.850197</ele>
        <time>2022-12-18T11:51:19.600Z</time>
      </trkpt>
      <trkpt lat="46.68776" lon="-1.93243">
        <ele>49.812092</ele>
        <time>2022-12-18T11:51:22.596Z</time>
      </trkpt>
      <trkpt lat="46.68767" lon="-1.9324">
        <ele>49.775866</ele>
        <time>2022-12-18T11:51:25.604Z</time>
      </trkpt>
      <trkpt lat="46.68756" lon="-1.93237">
        <ele>49.736702</ele>
        <time>2022-12-18T11:51:28.606Z</time>
      </trkpt>
      <trkpt lat="46.68744" lon="-1.93234">
        <ele>49.692729</ele>
        <time>2022-12-18T11:51:31.601Z</time>
      </trkpt>
      <trkpt lat="46.68733" lon="-1.93231">
        <ele>49.650275</ele>
        <time>2022-12-18T11:51:34.595Z</time>
      </trkpt>
      <trkpt lat="46.68722" lon="-1.93228">
        <ele>49.610098</ele>
        <time>2022-12-18T11:51:37.604Z</time>
      </trkpt>
      <trkpt lat="46.6871" lon="-1.93227">
        <ele>49.566607</ele>
        <time>2022-12-18T11:51:40.607Z</time>
      </trkpt>
      <trkpt lat="46.68698" lon="-1.93225">
        <ele>49.523115</ele>
        <time>2022-12-18T11:51:43.603Z</time>
      </trkpt>
      <trkpt lat="46.68686" lon="-1.93222">
        <ele>49.479457</ele>
        <time>2022-12-18T11:51:46.598Z</time>
      </trkpt>
      <trkpt lat="46.68675" lon="-1.93217">
        <ele>49.438062</ele>
        <time>2022-12-18T11:51:49.602Z</time>
      </trkpt>
      <trkpt lat="46.68667" lon="-1.93211">
        <ele>49.403632</ele>
        <time>2022-12-18T11:51:52.604Z</time>
      </trkpt>
      <trkpt lat="46.68657" lon="-1.93206">
        <ele>49.36677</ele>
        <time>2022-12-18T11:51:55.619Z</time>
      </trkpt>
      <trkpt lat="46.68649" lon="-1.93201">
        <ele>49.333488</ele>
        <time>2022-12-18T11:51:58.601Z</time>
      </trkpt>
      <trkpt lat="46.68639" lon="-1.93194">
        <ele>49.293301</ele>
        <time>2022-12-18T11:52:02.599Z</time>
      </trkpt>
      <trkpt lat="46.68632" lon="-1.93185">
        <ele>49.287793</ele>
        <time>2022-12-18T11:52:05.627Z</time>
      </trkpt>
      <trkpt lat="46.68623" lon="-1.93178">
        <ele>49.365931</ele>
        <time>2022-12-18T11:52:08.607Z</time>
      </trkpt>
      <trkpt lat="46.68613" lon="-1.93171">
        <ele>49.445013</ele>
        <time>2022-12-18T11:52:11.599Z</time>
      </trkpt>
      <trkpt lat="46.68604" lon="-1.93164">
        <ele>49.527313</ele>
        <time>2022-12-18T11:52:14.597Z</time>
      </trkpt>
      <trkpt lat="46.68595" lon="-1.93155">
        <ele>49.609108</ele>
        <time>2022-12-18T11:52:17.611Z</time>
      </trkpt>
      <trkpt lat="46.68586" lon="-1.93147">
        <ele>49.689779</ele>
        <time>2022-12-18T11:52:20.616Z</time>
      </trkpt>
      <trkpt lat="46.68577" lon="-1.93138">
        <ele>49.773657</ele>
        <time>2022-12-18T11:52:23.608Z</time>
      </trkpt>
      <trkpt lat="46.68567" lon="-1.9313">
        <ele>49.856002</ele>
        <time>2022-12-18T11:52:26.630Z</time>
      </trkpt>
      <trkpt lat="46.68558" lon="-1.93121">
        <ele>49.941198</ele>
        <time>2022-12-18T11:52:29.597Z</time>
      </trkpt>
      <trkpt lat="46.68549" lon="-1.93112">
        <ele>50.025077</ele>
        <time>2022-12-18T11:52:32.618Z</time>
      </trkpt>
      <trkpt lat="46.6854" lon="-1.93103">
        <ele>50.108371</ele>
        <time>2022-12-18T11:52:35.617Z</time>
      </trkpt>
      <trkpt lat="46.6853" lon="-1.93094">
        <ele>50.193218</ele>
        <time>2022-12-18T11:52:38.605Z</time>
      </trkpt>
      <trkpt lat="46.68521" lon="-1.93084">
        <ele>50.28118</ele>
        <time>2022-12-18T11:52:41.599Z</time>
      </trkpt>
      <trkpt lat="46.68511" lon="-1.93075">
        <ele>50.370062</ele>
        <time>2022-12-18T11:52:44.618Z</time>
      </trkpt>
      <trkpt lat="46.68501" lon="-1.93066">
        <ele>50.457628</ele>
        <time>2022-12-18T11:52:47.626Z</time>
      </trkpt>
      <trkpt lat="46.68492" lon="-1.93057">
        <ele>50.542135</ele>
        <time>2022-12-18T11:52:50.618Z</time>
      </trkpt>
      <trkpt lat="46.68483" lon="-1.93047">
        <ele>50.628194</ele>
        <time>2022-12-18T11:52:53.611Z</time>
      </trkpt>
      <trkpt lat="46.68473" lon="-1.93038">
        <ele>50.699985</ele>
        <time>2022-12-18T11:52:56.597Z</time>
      </trkpt>
      <trkpt lat="46.68464" lon="-1.9303">
        <ele>50.767831</ele>
        <time>2022-12-18T11:52:59.601Z</time>
      </trkpt>
      <trkpt lat="46.68456" lon="-1.9302">
        <ele>50.835301</ele>
        <time>2022-12-18T11:53:02.606Z</time>
      </trkpt>
      <trkpt lat="46.68448" lon="-1.9301">
        <ele>50.898809</ele>
        <time>2022-12-18T11:53:05.593Z</time>
      </trkpt>
      <trkpt lat="46.68441" lon="-1.93">
        <ele>50.959012</ele>
        <time>2022-12-18T11:53:08.604Z</time>
      </trkpt>
      <trkpt lat="46.68434" lon="-1.9299">
        <ele>51.017617</ele>
        <time>2022-12-18T11:53:11.602Z</time>
      </trkpt>
      <trkpt lat="46.68428" lon="-1.9298">
        <ele>51.077469</ele>
        <time>2022-12-18T11:53:14.596Z</time>
      </trkpt>
      <trkpt lat="46.68422" lon="-1.9297">
        <ele>51.135763</ele>
        <time>2022-12-18T11:53:17.599Z</time>
      </trkpt>
      <trkpt lat="46.68415" lon="-1.9296">
        <ele>51.194763</ele>
        <time>2022-12-18T11:53:20.599Z</time>
      </trkpt>
      <trkpt lat="46.68408" lon="-1.9295">
        <ele>51.254529</ele>
        <time>2022-12-18T11:53:23.604Z</time>
      </trkpt>
      <trkpt lat="46.684" lon="-1.92941">
        <ele>51.317639</ele>
        <time>2022-12-18T11:53:26.616Z</time>
      </trkpt>
      <trkpt lat="46.68392" lon="-1.92932">
        <ele>51.381807</ele>
        <time>2022-12-18T11:53:29.625Z</time>
      </trkpt>
      <trkpt lat="46.68384" lon="-1.92921">
        <ele>51.447194</ele>
        <time>2022-12-18T11:53:32.600Z</time>
      </trkpt>
      <trkpt lat="46.68377" lon="-1.92911">
        <ele>51.511546</ele>
        <time>2022-12-18T11:53:35.629Z</time>
      </trkpt>
      <trkpt lat="46.68369" lon="-1.92901">
        <ele>51.574006</ele>
        <time>2022-12-18T11:53:38.610Z</time>
      </trkpt>
      <trkpt lat="46.68361" lon="-1.9289">
        <ele>51.640124</ele>
        <time>2022-12-18T11:53:41.602Z</time>
      </trkpt>
      <trkpt lat="46.68355" lon="-1.9288">
        <ele>51.700631</ele>
        <time>2022-12-18T11:53:44.603Z</time>
      </trkpt>
      <trkpt lat="46.68347" lon="-1.9287">
        <ele>51.749892</ele>
        <time>2022-12-18T11:53:48.618Z</time>
      </trkpt>
      <trkpt lat="46.6834" lon="-1.92859">
        <ele>51.745875</ele>
        <time>2022-12-18T11:53:52.618Z</time>
      </trkpt>
      <trkpt lat="46.68331" lon="-1.92847">
        <ele>51.741452</ele>
        <time>2022-12-18T11:53:56.602Z</time>
      </trkpt>
      <trkpt lat="46.68325" lon="-1.92838">
        <ele>51.738019</ele>
        <time>2022-12-18T11:53:59.617Z</time>
      </trkpt>
      <trkpt lat="46.68318" lon="-1.92827">
        <ele>51.734396</ele>
        <time>2022-12-18T11:54:02.598Z</time>
      </trkpt>
      <trkpt lat="46.68312" lon="-1.92817">
        <ele>51.730804</ele>
        <time>2022-12-18T11:54:05.615Z</time>
      </trkpt>
      <trkpt lat="46.68306" lon="-1.92806">
        <ele>51.727167</ele>
        <time>2022-12-18T11:54:08.599Z</time>
      </trkpt>
      <trkpt lat="46.683" lon="-1.92795">
        <ele>51.723655</ele>
        <time>2022-12-18T11:54:11.608Z</time>
      </trkpt>
      <trkpt lat="46.68294" lon="-1.92785">
        <ele>51.72019</ele>
        <time>2022-12-18T11:54:14.602Z</time>
      </trkpt>
      <trkpt lat="46.68288" lon="-1.92774">
        <ele>51.716673</ele>
        <time>2022-12-18T11:54:17.619Z</time>
      </trkpt>
      <trkpt lat="46.68282" lon="-1.92764">
        <ele>51.712993</ele>
        <time>2022-12-18T11:54:20.616Z</time>
      </trkpt>
      <trkpt lat="46.68275" lon="-1.92752">
        <ele>51.709038</ele>
        <time>2022-12-18T11:54:23.624Z</time>
      </trkpt>
      <trkpt lat="46.68267" lon="-1.9274">
        <ele>51.704841</ele>
        <time>2022-12-18T11:54:26.603Z</time>
      </trkpt>
      <trkpt lat="46.68259" lon="-1.9273">
        <ele>51.700783</ele>
        <time>2022-12-18T11:54:29.616Z</time>
      </trkpt>
      <trkpt lat="46.6825" lon="-1.9272">
        <ele>51.696586</ele>
        <time>2022-12-18T11:54:32.601Z</time>
      </trkpt>
      <trkpt lat="46.68241" lon="-1.92709">
        <ele>51.692132</ele>
        <time>2022-12-18T11:54:35.608Z</time>
      </trkpt>
      <trkpt lat="46.68231" lon="-1.92699">
        <ele>51.687696</ele>
        <time>2022-12-18T11:54:38.622Z</time>
      </trkpt>
      <trkpt lat="46.68222" lon="-1.92689">
        <ele>51.683367</ele>
        <time>2022-12-18T11:54:41.627Z</time>
      </trkpt>
      <trkpt lat="46.68214" lon="-1.92678">
        <ele>51.809278</ele>
        <time>2022-12-18T11:54:44.600Z</time>
      </trkpt>
      <trkpt lat="46.68206" lon="-1.92666">
        <ele>51.951028</ele>
        <time>2022-12-18T11:54:47.620Z</time>
      </trkpt>
      <trkpt lat="46.68198" lon="-1.92654">
        <ele>52.095619</ele>
        <time>2022-12-18T11:54:50.605Z</time>
      </trkpt>
      <trkpt lat="46.68191" lon="-1.9264">
        <ele>52.247305</ele>
        <time>2022-12-18T11:54:53.601Z</time>
      </trkpt>
      <trkpt lat="46.68184" lon="-1.92626">
        <ele>52.395271</ele>
        <time>2022-12-18T11:54:56.604Z</time>
      </trkpt>
      <trkpt lat="46.68178" lon="-1.92613">
        <ele>52.522156</ele>
        <time>2022-12-18T11:54:59.623Z</time>
      </trkpt>
      <trkpt lat="46.68173" lon="-1.92601">
        <ele>52.641478</ele>
        <time>2022-12-18T11:55:11.609Z</time>
      </trkpt>
      <trkpt lat="46.68167" lon="-1.92591">
        <ele>52.764234</ele>
        <time>2022-12-18T11:55:16.609Z</time>
      </trkpt>
      <trkpt lat="46.68159" lon="-1.92581">
        <ele>52.887427</ele>
        <time>2022-12-18T11:55:20.615Z</time>
      </trkpt>
      <trkpt lat="46.68152" lon="-1.9257">
        <ele>53.021365</ele>
        <time>2022-12-18T11:55:24.651Z</time>
      </trkpt>
      <trkpt lat="46.68143" lon="-1.92559">
        <ele>53.166809</ele>
        <time>2022-12-18T11:55:28.630Z</time>
      </trkpt>
      <trkpt lat="46.68136" lon="-1.9255">
        <ele>53.287765</ele>
        <time>2022-12-18T11:55:31.618Z</time>
      </trkpt>
      <trkpt lat="46.68129" lon="-1.9254">
        <ele>53.406863</ele>
        <time>2022-12-18T11:55:34.614Z</time>
      </trkpt>
      <trkpt lat="46.68122" lon="-1.92531">
        <ele>53.524491</ele>
        <time>2022-12-18T11:55:37.600Z</time>
      </trkpt>
      <trkpt lat="46.68116" lon="-1.9252">
        <ele>53.646133</ele>
        <time>2022-12-18T11:55:40.613Z</time>
      </trkpt>
      <trkpt lat="46.6811" lon="-1.92508">
        <ele>53.773062</ele>
        <time>2022-12-18T11:55:43.611Z</time>
      </trkpt>
      <trkpt lat="46.68104" lon="-1.92495">
        <ele>53.904825</ele>
        <time>2022-12-18T11:55:46.601Z</time>
      </trkpt>
      <trkpt lat="46.68098" lon="-1.92481">
        <ele>53.65598</ele>
        <time>2022-12-18T11:55:49.607Z</time>
      </trkpt>
      <trkpt lat="46.68093" lon="-1.92469">
        <ele>53.364394</ele>
        <time>2022-12-18T11:55:52.604Z</time>
      </trkpt>
      <trkpt lat="46.68087" lon="-1.92456">
        <ele>53.057479</ele>
        <time>2022-12-18T11:55:55.615Z</time>
      </trkpt>
      <trkpt lat="46.68082" lon="-1.92442">
        <ele>52.73894</ele>
        <time>2022-12-18T11:55:58.622Z</time>
      </trkpt>
      <trkpt lat="46.68076" lon="-1.92428">
        <ele>52.426893</ele>
        <time>2022-12-18T11:56:01.617Z</time>
      </trkpt>
      <trkpt lat="46.68072" lon="-1.92414">
        <ele>52.115763</ele>
        <time>2022-12-18T11:56:04.602Z</time>
      </trkpt>
      <trkpt lat="46.68067" lon="-1.92402">
        <ele>51.832482</ele>
        <time>2022-12-18T11:56:07.623Z</time>
      </trkpt>
      <trkpt lat="46.68062" lon="-1.92388">
        <ele>51.535427</ele>
        <time>2022-12-18T11:56:11.617Z</time>
      </trkpt>
      <trkpt lat="46.68057" lon="-1.92377">
        <ele>51.257916</ele>
        <time>2022-12-18T11:56:15.605Z</time>
      </trkpt>
      <trkpt lat="46.68048" lon="-1.9237">
        <ele>50.975886</ele>
        <time>2022-12-18T11:56:20.627Z</time>
      </trkpt>
      <trkpt lat="46.68041" lon="-1.92361">
        <ele>50.700447</ele>
        <time>2022-12-18T11:56:23.618Z</time>
      </trkpt>
      <trkpt lat="46.68032" lon="-1.92352">
        <ele>50.379807</ele>
        <time>2022-12-18T11:56:26.605Z</time>
      </trkpt>
      <trkpt lat="46.68022" lon="-1.92342">
        <ele>50.029462</ele>
        <time>2022-12-18T11:56:29.602Z</time>
      </trkpt>
      <trkpt lat="46.68012" lon="-1.92331">
        <ele>49.680827</ele>
        <time>2022-12-18T11:56:32.599Z</time>
      </trkpt>
      <trkpt lat="46.68002" lon="-1.9232">
        <ele>49.312227</ele>
        <time>2022-12-18T11:56:35.611Z</time>
      </trkpt>
      <trkpt lat="46.67992" lon="-1.92308">
        <ele>48.934984</ele>
        <time>2022-12-18T11:56:38.598Z</time>
      </trkpt>
      <trkpt lat="46.67985" lon="-1.92299">
        <ele>48.717815</ele>
        <time>2022-12-18T11:56:40.626Z</time>
      </trkpt>
      <trkpt lat="46.67976" lon="-1.92287">
        <ele>48.627536</ele>
        <time>2022-12-18T11:56:43.603Z</time>
      </trkpt>
      <trkpt lat="46.67966" lon="-1.92276">
        <ele>48.538019</ele>
        <time>2022-12-18T11:56:46.621Z</time>
      </trkpt>
      <trkpt lat="46.67956" lon="-1.92265">
        <ele>48.448556</ele>
        <time>2022-12-18T11:56:49.601Z</time>
      </trkpt>
      <trkpt lat="46.67947" lon="-1.92256">
        <ele>48.367306</ele>
        <time>2022-12-18T11:56:52.607Z</time>
      </trkpt>
      <trkpt lat="46.67938" lon="-1.92247">
        <ele>48.288582</ele>
        <time>2022-12-18T11:56:55.615Z</time>
      </trkpt>
      <trkpt lat="46.67928" lon="-1.92238">
        <ele>48.200894</ele>
        <time>2022-12-18T11:56:58.604Z</time>
      </trkpt>
      <trkpt lat="46.67918" lon="-1.9223">
        <ele>48.11833</ele>
        <time>2022-12-18T11:57:01.618Z</time>
      </trkpt>
      <trkpt lat="46.67909" lon="-1.92226">
        <ele>48.049424</ele>
        <time>2022-12-18T11:57:04.601Z</time>
      </trkpt>
      <trkpt lat="46.679" lon="-1.92222">
        <ele>47.981269</ele>
        <time>2022-12-18T11:57:07.601Z</time>
      </trkpt>
      <trkpt lat="46.67889" lon="-1.92216">
        <ele>47.898062</ele>
        <time>2022-12-18T11:57:10.602Z</time>
      </trkpt>
      <trkpt lat="46.67879" lon="-1.92207">
        <ele>47.810012</ele>
        <time>2022-12-18T11:57:13.619Z</time>
      </trkpt>
      <trkpt lat="46.67868" lon="-1.92201">
        <ele>47.726811</ele>
        <time>2022-12-18T11:57:16.620Z</time>
      </trkpt>
      <trkpt lat="46.6786" lon="-1.92191">
        <ele>47.648398</ele>
        <time>2022-12-18T11:57:19.620Z</time>
      </trkpt>
      <trkpt lat="46.67852" lon="-1.92179">
        <ele>47.569435</ele>
        <time>2022-12-18T11:57:22.610Z</time>
      </trkpt>
      <trkpt lat="46.67844" lon="-1.92167">
        <ele>47.481222</ele>
        <time>2022-12-18T11:57:25.607Z</time>
      </trkpt>
      <trkpt lat="46.67838" lon="-1.9215">
        <ele>47.460966</ele>
        <time>2022-12-18T11:57:28.608Z</time>
      </trkpt>
      <trkpt lat="46.67833" lon="-1.92133">
        <ele>47.541728</ele>
        <time>2022-12-18T11:57:31.613Z</time>
      </trkpt>
      <trkpt lat="46.67831" lon="-1.92115">
        <ele>47.620854</ele>
        <time>2022-12-18T11:57:34.598Z</time>
      </trkpt>
      <trkpt lat="46.67827" lon="-1.92099">
        <ele>47.695433</ele>
        <time>2022-12-18T11:57:37.614Z</time>
      </trkpt>
      <trkpt lat="46.67824" lon="-1.92083">
        <ele>47.765254</ele>
        <time>2022-12-18T11:57:40.624Z</time>
      </trkpt>
      <trkpt lat="46.6782" lon="-1.9207">
        <ele>47.828819</ele>
        <time>2022-12-18T11:57:43.625Z</time>
      </trkpt>
      <trkpt lat="46.67815" lon="-1.92056">
        <ele>47.897021</ele>
        <time>2022-12-18T11:57:46.626Z</time>
      </trkpt>
      <trkpt lat="46.67809" lon="-1.92044">
        <ele>47.96204</ele>
        <time>2022-12-18T11:57:49.621Z</time>
      </trkpt>
      <trkpt lat="46.67802" lon="-1.92031">
        <ele>48.035449</ele>
        <time>2022-12-18T11:57:53.596Z</time>
      </trkpt>
      <trkpt lat="46.67796" lon="-1.92021">
        <ele>48.09502</ele>
        <time>2022-12-18T11:57:56.614Z</time>
      </trkpt>
      <trkpt lat="46.67789" lon="-1.9201">
        <ele>48.158796</ele>
        <time>2022-12-18T11:57:59.599Z</time>
      </trkpt>
      <trkpt lat="46.67782" lon="-1.91999">
        <ele>48.224838</ele>
        <time>2022-12-18T11:58:02.625Z</time>
      </trkpt>
      <trkpt lat="46.67775" lon="-1.91988">
        <ele>48.290559</ele>
        <time>2022-12-18T11:58:05.599Z</time>
      </trkpt>
      <trkpt lat="46.67767" lon="-1.91976">
        <ele>48.358607</ele>
        <time>2022-12-18T11:58:08.621Z</time>
      </trkpt>
      <trkpt lat="46.6776" lon="-1.91965">
        <ele>48.426027</ele>
        <time>2022-12-18T11:58:11.609Z</time>
      </trkpt>
      <trkpt lat="46.67754" lon="-1.91955">
        <ele>48.484887</ele>
        <time>2022-12-18T11:58:14.623Z</time>
      </trkpt>
      <trkpt lat="46.67748" lon="-1.91945">
        <ele>48.543746</ele>
        <time>2022-12-18T11:58:17.603Z</time>
      </trkpt>
      <trkpt lat="46.67742" lon="-1.91935">
        <ele>48.540366</ele>
        <time>2022-12-18T11:58:20.601Z</time>
      </trkpt>
      <trkpt lat="46.67735" lon="-1.91924">
        <ele>48.489439</ele>
        <time>2022-12-18T11:58:23.601Z</time>
      </trkpt>
      <trkpt lat="46.67729" lon="-1.91912">
        <ele>48.436616</ele>
        <time>2022-12-18T11:58:26.627Z</time>
      </trkpt>
      <trkpt lat="46.67723" lon="-1.919">
        <ele>48.379713</ele>
        <time>2022-12-18T11:58:29.630Z</time>
      </trkpt>
      <trkpt lat="46.67716" lon="-1.9189">
        <ele>48.326748</ele>
        <time>2022-12-18T11:58:32.614Z</time>
      </trkpt>
      <trkpt lat="46.6771" lon="-1.91879">
        <ele>48.27436</ele>
        <time>2022-12-18T11:58:35.613Z</time>
      </trkpt>
      <trkpt lat="46.67704" lon="-1.91868">
        <ele>48.225301</ele>
        <time>2022-12-18T11:58:38.617Z</time>
      </trkpt>
      <trkpt lat="46.67697" lon="-1.91858">
        <ele>48.173125</ele>
        <time>2022-12-18T11:58:41.603Z</time>
      </trkpt>
      <trkpt lat="46.67691" lon="-1.91847">
        <ele>48.120793</ele>
        <time>2022-12-18T11:58:44.601Z</time>
      </trkpt>
      <trkpt lat="46.67685" lon="-1.91836">
        <ele>48.071735</ele>
        <time>2022-12-18T11:58:47.599Z</time>
      </trkpt>
      <trkpt lat="46.67678" lon="-1.91824">
        <ele>48.011648</ele>
        <time>2022-12-18T11:58:51.604Z</time>
      </trkpt>
      <trkpt lat="46.67672" lon="-1.91812">
        <ele>47.960996</ele>
        <time>2022-12-18T11:58:55.609Z</time>
      </trkpt>
      <trkpt lat="46.67669" lon="-1.91798">
        <ele>47.904245</ele>
        <time>2022-12-18T11:59:01.601Z</time>
      </trkpt>
      <trkpt lat="46.67674" lon="-1.91785">
        <ele>47.851291</ele>
        <time>2022-12-18T11:59:06.601Z</time>
      </trkpt>
      <trkpt lat="46.67682" lon="-1.91781">
        <ele>47.802958</ele>
        <time>2022-12-18T11:59:10.598Z</time>
      </trkpt>
      <trkpt lat="46.67692" lon="-1.91776">
        <ele>47.74862</ele>
        <time>2022-12-18T11:59:15.628Z</time>
      </trkpt>
      <trkpt lat="46.67702" lon="-1.91771">
        <ele>47.692009</ele>
        <time>2022-12-18T11:59:21.614Z</time>
      </trkpt>
      <trkpt lat="46.6771" lon="-1.91764">
        <ele>47.642441</ele>
        <time>2022-12-18T11:59:26.605Z</time>
      </trkpt>
      <trkpt lat="46.67718" lon="-1.91758">
        <ele>47.676764</ele>
        <time>2022-12-18T11:59:32.629Z</time>
      </trkpt>
      <trkpt lat="46.67727" lon="-1.91752">
        <ele>47.851987</ele>
        <time>2022-12-18T11:59:42.621Z</time>
      </trkpt>
      <trkpt lat="46.67734" lon="-1.91745">
        <ele>48.027051</ele>
        <time>2022-12-18T11:59:58.627Z</time>
      </trkpt>
      <trkpt lat="46.67741" lon="-1.91736">
        <ele>48.197629</ele>
        <time>2022-12-18T12:00:09.612Z</time>
      </trkpt>
      <trkpt lat="46.67748" lon="-1.91728">
        <ele>48.368408</ele>
        <time>2022-12-18T12:00:23.670Z</time>
      </trkpt>
      <trkpt lat="46.67755" lon="-1.91719">
        <ele>48.550265</ele>
        <time>2022-12-18T12:00:29.604Z</time>
      </trkpt>
      <trkpt lat="46.67763" lon="-1.9171">
        <ele>48.736032</ele>
        <time>2022-12-18T12:00:34.602Z</time>
      </trkpt>
      <trkpt lat="46.6777" lon="-1.917">
        <ele>48.91962</ele>
        <time>2022-12-18T12:00:42.627Z</time>
      </trkpt>
      <trkpt lat="46.67777" lon="-1.91692">
        <ele>49.090197</ele>
        <time>2022-12-18T12:00:53.616Z</time>
      </trkpt>
      <trkpt lat="46.67785" lon="-1.91684">
        <ele>49.27443</ele>
        <time>2022-12-18T12:01:04.615Z</time>
      </trkpt>
      <trkpt lat="46.67792" lon="-1.91675">
        <ele>49.451451</ele>
        <time>2022-12-18T12:01:14.609Z</time>
      </trkpt>
      <trkpt lat="46.678" lon="-1.91666">
        <ele>49.631839</ele>
        <time>2022-12-18T12:01:24.610Z</time>
      </trkpt>
      <trkpt lat="46.67807" lon="-1.91658">
        <ele>49.811557</ele>
        <time>2022-12-18T12:01:35.603Z</time>
      </trkpt>
      <trkpt lat="46.67814" lon="-1.91649">
        <ele>49.984872</ele>
        <time>2022-12-18T12:01:46.626Z</time>
      </trkpt>
      <trkpt lat="46.67822" lon="-1.91641">
        <ele>50.168959</ele>
        <time>2022-12-18T12:01:57.630Z</time>
      </trkpt>
      <trkpt lat="46.67829" lon="-1.91632">
        <ele>50.345406</ele>
        <time>2022-12-18T12:02:08.615Z</time>
      </trkpt>
      <trkpt lat="46.67836" lon="-1.91622">
        <ele>50.52218</ele>
        <time>2022-12-18T12:02:20.606Z</time>
      </trkpt>
      <trkpt lat="46.67843" lon="-1.91613">
        <ele>50.707022</ele>
        <time>2022-12-18T12:02:31.628Z</time>
      </trkpt>
      <trkpt lat="46.6785" lon="-1.91602">
        <ele>50.894284</ele>
        <time>2022-12-18T12:02:42.628Z</time>
      </trkpt>
      <trkpt lat="46.67857" lon="-1.91592">
        <ele>51.026238</ele>
        <time>2022-12-18T12:02:53.618Z</time>
      </trkpt>
      <trkpt lat="46.67856" lon="-1.91578">
        <ele>51.066562</ele>
        <time>2022-12-18T12:03:06.605Z</time>
      </trkpt>
      <trkpt lat="46.67848" lon="-1.91569">
        <ele>51.10824</ele>
        <time>2022-12-18T12:03:10.622Z</time>
      </trkpt>
      <trkpt lat="46.67839" lon="-1.91558">
        <ele>51.155136</ele>
        <time>2022-12-18T12:03:14.601Z</time>
      </trkpt>
      <trkpt lat="46.67833" lon="-1.91549">
        <ele>51.193074</ele>
        <time>2022-12-18T12:03:17.605Z</time>
      </trkpt>
      <trkpt lat="46.67826" lon="-1.9154">
        <ele>51.233318</ele>
        <time>2022-12-18T12:03:20.624Z</time>
      </trkpt>
      <trkpt lat="46.67819" lon="-1.91529">
        <ele>51.275846</ele>
        <time>2022-12-18T12:03:23.627Z</time>
      </trkpt>
      <trkpt lat="46.67811" lon="-1.91519">
        <ele>51.319987</ele>
        <time>2022-12-18T12:03:26.627Z</time>
      </trkpt>
      <trkpt lat="46.67803" lon="-1.91508">
        <ele>51.364121</ele>
        <time>2022-12-18T12:03:29.601Z</time>
      </trkpt>
      <trkpt lat="46.67796" lon="-1.91497">
        <ele>51.408242</ele>
        <time>2022-12-18T12:03:32.613Z</time>
      </trkpt>
      <trkpt lat="46.67788" lon="-1.91487">
        <ele>51.45177</ele>
        <time>2022-12-18T12:03:35.615Z</time>
      </trkpt>
      <trkpt lat="46.67781" lon="-1.91476">
        <ele>51.494194</ele>
        <time>2022-12-18T12:03:38.697Z</time>
      </trkpt>
      <trkpt lat="46.67774" lon="-1.91466">
        <ele>51.536723</ele>
        <time>2022-12-18T12:03:41.621Z</time>
      </trkpt>
      <trkpt lat="46.67766" lon="-1.91455">
        <ele>51.581043</ele>
        <time>2022-12-18T12:03:44.604Z</time>
      </trkpt>
      <trkpt lat="46.67758" lon="-1.91444">
        <ele>51.627384</ele>
        <time>2022-12-18T12:03:47.610Z</time>
      </trkpt>
      <trkpt lat="46.6775" lon="-1.91433">
        <ele>51.675004</ele>
        <time>2022-12-18T12:03:50.606Z</time>
      </trkpt>
      <trkpt lat="46.67741" lon="-1.91421">
        <ele>51.72252</ele>
        <time>2022-12-18T12:03:53.623Z</time>
      </trkpt>
      <trkpt lat="46.67733" lon="-1.91409">
        <ele>51.729777</ele>
        <time>2022-12-18T12:03:56.598Z</time>
      </trkpt>
      <trkpt lat="46.67725" lon="-1.91398">
        <ele>51.550127</ele>
        <time>2022-12-18T12:03:59.616Z</time>
      </trkpt>
      <trkpt lat="46.67717" lon="-1.91386">
        <ele>51.36167</ele>
        <time>2022-12-18T12:04:02.629Z</time>
      </trkpt>
      <trkpt lat="46.67708" lon="-1.91374">
        <ele>51.166662</ele>
        <time>2022-12-18T12:04:05.623Z</time>
      </trkpt>
      <trkpt lat="46.67699" lon="-1.91361">
        <ele>50.974317</ele>
        <time>2022-12-18T12:04:08.622Z</time>
      </trkpt>
      <trkpt lat="46.6769" lon="-1.91349">
        <ele>50.775767</ele>
        <time>2022-12-18T12:04:11.629Z</time>
      </trkpt>
      <trkpt lat="46.67681" lon="-1.91337">
        <ele>50.576969</ele>
        <time>2022-12-18T12:04:14.629Z</time>
      </trkpt>
      <trkpt lat="46.67673" lon="-1.91324">
        <ele>50.390339</ele>
        <time>2022-12-18T12:04:17.625Z</time>
      </trkpt>
      <trkpt lat="46.67665" lon="-1.91312">
        <ele>50.200733</ele>
        <time>2022-12-18T12:04:20.619Z</time>
      </trkpt>
      <trkpt lat="46.67656" lon="-1.913">
        <ele>49.999958</ele>
        <time>2022-12-18T12:04:23.628Z</time>
      </trkpt>
      <trkpt lat="46.67647" lon="-1.91287">
        <ele>49.797709</ele>
        <time>2022-12-18T12:04:26.610Z</time>
      </trkpt>
      <trkpt lat="46.67638" lon="-1.91275">
        <ele>49.610744</ele>
        <time>2022-12-18T12:04:29.623Z</time>
      </trkpt>
      <trkpt lat="46.6763" lon="-1.91264">
        <ele>49.435588</ele>
        <time>2022-12-18T12:04:32.626Z</time>
      </trkpt>
      <trkpt lat="46.67623" lon="-1.91254">
        <ele>49.276235</ele>
        <time>2022-12-18T12:04:35.595Z</time>
      </trkpt>
      <trkpt lat="46.67616" lon="-1.91244">
        <ele>49.109992</ele>
        <time>2022-12-18T12:04:38.602Z</time>
      </trkpt>
      <trkpt lat="46.67608" lon="-1.91233">
        <ele>48.937238</ele>
        <time>2022-12-18T12:04:41.623Z</time>
      </trkpt>
      <trkpt lat="46.676" lon="-1.91221">
        <ele>48.812457</ele>
        <time>2022-12-18T12:04:44.627Z</time>
      </trkpt>
      <trkpt lat="46.67592" lon="-1.9121">
        <ele>48.712489</ele>
        <time>2022-12-18T12:04:47.600Z</time>
      </trkpt>
      <trkpt lat="46.67584" lon="-1.91199">
        <ele>48.615582</ele>
        <time>2022-12-18T12:04:50.635Z</time>
      </trkpt>
      <trkpt lat="46.67577" lon="-1.91188">
        <ele>48.521937</ele>
        <time>2022-12-18T12:04:53.605Z</time>
      </trkpt>
      <trkpt lat="46.67569" lon="-1.91177">
        <ele>48.42853</ele>
        <time>2022-12-18T12:04:56.608Z</time>
      </trkpt>
      <trkpt lat="46.67561" lon="-1.91166">
        <ele>48.331475</ele>
        <time>2022-12-18T12:04:59.626Z</time>
      </trkpt>
      <trkpt lat="46.67553" lon="-1.91155">
        <ele>48.233097</ele>
        <time>2022-12-18T12:05:02.614Z</time>
      </trkpt>
      <trkpt lat="46.67545" lon="-1.91144">
        <ele>48.13226</ele>
        <time>2022-12-18T12:05:05.605Z</time>
      </trkpt>
      <trkpt lat="46.67536" lon="-1.91132">
        <ele>48.025683</ele>
        <time>2022-12-18T12:05:08.624Z</time>
      </trkpt>
      <trkpt lat="46.67527" lon="-1.9112">
        <ele>47.917855</ele>
        <time>2022-12-18T12:05:11.622Z</time>
      </trkpt>
      <trkpt lat="46.67518" lon="-1.91108">
        <ele>47.809382</ele>
        <time>2022-12-18T12:05:14.695Z</time>
      </trkpt>
      <trkpt lat="46.6751" lon="-1.91095">
        <ele>47.700688</ele>
        <time>2022-12-18T12:05:17.611Z</time>
      </trkpt>
      <trkpt lat="46.675" lon="-1.91082">
        <ele>47.58606</ele>
        <time>2022-12-18T12:05:20.628Z</time>
      </trkpt>
      <trkpt lat="46.67491" lon="-1.91069">
        <ele>47.469721</ele>
        <time>2022-12-18T12:05:23.614Z</time>
      </trkpt>
      <trkpt lat="46.67482" lon="-1.91055">
        <ele>47.35447</ele>
        <time>2022-12-18T12:05:26.628Z</time>
      </trkpt>
      <trkpt lat="46.67473" lon="-1.91042">
        <ele>47.232003</ele>
        <time>2022-12-18T12:05:29.613Z</time>
      </trkpt>
      <trkpt lat="46.67463" lon="-1.9103">
        <ele>47.104849</ele>
        <time>2022-12-18T12:05:32.625Z</time>
      </trkpt>
      <trkpt lat="46.67456" lon="-1.91018">
        <ele>46.986909</ele>
        <time>2022-12-18T12:05:35.671Z</time>
      </trkpt>
      <trkpt lat="46.67449" lon="-1.91005">
        <ele>46.869438</ele>
        <time>2022-12-18T12:05:38.603Z</time>
      </trkpt>
      <trkpt lat="46.67442" lon="-1.90992">
        <ele>46.748451</ele>
        <time>2022-12-18T12:05:41.599Z</time>
      </trkpt>
      <trkpt lat="46.67434" lon="-1.90979">
        <ele>46.627844</ele>
        <time>2022-12-18T12:05:44.611Z</time>
      </trkpt>
      <trkpt lat="46.67426" lon="-1.90969">
        <ele>46.511206</ele>
        <time>2022-12-18T12:05:47.620Z</time>
      </trkpt>
      <trkpt lat="46.67419" lon="-1.90958">
        <ele>46.398569</ele>
        <time>2022-12-18T12:05:50.599Z</time>
      </trkpt>
      <trkpt lat="46.67412" lon="-1.90944">
        <ele>46.277627</ele>
        <time>2022-12-18T12:05:53.628Z</time>
      </trkpt>
      <trkpt lat="46.67404" lon="-1.90931">
        <ele>46.15661</ele>
        <time>2022-12-18T12:05:56.603Z</time>
      </trkpt>
      <trkpt lat="46.67396" lon="-1.9092">
        <ele>46.037314</ele>
        <time>2022-12-18T12:05:59.625Z</time>
      </trkpt>
      <trkpt lat="46.67387" lon="-1.9091">
        <ele>45.918676</ele>
        <time>2022-12-18T12:06:02.612Z</time>
      </trkpt>
      <trkpt lat="46.67378" lon="-1.90899">
        <ele>45.797944</ele>
        <time>2022-12-18T12:06:05.606Z</time>
      </trkpt>
      <trkpt lat="46.67369" lon="-1.90888">
        <ele>45.673138</ele>
        <time>2022-12-18T12:06:08.607Z</time>
      </trkpt>
      <trkpt lat="46.6736" lon="-1.90877">
        <ele>45.549354</ele>
        <time>2022-12-18T12:06:11.617Z</time>
      </trkpt>
      <trkpt lat="46.6735" lon="-1.90866">
        <ele>45.42294</ele>
        <time>2022-12-18T12:06:14.625Z</time>
      </trkpt>
      <trkpt lat="46.67341" lon="-1.90855">
        <ele>45.580888</ele>
        <time>2022-12-18T12:06:17.611Z</time>
      </trkpt>
      <trkpt lat="46.67333" lon="-1.90844">
        <ele>45.8027</ele>
        <time>2022-12-18T12:06:20.615Z</time>
      </trkpt>
      <trkpt lat="46.67324" lon="-1.90833">
        <ele>46.027473</ele>
        <time>2022-12-18T12:06:23.675Z</time>
      </trkpt>
      <trkpt lat="46.67316" lon="-1.90821">
        <ele>46.257729</ele>
        <time>2022-12-18T12:06:26.628Z</time>
      </trkpt>
      <trkpt lat="46.67306" lon="-1.90808">
        <ele>46.499059</ele>
        <time>2022-12-18T12:06:29.611Z</time>
      </trkpt>
      <trkpt lat="46.67298" lon="-1.90796">
        <ele>46.733876</ele>
        <time>2022-12-18T12:06:32.602Z</time>
      </trkpt>
      <trkpt lat="46.67289" lon="-1.90784">
        <ele>46.953035</ele>
        <time>2022-12-18T12:06:35.606Z</time>
      </trkpt>
      <trkpt lat="46.67282" lon="-1.90773">
        <ele>47.150315</ele>
        <time>2022-12-18T12:06:38.629Z</time>
      </trkpt>
      <trkpt lat="46.67276" lon="-1.90764">
        <ele>47.330811</ele>
        <time>2022-12-18T12:06:41.600Z</time>
      </trkpt>
      <trkpt lat="46.67269" lon="-1.90755">
        <ele>47.506232</ele>
        <time>2022-12-18T12:06:44.625Z</time>
      </trkpt>
      <trkpt lat="46.67262" lon="-1.90745">
        <ele>47.688107</ele>
        <time>2022-12-18T12:06:47.624Z</time>
      </trkpt>
      <trkpt lat="46.67255" lon="-1.90736">
        <ele>47.871646</ele>
        <time>2022-12-18T12:06:50.634Z</time>
      </trkpt>
      <trkpt lat="46.67248" lon="-1.90726">
        <ele>48.065637</ele>
        <time>2022-12-18T12:06:53.613Z</time>
      </trkpt>
      <trkpt lat="46.6724" lon="-1.90716">
        <ele>48.258198</ele>
        <time>2022-12-18T12:06:56.621Z</time>
      </trkpt>
      <trkpt lat="46.67233" lon="-1.90707">
        <ele>48.446524</ele>
        <time>2022-12-18T12:06:59.616Z</time>
      </trkpt>
      <trkpt lat="46.67226" lon="-1.90696">
        <ele>48.635402</ele>
        <time>2022-12-18T12:07:02.606Z</time>
      </trkpt>
      <trkpt lat="46.67219" lon="-1.90687">
        <ele>48.822822</ele>
        <time>2022-12-18T12:07:05.627Z</time>
      </trkpt>
      <trkpt lat="46.67211" lon="-1.90677">
        <ele>49.001326</ele>
        <time>2022-12-18T12:07:08.630Z</time>
      </trkpt>
      <trkpt lat="46.67205" lon="-1.90667">
        <ele>49.155548</ele>
        <time>2022-12-18T12:07:11.626Z</time>
      </trkpt>
      <trkpt lat="46.67198" lon="-1.90658">
        <ele>49.311426</ele>
        <time>2022-12-18T12:07:14.605Z</time>
      </trkpt>
      <trkpt lat="46.67191" lon="-1.90648">
        <ele>49.471638</ele>
        <time>2022-12-18T12:07:17.629Z</time>
      </trkpt>
      <trkpt lat="46.67183" lon="-1.90639">
        <ele>49.644557</ele>
        <time>2022-12-18T12:07:20.625Z</time>
      </trkpt>
      <trkpt lat="46.67175" lon="-1.90628">
        <ele>49.821236</ele>
        <time>2022-12-18T12:07:23.622Z</time>
      </trkpt>
      <trkpt lat="46.67169" lon="-1.90618">
        <ele>49.978803</ele>
        <time>2022-12-18T12:07:26.630Z</time>
      </trkpt>
      <trkpt lat="46.67162" lon="-1.90609">
        <ele>50.129444</ele>
        <time>2022-12-18T12:07:29.627Z</time>
      </trkpt>
      <trkpt lat="46.67156" lon="-1.90599">
        <ele>50.286052</ele>
        <time>2022-12-18T12:07:32.670Z</time>
      </trkpt>
      <trkpt lat="46.67149" lon="-1.9059">
        <ele>50.43993</ele>
        <time>2022-12-18T12:07:35.623Z</time>
      </trkpt>
      <trkpt lat="46.67143" lon="-1.90579">
        <ele>50.600978</ele>
        <time>2022-12-18T12:07:38.614Z</time>
      </trkpt>
      <trkpt lat="46.67136" lon="-1.90569">
        <ele>50.770395</ele>
        <time>2022-12-18T12:07:41.618Z</time>
      </trkpt>
      <trkpt lat="46.67129" lon="-1.90558">
        <ele>50.936569</ele>
        <time>2022-12-18T12:07:44.617Z</time>
      </trkpt>
      <trkpt lat="46.6712" lon="-1.90548">
        <ele>51.114998</ele>
        <time>2022-12-18T12:07:47.630Z</time>
      </trkpt>
      <trkpt lat="46.67112" lon="-1.90537">
        <ele>51.304316</ele>
        <time>2022-12-18T12:07:50.634Z</time>
      </trkpt>
      <trkpt lat="46.67104" lon="-1.90525">
        <ele>51.491709</ele>
        <time>2022-12-18T12:07:53.605Z</time>
      </trkpt>
      <trkpt lat="46.67096" lon="-1.90514">
        <ele>51.673162</ele>
        <time>2022-12-18T12:07:56.624Z</time>
      </trkpt>
      <trkpt lat="46.67088" lon="-1.90504">
        <ele>51.857384</ele>
        <time>2022-12-18T12:07:59.610Z</time>
      </trkpt>
      <trkpt lat="46.6708" lon="-1.90493">
        <ele>51.757199</ele>
        <time>2022-12-18T12:08:02.630Z</time>
      </trkpt>
      <trkpt lat="46.67072" lon="-1.90484">
        <ele>51.655745</ele>
        <time>2022-12-18T12:08:05.623Z</time>
      </trkpt>
      <trkpt lat="46.67066" lon="-1.90474">
        <ele>51.564947</ele>
        <time>2022-12-18T12:08:08.609Z</time>
      </trkpt>
      <trkpt lat="46.67058" lon="-1.90464">
        <ele>51.453288</ele>
        <time>2022-12-18T12:08:12.627Z</time>
      </trkpt>
      <trkpt lat="46.67049" lon="-1.90458">
        <ele>51.355541</ele>
        <time>2022-12-18T12:08:18.630Z</time>
      </trkpt>
      <trkpt lat="46.67039" lon="-1.90451">
        <ele>51.249736</ele>
        <time>2022-12-18T12:08:23.609Z</time>
      </trkpt>
      <trkpt lat="46.67032" lon="-1.90441">
        <ele>51.15412</ele>
        <time>2022-12-18T12:08:26.604Z</time>
      </trkpt>
      <trkpt lat="46.67025" lon="-1.90431">
        <ele>51.05472</ele>
        <time>2022-12-18T12:08:29.635Z</time>
      </trkpt>
      <trkpt lat="46.67018" lon="-1.90421">
        <ele>50.956297</ele>
        <time>2022-12-18T12:08:32.602Z</time>
      </trkpt>
      <trkpt lat="46.67011" lon="-1.90412">
        <ele>50.862612</ele>
        <time>2022-12-18T12:08:35.625Z</time>
      </trkpt>
      <trkpt lat="46.67003" lon="-1.90402">
        <ele>50.753805</ele>
        <time>2022-12-18T12:08:38.623Z</time>
      </trkpt>
      <trkpt lat="46.66994" lon="-1.90391">
        <ele>50.644694</ele>
        <time>2022-12-18T12:08:41.626Z</time>
      </trkpt>
      <trkpt lat="46.66986" lon="-1.90381">
        <ele>50.538213</ele>
        <time>2022-12-18T12:08:44.618Z</time>
      </trkpt>
      <trkpt lat="46.66977" lon="-1.90375">
        <ele>50.438361</ele>
        <time>2022-12-18T12:08:47.614Z</time>
      </trkpt>
      <trkpt lat="46.66968" lon="-1.90369">
        <ele>50.335155</ele>
        <time>2022-12-18T12:08:50.607Z</time>
      </trkpt>
      <trkpt lat="46.66964" lon="-1.90355">
        <ele>50.231805</ele>
        <time>2022-12-18T12:08:54.608Z</time>
      </trkpt>
      <trkpt lat="46.66963" lon="-1.90339">
        <ele>50.127034</ele>
        <time>2022-12-18T12:08:58.613Z</time>
      </trkpt>
      <trkpt lat="46.66957" lon="-1.90325">
        <ele>50.068124</ele>
        <time>2022-12-18T12:09:02.614Z</time>
      </trkpt>
      <trkpt lat="46.66951" lon="-1.90314">
        <ele>50.068892</ele>
        <time>2022-12-18T12:09:05.602Z</time>
      </trkpt>
      <trkpt lat="46.66943" lon="-1.90304">
        <ele>50.069735</ele>
        <time>2022-12-18T12:09:08.611Z</time>
      </trkpt>
      <trkpt lat="46.66934" lon="-1.90295">
        <ele>50.070608</ele>
        <time>2022-12-18T12:09:11.612Z</time>
      </trkpt>
      <trkpt lat="46.66923" lon="-1.90286">
        <ele>50.071593</ele>
        <time>2022-12-18T12:09:14.673Z</time>
      </trkpt>
      <trkpt lat="46.66912" lon="-1.90277">
        <ele>50.072584</ele>
        <time>2022-12-18T12:09:17.604Z</time>
      </trkpt>
      <trkpt lat="46.669" lon="-1.90268">
        <ele>50.073637</ele>
        <time>2022-12-18T12:09:20.604Z</time>
      </trkpt>
      <trkpt lat="46.66892" lon="-1.90263">
        <ele>50.074362</ele>
        <time>2022-12-18T12:09:22.617Z</time>
      </trkpt>
      <trkpt lat="46.66884" lon="-1.90257">
        <ele>50.075085</ele>
        <time>2022-12-18T12:09:24.631Z</time>
      </trkpt>
      <trkpt lat="46.66875" lon="-1.90253">
        <ele>50.075818</ele>
        <time>2022-12-18T12:09:26.630Z</time>
      </trkpt>
      <trkpt lat="46.66863" lon="-1.90247">
        <ele>50.076852</ele>
        <time>2022-12-18T12:09:29.616Z</time>
      </trkpt>
      <trkpt lat="46.6685" lon="-1.90241">
        <ele>50.077909</ele>
        <time>2022-12-18T12:09:32.613Z</time>
      </trkpt>
      <trkpt lat="46.66837" lon="-1.90236">
        <ele>50.078934</ele>
        <time>2022-12-18T12:09:35.613Z</time>
      </trkpt>
      <trkpt lat="46.66825" lon="-1.90233">
        <ele>50.079951</ele>
        <time>2022-12-18T12:09:38.620Z</time>
      </trkpt>
      <trkpt lat="46.66812" lon="-1.90231">
        <ele>50.080969</ele>
        <time>2022-12-18T12:09:41.620Z</time>
      </trkpt>
      <trkpt lat="46.668" lon="-1.90228">
        <ele>50.08055</ele>
        <time>2022-12-18T12:09:44.629Z</time>
      </trkpt>
      <trkpt lat="46.66788" lon="-1.90225">
        <ele>50.016997</ele>
        <time>2022-12-18T12:09:47.613Z</time>
      </trkpt>
      <trkpt lat="46.66775" lon="-1.90222">
        <ele>49.951999</ele>
        <time>2022-12-18T12:09:50.609Z</time>
      </trkpt>
      <trkpt lat="46.66764" lon="-1.9022">
        <ele>49.891593</ele>
        <time>2022-12-18T12:09:53.611Z</time>
      </trkpt>
      <trkpt lat="46.66753" lon="-1.90217">
        <ele>49.833711</ele>
        <time>2022-12-18T12:09:56.606Z</time>
      </trkpt>
      <trkpt lat="46.66742" lon="-1.90214">
        <ele>49.776025</ele>
        <time>2022-12-18T12:09:59.618Z</time>
      </trkpt>
      <trkpt lat="46.66731" lon="-1.90212">
        <ele>49.718974</ele>
        <time>2022-12-18T12:10:02.596Z</time>
      </trkpt>
      <trkpt lat="46.6672" lon="-1.9021">
        <ele>49.660119</ele>
        <time>2022-12-18T12:10:05.627Z</time>
      </trkpt>
      <trkpt lat="46.66709" lon="-1.90207">
        <ele>49.599678</ele>
        <time>2022-12-18T12:10:08.627Z</time>
      </trkpt>
      <trkpt lat="46.66697" lon="-1.90203">
        <ele>49.539681</ele>
        <time>2022-12-18T12:10:11.627Z</time>
      </trkpt>
      <trkpt lat="46.66685" lon="-1.902">
        <ele>49.475136</ele>
        <time>2022-12-18T12:10:14.629Z</time>
      </trkpt>
      <trkpt lat="46.66673" lon="-1.90198">
        <ele>49.411337</ele>
        <time>2022-12-18T12:10:17.634Z</time>
      </trkpt>
      <trkpt lat="46.66661" lon="-1.90194">
        <ele>49.347756</ele>
        <time>2022-12-18T12:10:20.616Z</time>
      </trkpt>
      <trkpt lat="46.66649" lon="-1.90191">
        <ele>49.283844</ele>
        <time>2022-12-18T12:10:23.628Z</time>
      </trkpt>
      <trkpt lat="46.66637" lon="-1.90188">
        <ele>49.219618</ele>
        <time>2022-12-18T12:10:26.628Z</time>
      </trkpt>
      <trkpt lat="46.66624" lon="-1.90185">
        <ele>49.154325</ele>
        <time>2022-12-18T12:10:29.627Z</time>
      </trkpt>
      <trkpt lat="46.66612" lon="-1.90182">
        <ele>49.087985</ele>
        <time>2022-12-18T12:10:32.625Z</time>
      </trkpt>
      <trkpt lat="46.666" lon="-1.9018">
        <ele>49.021061</ele>
        <time>2022-12-18T12:10:35.621Z</time>
      </trkpt>
      <trkpt lat="46.66587" lon="-1.90177">
        <ele>48.951608</ele>
        <time>2022-12-18T12:10:38.628Z</time>
      </trkpt>
      <trkpt lat="46.66575" lon="-1.90174">
        <ele>48.88706</ele>
        <time>2022-12-18T12:10:41.631Z</time>
      </trkpt>
      <trkpt lat="46.66562" lon="-1.90171">
        <ele>48.81533</ele>
        <time>2022-12-18T12:10:44.627Z</time>
      </trkpt>
      <trkpt lat="46.66549" lon="-1.90167">
        <ele>48.741469</ele>
        <time>2022-12-18T12:10:47.629Z</time>
      </trkpt>
      <trkpt lat="46.6654" lon="-1.90165">
        <ele>48.69276</ele>
        <time>2022-12-18T12:10:49.631Z</time>
      </trkpt>
      <trkpt lat="46.66531" lon="-1.90162">
        <ele>48.643917</ele>
        <time>2022-12-18T12:10:51.611Z</time>
      </trkpt>
      <trkpt lat="46.66522" lon="-1.9016">
        <ele>48.592358</ele>
        <time>2022-12-18T12:10:53.625Z</time>
      </trkpt>
      <trkpt lat="46.66513" lon="-1.90158">
        <ele>48.543298</ele>
        <time>2022-12-18T12:10:55.631Z</time>
      </trkpt>
      <trkpt lat="46.66503" lon="-1.90156">
        <ele>48.492107</ele>
        <time>2022-12-18T12:10:57.621Z</time>
      </trkpt>
      <trkpt lat="46.66494" lon="-1.90153">
        <ele>48.441675</ele>
        <time>2022-12-18T12:10:59.628Z</time>
      </trkpt>
      <trkpt lat="46.66481" lon="-1.9015">
        <ele>48.372158</ele>
        <time>2022-12-18T12:11:02.626Z</time>
      </trkpt>
      <trkpt lat="46.66468" lon="-1.90147">
        <ele>48.300222</ele>
        <time>2022-12-18T12:11:05.627Z</time>
      </trkpt>
      <trkpt lat="46.66459" lon="-1.90145">
        <ele>48.250097</ele>
        <time>2022-12-18T12:11:07.629Z</time>
      </trkpt>
      <trkpt lat="46.66446" lon="-1.90141">
        <ele>48.178045</ele>
        <time>2022-12-18T12:11:10.622Z</time>
      </trkpt>
      <trkpt lat="46.66436" lon="-1.90139">
        <ele>48.22168</ele>
        <time>2022-12-18T12:11:12.630Z</time>
      </trkpt>
      <trkpt lat="46.66426" lon="-1.90137">
        <ele>48.271448</ele>
        <time>2022-12-18T12:11:14.627Z</time>
      </trkpt>
      <trkpt lat="46.66416" lon="-1.90134">
        <ele>48.324813</ele>
        <time>2022-12-18T12:11:16.631Z</time>
      </trkpt>
      <trkpt lat="46.66406" lon="-1.90132">
        <ele>48.372116</ele>
        <time>2022-12-18T12:11:18.634Z</time>
      </trkpt>
      <trkpt lat="46.66397" lon="-1.9013">
        <ele>48.419579</ele>
        <time>2022-12-18T12:11:20.630Z</time>
      </trkpt>
      <trkpt lat="46.66387" lon="-1.90128">
        <ele>48.467533</ele>
        <time>2022-12-18T12:11:22.627Z</time>
      </trkpt>
      <trkpt lat="46.66374" lon="-1.90124">
        <ele>48.534772</ele>
        <time>2022-12-18T12:11:25.629Z</time>
      </trkpt>
      <trkpt lat="46.66361" lon="-1.90122">
        <ele>48.599174</ele>
        <time>2022-12-18T12:11:28.675Z</time>
      </trkpt>
      <trkpt lat="46.66349" lon="-1.90119">
        <ele>48.66084</ele>
        <time>2022-12-18T12:11:31.625Z</time>
      </trkpt>
      <trkpt lat="46.66338" lon="-1.90116">
        <ele>48.716014</ele>
        <time>2022-12-18T12:11:34.628Z</time>
      </trkpt>
      <trkpt lat="46.66328" lon="-1.90113">
        <ele>48.767898</ele>
        <time>2022-12-18T12:11:37.618Z</time>
      </trkpt>
      <trkpt lat="46.66319" lon="-1.9011">
        <ele>48.814379</ele>
        <time>2022-12-18T12:11:40.626Z</time>
      </trkpt>
      <trkpt lat="46.66307" lon="-1.90107">
        <ele>48.870964</ele>
        <time>2022-12-18T12:11:44.672Z</time>
      </trkpt>
      <trkpt lat="46.66295" lon="-1.90105">
        <ele>48.931534</ele>
        <time>2022-12-18T12:11:48.631Z</time>
      </trkpt>
      <trkpt lat="46.66285" lon="-1.90102">
        <ele>48.984803</ele>
        <time>2022-12-18T12:11:51.636Z</time>
      </trkpt>
      <trkpt lat="46.66273" lon="-1.90099">
        <ele>49.046298</ele>
        <time>2022-12-18T12:11:54.630Z</time>
      </trkpt>
      <trkpt lat="46.66259" lon="-1.90095">
        <ele>49.145243</ele>
        <time>2022-12-18T12:11:57.634Z</time>
      </trkpt>
      <trkpt lat="46.6625" lon="-1.90093">
        <ele>49.227691</ele>
        <time>2022-12-18T12:11:59.623Z</time>
      </trkpt>
      <trkpt lat="46.66241" lon="-1.90088">
        <ele>49.310696</ele>
        <time>2022-12-18T12:12:01.629Z</time>
      </trkpt>
      <trkpt lat="46.66232" lon="-1.90084">
        <ele>49.396717</ele>
        <time>2022-12-18T12:12:03.627Z</time>
      </trkpt>
      <trkpt lat="46.66222" lon="-1.9008">
        <ele>49.481427</ele>
        <time>2022-12-18T12:12:05.627Z</time>
      </trkpt>
      <trkpt lat="46.66213" lon="-1.90074">
        <ele>49.564457</ele>
        <time>2022-12-18T12:12:07.631Z</time>
      </trkpt>
      <trkpt lat="46.66201" lon="-1.90067">
        <ele>49.681962</ele>
        <time>2022-12-18T12:12:10.628Z</time>
      </trkpt>
      <trkpt lat="46.66192" lon="-1.90062">
        <ele>49.76177</ele>
        <time>2022-12-18T12:12:12.633Z</time>
      </trkpt>
      <trkpt lat="46.66183" lon="-1.90057">
        <ele>49.844372</ele>
        <time>2022-12-18T12:12:14.613Z</time>
      </trkpt>
      <trkpt lat="46.66172" lon="-1.9005">
        <ele>49.955439</ele>
        <time>2022-12-18T12:12:17.627Z</time>
      </trkpt>
      <trkpt lat="46.6616" lon="-1.90043">
        <ele>50.066176</ele>
        <time>2022-12-18T12:12:20.628Z</time>
      </trkpt>
      <trkpt lat="46.66149" lon="-1.90036">
        <ele>50.17182</ele>
        <time>2022-12-18T12:12:23.627Z</time>
      </trkpt>
      <trkpt lat="46.66137" lon="-1.90029">
        <ele>50.281523</ele>
        <time>2022-12-18T12:12:26.667Z</time>
      </trkpt>
      <trkpt lat="46.66126" lon="-1.90022">
        <ele>50.386219</ele>
        <time>2022-12-18T12:12:29.623Z</time>
      </trkpt>
      <trkpt lat="46.66116" lon="-1.90015">
        <ele>50.482079</ele>
        <time>2022-12-18T12:12:32.605Z</time>
      </trkpt>
      <trkpt lat="46.66106" lon="-1.9001">
        <ele>50.570793</ele>
        <time>2022-12-18T12:12:35.631Z</time>
      </trkpt>
      <trkpt lat="46.66096" lon="-1.90003">
        <ele>50.653947</ele>
        <time>2022-12-18T12:12:38.631Z</time>
      </trkpt>
      <trkpt lat="46.66085" lon="-1.89996">
        <ele>50.711888</ele>
        <time>2022-12-18T12:12:41.628Z</time>
      </trkpt>
      <trkpt lat="46.66074" lon="-1.89989">
        <ele>50.770692</ele>
        <time>2022-12-18T12:12:44.629Z</time>
      </trkpt>
      <trkpt lat="46.66062" lon="-1.89981">
        <ele>50.833761</ele>
        <time>2022-12-18T12:12:47.603Z</time>
      </trkpt>
      <trkpt lat="46.6605" lon="-1.89974">
        <ele>50.897248</ele>
        <time>2022-12-18T12:12:50.632Z</time>
      </trkpt>
      <trkpt lat="46.6604" lon="-1.89967">
        <ele>50.954655</ele>
        <time>2022-12-18T12:12:53.603Z</time>
      </trkpt>
      <trkpt lat="46.66029" lon="-1.8996">
        <ele>51.01433</ele>
        <time>2022-12-18T12:12:56.629Z</time>
      </trkpt>
      <trkpt lat="46.66018" lon="-1.89952">
        <ele>51.073276</ele>
        <time>2022-12-18T12:12:59.631Z</time>
      </trkpt>
      <trkpt lat="46.66007" lon="-1.89945">
        <ele>51.131334</ele>
        <time>2022-12-18T12:13:02.628Z</time>
      </trkpt>
      <trkpt lat="46.65996" lon="-1.89938">
        <ele>51.191716</ele>
        <time>2022-12-18T12:13:05.604Z</time>
      </trkpt>
      <trkpt lat="46.65985" lon="-1.89931">
        <ele>51.251322</ele>
        <time>2022-12-18T12:13:08.626Z</time>
      </trkpt>
      <trkpt lat="46.65974" lon="-1.89924">
        <ele>51.30796</ele>
        <time>2022-12-18T12:13:11.604Z</time>
      </trkpt>
      <trkpt lat="46.65964" lon="-1.89918">
        <ele>51.360018</ele>
        <time>2022-12-18T12:13:14.667Z</time>
      </trkpt>
      <trkpt lat="46.65954" lon="-1.89912">
        <ele>51.413872</ele>
        <time>2022-12-18T12:13:17.627Z</time>
      </trkpt>
      <trkpt lat="46.65944" lon="-1.89905">
        <ele>51.468717</ele>
        <time>2022-12-18T12:13:20.626Z</time>
      </trkpt>
      <trkpt lat="46.65933" lon="-1.89898">
        <ele>51.508585</ele>
        <time>2022-12-18T12:13:23.605Z</time>
      </trkpt>
      <trkpt lat="46.65922" lon="-1.89892">
        <ele>51.484659</ele>
        <time>2022-12-18T12:13:26.616Z</time>
      </trkpt>
      <trkpt lat="46.6591" lon="-1.89885">
        <ele>51.459177</ele>
        <time>2022-12-18T12:13:29.599Z</time>
      </trkpt>
      <trkpt lat="46.65899" lon="-1.89878">
        <ele>51.434647</ele>
        <time>2022-12-18T12:13:32.627Z</time>
      </trkpt>
      <trkpt lat="46.65889" lon="-1.8987">
        <ele>51.411146</ele>
        <time>2022-12-18T12:13:35.624Z</time>
      </trkpt>
      <trkpt lat="46.65877" lon="-1.89863">
        <ele>51.385677</ele>
        <time>2022-12-18T12:13:38.615Z</time>
      </trkpt>
      <trkpt lat="46.65866" lon="-1.89857">
        <ele>51.36146</ele>
        <time>2022-12-18T12:13:41.660Z</time>
      </trkpt>
      <trkpt lat="46.65855" lon="-1.89849">
        <ele>51.337285</ele>
        <time>2022-12-18T12:13:44.622Z</time>
      </trkpt>
      <trkpt lat="46.65844" lon="-1.89842">
        <ele>51.312001</ele>
        <time>2022-12-18T12:13:47.631Z</time>
      </trkpt>
      <trkpt lat="46.65832" lon="-1.89834">
        <ele>51.286865</ele>
        <time>2022-12-18T12:13:50.634Z</time>
      </trkpt>
      <trkpt lat="46.6582" lon="-1.89827">
        <ele>51.260598</ele>
        <time>2022-12-18T12:13:53.624Z</time>
      </trkpt>
      <trkpt lat="46.65809" lon="-1.89819">
        <ele>51.234849</ele>
        <time>2022-12-18T12:13:56.629Z</time>
      </trkpt>
      <trkpt lat="46.65796" lon="-1.89812">
        <ele>51.208021</ele>
        <time>2022-12-18T12:13:59.604Z</time>
      </trkpt>
      <trkpt lat="46.65785" lon="-1.89805">
        <ele>51.181939</ele>
        <time>2022-12-18T12:14:02.641Z</time>
      </trkpt>
      <trkpt lat="46.65773" lon="-1.89797">
        <ele>51.155224</ele>
        <time>2022-12-18T12:14:05.617Z</time>
      </trkpt>
      <trkpt lat="46.65764" lon="-1.89791">
        <ele>51.183028</ele>
        <time>2022-12-18T12:14:07.674Z</time>
      </trkpt>
      <trkpt lat="46.65755" lon="-1.89786">
        <ele>51.22639</ele>
        <time>2022-12-18T12:14:09.618Z</time>
      </trkpt>
      <trkpt lat="46.65743" lon="-1.89778">
        <ele>51.285305</ele>
        <time>2022-12-18T12:14:12.625Z</time>
      </trkpt>
      <trkpt lat="46.65731" lon="-1.8977">
        <ele>51.344699</ele>
        <time>2022-12-18T12:14:15.612Z</time>
      </trkpt>
      <trkpt lat="46.65723" lon="-1.89765">
        <ele>51.385881</ele>
        <time>2022-12-18T12:14:17.630Z</time>
      </trkpt>
      <trkpt lat="46.6571" lon="-1.89756">
        <ele>51.447218</ele>
        <time>2022-12-18T12:14:20.631Z</time>
      </trkpt>
      <trkpt lat="46.65702" lon="-1.8975">
        <ele>51.489725</ele>
        <time>2022-12-18T12:14:22.630Z</time>
      </trkpt>
      <trkpt lat="46.65693" lon="-1.89745">
        <ele>51.530216</ele>
        <time>2022-12-18T12:14:24.629Z</time>
      </trkpt>
      <trkpt lat="46.65685" lon="-1.8974">
        <ele>51.571809</ele>
        <time>2022-12-18T12:14:26.627Z</time>
      </trkpt>
      <trkpt lat="46.65676" lon="-1.89734">
        <ele>51.613693</ele>
        <time>2022-12-18T12:14:28.628Z</time>
      </trkpt>
      <trkpt lat="46.65668" lon="-1.89728">
        <ele>51.656607</ele>
        <time>2022-12-18T12:14:30.626Z</time>
      </trkpt>
      <trkpt lat="46.65659" lon="-1.89723">
        <ele>51.700149</ele>
        <time>2022-12-18T12:14:32.626Z</time>
      </trkpt>
      <trkpt lat="46.65647" lon="-1.89715">
        <ele>51.75933</ele>
        <time>2022-12-18T12:14:35.629Z</time>
      </trkpt>
      <trkpt lat="46.65639" lon="-1.89709">
        <ele>51.799949</ele>
        <time>2022-12-18T12:14:37.629Z</time>
      </trkpt>
      <trkpt lat="46.65626" lon="-1.89701">
        <ele>51.860171</ele>
        <time>2022-12-18T12:14:40.622Z</time>
      </trkpt>
      <trkpt lat="46.65617" lon="-1.89696">
        <ele>51.902538</ele>
        <time>2022-12-18T12:14:42.627Z</time>
      </trkpt>
      <trkpt lat="46.65605" lon="-1.89689">
        <ele>51.947709</ele>
        <time>2022-12-18T12:14:45.675Z</time>
      </trkpt>
      <trkpt lat="46.65593" lon="-1.89681">
        <ele>51.830442</ele>
        <time>2022-12-18T12:14:48.614Z</time>
      </trkpt>
      <trkpt lat="46.65581" lon="-1.89674">
        <ele>51.719134</ele>
        <time>2022-12-18T12:14:51.602Z</time>
      </trkpt>
      <trkpt lat="46.65572" lon="-1.89667">
        <ele>51.628605</ele>
        <time>2022-12-18T12:14:54.628Z</time>
      </trkpt>
      <trkpt lat="46.65562" lon="-1.89661">
        <ele>51.535168</ele>
        <time>2022-12-18T12:14:58.606Z</time>
      </trkpt>
      <trkpt lat="46.65553" lon="-1.89655">
        <ele>51.445114</ele>
        <time>2022-12-18T12:15:02.623Z</time>
      </trkpt>
      <trkpt lat="46.65541" lon="-1.89648">
        <ele>51.339158</ele>
        <time>2022-12-18T12:15:06.632Z</time>
      </trkpt>
      <trkpt lat="46.65532" lon="-1.89641">
        <ele>51.245742</ele>
        <time>2022-12-18T12:15:09.634Z</time>
      </trkpt>
      <trkpt lat="46.65522" lon="-1.89634">
        <ele>51.144972</ele>
        <time>2022-12-18T12:15:12.609Z</time>
      </trkpt>
      <trkpt lat="46.65511" lon="-1.89625">
        <ele>51.042729</ele>
        <time>2022-12-18T12:15:15.614Z</time>
      </trkpt>
      <trkpt lat="46.65501" lon="-1.89618">
        <ele>50.940391</ele>
        <time>2022-12-18T12:15:18.633Z</time>
      </trkpt>
      <trkpt lat="46.65489" lon="-1.8961">
        <ele>50.828584</ele>
        <time>2022-12-18T12:15:21.602Z</time>
      </trkpt>
      <trkpt lat="46.65479" lon="-1.89602">
        <ele>50.726218</ele>
        <time>2022-12-18T12:15:24.627Z</time>
      </trkpt>
      <trkpt lat="46.65468" lon="-1.89595">
        <ele>50.622773</ele>
        <time>2022-12-18T12:15:27.606Z</time>
      </trkpt>
      <trkpt lat="46.65457" lon="-1.89587">
        <ele>50.518575</ele>
        <time>2022-12-18T12:15:30.617Z</time>
      </trkpt>
      <trkpt lat="46.65447" lon="-1.89579">
        <ele>50.411151</ele>
        <time>2022-12-18T12:15:33.608Z</time>
      </trkpt>
      <trkpt lat="46.65436" lon="-1.8957">
        <ele>50.43935</ele>
        <time>2022-12-18T12:15:36.622Z</time>
      </trkpt>
      <trkpt lat="46.65425" lon="-1.89561">
        <ele>50.515303</ele>
        <time>2022-12-18T12:15:39.629Z</time>
      </trkpt>
      <trkpt lat="46.65415" lon="-1.89552">
        <ele>50.591884</ele>
        <time>2022-12-18T12:15:42.635Z</time>
      </trkpt>
      <trkpt lat="46.65405" lon="-1.89543">
        <ele>50.664095</ele>
        <time>2022-12-18T12:15:45.680Z</time>
      </trkpt>
      <trkpt lat="46.65394" lon="-1.89533">
        <ele>50.739903</ele>
        <time>2022-12-18T12:15:48.629Z</time>
      </trkpt>
      <trkpt lat="46.65384" lon="-1.89524">
        <ele>50.814054</ele>
        <time>2022-12-18T12:15:51.618Z</time>
      </trkpt>
      <trkpt lat="46.65375" lon="-1.89516">
        <ele>50.881099</ele>
        <time>2022-12-18T12:15:54.611Z</time>
      </trkpt>
      <trkpt lat="46.65366" lon="-1.89506">
        <ele>50.953312</ele>
        <time>2022-12-18T12:15:57.605Z</time>
      </trkpt>
      <trkpt lat="46.65356" lon="-1.89497">
        <ele>51.022557</ele>
        <time>2022-12-18T12:16:00.625Z</time>
      </trkpt>
      <trkpt lat="46.65348" lon="-1.89489">
        <ele>51.081784</ele>
        <time>2022-12-18T12:16:03.617Z</time>
      </trkpt>
      <trkpt lat="46.6534" lon="-1.8948">
        <ele>51.148487</ele>
        <time>2022-12-18T12:16:07.629Z</time>
      </trkpt>
      <trkpt lat="46.6533" lon="-1.8947">
        <ele>51.219681</ele>
        <time>2022-12-18T12:16:11.628Z</time>
      </trkpt>
      <trkpt lat="46.65323" lon="-1.89461">
        <ele>51.279911</ele>
        <time>2022-12-18T12:16:14.620Z</time>
      </trkpt>
      <trkpt lat="46.65314" lon="-1.89452">
        <ele>51.344374</ele>
        <time>2022-12-18T12:16:17.674Z</time>
      </trkpt>
      <trkpt lat="46.65306" lon="-1.89442">
        <ele>51.40898</ele>
        <time>2022-12-18T12:16:20.631Z</time>
      </trkpt>
      <trkpt lat="46.65298" lon="-1.89432">
        <ele>51.477047</ele>
        <time>2022-12-18T12:16:23.624Z</time>
      </trkpt>
      <trkpt lat="46.65289" lon="-1.89422">
        <ele>51.541522</ele>
        <time>2022-12-18T12:16:26.627Z</time>
      </trkpt>
      <trkpt lat="46.6528" lon="-1.89413">
        <ele>51.607261</ele>
        <time>2022-12-18T12:16:29.611Z</time>
      </trkpt>
      <trkpt lat="46.65271" lon="-1.89403">
        <ele>51.674201</ele>
        <time>2022-12-18T12:16:32.625Z</time>
      </trkpt>
      <trkpt lat="46.65263" lon="-1.89394">
        <ele>51.738733</ele>
        <time>2022-12-18T12:16:35.607Z</time>
      </trkpt>
      <trkpt lat="46.65254" lon="-1.89385">
        <ele>51.804093</ele>
        <time>2022-12-18T12:16:38.641Z</time>
      </trkpt>
      <trkpt lat="46.65244" lon="-1.89377">
        <ele>51.869453</ele>
        <time>2022-12-18T12:16:41.630Z</time>
      </trkpt>
      <trkpt lat="46.65235" lon="-1.89369">
        <ele>51.932417</ele>
        <time>2022-12-18T12:16:44.630Z</time>
      </trkpt>
      <trkpt lat="46.65226" lon="-1.89362">
        <ele>51.993401</ele>
        <time>2022-12-18T12:16:47.634Z</time>
      </trkpt>
      <trkpt lat="46.65218" lon="-1.89357">
        <ele>52.048266</ele>
        <time>2022-12-18T12:16:50.670Z</time>
      </trkpt>
      <trkpt lat="46.65209" lon="-1.89351">
        <ele>52.104045</ele>
        <time>2022-12-18T12:16:53.629Z</time>
      </trkpt>
      <trkpt lat="46.65201" lon="-1.89346">
        <ele>52.160523</ele>
        <time>2022-12-18T12:16:56.611Z</time>
      </trkpt>
      <trkpt lat="46.65192" lon="-1.89341">
        <ele>52.21849</ele>
        <time>2022-12-18T12:16:59.631Z</time>
      </trkpt>
      <trkpt lat="46.65183" lon="-1.89335">
        <ele>52.276295</ele>
        <time>2022-12-18T12:17:02.628Z</time>
      </trkpt>
      <trkpt lat="46.65173" lon="-1.8933">
        <ele>52.335153</ele>
        <time>2022-12-18T12:17:05.626Z</time>
      </trkpt>
      <trkpt lat="46.65165" lon="-1.89326">
        <ele>52.391757</ele>
        <time>2022-12-18T12:17:08.627Z</time>
      </trkpt>
      <trkpt lat="46.65156" lon="-1.89319">
        <ele>52.452378</ele>
        <time>2022-12-18T12:17:12.627Z</time>
      </trkpt>
      <trkpt lat="46.65145" lon="-1.89314">
        <ele>52.517293</ele>
        <time>2022-12-18T12:17:16.628Z</time>
      </trkpt>
      <trkpt lat="46.65137" lon="-1.89309">
        <ele>52.575912</ele>
        <time>2022-12-18T12:17:19.614Z</time>
      </trkpt>
      <trkpt lat="46.65125" lon="-1.89304">
        <ele>52.759641</ele>
        <time>2022-12-18T12:17:23.629Z</time>
      </trkpt>
      <trkpt lat="46.65116" lon="-1.89299">
        <ele>52.897413</ele>
        <time>2022-12-18T12:17:26.601Z</time>
      </trkpt>
      <trkpt lat="46.65108" lon="-1.89294">
        <ele>53.040536</ele>
        <time>2022-12-18T12:17:29.614Z</time>
      </trkpt>
      <trkpt lat="46.65099" lon="-1.8929">
        <ele>53.184716</ele>
        <time>2022-12-18T12:17:32.631Z</time>
      </trkpt>
      <trkpt lat="46.6509" lon="-1.89285">
        <ele>53.325679</ele>
        <time>2022-12-18T12:17:35.618Z</time>
      </trkpt>
      <trkpt lat="46.65079" lon="-1.89278">
        <ele>53.50674</ele>
        <time>2022-12-18T12:17:39.633Z</time>
      </trkpt>
      <trkpt lat="46.65068" lon="-1.89272">
        <ele>53.685835</ele>
        <time>2022-12-18T12:17:43.627Z</time>
      </trkpt>
      <trkpt lat="46.65059" lon="-1.89267">
        <ele>53.82968</ele>
        <time>2022-12-18T12:17:46.625Z</time>
      </trkpt>
      <trkpt lat="46.65049" lon="-1.89263">
        <ele>53.983813</ele>
        <time>2022-12-18T12:17:49.636Z</time>
      </trkpt>
      <trkpt lat="46.6504" lon="-1.89257">
        <ele>54.137224</ele>
        <time>2022-12-18T12:17:52.611Z</time>
      </trkpt>
      <trkpt lat="46.65031" lon="-1.89252">
        <ele>54.284962</ele>
        <time>2022-12-18T12:17:55.627Z</time>
      </trkpt>
      <trkpt lat="46.65022" lon="-1.89248">
        <ele>54.424509</ele>
        <time>2022-12-18T12:17:58.628Z</time>
      </trkpt>
      <trkpt lat="46.65013" lon="-1.89244">
        <ele>54.56419</ele>
        <time>2022-12-18T12:18:01.630Z</time>
      </trkpt>
      <trkpt lat="46.65003" lon="-1.89238">
        <ele>54.732195</ele>
        <time>2022-12-18T12:18:05.610Z</time>
      </trkpt>
      <trkpt lat="46.64993" lon="-1.89231">
        <ele>54.90367</ele>
        <time>2022-12-18T12:18:09.628Z</time>
      </trkpt>
      <trkpt lat="46.64981" lon="-1.89226">
        <ele>55.082707</ele>
        <time>2022-12-18T12:18:13.624Z</time>
      </trkpt>
      <trkpt lat="46.64972" lon="-1.8922">
        <ele>55.229413</ele>
        <time>2022-12-18T12:18:16.638Z</time>
      </trkpt>
      <trkpt lat="46.64963" lon="-1.89216">
        <ele>55.41492</ele>
        <time>2022-12-18T12:18:19.626Z</time>
      </trkpt>
      <trkpt lat="46.64954" lon="-1.89211">
        <ele>55.631906</ele>
        <time>2022-12-18T12:18:23.630Z</time>
      </trkpt>
      <trkpt lat="46.64943" lon="-1.89205">
        <ele>55.887701</ele>
        <time>2022-12-18T12:18:27.618Z</time>
      </trkpt>
      <trkpt lat="46.64933" lon="-1.89199">
        <ele>56.141883</ele>
        <time>2022-12-18T12:18:31.619Z</time>
      </trkpt>
      <trkpt lat="46.64922" lon="-1.89193">
        <ele>56.395543</ele>
        <time>2022-12-18T12:18:35.628Z</time>
      </trkpt>
      <trkpt lat="46.64912" lon="-1.89188">
        <ele>56.629849</ele>
        <time>2022-12-18T12:18:39.628Z</time>
      </trkpt>
      <trkpt lat="46.64902" lon="-1.89182">
        <ele>56.878299</ele>
        <time>2022-12-18T12:18:43.628Z</time>
      </trkpt>
      <trkpt lat="46.64891" lon="-1.89176">
        <ele>57.126205</ele>
        <time>2022-12-18T12:18:48.618Z</time>
      </trkpt>
      <trkpt lat="46.64882" lon="-1.89172">
        <ele>57.34744</ele>
        <time>2022-12-18T12:18:52.684Z</time>
      </trkpt>
      <trkpt lat="46.64872" lon="-1.89167">
        <ele>57.582826</ele>
        <time>2022-12-18T12:18:56.607Z</time>
      </trkpt>
      <trkpt lat="46.64862" lon="-1.89163">
        <ele>57.818021</ele>
        <time>2022-12-18T12:19:00.625Z</time>
      </trkpt>
      <trkpt lat="46.64852" lon="-1.89157">
        <ele>58.058054</ele>
        <time>2022-12-18T12:19:04.629Z</time>
      </trkpt>
      <trkpt lat="46.64842" lon="-1.89151">
        <ele>58.292217</ele>
        <time>2022-12-18T12:19:08.616Z</time>
      </trkpt>
      <trkpt lat="46.64832" lon="-1.89145">
        <ele>58.541219</ele>
        <time>2022-12-18T12:19:12.603Z</time>
      </trkpt>
      <trkpt lat="46.64822" lon="-1.89139">
        <ele>58.786499</ele>
        <time>2022-12-18T12:19:16.623Z</time>
      </trkpt>
      <trkpt lat="46.64812" lon="-1.89134">
        <ele>59.023439</ele>
        <time>2022-12-18T12:19:20.602Z</time>
      </trkpt>
      <trkpt lat="46.64801" lon="-1.89128">
        <ele>59.279718</ele>
        <time>2022-12-18T12:19:24.632Z</time>
      </trkpt>
      <trkpt lat="46.64792" lon="-1.89123">
        <ele>59.306742</ele>
        <time>2022-12-18T12:19:27.631Z</time>
      </trkpt>
      <trkpt lat="46.64783" lon="-1.89119">
        <ele>59.304219</ele>
        <time>2022-12-18T12:19:30.627Z</time>
      </trkpt>
      <trkpt lat="46.64775" lon="-1.89115">
        <ele>59.30169</ele>
        <time>2022-12-18T12:19:33.679Z</time>
      </trkpt>
      <trkpt lat="46.64764" lon="-1.89109">
        <ele>59.298508</ele>
        <time>2022-12-18T12:19:37.628Z</time>
      </trkpt>
      <trkpt lat="46.64755" lon="-1.89104">
        <ele>59.296025</ele>
        <time>2022-12-18T12:19:40.628Z</time>
      </trkpt>
      <trkpt lat="46.64746" lon="-1.89099">
        <ele>59.293458</ele>
        <time>2022-12-18T12:19:43.631Z</time>
      </trkpt>
      <trkpt lat="46.64737" lon="-1.89095">
        <ele>59.29091</ele>
        <time>2022-12-18T12:19:46.623Z</time>
      </trkpt>
      <trkpt lat="46.64729" lon="-1.8909">
        <ele>59.28842</ele>
        <time>2022-12-18T12:19:49.672Z</time>
      </trkpt>
      <trkpt lat="46.6472" lon="-1.89086">
        <ele>59.285909</ele>
        <time>2022-12-18T12:19:52.630Z</time>
      </trkpt>
      <trkpt lat="46.64711" lon="-1.89081">
        <ele>59.283188</ele>
        <time>2022-12-18T12:19:55.611Z</time>
      </trkpt>
      <trkpt lat="46.64701" lon="-1.89076">
        <ele>59.280321</ele>
        <time>2022-12-18T12:19:58.630Z</time>
      </trkpt>
      <trkpt lat="46.64691" lon="-1.89071">
        <ele>59.277511</ele>
        <time>2022-12-18T12:20:01.630Z</time>
      </trkpt>
      <trkpt lat="46.64681" lon="-1.89066">
        <ele>59.274676</ele>
        <time>2022-12-18T12:20:04.628Z</time>
      </trkpt>
      <trkpt lat="46.64672" lon="-1.8906">
        <ele>59.271883</ele>
        <time>2022-12-18T12:20:07.621Z</time>
      </trkpt>
      <trkpt lat="46.64663" lon="-1.89055">
        <ele>59.269259</ele>
        <time>2022-12-18T12:20:10.617Z</time>
      </trkpt>
      <trkpt lat="46.64653" lon="-1.89049">
        <ele>59.26643</ele>
        <time>2022-12-18T12:20:14.630Z</time>
      </trkpt>
      <trkpt lat="46.64643" lon="-1.89044">
        <ele>59.263498</ele>
        <time>2022-12-18T12:20:18.631Z</time>
      </trkpt>
      <trkpt lat="46.64634" lon="-1.8904">
        <ele>59.260995</ele>
        <time>2022-12-18T12:20:21.615Z</time>
      </trkpt>
      <trkpt lat="46.64626" lon="-1.89034">
        <ele>59.229</ele>
        <time>2022-12-18T12:20:24.634Z</time>
      </trkpt>
      <trkpt lat="46.64617" lon="-1.89029">
        <ele>59.175793</ele>
        <time>2022-12-18T12:20:27.612Z</time>
      </trkpt>
      <trkpt lat="46.64607" lon="-1.89026">
        <ele>59.119126</ele>
        <time>2022-12-18T12:20:30.601Z</time>
      </trkpt>
      <trkpt lat="46.64596" lon="-1.8902">
        <ele>59.057388</ele>
        <time>2022-12-18T12:20:33.629Z</time>
      </trkpt>
      <trkpt lat="46.64591" lon="-1.89009">
        <ele>59.004345</ele>
        <time>2022-12-18T12:20:36.639Z</time>
      </trkpt>
      <trkpt lat="46.64592" lon="-1.88995">
        <ele>58.949867</ele>
        <time>2022-12-18T12:20:39.629Z</time>
      </trkpt>
      <trkpt lat="46.64591" lon="-1.8898">
        <ele>58.894272</ele>
        <time>2022-12-18T12:20:42.624Z</time>
      </trkpt>
      <trkpt lat="46.64586" lon="-1.88966">
        <ele>58.832645</ele>
        <time>2022-12-18T12:20:45.660Z</time>
      </trkpt>
      <trkpt lat="46.6458" lon="-1.88953">
        <ele>58.772344</ele>
        <time>2022-12-18T12:20:48.609Z</time>
      </trkpt>
      <trkpt lat="46.64573" lon="-1.8894">
        <ele>58.710775</ele>
        <time>2022-12-18T12:20:51.628Z</time>
      </trkpt>
      <trkpt lat="46.64567" lon="-1.88925">
        <ele>58.644091</ele>
        <time>2022-12-18T12:20:54.617Z</time>
      </trkpt>
      <trkpt lat="46.6456" lon="-1.8891">
        <ele>58.574247</ele>
        <time>2022-12-18T12:20:57.611Z</time>
      </trkpt>
      <trkpt lat="46.64556" lon="-1.88898">
        <ele>58.523604</ele>
        <time>2022-12-18T12:20:59.638Z</time>
      </trkpt>
      <trkpt lat="46.64551" lon="-1.88887">
        <ele>58.471829</ele>
        <time>2022-12-18T12:21:01.627Z</time>
      </trkpt>
      <trkpt lat="46.64545" lon="-1.88876">
        <ele>58.419923</ele>
        <time>2022-12-18T12:21:03.674Z</time>
      </trkpt>
      <trkpt lat="46.64539" lon="-1.88866">
        <ele>58.36529</ele>
        <time>2022-12-18T12:21:05.627Z</time>
      </trkpt>
      <trkpt lat="46.64533" lon="-1.88855">
        <ele>58.31291</ele>
        <time>2022-12-18T12:21:07.629Z</time>
      </trkpt>
      <trkpt lat="46.64526" lon="-1.88847">
        <ele>58.262077</ele>
        <time>2022-12-18T12:21:09.632Z</time>
      </trkpt>
      <trkpt lat="46.64516" lon="-1.88835">
        <ele>58.252393</ele>
        <time>2022-12-18T12:21:12.629Z</time>
      </trkpt>
      <trkpt lat="46.64506" lon="-1.88825">
        <ele>58.248272</ele>
        <time>2022-12-18T12:21:15.623Z</time>
      </trkpt>
      <trkpt lat="46.64498" lon="-1.88816">
        <ele>58.244616</ele>
        <time>2022-12-18T12:21:18.629Z</time>
      </trkpt>
      <trkpt lat="46.64489" lon="-1.88807">
        <ele>58.240612</ele>
        <time>2022-12-18T12:21:21.603Z</time>
      </trkpt>
      <trkpt lat="46.6448" lon="-1.88796">
        <ele>58.236483</ele>
        <time>2022-12-18T12:21:24.604Z</time>
      </trkpt>
      <trkpt lat="46.64471" lon="-1.88785">
        <ele>58.232145</ele>
        <time>2022-12-18T12:21:27.601Z</time>
      </trkpt>
      <trkpt lat="46.64461" lon="-1.88774">
        <ele>58.227833</ele>
        <time>2022-12-18T12:21:30.619Z</time>
      </trkpt>
      <trkpt lat="46.64452" lon="-1.88763">
        <ele>58.22358</ele>
        <time>2022-12-18T12:21:33.604Z</time>
      </trkpt>
      <trkpt lat="46.64444" lon="-1.88752">
        <ele>58.219486</ele>
        <time>2022-12-18T12:21:36.641Z</time>
      </trkpt>
      <trkpt lat="46.64436" lon="-1.8874">
        <ele>58.215414</ele>
        <time>2022-12-18T12:21:39.626Z</time>
      </trkpt>
      <trkpt lat="46.64429" lon="-1.88728">
        <ele>58.211415</ele>
        <time>2022-12-18T12:21:42.622Z</time>
      </trkpt>
      <trkpt lat="46.64421" lon="-1.88716">
        <ele>58.20735</ele>
        <time>2022-12-18T12:21:45.612Z</time>
      </trkpt>
      <trkpt lat="46.64414" lon="-1.88703">
        <ele>58.203345</ele>
        <time>2022-12-18T12:21:48.626Z</time>
      </trkpt>
      <trkpt lat="46.64407" lon="-1.88689">
        <ele>58.199191</ele>
        <time>2022-12-18T12:21:51.630Z</time>
      </trkpt>
      <trkpt lat="46.64401" lon="-1.88677">
        <ele>58.195268</ele>
        <time>2022-12-18T12:21:54.615Z</time>
      </trkpt>
      <trkpt lat="46.64394" lon="-1.88664">
        <ele>58.193722</ele>
        <time>2022-12-18T12:21:57.674Z</time>
      </trkpt>
      <trkpt lat="46.64388" lon="-1.88651">
        <ele>58.202495</ele>
        <time>2022-12-18T12:22:00.629Z</time>
      </trkpt>
      <trkpt lat="46.64381" lon="-1.88638">
        <ele>58.211472</ele>
        <time>2022-12-18T12:22:03.628Z</time>
      </trkpt>
      <trkpt lat="46.64375" lon="-1.88626">
        <ele>58.220106</ele>
        <time>2022-12-18T12:22:06.633Z</time>
      </trkpt>
      <trkpt lat="46.64369" lon="-1.88615">
        <ele>58.227656</ele>
        <time>2022-12-18T12:22:09.606Z</time>
      </trkpt>
      <trkpt lat="46.64363" lon="-1.88602">
        <ele>58.236652</ele>
        <time>2022-12-18T12:22:13.626Z</time>
      </trkpt>
      <trkpt lat="46.64357" lon="-1.88591">
        <ele>58.243967</ele>
        <time>2022-12-18T12:22:16.618Z</time>
      </trkpt>
      <trkpt lat="46.64352" lon="-1.8858">
        <ele>58.251501</ele>
        <time>2022-12-18T12:22:19.720Z</time>
      </trkpt>
      <trkpt lat="46.64346" lon="-1.88569">
        <ele>58.259145</ele>
        <time>2022-12-18T12:22:22.625Z</time>
      </trkpt>
      <trkpt lat="46.6434" lon="-1.88558">
        <ele>58.266915</ele>
        <time>2022-12-18T12:22:25.611Z</time>
      </trkpt>
      <trkpt lat="46.64334" lon="-1.88546">
        <ele>58.274819</ele>
        <time>2022-12-18T12:22:28.638Z</time>
      </trkpt>
      <trkpt lat="46.64329" lon="-1.88535">
        <ele>58.28281</ele>
        <time>2022-12-18T12:22:31.627Z</time>
      </trkpt>
      <trkpt lat="46.64321" lon="-1.88522">
        <ele>58.292099</ele>
        <time>2022-12-18T12:22:35.631Z</time>
      </trkpt>
      <trkpt lat="46.64315" lon="-1.88508">
        <ele>58.301283</ele>
        <time>2022-12-18T12:22:39.631Z</time>
      </trkpt>
      <trkpt lat="46.64309" lon="-1.88495">
        <ele>58.309822</ele>
        <time>2022-12-18T12:22:43.635Z</time>
      </trkpt>
      <trkpt lat="46.64303" lon="-1.88484">
        <ele>58.317965</ele>
        <time>2022-12-18T12:22:47.640Z</time>
      </trkpt>
      <trkpt lat="46.64296" lon="-1.8847">
        <ele>58.327097</ele>
        <time>2022-12-18T12:22:51.635Z</time>
      </trkpt>
      <trkpt lat="46.6429" lon="-1.8846">
        <ele>58.334423</ele>
        <time>2022-12-18T12:22:54.624Z</time>
      </trkpt>
      <trkpt lat="46.64284" lon="-1.88448">
        <ele>58.366493</ele>
        <time>2022-12-18T12:22:57.676Z</time>
      </trkpt>
      <trkpt lat="46.64278" lon="-1.88436">
        <ele>58.414069</ele>
        <time>2022-12-18T12:23:00.612Z</time>
      </trkpt>
      <trkpt lat="46.64271" lon="-1.88423">
        <ele>58.461622</ele>
        <time>2022-12-18T12:23:03.606Z</time>
      </trkpt>
      <trkpt lat="46.64264" lon="-1.88411">
        <ele>58.509629</ele>
        <time>2022-12-18T12:23:06.639Z</time>
      </trkpt>
      <trkpt lat="46.64258" lon="-1.88399">
        <ele>58.556406</ele>
        <time>2022-12-18T12:23:09.617Z</time>
      </trkpt>
      <trkpt lat="46.64252" lon="-1.88387">
        <ele>58.600498</ele>
        <time>2022-12-18T12:23:12.628Z</time>
      </trkpt>
      <trkpt lat="46.64246" lon="-1.88375">
        <ele>58.646957</ele>
        <time>2022-12-18T12:23:15.607Z</time>
      </trkpt>
      <trkpt lat="46.64239" lon="-1.88363">
        <ele>58.695345</ele>
        <time>2022-12-18T12:23:18.616Z</time>
      </trkpt>
      <trkpt lat="46.64232" lon="-1.8835">
        <ele>58.742392</ele>
        <time>2022-12-18T12:23:21.607Z</time>
      </trkpt>
      <trkpt lat="46.64226" lon="-1.88338">
        <ele>58.788225</ele>
        <time>2022-12-18T12:23:24.630Z</time>
      </trkpt>
      <trkpt lat="46.6422" lon="-1.88326">
        <ele>58.833549</ele>
        <time>2022-12-18T12:23:27.627Z</time>
      </trkpt>
      <trkpt lat="46.64214" lon="-1.88313">
        <ele>58.882076</ele>
        <time>2022-12-18T12:23:30.627Z</time>
      </trkpt>
      <trkpt lat="46.64207" lon="-1.883">
        <ele>58.933405</ele>
        <time>2022-12-18T12:23:33.607Z</time>
      </trkpt>
      <trkpt lat="46.642" lon="-1.88286">
        <ele>58.984733</ele>
        <time>2022-12-18T12:23:36.610Z</time>
      </trkpt>
      <trkpt lat="46.64193" lon="-1.88274">
        <ele>59.032552</ele>
        <time>2022-12-18T12:23:39.632Z</time>
      </trkpt>
      <trkpt lat="46.64188" lon="-1.88261">
        <ele>59.077088</ele>
        <time>2022-12-18T12:23:42.617Z</time>
      </trkpt>
      <trkpt lat="46.64182" lon="-1.88248">
        <ele>59.124144</ele>
        <time>2022-12-18T12:23:45.627Z</time>
      </trkpt>
      <trkpt lat="46.64176" lon="-1.88235">
        <ele>59.202429</ele>
        <time>2022-12-18T12:23:48.630Z</time>
      </trkpt>
      <trkpt lat="46.64171" lon="-1.88222">
        <ele>59.279107</ele>
        <time>2022-12-18T12:23:51.637Z</time>
      </trkpt>
      <trkpt lat="46.64165" lon="-1.8821">
        <ele>59.355696</ele>
        <time>2022-12-18T12:23:54.640Z</time>
      </trkpt>
      <trkpt lat="46.64158" lon="-1.88197">
        <ele>59.439562</ele>
        <time>2022-12-18T12:23:57.633Z</time>
      </trkpt>
      <trkpt lat="46.64151" lon="-1.88184">
        <ele>59.525157</ele>
        <time>2022-12-18T12:24:00.613Z</time>
      </trkpt>
      <trkpt lat="46.64145" lon="-1.88171">
        <ele>59.608547</ele>
        <time>2022-12-18T12:24:03.631Z</time>
      </trkpt>
      <trkpt lat="46.64138" lon="-1.88158">
        <ele>59.690644</ele>
        <time>2022-12-18T12:24:06.630Z</time>
      </trkpt>
      <trkpt lat="46.64132" lon="-1.88146">
        <ele>59.768173</ele>
        <time>2022-12-18T12:24:09.636Z</time>
      </trkpt>
      <trkpt lat="46.64126" lon="-1.88133">
        <ele>59.847761</ele>
        <time>2022-12-18T12:24:12.623Z</time>
      </trkpt>
      <trkpt lat="46.6412" lon="-1.88121">
        <ele>59.926874</ele>
        <time>2022-12-18T12:24:15.626Z</time>
      </trkpt>
      <trkpt lat="46.64113" lon="-1.88109">
        <ele>60.0058</ele>
        <time>2022-12-18T12:24:19.628Z</time>
      </trkpt>
      <trkpt lat="46.64107" lon="-1.88097">
        <ele>60.080234</ele>
        <time>2022-12-18T12:24:23.626Z</time>
      </trkpt>
      <trkpt lat="46.64101" lon="-1.88083">
        <ele>60.168706</ele>
        <time>2022-12-18T12:24:27.608Z</time>
      </trkpt>
      <trkpt lat="46.64095" lon="-1.88072">
        <ele>60.24019</ele>
        <time>2022-12-18T12:24:30.630Z</time>
      </trkpt>
      <trkpt lat="46.6409" lon="-1.8806">
        <ele>60.312119</ele>
        <time>2022-12-18T12:24:33.633Z</time>
      </trkpt>
      <trkpt lat="46.64084" lon="-1.88049">
        <ele>60.384009</ele>
        <time>2022-12-18T12:24:36.630Z</time>
      </trkpt>
      <trkpt lat="46.64078" lon="-1.88037">
        <ele>60.457664</ele>
        <time>2022-12-18T12:24:39.632Z</time>
      </trkpt>
      <trkpt lat="46.64072" lon="-1.88026">
        <ele>60.571263</ele>
        <time>2022-12-18T12:24:42.634Z</time>
      </trkpt>
      <trkpt lat="46.64067" lon="-1.88014">
        <ele>60.698201</ele>
        <time>2022-12-18T12:24:45.629Z</time>
      </trkpt>
      <trkpt lat="46.64061" lon="-1.88003">
        <ele>60.827357</ele>
        <time>2022-12-18T12:24:48.637Z</time>
      </trkpt>
      <trkpt lat="46.64056" lon="-1.87989">
        <ele>60.978058</ele>
        <time>2022-12-18T12:24:52.628Z</time>
      </trkpt>
      <trkpt lat="46.64051" lon="-1.87977">
        <ele>61.099799</ele>
        <time>2022-12-18T12:24:55.694Z</time>
      </trkpt>
      <trkpt lat="46.64046" lon="-1.87966">
        <ele>61.223202</ele>
        <time>2022-12-18T12:24:58.628Z</time>
      </trkpt>
      <trkpt lat="46.64041" lon="-1.87954">
        <ele>61.349547</ele>
        <time>2022-12-18T12:25:01.606Z</time>
      </trkpt>
      <trkpt lat="46.64037" lon="-1.87941">
        <ele>61.477294</ele>
        <time>2022-12-18T12:25:04.622Z</time>
      </trkpt>
      <trkpt lat="46.64033" lon="-1.87928">
        <ele>61.612847</ele>
        <time>2022-12-18T12:25:07.612Z</time>
      </trkpt>
      <trkpt lat="46.64029" lon="-1.87914">
        <ele>61.751983</ele>
        <time>2022-12-18T12:25:10.630Z</time>
      </trkpt>
      <trkpt lat="46.64025" lon="-1.87899">
        <ele>61.893708</ele>
        <time>2022-12-18T12:25:13.630Z</time>
      </trkpt>
      <trkpt lat="46.64021" lon="-1.87886">
        <ele>62.028741</ele>
        <time>2022-12-18T12:25:16.618Z</time>
      </trkpt>
      <trkpt lat="46.64017" lon="-1.87873">
        <ele>62.160095</ele>
        <time>2022-12-18T12:25:19.629Z</time>
      </trkpt>
      <trkpt lat="46.64013" lon="-1.87859">
        <ele>62.293667</ele>
        <time>2022-12-18T12:25:22.620Z</time>
      </trkpt>
      <trkpt lat="46.6401" lon="-1.87846">
        <ele>62.428919</ele>
        <time>2022-12-18T12:25:25.624Z</time>
      </trkpt>
      <trkpt lat="46.64005" lon="-1.87831">
        <ele>62.571948</ele>
        <time>2022-12-18T12:25:28.604Z</time>
      </trkpt>
      <trkpt lat="46.64001" lon="-1.87817">
        <ele>62.712571</ele>
        <time>2022-12-18T12:25:31.635Z</time>
      </trkpt>
      <trkpt lat="46.63997" lon="-1.87803">
        <ele>62.858083</ele>
        <time>2022-12-18T12:25:34.618Z</time>
      </trkpt>
      <trkpt lat="46.63992" lon="-1.87789">
        <ele>62.806412</ele>
        <time>2022-12-18T12:25:37.610Z</time>
      </trkpt>
      <trkpt lat="46.63988" lon="-1.87774">
        <ele>62.707397</ele>
        <time>2022-12-18T12:25:41.620Z</time>
      </trkpt>
      <trkpt lat="46.63984" lon="-1.87761">
        <ele>62.624203</ele>
        <time>2022-12-18T12:25:44.628Z</time>
      </trkpt>
      <trkpt lat="46.6398" lon="-1.87748">
        <ele>62.537868</ele>
        <time>2022-12-18T12:25:47.630Z</time>
      </trkpt>
      <trkpt lat="46.63975" lon="-1.87735">
        <ele>62.443861</ele>
        <time>2022-12-18T12:25:50.633Z</time>
      </trkpt>
      <trkpt lat="46.6397" lon="-1.87721">
        <ele>62.348163</ele>
        <time>2022-12-18T12:25:53.628Z</time>
      </trkpt>
      <trkpt lat="46.63965" lon="-1.87706">
        <ele>62.247931</ele>
        <time>2022-12-18T12:25:56.618Z</time>
      </trkpt>
      <trkpt lat="46.63959" lon="-1.87692">
        <ele>62.148612</ele>
        <time>2022-12-18T12:25:59.616Z</time>
      </trkpt>
      <trkpt lat="46.63954" lon="-1.87677">
        <ele>62.044322</ele>
        <time>2022-12-18T12:26:02.635Z</time>
      </trkpt>
      <trkpt lat="46.63949" lon="-1.87661">
        <ele>61.936593</ele>
        <time>2022-12-18T12:26:05.609Z</time>
      </trkpt>
      <trkpt lat="46.63943" lon="-1.87645">
        <ele>61.828924</ele>
        <time>2022-12-18T12:26:08.613Z</time>
      </trkpt>
      <trkpt lat="46.63938" lon="-1.87628">
        <ele>61.718804</ele>
        <time>2022-12-18T12:26:11.631Z</time>
      </trkpt>
      <trkpt lat="46.63933" lon="-1.87612">
        <ele>61.610144</ele>
        <time>2022-12-18T12:26:14.620Z</time>
      </trkpt>
      <trkpt lat="46.63927" lon="-1.87596">
        <ele>61.499615</ele>
        <time>2022-12-18T12:26:17.626Z</time>
      </trkpt>
      <trkpt lat="46.63922" lon="-1.87579">
        <ele>61.388204</ele>
        <time>2022-12-18T12:26:20.607Z</time>
      </trkpt>
      <trkpt lat="46.63917" lon="-1.87563">
        <ele>61.291588</ele>
        <time>2022-12-18T12:26:23.627Z</time>
      </trkpt>
      <trkpt lat="46.63912" lon="-1.87548">
        <ele>61.311985</ele>
        <time>2022-12-18T12:26:26.613Z</time>
      </trkpt>
      <trkpt lat="46.63907" lon="-1.87535">
        <ele>61.330321</ele>
        <time>2022-12-18T12:26:29.634Z</time>
      </trkpt>
      <trkpt lat="46.63903" lon="-1.8752">
        <ele>61.350112</ele>
        <time>2022-12-18T12:26:32.624Z</time>
      </trkpt>
      <trkpt lat="46.63898" lon="-1.87505">
        <ele>61.371144</ele>
        <time>2022-12-18T12:26:35.631Z</time>
      </trkpt>
      <trkpt lat="46.63892" lon="-1.8749">
        <ele>61.392528</ele>
        <time>2022-12-18T12:26:38.628Z</time>
      </trkpt>
      <trkpt lat="46.63887" lon="-1.87475">
        <ele>61.413448</ele>
        <time>2022-12-18T12:26:41.634Z</time>
      </trkpt>
      <trkpt lat="46.63881" lon="-1.87461">
        <ele>61.434045</ele>
        <time>2022-12-18T12:26:44.608Z</time>
      </trkpt>
      <trkpt lat="46.63874" lon="-1.87448">
        <ele>61.454463</ele>
        <time>2022-12-18T12:26:47.672Z</time>
      </trkpt>
      <trkpt lat="46.63866" lon="-1.87436">
        <ele>61.474409</ele>
        <time>2022-12-18T12:26:50.610Z</time>
      </trkpt>
      <trkpt lat="46.63858" lon="-1.87424">
        <ele>61.495058</ele>
        <time>2022-12-18T12:26:53.641Z</time>
      </trkpt>
      <trkpt lat="46.6385" lon="-1.87412">
        <ele>61.516602</ele>
        <time>2022-12-18T12:26:56.628Z</time>
      </trkpt>
      <trkpt lat="46.6384" lon="-1.874">
        <ele>61.538736</ele>
        <time>2022-12-18T12:26:59.608Z</time>
      </trkpt>
      <trkpt lat="46.63831" lon="-1.87388">
        <ele>61.560581</ele>
        <time>2022-12-18T12:27:02.623Z</time>
      </trkpt>
      <trkpt lat="46.63823" lon="-1.87376">
        <ele>61.582125</ele>
        <time>2022-12-18T12:27:05.609Z</time>
      </trkpt>
      <trkpt lat="46.63814" lon="-1.87365">
        <ele>61.602471</ele>
        <time>2022-12-18T12:27:08.633Z</time>
      </trkpt>
      <trkpt lat="46.63806" lon="-1.87354">
        <ele>61.588239</ele>
        <time>2022-12-18T12:27:11.617Z</time>
      </trkpt>
      <trkpt lat="46.63799" lon="-1.87341">
        <ele>61.528449</ele>
        <time>2022-12-18T12:27:14.619Z</time>
      </trkpt>
      <trkpt lat="46.63793" lon="-1.87326">
        <ele>61.467359</ele>
        <time>2022-12-18T12:27:17.628Z</time>
      </trkpt>
      <trkpt lat="46.63787" lon="-1.8731">
        <ele>61.401513</ele>
        <time>2022-12-18T12:27:20.633Z</time>
      </trkpt>
      <trkpt lat="46.63783" lon="-1.87292">
        <ele>61.333996</ele>
        <time>2022-12-18T12:27:23.609Z</time>
      </trkpt>
      <trkpt lat="46.63781" lon="-1.87273">
        <ele>61.26652</ele>
        <time>2022-12-18T12:27:26.625Z</time>
      </trkpt>
      <trkpt lat="46.63778" lon="-1.87254">
        <ele>61.196517</ele>
        <time>2022-12-18T12:27:29.607Z</time>
      </trkpt>
      <trkpt lat="46.63778" lon="-1.8724">
        <ele>61.145952</ele>
        <time>2022-12-18T12:27:31.614Z</time>
      </trkpt>
      <trkpt lat="46.63778" lon="-1.87227">
        <ele>61.099287</ele>
        <time>2022-12-18T12:27:33.634Z</time>
      </trkpt>
      <trkpt lat="46.63778" lon="-1.87213">
        <ele>61.051934</ele>
        <time>2022-12-18T12:27:35.630Z</time>
      </trkpt>
      <trkpt lat="46.63777" lon="-1.87195">
        <ele>60.986353</ele>
        <time>2022-12-18T12:27:38.640Z</time>
      </trkpt>
      <trkpt lat="46.63777" lon="-1.87177">
        <ele>60.92298</ele>
        <time>2022-12-18T12:27:41.627Z</time>
      </trkpt>
      <trkpt lat="46.63777" lon="-1.8716">
        <ele>60.862793</ele>
        <time>2022-12-18T12:27:44.621Z</time>
      </trkpt>
      <trkpt lat="46.63777" lon="-1.87144">
        <ele>60.805821</ele>
        <time>2022-12-18T12:27:47.640Z</time>
      </trkpt>
      <trkpt lat="46.63776" lon="-1.87127">
        <ele>60.744012</ele>
        <time>2022-12-18T12:27:50.633Z</time>
      </trkpt>
      <trkpt lat="46.63775" lon="-1.87113">
        <ele>60.69537</ele>
        <time>2022-12-18T12:27:52.624Z</time>
      </trkpt>
      <trkpt lat="46.63774" lon="-1.87099">
        <ele>60.60929</ele>
        <time>2022-12-18T12:27:54.611Z</time>
      </trkpt>
      <trkpt lat="46.63772" lon="-1.87085">
        <ele>60.504316</ele>
        <time>2022-12-18T12:27:56.628Z</time>
      </trkpt>
      <trkpt lat="46.6377" lon="-1.8707">
        <ele>60.389878</ele>
        <time>2022-12-18T12:27:58.629Z</time>
      </trkpt>
      <trkpt lat="46.63768" lon="-1.87054">
        <ele>60.272583</ele>
        <time>2022-12-18T12:28:00.629Z</time>
      </trkpt>
      <trkpt lat="46.63765" lon="-1.87039">
        <ele>60.159337</ele>
        <time>2022-12-18T12:28:02.682Z</time>
      </trkpt>
      <trkpt lat="46.63763" lon="-1.87024">
        <ele>60.042045</ele>
        <time>2022-12-18T12:28:04.643Z</time>
      </trkpt>
      <trkpt lat="46.6376" lon="-1.87008">
        <ele>59.928553</ele>
        <time>2022-12-18T12:28:06.635Z</time>
      </trkpt>
      <trkpt lat="46.63758" lon="-1.86993">
        <ele>59.810084</ele>
        <time>2022-12-18T12:28:08.633Z</time>
      </trkpt>
      <trkpt lat="46.63755" lon="-1.86978">
        <ele>59.699211</ele>
        <time>2022-12-18T12:28:10.631Z</time>
      </trkpt>
      <trkpt lat="46.63753" lon="-1.86962">
        <ele>59.584059</ele>
        <time>2022-12-18T12:28:12.622Z</time>
      </trkpt>
      <trkpt lat="46.63751" lon="-1.86947">
        <ele>59.467963</ele>
        <time>2022-12-18T12:28:14.606Z</time>
      </trkpt>
      <trkpt lat="46.63749" lon="-1.86932">
        <ele>59.357356</ele>
        <time>2022-12-18T12:28:16.633Z</time>
      </trkpt>
      <trkpt lat="46.63748" lon="-1.86917">
        <ele>59.247016</ele>
        <time>2022-12-18T12:28:18.628Z</time>
      </trkpt>
      <trkpt lat="46.63747" lon="-1.86903">
        <ele>59.142718</ele>
        <time>2022-12-18T12:28:20.628Z</time>
      </trkpt>
      <trkpt lat="46.63746" lon="-1.86888">
        <ele>59.032702</ele>
        <time>2022-12-18T12:28:22.631Z</time>
      </trkpt>
      <trkpt lat="46.63745" lon="-1.86873">
        <ele>58.925133</ele>
        <time>2022-12-18T12:28:24.680Z</time>
      </trkpt>
      <trkpt lat="46.63745" lon="-1.86859">
        <ele>58.822791</ele>
        <time>2022-12-18T12:28:26.613Z</time>
      </trkpt>
      <trkpt lat="46.63744" lon="-1.8684">
        <ele>58.860868</ele>
        <time>2022-12-18T12:28:29.630Z</time>
      </trkpt>
      <trkpt lat="46.63743" lon="-1.86826">
        <ele>58.967081</ele>
        <time>2022-12-18T12:28:31.630Z</time>
      </trkpt>
      <trkpt lat="46.63742" lon="-1.86813">
        <ele>59.07603</ele>
        <time>2022-12-18T12:28:33.625Z</time>
      </trkpt>
      <trkpt lat="46.63742" lon="-1.86799">
        <ele>59.186924</ele>
        <time>2022-12-18T12:28:35.612Z</time>
      </trkpt>
      <trkpt lat="46.63742" lon="-1.86785">
        <ele>59.299507</ele>
        <time>2022-12-18T12:28:37.631Z</time>
      </trkpt>
      <trkpt lat="46.63741" lon="-1.86771">
        <ele>59.410401</ele>
        <time>2022-12-18T12:28:39.649Z</time>
      </trkpt>
      <trkpt lat="46.63741" lon="-1.86758">
        <ele>59.516614</ele>
        <time>2022-12-18T12:28:41.688Z</time>
      </trkpt>
      <trkpt lat="46.6374" lon="-1.86744">
        <ele>59.623075</ele>
        <time>2022-12-18T12:28:43.622Z</time>
      </trkpt>
      <trkpt lat="46.63738" lon="-1.86731">
        <ele>59.734301</ele>
        <time>2022-12-18T12:28:45.623Z</time>
      </trkpt>
      <trkpt lat="46.63733" lon="-1.86713">
        <ele>59.886481</ele>
        <time>2022-12-18T12:28:48.632Z</time>
      </trkpt>
      <trkpt lat="46.63727" lon="-1.86699">
        <ele>60.019995</ele>
        <time>2022-12-18T12:28:51.624Z</time>
      </trkpt>
      <trkpt lat="46.6372" lon="-1.86687">
        <ele>60.149802</ele>
        <time>2022-12-18T12:28:54.628Z</time>
      </trkpt>
      <trkpt lat="46.6371" lon="-1.86679">
        <ele>60.27865</ele>
        <time>2022-12-18T12:28:57.609Z</time>
      </trkpt>
      <trkpt lat="46.63701" lon="-1.8667">
        <ele>60.405951</ele>
        <time>2022-12-18T12:29:00.632Z</time>
      </trkpt>
      <trkpt lat="46.63692" lon="-1.86662">
        <ele>60.530325</ele>
        <time>2022-12-18T12:29:03.629Z</time>
      </trkpt>
      <trkpt lat="46.63682" lon="-1.86655">
        <ele>60.653783</ele>
        <time>2022-12-18T12:29:06.610Z</time>
      </trkpt>
      <trkpt lat="46.63673" lon="-1.86648">
        <ele>60.776858</ele>
        <time>2022-12-18T12:29:09.617Z</time>
      </trkpt>
      <trkpt lat="46.63664" lon="-1.8664">
        <ele>60.786418</ele>
        <time>2022-12-18T12:29:12.622Z</time>
      </trkpt>
      <trkpt lat="46.63655" lon="-1.86633">
        <ele>60.57512</ele>
        <time>2022-12-18T12:29:15.626Z</time>
      </trkpt>
      <trkpt lat="46.63646" lon="-1.86625">
        <ele>60.364211</ele>
        <time>2022-12-18T12:29:18.630Z</time>
      </trkpt>
      <trkpt lat="46.63637" lon="-1.86617">
        <ele>60.154636</ele>
        <time>2022-12-18T12:29:21.629Z</time>
      </trkpt>
      <trkpt lat="46.63628" lon="-1.86609">
        <ele>59.949395</ele>
        <time>2022-12-18T12:29:24.604Z</time>
      </trkpt>
      <trkpt lat="46.63619" lon="-1.866">
        <ele>59.744331</ele>
        <time>2022-12-18T12:29:27.606Z</time>
      </trkpt>
      <trkpt lat="46.6361" lon="-1.86591">
        <ele>59.52981</ele>
        <time>2022-12-18T12:29:30.633Z</time>
      </trkpt>
      <trkpt lat="46.63601" lon="-1.86582">
        <ele>59.308759</ele>
        <time>2022-12-18T12:29:33.629Z</time>
      </trkpt>
      <trkpt lat="46.63592" lon="-1.86573">
        <ele>59.079419</ele>
        <time>2022-12-18T12:29:36.631Z</time>
      </trkpt>
      <trkpt lat="46.63581" lon="-1.86565">
        <ele>58.845155</ele>
        <time>2022-12-18T12:29:39.631Z</time>
      </trkpt>
      <trkpt lat="46.63571" lon="-1.86557">
        <ele>58.615053</ele>
        <time>2022-12-18T12:29:42.620Z</time>
      </trkpt>
      <trkpt lat="46.6356" lon="-1.86552">
        <ele>58.387642</ele>
        <time>2022-12-18T12:29:45.629Z</time>
      </trkpt>
      <trkpt lat="46.63549" lon="-1.86547">
        <ele>58.16239</ele>
        <time>2022-12-18T12:29:48.631Z</time>
      </trkpt>
      <trkpt lat="46.63539" lon="-1.86542">
        <ele>57.941341</ele>
        <time>2022-12-18T12:29:51.633Z</time>
      </trkpt>
      <trkpt lat="46.63527" lon="-1.86538">
        <ele>57.710767</ele>
        <time>2022-12-18T12:29:54.629Z</time>
      </trkpt>
      <trkpt lat="46.63516" lon="-1.86533">
        <ele>57.468787</ele>
        <time>2022-12-18T12:29:57.626Z</time>
      </trkpt>
      <trkpt lat="46.63504" lon="-1.86529">
        <ele>57.256332</ele>
        <time>2022-12-18T12:30:00.634Z</time>
      </trkpt>
      <trkpt lat="46.63493" lon="-1.86523">
        <ele>57.149731</ele>
        <time>2022-12-18T12:30:03.604Z</time>
      </trkpt>
      <trkpt lat="46.63483" lon="-1.86516">
        <ele>57.047408</ele>
        <time>2022-12-18T12:30:06.647Z</time>
      </trkpt>
      <trkpt lat="46.63474" lon="-1.86508">
        <ele>56.953705</ele>
        <time>2022-12-18T12:30:09.638Z</time>
      </trkpt>
      <trkpt lat="46.63465" lon="-1.86496">
        <ele>56.843394</ele>
        <time>2022-12-18T12:30:12.607Z</time>
      </trkpt>
      <trkpt lat="46.63456" lon="-1.86481">
        <ele>56.72221</ele>
        <time>2022-12-18T12:30:15.627Z</time>
      </trkpt>
      <trkpt lat="46.63452" lon="-1.8647">
        <ele>56.639944</ele>
        <time>2022-12-18T12:30:17.629Z</time>
      </trkpt>
      <trkpt lat="46.63448" lon="-1.86457">
        <ele>56.553623</ele>
        <time>2022-12-18T12:30:19.634Z</time>
      </trkpt>
      <trkpt lat="46.63444" lon="-1.86444">
        <ele>56.463707</ele>
        <time>2022-12-18T12:30:21.628Z</time>
      </trkpt>
      <trkpt lat="46.63441" lon="-1.8643">
        <ele>56.372937</ele>
        <time>2022-12-18T12:30:23.629Z</time>
      </trkpt>
      <trkpt lat="46.63438" lon="-1.86416">
        <ele>56.280091</ele>
        <time>2022-12-18T12:30:25.627Z</time>
      </trkpt>
      <trkpt lat="46.63434" lon="-1.86402">
        <ele>56.188023</ele>
        <time>2022-12-18T12:30:27.626Z</time>
      </trkpt>
      <trkpt lat="46.6343" lon="-1.86388">
        <ele>56.092267</ele>
        <time>2022-12-18T12:30:29.631Z</time>
      </trkpt>
      <trkpt lat="46.63425" lon="-1.86375">
        <ele>55.997669</ele>
        <time>2022-12-18T12:30:31.642Z</time>
      </trkpt>
      <trkpt lat="46.63419" lon="-1.86362">
        <ele>55.903097</ele>
        <time>2022-12-18T12:30:33.696Z</time>
      </trkpt>
      <trkpt lat="46.63412" lon="-1.8635">
        <ele>55.804394</ele>
        <time>2022-12-18T12:30:35.626Z</time>
      </trkpt>
      <trkpt lat="46.63405" lon="-1.8634">
        <ele>55.716058</ele>
        <time>2022-12-18T12:30:37.610Z</time>
      </trkpt>
      <trkpt lat="46.63398" lon="-1.8633">
        <ele>55.695187</ele>
        <time>2022-12-18T12:30:39.641Z</time>
      </trkpt>
      <trkpt lat="46.6339" lon="-1.86321">
        <ele>55.882444</ele>
        <time>2022-12-18T12:30:41.637Z</time>
      </trkpt>
      <trkpt lat="46.63382" lon="-1.86312">
        <ele>56.072506</ele>
        <time>2022-12-18T12:30:43.638Z</time>
      </trkpt>
      <trkpt lat="46.63375" lon="-1.86302">
        <ele>56.256036</ele>
        <time>2022-12-18T12:30:45.642Z</time>
      </trkpt>
      <trkpt lat="46.63364" lon="-1.8629">
        <ele>56.511948</ele>
        <time>2022-12-18T12:30:48.628Z</time>
      </trkpt>
      <trkpt lat="46.63354" lon="-1.8628">
        <ele>56.753418</ele>
        <time>2022-12-18T12:30:51.616Z</time>
      </trkpt>
      <trkpt lat="46.63344" lon="-1.86271">
        <ele>56.966459</ele>
        <time>2022-12-18T12:30:54.632Z</time>
      </trkpt>
      <trkpt lat="46.63336" lon="-1.86263">
        <ele>57.15967</ele>
        <time>2022-12-18T12:30:57.611Z</time>
      </trkpt>
      <trkpt lat="46.63327" lon="-1.86255">
        <ele>57.348161</ele>
        <time>2022-12-18T12:31:00.613Z</time>
      </trkpt>
      <trkpt lat="46.63319" lon="-1.86248">
        <ele>57.529873</ele>
        <time>2022-12-18T12:31:03.623Z</time>
      </trkpt>
      <trkpt lat="46.63312" lon="-1.8624">
        <ele>57.702273</ele>
        <time>2022-12-18T12:31:06.630Z</time>
      </trkpt>
      <trkpt lat="46.63303" lon="-1.86231">
        <ele>57.913864</ele>
        <time>2022-12-18T12:31:10.611Z</time>
      </trkpt>
      <trkpt lat="46.63292" lon="-1.86226">
        <ele>58.11997</ele>
        <time>2022-12-18T12:31:14.619Z</time>
      </trkpt>
      <trkpt lat="46.63286" lon="-1.86214">
        <ele>58.313781</ele>
        <time>2022-12-18T12:31:18.627Z</time>
      </trkpt>
      <trkpt lat="46.63284" lon="-1.86199">
        <ele>58.515037</ele>
        <time>2022-12-18T12:31:22.638Z</time>
      </trkpt>
      <trkpt lat="46.63281" lon="-1.86186">
        <ele>58.693047</ele>
        <time>2022-12-18T12:31:25.623Z</time>
      </trkpt>
      <trkpt lat="46.63278" lon="-1.86173">
        <ele>58.865575</ele>
        <time>2022-12-18T12:31:28.641Z</time>
      </trkpt>
      <trkpt lat="46.63275" lon="-1.86161">
        <ele>59.037284</ele>
        <time>2022-12-18T12:31:31.616Z</time>
      </trkpt>
      <trkpt lat="46.63271" lon="-1.86149">
        <ele>59.064676</ele>
        <time>2022-12-18T12:31:34.630Z</time>
      </trkpt>
      <trkpt lat="46.63267" lon="-1.86136">
        <ele>59.07356</ele>
        <time>2022-12-18T12:31:37.625Z</time>
      </trkpt>
      <trkpt lat="46.63262" lon="-1.86125">
        <ele>59.082556</ele>
        <time>2022-12-18T12:31:40.613Z</time>
      </trkpt>
      <trkpt lat="46.63257" lon="-1.86113">
        <ele>59.09131</ele>
        <time>2022-12-18T12:31:43.614Z</time>
      </trkpt>
      <trkpt lat="46.63252" lon="-1.86103">
        <ele>59.100068</ele>
        <time>2022-12-18T12:31:46.608Z</time>
      </trkpt>
      <trkpt lat="46.63247" lon="-1.86092">
        <ele>59.108658</ele>
        <time>2022-12-18T12:31:49.661Z</time>
      </trkpt>
      <trkpt lat="46.63241" lon="-1.86081">
        <ele>59.117447</ele>
        <time>2022-12-18T12:31:52.636Z</time>
      </trkpt>
      <trkpt lat="46.63234" lon="-1.86072">
        <ele>59.126302</ele>
        <time>2022-12-18T12:31:55.637Z</time>
      </trkpt>
      <trkpt lat="46.63227" lon="-1.86064">
        <ele>59.134958</ele>
        <time>2022-12-18T12:31:58.625Z</time>
      </trkpt>
      <trkpt lat="46.6322" lon="-1.86055">
        <ele>59.144265</ele>
        <time>2022-12-18T12:32:01.632Z</time>
      </trkpt>
      <trkpt lat="46.63212" lon="-1.86045">
        <ele>59.153837</ele>
        <time>2022-12-18T12:32:04.616Z</time>
      </trkpt>
      <trkpt lat="46.63204" lon="-1.86034">
        <ele>59.16461</ele>
        <time>2022-12-18T12:32:08.629Z</time>
      </trkpt>
      <trkpt lat="46.63195" lon="-1.86022">
        <ele>59.175849</ele>
        <time>2022-12-18T12:32:12.628Z</time>
      </trkpt>
      <trkpt lat="46.63187" lon="-1.86015">
        <ele>59.185118</ele>
        <time>2022-12-18T12:32:15.616Z</time>
      </trkpt>
      <trkpt lat="46.63178" lon="-1.86008">
        <ele>59.194802</ele>
        <time>2022-12-18T12:32:18.627Z</time>
      </trkpt>
      <trkpt lat="46.63168" lon="-1.86003">
        <ele>59.204849</ele>
        <time>2022-12-18T12:32:21.629Z</time>
      </trkpt>
      <trkpt lat="46.63157" lon="-1.86">
        <ele>59.215159</ele>
        <time>2022-12-18T12:32:24.629Z</time>
      </trkpt>
      <trkpt lat="46.63146" lon="-1.85997">
        <ele>59.226086</ele>
        <time>2022-12-18T12:32:27.612Z</time>
      </trkpt>
      <trkpt lat="46.63134" lon="-1.85994">
        <ele>59.122253</ele>
        <time>2022-12-18T12:32:30.635Z</time>
      </trkpt>
      <trkpt lat="46.63123" lon="-1.85992">
        <ele>58.99734</ele>
        <time>2022-12-18T12:32:33.610Z</time>
      </trkpt>
      <trkpt lat="46.63112" lon="-1.85989">
        <ele>58.875837</ele>
        <time>2022-12-18T12:32:36.621Z</time>
      </trkpt>
      <trkpt lat="46.631" lon="-1.85985">
        <ele>58.73455</ele>
        <time>2022-12-18T12:32:39.679Z</time>
      </trkpt>
      <trkpt lat="46.63091" lon="-1.85983">
        <ele>58.631617</ele>
        <time>2022-12-18T12:32:41.626Z</time>
      </trkpt>
      <trkpt lat="46.63082" lon="-1.85979">
        <ele>58.52909</ele>
        <time>2022-12-18T12:32:43.624Z</time>
      </trkpt>
      <trkpt lat="46.63073" lon="-1.85975">
        <ele>58.428439</ele>
        <time>2022-12-18T12:32:45.639Z</time>
      </trkpt>
      <trkpt lat="46.63065" lon="-1.85969">
        <ele>58.326104</ele>
        <time>2022-12-18T12:32:47.622Z</time>
      </trkpt>
      <trkpt lat="46.63053" lon="-1.85961">
        <ele>58.182635</ele>
        <time>2022-12-18T12:32:50.631Z</time>
      </trkpt>
      <trkpt lat="46.63042" lon="-1.85952">
        <ele>58.039308</ele>
        <time>2022-12-18T12:32:53.630Z</time>
      </trkpt>
      <trkpt lat="46.63031" lon="-1.85943">
        <ele>57.903444</ele>
        <time>2022-12-18T12:32:56.618Z</time>
      </trkpt>
      <trkpt lat="46.63022" lon="-1.85934">
        <ele>57.778155</ele>
        <time>2022-12-18T12:32:59.619Z</time>
      </trkpt>
      <trkpt lat="46.63013" lon="-1.85928">
        <ele>57.664306</ele>
        <time>2022-12-18T12:33:02.617Z</time>
      </trkpt>
      <trkpt lat="46.63005" lon="-1.85921">
        <ele>57.559186</ele>
        <time>2022-12-18T12:33:05.631Z</time>
      </trkpt>
      <trkpt lat="46.62996" lon="-1.85912">
        <ele>57.440206</ele>
        <time>2022-12-18T12:33:08.624Z</time>
      </trkpt>
      <trkpt lat="46.62986" lon="-1.85902">
        <ele>57.306747</ele>
        <time>2022-12-18T12:33:11.608Z</time>
      </trkpt>
      <trkpt lat="46.62975" lon="-1.85893">
        <ele>57.307308</ele>
        <time>2022-12-18T12:33:14.630Z</time>
      </trkpt>
      <trkpt lat="46.62965" lon="-1.85882">
        <ele>57.476078</ele>
        <time>2022-12-18T12:33:17.631Z</time>
      </trkpt>
      <trkpt lat="46.62955" lon="-1.85872">
        <ele>57.640417</ele>
        <time>2022-12-18T12:33:20.634Z</time>
      </trkpt>
      <trkpt lat="46.62946" lon="-1.85863">
        <ele>57.799793</ele>
        <time>2022-12-18T12:33:23.640Z</time>
      </trkpt>
      <trkpt lat="46.62936" lon="-1.85854">
        <ele>57.954379</ele>
        <time>2022-12-18T12:33:26.619Z</time>
      </trkpt>
      <trkpt lat="46.62927" lon="-1.85846">
        <ele>58.105066</ele>
        <time>2022-12-18T12:33:29.612Z</time>
      </trkpt>
      <trkpt lat="46.62917" lon="-1.85839">
        <ele>58.248635</ele>
        <time>2022-12-18T12:33:32.629Z</time>
      </trkpt>
      <trkpt lat="46.62907" lon="-1.85834">
        <ele>58.394438</ele>
        <time>2022-12-18T12:33:35.616Z</time>
      </trkpt>
      <trkpt lat="46.629" lon="-1.85823">
        <ele>58.536289</ele>
        <time>2022-12-18T12:33:38.631Z</time>
      </trkpt>
      <trkpt lat="46.62893" lon="-1.85812">
        <ele>58.676564</ele>
        <time>2022-12-18T12:33:41.633Z</time>
      </trkpt>
      <trkpt lat="46.62885" lon="-1.85804">
        <ele>58.813295</ele>
        <time>2022-12-18T12:33:44.605Z</time>
      </trkpt>
      <trkpt lat="46.62876" lon="-1.85796">
        <ele>58.946379</ele>
        <time>2022-12-18T12:33:47.623Z</time>
      </trkpt>
      <trkpt lat="46.62868" lon="-1.85788">
        <ele>59.078749</ele>
        <time>2022-12-18T12:33:50.633Z</time>
      </trkpt>
      <trkpt lat="46.6286" lon="-1.8578">
        <ele>59.210332</ele>
        <time>2022-12-18T12:33:53.618Z</time>
      </trkpt>
      <trkpt lat="46.62851" lon="-1.85773">
        <ele>59.355537</ele>
        <time>2022-12-18T12:33:56.631Z</time>
      </trkpt>
      <trkpt lat="46.62842" lon="-1.85764">
        <ele>59.502882</ele>
        <time>2022-12-18T12:33:59.633Z</time>
      </trkpt>
      <trkpt lat="46.62833" lon="-1.85754">
        <ele>59.650117</ele>
        <time>2022-12-18T12:34:02.642Z</time>
      </trkpt>
      <trkpt lat="46.62825" lon="-1.85746">
        <ele>59.677041</ele>
        <time>2022-12-18T12:34:05.626Z</time>
      </trkpt>
      <trkpt lat="46.62817" lon="-1.85738">
        <ele>59.667067</ele>
        <time>2022-12-18T12:34:08.630Z</time>
      </trkpt>
      <trkpt lat="46.62808" lon="-1.85728">
        <ele>59.655255</ele>
        <time>2022-12-18T12:34:12.628Z</time>
      </trkpt>
      <trkpt lat="46.628" lon="-1.85717">
        <ele>59.644165</ele>
        <time>2022-12-18T12:34:16.625Z</time>
      </trkpt>
      <trkpt lat="46.62789" lon="-1.85711">
        <ele>59.631967</ele>
        <time>2022-12-18T12:34:20.629Z</time>
      </trkpt>
      <trkpt lat="46.62779" lon="-1.85707">
        <ele>59.621183</ele>
        <time>2022-12-18T12:34:23.632Z</time>
      </trkpt>
      <trkpt lat="46.6277" lon="-1.85698">
        <ele>59.610122</ele>
        <time>2022-12-18T12:34:26.613Z</time>
      </trkpt>
      <trkpt lat="46.62762" lon="-1.85687">
        <ele>59.599184</ele>
        <time>2022-12-18T12:34:29.635Z</time>
      </trkpt>
      <trkpt lat="46.62754" lon="-1.85676">
        <ele>59.587775</ele>
        <time>2022-12-18T12:34:32.626Z</time>
      </trkpt>
      <trkpt lat="46.62745" lon="-1.85665">
        <ele>59.575627</ele>
        <time>2022-12-18T12:34:35.622Z</time>
      </trkpt>
      <trkpt lat="46.62735" lon="-1.85655">
        <ele>59.563316</ele>
        <time>2022-12-18T12:34:38.619Z</time>
      </trkpt>
      <trkpt lat="46.62725" lon="-1.85646">
        <ele>59.550541</ele>
        <time>2022-12-18T12:34:41.611Z</time>
      </trkpt>
      <trkpt lat="46.62714" lon="-1.85636">
        <ele>59.537377</ele>
        <time>2022-12-18T12:34:44.634Z</time>
      </trkpt>
      <trkpt lat="46.62704" lon="-1.85625">
        <ele>59.5244</ele>
        <time>2022-12-18T12:34:47.610Z</time>
      </trkpt>
      <trkpt lat="46.62694" lon="-1.85614">
        <ele>59.511339</ele>
        <time>2022-12-18T12:34:50.612Z</time>
      </trkpt>
      <trkpt lat="46.62683" lon="-1.85603">
        <ele>59.49668</ele>
        <time>2022-12-18T12:34:53.612Z</time>
      </trkpt>
      <trkpt lat="46.62673" lon="-1.85595">
        <ele>59.472737</ele>
        <time>2022-12-18T12:34:56.639Z</time>
      </trkpt>
      <trkpt lat="46.62665" lon="-1.85586">
        <ele>59.452159</ele>
        <time>2022-12-18T12:34:59.631Z</time>
      </trkpt>
      <trkpt lat="46.62658" lon="-1.85575">
        <ele>59.430535</ele>
        <time>2022-12-18T12:35:02.634Z</time>
      </trkpt>
      <trkpt lat="46.62649" lon="-1.85565">
        <ele>59.407537</ele>
        <time>2022-12-18T12:35:05.640Z</time>
      </trkpt>
      <trkpt lat="46.62641" lon="-1.85556">
        <ele>59.385715</ele>
        <time>2022-12-18T12:35:08.685Z</time>
      </trkpt>
      <trkpt lat="46.62633" lon="-1.85548">
        <ele>59.365954</ele>
        <time>2022-12-18T12:35:11.634Z</time>
      </trkpt>
      <trkpt lat="46.62622" lon="-1.85538">
        <ele>59.340716</ele>
        <time>2022-12-18T12:35:15.617Z</time>
      </trkpt>
      <trkpt lat="46.62614" lon="-1.85529">
        <ele>59.319469</ele>
        <time>2022-12-18T12:35:18.638Z</time>
      </trkpt>
      <trkpt lat="46.62606" lon="-1.8552">
        <ele>59.297732</ele>
        <time>2022-12-18T12:35:21.641Z</time>
      </trkpt>
      <trkpt lat="46.62597" lon="-1.8551">
        <ele>59.27475</ele>
        <time>2022-12-18T12:35:24.699Z</time>
      </trkpt>
      <trkpt lat="46.62587" lon="-1.855">
        <ele>59.250437</ele>
        <time>2022-12-18T12:35:27.634Z</time>
      </trkpt>
      <trkpt lat="46.62577" lon="-1.8549">
        <ele>59.226459</ele>
        <time>2022-12-18T12:35:30.621Z</time>
      </trkpt>
      <trkpt lat="46.62568" lon="-1.8548">
        <ele>59.202716</ele>
        <time>2022-12-18T12:35:33.631Z</time>
      </trkpt>
      <trkpt lat="46.62559" lon="-1.85469">
        <ele>59.179294</ele>
        <time>2022-12-18T12:35:36.623Z</time>
      </trkpt>
      <trkpt lat="46.6255" lon="-1.8546">
        <ele>59.156394</ele>
        <time>2022-12-18T12:35:39.643Z</time>
      </trkpt>
      <trkpt lat="46.62541" lon="-1.8545">
        <ele>59.133483</ele>
        <time>2022-12-18T12:35:42.630Z</time>
      </trkpt>
      <trkpt lat="46.62532" lon="-1.8544">
        <ele>59.28591</ele>
        <time>2022-12-18T12:35:45.634Z</time>
      </trkpt>
      <trkpt lat="46.62524" lon="-1.8543">
        <ele>59.450271</ele>
        <time>2022-12-18T12:35:48.634Z</time>
      </trkpt>
      <trkpt lat="46.62515" lon="-1.85421">
        <ele>59.620164</ele>
        <time>2022-12-18T12:35:52.642Z</time>
      </trkpt>
      <trkpt lat="46.62506" lon="-1.8541">
        <ele>59.79161</ele>
        <time>2022-12-18T12:35:57.641Z</time>
      </trkpt>
      <trkpt lat="46.62499" lon="-1.85402">
        <ele>59.933789</ele>
        <time>2022-12-18T12:36:01.635Z</time>
      </trkpt>
      <trkpt lat="46.62492" lon="-1.85393">
        <ele>60.07798</ele>
        <time>2022-12-18T12:36:05.624Z</time>
      </trkpt>
      <trkpt lat="46.62485" lon="-1.85384">
        <ele>60.21668</ele>
        <time>2022-12-18T12:36:09.627Z</time>
      </trkpt>
      <trkpt lat="46.62478" lon="-1.85372">
        <ele>60.38894</ele>
        <time>2022-12-18T12:36:14.639Z</time>
      </trkpt>
      <trkpt lat="46.62472" lon="-1.85361">
        <ele>60.533263</ele>
        <time>2022-12-18T12:36:18.628Z</time>
      </trkpt>
      <trkpt lat="46.62465" lon="-1.85349">
        <ele>60.695365</ele>
        <time>2022-12-18T12:36:22.635Z</time>
      </trkpt>
      <trkpt lat="46.62458" lon="-1.85338">
        <ele>60.854248</ele>
        <time>2022-12-18T12:36:26.643Z</time>
      </trkpt>
      <trkpt lat="46.62449" lon="-1.85329">
        <ele>61.026041</ele>
        <time>2022-12-18T12:36:30.627Z</time>
      </trkpt>
      <trkpt lat="46.62439" lon="-1.8532">
        <ele>61.197298</ele>
        <time>2022-12-18T12:36:34.630Z</time>
      </trkpt>
      <trkpt lat="46.6243" lon="-1.85311">
        <ele>61.371724</ele>
        <time>2022-12-18T12:36:39.630Z</time>
      </trkpt>
      <trkpt lat="46.62422" lon="-1.85303">
        <ele>61.527353</ele>
        <time>2022-12-18T12:36:43.613Z</time>
      </trkpt>
      <trkpt lat="46.62413" lon="-1.85294">
        <ele>61.686121</ele>
        <time>2022-12-18T12:36:47.622Z</time>
      </trkpt>
      <trkpt lat="46.62405" lon="-1.85286">
        <ele>61.841535</ele>
        <time>2022-12-18T12:36:51.624Z</time>
      </trkpt>
      <trkpt lat="46.62396" lon="-1.85277">
        <ele>61.974329</ele>
        <time>2022-12-18T12:36:55.613Z</time>
      </trkpt>
      <trkpt lat="46.62386" lon="-1.85268">
        <ele>62.10328</ele>
        <time>2022-12-18T12:36:59.629Z</time>
      </trkpt>
      <trkpt lat="46.62377" lon="-1.85259">
        <ele>62.23045</ele>
        <time>2022-12-18T12:37:03.614Z</time>
      </trkpt>
      <trkpt lat="46.62367" lon="-1.85249">
        <ele>62.362541</ele>
        <time>2022-12-18T12:37:07.624Z</time>
      </trkpt>
      <trkpt lat="46.62357" lon="-1.8524">
        <ele>62.493611</ele>
        <time>2022-12-18T12:37:11.642Z</time>
      </trkpt>
      <trkpt lat="46.62348" lon="-1.85231">
        <ele>62.617023</ele>
        <time>2022-12-18T12:37:15.631Z</time>
      </trkpt>
      <trkpt lat="46.62341" lon="-1.85223">
        <ele>62.718295</ele>
        <time>2022-12-18T12:37:19.615Z</time>
      </trkpt>
      <trkpt lat="46.62332" lon="-1.85214">
        <ele>62.838093</ele>
        <time>2022-12-18T12:37:23.635Z</time>
      </trkpt>
      <trkpt lat="46.62322" lon="-1.85205">
        <ele>62.973227</ele>
        <time>2022-12-18T12:37:27.631Z</time>
      </trkpt>
      <trkpt lat="46.62313" lon="-1.85198">
        <ele>63.08267</ele>
        <time>2022-12-18T12:37:30.634Z</time>
      </trkpt>
      <trkpt lat="46.62304" lon="-1.85191">
        <ele>63.19188</ele>
        <time>2022-12-18T12:37:33.645Z</time>
      </trkpt>
      <trkpt lat="46.62295" lon="-1.85186">
        <ele>63.30329</ele>
        <time>2022-12-18T12:37:36.636Z</time>
      </trkpt>
      <trkpt lat="46.62285" lon="-1.85182">
        <ele>63.422838</ele>
        <time>2022-12-18T12:37:39.628Z</time>
      </trkpt>
      <trkpt lat="46.62278" lon="-1.85171">
        <ele>63.540704</ele>
        <time>2022-12-18T12:37:42.632Z</time>
      </trkpt>
      <trkpt lat="46.62271" lon="-1.85158">
        <ele>63.664808</ele>
        <time>2022-12-18T12:37:45.634Z</time>
      </trkpt>
      <trkpt lat="46.62263" lon="-1.85148">
        <ele>63.785778</ele>
        <time>2022-12-18T12:37:48.685Z</time>
      </trkpt>
      <trkpt lat="46.62254" lon="-1.85139">
        <ele>63.896807</ele>
        <time>2022-12-18T12:37:51.625Z</time>
      </trkpt>
      <trkpt lat="46.62244" lon="-1.85131">
        <ele>63.832149</ele>
        <time>2022-12-18T12:37:54.617Z</time>
      </trkpt>
      <trkpt lat="46.62235" lon="-1.85123">
        <ele>63.769986</ele>
        <time>2022-12-18T12:37:57.628Z</time>
      </trkpt>
      <trkpt lat="46.62226" lon="-1.85114">
        <ele>63.708402</ele>
        <time>2022-12-18T12:38:00.629Z</time>
      </trkpt>
      <trkpt lat="46.62217" lon="-1.85106">
        <ele>63.642954</ele>
        <time>2022-12-18T12:38:03.631Z</time>
      </trkpt>
      <trkpt lat="46.62208" lon="-1.851">
        <ele>63.583986</ele>
        <time>2022-12-18T12:38:06.615Z</time>
      </trkpt>
      <trkpt lat="46.62198" lon="-1.85094">
        <ele>63.525861</ele>
        <time>2022-12-18T12:38:09.670Z</time>
      </trkpt>
      <trkpt lat="46.62188" lon="-1.85088">
        <ele>63.461707</ele>
        <time>2022-12-18T12:38:12.614Z</time>
      </trkpt>
      <trkpt lat="46.62177" lon="-1.85083">
        <ele>63.394224</ele>
        <time>2022-12-18T12:38:15.625Z</time>
      </trkpt>
      <trkpt lat="46.62166" lon="-1.85078">
        <ele>63.326061</ele>
        <time>2022-12-18T12:38:18.631Z</time>
      </trkpt>
      <trkpt lat="46.62155" lon="-1.85072">
        <ele>63.256411</ele>
        <time>2022-12-18T12:38:21.644Z</time>
      </trkpt>
      <trkpt lat="46.62143" lon="-1.85067">
        <ele>63.182123</ele>
        <time>2022-12-18T12:38:24.613Z</time>
      </trkpt>
      <trkpt lat="46.6213" lon="-1.85061">
        <ele>63.10409</ele>
        <time>2022-12-18T12:38:27.625Z</time>
      </trkpt>
      <trkpt lat="46.62121" lon="-1.85057">
        <ele>63.049858</ele>
        <time>2022-12-18T12:38:29.631Z</time>
      </trkpt>
      <trkpt lat="46.62112" lon="-1.85053">
        <ele>62.996741</ele>
        <time>2022-12-18T12:38:31.646Z</time>
      </trkpt>
      <trkpt lat="46.62103" lon="-1.85048">
        <ele>62.940401</ele>
        <time>2022-12-18T12:38:33.633Z</time>
      </trkpt>
      <trkpt lat="46.62094" lon="-1.85044">
        <ele>62.881675</ele>
        <time>2022-12-18T12:38:35.646Z</time>
      </trkpt>
      <trkpt lat="46.62085" lon="-1.8504">
        <ele>62.834787</ele>
        <time>2022-12-18T12:38:37.640Z</time>
      </trkpt>
      <trkpt lat="46.62072" lon="-1.85035">
        <ele>62.779116</ele>
        <time>2022-12-18T12:38:40.626Z</time>
      </trkpt>
      <trkpt lat="46.62061" lon="-1.8503">
        <ele>62.72811</ele>
        <time>2022-12-18T12:38:43.624Z</time>
      </trkpt>
      <trkpt lat="46.6205" lon="-1.85025">
        <ele>62.678812</ele>
        <time>2022-12-18T12:38:46.615Z</time>
      </trkpt>
      <trkpt lat="46.62038" lon="-1.8502">
        <ele>62.627362</ele>
        <time>2022-12-18T12:38:49.630Z</time>
      </trkpt>
      <trkpt lat="46.62026" lon="-1.85014">
        <ele>62.573403</ele>
        <time>2022-12-18T12:38:52.675Z</time>
      </trkpt>
      <trkpt lat="46.62014" lon="-1.85008">
        <ele>62.518054</ele>
        <time>2022-12-18T12:38:55.634Z</time>
      </trkpt>
      <trkpt lat="46.62001" lon="-1.85001">
        <ele>62.463128</ele>
        <time>2022-12-18T12:38:58.611Z</time>
      </trkpt>
      <trkpt lat="46.61989" lon="-1.84994">
        <ele>62.407948</ele>
        <time>2022-12-18T12:39:01.614Z</time>
      </trkpt>
      <trkpt lat="46.61978" lon="-1.84987">
        <ele>62.355677</ele>
        <time>2022-12-18T12:39:04.611Z</time>
      </trkpt>
      <trkpt lat="46.61968" lon="-1.84981">
        <ele>62.308276</ele>
        <time>2022-12-18T12:39:07.612Z</time>
      </trkpt>
      <trkpt lat="46.61958" lon="-1.84974">
        <ele>62.261151</ele>
        <time>2022-12-18T12:39:10.629Z</time>
      </trkpt>
      <trkpt lat="46.61947" lon="-1.84968">
        <ele>62.21375</ele>
        <time>2022-12-18T12:39:13.640Z</time>
      </trkpt>
      <trkpt lat="46.61937" lon="-1.84961">
        <ele>62.167429</ele>
        <time>2022-12-18T12:39:16.630Z</time>
      </trkpt>
      <trkpt lat="46.61927" lon="-1.84954">
        <ele>62.119456</ele>
        <time>2022-12-18T12:39:19.663Z</time>
      </trkpt>
      <trkpt lat="46.61918" lon="-1.84947">
        <ele>62.093441</ele>
        <time>2022-12-18T12:39:22.627Z</time>
      </trkpt>
      <trkpt lat="46.61907" lon="-1.8494">
        <ele>62.116105</ele>
        <time>2022-12-18T12:39:26.632Z</time>
      </trkpt>
      <trkpt lat="46.61898" lon="-1.84934">
        <ele>62.135201</ele>
        <time>2022-12-18T12:39:29.641Z</time>
      </trkpt>
      <trkpt lat="46.61889" lon="-1.84928">
        <ele>62.154212</ele>
        <time>2022-12-18T12:39:32.635Z</time>
      </trkpt>
      <trkpt lat="46.6188" lon="-1.84922">
        <ele>62.172906</ele>
        <time>2022-12-18T12:39:35.652Z</time>
      </trkpt>
      <trkpt lat="46.61871" lon="-1.84916">
        <ele>62.191551</ele>
        <time>2022-12-18T12:39:38.643Z</time>
      </trkpt>
      <trkpt lat="46.61862" lon="-1.8491">
        <ele>62.210991</ele>
        <time>2022-12-18T12:39:41.696Z</time>
      </trkpt>
      <trkpt lat="46.61852" lon="-1.84903">
        <ele>62.230592</ele>
        <time>2022-12-18T12:39:44.611Z</time>
      </trkpt>
      <trkpt lat="46.61843" lon="-1.84897">
        <ele>62.249808</ele>
        <time>2022-12-18T12:39:47.632Z</time>
      </trkpt>
      <trkpt lat="46.61834" lon="-1.84891">
        <ele>62.269023</ele>
        <time>2022-12-18T12:39:50.641Z</time>
      </trkpt>
      <trkpt lat="46.61825" lon="-1.84885">
        <ele>62.287605</ele>
        <time>2022-12-18T12:39:53.641Z</time>
      </trkpt>
      <trkpt lat="46.61816" lon="-1.84879">
        <ele>62.305337</ele>
        <time>2022-12-18T12:39:56.635Z</time>
      </trkpt>
      <trkpt lat="46.61808" lon="-1.84873">
        <ele>62.323634</ele>
        <time>2022-12-18T12:39:59.628Z</time>
      </trkpt>
      <trkpt lat="46.61799" lon="-1.84867">
        <ele>62.342333</ele>
        <time>2022-12-18T12:40:02.625Z</time>
      </trkpt>
      <trkpt lat="46.61789" lon="-1.8486">
        <ele>62.362446</ele>
        <time>2022-12-18T12:40:06.619Z</time>
      </trkpt>
      <trkpt lat="46.6178" lon="-1.84855">
        <ele>62.381089</ele>
        <time>2022-12-18T12:40:10.628Z</time>
      </trkpt>
      <trkpt lat="46.6177" lon="-1.84848">
        <ele>62.402275</ele>
        <time>2022-12-18T12:40:14.673Z</time>
      </trkpt>
      <trkpt lat="46.61761" lon="-1.84842">
        <ele>62.419866</ele>
        <time>2022-12-18T12:40:17.637Z</time>
      </trkpt>
      <trkpt lat="46.61753" lon="-1.84837">
        <ele>62.4251</ele>
        <time>2022-12-18T12:40:20.634Z</time>
      </trkpt>
      <trkpt lat="46.61745" lon="-1.84831">
        <ele>62.419532</ele>
        <time>2022-12-18T12:40:23.629Z</time>
      </trkpt>
      <trkpt lat="46.61736" lon="-1.84826">
        <ele>62.414007</ele>
        <time>2022-12-18T12:40:26.624Z</time>
      </trkpt>
      <trkpt lat="46.61728" lon="-1.84821">
        <ele>62.408498</ele>
        <time>2022-12-18T12:40:29.633Z</time>
      </trkpt>
      <trkpt lat="46.61716" lon="-1.84816">
        <ele>62.401504</ele>
        <time>2022-12-18T12:40:33.634Z</time>
      </trkpt>
      <trkpt lat="46.61708" lon="-1.84811">
        <ele>62.396055</ele>
        <time>2022-12-18T12:40:36.632Z</time>
      </trkpt>
      <trkpt lat="46.61699" lon="-1.84808">
        <ele>62.390551</ele>
        <time>2022-12-18T12:40:39.634Z</time>
      </trkpt>
      <trkpt lat="46.6169" lon="-1.84805">
        <ele>62.385067</ele>
        <time>2022-12-18T12:40:42.644Z</time>
      </trkpt>
      <trkpt lat="46.61679" lon="-1.84802">
        <ele>62.378478</ele>
        <time>2022-12-18T12:40:46.676Z</time>
      </trkpt>
      <trkpt lat="46.6167" lon="-1.848">
        <ele>62.372959</ele>
        <time>2022-12-18T12:40:49.634Z</time>
      </trkpt>
      <trkpt lat="46.61661" lon="-1.84799">
        <ele>62.367272</ele>
        <time>2022-12-18T12:40:52.641Z</time>
      </trkpt>
      <trkpt lat="46.61652" lon="-1.84797">
        <ele>62.361774</ele>
        <time>2022-12-18T12:40:55.629Z</time>
      </trkpt>
      <trkpt lat="46.61642" lon="-1.84797">
        <ele>62.355945</ele>
        <time>2022-12-18T12:40:58.629Z</time>
      </trkpt>
      <trkpt lat="46.61632" lon="-1.84796">
        <ele>62.349931</ele>
        <time>2022-12-18T12:41:01.629Z</time>
      </trkpt>
      <trkpt lat="46.61622" lon="-1.84797">
        <ele>62.34362</ele>
        <time>2022-12-18T12:41:04.627Z</time>
      </trkpt>
      <trkpt lat="46.61611" lon="-1.84798">
        <ele>62.336918</ele>
        <time>2022-12-18T12:41:07.626Z</time>
      </trkpt>
      <trkpt lat="46.61599" lon="-1.848">
        <ele>62.330147</ele>
        <time>2022-12-18T12:41:10.614Z</time>
      </trkpt>
      <trkpt lat="46.61589" lon="-1.84802">
        <ele>62.323605</ele>
        <time>2022-12-18T12:41:13.617Z</time>
      </trkpt>
      <trkpt lat="46.61578" lon="-1.84804">
        <ele>62.351012</ele>
        <time>2022-12-18T12:41:16.610Z</time>
      </trkpt>
      <trkpt lat="46.61567" lon="-1.84805">
        <ele>62.43481</ele>
        <time>2022-12-18T12:41:19.618Z</time>
      </trkpt>
      <trkpt lat="46.61556" lon="-1.84807">
        <ele>62.522396</ele>
        <time>2022-12-18T12:41:22.618Z</time>
      </trkpt>
      <trkpt lat="46.61543" lon="-1.84809">
        <ele>62.614573</ele>
        <time>2022-12-18T12:41:25.637Z</time>
      </trkpt>
      <trkpt lat="46.61531" lon="-1.8481">
        <ele>62.708626</ele>
        <time>2022-12-18T12:41:28.636Z</time>
      </trkpt>
      <trkpt lat="46.61519" lon="-1.84812">
        <ele>62.800747</ele>
        <time>2022-12-18T12:41:31.642Z</time>
      </trkpt>
      <trkpt lat="46.61508" lon="-1.84814">
        <ele>62.885145</ele>
        <time>2022-12-18T12:41:34.619Z</time>
      </trkpt>
      <trkpt lat="46.61497" lon="-1.84815">
        <ele>62.962768</ele>
        <time>2022-12-18T12:41:37.633Z</time>
      </trkpt>
      <trkpt lat="46.61486" lon="-1.84816">
        <ele>63.047708</ele>
        <time>2022-12-18T12:41:40.621Z</time>
      </trkpt>
      <trkpt lat="46.61474" lon="-1.84816">
        <ele>63.13634</ele>
        <time>2022-12-18T12:41:43.633Z</time>
      </trkpt>
      <trkpt lat="46.61462" lon="-1.84817">
        <ele>63.228055</ele>
        <time>2022-12-18T12:41:46.610Z</time>
      </trkpt>
      <trkpt lat="46.61449" lon="-1.84817">
        <ele>63.323419</ele>
        <time>2022-12-18T12:41:49.630Z</time>
      </trkpt>
      <trkpt lat="46.61436" lon="-1.84816">
        <ele>63.420504</ele>
        <time>2022-12-18T12:41:52.615Z</time>
      </trkpt>
      <trkpt lat="46.61424" lon="-1.84813">
        <ele>63.516529</ele>
        <time>2022-12-18T12:41:55.624Z</time>
      </trkpt>
      <trkpt lat="46.61411" lon="-1.84812">
        <ele>63.610089</ele>
        <time>2022-12-18T12:41:58.642Z</time>
      </trkpt>
      <trkpt lat="46.614" lon="-1.84811">
        <ele>63.659905</ele>
        <time>2022-12-18T12:42:01.644Z</time>
      </trkpt>
      <trkpt lat="46.61389" lon="-1.84808">
        <ele>63.624664</ele>
        <time>2022-12-18T12:42:04.639Z</time>
      </trkpt>
      <trkpt lat="46.61379" lon="-1.84806">
        <ele>63.589452</ele>
        <time>2022-12-18T12:42:07.615Z</time>
      </trkpt>
      <trkpt lat="46.61368" lon="-1.84804">
        <ele>63.553502</ele>
        <time>2022-12-18T12:42:10.635Z</time>
      </trkpt>
      <trkpt lat="46.61357" lon="-1.84802">
        <ele>63.517696</ele>
        <time>2022-12-18T12:42:13.614Z</time>
      </trkpt>
      <trkpt lat="46.61346" lon="-1.84802">
        <ele>63.483397</ele>
        <time>2022-12-18T12:42:16.624Z</time>
      </trkpt>
      <trkpt lat="46.61336" lon="-1.848">
        <ele>63.448537</ele>
        <time>2022-12-18T12:42:19.631Z</time>
      </trkpt>
      <trkpt lat="46.61324" lon="-1.84798">
        <ele>63.410324</ele>
        <time>2022-12-18T12:42:22.675Z</time>
      </trkpt>
      <trkpt lat="46.61312" lon="-1.84796">
        <ele>63.369302</ele>
        <time>2022-12-18T12:42:25.632Z</time>
      </trkpt>
      <trkpt lat="46.613" lon="-1.84794">
        <ele>63.329602</ele>
        <time>2022-12-18T12:42:28.635Z</time>
      </trkpt>
      <trkpt lat="46.61288" lon="-1.84791">
        <ele>63.292509</ele>
        <time>2022-12-18T12:42:31.631Z</time>
      </trkpt>
      <trkpt lat="46.61276" lon="-1.84789">
        <ele>63.253003</ele>
        <time>2022-12-18T12:42:34.638Z</time>
      </trkpt>
      <trkpt lat="46.61263" lon="-1.84787">
        <ele>63.209312</ele>
        <time>2022-12-18T12:42:37.641Z</time>
      </trkpt>
      <trkpt lat="46.6125" lon="-1.84784">
        <ele>63.16477</ele>
        <time>2022-12-18T12:42:40.640Z</time>
      </trkpt>
      <trkpt lat="46.61236" lon="-1.84782">
        <ele>63.121799</ele>
        <time>2022-12-18T12:42:43.614Z</time>
      </trkpt>
      <trkpt lat="46.61224" lon="-1.8478">
        <ele>63.083061</ele>
        <time>2022-12-18T12:42:46.632Z</time>
      </trkpt>
      <trkpt lat="46.61212" lon="-1.84778">
        <ele>63.080222</ele>
        <time>2022-12-18T12:42:49.638Z</time>
      </trkpt>
      <trkpt lat="46.61202" lon="-1.84777">
        <ele>63.077702</ele>
        <time>2022-12-18T12:42:52.631Z</time>
      </trkpt>
      <trkpt lat="46.61192" lon="-1.84776">
        <ele>63.075302</ele>
        <time>2022-12-18T12:42:55.613Z</time>
      </trkpt>
      <trkpt lat="46.61181" lon="-1.84775">
        <ele>63.072742</ele>
        <time>2022-12-18T12:42:58.639Z</time>
      </trkpt>
      <trkpt lat="46.6117" lon="-1.84775">
        <ele>63.070112</ele>
        <time>2022-12-18T12:43:01.613Z</time>
      </trkpt>
      <trkpt lat="46.6116" lon="-1.84776">
        <ele>63.067576</ele>
        <time>2022-12-18T12:43:04.627Z</time>
      </trkpt>
      <trkpt lat="46.6115" lon="-1.8478">
        <ele>63.065173</ele>
        <time>2022-12-18T12:43:07.629Z</time>
      </trkpt>
      <trkpt lat="46.61145" lon="-1.84792">
        <ele>63.062919</ele>
        <time>2022-12-18T12:43:10.683Z</time>
      </trkpt>
      <trkpt lat="46.61137" lon="-1.84804">
        <ele>63.060038</ele>
        <time>2022-12-18T12:43:14.626Z</time>
      </trkpt>
      <trkpt lat="46.61127" lon="-1.84807">
        <ele>63.057545</ele>
        <time>2022-12-18T12:43:17.628Z</time>
      </trkpt>
      <trkpt lat="46.61116" lon="-1.84801">
        <ele>63.05482</ele>
        <time>2022-12-18T12:43:20.617Z</time>
      </trkpt>
      <trkpt lat="46.61109" lon="-1.84787">
        <ele>63.051978</ele>
        <time>2022-12-18T12:43:23.615Z</time>
      </trkpt>
      <trkpt lat="46.61106" lon="-1.8477">
        <ele>63.049197</ele>
        <time>2022-12-18T12:43:26.631Z</time>
      </trkpt>
      <trkpt lat="46.61105" lon="-1.84755">
        <ele>63.046603</ele>
        <time>2022-12-18T12:43:29.634Z</time>
      </trkpt>
      <trkpt lat="46.61102" lon="-1.84741">
        <ele>63.044279</ele>
        <time>2022-12-18T12:43:32.622Z</time>
      </trkpt>
      <trkpt lat="46.61097" lon="-1.8473">
        <ele>63.041996</ele>
        <time>2022-12-18T12:43:35.626Z</time>
      </trkpt>
      <trkpt lat="46.61091" lon="-1.8472">
        <ele>63.034258</ele>
        <time>2022-12-18T12:43:38.638Z</time>
      </trkpt>
      <trkpt lat="46.61084" lon="-1.84709">
        <ele>62.819026</ele>
        <time>2022-12-18T12:43:41.624Z</time>
      </trkpt>
      <trkpt lat="46.61074" lon="-1.84697">
        <ele>62.568154</ele>
        <time>2022-12-18T12:43:44.630Z</time>
      </trkpt>
      <trkpt lat="46.61063" lon="-1.84687">
        <ele>62.304472</ele>
        <time>2022-12-18T12:43:47.619Z</time>
      </trkpt>
      <trkpt lat="46.61052" lon="-1.84677">
        <ele>62.034864</ele>
        <time>2022-12-18T12:43:50.624Z</time>
      </trkpt>
      <trkpt lat="46.6104" lon="-1.84668">
        <ele>61.769784</ele>
        <time>2022-12-18T12:43:53.626Z</time>
      </trkpt>
      <trkpt lat="46.61029" lon="-1.84658">
        <ele>61.510274</ele>
        <time>2022-12-18T12:43:56.631Z</time>
      </trkpt>
      <trkpt lat="46.61019" lon="-1.8465">
        <ele>61.273133</ele>
        <time>2022-12-18T12:43:59.633Z</time>
      </trkpt>
      <trkpt lat="46.61009" lon="-1.84641">
        <ele>61.026602</ele>
        <time>2022-12-18T12:44:02.620Z</time>
      </trkpt>
      <trkpt lat="46.60998" lon="-1.84631">
        <ele>60.778648</ele>
        <time>2022-12-18T12:44:05.639Z</time>
      </trkpt>
      <trkpt lat="46.60988" lon="-1.84622">
        <ele>60.530235</ele>
        <time>2022-12-18T12:44:08.626Z</time>
      </trkpt>
      <trkpt lat="46.60977" lon="-1.84614">
        <ele>60.281993</ele>
        <time>2022-12-18T12:44:11.630Z</time>
      </trkpt>
      <trkpt lat="46.60966" lon="-1.84605">
        <ele>60.024248</ele>
        <time>2022-12-18T12:44:14.629Z</time>
      </trkpt>
      <trkpt lat="46.60958" lon="-1.84598">
        <ele>59.840879</ele>
        <time>2022-12-18T12:44:16.624Z</time>
      </trkpt>
      <trkpt lat="46.6095" lon="-1.84592">
        <ele>59.653929</ele>
        <time>2022-12-18T12:44:18.631Z</time>
      </trkpt>
      <trkpt lat="46.60941" lon="-1.84585">
        <ele>59.457729</ele>
        <time>2022-12-18T12:44:20.627Z</time>
      </trkpt>
      <trkpt lat="46.60932" lon="-1.84578">
        <ele>59.101918</ele>
        <time>2022-12-18T12:44:22.639Z</time>
      </trkpt>
      <trkpt lat="46.60923" lon="-1.8457">
        <ele>58.661193</ele>
        <time>2022-12-18T12:44:24.632Z</time>
      </trkpt>
      <trkpt lat="46.60913" lon="-1.84563">
        <ele>58.217562</ele>
        <time>2022-12-18T12:44:26.640Z</time>
      </trkpt>
      <trkpt lat="46.60904" lon="-1.84554">
        <ele>57.770353</ele>
        <time>2022-12-18T12:44:28.633Z</time>
      </trkpt>
      <trkpt lat="46.60895" lon="-1.84545">
        <ele>57.320821</ele>
        <time>2022-12-18T12:44:30.628Z</time>
      </trkpt>
      <trkpt lat="46.60887" lon="-1.84535">
        <ele>56.8792</ele>
        <time>2022-12-18T12:44:32.645Z</time>
      </trkpt>
      <trkpt lat="46.60878" lon="-1.84525">
        <ele>56.438476</ele>
        <time>2022-12-18T12:44:34.629Z</time>
      </trkpt>
      <trkpt lat="46.6087" lon="-1.84515">
        <ele>56.00085</ele>
        <time>2022-12-18T12:44:36.676Z</time>
      </trkpt>
      <trkpt lat="46.60864" lon="-1.84504">
        <ele>55.583974</ele>
        <time>2022-12-18T12:44:38.643Z</time>
      </trkpt>
      <trkpt lat="46.60857" lon="-1.84493">
        <ele>55.167636</ele>
        <time>2022-12-18T12:44:40.636Z</time>
      </trkpt>
      <trkpt lat="46.60851" lon="-1.84481">
        <ele>54.750634</ele>
        <time>2022-12-18T12:44:42.641Z</time>
      </trkpt>
      <trkpt lat="46.60844" lon="-1.8447">
        <ele>54.331063</ele>
        <time>2022-12-18T12:44:44.642Z</time>
      </trkpt>
      <trkpt lat="46.60838" lon="-1.84457">
        <ele>53.909897</ele>
        <time>2022-12-18T12:44:46.638Z</time>
      </trkpt>
      <trkpt lat="46.60832" lon="-1.84445">
        <ele>53.479501</ele>
        <time>2022-12-18T12:44:48.643Z</time>
      </trkpt>
      <trkpt lat="46.60827" lon="-1.84432">
        <ele>53.050328</ele>
        <time>2022-12-18T12:44:50.639Z</time>
      </trkpt>
      <trkpt lat="46.6082" lon="-1.84418">
        <ele>52.592055</ele>
        <time>2022-12-18T12:44:52.636Z</time>
      </trkpt>
      <trkpt lat="46.60815" lon="-1.84404">
        <ele>52.132447</ele>
        <time>2022-12-18T12:44:54.618Z</time>
      </trkpt>
      <trkpt lat="46.6081" lon="-1.84388">
        <ele>52.309527</ele>
        <time>2022-12-18T12:44:56.635Z</time>
      </trkpt>
      <trkpt lat="46.60806" lon="-1.84373">
        <ele>52.634443</ele>
        <time>2022-12-18T12:44:58.629Z</time>
      </trkpt>
      <trkpt lat="46.60802" lon="-1.84356">
        <ele>52.953312</ele>
        <time>2022-12-18T12:45:00.628Z</time>
      </trkpt>
      <trkpt lat="46.60798" lon="-1.84343">
        <ele>53.239836</ele>
        <time>2022-12-18T12:45:02.634Z</time>
      </trkpt>
      <trkpt lat="46.60795" lon="-1.84329">
        <ele>53.511473</ele>
        <time>2022-12-18T12:45:04.642Z</time>
      </trkpt>
      <trkpt lat="46.6079" lon="-1.84312">
        <ele>53.856129</ele>
        <time>2022-12-18T12:45:07.644Z</time>
      </trkpt>
      <trkpt lat="46.60787" lon="-1.84296">
        <ele>54.176738</ele>
        <time>2022-12-18T12:45:10.620Z</time>
      </trkpt>
      <trkpt lat="46.60783" lon="-1.84282">
        <ele>54.45924</ele>
        <time>2022-12-18T12:45:13.644Z</time>
      </trkpt>
      <trkpt lat="46.60779" lon="-1.84268">
        <ele>54.729229</ele>
        <time>2022-12-18T12:45:17.626Z</time>
      </trkpt>
      <trkpt lat="46.60774" lon="-1.84258">
        <ele>54.977902</ele>
        <time>2022-12-18T12:45:21.620Z</time>
      </trkpt>
      <trkpt lat="46.60769" lon="-1.84243">
        <ele>55.275278</ele>
        <time>2022-12-18T12:45:26.626Z</time>
      </trkpt>
      <trkpt lat="46.60766" lon="-1.84231">
        <ele>55.538551</ele>
        <time>2022-12-18T12:45:30.678Z</time>
      </trkpt>
      <trkpt lat="46.60762" lon="-1.84217">
        <ele>55.825173</ele>
        <time>2022-12-18T12:45:35.637Z</time>
      </trkpt>
      <trkpt lat="46.60759" lon="-1.84204">
        <ele>56.081756</ele>
        <time>2022-12-18T12:45:39.636Z</time>
      </trkpt>
      <trkpt lat="46.60755" lon="-1.84189">
        <ele>56.374652</ele>
        <time>2022-12-18T12:45:44.632Z</time>
      </trkpt>
      <trkpt lat="46.60751" lon="-1.84176">
        <ele>56.646303</ele>
        <time>2022-12-18T12:45:49.634Z</time>
      </trkpt>
      <trkpt lat="46.60747" lon="-1.84162">
        <ele>56.937192</ele>
        <time>2022-12-18T12:45:54.627Z</time>
      </trkpt>
      <trkpt lat="46.60744" lon="-1.84147">
        <ele>57.227518</ele>
        <time>2022-12-18T12:45:59.629Z</time>
      </trkpt>
      <trkpt lat="46.6074" lon="-1.84134">
        <ele>57.508567</ele>
        <time>2022-12-18T12:46:04.639Z</time>
      </trkpt>
      <trkpt lat="46.60736" lon="-1.84121">
        <ele>57.775903</ele>
        <time>2022-12-18T12:46:09.635Z</time>
      </trkpt>
      <trkpt lat="46.60732" lon="-1.84107">
        <ele>58.059752</ele>
        <time>2022-12-18T12:46:14.620Z</time>
      </trkpt>
      <trkpt lat="46.60728" lon="-1.84094">
        <ele>58.334087</ele>
        <time>2022-12-18T12:46:19.635Z</time>
      </trkpt>
      <trkpt lat="46.60725" lon="-1.84081">
        <ele>58.59395</ele>
        <time>2022-12-18T12:46:24.695Z</time>
      </trkpt>
      <trkpt lat="46.6072" lon="-1.84068">
        <ele>58.881519</ele>
        <time>2022-12-18T12:46:29.634Z</time>
      </trkpt>
      <trkpt lat="46.60717" lon="-1.84055">
        <ele>59.135246</ele>
        <time>2022-12-18T12:46:33.643Z</time>
      </trkpt>
      <trkpt lat="46.60713" lon="-1.84041">
        <ele>59.43381</ele>
        <time>2022-12-18T12:46:38.640Z</time>
      </trkpt>
      <trkpt lat="46.6071" lon="-1.84028">
        <ele>59.690215</ele>
        <time>2022-12-18T12:46:42.641Z</time>
      </trkpt>
      <trkpt lat="46.60707" lon="-1.84012">
        <ele>59.999878</ele>
        <time>2022-12-18T12:46:46.643Z</time>
      </trkpt>
      <trkpt lat="46.60704" lon="-1.83996">
        <ele>60.31858</ele>
        <time>2022-12-18T12:46:50.618Z</time>
      </trkpt>
      <trkpt lat="46.60701" lon="-1.83983">
        <ele>60.576728</ele>
        <time>2022-12-18T12:46:53.641Z</time>
      </trkpt>
      <trkpt lat="46.60699" lon="-1.8397">
        <ele>60.841319</ele>
        <time>2022-12-18T12:46:56.686Z</time>
      </trkpt>
      <trkpt lat="46.60696" lon="-1.83956">
        <ele>61.114214</ele>
        <time>2022-12-18T12:46:59.618Z</time>
      </trkpt>
      <trkpt lat="46.60693" lon="-1.83942">
        <ele>61.395912</ele>
        <time>2022-12-18T12:47:02.616Z</time>
      </trkpt>
      <trkpt lat="46.6069" lon="-1.83928">
        <ele>61.680178</ele>
        <time>2022-12-18T12:47:05.637Z</time>
      </trkpt>
      <trkpt lat="46.60687" lon="-1.83913">
        <ele>61.981147</ele>
        <time>2022-12-18T12:47:08.622Z</time>
      </trkpt>
      <trkpt lat="46.60684" lon="-1.83898">
        <ele>62.059503</ele>
        <time>2022-12-18T12:47:11.613Z</time>
      </trkpt>
      <trkpt lat="46.60681" lon="-1.83883">
        <ele>62.1363</ele>
        <time>2022-12-18T12:47:14.645Z</time>
      </trkpt>
      <trkpt lat="46.60678" lon="-1.83869">
        <ele>62.21374</ele>
        <time>2022-12-18T12:47:17.632Z</time>
      </trkpt>
      <trkpt lat="46.60674" lon="-1.83853">
        <ele>62.295706</ele>
        <time>2022-12-18T12:47:20.615Z</time>
      </trkpt>
      <trkpt lat="46.60671" lon="-1.83839">
        <ele>62.374863</ele>
        <time>2022-12-18T12:47:23.632Z</time>
      </trkpt>
      <trkpt lat="46.60667" lon="-1.83825">
        <ele>62.449333</ele>
        <time>2022-12-18T12:47:26.641Z</time>
      </trkpt>
      <trkpt lat="46.60664" lon="-1.83812">
        <ele>62.518868</ele>
        <time>2022-12-18T12:47:29.636Z</time>
      </trkpt>
      <trkpt lat="46.60661" lon="-1.83799">
        <ele>62.589125</ele>
        <time>2022-12-18T12:47:32.647Z</time>
      </trkpt>
      <trkpt lat="46.60657" lon="-1.83785">
        <ele>62.665833</ele>
        <time>2022-12-18T12:47:35.629Z</time>
      </trkpt>
      <trkpt lat="46.60654" lon="-1.8377">
        <ele>62.742776</ele>
        <time>2022-12-18T12:47:38.625Z</time>
      </trkpt>
      <trkpt lat="46.6065" lon="-1.83755">
        <ele>62.825462</ele>
        <time>2022-12-18T12:47:41.608Z</time>
      </trkpt>
      <trkpt lat="46.60646" lon="-1.83738">
        <ele>62.91746</ele>
        <time>2022-12-18T12:47:44.622Z</time>
      </trkpt>
      <trkpt lat="46.60642" lon="-1.83721">
        <ele>63.007841</ele>
        <time>2022-12-18T12:47:47.637Z</time>
      </trkpt>
      <trkpt lat="46.60637" lon="-1.83704">
        <ele>63.098694</ele>
        <time>2022-12-18T12:47:50.630Z</time>
      </trkpt>
      <trkpt lat="46.60633" lon="-1.83688">
        <ele>63.18496</ele>
        <time>2022-12-18T12:47:53.679Z</time>
      </trkpt>
      <trkpt lat="46.60629" lon="-1.83673">
        <ele>63.265747</ele>
        <time>2022-12-18T12:47:56.630Z</time>
      </trkpt>
      <trkpt lat="46.60626" lon="-1.83658">
        <ele>63.325496</ele>
        <time>2022-12-18T12:47:59.631Z</time>
      </trkpt>
      <trkpt lat="46.60622" lon="-1.83644">
        <ele>63.366219</ele>
        <time>2022-12-18T12:48:02.637Z</time>
      </trkpt>
      <trkpt lat="46.60619" lon="-1.8363">
        <ele>63.404896</ele>
        <time>2022-12-18T12:48:05.614Z</time>
      </trkpt>
      <trkpt lat="46.60615" lon="-1.83618">
        <ele>63.441945</ele>
        <time>2022-12-18T12:48:08.641Z</time>
      </trkpt>
      <trkpt lat="46.60611" lon="-1.83603">
        <ele>63.484293</ele>
        <time>2022-12-18T12:48:12.637Z</time>
      </trkpt>
      <trkpt lat="46.60607" lon="-1.83589">
        <ele>63.52615</ele>
        <time>2022-12-18T12:48:16.612Z</time>
      </trkpt>
      <trkpt lat="46.60603" lon="-1.83574">
        <ele>63.56724</ele>
        <time>2022-12-18T12:48:20.616Z</time>
      </trkpt>
      <trkpt lat="46.606" lon="-1.83562">
        <ele>63.60349</ele>
        <time>2022-12-18T12:48:23.643Z</time>
      </trkpt>
      <trkpt lat="46.60595" lon="-1.83549">
        <ele>63.64139</ele>
        <time>2022-12-18T12:48:26.615Z</time>
      </trkpt>
      <trkpt lat="46.60592" lon="-1.83534">
        <ele>63.685048</ele>
        <time>2022-12-18T12:48:29.640Z</time>
      </trkpt>
      <trkpt lat="46.60592" lon="-1.83518">
        <ele>63.728038</ele>
        <time>2022-12-18T12:48:32.618Z</time>
      </trkpt>
      <trkpt lat="46.60591" lon="-1.83503">
        <ele>63.767915</ele>
        <time>2022-12-18T12:48:35.622Z</time>
      </trkpt>
      <trkpt lat="46.60589" lon="-1.83488">
        <ele>63.80686</ele>
        <time>2022-12-18T12:48:38.639Z</time>
      </trkpt>
      <trkpt lat="46.60587" lon="-1.83474">
        <ele>63.846427</ele>
        <time>2022-12-18T12:48:41.616Z</time>
      </trkpt>
      <trkpt lat="46.60584" lon="-1.83459">
        <ele>63.887895</ele>
        <time>2022-12-18T12:48:44.640Z</time>
      </trkpt>
      <trkpt lat="46.60581" lon="-1.83445">
        <ele>63.927721</ele>
        <time>2022-12-18T12:48:47.627Z</time>
      </trkpt>
      <trkpt lat="46.6058" lon="-1.83429">
        <ele>63.969592</ele>
        <time>2022-12-18T12:48:50.644Z</time>
      </trkpt>
      <trkpt lat="46.60577" lon="-1.83413">
        <ele>63.93351</ele>
        <time>2022-12-18T12:48:53.634Z</time>
      </trkpt>
      <trkpt lat="46.60574" lon="-1.83396">
        <ele>63.607009</ele>
        <time>2022-12-18T12:48:56.632Z</time>
      </trkpt>
      <trkpt lat="46.60571" lon="-1.83381">
        <ele>63.289976</ele>
        <time>2022-12-18T12:48:59.634Z</time>
      </trkpt>
      <trkpt lat="46.60566" lon="-1.83366">
        <ele>62.972336</ele>
        <time>2022-12-18T12:49:02.636Z</time>
      </trkpt>
      <trkpt lat="46.60562" lon="-1.8335">
        <ele>62.64413</ele>
        <time>2022-12-18T12:49:05.622Z</time>
      </trkpt>
      <trkpt lat="46.60558" lon="-1.83336">
        <ele>62.344312</ele>
        <time>2022-12-18T12:49:08.639Z</time>
      </trkpt>
      <trkpt lat="46.60551" lon="-1.83322">
        <ele>62.022335</ele>
        <time>2022-12-18T12:49:12.625Z</time>
      </trkpt>
      <trkpt lat="46.60545" lon="-1.83312">
        <ele>61.749504</ele>
        <time>2022-12-18T12:49:16.637Z</time>
      </trkpt>
      <trkpt lat="46.60538" lon="-1.83301">
        <ele>61.459557</ele>
        <time>2022-12-18T12:49:20.636Z</time>
      </trkpt>
      <trkpt lat="46.60531" lon="-1.83292">
        <ele>61.196189</ele>
        <time>2022-12-18T12:49:23.639Z</time>
      </trkpt>
      <trkpt lat="46.60522" lon="-1.83283">
        <ele>60.890873</ele>
        <time>2022-12-18T12:49:26.637Z</time>
      </trkpt>
      <trkpt lat="46.60511" lon="-1.83274">
        <ele>60.526054</ele>
        <time>2022-12-18T12:49:29.686Z</time>
      </trkpt>
      <trkpt lat="46.60502" lon="-1.83269">
        <ele>60.2492</ele>
        <time>2022-12-18T12:49:31.617Z</time>
      </trkpt>
      <trkpt lat="46.60492" lon="-1.83263">
        <ele>59.964047</ele>
        <time>2022-12-18T12:49:33.628Z</time>
      </trkpt>
      <trkpt lat="46.60482" lon="-1.83256">
        <ele>59.655057</ele>
        <time>2022-12-18T12:49:35.628Z</time>
      </trkpt>
      <trkpt lat="46.60473" lon="-1.83251">
        <ele>59.357696</ele>
        <time>2022-12-18T12:49:37.637Z</time>
      </trkpt>
      <trkpt lat="46.60463" lon="-1.83245">
        <ele>59.069221</ele>
        <time>2022-12-18T12:49:39.636Z</time>
      </trkpt>
      <trkpt lat="46.60454" lon="-1.8324">
        <ele>59.001824</ele>
        <time>2022-12-18T12:49:41.639Z</time>
      </trkpt>
      <trkpt lat="46.60445" lon="-1.83232">
        <ele>59.173605</ele>
        <time>2022-12-18T12:49:43.630Z</time>
      </trkpt>
      <trkpt lat="46.60437" lon="-1.83224">
        <ele>59.340992</ele>
        <time>2022-12-18T12:49:45.618Z</time>
      </trkpt>
      <trkpt lat="46.6043" lon="-1.83215">
        <ele>59.503012</ele>
        <time>2022-12-18T12:49:47.633Z</time>
      </trkpt>
      <trkpt lat="46.60421" lon="-1.83202">
        <ele>59.727992</ele>
        <time>2022-12-18T12:49:50.643Z</time>
      </trkpt>
      <trkpt lat="46.60414" lon="-1.83188">
        <ele>59.927294</ele>
        <time>2022-12-18T12:49:53.615Z</time>
      </trkpt>
      <trkpt lat="46.60408" lon="-1.83174">
        <ele>60.120882</ele>
        <time>2022-12-18T12:49:56.630Z</time>
      </trkpt>
      <trkpt lat="46.60404" lon="-1.8316">
        <ele>60.316315</ele>
        <time>2022-12-18T12:49:59.635Z</time>
      </trkpt>
      <trkpt lat="46.60399" lon="-1.83145">
        <ele>60.506408</ele>
        <time>2022-12-18T12:50:02.635Z</time>
      </trkpt>
      <trkpt lat="46.60394" lon="-1.83131">
        <ele>60.694912</ele>
        <time>2022-12-18T12:50:05.631Z</time>
      </trkpt>
      <trkpt lat="46.60389" lon="-1.83118">
        <ele>60.871585</ele>
        <time>2022-12-18T12:50:08.619Z</time>
      </trkpt>
      <trkpt lat="46.60385" lon="-1.83105">
        <ele>61.040331</ele>
        <time>2022-12-18T12:50:11.641Z</time>
      </trkpt>
      <trkpt lat="46.60381" lon="-1.83091">
        <ele>61.221725</ele>
        <time>2022-12-18T12:50:14.635Z</time>
      </trkpt>
      <trkpt lat="46.60376" lon="-1.83077">
        <ele>61.402362</ele>
        <time>2022-12-18T12:50:17.620Z</time>
      </trkpt>
      <trkpt lat="46.60372" lon="-1.83064">
        <ele>61.583459</ele>
        <time>2022-12-18T12:50:20.614Z</time>
      </trkpt>
      <trkpt lat="46.60366" lon="-1.83052">
        <ele>61.753162</ele>
        <time>2022-12-18T12:50:23.614Z</time>
      </trkpt>
      <trkpt lat="46.60361" lon="-1.83038">
        <ele>61.948801</ele>
        <time>2022-12-18T12:50:27.641Z</time>
      </trkpt>
      <trkpt lat="46.60357" lon="-1.83022">
        <ele>62.073829</ele>
        <time>2022-12-18T12:50:32.636Z</time>
      </trkpt>
      <trkpt lat="46.60353" lon="-1.83007">
        <ele>62.146384</ele>
        <time>2022-12-18T12:50:37.628Z</time>
      </trkpt>
      <trkpt lat="46.60346" lon="-1.82995">
        <ele>62.22115</ele>
        <time>2022-12-18T12:50:41.640Z</time>
      </trkpt>
      <trkpt lat="46.60341" lon="-1.8298">
        <ele>62.297512</ele>
        <time>2022-12-18T12:50:45.646Z</time>
      </trkpt>
      <trkpt lat="46.60336" lon="-1.82967">
        <ele>62.364934</ele>
        <time>2022-12-18T12:50:48.628Z</time>
      </trkpt>
      <trkpt lat="46.60331" lon="-1.82956">
        <ele>62.426636</ele>
        <time>2022-12-18T12:50:51.628Z</time>
      </trkpt>
      <trkpt lat="46.60325" lon="-1.82945">
        <ele>62.489798</ele>
        <time>2022-12-18T12:50:54.616Z</time>
      </trkpt>
      <trkpt lat="46.60319" lon="-1.82935">
        <ele>62.551404</ele>
        <time>2022-12-18T12:50:57.644Z</time>
      </trkpt>
      <trkpt lat="46.60313" lon="-1.82925">
        <ele>62.611034</ele>
        <time>2022-12-18T12:51:00.619Z</time>
      </trkpt>
      <trkpt lat="46.60305" lon="-1.82912">
        <ele>62.690211</ele>
        <time>2022-12-18T12:51:04.629Z</time>
      </trkpt>
      <trkpt lat="46.60298" lon="-1.82902">
        <ele>62.753567</ele>
        <time>2022-12-18T12:51:07.641Z</time>
      </trkpt>
      <trkpt lat="46.60292" lon="-1.82892">
        <ele>62.815802</ele>
        <time>2022-12-18T12:51:10.626Z</time>
      </trkpt>
      <trkpt lat="46.60285" lon="-1.82881">
        <ele>62.883791</ele>
        <time>2022-12-18T12:51:13.634Z</time>
      </trkpt>
      <trkpt lat="46.60278" lon="-1.8287">
        <ele>62.95526</ele>
        <time>2022-12-18T12:51:16.618Z</time>
      </trkpt>
      <trkpt lat="46.60271" lon="-1.82857">
        <ele>63.028633</ele>
        <time>2022-12-18T12:51:19.634Z</time>
      </trkpt>
      <trkpt lat="46.60263" lon="-1.82845">
        <ele>63.104689</ele>
        <time>2022-12-18T12:51:22.627Z</time>
      </trkpt>
      <trkpt lat="46.60255" lon="-1.82832">
        <ele>63.184198</ele>
        <time>2022-12-18T12:51:25.643Z</time>
      </trkpt>
      <trkpt lat="46.60247" lon="-1.82819">
        <ele>63.124231</ele>
        <time>2022-12-18T12:51:28.612Z</time>
      </trkpt>
      <trkpt lat="46.60239" lon="-1.82806">
        <ele>62.913892</ele>
        <time>2022-12-18T12:51:31.636Z</time>
      </trkpt>
      <trkpt lat="46.60232" lon="-1.82795">
        <ele>62.718773</ele>
        <time>2022-12-18T12:51:34.630Z</time>
      </trkpt>
      <trkpt lat="46.60226" lon="-1.82784">
        <ele>62.544681</ele>
        <time>2022-12-18T12:51:37.638Z</time>
      </trkpt>
      <trkpt lat="46.60219" lon="-1.82771">
        <ele>62.351841</ele>
        <time>2022-12-18T12:51:40.609Z</time>
      </trkpt>
      <trkpt lat="46.60213" lon="-1.82758">
        <ele>62.150102</ele>
        <time>2022-12-18T12:51:43.621Z</time>
      </trkpt>
      <trkpt lat="46.60206" lon="-1.82744">
        <ele>61.935146</ele>
        <time>2022-12-18T12:51:46.635Z</time>
      </trkpt>
      <trkpt lat="46.60199" lon="-1.82731">
        <ele>61.727082</ele>
        <time>2022-12-18T12:51:49.638Z</time>
      </trkpt>
      <trkpt lat="46.60192" lon="-1.82719">
        <ele>61.536767</ele>
        <time>2022-12-18T12:51:52.636Z</time>
      </trkpt>
      <trkpt lat="46.60184" lon="-1.82706">
        <ele>61.318659</ele>
        <time>2022-12-18T12:51:55.639Z</time>
      </trkpt>
      <trkpt lat="46.60176" lon="-1.82691">
        <ele>61.085011</ele>
        <time>2022-12-18T12:51:58.632Z</time>
      </trkpt>
      <trkpt lat="46.6017" lon="-1.82681">
        <ele>60.917308</ele>
        <time>2022-12-18T12:52:00.635Z</time>
      </trkpt>
      <trkpt lat="46.60164" lon="-1.82671">
        <ele>60.74631</ele>
        <time>2022-12-18T12:52:02.647Z</time>
      </trkpt>
      <trkpt lat="46.60157" lon="-1.82659">
        <ele>60.560414</ele>
        <time>2022-12-18T12:52:04.651Z</time>
      </trkpt>
      <trkpt lat="46.60151" lon="-1.82647">
        <ele>60.367573</ele>
        <time>2022-12-18T12:52:06.644Z</time>
      </trkpt>
      <trkpt lat="46.60145" lon="-1.82634">
        <ele>60.171015</ele>
        <time>2022-12-18T12:52:08.643Z</time>
      </trkpt>
      <trkpt lat="46.60138" lon="-1.82618">
        <ele>59.969078</ele>
        <time>2022-12-18T12:52:10.629Z</time>
      </trkpt>
      <trkpt lat="46.60133" lon="-1.82603">
        <ele>59.91598</ele>
        <time>2022-12-18T12:52:12.643Z</time>
      </trkpt>
      <trkpt lat="46.60128" lon="-1.82587">
        <ele>59.863397</ele>
        <time>2022-12-18T12:52:14.641Z</time>
      </trkpt>
      <trkpt lat="46.60123" lon="-1.82573">
        <ele>59.816077</ele>
        <time>2022-12-18T12:52:16.628Z</time>
      </trkpt>
      <trkpt lat="46.60119" lon="-1.8256">
        <ele>59.771613</ele>
        <time>2022-12-18T12:52:18.642Z</time>
      </trkpt>
      <trkpt lat="46.60114" lon="-1.82542">
        <ele>59.712845</ele>
        <time>2022-12-18T12:52:21.654Z</time>
      </trkpt>
      <trkpt lat="46.60111" lon="-1.82529">
        <ele>59.670814</ele>
        <time>2022-12-18T12:52:23.640Z</time>
      </trkpt>
      <trkpt lat="46.60107" lon="-1.82511">
        <ele>59.614238</ele>
        <time>2022-12-18T12:52:26.639Z</time>
      </trkpt>
      <trkpt lat="46.60104" lon="-1.82494">
        <ele>59.559003</ele>
        <time>2022-12-18T12:52:29.619Z</time>
      </trkpt>
      <trkpt lat="46.601" lon="-1.82477">
        <ele>59.505234</ele>
        <time>2022-12-18T12:52:32.637Z</time>
      </trkpt>
      <trkpt lat="46.60097" lon="-1.8246">
        <ele>59.453873</ele>
        <time>2022-12-18T12:52:35.629Z</time>
      </trkpt>
      <trkpt lat="46.60094" lon="-1.82443">
        <ele>59.398271</ele>
        <time>2022-12-18T12:52:38.639Z</time>
      </trkpt>
      <trkpt lat="46.60091" lon="-1.82424">
        <ele>59.341004</ele>
        <time>2022-12-18T12:52:41.645Z</time>
      </trkpt>
      <trkpt lat="46.60089" lon="-1.82407">
        <ele>59.286688</ele>
        <time>2022-12-18T12:52:44.633Z</time>
      </trkpt>
      <trkpt lat="46.60085" lon="-1.8239">
        <ele>59.232505</ele>
        <time>2022-12-18T12:52:47.634Z</time>
      </trkpt>
      <trkpt lat="46.60082" lon="-1.82373">
        <ele>59.17919</ele>
        <time>2022-12-18T12:52:50.625Z</time>
      </trkpt>
      <trkpt lat="46.60079" lon="-1.82355">
        <ele>58.885235</ele>
        <time>2022-12-18T12:52:53.622Z</time>
      </trkpt>
      <trkpt lat="46.60074" lon="-1.82337">
        <ele>58.576986</ele>
        <time>2022-12-18T12:52:56.646Z</time>
      </trkpt>
      <trkpt lat="46.60068" lon="-1.82326">
        <ele>58.358819</ele>
        <time>2022-12-18T12:52:58.649Z</time>
      </trkpt>
      <trkpt lat="46.60061" lon="-1.82318">
        <ele>58.142802</ele>
        <time>2022-12-18T12:53:00.630Z</time>
      </trkpt>
      <trkpt lat="46.60052" lon="-1.82311">
        <ele>57.906395</ele>
        <time>2022-12-18T12:53:02.613Z</time>
      </trkpt>
      <trkpt lat="46.60044" lon="-1.82303">
        <ele>57.665178</ele>
        <time>2022-12-18T12:53:04.638Z</time>
      </trkpt>
      <trkpt lat="46.60035" lon="-1.82293">
        <ele>57.404812</ele>
        <time>2022-12-18T12:53:06.646Z</time>
      </trkpt>
      <trkpt lat="46.60028" lon="-1.82279">
        <ele>57.133972</ele>
        <time>2022-12-18T12:53:08.643Z</time>
      </trkpt>
      <trkpt lat="46.60025" lon="-1.82262">
        <ele>56.860967</ele>
        <time>2022-12-18T12:53:10.648Z</time>
      </trkpt>
      <trkpt lat="46.60025" lon="-1.82244">
        <ele>56.567475</ele>
        <time>2022-12-18T12:53:12.640Z</time>
      </trkpt>
      <trkpt lat="46.60028" lon="-1.82227">
        <ele>56.290182</ele>
        <time>2022-12-18T12:53:14.644Z</time>
      </trkpt>
      <trkpt lat="46.60033" lon="-1.82212">
        <ele>56.005875</ele>
        <time>2022-12-18T12:53:16.644Z</time>
      </trkpt>
      <trkpt lat="46.60039" lon="-1.82197">
        <ele>55.729036</ele>
        <time>2022-12-18T12:53:18.643Z</time>
      </trkpt>
      <trkpt lat="46.60044" lon="-1.82181">
        <ele>55.451294</ele>
        <time>2022-12-18T12:53:20.644Z</time>
      </trkpt>
      <trkpt lat="46.60045" lon="-1.82164">
        <ele>55.177793</ele>
        <time>2022-12-18T12:53:22.624Z</time>
      </trkpt>
      <trkpt lat="46.60043" lon="-1.82147">
        <ele>55.103503</ele>
        <time>2022-12-18T12:53:24.646Z</time>
      </trkpt>
      <trkpt lat="46.60041" lon="-1.82134">
        <ele>55.505033</ele>
        <time>2022-12-18T12:53:26.641Z</time>
      </trkpt>
      <trkpt lat="46.60038" lon="-1.82121">
        <ele>55.928764</ele>
        <time>2022-12-18T12:53:29.619Z</time>
      </trkpt>
      <trkpt lat="46.60034" lon="-1.82107">
        <ele>56.373961</ele>
        <time>2022-12-18T12:53:33.636Z</time>
      </trkpt>
      <trkpt lat="46.6003" lon="-1.82092">
        <ele>56.844048</ele>
        <time>2022-12-18T12:53:37.616Z</time>
      </trkpt>
      <trkpt lat="46.60027" lon="-1.82078">
        <ele>57.283167</ele>
        <time>2022-12-18T12:53:41.626Z</time>
      </trkpt>
      <trkpt lat="46.60022" lon="-1.82063">
        <ele>57.765832</ele>
        <time>2022-12-18T12:53:45.630Z</time>
      </trkpt>
      <trkpt lat="46.60019" lon="-1.82048">
        <ele>58.232839</ele>
        <time>2022-12-18T12:53:49.625Z</time>
      </trkpt>
      <trkpt lat="46.60016" lon="-1.82035">
        <ele>58.647967</ele>
        <time>2022-12-18T12:53:53.634Z</time>
      </trkpt>
      <trkpt lat="46.60012" lon="-1.8202">
        <ele>59.104334</ele>
        <time>2022-12-18T12:54:00.634Z</time>
      </trkpt>
      <trkpt lat="46.60008" lon="-1.82007">
        <ele>59.541034</ele>
        <time>2022-12-18T12:54:06.643Z</time>
      </trkpt>
      <trkpt lat="46.60004" lon="-1.81993">
        <ele>59.994665</ele>
        <time>2022-12-18T12:54:12.660Z</time>
      </trkpt>
      <trkpt lat="46.60001" lon="-1.81978">
        <ele>60.442012</ele>
        <time>2022-12-18T12:54:18.624Z</time>
      </trkpt>
      <trkpt lat="46.59997" lon="-1.81965">
        <ele>60.864127</ele>
        <time>2022-12-18T12:54:23.678Z</time>
      </trkpt>
      <trkpt lat="46.59994" lon="-1.81952">
        <ele>61.26388</ele>
        <time>2022-12-18T12:54:28.640Z</time>
      </trkpt>
      <trkpt lat="46.5999" lon="-1.81939">
        <ele>61.67952</ele>
        <time>2022-12-18T12:54:33.638Z</time>
      </trkpt>
      <trkpt lat="46.59987" lon="-1.81926">
        <ele>62.090477</ele>
        <time>2022-12-18T12:54:38.648Z</time>
      </trkpt>
      <trkpt lat="46.59983" lon="-1.81913">
        <ele>62.517908</ele>
        <time>2022-12-18T12:54:43.636Z</time>
      </trkpt>
      <trkpt lat="46.5998" lon="-1.81899">
        <ele>62.827854</ele>
        <time>2022-12-18T12:54:48.644Z</time>
      </trkpt>
      <trkpt lat="46.59977" lon="-1.81886">
        <ele>63.032685</ele>
        <time>2022-12-18T12:54:53.634Z</time>
      </trkpt>
      <trkpt lat="46.59974" lon="-1.81872">
        <ele>63.250789</ele>
        <time>2022-12-18T12:54:58.640Z</time>
      </trkpt>
      <trkpt lat="46.59971" lon="-1.81858">
        <ele>63.471565</ele>
        <time>2022-12-18T12:55:03.638Z</time>
      </trkpt>
      <trkpt lat="46.59969" lon="-1.81844">
        <ele>63.673584</ele>
        <time>2022-12-18T12:55:07.632Z</time>
      </trkpt>
      <trkpt lat="46.59967" lon="-1.81831">
        <ele>63.870329</ele>
        <time>2022-12-18T12:55:11.644Z</time>
      </trkpt>
      <trkpt lat="46.59965" lon="-1.81818">
        <ele>64.073347</ele>
        <time>2022-12-18T12:55:15.625Z</time>
      </trkpt>
      <trkpt lat="46.59965" lon="-1.81804">
        <ele>64.273813</ele>
        <time>2022-12-18T12:55:19.626Z</time>
      </trkpt>
      <trkpt lat="46.59965" lon="-1.81789">
        <ele>64.489004</ele>
        <time>2022-12-18T12:55:23.620Z</time>
      </trkpt>
      <trkpt lat="46.59964" lon="-1.81773">
        <ele>64.738574</ele>
        <time>2022-12-18T12:55:27.648Z</time>
      </trkpt>
      <trkpt lat="46.59963" lon="-1.81756">
        <ele>64.980956</ele>
        <time>2022-12-18T12:55:31.644Z</time>
      </trkpt>
      <trkpt lat="46.59962" lon="-1.81739">
        <ele>65.238028</ele>
        <time>2022-12-18T12:55:35.639Z</time>
      </trkpt>
      <trkpt lat="46.59961" lon="-1.81725">
        <ele>65.442059</ele>
        <time>2022-12-18T12:55:38.613Z</time>
      </trkpt>
      <trkpt lat="46.59961" lon="-1.81711">
        <ele>65.647391</ele>
        <time>2022-12-18T12:55:41.629Z</time>
      </trkpt>
      <trkpt lat="46.5996" lon="-1.81696">
        <ele>65.871827</ele>
        <time>2022-12-18T12:55:44.633Z</time>
      </trkpt>
      <trkpt lat="46.59959" lon="-1.81679">
        <ele>66.115679</ele>
        <time>2022-12-18T12:55:47.645Z</time>
      </trkpt>
      <trkpt lat="46.59958" lon="-1.81662">
        <ele>66.368516</ele>
        <time>2022-12-18T12:55:50.643Z</time>
      </trkpt>
      <trkpt lat="46.59957" lon="-1.81645">
        <ele>66.584962</ele>
        <time>2022-12-18T12:55:53.614Z</time>
      </trkpt>
      <trkpt lat="46.59956" lon="-1.81627">
        <ele>66.623826</ele>
        <time>2022-12-18T12:55:56.642Z</time>
      </trkpt>
      <trkpt lat="46.59955" lon="-1.81611">
        <ele>66.660408</ele>
        <time>2022-12-18T12:55:59.678Z</time>
      </trkpt>
      <trkpt lat="46.59954" lon="-1.81595">
        <ele>66.69594</ele>
        <time>2022-12-18T12:56:02.618Z</time>
      </trkpt>
      <trkpt lat="46.59953" lon="-1.81578">
        <ele>66.732301</ele>
        <time>2022-12-18T12:56:05.646Z</time>
      </trkpt>
      <trkpt lat="46.59952" lon="-1.81561">
        <ele>66.770036</ele>
        <time>2022-12-18T12:56:08.616Z</time>
      </trkpt>
      <trkpt lat="46.59951" lon="-1.81544">
        <ele>66.807524</ele>
        <time>2022-12-18T12:56:11.640Z</time>
      </trkpt>
      <trkpt lat="46.5995" lon="-1.81527">
        <ele>66.84583</ele>
        <time>2022-12-18T12:56:14.638Z</time>
      </trkpt>
      <trkpt lat="46.59949" lon="-1.8151">
        <ele>66.884666</ele>
        <time>2022-12-18T12:56:17.624Z</time>
      </trkpt>
      <trkpt lat="46.59948" lon="-1.81492">
        <ele>66.924097</ele>
        <time>2022-12-18T12:56:20.632Z</time>
      </trkpt>
      <trkpt lat="46.59947" lon="-1.81474">
        <ele>66.963307</ele>
        <time>2022-12-18T12:56:23.648Z</time>
      </trkpt>
      <trkpt lat="46.59946" lon="-1.81457">
        <ele>67.00085</ele>
        <time>2022-12-18T12:56:26.637Z</time>
      </trkpt>
      <trkpt lat="46.59945" lon="-1.81443">
        <ele>67.033049</ele>
        <time>2022-12-18T12:56:29.636Z</time>
      </trkpt>
      <trkpt lat="46.59944" lon="-1.81427">
        <ele>67.067039</ele>
        <time>2022-12-18T12:56:32.619Z</time>
      </trkpt>
      <trkpt lat="46.59943" lon="-1.81411">
        <ele>67.104283</ele>
        <time>2022-12-18T12:56:35.624Z</time>
      </trkpt>
      <trkpt lat="46.59943" lon="-1.81393">
        <ele>67.143714</ele>
        <time>2022-12-18T12:56:38.628Z</time>
      </trkpt>
      <trkpt lat="46.59942" lon="-1.81375">
        <ele>66.848244</ele>
        <time>2022-12-18T12:56:41.644Z</time>
      </trkpt>
      <trkpt lat="46.59941" lon="-1.81356">
        <ele>66.411063</ele>
        <time>2022-12-18T12:56:44.644Z</time>
      </trkpt>
      <trkpt lat="46.5994" lon="-1.8134">
        <ele>66.013523</ele>
        <time>2022-12-18T12:56:47.641Z</time>
      </trkpt>
      <trkpt lat="46.59939" lon="-1.81324">
        <ele>65.629615</ele>
        <time>2022-12-18T12:56:50.693Z</time>
      </trkpt>
      <trkpt lat="46.59938" lon="-1.81308">
        <ele>65.24499</ele>
        <time>2022-12-18T12:56:53.644Z</time>
      </trkpt>
      <trkpt lat="46.59937" lon="-1.81292">
        <ele>64.85796</ele>
        <time>2022-12-18T12:56:56.635Z</time>
      </trkpt>
      <trkpt lat="46.59937" lon="-1.81276">
        <ele>64.452269</ele>
        <time>2022-12-18T12:56:59.623Z</time>
      </trkpt>
      <trkpt lat="46.59936" lon="-1.81257">
        <ele>64.001559</ele>
        <time>2022-12-18T12:57:02.640Z</time>
      </trkpt>
      <trkpt lat="46.59934" lon="-1.81243">
        <ele>63.663918</ele>
        <time>2022-12-18T12:57:04.635Z</time>
      </trkpt>
      <trkpt lat="46.59932" lon="-1.81229">
        <ele>63.321519</ele>
        <time>2022-12-18T12:57:06.630Z</time>
      </trkpt>
      <trkpt lat="46.59929" lon="-1.81215">
        <ele>62.95285</ele>
        <time>2022-12-18T12:57:08.642Z</time>
      </trkpt>
      <trkpt lat="46.59925" lon="-1.81199">
        <ele>62.546381</ele>
        <time>2022-12-18T12:57:10.644Z</time>
      </trkpt>
      <trkpt lat="46.59919" lon="-1.81182">
        <ele>62.091195</ele>
        <time>2022-12-18T12:57:12.645Z</time>
      </trkpt>
      <trkpt lat="46.59912" lon="-1.81165">
        <ele>61.609945</ele>
        <time>2022-12-18T12:57:14.623Z</time>
      </trkpt>
      <trkpt lat="46.59902" lon="-1.81149">
        <ele>61.082782</ele>
        <time>2022-12-18T12:57:16.650Z</time>
      </trkpt>
      <trkpt lat="46.59891" lon="-1.81132">
        <ele>60.365267</ele>
        <time>2022-12-18T12:57:18.640Z</time>
      </trkpt>
      <trkpt lat="46.5988" lon="-1.81116">
        <ele>59.555034</ele>
        <time>2022-12-18T12:57:20.618Z</time>
      </trkpt>
      <trkpt lat="46.59868" lon="-1.811">
        <ele>58.685056</ele>
        <time>2022-12-18T12:57:22.689Z</time>
      </trkpt>
      <trkpt lat="46.59855" lon="-1.81083">
        <ele>57.807199</ele>
        <time>2022-12-18T12:57:24.640Z</time>
      </trkpt>
      <trkpt lat="46.59843" lon="-1.81067">
        <ele>56.926915</ele>
        <time>2022-12-18T12:57:26.625Z</time>
      </trkpt>
      <trkpt lat="46.5983" lon="-1.8105">
        <ele>56.027798</ele>
        <time>2022-12-18T12:57:28.633Z</time>
      </trkpt>
      <trkpt lat="46.59819" lon="-1.81033">
        <ele>55.176063</ele>
        <time>2022-12-18T12:57:30.647Z</time>
      </trkpt>
      <trkpt lat="46.59806" lon="-1.81015">
        <ele>54.287312</ele>
        <time>2022-12-18T12:57:32.643Z</time>
      </trkpt>
      <trkpt lat="46.59799" lon="-1.81007">
        <ele>53.804017</ele>
        <time>2022-12-18T12:57:33.710Z</time>
      </trkpt>
      <trkpt lat="46.59793" lon="-1.80998">
        <ele>53.329365</ele>
        <time>2022-12-18T12:57:34.645Z</time>
      </trkpt>
      <trkpt lat="46.59786" lon="-1.80989">
        <ele>52.850011</ele>
        <time>2022-12-18T12:57:35.645Z</time>
      </trkpt>
      <trkpt lat="46.59779" lon="-1.8098">
        <ele>52.378466</ele>
        <time>2022-12-18T12:57:36.646Z</time>
      </trkpt>
      <trkpt lat="46.59766" lon="-1.80963">
        <ele>51.459498</ele>
        <time>2022-12-18T12:57:38.646Z</time>
      </trkpt>
      <trkpt lat="46.59759" lon="-1.80954">
        <ele>51.305284</ele>
        <time>2022-12-18T12:57:39.636Z</time>
      </trkpt>
      <trkpt lat="46.59746" lon="-1.80938">
        <ele>51.033996</ele>
        <time>2022-12-18T12:57:41.639Z</time>
      </trkpt>
      <trkpt lat="46.59734" lon="-1.80923">
        <ele>50.776519</ele>
        <time>2022-12-18T12:57:43.645Z</time>
      </trkpt>
      <trkpt lat="46.59723" lon="-1.80908">
        <ele>50.538925</ele>
        <time>2022-12-18T12:57:45.636Z</time>
      </trkpt>
      <trkpt lat="46.59711" lon="-1.80894">
        <ele>50.299026</ele>
        <time>2022-12-18T12:57:47.643Z</time>
      </trkpt>
      <trkpt lat="46.59701" lon="-1.8088">
        <ele>50.084895</ele>
        <time>2022-12-18T12:57:49.697Z</time>
      </trkpt>
      <trkpt lat="46.59692" lon="-1.80867">
        <ele>49.874144</ele>
        <time>2022-12-18T12:57:51.638Z</time>
      </trkpt>
      <trkpt lat="46.59682" lon="-1.80855">
        <ele>49.672901</ele>
        <time>2022-12-18T12:57:53.632Z</time>
      </trkpt>
      <trkpt lat="46.59674" lon="-1.80842">
        <ele>49.481163</ele>
        <time>2022-12-18T12:57:55.633Z</time>
      </trkpt>
      <trkpt lat="46.59665" lon="-1.80831">
        <ele>49.291474</ele>
        <time>2022-12-18T12:57:57.651Z</time>
      </trkpt>
      <trkpt lat="46.59657" lon="-1.80819">
        <ele>49.121089</ele>
        <time>2022-12-18T12:57:59.636Z</time>
      </trkpt>
      <trkpt lat="46.5965" lon="-1.80808">
        <ele>48.951716</ele>
        <time>2022-12-18T12:58:01.643Z</time>
      </trkpt>
      <trkpt lat="46.59642" lon="-1.80797">
        <ele>48.777402</ele>
        <time>2022-12-18T12:58:03.647Z</time>
      </trkpt>
      <trkpt lat="46.59633" lon="-1.80786">
        <ele>48.598734</ele>
        <time>2022-12-18T12:58:05.644Z</time>
      </trkpt>
      <trkpt lat="46.59624" lon="-1.80774">
        <ele>48.784296</ele>
        <time>2022-12-18T12:58:07.644Z</time>
      </trkpt>
      <trkpt lat="46.59616" lon="-1.80763">
        <ele>48.961604</ele>
        <time>2022-12-18T12:58:09.648Z</time>
      </trkpt>
      <trkpt lat="46.59607" lon="-1.80751">
        <ele>49.146455</ele>
        <time>2022-12-18T12:58:11.662Z</time>
      </trkpt>
      <trkpt lat="46.59598" lon="-1.80739">
        <ele>49.336028</ele>
        <time>2022-12-18T12:58:13.646Z</time>
      </trkpt>
      <trkpt lat="46.59589" lon="-1.80728">
        <ele>49.512291</ele>
        <time>2022-12-18T12:58:15.641Z</time>
      </trkpt>
      <trkpt lat="46.59581" lon="-1.80717">
        <ele>49.689274</ele>
        <time>2022-12-18T12:58:17.649Z</time>
      </trkpt>
      <trkpt lat="46.59573" lon="-1.80706">
        <ele>49.854731</ele>
        <time>2022-12-18T12:58:19.647Z</time>
      </trkpt>
      <trkpt lat="46.59566" lon="-1.80696">
        <ele>50.003549</ele>
        <time>2022-12-18T12:58:21.646Z</time>
      </trkpt>
      <trkpt lat="46.59557" lon="-1.80683">
        <ele>50.204935</ele>
        <time>2022-12-18T12:58:24.645Z</time>
      </trkpt>
      <trkpt lat="46.59549" lon="-1.80671">
        <ele>50.384648</ele>
        <time>2022-12-18T12:58:27.694Z</time>
      </trkpt>
      <trkpt lat="46.59541" lon="-1.80662">
        <ele>50.534594</ele>
        <time>2022-12-18T12:58:30.634Z</time>
      </trkpt>
      <trkpt lat="46.59533" lon="-1.80651">
        <ele>50.706422</ele>
        <time>2022-12-18T12:58:34.633Z</time>
      </trkpt>
      <trkpt lat="46.59526" lon="-1.8064">
        <ele>50.867481</ele>
        <time>2022-12-18T12:58:38.679Z</time>
      </trkpt>
      <trkpt lat="46.59518" lon="-1.8063">
        <ele>51.03345</ele>
        <time>2022-12-18T12:58:42.650Z</time>
      </trkpt>
      <trkpt lat="46.5951" lon="-1.80619">
        <ele>51.196711</ele>
        <time>2022-12-18T12:58:46.639Z</time>
      </trkpt>
      <trkpt lat="46.59503" lon="-1.80611">
        <ele>51.340582</ele>
        <time>2022-12-18T12:58:50.647Z</time>
      </trkpt>
      <trkpt lat="46.59494" lon="-1.806">
        <ele>51.44882</ele>
        <time>2022-12-18T12:58:55.645Z</time>
      </trkpt>
      <trkpt lat="46.59487" lon="-1.80591">
        <ele>51.526745</ele>
        <time>2022-12-18T12:58:59.647Z</time>
      </trkpt>
      <trkpt lat="46.59479" lon="-1.80581">
        <ele>51.609391</ele>
        <time>2022-12-18T12:59:04.649Z</time>
      </trkpt>
      <trkpt lat="46.59472" lon="-1.80572">
        <ele>51.685101</ele>
        <time>2022-12-18T12:59:08.641Z</time>
      </trkpt>
      <trkpt lat="46.59464" lon="-1.80562">
        <ele>51.773759</ele>
        <time>2022-12-18T12:59:12.644Z</time>
      </trkpt>
      <trkpt lat="46.59457" lon="-1.80553">
        <ele>51.852655</ele>
        <time>2022-12-18T12:59:15.622Z</time>
      </trkpt>
      <trkpt lat="46.59449" lon="-1.80542">
        <ele>51.939443</ele>
        <time>2022-12-18T12:59:18.652Z</time>
      </trkpt>
      <trkpt lat="46.59441" lon="-1.80531">
        <ele>52.02723</ele>
        <time>2022-12-18T12:59:21.634Z</time>
      </trkpt>
      <trkpt lat="46.59433" lon="-1.8052">
        <ele>52.119059</ele>
        <time>2022-12-18T12:59:24.639Z</time>
      </trkpt>
      <trkpt lat="46.59424" lon="-1.80508">
        <ele>52.212807</ele>
        <time>2022-12-18T12:59:27.639Z</time>
      </trkpt>
      <trkpt lat="46.59416" lon="-1.80497">
        <ele>52.304636</ele>
        <time>2022-12-18T12:59:30.648Z</time>
      </trkpt>
      <trkpt lat="46.59408" lon="-1.80486">
        <ele>52.393019</ele>
        <time>2022-12-18T12:59:33.638Z</time>
      </trkpt>
      <trkpt lat="46.594" lon="-1.80474">
        <ele>52.484447</ele>
        <time>2022-12-18T12:59:36.628Z</time>
      </trkpt>
      <trkpt lat="46.59392" lon="-1.80463">
        <ele>52.57472</ele>
        <time>2022-12-18T12:59:39.636Z</time>
      </trkpt>
      <trkpt lat="46.59384" lon="-1.80452">
        <ele>52.660021</ele>
        <time>2022-12-18T12:59:42.647Z</time>
      </trkpt>
      <trkpt lat="46.59377" lon="-1.80442">
        <ele>52.741786</ele>
        <time>2022-12-18T12:59:45.650Z</time>
      </trkpt>
      <trkpt lat="46.5937" lon="-1.80432">
        <ele>52.821058</ele>
        <time>2022-12-18T12:59:48.646Z</time>
      </trkpt>
      <trkpt lat="46.59363" lon="-1.80422">
        <ele>52.844699</ele>
        <time>2022-12-18T12:59:51.630Z</time>
      </trkpt>
      <trkpt lat="46.59355" lon="-1.80412">
        <ele>52.861969</ele>
        <time>2022-12-18T12:59:54.637Z</time>
      </trkpt>
      <trkpt lat="46.59348" lon="-1.80402">
        <ele>52.878635</ele>
        <time>2022-12-18T12:59:57.635Z</time>
      </trkpt>
      <trkpt lat="46.5934" lon="-1.80392">
        <ele>52.894935</ele>
        <time>2022-12-18T13:00:00.641Z</time>
      </trkpt>
      <trkpt lat="46.59333" lon="-1.80383">
        <ele>52.910566</ele>
        <time>2022-12-18T13:00:03.639Z</time>
      </trkpt>
      <trkpt lat="46.59326" lon="-1.80374">
        <ele>52.926099</ele>
        <time>2022-12-18T13:00:06.621Z</time>
      </trkpt>
      <trkpt lat="46.59319" lon="-1.80365">
        <ele>52.941804</ele>
        <time>2022-12-18T13:00:09.630Z</time>
      </trkpt>
      <trkpt lat="46.59312" lon="-1.80356">
        <ele>52.957064</ele>
        <time>2022-12-18T13:00:12.621Z</time>
      </trkpt>
      <trkpt lat="46.59305" lon="-1.80347">
        <ele>52.972469</ele>
        <time>2022-12-18T13:00:15.645Z</time>
      </trkpt>
      <trkpt lat="46.59298" lon="-1.80337">
        <ele>52.988429</ele>
        <time>2022-12-18T13:00:18.642Z</time>
      </trkpt>
      <trkpt lat="46.5929" lon="-1.80328">
        <ele>53.004855</ele>
        <time>2022-12-18T13:00:21.648Z</time>
      </trkpt>
      <trkpt lat="46.59283" lon="-1.80318">
        <ele>53.021531</ele>
        <time>2022-12-18T13:00:24.635Z</time>
      </trkpt>
      <trkpt lat="46.59276" lon="-1.80307">
        <ele>53.038275</ele>
        <time>2022-12-18T13:00:27.647Z</time>
      </trkpt>
      <trkpt lat="46.59268" lon="-1.80297">
        <ele>53.054744</ele>
        <time>2022-12-18T13:00:30.628Z</time>
      </trkpt>
      <trkpt lat="46.59261" lon="-1.80287">
        <ele>53.071255</ele>
        <time>2022-12-18T13:00:33.622Z</time>
      </trkpt>
      <trkpt lat="46.59253" lon="-1.80278">
        <ele>53.088277</ele>
        <time>2022-12-18T13:00:36.647Z</time>
      </trkpt>
      <trkpt lat="46.59246" lon="-1.80268">
        <ele>53.104273</ele>
        <time>2022-12-18T13:00:39.637Z</time>
      </trkpt>
      <trkpt lat="46.59239" lon="-1.80259">
        <ele>53.119613</ele>
        <time>2022-12-18T13:00:42.637Z</time>
      </trkpt>
      <trkpt lat="46.59231" lon="-1.80247">
        <ele>53.13769</ele>
        <time>2022-12-18T13:00:46.647Z</time>
      </trkpt>
      <trkpt lat="46.59223" lon="-1.80238">
        <ele>53.151919</ele>
        <time>2022-12-18T13:00:49.695Z</time>
      </trkpt>
      <trkpt lat="46.59216" lon="-1.80226">
        <ele>53.168246</ele>
        <time>2022-12-18T13:00:52.652Z</time>
      </trkpt>
      <trkpt lat="46.59206" lon="-1.80214">
        <ele>53.186033</ele>
        <time>2022-12-18T13:00:55.631Z</time>
      </trkpt>
      <trkpt lat="46.592" lon="-1.80205">
        <ele>53.199424</ele>
        <time>2022-12-18T13:00:57.632Z</time>
      </trkpt>
      <trkpt lat="46.59192" lon="-1.80195">
        <ele>53.214736</ele>
        <time>2022-12-18T13:00:59.646Z</time>
      </trkpt>
      <trkpt lat="46.59184" lon="-1.80184">
        <ele>53.231343</ele>
        <time>2022-12-18T13:01:01.616Z</time>
      </trkpt>
      <trkpt lat="46.59175" lon="-1.80172">
        <ele>53.248274</ele>
        <time>2022-12-18T13:01:03.646Z</time>
      </trkpt>
      <trkpt lat="46.59167" lon="-1.80162">
        <ele>53.263761</ele>
        <time>2022-12-18T13:01:05.694Z</time>
      </trkpt>
      <trkpt lat="46.5916" lon="-1.80152">
        <ele>53.277543</ele>
        <time>2022-12-18T13:01:07.645Z</time>
      </trkpt>
      <trkpt lat="46.59153" lon="-1.80142">
        <ele>53.293381</ele>
        <time>2022-12-18T13:01:10.626Z</time>
      </trkpt>
      <trkpt lat="46.59145" lon="-1.80131">
        <ele>53.308482</ele>
        <time>2022-12-18T13:01:13.648Z</time>
      </trkpt>
      <trkpt lat="46.59138" lon="-1.8012">
        <ele>53.323796</ele>
        <time>2022-12-18T13:01:16.661Z</time>
      </trkpt>
      <trkpt lat="46.59131" lon="-1.80109">
        <ele>53.33917</ele>
        <time>2022-12-18T13:01:19.634Z</time>
      </trkpt>
      <trkpt lat="46.59124" lon="-1.80099">
        <ele>53.353757</ele>
        <time>2022-12-18T13:01:22.626Z</time>
      </trkpt>
      <trkpt lat="46.59117" lon="-1.80088">
        <ele>53.368218</ele>
        <time>2022-12-18T13:01:25.631Z</time>
      </trkpt>
      <trkpt lat="46.5911" lon="-1.80077">
        <ele>53.382655</ele>
        <time>2022-12-18T13:01:28.637Z</time>
      </trkpt>
      <trkpt lat="46.59104" lon="-1.80067">
        <ele>53.346087</ele>
        <time>2022-12-18T13:01:31.638Z</time>
      </trkpt>
      <trkpt lat="46.59098" lon="-1.80056">
        <ele>53.272374</ele>
        <time>2022-12-18T13:01:34.646Z</time>
      </trkpt>
      <trkpt lat="46.5909" lon="-1.80044">
        <ele>53.180789</ele>
        <time>2022-12-18T13:01:38.626Z</time>
      </trkpt>
      <trkpt lat="46.59083" lon="-1.80032">
        <ele>53.08768</ele>
        <time>2022-12-18T13:01:42.620Z</time>
      </trkpt>
      <trkpt lat="46.59077" lon="-1.80021">
        <ele>53.012178</ele>
        <time>2022-12-18T13:01:45.638Z</time>
      </trkpt>
      <trkpt lat="46.5907" lon="-1.8001">
        <ele>52.93105</ele>
        <time>2022-12-18T13:01:49.643Z</time>
      </trkpt>
      <trkpt lat="46.59063" lon="-1.79998">
        <ele>52.842752</ele>
        <time>2022-12-18T13:01:53.619Z</time>
      </trkpt>
      <trkpt lat="46.59056" lon="-1.79988">
        <ele>52.765841</ele>
        <time>2022-12-18T13:01:56.645Z</time>
      </trkpt>
      <trkpt lat="46.59049" lon="-1.79977">
        <ele>52.683043</ele>
        <time>2022-12-18T13:01:59.619Z</time>
      </trkpt>
      <trkpt lat="46.59042" lon="-1.79965">
        <ele>52.594745</ele>
        <time>2022-12-18T13:02:02.642Z</time>
      </trkpt>
      <trkpt lat="46.59034" lon="-1.79953">
        <ele>52.50422</ele>
        <time>2022-12-18T13:02:05.630Z</time>
      </trkpt>
      <trkpt lat="46.59027" lon="-1.79941">
        <ele>52.414803</ele>
        <time>2022-12-18T13:02:08.627Z</time>
      </trkpt>
      <trkpt lat="46.5902" lon="-1.79931">
        <ele>52.333123</ele>
        <time>2022-12-18T13:02:11.639Z</time>
      </trkpt>
      <trkpt lat="46.59013" lon="-1.7992">
        <ele>52.256347</ele>
        <time>2022-12-18T13:02:14.650Z</time>
      </trkpt>
      <trkpt lat="46.59006" lon="-1.7991">
        <ele>52.176719</ele>
        <time>2022-12-18T13:02:17.644Z</time>
      </trkpt>
      <trkpt lat="46.58999" lon="-1.79898">
        <ele>52.091924</ele>
        <time>2022-12-18T13:02:20.696Z</time>
      </trkpt>
      <trkpt lat="46.58992" lon="-1.79887">
        <ele>52.004413</ele>
        <time>2022-12-18T13:02:23.647Z</time>
      </trkpt>
      <trkpt lat="46.58984" lon="-1.79874">
        <ele>51.861356</ele>
        <time>2022-12-18T13:02:26.647Z</time>
      </trkpt>
      <trkpt lat="46.58976" lon="-1.79862">
        <ele>51.611984</ele>
        <time>2022-12-18T13:02:29.638Z</time>
      </trkpt>
      <trkpt lat="46.58968" lon="-1.7985">
        <ele>51.350831</ele>
        <time>2022-12-18T13:02:32.637Z</time>
      </trkpt>
      <trkpt lat="46.58958" lon="-1.79837">
        <ele>51.072952</ele>
        <time>2022-12-18T13:02:35.627Z</time>
      </trkpt>
      <trkpt lat="46.58948" lon="-1.79825">
        <ele>50.773294</ele>
        <time>2022-12-18T13:02:38.636Z</time>
      </trkpt>
      <trkpt lat="46.5894" lon="-1.79817">
        <ele>50.571969</ele>
        <time>2022-12-18T13:02:40.646Z</time>
      </trkpt>
      <trkpt lat="46.58931" lon="-1.79808">
        <ele>50.334228</ele>
        <time>2022-12-18T13:02:42.648Z</time>
      </trkpt>
      <trkpt lat="46.58921" lon="-1.798">
        <ele>50.092811</ele>
        <time>2022-12-18T13:02:44.647Z</time>
      </trkpt>
      <trkpt lat="46.58911" lon="-1.79793">
        <ele>49.849312</ele>
        <time>2022-12-18T13:02:46.633Z</time>
      </trkpt>
      <trkpt lat="46.58901" lon="-1.79786">
        <ele>49.612957</ele>
        <time>2022-12-18T13:02:48.643Z</time>
      </trkpt>
      <trkpt lat="46.58891" lon="-1.7978">
        <ele>49.376232</ele>
        <time>2022-12-18T13:02:50.647Z</time>
      </trkpt>
      <trkpt lat="46.58881" lon="-1.79775">
        <ele>49.146833</ele>
        <time>2022-12-18T13:02:52.623Z</time>
      </trkpt>
      <trkpt lat="46.58872" lon="-1.79769">
        <ele>48.935734</ele>
        <time>2022-12-18T13:02:54.632Z</time>
      </trkpt>
      <trkpt lat="46.58864" lon="-1.79764">
        <ele>48.737055</ele>
        <time>2022-12-18T13:02:56.643Z</time>
      </trkpt>
      <trkpt lat="46.58852" lon="-1.79755">
        <ele>48.461</ele>
        <time>2022-12-18T13:02:59.627Z</time>
      </trkpt>
      <trkpt lat="46.58842" lon="-1.79748">
        <ele>48.206846</ele>
        <time>2022-12-18T13:03:02.657Z</time>
      </trkpt>
      <trkpt lat="46.58832" lon="-1.79742">
        <ele>48.12624</ele>
        <time>2022-12-18T13:03:05.647Z</time>
      </trkpt>
      <trkpt lat="46.58823" lon="-1.79736">
        <ele>48.344069</ele>
        <time>2022-12-18T13:03:08.646Z</time>
      </trkpt>
      <trkpt lat="46.58813" lon="-1.7973">
        <ele>48.598215</ele>
        <time>2022-12-18T13:03:12.628Z</time>
      </trkpt>
      <trkpt lat="46.58802" lon="-1.79724">
        <ele>48.859506</ele>
        <time>2022-12-18T13:03:16.650Z</time>
      </trkpt>
      <trkpt lat="46.58792" lon="-1.79718">
        <ele>49.116919</ele>
        <time>2022-12-18T13:03:20.643Z</time>
      </trkpt>
      <trkpt lat="46.58782" lon="-1.79711">
        <ele>49.35866</ele>
        <time>2022-12-18T13:03:24.647Z</time>
      </trkpt>
      <trkpt lat="46.58771" lon="-1.79706">
        <ele>49.613276</ele>
        <time>2022-12-18T13:03:28.637Z</time>
      </trkpt>
      <trkpt lat="46.58762" lon="-1.797">
        <ele>49.855959</ele>
        <time>2022-12-18T13:03:32.643Z</time>
      </trkpt>
      <trkpt lat="46.58752" lon="-1.79694">
        <ele>50.095674</ele>
        <time>2022-12-18T13:03:36.644Z</time>
      </trkpt>
      <trkpt lat="46.58742" lon="-1.79689">
        <ele>50.332698</ele>
        <time>2022-12-18T13:03:40.628Z</time>
      </trkpt>
      <trkpt lat="46.58733" lon="-1.79683">
        <ele>50.567871</ele>
        <time>2022-12-18T13:03:44.635Z</time>
      </trkpt>
      <trkpt lat="46.58722" lon="-1.79676">
        <ele>50.830184</ele>
        <time>2022-12-18T13:03:48.635Z</time>
      </trkpt>
      <trkpt lat="46.58712" lon="-1.7967">
        <ele>51.07678</ele>
        <time>2022-12-18T13:03:52.650Z</time>
      </trkpt>
      <trkpt lat="46.58703" lon="-1.79665">
        <ele>51.299372</ele>
        <time>2022-12-18T13:03:57.646Z</time>
      </trkpt>
      <trkpt lat="46.58693" lon="-1.7966">
        <ele>51.534854</ele>
        <time>2022-12-18T13:04:02.627Z</time>
      </trkpt>
      <trkpt lat="46.58683" lon="-1.79653">
        <ele>51.788638</ele>
        <time>2022-12-18T13:04:07.622Z</time>
      </trkpt>
      <trkpt lat="46.58674" lon="-1.79647">
        <ele>52.019479</ele>
        <time>2022-12-18T13:04:12.640Z</time>
      </trkpt>
      <trkpt lat="46.58664" lon="-1.79641">
        <ele>52.375483</ele>
        <time>2022-12-18T13:04:17.691Z</time>
      </trkpt>
      <trkpt lat="46.58654" lon="-1.79635">
        <ele>52.83676</ele>
        <time>2022-12-18T13:04:22.629Z</time>
      </trkpt>
      <trkpt lat="46.58644" lon="-1.79629">
        <ele>53.287385</ele>
        <time>2022-12-18T13:04:27.643Z</time>
      </trkpt>
      <trkpt lat="46.58634" lon="-1.79623">
        <ele>53.743047</ele>
        <time>2022-12-18T13:04:32.643Z</time>
      </trkpt>
      <trkpt lat="46.58625" lon="-1.79616">
        <ele>54.171519</ele>
        <time>2022-12-18T13:04:37.638Z</time>
      </trkpt>
      <trkpt lat="46.58616" lon="-1.7961">
        <ele>54.596469</ele>
        <time>2022-12-18T13:04:42.636Z</time>
      </trkpt>
      <trkpt lat="46.58607" lon="-1.79606">
        <ele>54.993929</ele>
        <time>2022-12-18T13:04:47.648Z</time>
      </trkpt>
      <trkpt lat="46.58597" lon="-1.79601">
        <ele>55.419125</ele>
        <time>2022-12-18T13:04:52.641Z</time>
      </trkpt>
      <trkpt lat="46.58589" lon="-1.79596">
        <ele>55.811639</ele>
        <time>2022-12-18T13:04:57.640Z</time>
      </trkpt>
      <trkpt lat="46.5858" lon="-1.79591">
        <ele>56.224898</ele>
        <time>2022-12-18T13:05:02.636Z</time>
      </trkpt>
      <trkpt lat="46.58571" lon="-1.79586">
        <ele>56.611797</ele>
        <time>2022-12-18T13:05:07.625Z</time>
      </trkpt>
      <trkpt lat="46.58562" lon="-1.7958">
        <ele>57.020054</ele>
        <time>2022-12-18T13:05:12.648Z</time>
      </trkpt>
      <trkpt lat="46.58554" lon="-1.79575">
        <ele>57.4198</ele>
        <time>2022-12-18T13:05:17.639Z</time>
      </trkpt>
      <trkpt lat="46.58545" lon="-1.7957">
        <ele>57.819546</ele>
        <time>2022-12-18T13:05:22.638Z</time>
      </trkpt>
      <trkpt lat="46.58537" lon="-1.79563">
        <ele>58.207892</ele>
        <time>2022-12-18T13:05:27.623Z</time>
      </trkpt>
      <trkpt lat="46.58528" lon="-1.79558">
        <ele>58.608773</ele>
        <time>2022-12-18T13:05:32.637Z</time>
      </trkpt>
      <trkpt lat="46.58518" lon="-1.79552">
        <ele>59.069476</ele>
        <time>2022-12-18T13:05:37.651Z</time>
      </trkpt>
      <trkpt lat="46.58508" lon="-1.79546">
        <ele>59.53449</ele>
        <time>2022-12-18T13:05:42.646Z</time>
      </trkpt>
      <trkpt lat="46.58498" lon="-1.7954">
        <ele>59.698577</ele>
        <time>2022-12-18T13:05:47.648Z</time>
      </trkpt>
      <trkpt lat="46.5849" lon="-1.79535">
        <ele>59.578643</ele>
        <time>2022-12-18T13:05:51.657Z</time>
      </trkpt>
      <trkpt lat="46.5848" lon="-1.79529">
        <ele>59.450027</ele>
        <time>2022-12-18T13:05:55.630Z</time>
      </trkpt>
      <trkpt lat="46.5847" lon="-1.79524">
        <ele>59.30809</ele>
        <time>2022-12-18T13:05:59.629Z</time>
      </trkpt>
      <trkpt lat="46.58461" lon="-1.79517">
        <ele>59.171185</ele>
        <time>2022-12-18T13:06:03.641Z</time>
      </trkpt>
      <trkpt lat="46.58451" lon="-1.79511">
        <ele>59.039271</ele>
        <time>2022-12-18T13:06:07.621Z</time>
      </trkpt>
      <trkpt lat="46.58441" lon="-1.79505">
        <ele>58.895471</ele>
        <time>2022-12-18T13:06:11.630Z</time>
      </trkpt>
      <trkpt lat="46.5843" lon="-1.79498">
        <ele>58.738346</ele>
        <time>2022-12-18T13:06:15.620Z</time>
      </trkpt>
      <trkpt lat="46.5842" lon="-1.79493">
        <ele>58.608305</ele>
        <time>2022-12-18T13:06:18.649Z</time>
      </trkpt>
      <trkpt lat="46.58411" lon="-1.79486">
        <ele>58.472931</ele>
        <time>2022-12-18T13:06:21.627Z</time>
      </trkpt>
      <trkpt lat="46.58402" lon="-1.79482">
        <ele>58.351089</ele>
        <time>2022-12-18T13:06:24.648Z</time>
      </trkpt>
      <trkpt lat="46.58392" lon="-1.79474">
        <ele>58.204876</ele>
        <time>2022-12-18T13:06:28.621Z</time>
      </trkpt>
      <trkpt lat="46.58383" lon="-1.79469">
        <ele>58.085023</ele>
        <time>2022-12-18T13:06:31.692Z</time>
      </trkpt>
      <trkpt lat="46.58373" lon="-1.79462">
        <ele>57.944111</ele>
        <time>2022-12-18T13:06:34.628Z</time>
      </trkpt>
      <trkpt lat="46.58363" lon="-1.79455">
        <ele>57.792406</ele>
        <time>2022-12-18T13:06:37.653Z</time>
      </trkpt>
      <trkpt lat="46.58351" lon="-1.79448">
        <ele>57.622334</ele>
        <time>2022-12-18T13:06:40.636Z</time>
      </trkpt>
      <trkpt lat="46.58342" lon="-1.79442">
        <ele>57.498954</ele>
        <time>2022-12-18T13:06:42.630Z</time>
      </trkpt>
      <trkpt lat="46.58333" lon="-1.79436">
        <ele>57.403107</ele>
        <time>2022-12-18T13:06:44.651Z</time>
      </trkpt>
      <trkpt lat="46.58324" lon="-1.7943">
        <ele>57.326421</ele>
        <time>2022-12-18T13:06:46.646Z</time>
      </trkpt>
      <trkpt lat="46.58314" lon="-1.79424">
        <ele>57.25221</ele>
        <time>2022-12-18T13:06:48.648Z</time>
      </trkpt>
      <trkpt lat="46.58304" lon="-1.79418">
        <ele>57.173949</ele>
        <time>2022-12-18T13:06:50.646Z</time>
      </trkpt>
      <trkpt lat="46.58294" lon="-1.79411">
        <ele>57.091391</ele>
        <time>2022-12-18T13:06:52.647Z</time>
      </trkpt>
      <trkpt lat="46.58283" lon="-1.79405">
        <ele>57.004531</ele>
        <time>2022-12-18T13:06:54.645Z</time>
      </trkpt>
      <trkpt lat="46.58272" lon="-1.79398">
        <ele>56.916168</ele>
        <time>2022-12-18T13:06:56.644Z</time>
      </trkpt>
      <trkpt lat="46.58261" lon="-1.79392">
        <ele>56.826897</ele>
        <time>2022-12-18T13:06:58.647Z</time>
      </trkpt>
      <trkpt lat="46.58249" lon="-1.79384">
        <ele>56.730015</ele>
        <time>2022-12-18T13:07:00.647Z</time>
      </trkpt>
      <trkpt lat="46.58237" lon="-1.79377">
        <ele>56.640633</ele>
        <time>2022-12-18T13:07:02.649Z</time>
      </trkpt>
      <trkpt lat="46.58226" lon="-1.7937">
        <ele>56.550726</ele>
        <time>2022-12-18T13:07:04.646Z</time>
      </trkpt>
      <trkpt lat="46.58216" lon="-1.79363">
        <ele>56.467666</ele>
        <time>2022-12-18T13:07:06.652Z</time>
      </trkpt>
      <trkpt lat="46.58206" lon="-1.79357">
        <ele>56.388765</ele>
        <time>2022-12-18T13:07:08.644Z</time>
      </trkpt>
      <trkpt lat="46.58197" lon="-1.79351">
        <ele>56.318284</ele>
        <time>2022-12-18T13:07:10.642Z</time>
      </trkpt>
      <trkpt lat="46.58189" lon="-1.79345">
        <ele>56.252196</ele>
        <time>2022-12-18T13:07:12.647Z</time>
      </trkpt>
      <trkpt lat="46.58178" lon="-1.79339">
        <ele>56.163102</ele>
        <time>2022-12-18T13:07:15.639Z</time>
      </trkpt>
      <trkpt lat="46.58166" lon="-1.79332">
        <ele>55.983209</ele>
        <time>2022-12-18T13:07:18.631Z</time>
      </trkpt>
      <trkpt lat="46.58154" lon="-1.79324">
        <ele>55.721218</ele>
        <time>2022-12-18T13:07:21.649Z</time>
      </trkpt>
      <trkpt lat="46.58142" lon="-1.79317">
        <ele>55.463105</ele>
        <time>2022-12-18T13:07:24.629Z</time>
      </trkpt>
      <trkpt lat="46.5813" lon="-1.7931">
        <ele>55.216378</ele>
        <time>2022-12-18T13:07:27.629Z</time>
      </trkpt>
      <trkpt lat="46.58119" lon="-1.79303">
        <ele>54.971457</ele>
        <time>2022-12-18T13:07:30.656Z</time>
      </trkpt>
      <trkpt lat="46.58107" lon="-1.79296">
        <ele>54.720804</ele>
        <time>2022-12-18T13:07:33.627Z</time>
      </trkpt>
      <trkpt lat="46.58095" lon="-1.7929">
        <ele>54.48307</ele>
        <time>2022-12-18T13:07:36.651Z</time>
      </trkpt>
      <trkpt lat="46.58084" lon="-1.79283">
        <ele>54.246665</ele>
        <time>2022-12-18T13:07:39.637Z</time>
      </trkpt>
      <trkpt lat="46.58073" lon="-1.79276">
        <ele>54.014867</ele>
        <time>2022-12-18T13:07:42.624Z</time>
      </trkpt>
      <trkpt lat="46.58063" lon="-1.7927">
        <ele>53.784684</ele>
        <time>2022-12-18T13:07:45.646Z</time>
      </trkpt>
      <trkpt lat="46.58052" lon="-1.79264">
        <ele>53.564965</ele>
        <time>2022-12-18T13:07:48.618Z</time>
      </trkpt>
      <trkpt lat="46.58043" lon="-1.79261">
        <ele>53.381477</ele>
        <time>2022-12-18T13:07:51.646Z</time>
      </trkpt>
      <trkpt lat="46.58038" lon="-1.79255">
        <ele>53.25762</ele>
        <time>2022-12-18T13:08:36.013Z</time>
      </trkpt>
      <trkpt lat="46.58027" lon="-1.79247">
        <ele>53.018874</ele>
        <time>2022-12-18T13:19:03.631Z</time>
      </trkpt>
      <trkpt lat="46.58017" lon="-1.79241">
        <ele>52.800512</ele>
        <time>2022-12-18T13:19:07.650Z</time>
      </trkpt>
      <trkpt lat="46.58005" lon="-1.79234">
        <ele>52.580643</ele>
        <time>2022-12-18T13:19:10.617Z</time>
      </trkpt>
      <trkpt lat="46.57997" lon="-1.79229">
        <ele>52.507306</ele>
        <time>2022-12-18T13:19:12.632Z</time>
      </trkpt>
      <trkpt lat="46.57988" lon="-1.79224">
        <ele>52.430093</ele>
        <time>2022-12-18T13:19:14.650Z</time>
      </trkpt>
      <trkpt lat="46.5798" lon="-1.79219">
        <ele>52.35897</ele>
        <time>2022-12-18T13:19:16.649Z</time>
      </trkpt>
      <trkpt lat="46.57971" lon="-1.79213">
        <ele>52.284595</ele>
        <time>2022-12-18T13:19:18.650Z</time>
      </trkpt>
      <trkpt lat="46.57963" lon="-1.79208">
        <ele>52.211894</ele>
        <time>2022-12-18T13:19:20.652Z</time>
      </trkpt>
      <trkpt lat="46.57954" lon="-1.79203">
        <ele>52.137945</ele>
        <time>2022-12-18T13:19:22.649Z</time>
      </trkpt>
      <trkpt lat="46.57942" lon="-1.79195">
        <ele>52.033393</ele>
        <time>2022-12-18T13:19:25.624Z</time>
      </trkpt>
      <trkpt lat="46.57931" lon="-1.79187">
        <ele>51.934272</ele>
        <time>2022-12-18T13:19:28.628Z</time>
      </trkpt>
      <trkpt lat="46.5792" lon="-1.79181">
        <ele>51.843666</ele>
        <time>2022-12-18T13:19:31.630Z</time>
      </trkpt>
      <trkpt lat="46.5791" lon="-1.79174">
        <ele>51.752405</ele>
        <time>2022-12-18T13:19:34.629Z</time>
      </trkpt>
      <trkpt lat="46.57899" lon="-1.79168">
        <ele>51.662631</ele>
        <time>2022-12-18T13:19:37.624Z</time>
      </trkpt>
      <trkpt lat="46.57889" lon="-1.79162">
        <ele>51.577351</ele>
        <time>2022-12-18T13:19:40.625Z</time>
      </trkpt>
      <trkpt lat="46.5788" lon="-1.79156">
        <ele>51.493951</ele>
        <time>2022-12-18T13:19:43.636Z</time>
      </trkpt>
      <trkpt lat="46.57869" lon="-1.7915">
        <ele>51.405963</ele>
        <time>2022-12-18T13:19:46.640Z</time>
      </trkpt>
      <trkpt lat="46.57859" lon="-1.79143">
        <ele>51.318397</ele>
        <time>2022-12-18T13:19:49.634Z</time>
      </trkpt>
      <trkpt lat="46.5785" lon="-1.79137">
        <ele>51.233598</ele>
        <time>2022-12-18T13:19:52.637Z</time>
      </trkpt>
      <trkpt lat="46.5784" lon="-1.79131">
        <ele>51.155123</ele>
        <time>2022-12-18T13:19:55.628Z</time>
      </trkpt>
      <trkpt lat="46.57831" lon="-1.79126">
        <ele>51.082989</ele>
        <time>2022-12-18T13:19:58.649Z</time>
      </trkpt>
      <trkpt lat="46.57821" lon="-1.7912">
        <ele>51.008239</ele>
        <time>2022-12-18T13:20:01.625Z</time>
      </trkpt>
      <trkpt lat="46.57812" lon="-1.79113">
        <ele>50.931189</ele>
        <time>2022-12-18T13:20:04.626Z</time>
      </trkpt>
      <trkpt lat="46.57802" lon="-1.79107">
        <ele>50.855392</ele>
        <time>2022-12-18T13:20:07.649Z</time>
      </trkpt>
      <trkpt lat="46.57791" lon="-1.79101">
        <ele>50.774111</ele>
        <time>2022-12-18T13:20:10.648Z</time>
      </trkpt>
      <trkpt lat="46.57781" lon="-1.79095">
        <ele>50.694891</ele>
        <time>2022-12-18T13:20:13.645Z</time>
      </trkpt>
      <trkpt lat="46.57771" lon="-1.79089">
        <ele>50.618239</ele>
        <time>2022-12-18T13:20:16.646Z</time>
      </trkpt>
      <trkpt lat="46.57761" lon="-1.79082">
        <ele>50.537311</ele>
        <time>2022-12-18T13:20:19.634Z</time>
      </trkpt>
      <trkpt lat="46.57751" lon="-1.79076">
        <ele>50.457358</ele>
        <time>2022-12-18T13:20:22.631Z</time>
      </trkpt>
      <trkpt lat="46.57741" lon="-1.79069">
        <ele>50.377113</ele>
        <time>2022-12-18T13:20:25.642Z</time>
      </trkpt>
      <trkpt lat="46.5773" lon="-1.79063">
        <ele>50.294873</ele>
        <time>2022-12-18T13:20:28.641Z</time>
      </trkpt>
      <trkpt lat="46.57719" lon="-1.79056">
        <ele>50.210722</ele>
        <time>2022-12-18T13:20:31.630Z</time>
      </trkpt>
      <trkpt lat="46.57708" lon="-1.79048">
        <ele>50.122038</ele>
        <time>2022-12-18T13:20:34.652Z</time>
      </trkpt>
      <trkpt lat="46.57697" lon="-1.79041">
        <ele>50.032623</ele>
        <time>2022-12-18T13:20:37.631Z</time>
      </trkpt>
      <trkpt lat="46.57684" lon="-1.79034">
        <ele>49.937623</ele>
        <time>2022-12-18T13:20:40.644Z</time>
      </trkpt>
      <trkpt lat="46.57672" lon="-1.79026">
        <ele>49.829574</ele>
        <time>2022-12-18T13:20:43.641Z</time>
      </trkpt>
      <trkpt lat="46.5766" lon="-1.79018">
        <ele>49.700891</ele>
        <time>2022-12-18T13:20:46.627Z</time>
      </trkpt>
      <trkpt lat="46.57648" lon="-1.79011">
        <ele>49.57093</ele>
        <time>2022-12-18T13:20:49.647Z</time>
      </trkpt>
      <trkpt lat="46.57639" lon="-1.79005">
        <ele>49.473296</ele>
        <time>2022-12-18T13:20:51.632Z</time>
      </trkpt>
      <trkpt lat="46.57629" lon="-1.79">
        <ele>49.375526</ele>
        <time>2022-12-18T13:20:53.628Z</time>
      </trkpt>
      <trkpt lat="46.5762" lon="-1.78994">
        <ele>49.271531</ele>
        <time>2022-12-18T13:20:55.645Z</time>
      </trkpt>
      <trkpt lat="46.57609" lon="-1.78987">
        <ele>49.158687</ele>
        <time>2022-12-18T13:20:57.646Z</time>
      </trkpt>
      <trkpt lat="46.57599" lon="-1.7898">
        <ele>49.046738</ele>
        <time>2022-12-18T13:20:59.638Z</time>
      </trkpt>
      <trkpt lat="46.57587" lon="-1.78974">
        <ele>48.928095</ele>
        <time>2022-12-18T13:21:01.648Z</time>
      </trkpt>
      <trkpt lat="46.57576" lon="-1.78966">
        <ele>48.806209</ele>
        <time>2022-12-18T13:21:03.646Z</time>
      </trkpt>
      <trkpt lat="46.57565" lon="-1.7896">
        <ele>48.692992</ele>
        <time>2022-12-18T13:21:05.646Z</time>
      </trkpt>
      <trkpt lat="46.57555" lon="-1.78954">
        <ele>48.586856</ele>
        <time>2022-12-18T13:21:07.644Z</time>
      </trkpt>
      <trkpt lat="46.57546" lon="-1.78948">
        <ele>48.490487</ele>
        <time>2022-12-18T13:21:09.646Z</time>
      </trkpt>
      <trkpt lat="46.57537" lon="-1.78943">
        <ele>48.397997</ele>
        <time>2022-12-18T13:21:11.645Z</time>
      </trkpt>
      <trkpt lat="46.57529" lon="-1.78938">
        <ele>48.309494</ele>
        <time>2022-12-18T13:21:13.635Z</time>
      </trkpt>
      <trkpt lat="46.57517" lon="-1.78931">
        <ele>48.185069</ele>
        <time>2022-12-18T13:21:16.626Z</time>
      </trkpt>
      <trkpt lat="46.57506" lon="-1.78924">
        <ele>48.16542</ele>
        <time>2022-12-18T13:21:19.636Z</time>
      </trkpt>
      <trkpt lat="46.57495" lon="-1.78917">
        <ele>48.247652</ele>
        <time>2022-12-18T13:21:22.630Z</time>
      </trkpt>
      <trkpt lat="46.57484" lon="-1.7891">
        <ele>48.330993</ele>
        <time>2022-12-18T13:21:25.638Z</time>
      </trkpt>
      <trkpt lat="46.57473" lon="-1.78904">
        <ele>48.418637</ele>
        <time>2022-12-18T13:21:28.631Z</time>
      </trkpt>
      <trkpt lat="46.57462" lon="-1.78897">
        <ele>48.50657</ele>
        <time>2022-12-18T13:21:31.625Z</time>
      </trkpt>
      <trkpt lat="46.5745" lon="-1.7889">
        <ele>48.596744</ele>
        <time>2022-12-18T13:21:34.636Z</time>
      </trkpt>
      <trkpt lat="46.57438" lon="-1.78883">
        <ele>48.686836</ele>
        <time>2022-12-18T13:21:37.627Z</time>
      </trkpt>
      <trkpt lat="46.57426" lon="-1.78876">
        <ele>48.777291</ele>
        <time>2022-12-18T13:21:40.624Z</time>
      </trkpt>
      <trkpt lat="46.57414" lon="-1.78869">
        <ele>48.867564</ele>
        <time>2022-12-18T13:21:43.645Z</time>
      </trkpt>
      <trkpt lat="46.57403" lon="-1.78861">
        <ele>48.95933</ele>
        <time>2022-12-18T13:21:46.624Z</time>
      </trkpt>
      <trkpt lat="46.57391" lon="-1.78853">
        <ele>49.049836</ele>
        <time>2022-12-18T13:21:49.629Z</time>
      </trkpt>
      <trkpt lat="46.57379" lon="-1.78846">
        <ele>49.140591</ele>
        <time>2022-12-18T13:21:52.629Z</time>
      </trkpt>
      <trkpt lat="46.57367" lon="-1.78838">
        <ele>49.234934</ele>
        <time>2022-12-18T13:21:55.639Z</time>
      </trkpt>
      <trkpt lat="46.57359" lon="-1.78833">
        <ele>49.298334</ele>
        <time>2022-12-18T13:21:57.645Z</time>
      </trkpt>
      <trkpt lat="46.57347" lon="-1.78825">
        <ele>49.391236</ele>
        <time>2022-12-18T13:22:00.646Z</time>
      </trkpt>
      <trkpt lat="46.57336" lon="-1.78818">
        <ele>49.232014</ele>
        <time>2022-12-18T13:22:03.650Z</time>
      </trkpt>
      <trkpt lat="46.57323" lon="-1.7881">
        <ele>49.033023</ele>
        <time>2022-12-18T13:22:06.646Z</time>
      </trkpt>
      <trkpt lat="46.57311" lon="-1.78802">
        <ele>48.83593</ele>
        <time>2022-12-18T13:22:09.648Z</time>
      </trkpt>
      <trkpt lat="46.573" lon="-1.78793">
        <ele>48.641041</ele>
        <time>2022-12-18T13:22:12.634Z</time>
      </trkpt>
      <trkpt lat="46.57288" lon="-1.78784">
        <ele>48.440875</ele>
        <time>2022-12-18T13:22:15.650Z</time>
      </trkpt>
      <trkpt lat="46.57276" lon="-1.78776">
        <ele>48.248249</ele>
        <time>2022-12-18T13:22:18.623Z</time>
      </trkpt>
      <trkpt lat="46.57265" lon="-1.78767">
        <ele>48.055814</ele>
        <time>2022-12-18T13:22:21.625Z</time>
      </trkpt>
      <trkpt lat="46.57253" lon="-1.78757">
        <ele>47.856469</ele>
        <time>2022-12-18T13:22:24.626Z</time>
      </trkpt>
      <trkpt lat="46.57242" lon="-1.78746">
        <ele>47.657524</ele>
        <time>2022-12-18T13:22:27.627Z</time>
      </trkpt>
      <trkpt lat="46.57231" lon="-1.78734">
        <ele>47.452615</ele>
        <time>2022-12-18T13:22:30.646Z</time>
      </trkpt>
      <trkpt lat="46.57222" lon="-1.78725">
        <ele>47.292166</ele>
        <time>2022-12-18T13:22:32.636Z</time>
      </trkpt>
      <trkpt lat="46.57214" lon="-1.78716">
        <ele>47.137718</ele>
        <time>2022-12-18T13:22:34.630Z</time>
      </trkpt>
      <trkpt lat="46.57205" lon="-1.78706">
        <ele>46.974824</ele>
        <time>2022-12-18T13:22:36.628Z</time>
      </trkpt>
      <trkpt lat="46.57196" lon="-1.78696">
        <ele>46.80116</ele>
        <time>2022-12-18T13:22:38.629Z</time>
      </trkpt>
      <trkpt lat="46.57186" lon="-1.78687">
        <ele>46.757071</ele>
        <time>2022-12-18T13:22:40.650Z</time>
      </trkpt>
      <trkpt lat="46.57176" lon="-1.78676">
        <ele>46.807505</ele>
        <time>2022-12-18T13:22:42.627Z</time>
      </trkpt>
      <trkpt lat="46.57167" lon="-1.78666">
        <ele>46.857693</ele>
        <time>2022-12-18T13:22:44.638Z</time>
      </trkpt>
      <trkpt lat="46.57158" lon="-1.78655">
        <ele>46.907577</ele>
        <time>2022-12-18T13:22:46.631Z</time>
      </trkpt>
      <trkpt lat="46.57149" lon="-1.78645">
        <ele>46.954558</ele>
        <time>2022-12-18T13:22:48.652Z</time>
      </trkpt>
      <trkpt lat="46.5714" lon="-1.78636">
        <ele>47.001496</ele>
        <time>2022-12-18T13:22:50.644Z</time>
      </trkpt>
      <trkpt lat="46.57131" lon="-1.78627">
        <ele>47.046872</ele>
        <time>2022-12-18T13:22:52.651Z</time>
      </trkpt>
      <trkpt lat="46.57123" lon="-1.78618">
        <ele>47.091397</ele>
        <time>2022-12-18T13:22:54.649Z</time>
      </trkpt>
      <trkpt lat="46.57115" lon="-1.7861">
        <ele>47.131787</ele>
        <time>2022-12-18T13:22:56.633Z</time>
      </trkpt>
      <trkpt lat="46.57107" lon="-1.78601">
        <ele>47.172714</ele>
        <time>2022-12-18T13:22:58.633Z</time>
      </trkpt>
      <trkpt lat="46.571" lon="-1.78592">
        <ele>47.213388</ele>
        <time>2022-12-18T13:23:00.650Z</time>
      </trkpt>
      <trkpt lat="46.57092" lon="-1.78584">
        <ele>47.253786</ele>
        <time>2022-12-18T13:23:02.653Z</time>
      </trkpt>
      <trkpt lat="46.57085" lon="-1.78576">
        <ele>47.292357</ele>
        <time>2022-12-18T13:23:04.627Z</time>
      </trkpt>
      <trkpt lat="46.57078" lon="-1.78569">
        <ele>47.330552</ele>
        <time>2022-12-18T13:23:06.647Z</time>
      </trkpt>
      <trkpt lat="46.57068" lon="-1.78557">
        <ele>47.385585</ele>
        <time>2022-12-18T13:23:09.630Z</time>
      </trkpt>
      <trkpt lat="46.57058" lon="-1.78547">
        <ele>47.437329</ele>
        <time>2022-12-18T13:23:12.628Z</time>
      </trkpt>
      <trkpt lat="46.57048" lon="-1.78536">
        <ele>47.490958</ele>
        <time>2022-12-18T13:23:15.622Z</time>
      </trkpt>
      <trkpt lat="46.57038" lon="-1.78526">
        <ele>47.577935</ele>
        <time>2022-12-18T13:23:18.626Z</time>
      </trkpt>
      <trkpt lat="46.57028" lon="-1.78515">
        <ele>47.666416</ele>
        <time>2022-12-18T13:23:21.633Z</time>
      </trkpt>
      <trkpt lat="46.57017" lon="-1.78505">
        <ele>47.757508</ele>
        <time>2022-12-18T13:23:24.637Z</time>
      </trkpt>
      <trkpt lat="46.57007" lon="-1.78494">
        <ele>47.846573</ele>
        <time>2022-12-18T13:23:27.634Z</time>
      </trkpt>
      <trkpt lat="46.56997" lon="-1.78484">
        <ele>47.933987</ele>
        <time>2022-12-18T13:23:30.621Z</time>
      </trkpt>
      <trkpt lat="46.56987" lon="-1.78473">
        <ele>48.02218</ele>
        <time>2022-12-18T13:23:33.639Z</time>
      </trkpt>
      <trkpt lat="46.56977" lon="-1.78462">
        <ele>48.111265</ele>
        <time>2022-12-18T13:23:36.655Z</time>
      </trkpt>
      <trkpt lat="46.56967" lon="-1.78452">
        <ele>48.203509</ele>
        <time>2022-12-18T13:23:39.640Z</time>
      </trkpt>
      <trkpt lat="46.56956" lon="-1.78441">
        <ele>48.296922</ele>
        <time>2022-12-18T13:23:42.620Z</time>
      </trkpt>
      <trkpt lat="46.56945" lon="-1.78429">
        <ele>48.390323</ele>
        <time>2022-12-18T13:23:45.648Z</time>
      </trkpt>
      <trkpt lat="46.56935" lon="-1.78418">
        <ele>48.48434</ele>
        <time>2022-12-18T13:23:48.649Z</time>
      </trkpt>
      <trkpt lat="46.56925" lon="-1.78407">
        <ele>48.575433</ele>
        <time>2022-12-18T13:23:51.646Z</time>
      </trkpt>
      <trkpt lat="46.56914" lon="-1.78396">
        <ele>48.666807</ele>
        <time>2022-12-18T13:23:54.657Z</time>
      </trkpt>
      <trkpt lat="46.56905" lon="-1.78385">
        <ele>48.755026</ele>
        <time>2022-12-18T13:23:57.640Z</time>
      </trkpt>
      <trkpt lat="46.56895" lon="-1.78375">
        <ele>48.656566</ele>
        <time>2022-12-18T13:24:00.631Z</time>
      </trkpt>
      <trkpt lat="46.56886" lon="-1.78365">
        <ele>48.493592</ele>
        <time>2022-12-18T13:24:03.649Z</time>
      </trkpt>
      <trkpt lat="46.56877" lon="-1.78356">
        <ele>48.338106</ele>
        <time>2022-12-18T13:24:06.625Z</time>
      </trkpt>
      <trkpt lat="46.56868" lon="-1.78347">
        <ele>48.185288</ele>
        <time>2022-12-18T13:24:09.643Z</time>
      </trkpt>
      <trkpt lat="46.56859" lon="-1.78338">
        <ele>48.036105</ele>
        <time>2022-12-18T13:24:12.645Z</time>
      </trkpt>
      <trkpt lat="46.56851" lon="-1.7833">
        <ele>47.885193</ele>
        <time>2022-12-18T13:24:15.631Z</time>
      </trkpt>
      <trkpt lat="46.56842" lon="-1.7832">
        <ele>47.730285</ele>
        <time>2022-12-18T13:24:18.647Z</time>
      </trkpt>
      <trkpt lat="46.56833" lon="-1.78311">
        <ele>47.573632</ele>
        <time>2022-12-18T13:24:21.636Z</time>
      </trkpt>
      <trkpt lat="46.56824" lon="-1.78301">
        <ele>47.41179</ele>
        <time>2022-12-18T13:24:24.650Z</time>
      </trkpt>
      <trkpt lat="46.56815" lon="-1.78291">
        <ele>47.24705</ele>
        <time>2022-12-18T13:24:27.642Z</time>
      </trkpt>
      <trkpt lat="46.56806" lon="-1.7828">
        <ele>47.08213</ele>
        <time>2022-12-18T13:24:30.627Z</time>
      </trkpt>
      <trkpt lat="46.56796" lon="-1.7827">
        <ele>46.909814</ele>
        <time>2022-12-18T13:24:33.643Z</time>
      </trkpt>
      <trkpt lat="46.56786" lon="-1.78258">
        <ele>46.730356</ele>
        <time>2022-12-18T13:24:36.621Z</time>
      </trkpt>
      <trkpt lat="46.56776" lon="-1.78246">
        <ele>46.543851</ele>
        <time>2022-12-18T13:24:39.634Z</time>
      </trkpt>
      <trkpt lat="46.5677" lon="-1.78237">
        <ele>46.413577</ele>
        <time>2022-12-18T13:24:41.629Z</time>
      </trkpt>
      <trkpt lat="46.56762" lon="-1.78228">
        <ele>46.280898</ele>
        <time>2022-12-18T13:24:43.631Z</time>
      </trkpt>
      <trkpt lat="46.56755" lon="-1.78219">
        <ele>46.109172</ele>
        <time>2022-12-18T13:24:45.634Z</time>
      </trkpt>
      <trkpt lat="46.56747" lon="-1.7821">
        <ele>45.913471</ele>
        <time>2022-12-18T13:24:47.653Z</time>
      </trkpt>
      <trkpt lat="46.5674" lon="-1.78203">
        <ele>45.721631</ele>
        <time>2022-12-18T13:24:49.637Z</time>
      </trkpt>
      <trkpt lat="46.56732" lon="-1.78195">
        <ele>45.526662</ele>
        <time>2022-12-18T13:24:51.636Z</time>
      </trkpt>
      <trkpt lat="46.56724" lon="-1.78186">
        <ele>45.327357</ele>
        <time>2022-12-18T13:24:53.651Z</time>
      </trkpt>
      <trkpt lat="46.56717" lon="-1.78177">
        <ele>45.134617</ele>
        <time>2022-12-18T13:24:55.630Z</time>
      </trkpt>
      <trkpt lat="46.56709" lon="-1.78169">
        <ele>44.941307</ele>
        <time>2022-12-18T13:24:57.634Z</time>
      </trkpt>
      <trkpt lat="46.56702" lon="-1.78161">
        <ele>44.754624</ele>
        <time>2022-12-18T13:24:59.638Z</time>
      </trkpt>
      <trkpt lat="46.56691" lon="-1.7815">
        <ele>44.481624</ele>
        <time>2022-12-18T13:25:02.637Z</time>
      </trkpt>
      <trkpt lat="46.56681" lon="-1.78141">
        <ele>44.232358</ele>
        <time>2022-12-18T13:25:05.633Z</time>
      </trkpt>
      <trkpt lat="46.5667" lon="-1.78131">
        <ele>43.967757</ele>
        <time>2022-12-18T13:25:08.646Z</time>
      </trkpt>
      <trkpt lat="46.56657" lon="-1.78123">
        <ele>43.688865</ele>
        <time>2022-12-18T13:25:11.648Z</time>
      </trkpt>
      <trkpt lat="46.56649" lon="-1.78118">
        <ele>43.499671</ele>
        <time>2022-12-18T13:25:13.635Z</time>
      </trkpt>
      <trkpt lat="46.5664" lon="-1.78113">
        <ele>43.312153</ele>
        <time>2022-12-18T13:25:15.651Z</time>
      </trkpt>
      <trkpt lat="46.56631" lon="-1.78109">
        <ele>43.116892</ele>
        <time>2022-12-18T13:25:17.653Z</time>
      </trkpt>
      <trkpt lat="46.56622" lon="-1.78105">
        <ele>42.909244</ele>
        <time>2022-12-18T13:25:19.634Z</time>
      </trkpt>
      <trkpt lat="46.56613" lon="-1.78101">
        <ele>42.716822</ele>
        <time>2022-12-18T13:25:21.631Z</time>
      </trkpt>
      <trkpt lat="46.56603" lon="-1.78098">
        <ele>42.528378</ele>
        <time>2022-12-18T13:25:23.649Z</time>
      </trkpt>
      <trkpt lat="46.56594" lon="-1.78095">
        <ele>42.645679</ele>
        <time>2022-12-18T13:25:25.651Z</time>
      </trkpt>
      <trkpt lat="46.56585" lon="-1.78091">
        <ele>42.766039</ele>
        <time>2022-12-18T13:25:27.654Z</time>
      </trkpt>
      <trkpt lat="46.56576" lon="-1.78087">
        <ele>42.885659</ele>
        <time>2022-12-18T13:25:29.626Z</time>
      </trkpt>
      <trkpt lat="46.56566" lon="-1.78083">
        <ele>43.010092</ele>
        <time>2022-12-18T13:25:31.633Z</time>
      </trkpt>
      <trkpt lat="46.56557" lon="-1.78079">
        <ele>43.12848</ele>
        <time>2022-12-18T13:25:33.642Z</time>
      </trkpt>
      <trkpt lat="46.56548" lon="-1.78076">
        <ele>43.250492</ele>
        <time>2022-12-18T13:25:35.650Z</time>
      </trkpt>
      <trkpt lat="46.56538" lon="-1.78072">
        <ele>43.377568</ele>
        <time>2022-12-18T13:25:37.646Z</time>
      </trkpt>
      <trkpt lat="46.56529" lon="-1.78068">
        <ele>43.496929</ele>
        <time>2022-12-18T13:25:39.639Z</time>
      </trkpt>
      <trkpt lat="46.5652" lon="-1.78064">
        <ele>43.609797</ele>
        <time>2022-12-18T13:25:41.641Z</time>
      </trkpt>
      <trkpt lat="46.56512" lon="-1.78061">
        <ele>43.723243</ele>
        <time>2022-12-18T13:25:43.630Z</time>
      </trkpt>
      <trkpt lat="46.56499" lon="-1.78057">
        <ele>43.885015</ele>
        <time>2022-12-18T13:25:46.638Z</time>
      </trkpt>
      <trkpt lat="46.56486" lon="-1.78052">
        <ele>44.048884</ele>
        <time>2022-12-18T13:25:49.633Z</time>
      </trkpt>
      <trkpt lat="46.56474" lon="-1.78046">
        <ele>44.212986</ele>
        <time>2022-12-18T13:25:52.630Z</time>
      </trkpt>
      <trkpt lat="46.56461" lon="-1.78041">
        <ele>44.375647</ele>
        <time>2022-12-18T13:25:55.642Z</time>
      </trkpt>
      <trkpt lat="46.56449" lon="-1.78037">
        <ele>44.536419</ele>
        <time>2022-12-18T13:25:58.625Z</time>
      </trkpt>
      <trkpt lat="46.56437" lon="-1.78032">
        <ele>44.695981</ele>
        <time>2022-12-18T13:26:01.626Z</time>
      </trkpt>
      <trkpt lat="46.56424" lon="-1.78027">
        <ele>44.750417</ele>
        <time>2022-12-18T13:26:04.640Z</time>
      </trkpt>
      <trkpt lat="46.56411" lon="-1.78022">
        <ele>44.691984</ele>
        <time>2022-12-18T13:26:07.628Z</time>
      </trkpt>
      <trkpt lat="46.56402" lon="-1.78019">
        <ele>44.65196</ele>
        <time>2022-12-18T13:26:09.640Z</time>
      </trkpt>
      <trkpt lat="46.5639" lon="-1.78014">
        <ele>44.594732</ele>
        <time>2022-12-18T13:26:12.625Z</time>
      </trkpt>
      <trkpt lat="46.56377" lon="-1.78009">
        <ele>44.539291</ele>
        <time>2022-12-18T13:26:15.649Z</time>
      </trkpt>
      <trkpt lat="46.56365" lon="-1.78004">
        <ele>44.48315</ele>
        <time>2022-12-18T13:26:18.630Z</time>
      </trkpt>
      <trkpt lat="46.56353" lon="-1.78">
        <ele>44.428904</ele>
        <time>2022-12-18T13:26:21.628Z</time>
      </trkpt>
      <trkpt lat="46.56343" lon="-1.77995">
        <ele>44.380685</ele>
        <time>2022-12-18T13:26:24.655Z</time>
      </trkpt>
      <trkpt lat="46.56332" lon="-1.77991">
        <ele>44.329631</ele>
        <time>2022-12-18T13:26:27.630Z</time>
      </trkpt>
      <trkpt lat="46.5632" lon="-1.77986">
        <ele>44.275123</ele>
        <time>2022-12-18T13:26:30.623Z</time>
      </trkpt>
      <trkpt lat="46.56308" lon="-1.77982">
        <ele>44.222906</ele>
        <time>2022-12-18T13:26:33.623Z</time>
      </trkpt>
      <trkpt lat="46.56297" lon="-1.77977">
        <ele>44.169337</ele>
        <time>2022-12-18T13:26:36.630Z</time>
      </trkpt>
      <trkpt lat="46.56285" lon="-1.77971">
        <ele>44.11231</ele>
        <time>2022-12-18T13:26:39.637Z</time>
      </trkpt>
      <trkpt lat="46.56273" lon="-1.77963">
        <ele>44.056357</ele>
        <time>2022-12-18T13:26:42.625Z</time>
      </trkpt>
      <trkpt lat="46.56262" lon="-1.77954">
        <ele>43.999334</ele>
        <time>2022-12-18T13:26:45.635Z</time>
      </trkpt>
      <trkpt lat="46.56251" lon="-1.77946">
        <ele>44.097046</ele>
        <time>2022-12-18T13:26:48.638Z</time>
      </trkpt>
      <trkpt lat="46.56241" lon="-1.77939">
        <ele>44.241813</ele>
        <time>2022-12-18T13:26:51.622Z</time>
      </trkpt>
      <trkpt lat="46.56231" lon="-1.77931">
        <ele>44.386989</ele>
        <time>2022-12-18T13:26:54.654Z</time>
      </trkpt>
      <trkpt lat="46.56221" lon="-1.77926">
        <ele>44.523049</ele>
        <time>2022-12-18T13:26:57.634Z</time>
      </trkpt>
      <trkpt lat="46.56211" lon="-1.77921">
        <ele>44.659339</ele>
        <time>2022-12-18T13:27:00.623Z</time>
      </trkpt>
      <trkpt lat="46.56202" lon="-1.77913">
        <ele>44.790874</ele>
        <time>2022-12-18T13:27:03.630Z</time>
      </trkpt>
      <trkpt lat="46.56192" lon="-1.77906">
        <ele>44.931004</ele>
        <time>2022-12-18T13:27:06.637Z</time>
      </trkpt>
      <trkpt lat="46.56182" lon="-1.779">
        <ele>45.075702</ele>
        <time>2022-12-18T13:27:09.634Z</time>
      </trkpt>
      <trkpt lat="46.56171" lon="-1.77895">
        <ele>45.225234</ele>
        <time>2022-12-18T13:27:12.637Z</time>
      </trkpt>
      <trkpt lat="46.56159" lon="-1.77889">
        <ele>45.379904</ele>
        <time>2022-12-18T13:27:15.619Z</time>
      </trkpt>
      <trkpt lat="46.56148" lon="-1.77884">
        <ele>45.536873</ele>
        <time>2022-12-18T13:27:18.649Z</time>
      </trkpt>
      <trkpt lat="46.56136" lon="-1.77879">
        <ele>45.698758</ele>
        <time>2022-12-18T13:27:21.627Z</time>
      </trkpt>
      <trkpt lat="46.56124" lon="-1.77873">
        <ele>45.857073</ele>
        <time>2022-12-18T13:27:24.628Z</time>
      </trkpt>
      <trkpt lat="46.56112" lon="-1.77867">
        <ele>46.012032</ele>
        <time>2022-12-18T13:27:27.634Z</time>
      </trkpt>
      <trkpt lat="46.56101" lon="-1.77862">
        <ele>46.163704</ele>
        <time>2022-12-18T13:27:30.636Z</time>
      </trkpt>
      <trkpt lat="46.5609" lon="-1.77857">
        <ele>46.308202</ele>
        <time>2022-12-18T13:27:33.627Z</time>
      </trkpt>
      <trkpt lat="46.56079" lon="-1.77851">
        <ele>46.412323</ele>
        <time>2022-12-18T13:27:36.630Z</time>
      </trkpt>
      <trkpt lat="46.56068" lon="-1.77845">
        <ele>46.517715</ele>
        <time>2022-12-18T13:27:39.634Z</time>
      </trkpt>
      <trkpt lat="46.56056" lon="-1.77839">
        <ele>46.622663</ele>
        <time>2022-12-18T13:27:42.641Z</time>
      </trkpt>
      <trkpt lat="46.56046" lon="-1.77834">
        <ele>46.717025</ele>
        <time>2022-12-18T13:27:45.631Z</time>
      </trkpt>
      <trkpt lat="46.56037" lon="-1.7783">
        <ele>46.807738</ele>
        <time>2022-12-18T13:27:48.633Z</time>
      </trkpt>
      <trkpt lat="46.56026" lon="-1.77825">
        <ele>46.906111</ele>
        <time>2022-12-18T13:27:51.622Z</time>
      </trkpt>
      <trkpt lat="46.56015" lon="-1.7782">
        <ele>47.003947</ele>
        <time>2022-12-18T13:27:54.625Z</time>
      </trkpt>
      <trkpt lat="46.56005" lon="-1.77815">
        <ele>47.105155</ele>
        <time>2022-12-18T13:27:57.646Z</time>
      </trkpt>
      <trkpt lat="46.55993" lon="-1.77809">
        <ele>47.21259</ele>
        <time>2022-12-18T13:28:00.638Z</time>
      </trkpt>
      <trkpt lat="46.55982" lon="-1.77804">
        <ele>47.313495</ele>
        <time>2022-12-18T13:28:03.651Z</time>
      </trkpt>
      <trkpt lat="46.55971" lon="-1.77798">
        <ele>47.421554</ele>
        <time>2022-12-18T13:28:06.642Z</time>
      </trkpt>
      <trkpt lat="46.55959" lon="-1.77792">
        <ele>47.531079</ele>
        <time>2022-12-18T13:28:09.636Z</time>
      </trkpt>
      <trkpt lat="46.55947" lon="-1.77787">
        <ele>47.641824</ele>
        <time>2022-12-18T13:28:12.626Z</time>
      </trkpt>
      <trkpt lat="46.55935" lon="-1.77781">
        <ele>47.749548</ele>
        <time>2022-12-18T13:28:15.651Z</time>
      </trkpt>
      <trkpt lat="46.55925" lon="-1.77775">
        <ele>47.852241</ele>
        <time>2022-12-18T13:28:18.650Z</time>
      </trkpt>
      <trkpt lat="46.55914" lon="-1.77769">
        <ele>47.906119</ele>
        <time>2022-12-18T13:28:21.632Z</time>
      </trkpt>
      <trkpt lat="46.55904" lon="-1.77763">
        <ele>47.939751</ele>
        <time>2022-12-18T13:28:24.627Z</time>
      </trkpt>
      <trkpt lat="46.55892" lon="-1.77756">
        <ele>47.975944</ele>
        <time>2022-12-18T13:28:27.646Z</time>
      </trkpt>
      <trkpt lat="46.55881" lon="-1.77749">
        <ele>48.011823</ele>
        <time>2022-12-18T13:28:30.632Z</time>
      </trkpt>
      <trkpt lat="46.5587" lon="-1.77742">
        <ele>48.045969</ele>
        <time>2022-12-18T13:28:33.639Z</time>
      </trkpt>
      <trkpt lat="46.5586" lon="-1.77737">
        <ele>48.077678</ele>
        <time>2022-12-18T13:28:36.624Z</time>
      </trkpt>
      <trkpt lat="46.55849" lon="-1.7773">
        <ele>48.112017</ele>
        <time>2022-12-18T13:28:39.637Z</time>
      </trkpt>
      <trkpt lat="46.55839" lon="-1.77724">
        <ele>48.146</ele>
        <time>2022-12-18T13:28:42.630Z</time>
      </trkpt>
      <trkpt lat="46.55828" lon="-1.77717">
        <ele>48.179282</ele>
        <time>2022-12-18T13:28:45.629Z</time>
      </trkpt>
      <trkpt lat="46.55818" lon="-1.7771">
        <ele>48.213767</ele>
        <time>2022-12-18T13:28:48.626Z</time>
      </trkpt>
      <trkpt lat="46.55808" lon="-1.77703">
        <ele>48.246055</ele>
        <time>2022-12-18T13:28:51.638Z</time>
      </trkpt>
      <trkpt lat="46.55798" lon="-1.77698">
        <ele>48.276319</ele>
        <time>2022-12-18T13:28:54.619Z</time>
      </trkpt>
      <trkpt lat="46.55788" lon="-1.77691">
        <ele>48.308281</ele>
        <time>2022-12-18T13:28:57.651Z</time>
      </trkpt>
      <trkpt lat="46.55778" lon="-1.77685">
        <ele>48.342105</ele>
        <time>2022-12-18T13:29:00.636Z</time>
      </trkpt>
      <trkpt lat="46.55767" lon="-1.77678">
        <ele>48.377408</ele>
        <time>2022-12-18T13:29:03.653Z</time>
      </trkpt>
      <trkpt lat="46.55756" lon="-1.77671">
        <ele>48.41077</ele>
        <time>2022-12-18T13:29:06.646Z</time>
      </trkpt>
      <trkpt lat="46.55747" lon="-1.77666">
        <ele>48.221024</ele>
        <time>2022-12-18T13:29:09.638Z</time>
      </trkpt>
      <trkpt lat="46.55738" lon="-1.7766">
        <ele>48.031591</ele>
        <time>2022-12-18T13:29:12.639Z</time>
      </trkpt>
      <trkpt lat="46.55729" lon="-1.77655">
        <ele>47.852527</ele>
        <time>2022-12-18T13:29:15.632Z</time>
      </trkpt>
      <trkpt lat="46.5572" lon="-1.77649">
        <ele>47.67417</ele>
        <time>2022-12-18T13:29:18.651Z</time>
      </trkpt>
      <trkpt lat="46.55711" lon="-1.77643">
        <ele>47.483694</ele>
        <time>2022-12-18T13:29:21.644Z</time>
      </trkpt>
      <trkpt lat="46.55702" lon="-1.77637">
        <ele>47.287562</ele>
        <time>2022-12-18T13:29:24.627Z</time>
      </trkpt>
      <trkpt lat="46.5569" lon="-1.7763">
        <ele>47.037863</ele>
        <time>2022-12-18T13:29:27.640Z</time>
      </trkpt>
      <trkpt lat="46.55682" lon="-1.77625">
        <ele>46.862083</ele>
        <time>2022-12-18T13:29:29.639Z</time>
      </trkpt>
      <trkpt lat="46.55673" lon="-1.77619">
        <ele>46.675757</ele>
        <time>2022-12-18T13:29:31.647Z</time>
      </trkpt>
      <trkpt lat="46.55664" lon="-1.77612">
        <ele>46.487134</ele>
        <time>2022-12-18T13:29:33.633Z</time>
      </trkpt>
      <trkpt lat="46.55655" lon="-1.77607">
        <ele>46.292391</ele>
        <time>2022-12-18T13:29:35.636Z</time>
      </trkpt>
      <trkpt lat="46.55645" lon="-1.77601">
        <ele>46.093272</ele>
        <time>2022-12-18T13:29:37.648Z</time>
      </trkpt>
      <trkpt lat="46.55635" lon="-1.77596">
        <ele>45.893978</ele>
        <time>2022-12-18T13:29:39.639Z</time>
      </trkpt>
      <trkpt lat="46.55626" lon="-1.77589">
        <ele>45.689839</ele>
        <time>2022-12-18T13:29:41.636Z</time>
      </trkpt>
      <trkpt lat="46.55617" lon="-1.77584">
        <ele>45.503808</ele>
        <time>2022-12-18T13:29:43.628Z</time>
      </trkpt>
      <trkpt lat="46.55608" lon="-1.77578">
        <ele>45.319199</ele>
        <time>2022-12-18T13:29:45.638Z</time>
      </trkpt>
      <trkpt lat="46.55596" lon="-1.7757">
        <ele>45.075826</ele>
        <time>2022-12-18T13:29:48.639Z</time>
      </trkpt>
      <trkpt lat="46.55585" lon="-1.7756">
        <ele>44.946291</ele>
        <time>2022-12-18T13:29:51.631Z</time>
      </trkpt>
      <trkpt lat="46.55574" lon="-1.77551">
        <ele>44.913809</ele>
        <time>2022-12-18T13:29:54.627Z</time>
      </trkpt>
      <trkpt lat="46.55563" lon="-1.7754">
        <ele>44.880673</ele>
        <time>2022-12-18T13:29:57.636Z</time>
      </trkpt>
      <trkpt lat="46.55555" lon="-1.77532">
        <ele>44.858134</ele>
        <time>2022-12-18T13:29:59.641Z</time>
      </trkpt>
      <trkpt lat="46.55546" lon="-1.7752">
        <ele>44.827031</ele>
        <time>2022-12-18T13:30:02.628Z</time>
      </trkpt>
      <trkpt lat="46.55536" lon="-1.77508">
        <ele>44.794702</ele>
        <time>2022-12-18T13:30:05.650Z</time>
      </trkpt>
      <trkpt lat="46.55526" lon="-1.77495">
        <ele>44.763451</ele>
        <time>2022-12-18T13:30:08.651Z</time>
      </trkpt>
      <trkpt lat="46.55518" lon="-1.77484">
        <ele>44.734709</ele>
        <time>2022-12-18T13:30:11.643Z</time>
      </trkpt>
      <trkpt lat="46.55509" lon="-1.77472">
        <ele>44.705911</ele>
        <time>2022-12-18T13:30:14.631Z</time>
      </trkpt>
      <trkpt lat="46.55501" lon="-1.7746">
        <ele>44.67664</ele>
        <time>2022-12-18T13:30:17.652Z</time>
      </trkpt>
      <trkpt lat="46.55492" lon="-1.77448">
        <ele>44.646721</ele>
        <time>2022-12-18T13:30:20.626Z</time>
      </trkpt>
      <trkpt lat="46.55483" lon="-1.77435">
        <ele>44.616205</ele>
        <time>2022-12-18T13:30:23.646Z</time>
      </trkpt>
      <trkpt lat="46.55475" lon="-1.77422">
        <ele>44.585983</ele>
        <time>2022-12-18T13:30:26.632Z</time>
      </trkpt>
      <trkpt lat="46.55466" lon="-1.7741">
        <ele>44.555707</ele>
        <time>2022-12-18T13:30:29.634Z</time>
      </trkpt>
      <trkpt lat="46.55457" lon="-1.77397">
        <ele>44.525788</ele>
        <time>2022-12-18T13:30:32.624Z</time>
      </trkpt>
      <trkpt lat="46.55449" lon="-1.77385">
        <ele>44.731626</ele>
        <time>2022-12-18T13:30:35.633Z</time>
      </trkpt>
      <trkpt lat="46.55441" lon="-1.77372">
        <ele>44.995692</ele>
        <time>2022-12-18T13:30:38.645Z</time>
      </trkpt>
      <trkpt lat="46.55433" lon="-1.77358">
        <ele>45.263899</ele>
        <time>2022-12-18T13:30:41.631Z</time>
      </trkpt>
      <trkpt lat="46.55425" lon="-1.77344">
        <ele>45.51787</ele>
        <time>2022-12-18T13:30:44.630Z</time>
      </trkpt>
      <trkpt lat="46.5542" lon="-1.77331">
        <ele>45.741444</ele>
        <time>2022-12-18T13:30:47.649Z</time>
      </trkpt>
      <trkpt lat="46.55415" lon="-1.77318">
        <ele>45.953066</ele>
        <time>2022-12-18T13:30:50.633Z</time>
      </trkpt>
      <trkpt lat="46.55411" lon="-1.77304">
        <ele>46.184681</ele>
        <time>2022-12-18T13:30:53.637Z</time>
      </trkpt>
      <trkpt lat="46.55407" lon="-1.77288">
        <ele>46.433865</ele>
        <time>2022-12-18T13:30:56.617Z</time>
      </trkpt>
      <trkpt lat="46.55404" lon="-1.77271">
        <ele>46.687082</ele>
        <time>2022-12-18T13:30:59.641Z</time>
      </trkpt>
      <trkpt lat="46.55401" lon="-1.77255">
        <ele>46.938034</ele>
        <time>2022-12-18T13:31:02.644Z</time>
      </trkpt>
      <trkpt lat="46.55398" lon="-1.77239">
        <ele>47.180746</ele>
        <time>2022-12-18T13:31:05.625Z</time>
      </trkpt>
      <trkpt lat="46.55395" lon="-1.77223">
        <ele>47.429141</ele>
        <time>2022-12-18T13:31:08.643Z</time>
      </trkpt>
      <trkpt lat="46.55392" lon="-1.77206">
        <ele>47.678817</ele>
        <time>2022-12-18T13:31:11.621Z</time>
      </trkpt>
      <trkpt lat="46.5539" lon="-1.77191">
        <ele>47.910804</ele>
        <time>2022-12-18T13:31:14.634Z</time>
      </trkpt>
      <trkpt lat="46.55388" lon="-1.77178">
        <ele>48.110745</ele>
        <time>2022-12-18T13:31:17.628Z</time>
      </trkpt>
      <trkpt lat="46.55386" lon="-1.77164">
        <ele>48.310686</ele>
        <time>2022-12-18T13:31:20.628Z</time>
      </trkpt>
      <trkpt lat="46.55383" lon="-1.77151">
        <ele>48.521107</ele>
        <time>2022-12-18T13:31:23.626Z</time>
      </trkpt>
      <trkpt lat="46.5538" lon="-1.77137">
        <ele>48.740485</ele>
        <time>2022-12-18T13:31:26.637Z</time>
      </trkpt>
      <trkpt lat="46.55378" lon="-1.77123">
        <ele>48.965161</ele>
        <time>2022-12-18T13:31:29.638Z</time>
      </trkpt>
      <trkpt lat="46.55376" lon="-1.77108">
        <ele>49.184382</ele>
        <time>2022-12-18T13:31:32.634Z</time>
      </trkpt>
      <trkpt lat="46.55373" lon="-1.77094">
        <ele>49.41097</ele>
        <time>2022-12-18T13:31:35.630Z</time>
      </trkpt>
      <trkpt lat="46.55371" lon="-1.77079">
        <ele>49.635646</ele>
        <time>2022-12-18T13:31:38.644Z</time>
      </trkpt>
      <trkpt lat="46.55369" lon="-1.77065">
        <ele>49.856341</ele>
        <time>2022-12-18T13:31:41.641Z</time>
      </trkpt>
      <trkpt lat="46.55366" lon="-1.77051">
        <ele>50.078641</ele>
        <time>2022-12-18T13:31:44.634Z</time>
      </trkpt>
      <trkpt lat="46.55364" lon="-1.77037">
        <ele>50.302789</ele>
        <time>2022-12-18T13:31:47.628Z</time>
      </trkpt>
      <trkpt lat="46.55361" lon="-1.77023">
        <ele>50.517598</ele>
        <time>2022-12-18T13:31:50.634Z</time>
      </trkpt>
      <trkpt lat="46.55359" lon="-1.77009">
        <ele>50.725031</ele>
        <time>2022-12-18T13:31:53.634Z</time>
      </trkpt>
      <trkpt lat="46.55356" lon="-1.76994">
        <ele>50.971861</ele>
        <time>2022-12-18T13:31:57.660Z</time>
      </trkpt>
      <trkpt lat="46.55353" lon="-1.76977">
        <ele>51.226843</ele>
        <time>2022-12-18T13:32:01.651Z</time>
      </trkpt>
      <trkpt lat="46.5535" lon="-1.76962">
        <ele>51.472771</ele>
        <time>2022-12-18T13:32:05.641Z</time>
      </trkpt>
      <trkpt lat="46.55348" lon="-1.76949">
        <ele>51.671843</ele>
        <time>2022-12-18T13:32:08.650Z</time>
      </trkpt>
      <trkpt lat="46.55345" lon="-1.76932">
        <ele>51.928941</ele>
        <time>2022-12-18T13:32:12.644Z</time>
      </trkpt>
      <trkpt lat="46.55343" lon="-1.76919">
        <ele>52.145992</ele>
        <time>2022-12-18T13:32:15.629Z</time>
      </trkpt>
      <trkpt lat="46.5534" lon="-1.76904">
        <ele>52.33133</ele>
        <time>2022-12-18T13:32:18.636Z</time>
      </trkpt>
      <trkpt lat="46.55338" lon="-1.76892">
        <ele>52.350535</ele>
        <time>2022-12-18T13:32:21.644Z</time>
      </trkpt>
      <trkpt lat="46.55337" lon="-1.76878">
        <ele>52.370277</ele>
        <time>2022-12-18T13:32:24.634Z</time>
      </trkpt>
      <trkpt lat="46.55334" lon="-1.76864">
        <ele>52.390704</ele>
        <time>2022-12-18T13:32:27.632Z</time>
      </trkpt>
      <trkpt lat="46.55332" lon="-1.7685">
        <ele>52.412057</ele>
        <time>2022-12-18T13:32:30.623Z</time>
      </trkpt>
      <trkpt lat="46.55329" lon="-1.76834">
        <ele>52.43505</ele>
        <time>2022-12-18T13:32:33.632Z</time>
      </trkpt>
      <trkpt lat="46.55326" lon="-1.76818">
        <ele>52.459367</ele>
        <time>2022-12-18T13:32:36.625Z</time>
      </trkpt>
      <trkpt lat="46.55323" lon="-1.76801">
        <ele>52.48502</ele>
        <time>2022-12-18T13:32:39.626Z</time>
      </trkpt>
      <trkpt lat="46.55319" lon="-1.76782">
        <ele>52.513005</ele>
        <time>2022-12-18T13:32:42.642Z</time>
      </trkpt>
      <trkpt lat="46.55317" lon="-1.76769">
        <ele>52.531934</ele>
        <time>2022-12-18T13:32:44.630Z</time>
      </trkpt>
      <trkpt lat="46.55314" lon="-1.76756">
        <ele>52.551768</ele>
        <time>2022-12-18T13:32:46.632Z</time>
      </trkpt>
      <trkpt lat="46.55312" lon="-1.76743">
        <ele>52.571061</ele>
        <time>2022-12-18T13:32:48.650Z</time>
      </trkpt>
      <trkpt lat="46.5531" lon="-1.7673">
        <ele>52.590599</ele>
        <time>2022-12-18T13:32:50.639Z</time>
      </trkpt>
      <trkpt lat="46.55307" lon="-1.76712">
        <ele>52.618421</ele>
        <time>2022-12-18T13:32:53.645Z</time>
      </trkpt>
      <trkpt lat="46.55303" lon="-1.76694">
        <ele>52.645102</ele>
        <time>2022-12-18T13:32:56.652Z</time>
      </trkpt>
      <trkpt lat="46.553" lon="-1.76677">
        <ele>52.670574</ele>
        <time>2022-12-18T13:32:59.639Z</time>
      </trkpt>
      <trkpt lat="46.55297" lon="-1.76662">
        <ele>52.692475</ele>
        <time>2022-12-18T13:33:02.648Z</time>
      </trkpt>
      <trkpt lat="46.55295" lon="-1.76649">
        <ele>52.559296</ele>
        <time>2022-12-18T13:33:05.647Z</time>
      </trkpt>
      <trkpt lat="46.55293" lon="-1.76632">
        <ele>52.086176</ele>
        <time>2022-12-18T13:33:09.632Z</time>
      </trkpt>
      <trkpt lat="46.5529" lon="-1.7662">
        <ele>51.716657</ele>
        <time>2022-12-18T13:33:12.629Z</time>
      </trkpt>
      <trkpt lat="46.55288" lon="-1.76607">
        <ele>51.341048</ele>
        <time>2022-12-18T13:33:15.647Z</time>
      </trkpt>
      <trkpt lat="46.55286" lon="-1.76593">
        <ele>50.950842</ele>
        <time>2022-12-18T13:33:18.647Z</time>
      </trkpt>
      <trkpt lat="46.55283" lon="-1.7658">
        <ele>50.567156</ele>
        <time>2022-12-18T13:33:21.648Z</time>
      </trkpt>
      <trkpt lat="46.55279" lon="-1.76565">
        <ele>50.102676</ele>
        <time>2022-12-18T13:33:25.640Z</time>
      </trkpt>
      <trkpt lat="46.55274" lon="-1.7655">
        <ele>49.660537</ele>
        <time>2022-12-18T13:33:29.638Z</time>
      </trkpt>
      <trkpt lat="46.55266" lon="-1.7654">
        <ele>49.206789</ele>
        <time>2022-12-18T13:33:34.634Z</time>
      </trkpt>
      <trkpt lat="46.5526" lon="-1.76532">
        <ele>48.892285</ele>
        <time>2022-12-18T13:34:13.883Z</time>
      </trkpt>
      <trkpt lat="46.55255" lon="-1.76519">
        <ele>48.471539</ele>
        <time>2022-12-18T13:36:24.637Z</time>
      </trkpt>
      <trkpt lat="46.55246" lon="-1.76506">
        <ele>47.973852</ele>
        <time>2022-12-18T13:36:28.634Z</time>
      </trkpt>
      <trkpt lat="46.55235" lon="-1.765">
        <ele>47.48245</ele>
        <time>2022-12-18T13:36:31.630Z</time>
      </trkpt>
      <trkpt lat="46.55226" lon="-1.76496">
        <ele>47.08988</ele>
        <time>2022-12-18T13:36:33.636Z</time>
      </trkpt>
      <trkpt lat="46.55216" lon="-1.7649">
        <ele>46.669527</ele>
        <time>2022-12-18T13:36:35.645Z</time>
      </trkpt>
      <trkpt lat="46.55206" lon="-1.76484">
        <ele>46.212014</ele>
        <time>2022-12-18T13:36:37.652Z</time>
      </trkpt>
      <trkpt lat="46.55196" lon="-1.76478">
        <ele>45.752768</ele>
        <time>2022-12-18T13:36:39.640Z</time>
      </trkpt>
      <trkpt lat="46.55185" lon="-1.76472">
        <ele>45.347078</ele>
        <time>2022-12-18T13:36:41.655Z</time>
      </trkpt>
      <trkpt lat="46.55176" lon="-1.76467">
        <ele>45.209248</ele>
        <time>2022-12-18T13:36:43.659Z</time>
      </trkpt>
      <trkpt lat="46.55167" lon="-1.76462">
        <ele>45.087814</ele>
        <time>2022-12-18T13:36:45.634Z</time>
      </trkpt>
      <trkpt lat="46.55155" lon="-1.76455">
        <ele>44.913696</ele>
        <time>2022-12-18T13:36:48.652Z</time>
      </trkpt>
      <trkpt lat="46.55143" lon="-1.76448">
        <ele>44.743045</ele>
        <time>2022-12-18T13:36:51.630Z</time>
      </trkpt>
      <trkpt lat="46.5513" lon="-1.7644">
        <ele>44.560533</ele>
        <time>2022-12-18T13:36:54.633Z</time>
      </trkpt>
      <trkpt lat="46.55122" lon="-1.76435">
        <ele>44.439454</ele>
        <time>2022-12-18T13:36:56.653Z</time>
      </trkpt>
      <trkpt lat="46.55109" lon="-1.76431">
        <ele>44.261217</ele>
        <time>2022-12-18T13:36:59.637Z</time>
      </trkpt>
      <trkpt lat="46.551" lon="-1.7643">
        <ele>44.138269</ele>
        <time>2022-12-18T13:37:01.636Z</time>
      </trkpt>
      <trkpt lat="46.5509" lon="-1.76429">
        <ele>44.007801</ele>
        <time>2022-12-18T13:37:03.640Z</time>
      </trkpt>
      <trkpt lat="46.5508" lon="-1.76433">
        <ele>43.866457</ele>
        <time>2022-12-18T13:37:05.637Z</time>
      </trkpt>
      <trkpt lat="46.55069" lon="-1.7644">
        <ele>43.71484</ele>
        <time>2022-12-18T13:37:07.639Z</time>
      </trkpt>
      <trkpt lat="46.55061" lon="-1.7645">
        <ele>43.567331</ele>
        <time>2022-12-18T13:37:09.635Z</time>
      </trkpt>
      <trkpt lat="46.55053" lon="-1.7646">
        <ele>43.431981</ele>
        <time>2022-12-18T13:37:11.638Z</time>
      </trkpt>
      <trkpt lat="46.55046" lon="-1.76472">
        <ele>43.28904</ele>
        <time>2022-12-18T13:37:13.636Z</time>
      </trkpt>
      <trkpt lat="46.5504" lon="-1.76484">
        <ele>43.151841</ele>
        <time>2022-12-18T13:37:15.629Z</time>
      </trkpt>
      <trkpt lat="46.55034" lon="-1.76498">
        <ele>43.004037</ele>
        <time>2022-12-18T13:37:17.635Z</time>
      </trkpt>
      <trkpt lat="46.55029" lon="-1.76511">
        <ele>43.101399</ele>
        <time>2022-12-18T13:37:19.639Z</time>
      </trkpt>
      <trkpt lat="46.55023" lon="-1.76526">
        <ele>43.275157</ele>
        <time>2022-12-18T13:37:21.647Z</time>
      </trkpt>
      <trkpt lat="46.55017" lon="-1.7654">
        <ele>43.445117</ele>
        <time>2022-12-18T13:37:23.635Z</time>
      </trkpt>
      <trkpt lat="46.55011" lon="-1.76553">
        <ele>43.602715</ele>
        <time>2022-12-18T13:37:25.644Z</time>
      </trkpt>
      <trkpt lat="46.55006" lon="-1.76566">
        <ele>43.758442</ele>
        <time>2022-12-18T13:37:27.649Z</time>
      </trkpt>
      <trkpt lat="46.55002" lon="-1.76578">
        <ele>43.899286</ele>
        <time>2022-12-18T13:37:29.641Z</time>
      </trkpt>
      <trkpt lat="46.54995" lon="-1.76595">
        <ele>44.101337</ele>
        <time>2022-12-18T13:37:32.647Z</time>
      </trkpt>
      <trkpt lat="46.5499" lon="-1.7661">
        <ele>44.274596</ele>
        <time>2022-12-18T13:37:35.626Z</time>
      </trkpt>
      <trkpt lat="46.54985" lon="-1.76626">
        <ele>44.45152</ele>
        <time>2022-12-18T13:37:38.651Z</time>
      </trkpt>
      <trkpt lat="46.54979" lon="-1.76641">
        <ele>44.625694</ele>
        <time>2022-12-18T13:37:41.647Z</time>
      </trkpt>
      <trkpt lat="46.54974" lon="-1.76656">
        <ele>44.795308</ele>
        <time>2022-12-18T13:37:44.624Z</time>
      </trkpt>
      <trkpt lat="46.54968" lon="-1.7667">
        <ele>44.964375</ele>
        <time>2022-12-18T13:37:47.652Z</time>
      </trkpt>
      <trkpt lat="46.54962" lon="-1.76684">
        <ele>45.138235</ele>
        <time>2022-12-18T13:37:50.624Z</time>
      </trkpt>
      <trkpt lat="46.54956" lon="-1.76698">
        <ele>45.308504</ele>
        <time>2022-12-18T13:37:53.628Z</time>
      </trkpt>
      <trkpt lat="46.54948" lon="-1.7671">
        <ele>45.475632</ele>
        <time>2022-12-18T13:37:56.631Z</time>
      </trkpt>
      <trkpt lat="46.54941" lon="-1.76721">
        <ele>45.634746</ele>
        <time>2022-12-18T13:37:59.634Z</time>
      </trkpt>
      <trkpt lat="46.54932" lon="-1.7673">
        <ele>45.771366</ele>
        <time>2022-12-18T13:38:02.626Z</time>
      </trkpt>
      <trkpt lat="46.54923" lon="-1.76738">
        <ele>45.906708</ele>
        <time>2022-12-18T13:38:05.629Z</time>
      </trkpt>
      <trkpt lat="46.54914" lon="-1.76747">
        <ele>46.045105</ele>
        <time>2022-12-18T13:38:08.627Z</time>
      </trkpt>
      <trkpt lat="46.54905" lon="-1.76756">
        <ele>46.182235</ele>
        <time>2022-12-18T13:38:11.644Z</time>
      </trkpt>
      <trkpt lat="46.54898" lon="-1.76767">
        <ele>46.3113</ele>
        <time>2022-12-18T13:38:14.642Z</time>
      </trkpt>
      <trkpt lat="46.54892" lon="-1.76777">
        <ele>46.427122</ele>
        <time>2022-12-18T13:38:17.622Z</time>
      </trkpt>
      <trkpt lat="46.54886" lon="-1.76788">
        <ele>46.55434</ele>
        <time>2022-12-18T13:38:20.630Z</time>
      </trkpt>
      <trkpt lat="46.54878" lon="-1.768">
        <ele>46.693809</ele>
        <time>2022-12-18T13:38:23.627Z</time>
      </trkpt>
      <trkpt lat="46.54869" lon="-1.76811">
        <ele>46.839104</ele>
        <time>2022-12-18T13:38:26.634Z</time>
      </trkpt>
      <trkpt lat="46.54859" lon="-1.76817">
        <ele>46.981269</ele>
        <time>2022-12-18T13:38:29.650Z</time>
      </trkpt>
      <trkpt lat="46.54848" lon="-1.76817">
        <ele>47.113606</ele>
        <time>2022-12-18T13:38:32.634Z</time>
      </trkpt>
      <trkpt lat="46.54838" lon="-1.76814">
        <ele>47.244551</ele>
        <time>2022-12-18T13:38:35.631Z</time>
      </trkpt>
      <trkpt lat="46.5483" lon="-1.76809">
        <ele>47.358583</ele>
        <time>2022-12-18T13:38:38.640Z</time>
      </trkpt>
      <trkpt lat="46.54821" lon="-1.76804">
        <ele>47.478485</ele>
        <time>2022-12-18T13:38:41.643Z</time>
      </trkpt>
      <trkpt lat="46.54812" lon="-1.768">
        <ele>47.601179</ele>
        <time>2022-12-18T13:38:44.638Z</time>
      </trkpt>
      <trkpt lat="46.54802" lon="-1.76798">
        <ele>47.721883</ele>
        <time>2022-12-18T13:38:47.641Z</time>
      </trkpt>
      <trkpt lat="46.54792" lon="-1.76801">
        <ele>47.854693</ele>
        <time>2022-12-18T13:38:50.622Z</time>
      </trkpt>
      <trkpt lat="46.54781" lon="-1.76804">
        <ele>47.953678</ele>
        <time>2022-12-18T13:38:53.632Z</time>
      </trkpt>
      <trkpt lat="46.54771" lon="-1.76808">
        <ele>48.013218</ele>
        <time>2022-12-18T13:38:56.645Z</time>
      </trkpt>
      <trkpt lat="46.5476" lon="-1.76813">
        <ele>48.07445</ele>
        <time>2022-12-18T13:38:59.638Z</time>
      </trkpt>
      <trkpt lat="46.5475" lon="-1.76818">
        <ele>48.136002</ele>
        <time>2022-12-18T13:39:02.630Z</time>
      </trkpt>
      <trkpt lat="46.5474" lon="-1.76822">
        <ele>48.19332</ele>
        <time>2022-12-18T13:39:05.639Z</time>
      </trkpt>
      <trkpt lat="46.54728" lon="-1.76826">
        <ele>48.259</ele>
        <time>2022-12-18T13:39:09.628Z</time>
      </trkpt>
      <trkpt lat="46.54718" lon="-1.7683">
        <ele>48.318337</ele>
        <time>2022-12-18T13:39:12.627Z</time>
      </trkpt>
      <trkpt lat="46.54706" lon="-1.76834">
        <ele>48.382742</ele>
        <time>2022-12-18T13:39:15.626Z</time>
      </trkpt>
      <trkpt lat="46.54695" lon="-1.76839">
        <ele>48.447993</ele>
        <time>2022-12-18T13:39:18.644Z</time>
      </trkpt>
      <trkpt lat="46.54683" lon="-1.76845">
        <ele>48.517749</ele>
        <time>2022-12-18T13:39:21.627Z</time>
      </trkpt>
      <trkpt lat="46.5467" lon="-1.7685">
        <ele>48.590833</ele>
        <time>2022-12-18T13:39:24.632Z</time>
      </trkpt>
      <trkpt lat="46.54658" lon="-1.76855">
        <ele>48.662224</ele>
        <time>2022-12-18T13:39:27.642Z</time>
      </trkpt>
      <trkpt lat="46.54645" lon="-1.7686">
        <ele>48.733855</ele>
        <time>2022-12-18T13:39:30.636Z</time>
      </trkpt>
      <trkpt lat="46.54633" lon="-1.76865">
        <ele>48.803125</ele>
        <time>2022-12-18T13:39:33.640Z</time>
      </trkpt>
      <trkpt lat="46.54621" lon="-1.76869">
        <ele>48.87113</ele>
        <time>2022-12-18T13:39:36.643Z</time>
      </trkpt>
      <trkpt lat="46.5461" lon="-1.76875">
        <ele>48.986568</ele>
        <time>2022-12-18T13:39:39.638Z</time>
      </trkpt>
      <trkpt lat="46.54599" lon="-1.76879">
        <ele>49.209075</ele>
        <time>2022-12-18T13:39:42.636Z</time>
      </trkpt>
      <trkpt lat="46.54587" lon="-1.76884">
        <ele>49.447519</ele>
        <time>2022-12-18T13:39:45.654Z</time>
      </trkpt>
      <trkpt lat="46.54575" lon="-1.76888">
        <ele>49.691391</ele>
        <time>2022-12-18T13:39:48.635Z</time>
      </trkpt>
      <trkpt lat="46.54563" lon="-1.76894">
        <ele>49.93494</ele>
        <time>2022-12-18T13:39:51.635Z</time>
      </trkpt>
      <trkpt lat="46.5455" lon="-1.76899">
        <ele>50.182493</ele>
        <time>2022-12-18T13:39:54.649Z</time>
      </trkpt>
      <trkpt lat="46.54538" lon="-1.76905">
        <ele>50.437183</ele>
        <time>2022-12-18T13:39:57.642Z</time>
      </trkpt>
      <trkpt lat="46.54526" lon="-1.7691">
        <ele>50.686983</ele>
        <time>2022-12-18T13:40:00.635Z</time>
      </trkpt>
      <trkpt lat="46.54514" lon="-1.76915">
        <ele>50.92521</ele>
        <time>2022-12-18T13:40:03.625Z</time>
      </trkpt>
      <trkpt lat="46.54504" lon="-1.76919">
        <ele>51.12991</ele>
        <time>2022-12-18T13:40:06.630Z</time>
      </trkpt>
      <trkpt lat="46.54494" lon="-1.76922">
        <ele>51.319494</ele>
        <time>2022-12-18T13:40:09.631Z</time>
      </trkpt>
      <trkpt lat="46.54485" lon="-1.76925">
        <ele>51.51189</ele>
        <time>2022-12-18T13:40:12.631Z</time>
      </trkpt>
      <trkpt lat="46.54475" lon="-1.7693">
        <ele>51.711605</ele>
        <time>2022-12-18T13:40:15.646Z</time>
      </trkpt>
      <trkpt lat="46.54464" lon="-1.76934">
        <ele>51.923275</ele>
        <time>2022-12-18T13:40:18.626Z</time>
      </trkpt>
      <trkpt lat="46.54454" lon="-1.76939">
        <ele>52.132694</ele>
        <time>2022-12-18T13:40:21.645Z</time>
      </trkpt>
      <trkpt lat="46.54444" lon="-1.76943">
        <ele>52.345846</ele>
        <time>2022-12-18T13:40:24.652Z</time>
      </trkpt>
      <trkpt lat="46.54433" lon="-1.76947">
        <ele>52.437748</ele>
        <time>2022-12-18T13:40:27.645Z</time>
      </trkpt>
      <trkpt lat="46.54423" lon="-1.76952">
        <ele>52.463542</ele>
        <time>2022-12-18T13:40:30.625Z</time>
      </trkpt>
      <trkpt lat="46.54413" lon="-1.76956">
        <ele>52.490002</ele>
        <time>2022-12-18T13:40:33.637Z</time>
      </trkpt>
      <trkpt lat="46.54402" lon="-1.7696">
        <ele>52.515769</ele>
        <time>2022-12-18T13:40:36.629Z</time>
      </trkpt>
      <trkpt lat="46.54392" lon="-1.76964">
        <ele>52.541695</ele>
        <time>2022-12-18T13:40:39.632Z</time>
      </trkpt>
      <trkpt lat="46.54382" lon="-1.76968">
        <ele>52.568478</ele>
        <time>2022-12-18T13:40:42.637Z</time>
      </trkpt>
      <trkpt lat="46.54371" lon="-1.76972">
        <ele>52.596311</ele>
        <time>2022-12-18T13:40:45.632Z</time>
      </trkpt>
      <trkpt lat="46.54359" lon="-1.76976">
        <ele>52.625571</ele>
        <time>2022-12-18T13:40:48.629Z</time>
      </trkpt>
      <trkpt lat="46.54348" lon="-1.7698">
        <ele>52.654355</ele>
        <time>2022-12-18T13:40:51.628Z</time>
      </trkpt>
      <trkpt lat="46.54338" lon="-1.76985">
        <ele>52.678719</ele>
        <time>2022-12-18T13:40:54.638Z</time>
      </trkpt>
      <trkpt lat="46.54327" lon="-1.76989">
        <ele>52.707349</ele>
        <time>2022-12-18T13:40:58.628Z</time>
      </trkpt>
      <trkpt lat="46.54318" lon="-1.76993">
        <ele>52.730745</ele>
        <time>2022-12-18T13:41:01.634Z</time>
      </trkpt>
      <trkpt lat="46.54308" lon="-1.76997">
        <ele>52.754895</ele>
        <time>2022-12-18T13:41:04.646Z</time>
      </trkpt>
      <trkpt lat="46.54299" lon="-1.77001">
        <ele>52.77874</ele>
        <time>2022-12-18T13:41:07.640Z</time>
      </trkpt>
      <trkpt lat="46.54288" lon="-1.77007">
        <ele>52.807144</ele>
        <time>2022-12-18T13:41:11.628Z</time>
      </trkpt>
      <trkpt lat="46.54277" lon="-1.77013">
        <ele>52.835192</ele>
        <time>2022-12-18T13:41:15.637Z</time>
      </trkpt>
      <trkpt lat="46.54267" lon="-1.7702">
        <ele>52.867723</ele>
        <time>2022-12-18T13:41:19.631Z</time>
      </trkpt>
      <trkpt lat="46.54259" lon="-1.7703">
        <ele>52.974056</ele>
        <time>2022-12-18T13:41:23.640Z</time>
      </trkpt>
      <trkpt lat="46.54251" lon="-1.77043">
        <ele>53.095363</ele>
        <time>2022-12-18T13:41:27.634Z</time>
      </trkpt>
      <trkpt lat="46.54241" lon="-1.77046">
        <ele>53.195664</ele>
        <time>2022-12-18T13:41:30.633Z</time>
      </trkpt>
      <trkpt lat="46.54231" lon="-1.77043">
        <ele>53.294826</ele>
        <time>2022-12-18T13:41:33.630Z</time>
      </trkpt>
      <trkpt lat="46.54223" lon="-1.7704">
        <ele>53.385697</ele>
        <time>2022-12-18T13:41:36.634Z</time>
      </trkpt>
      <trkpt lat="46.54213" lon="-1.77041">
        <ele>53.478285</ele>
        <time>2022-12-18T13:41:39.636Z</time>
      </trkpt>
      <trkpt lat="46.54204" lon="-1.77044">
        <ele>53.575704</ele>
        <time>2022-12-18T13:41:42.647Z</time>
      </trkpt>
      <trkpt lat="46.54195" lon="-1.77047">
        <ele>53.672753</ele>
        <time>2022-12-18T13:41:45.630Z</time>
      </trkpt>
      <trkpt lat="46.54185" lon="-1.7705">
        <ele>53.770308</ele>
        <time>2022-12-18T13:41:48.646Z</time>
      </trkpt>
      <trkpt lat="46.54175" lon="-1.77055">
        <ele>53.877085</ele>
        <time>2022-12-18T13:41:52.632Z</time>
      </trkpt>
      <trkpt lat="46.54164" lon="-1.77058">
        <ele>53.987307</ele>
        <time>2022-12-18T13:41:56.641Z</time>
      </trkpt>
      <trkpt lat="46.54154" lon="-1.77063">
        <ele>54.097363</ele>
        <time>2022-12-18T13:42:00.648Z</time>
      </trkpt>
      <trkpt lat="46.54144" lon="-1.77067">
        <ele>54.202419</ele>
        <time>2022-12-18T13:42:04.638Z</time>
      </trkpt>
      <trkpt lat="46.54134" lon="-1.77072">
        <ele>54.303353</ele>
        <time>2022-12-18T13:42:08.650Z</time>
      </trkpt>
      <trkpt lat="46.54125" lon="-1.77076">
        <ele>54.401457</ele>
        <time>2022-12-18T13:42:12.626Z</time>
      </trkpt>
      <trkpt lat="46.54115" lon="-1.7708">
        <ele>54.501217</ele>
        <time>2022-12-18T13:42:16.646Z</time>
      </trkpt>
      <trkpt lat="46.54106" lon="-1.77083">
        <ele>54.594566</ele>
        <time>2022-12-18T13:42:20.637Z</time>
      </trkpt>
      <trkpt lat="46.54096" lon="-1.77088">
        <ele>54.85769</ele>
        <time>2022-12-18T13:42:25.634Z</time>
      </trkpt>
      <trkpt lat="46.54085" lon="-1.77092">
        <ele>55.40569</ele>
        <time>2022-12-18T13:42:30.631Z</time>
      </trkpt>
      <trkpt lat="46.54075" lon="-1.77097">
        <ele>55.952716</ele>
        <time>2022-12-18T13:42:35.630Z</time>
      </trkpt>
      <trkpt lat="46.54065" lon="-1.77101">
        <ele>56.476312</ele>
        <time>2022-12-18T13:42:40.628Z</time>
      </trkpt>
      <trkpt lat="46.54056" lon="-1.77104">
        <ele>56.94406</ele>
        <time>2022-12-18T13:42:45.640Z</time>
      </trkpt>
      <trkpt lat="46.54046" lon="-1.77109">
        <ele>57.425395</ele>
        <time>2022-12-18T13:42:50.636Z</time>
      </trkpt>
      <trkpt lat="46.54036" lon="-1.77112">
        <ele>57.938478</ele>
        <time>2022-12-18T13:42:56.635Z</time>
      </trkpt>
      <trkpt lat="46.54026" lon="-1.77116">
        <ele>58.468544</ele>
        <time>2022-12-18T13:43:02.637Z</time>
      </trkpt>
      <trkpt lat="46.54017" lon="-1.7712">
        <ele>58.974627</ele>
        <time>2022-12-18T13:43:08.641Z</time>
      </trkpt>
      <trkpt lat="46.54007" lon="-1.77123">
        <ele>59.480575</ele>
        <time>2022-12-18T13:43:14.638Z</time>
      </trkpt>
      <trkpt lat="46.53997" lon="-1.77127">
        <ele>59.988197</ele>
        <time>2022-12-18T13:43:20.629Z</time>
      </trkpt>
      <trkpt lat="46.53987" lon="-1.77132">
        <ele>60.497665</ele>
        <time>2022-12-18T13:43:27.629Z</time>
      </trkpt>
      <trkpt lat="46.53978" lon="-1.77134">
        <ele>60.960996</ele>
        <time>2022-12-18T13:43:32.629Z</time>
      </trkpt>
      <trkpt lat="46.53968" lon="-1.77139">
        <ele>61.488759</ele>
        <time>2022-12-18T13:43:38.640Z</time>
      </trkpt>
      <trkpt lat="46.53958" lon="-1.77143">
        <ele>62.024146</ele>
        <time>2022-12-18T13:43:44.637Z</time>
      </trkpt>
      <trkpt lat="46.53948" lon="-1.77147">
        <ele>62.534587</ele>
        <time>2022-12-18T13:43:50.642Z</time>
      </trkpt>
      <trkpt lat="46.53939" lon="-1.77148">
        <ele>62.991763</ele>
        <time>2022-12-18T13:43:55.632Z</time>
      </trkpt>
      <trkpt lat="46.53929" lon="-1.77153">
        <ele>63.486196</ele>
        <time>2022-12-18T13:44:00.627Z</time>
      </trkpt>
      <trkpt lat="46.5392" lon="-1.77157">
        <ele>63.933729</ele>
        <time>2022-12-18T13:44:05.634Z</time>
      </trkpt>
      <trkpt lat="46.53911" lon="-1.7716">
        <ele>64.348276</ele>
        <time>2022-12-18T13:44:10.654Z</time>
      </trkpt>
      <trkpt lat="46.53902" lon="-1.77164">
        <ele>64.757375</ele>
        <time>2022-12-18T13:44:15.650Z</time>
      </trkpt>
      <trkpt lat="46.53892" lon="-1.77167">
        <ele>65.197437</ele>
        <time>2022-12-18T13:44:20.647Z</time>
      </trkpt>
      <trkpt lat="46.53883" lon="-1.77172">
        <ele>65.648907</ele>
        <time>2022-12-18T13:44:25.646Z</time>
      </trkpt>
      <trkpt lat="46.53873" lon="-1.77176">
        <ele>66.068192</ele>
        <time>2022-12-18T13:44:30.636Z</time>
      </trkpt>
      <trkpt lat="46.53864" lon="-1.7718">
        <ele>66.490842</ele>
        <time>2022-12-18T13:44:35.649Z</time>
      </trkpt>
      <trkpt lat="46.53856" lon="-1.77185">
        <ele>66.889446</ele>
        <time>2022-12-18T13:44:40.647Z</time>
      </trkpt>
      <trkpt lat="46.53846" lon="-1.77188">
        <ele>67.325222</ele>
        <time>2022-12-18T13:44:45.631Z</time>
      </trkpt>
      <trkpt lat="46.53837" lon="-1.77193">
        <ele>67.764042</ele>
        <time>2022-12-18T13:44:50.629Z</time>
      </trkpt>
      <trkpt lat="46.53826" lon="-1.77196">
        <ele>68.242782</ele>
        <time>2022-12-18T13:44:55.645Z</time>
      </trkpt>
      <trkpt lat="46.53817" lon="-1.772">
        <ele>68.650213</ele>
        <time>2022-12-18T13:44:59.626Z</time>
      </trkpt>
      <trkpt lat="46.53808" lon="-1.77203">
        <ele>69.077425</ele>
        <time>2022-12-18T13:45:03.638Z</time>
      </trkpt>
      <trkpt lat="46.53798" lon="-1.77208">
        <ele>69.551</ele>
        <time>2022-12-18T13:45:07.640Z</time>
      </trkpt>
      <trkpt lat="46.53787" lon="-1.77215">
        <ele>70.064232</ele>
        <time>2022-12-18T13:45:11.631Z</time>
      </trkpt>
      <trkpt lat="46.53778" lon="-1.77219">
        <ele>70.48952</ele>
        <time>2022-12-18T13:45:14.634Z</time>
      </trkpt>
      <trkpt lat="46.53769" lon="-1.77222">
        <ele>70.909011</ele>
        <time>2022-12-18T13:45:17.652Z</time>
      </trkpt>
      <trkpt lat="46.53759" lon="-1.77224">
        <ele>71.353822</ele>
        <time>2022-12-18T13:45:20.631Z</time>
      </trkpt>
      <trkpt lat="46.53749" lon="-1.77228">
        <ele>71.634453</ele>
        <time>2022-12-18T13:45:23.637Z</time>
      </trkpt>
      <trkpt lat="46.5374" lon="-1.77231">
        <ele>71.741337</ele>
        <time>2022-12-18T13:45:26.653Z</time>
      </trkpt>
      <trkpt lat="46.5373" lon="-1.77234">
        <ele>71.85051</ele>
        <time>2022-12-18T13:45:29.646Z</time>
      </trkpt>
      <trkpt lat="46.5372" lon="-1.77237">
        <ele>71.957538</ele>
        <time>2022-12-18T13:45:32.637Z</time>
      </trkpt>
      <trkpt lat="46.53711" lon="-1.77239">
        <ele>72.055551</ele>
        <time>2022-12-18T13:45:35.662Z</time>
      </trkpt>
      <trkpt lat="46.53703" lon="-1.77244">
        <ele>72.154487</ele>
        <time>2022-12-18T13:45:38.652Z</time>
      </trkpt>
      <trkpt lat="46.53694" lon="-1.77247">
        <ele>72.253718</ele>
        <time>2022-12-18T13:45:41.637Z</time>
      </trkpt>
      <trkpt lat="46.53683" lon="-1.7725">
        <ele>72.376343</ele>
        <time>2022-12-18T13:45:46.628Z</time>
      </trkpt>
      <trkpt lat="46.53673" lon="-1.77254">
        <ele>72.488684</ele>
        <time>2022-12-18T13:45:52.632Z</time>
      </trkpt>
      <trkpt lat="46.53653" lon="-1.77262">
        <ele>72.717823</ele>
        <time>2022-12-18T13:46:28.634Z</time>
      </trkpt>
      <trkpt lat="46.53643" lon="-1.77267">
        <ele>72.839569</ele>
        <time>2022-12-18T13:46:31.633Z</time>
      </trkpt>
      <trkpt lat="46.53633" lon="-1.77272">
        <ele>72.955164</ele>
        <time>2022-12-18T13:46:34.646Z</time>
      </trkpt>
      <trkpt lat="46.53621" lon="-1.77277">
        <ele>73.084095</ele>
        <time>2022-12-18T13:46:37.627Z</time>
      </trkpt>
      <trkpt lat="46.53609" lon="-1.77282">
        <ele>73.223113</ele>
        <time>2022-12-18T13:46:40.630Z</time>
      </trkpt>
      <trkpt lat="46.53596" lon="-1.77286">
        <ele>73.371317</ele>
        <time>2022-12-18T13:46:43.645Z</time>
      </trkpt>
      <trkpt lat="46.53587" lon="-1.77289">
        <ele>73.469601</ele>
        <time>2022-12-18T13:46:45.649Z</time>
      </trkpt>
      <trkpt lat="46.53578" lon="-1.77293">
        <ele>73.442427</ele>
        <time>2022-12-18T13:46:47.632Z</time>
      </trkpt>
      <trkpt lat="46.53565" lon="-1.77297">
        <ele>72.803379</ele>
        <time>2022-12-18T13:46:50.629Z</time>
      </trkpt>
      <trkpt lat="46.53553" lon="-1.773">
        <ele>72.24195</ele>
        <time>2022-12-18T13:46:53.626Z</time>
      </trkpt>
      <trkpt lat="46.53542" lon="-1.77305">
        <ele>71.693729</ele>
        <time>2022-12-18T13:46:56.635Z</time>
      </trkpt>
      <trkpt lat="46.53531" lon="-1.7731">
        <ele>71.112334</ele>
        <time>2022-12-18T13:46:59.633Z</time>
      </trkpt>
      <trkpt lat="46.53519" lon="-1.77315">
        <ele>70.519835</ele>
        <time>2022-12-18T13:47:02.656Z</time>
      </trkpt>
      <trkpt lat="46.53505" lon="-1.7732">
        <ele>69.861337</ele>
        <time>2022-12-18T13:47:05.642Z</time>
      </trkpt>
      <trkpt lat="46.53496" lon="-1.77323">
        <ele>69.389584</ele>
        <time>2022-12-18T13:47:07.635Z</time>
      </trkpt>
      <trkpt lat="46.53486" lon="-1.77326">
        <ele>68.920344</ele>
        <time>2022-12-18T13:47:09.636Z</time>
      </trkpt>
      <trkpt lat="46.53476" lon="-1.7733">
        <ele>68.404239</ele>
        <time>2022-12-18T13:47:11.648Z</time>
      </trkpt>
      <trkpt lat="46.53466" lon="-1.77333">
        <ele>67.915497</ele>
        <time>2022-12-18T13:47:13.632Z</time>
      </trkpt>
      <trkpt lat="46.53455" lon="-1.77337">
        <ele>67.367253</ele>
        <time>2022-12-18T13:47:15.650Z</time>
      </trkpt>
      <trkpt lat="46.53444" lon="-1.77342">
        <ele>66.805119</ele>
        <time>2022-12-18T13:47:17.652Z</time>
      </trkpt>
      <trkpt lat="46.53433" lon="-1.77346">
        <ele>66.245864</ele>
        <time>2022-12-18T13:47:19.636Z</time>
      </trkpt>
      <trkpt lat="46.53421" lon="-1.77351">
        <ele>65.682866</ele>
        <time>2022-12-18T13:47:21.637Z</time>
      </trkpt>
      <trkpt lat="46.5341" lon="-1.77356">
        <ele>65.102148</ele>
        <time>2022-12-18T13:47:23.653Z</time>
      </trkpt>
      <trkpt lat="46.53398" lon="-1.77361">
        <ele>64.605502</ele>
        <time>2022-12-18T13:47:25.655Z</time>
      </trkpt>
      <trkpt lat="46.53386" lon="-1.77365">
        <ele>64.134912</ele>
        <time>2022-12-18T13:47:27.662Z</time>
      </trkpt>
      <trkpt lat="46.53375" lon="-1.7737">
        <ele>63.676046</ele>
        <time>2022-12-18T13:47:29.646Z</time>
      </trkpt>
      <trkpt lat="46.53362" lon="-1.77375">
        <ele>63.187709</ele>
        <time>2022-12-18T13:47:31.650Z</time>
      </trkpt>
      <trkpt lat="46.5335" lon="-1.77378">
        <ele>62.717119</ele>
        <time>2022-12-18T13:47:33.638Z</time>
      </trkpt>
      <trkpt lat="46.53338" lon="-1.77382">
        <ele>62.253939</ele>
        <time>2022-12-18T13:47:35.643Z</time>
      </trkpt>
      <trkpt lat="46.53326" lon="-1.77386">
        <ele>61.782274</ele>
        <time>2022-12-18T13:47:37.649Z</time>
      </trkpt>
      <trkpt lat="46.53313" lon="-1.77388">
        <ele>61.307633</ele>
        <time>2022-12-18T13:47:39.634Z</time>
      </trkpt>
      <trkpt lat="46.53301" lon="-1.7739">
        <ele>60.819354</ele>
        <time>2022-12-18T13:47:41.635Z</time>
      </trkpt>
      <trkpt lat="46.53288" lon="-1.77392">
        <ele>60.321448</ele>
        <time>2022-12-18T13:47:43.649Z</time>
      </trkpt>
      <trkpt lat="46.53274" lon="-1.77394">
        <ele>59.814504</ele>
        <time>2022-12-18T13:47:45.631Z</time>
      </trkpt>
      <trkpt lat="46.53262" lon="-1.77397">
        <ele>59.327889</ele>
        <time>2022-12-18T13:47:47.662Z</time>
      </trkpt>
      <trkpt lat="46.53249" lon="-1.77399">
        <ele>58.842565</ele>
        <time>2022-12-18T13:47:49.639Z</time>
      </trkpt>
      <trkpt lat="46.53236" lon="-1.77399">
        <ele>58.359899</ele>
        <time>2022-12-18T13:47:51.651Z</time>
      </trkpt>
      <trkpt lat="46.53224" lon="-1.77401">
        <ele>58.083888</ele>
        <time>2022-12-18T13:47:53.651Z</time>
      </trkpt>
      <trkpt lat="46.53211" lon="-1.77403">
        <ele>58.096828</ele>
        <time>2022-12-18T13:47:55.631Z</time>
      </trkpt>
      <trkpt lat="46.53199" lon="-1.77405">
        <ele>58.108832</ele>
        <time>2022-12-18T13:47:57.655Z</time>
      </trkpt>
      <trkpt lat="46.53188" lon="-1.77406">
        <ele>58.120586</ele>
        <time>2022-12-18T13:47:59.638Z</time>
      </trkpt>
      <trkpt lat="46.53177" lon="-1.77408">
        <ele>58.13237</ele>
        <time>2022-12-18T13:48:01.642Z</time>
      </trkpt>
      <trkpt lat="46.53166" lon="-1.77409">
        <ele>58.142906</ele>
        <time>2022-12-18T13:48:03.627Z</time>
      </trkpt>
      <trkpt lat="46.53154" lon="-1.77412">
        <ele>58.156076</ele>
        <time>2022-12-18T13:48:06.639Z</time>
      </trkpt>
      <trkpt lat="46.53143" lon="-1.77414">
        <ele>58.167446</ele>
        <time>2022-12-18T13:48:09.627Z</time>
      </trkpt>
      <trkpt lat="46.53132" lon="-1.77416">
        <ele>58.178917</ele>
        <time>2022-12-18T13:48:12.647Z</time>
      </trkpt>
      <trkpt lat="46.53121" lon="-1.77417">
        <ele>58.190358</ele>
        <time>2022-12-18T13:48:15.638Z</time>
      </trkpt>
      <trkpt lat="46.53109" lon="-1.77419">
        <ele>58.202136</ele>
        <time>2022-12-18T13:48:18.650Z</time>
      </trkpt>
      <trkpt lat="46.53097" lon="-1.7742">
        <ele>58.214413</ele>
        <time>2022-12-18T13:48:21.646Z</time>
      </trkpt>
      <trkpt lat="46.53085" lon="-1.77423">
        <ele>58.226768</ele>
        <time>2022-12-18T13:48:24.642Z</time>
      </trkpt>
      <trkpt lat="46.53074" lon="-1.77424">
        <ele>58.238829</ele>
        <time>2022-12-18T13:48:27.649Z</time>
      </trkpt>
      <trkpt lat="46.53062" lon="-1.77426">
        <ele>58.250535</ele>
        <time>2022-12-18T13:48:30.634Z</time>
      </trkpt>
      <trkpt lat="46.53052" lon="-1.77426">
        <ele>58.260925</ele>
        <time>2022-12-18T13:48:33.632Z</time>
      </trkpt>
      <trkpt lat="46.53043" lon="-1.77427">
        <ele>58.398362</ele>
        <time>2022-12-18T13:48:36.647Z</time>
      </trkpt>
      <trkpt lat="46.53034" lon="-1.77428">
        <ele>58.578068</ele>
        <time>2022-12-18T13:48:39.631Z</time>
      </trkpt>
      <trkpt lat="46.53025" lon="-1.7743">
        <ele>58.756967</ele>
        <time>2022-12-18T13:48:42.635Z</time>
      </trkpt>
      <trkpt lat="46.53015" lon="-1.77432">
        <ele>58.948754</ele>
        <time>2022-12-18T13:48:45.651Z</time>
      </trkpt>
      <trkpt lat="46.53006" lon="-1.77433">
        <ele>59.136723</ele>
        <time>2022-12-18T13:48:48.649Z</time>
      </trkpt>
      <trkpt lat="46.52996" lon="-1.77435">
        <ele>59.331114</ele>
        <time>2022-12-18T13:48:51.659Z</time>
      </trkpt>
      <trkpt lat="46.52986" lon="-1.77436">
        <ele>59.525827</ele>
        <time>2022-12-18T13:48:54.634Z</time>
      </trkpt>
      <trkpt lat="46.52976" lon="-1.77437">
        <ele>59.723244</ele>
        <time>2022-12-18T13:48:57.638Z</time>
      </trkpt>
      <trkpt lat="46.52966" lon="-1.77438">
        <ele>59.926729</ele>
        <time>2022-12-18T13:49:00.644Z</time>
      </trkpt>
      <trkpt lat="46.52956" lon="-1.7744">
        <ele>60.12476</ele>
        <time>2022-12-18T13:49:03.649Z</time>
      </trkpt>
      <trkpt lat="46.52946" lon="-1.77441">
        <ele>60.326716</ele>
        <time>2022-12-18T13:49:06.632Z</time>
      </trkpt>
      <trkpt lat="46.52936" lon="-1.77443">
        <ele>60.529422</ele>
        <time>2022-12-18T13:49:09.627Z</time>
      </trkpt>
      <trkpt lat="46.52925" lon="-1.77444">
        <ele>60.736933</ele>
        <time>2022-12-18T13:49:12.630Z</time>
      </trkpt>
      <trkpt lat="46.52915" lon="-1.77446">
        <ele>60.935729</ele>
        <time>2022-12-18T13:49:15.634Z</time>
      </trkpt>
      <trkpt lat="46.52904" lon="-1.77448">
        <ele>61.164371</ele>
        <time>2022-12-18T13:49:19.640Z</time>
      </trkpt>
      <trkpt lat="46.52892" lon="-1.77449">
        <ele>61.399604</ele>
        <time>2022-12-18T13:49:23.635Z</time>
      </trkpt>
      <trkpt lat="46.5288" lon="-1.77451">
        <ele>61.633482</ele>
        <time>2022-12-18T13:49:27.651Z</time>
      </trkpt>
      <trkpt lat="46.5287" lon="-1.77453">
        <ele>61.813151</ele>
        <time>2022-12-18T13:49:30.635Z</time>
      </trkpt>
      <trkpt lat="46.52861" lon="-1.77454">
        <ele>61.877679</ele>
        <time>2022-12-18T13:49:33.648Z</time>
      </trkpt>
      <trkpt lat="46.52851" lon="-1.77455">
        <ele>61.942702</ele>
        <time>2022-12-18T13:49:36.626Z</time>
      </trkpt>
      <trkpt lat="46.52841" lon="-1.77456">
        <ele>62.00766</ele>
        <time>2022-12-18T13:49:39.637Z</time>
      </trkpt>
      <trkpt lat="46.52832" lon="-1.77457">
        <ele>62.071351</ele>
        <time>2022-12-18T13:49:42.644Z</time>
      </trkpt>
      <trkpt lat="46.5282" lon="-1.77459">
        <ele>62.152022</ele>
        <time>2022-12-18T13:49:46.637Z</time>
      </trkpt>
      <trkpt lat="46.52808" lon="-1.77461">
        <ele>62.230518</ele>
        <time>2022-12-18T13:49:50.637Z</time>
      </trkpt>
      <trkpt lat="46.52799" lon="-1.77462">
        <ele>62.290919</ele>
        <time>2022-12-18T13:49:53.652Z</time>
      </trkpt>
      <trkpt lat="46.52788" lon="-1.77463">
        <ele>62.368083</ele>
        <time>2022-12-18T13:49:57.660Z</time>
      </trkpt>
      <trkpt lat="46.52779" lon="-1.77464">
        <ele>62.429073</ele>
        <time>2022-12-18T13:50:00.664Z</time>
      </trkpt>
      <trkpt lat="46.52769" lon="-1.77465">
        <ele>62.491921</ele>
        <time>2022-12-18T13:50:03.631Z</time>
      </trkpt>
      <trkpt lat="46.5276" lon="-1.77466">
        <ele>62.556401</ele>
        <time>2022-12-18T13:50:06.641Z</time>
      </trkpt>
      <trkpt lat="46.52749" lon="-1.77467">
        <ele>62.627494</ele>
        <time>2022-12-18T13:50:09.635Z</time>
      </trkpt>
      <trkpt lat="46.52739" lon="-1.77469">
        <ele>62.69335</ele>
        <time>2022-12-18T13:50:12.650Z</time>
      </trkpt>
      <trkpt lat="46.52727" lon="-1.7747">
        <ele>62.773219</ele>
        <time>2022-12-18T13:50:16.652Z</time>
      </trkpt>
      <trkpt lat="46.52716" lon="-1.77472">
        <ele>62.849052</ele>
        <time>2022-12-18T13:50:20.628Z</time>
      </trkpt>
      <trkpt lat="46.52707" lon="-1.77473">
        <ele>62.909544</ele>
        <time>2022-12-18T13:50:23.642Z</time>
      </trkpt>
      <trkpt lat="46.52698" lon="-1.77475">
        <ele>62.972694</ele>
        <time>2022-12-18T13:50:26.629Z</time>
      </trkpt>
      <trkpt lat="46.52688" lon="-1.77476">
        <ele>62.999525</ele>
        <time>2022-12-18T13:50:29.641Z</time>
      </trkpt>
      <trkpt lat="46.52678" lon="-1.77478">
        <ele>62.971851</ele>
        <time>2022-12-18T13:50:32.651Z</time>
      </trkpt>
      <trkpt lat="46.52668" lon="-1.77479">
        <ele>62.944977</ele>
        <time>2022-12-18T13:50:35.648Z</time>
      </trkpt>
      <trkpt lat="46.52658" lon="-1.7748">
        <ele>62.916114</ele>
        <time>2022-12-18T13:50:38.640Z</time>
      </trkpt>
      <trkpt lat="46.52647" lon="-1.77482">
        <ele>62.886399</ele>
        <time>2022-12-18T13:50:41.641Z</time>
      </trkpt>
      <trkpt lat="46.52637" lon="-1.77483">
        <ele>62.859478</ele>
        <time>2022-12-18T13:50:44.651Z</time>
      </trkpt>
      <trkpt lat="46.52627" lon="-1.77484">
        <ele>62.832268</ele>
        <time>2022-12-18T13:50:47.640Z</time>
      </trkpt>
      <trkpt lat="46.52616" lon="-1.77487">
        <ele>62.802074</ele>
        <time>2022-12-18T13:50:50.632Z</time>
      </trkpt>
      <trkpt lat="46.52605" lon="-1.77488">
        <ele>62.771041</ele>
        <time>2022-12-18T13:50:53.645Z</time>
      </trkpt>
      <trkpt lat="46.52595" lon="-1.77488">
        <ele>62.742828</ele>
        <time>2022-12-18T13:50:56.639Z</time>
      </trkpt>
      <trkpt lat="46.52585" lon="-1.7749">
        <ele>62.717722</ele>
        <time>2022-12-18T13:50:59.632Z</time>
      </trkpt>
      <trkpt lat="46.52576" lon="-1.7749">
        <ele>62.692205</ele>
        <time>2022-12-18T13:51:02.641Z</time>
      </trkpt>
      <trkpt lat="46.52566" lon="-1.77492">
        <ele>62.663496</ele>
        <time>2022-12-18T13:51:05.644Z</time>
      </trkpt>
      <trkpt lat="46.52554" lon="-1.77494">
        <ele>62.632434</ele>
        <time>2022-12-18T13:51:08.634Z</time>
      </trkpt>
      <trkpt lat="46.52543" lon="-1.77495">
        <ele>62.600793</ele>
        <time>2022-12-18T13:51:11.647Z</time>
      </trkpt>
      <trkpt lat="46.52532" lon="-1.77497">
        <ele>62.570452</ele>
        <time>2022-12-18T13:51:14.636Z</time>
      </trkpt>
      <trkpt lat="46.52522" lon="-1.77499">
        <ele>62.5421</ele>
        <time>2022-12-18T13:51:17.644Z</time>
      </trkpt>
      <trkpt lat="46.5251" lon="-1.77501">
        <ele>62.471072</ele>
        <time>2022-12-18T13:51:21.641Z</time>
      </trkpt>
      <trkpt lat="46.525" lon="-1.77502">
        <ele>62.339121</ele>
        <time>2022-12-18T13:51:24.629Z</time>
      </trkpt>
      <trkpt lat="46.52491" lon="-1.77502">
        <ele>62.210619</ele>
        <time>2022-12-18T13:51:27.635Z</time>
      </trkpt>
      <trkpt lat="46.52482" lon="-1.77503">
        <ele>62.083182</ele>
        <time>2022-12-18T13:51:30.650Z</time>
      </trkpt>
      <trkpt lat="46.52472" lon="-1.77504">
        <ele>61.944773</ele>
        <time>2022-12-18T13:51:34.637Z</time>
      </trkpt>
      <trkpt lat="46.52461" lon="-1.77506">
        <ele>61.783482</ele>
        <time>2022-12-18T13:51:39.627Z</time>
      </trkpt>
      <trkpt lat="46.52451" lon="-1.77507">
        <ele>61.643441</ele>
        <time>2022-12-18T13:51:42.631Z</time>
      </trkpt>
      <trkpt lat="46.5244" lon="-1.77509">
        <ele>61.495801</ele>
        <time>2022-12-18T13:51:45.639Z</time>
      </trkpt>
      <trkpt lat="46.52429" lon="-1.77512">
        <ele>61.339231</ele>
        <time>2022-12-18T13:51:48.658Z</time>
      </trkpt>
      <trkpt lat="46.52419" lon="-1.77512">
        <ele>61.199378</ele>
        <time>2022-12-18T13:51:51.644Z</time>
      </trkpt>
      <trkpt lat="46.52409" lon="-1.77514">
        <ele>61.056904</ele>
        <time>2022-12-18T13:51:54.645Z</time>
      </trkpt>
      <trkpt lat="46.52398" lon="-1.77516">
        <ele>60.901141</ele>
        <time>2022-12-18T13:51:57.632Z</time>
      </trkpt>
      <trkpt lat="46.52387" lon="-1.77518">
        <ele>60.743989</ele>
        <time>2022-12-18T13:52:00.630Z</time>
      </trkpt>
      <trkpt lat="46.52376" lon="-1.77519">
        <ele>60.594128</ele>
        <time>2022-12-18T13:52:03.631Z</time>
      </trkpt>
      <trkpt lat="46.52364" lon="-1.7752">
        <ele>60.433193</ele>
        <time>2022-12-18T13:52:06.639Z</time>
      </trkpt>
      <trkpt lat="46.52352" lon="-1.77521">
        <ele>60.259821</ele>
        <time>2022-12-18T13:52:09.636Z</time>
      </trkpt>
      <trkpt lat="46.52343" lon="-1.77522">
        <ele>60.128133</ele>
        <time>2022-12-18T13:52:11.628Z</time>
      </trkpt>
      <trkpt lat="46.52333" lon="-1.77523">
        <ele>60.002838</ele>
        <time>2022-12-18T13:52:13.639Z</time>
      </trkpt>
      <trkpt lat="46.5232" lon="-1.77525">
        <ele>59.907331</ele>
        <time>2022-12-18T13:52:16.636Z</time>
      </trkpt>
      <trkpt lat="46.52308" lon="-1.77526">
        <ele>59.814716</ele>
        <time>2022-12-18T13:52:19.638Z</time>
      </trkpt>
      <trkpt lat="46.52296" lon="-1.77528">
        <ele>59.727667</ele>
        <time>2022-12-18T13:52:22.639Z</time>
      </trkpt>
      <trkpt lat="46.52284" lon="-1.77529">
        <ele>59.643251</ele>
        <time>2022-12-18T13:52:25.644Z</time>
      </trkpt>
      <trkpt lat="46.52272" lon="-1.77532">
        <ele>59.554039</ele>
        <time>2022-12-18T13:52:28.633Z</time>
      </trkpt>
      <trkpt lat="46.52259" lon="-1.77533">
        <ele>59.460229</ele>
        <time>2022-12-18T13:52:31.637Z</time>
      </trkpt>
      <trkpt lat="46.52248" lon="-1.77535">
        <ele>59.376124</ele>
        <time>2022-12-18T13:52:34.644Z</time>
      </trkpt>
      <trkpt lat="46.52236" lon="-1.77536">
        <ele>59.290984</ele>
        <time>2022-12-18T13:52:37.631Z</time>
      </trkpt>
      <trkpt lat="46.52223" lon="-1.77538">
        <ele>59.197326</ele>
        <time>2022-12-18T13:52:40.652Z</time>
      </trkpt>
      <trkpt lat="46.5221" lon="-1.77539">
        <ele>59.102858</ele>
        <time>2022-12-18T13:52:43.647Z</time>
      </trkpt>
      <trkpt lat="46.52196" lon="-1.7754">
        <ele>59.003851</ele>
        <time>2022-12-18T13:52:46.628Z</time>
      </trkpt>
      <trkpt lat="46.52183" lon="-1.77542">
        <ele>58.908751</ele>
        <time>2022-12-18T13:52:49.631Z</time>
      </trkpt>
      <trkpt lat="46.52174" lon="-1.77544">
        <ele>58.842967</ele>
        <time>2022-12-18T13:52:51.636Z</time>
      </trkpt>
      <trkpt lat="46.52162" lon="-1.77546">
        <ele>58.752423</ele>
        <time>2022-12-18T13:52:54.632Z</time>
      </trkpt>
      <trkpt lat="46.52149" lon="-1.77545">
        <ele>58.628718</ele>
        <time>2022-12-18T13:52:57.634Z</time>
      </trkpt>
      <trkpt lat="46.52137" lon="-1.77548">
        <ele>58.480723</ele>
        <time>2022-12-18T13:53:00.630Z</time>
      </trkpt>
      <trkpt lat="46.52124" lon="-1.7755">
        <ele>58.317944</ele>
        <time>2022-12-18T13:53:03.650Z</time>
      </trkpt>
      <trkpt lat="46.52111" lon="-1.77552">
        <ele>58.160504</ele>
        <time>2022-12-18T13:53:06.655Z</time>
      </trkpt>
      <trkpt lat="46.52098" lon="-1.77552">
        <ele>57.998424</ele>
        <time>2022-12-18T13:53:09.637Z</time>
      </trkpt>
      <trkpt lat="46.52085" lon="-1.77555">
        <ele>57.840016</ele>
        <time>2022-12-18T13:53:12.631Z</time>
      </trkpt>
      <trkpt lat="46.52072" lon="-1.77558">
        <ele>57.680419</ele>
        <time>2022-12-18T13:53:15.647Z</time>
      </trkpt>
      <trkpt lat="46.52061" lon="-1.77561">
        <ele>57.535117</ele>
        <time>2022-12-18T13:53:18.649Z</time>
      </trkpt>
      <trkpt lat="46.5205" lon="-1.77562">
        <ele>57.402327</ele>
        <time>2022-12-18T13:53:21.650Z</time>
      </trkpt>
      <trkpt lat="46.52038" lon="-1.77564">
        <ele>57.256801</ele>
        <time>2022-12-18T13:53:24.648Z</time>
      </trkpt>
      <trkpt lat="46.52026" lon="-1.77565">
        <ele>57.105476</ele>
        <time>2022-12-18T13:53:27.645Z</time>
      </trkpt>
      <trkpt lat="46.52014" lon="-1.77567">
        <ele>56.956011</ele>
        <time>2022-12-18T13:53:30.644Z</time>
      </trkpt>
      <trkpt lat="46.52002" lon="-1.77569">
        <ele>56.818202</ele>
        <time>2022-12-18T13:53:33.632Z</time>
      </trkpt>
      <trkpt lat="46.51991" lon="-1.77569">
        <ele>56.679478</ele>
        <time>2022-12-18T13:53:36.640Z</time>
      </trkpt>
      <trkpt lat="46.5198" lon="-1.77571">
        <ele>56.536778</ele>
        <time>2022-12-18T13:53:39.636Z</time>
      </trkpt>
      <trkpt lat="46.51971" lon="-1.77572">
        <ele>56.415094</ele>
        <time>2022-12-18T13:53:41.645Z</time>
      </trkpt>
      <trkpt lat="46.51962" lon="-1.77573">
        <ele>56.287797</ele>
        <time>2022-12-18T13:53:43.632Z</time>
      </trkpt>
      <trkpt lat="46.51949" lon="-1.77575">
        <ele>56.10463</ele>
        <time>2022-12-18T13:53:46.640Z</time>
      </trkpt>
      <trkpt lat="46.51937" lon="-1.77577">
        <ele>55.9343</ele>
        <time>2022-12-18T13:53:49.631Z</time>
      </trkpt>
      <trkpt lat="46.51925" lon="-1.77577">
        <ele>55.774845</ele>
        <time>2022-12-18T13:53:52.651Z</time>
      </trkpt>
      <trkpt lat="46.51915" lon="-1.77577">
        <ele>55.629502</ele>
        <time>2022-12-18T13:53:55.648Z</time>
      </trkpt>
      <trkpt lat="46.51904" lon="-1.77576">
        <ele>55.476797</ele>
        <time>2022-12-18T13:53:58.634Z</time>
      </trkpt>
      <trkpt lat="46.51892" lon="-1.77578">
        <ele>55.309655</ele>
        <time>2022-12-18T13:54:01.630Z</time>
      </trkpt>
      <trkpt lat="46.5188" lon="-1.7758">
        <ele>55.1294</ele>
        <time>2022-12-18T13:54:04.637Z</time>
      </trkpt>
      <trkpt lat="46.5187" lon="-1.77581">
        <ele>54.997468</ele>
        <time>2022-12-18T13:54:06.631Z</time>
      </trkpt>
      <trkpt lat="46.51861" lon="-1.77582">
        <ele>54.869846</ele>
        <time>2022-12-18T13:54:08.634Z</time>
      </trkpt>
      <trkpt lat="46.51849" lon="-1.77583">
        <ele>54.689061</ele>
        <time>2022-12-18T13:54:11.633Z</time>
      </trkpt>
      <trkpt lat="46.5184" lon="-1.77585">
        <ele>54.560868</ele>
        <time>2022-12-18T13:54:13.650Z</time>
      </trkpt>
      <trkpt lat="46.5183" lon="-1.77586">
        <ele>54.419197</ele>
        <time>2022-12-18T13:54:15.636Z</time>
      </trkpt>
      <trkpt lat="46.51819" lon="-1.77588">
        <ele>54.273129</ele>
        <time>2022-12-18T13:54:17.633Z</time>
      </trkpt>
      <trkpt lat="46.51809" lon="-1.77589">
        <ele>54.131368</ele>
        <time>2022-12-18T13:54:19.637Z</time>
      </trkpt>
      <trkpt lat="46.51799" lon="-1.7759">
        <ele>53.984155</ele>
        <time>2022-12-18T13:54:21.639Z</time>
      </trkpt>
      <trkpt lat="46.51789" lon="-1.77592">
        <ele>53.978661</ele>
        <time>2022-12-18T13:54:23.654Z</time>
      </trkpt>
      <trkpt lat="46.51778" lon="-1.77593">
        <ele>54.005565</ele>
        <time>2022-12-18T13:54:25.659Z</time>
      </trkpt>
      <trkpt lat="46.51769" lon="-1.77593">
        <ele>54.030327</ele>
        <time>2022-12-18T13:54:27.656Z</time>
      </trkpt>
      <trkpt lat="46.5176" lon="-1.77595">
        <ele>54.055256</ele>
        <time>2022-12-18T13:54:29.638Z</time>
      </trkpt>
      <trkpt lat="46.51751" lon="-1.77597">
        <ele>54.079118</ele>
        <time>2022-12-18T13:54:31.662Z</time>
      </trkpt>
      <trkpt lat="46.51738" lon="-1.77599">
        <ele>54.113018</ele>
        <time>2022-12-18T13:54:34.738Z</time>
      </trkpt>
      <trkpt lat="46.51725" lon="-1.77602">
        <ele>54.147399</ele>
        <time>2022-12-18T13:54:37.650Z</time>
      </trkpt>
      <trkpt lat="46.51715" lon="-1.77603">
        <ele>54.173314</ele>
        <time>2022-12-18T13:54:39.635Z</time>
      </trkpt>
      <trkpt lat="46.51705" lon="-1.77605">
        <ele>54.200313</ele>
        <time>2022-12-18T13:54:41.645Z</time>
      </trkpt>
      <trkpt lat="46.51695" lon="-1.77606">
        <ele>54.227538</ele>
        <time>2022-12-18T13:54:43.662Z</time>
      </trkpt>
      <trkpt lat="46.51685" lon="-1.77608">
        <ele>54.253774</ele>
        <time>2022-12-18T13:54:45.631Z</time>
      </trkpt>
      <trkpt lat="46.51676" lon="-1.7761">
        <ele>54.278082</ele>
        <time>2022-12-18T13:54:47.646Z</time>
      </trkpt>
      <trkpt lat="46.51666" lon="-1.77614">
        <ele>54.303109</ele>
        <time>2022-12-18T13:54:49.636Z</time>
      </trkpt>
      <trkpt lat="46.51654" lon="-1.77617">
        <ele>54.336318</ele>
        <time>2022-12-18T13:54:52.652Z</time>
      </trkpt>
      <trkpt lat="46.51643" lon="-1.77619">
        <ele>54.365754</ele>
        <time>2022-12-18T13:54:55.633Z</time>
      </trkpt>
      <trkpt lat="46.51633" lon="-1.77621">
        <ele>54.39223</ele>
        <time>2022-12-18T13:54:58.635Z</time>
      </trkpt>
      <trkpt lat="46.51623" lon="-1.77622">
        <ele>54.417943</ele>
        <time>2022-12-18T13:55:01.650Z</time>
      </trkpt>
      <trkpt lat="46.51614" lon="-1.77625">
        <ele>54.556739</ele>
        <time>2022-12-18T13:55:04.647Z</time>
      </trkpt>
      <trkpt lat="46.51605" lon="-1.77626">
        <ele>54.793561</ele>
        <time>2022-12-18T13:55:07.637Z</time>
      </trkpt>
      <trkpt lat="46.51594" lon="-1.77627">
        <ele>55.05405</ele>
        <time>2022-12-18T13:55:10.636Z</time>
      </trkpt>
      <trkpt lat="46.51584" lon="-1.77628">
        <ele>55.310591</ele>
        <time>2022-12-18T13:55:13.638Z</time>
      </trkpt>
      <trkpt lat="46.51574" lon="-1.7763">
        <ele>55.569409</ele>
        <time>2022-12-18T13:55:16.650Z</time>
      </trkpt>
      <trkpt lat="46.51565" lon="-1.77633">
        <ele>55.811936</ele>
        <time>2022-12-18T13:55:19.638Z</time>
      </trkpt>
      <trkpt lat="46.51556" lon="-1.77634">
        <ele>56.044976</ele>
        <time>2022-12-18T13:55:22.637Z</time>
      </trkpt>
      <trkpt lat="46.51547" lon="-1.77636">
        <ele>56.282025</ele>
        <time>2022-12-18T13:55:25.654Z</time>
      </trkpt>
      <trkpt lat="46.51538" lon="-1.77637">
        <ele>56.515522</ele>
        <time>2022-12-18T13:55:28.633Z</time>
      </trkpt>
      <trkpt lat="46.51527" lon="-1.77639">
        <ele>56.780039</ele>
        <time>2022-12-18T13:55:32.654Z</time>
      </trkpt>
      <trkpt lat="46.51517" lon="-1.77641">
        <ele>57.052991</ele>
        <time>2022-12-18T13:55:36.649Z</time>
      </trkpt>
      <trkpt lat="46.51505" lon="-1.77642">
        <ele>57.349541</ele>
        <time>2022-12-18T13:55:40.629Z</time>
      </trkpt>
      <trkpt lat="46.51494" lon="-1.77644">
        <ele>57.645512</ele>
        <time>2022-12-18T13:55:44.627Z</time>
      </trkpt>
      <trkpt lat="46.51485" lon="-1.77645">
        <ele>57.879009</ele>
        <time>2022-12-18T13:55:47.630Z</time>
      </trkpt>
      <trkpt lat="46.51473" lon="-1.77647">
        <ele>58.17879</ele>
        <time>2022-12-18T13:55:51.644Z</time>
      </trkpt>
      <trkpt lat="46.51464" lon="-1.77649">
        <ele>58.409211</ele>
        <time>2022-12-18T13:55:56.642Z</time>
      </trkpt>
      <trkpt lat="46.51463" lon="-1.77663">
        <ele>58.643823</ele>
        <time>2022-12-18T13:56:04.632Z</time>
      </trkpt>
      <trkpt lat="46.51466" lon="-1.77679">
        <ele>58.929876</ele>
        <time>2022-12-18T13:56:08.624Z</time>
      </trkpt>
      <trkpt lat="46.51468" lon="-1.77694">
        <ele>59.022848</ele>
        <time>2022-12-18T13:56:12.639Z</time>
      </trkpt>
      <trkpt lat="46.51472" lon="-1.77708">
        <ele>59.023064</ele>
        <time>2022-12-18T13:56:16.631Z</time>
      </trkpt>
      <trkpt lat="46.51473" lon="-1.77721">
        <ele>59.023258</ele>
        <time>2022-12-18T13:56:19.639Z</time>
      </trkpt>
      <trkpt lat="46.51476" lon="-1.77736">
        <ele>59.02348</ele>
        <time>2022-12-18T13:56:22.652Z</time>
      </trkpt>
      <trkpt lat="46.51477" lon="-1.77749">
        <ele>59.023679</ele>
        <time>2022-12-18T13:56:25.632Z</time>
      </trkpt>
      <trkpt lat="46.51479" lon="-1.77765">
        <ele>59.02391</ele>
        <time>2022-12-18T13:56:29.638Z</time>
      </trkpt>
      <trkpt lat="46.51481" lon="-1.7778">
        <ele>59.024127</ele>
        <time>2022-12-18T13:56:32.630Z</time>
      </trkpt>
      <trkpt lat="46.51483" lon="-1.77794">
        <ele>59.024343</ele>
        <time>2022-12-18T13:56:35.647Z</time>
      </trkpt>
      <trkpt lat="46.51485" lon="-1.77809">
        <ele>59.024555</ele>
        <time>2022-12-18T13:56:38.638Z</time>
      </trkpt>
      <trkpt lat="46.51486" lon="-1.77823">
        <ele>59.024764</ele>
        <time>2022-12-18T13:56:41.626Z</time>
      </trkpt>
      <trkpt lat="46.51484" lon="-1.77836">
        <ele>59.024956</ele>
        <time>2022-12-18T13:56:44.633Z</time>
      </trkpt>
      <trkpt lat="46.51474" lon="-1.77843">
        <ele>59.025197</ele>
        <time>2022-12-18T13:56:47.638Z</time>
      </trkpt>
      <trkpt lat="46.51462" lon="-1.77846">
        <ele>59.025438</ele>
        <time>2022-12-18T13:56:50.655Z</time>
      </trkpt>
      <trkpt lat="46.51453" lon="-1.77847">
        <ele>59.02564</ele>
        <time>2022-12-18T13:56:53.630Z</time>
      </trkpt>
      <trkpt lat="46.51444" lon="-1.7785">
        <ele>59.025835</ele>
        <time>2022-12-18T13:56:56.628Z</time>
      </trkpt>
      <trkpt lat="46.51435" lon="-1.7786">
        <ele>59.026067</ele>
        <time>2022-12-18T13:57:01.630Z</time>
      </trkpt>
      <trkpt lat="46.51434" lon="-1.77873">
        <ele>59.026261</ele>
        <time>2022-12-18T13:57:05.635Z</time>
      </trkpt>
      <trkpt lat="46.51433" lon="-1.77887">
        <ele>59.026463</ele>
        <time>2022-12-18T13:57:09.649Z</time>
      </trkpt>
      <trkpt lat="46.51433" lon="-1.779">
        <ele>58.889365</ele>
        <time>2022-12-18T13:57:12.625Z</time>
      </trkpt>
      <trkpt lat="46.51435" lon="-1.77914">
        <ele>58.712153</ele>
        <time>2022-12-18T13:57:15.622Z</time>
      </trkpt>
      <trkpt lat="46.51438" lon="-1.77928">
        <ele>58.544294</ele>
        <time>2022-12-18T13:57:18.630Z</time>
      </trkpt>
      <trkpt lat="46.51441" lon="-1.77942">
        <ele>58.357617</ele>
        <time>2022-12-18T13:57:22.637Z</time>
      </trkpt>
      <trkpt lat="46.51443" lon="-1.77955">
        <ele>58.196793</ele>
        <time>2022-12-18T13:57:27.639Z</time>
      </trkpt>
      <trkpt lat="46.51443" lon="-1.77956">
        <ele>58.18056</ele>
        <time>2022-12-18T13:58:08.035Z</time>
      </trkpt>
      <trkpt lat="46.51437" lon="-1.77944">
        <ele>57.992963</ele>
        <time>2022-12-18T14:01:43.636Z</time>
      </trkpt>
      <trkpt lat="46.51435" lon="-1.77926">
        <ele>57.77967</ele>
        <time>2022-12-18T14:01:47.629Z</time>
      </trkpt>
      <trkpt lat="46.51433" lon="-1.77911">
        <ele>57.593649</ele>
        <time>2022-12-18T14:01:50.632Z</time>
      </trkpt>
      <trkpt lat="46.5143" lon="-1.77896">
        <ele>57.401007</ele>
        <time>2022-12-18T14:01:53.645Z</time>
      </trkpt>
      <trkpt lat="46.51425" lon="-1.77881">
        <ele>57.195981</ele>
        <time>2022-12-18T14:01:56.635Z</time>
      </trkpt>
      <trkpt lat="46.51421" lon="-1.77868">
        <ele>57.022606</ele>
        <time>2022-12-18T14:01:59.634Z</time>
      </trkpt>
      <trkpt lat="46.51422" lon="-1.77854">
        <ele>56.856563</ele>
        <time>2022-12-18T14:02:02.635Z</time>
      </trkpt>
      <trkpt lat="46.51421" lon="-1.77841">
        <ele>56.68732</ele>
        <time>2022-12-18T14:02:05.641Z</time>
      </trkpt>
      <trkpt lat="46.5142" lon="-1.77825">
        <ele>56.501311</ele>
        <time>2022-12-18T14:02:08.631Z</time>
      </trkpt>
      <trkpt lat="46.51418" lon="-1.77811">
        <ele>56.328227</ele>
        <time>2022-12-18T14:02:11.642Z</time>
      </trkpt>
      <trkpt lat="46.51416" lon="-1.77799">
        <ele>56.166706</ele>
        <time>2022-12-18T14:02:14.638Z</time>
      </trkpt>
      <trkpt lat="46.51414" lon="-1.77785">
        <ele>56.000957</ele>
        <time>2022-12-18T14:02:17.639Z</time>
      </trkpt>
      <trkpt lat="46.51411" lon="-1.77772">
        <ele>55.855593</ele>
        <time>2022-12-18T14:02:20.640Z</time>
      </trkpt>
      <trkpt lat="46.51406" lon="-1.77759">
        <ele>55.988573</ele>
        <time>2022-12-18T14:02:23.639Z</time>
      </trkpt>
      <trkpt lat="46.514" lon="-1.77746">
        <ele>56.122764</ele>
        <time>2022-12-18T14:02:26.638Z</time>
      </trkpt>
      <trkpt lat="46.51393" lon="-1.77735">
        <ele>56.259451</ele>
        <time>2022-12-18T14:02:29.635Z</time>
      </trkpt>
      <trkpt lat="46.51384" lon="-1.77726">
        <ele>56.406788</ele>
        <time>2022-12-18T14:02:32.643Z</time>
      </trkpt>
      <trkpt lat="46.51375" lon="-1.77718">
        <ele>56.54932</ele>
        <time>2022-12-18T14:02:35.640Z</time>
      </trkpt>
      <trkpt lat="46.51366" lon="-1.7771">
        <ele>56.684198</ele>
        <time>2022-12-18T14:02:38.637Z</time>
      </trkpt>
      <trkpt lat="46.51357" lon="-1.77704">
        <ele>56.806773</ele>
        <time>2022-12-18T14:02:41.632Z</time>
      </trkpt>
      <trkpt lat="46.51346" lon="-1.77701">
        <ele>56.951954</ele>
        <time>2022-12-18T14:02:46.633Z</time>
      </trkpt>
      <trkpt lat="46.51335" lon="-1.77701">
        <ele>57.09756</ele>
        <time>2022-12-18T14:02:50.627Z</time>
      </trkpt>
      <trkpt lat="46.51326" lon="-1.77695">
        <ele>57.223181</ele>
        <time>2022-12-18T14:02:53.643Z</time>
      </trkpt>
      <trkpt lat="46.51319" lon="-1.77684">
        <ele>57.35876</ele>
        <time>2022-12-18T14:02:56.634Z</time>
      </trkpt>
      <trkpt lat="46.51318" lon="-1.7767">
        <ele>57.487494</ele>
        <time>2022-12-18T14:02:59.638Z</time>
      </trkpt>
      <trkpt lat="46.51319" lon="-1.77655">
        <ele>57.614769</ele>
        <time>2022-12-18T14:03:02.637Z</time>
      </trkpt>
      <trkpt lat="46.5132" lon="-1.7764">
        <ele>57.750369</ele>
        <time>2022-12-18T14:03:05.639Z</time>
      </trkpt>
      <trkpt lat="46.51319" lon="-1.77626">
        <ele>57.88177</ele>
        <time>2022-12-18T14:03:08.639Z</time>
      </trkpt>
      <trkpt lat="46.51316" lon="-1.77613">
        <ele>58.002889</ele>
        <time>2022-12-18T14:03:11.632Z</time>
      </trkpt>
      <trkpt lat="46.51313" lon="-1.77598">
        <ele>58.141074</ele>
        <time>2022-12-18T14:03:14.632Z</time>
      </trkpt>
      <trkpt lat="46.51311" lon="-1.77582">
        <ele>58.298862</ele>
        <time>2022-12-18T14:03:17.632Z</time>
      </trkpt>
      <trkpt lat="46.51309" lon="-1.77566">
        <ele>58.474524</ele>
        <time>2022-12-18T14:03:20.634Z</time>
      </trkpt>
      <trkpt lat="46.51307" lon="-1.77549">
        <ele>58.653031</ele>
        <time>2022-12-18T14:03:23.634Z</time>
      </trkpt>
      <trkpt lat="46.51305" lon="-1.77532">
        <ele>58.835951</ele>
        <time>2022-12-18T14:03:26.631Z</time>
      </trkpt>
      <trkpt lat="46.51303" lon="-1.77516">
        <ele>59.010341</ele>
        <time>2022-12-18T14:03:29.635Z</time>
      </trkpt>
      <trkpt lat="46.51302" lon="-1.77499">
        <ele>59.191801</ele>
        <time>2022-12-18T14:03:32.634Z</time>
      </trkpt>
      <trkpt lat="46.51299" lon="-1.77481">
        <ele>59.380171</ele>
        <time>2022-12-18T14:03:35.650Z</time>
      </trkpt>
      <trkpt lat="46.51297" lon="-1.77463">
        <ele>59.577326</ele>
        <time>2022-12-18T14:03:38.642Z</time>
      </trkpt>
      <trkpt lat="46.51295" lon="-1.77444">
        <ele>59.774735</ele>
        <time>2022-12-18T14:03:41.637Z</time>
      </trkpt>
      <trkpt lat="46.51293" lon="-1.77426">
        <ele>59.964632</ele>
        <time>2022-12-18T14:03:44.640Z</time>
      </trkpt>
      <trkpt lat="46.51292" lon="-1.77409">
        <ele>60.152152</ele>
        <time>2022-12-18T14:03:47.634Z</time>
      </trkpt>
      <trkpt lat="46.5129" lon="-1.77393">
        <ele>60.320549</ele>
        <time>2022-12-18T14:03:50.636Z</time>
      </trkpt>
      <trkpt lat="46.51288" lon="-1.77376">
        <ele>60.502437</ele>
        <time>2022-12-18T14:03:53.630Z</time>
      </trkpt>
      <trkpt lat="46.51285" lon="-1.77358">
        <ele>60.69648</ele>
        <time>2022-12-18T14:03:56.631Z</time>
      </trkpt>
      <trkpt lat="46.51283" lon="-1.77339">
        <ele>60.893636</ele>
        <time>2022-12-18T14:03:59.642Z</time>
      </trkpt>
      <trkpt lat="46.51281" lon="-1.7732">
        <ele>60.94665</ele>
        <time>2022-12-18T14:04:02.635Z</time>
      </trkpt>
      <trkpt lat="46.5128" lon="-1.77307">
        <ele>60.959714</ele>
        <time>2022-12-18T14:04:04.634Z</time>
      </trkpt>
      <trkpt lat="46.51279" lon="-1.77294">
        <ele>60.972739</ele>
        <time>2022-12-18T14:04:06.633Z</time>
      </trkpt>
      <trkpt lat="46.51278" lon="-1.77281">
        <ele>60.985685</ele>
        <time>2022-12-18T14:04:08.631Z</time>
      </trkpt>
      <trkpt lat="46.51276" lon="-1.77267">
        <ele>60.999023</ele>
        <time>2022-12-18T14:04:10.640Z</time>
      </trkpt>
      <trkpt lat="46.51276" lon="-1.77253">
        <ele>61.012582</ele>
        <time>2022-12-18T14:04:12.632Z</time>
      </trkpt>
      <trkpt lat="46.51275" lon="-1.77234">
        <ele>61.031863</ele>
        <time>2022-12-18T14:04:15.646Z</time>
      </trkpt>
      <trkpt lat="46.51275" lon="-1.77221">
        <ele>61.044894</ele>
        <time>2022-12-18T14:04:17.633Z</time>
      </trkpt>
      <trkpt lat="46.51276" lon="-1.77208">
        <ele>61.057844</ele>
        <time>2022-12-18T14:04:19.636Z</time>
      </trkpt>
      <trkpt lat="46.51277" lon="-1.77188">
        <ele>61.077195</ele>
        <time>2022-12-18T14:04:22.639Z</time>
      </trkpt>
      <trkpt lat="46.51278" lon="-1.77175">
        <ele>61.090357</ele>
        <time>2022-12-18T14:04:24.640Z</time>
      </trkpt>
      <trkpt lat="46.51281" lon="-1.77157">
        <ele>61.108317</ele>
        <time>2022-12-18T14:04:27.637Z</time>
      </trkpt>
      <trkpt lat="46.51284" lon="-1.77138">
        <ele>61.127782</ele>
        <time>2022-12-18T14:04:30.635Z</time>
      </trkpt>
      <trkpt lat="46.51287" lon="-1.77124">
        <ele>61.141922</ele>
        <time>2022-12-18T14:04:32.650Z</time>
      </trkpt>
      <trkpt lat="46.51291" lon="-1.77111">
        <ele>61.155976</ele>
        <time>2022-12-18T14:04:34.635Z</time>
      </trkpt>
      <trkpt lat="46.51295" lon="-1.77098">
        <ele>61.170782</ele>
        <time>2022-12-18T14:04:36.634Z</time>
      </trkpt>
      <trkpt lat="46.513" lon="-1.77085">
        <ele>61.184947</ele>
        <time>2022-12-18T14:04:38.639Z</time>
      </trkpt>
      <trkpt lat="46.51305" lon="-1.77072">
        <ele>61.140781</ele>
        <time>2022-12-18T14:04:40.634Z</time>
      </trkpt>
      <trkpt lat="46.5131" lon="-1.7706">
        <ele>61.075232</ele>
        <time>2022-12-18T14:04:42.638Z</time>
      </trkpt>
      <trkpt lat="46.51315" lon="-1.77048">
        <ele>61.012749</ele>
        <time>2022-12-18T14:04:44.633Z</time>
      </trkpt>
      <trkpt lat="46.5132" lon="-1.77035">
        <ele>60.9472</ele>
        <time>2022-12-18T14:04:46.637Z</time>
      </trkpt>
      <trkpt lat="46.51325" lon="-1.77023">
        <ele>60.882871</ele>
        <time>2022-12-18T14:04:48.640Z</time>
      </trkpt>
      <trkpt lat="46.5133" lon="-1.77011">
        <ele>60.815606</ele>
        <time>2022-12-18T14:04:50.640Z</time>
      </trkpt>
      <trkpt lat="46.51336" lon="-1.76998">
        <ele>60.746886</ele>
        <time>2022-12-18T14:04:52.633Z</time>
      </trkpt>
      <trkpt lat="46.51342" lon="-1.76986">
        <ele>60.678472</ele>
        <time>2022-12-18T14:04:54.635Z</time>
      </trkpt>
      <trkpt lat="46.51347" lon="-1.76974">
        <ele>60.616827</ele>
        <time>2022-12-18T14:04:56.639Z</time>
      </trkpt>
      <trkpt lat="46.51352" lon="-1.76963">
        <ele>60.557039</ele>
        <time>2022-12-18T14:04:58.629Z</time>
      </trkpt>
      <trkpt lat="46.51357" lon="-1.76951">
        <ele>60.492036</ele>
        <time>2022-12-18T14:05:00.631Z</time>
      </trkpt>
      <trkpt lat="46.51362" lon="-1.76939">
        <ele>60.42766</ele>
        <time>2022-12-18T14:05:02.647Z</time>
      </trkpt>
      <trkpt lat="46.51369" lon="-1.76922">
        <ele>60.337631</ele>
        <time>2022-12-18T14:05:05.640Z</time>
      </trkpt>
      <trkpt lat="46.51377" lon="-1.76907">
        <ele>60.255092</ele>
        <time>2022-12-18T14:05:08.636Z</time>
      </trkpt>
      <trkpt lat="46.51384" lon="-1.76894">
        <ele>60.179494</ele>
        <time>2022-12-18T14:05:11.638Z</time>
      </trkpt>
      <trkpt lat="46.51391" lon="-1.7688">
        <ele>60.098652</ele>
        <time>2022-12-18T14:05:14.639Z</time>
      </trkpt>
      <trkpt lat="46.51398" lon="-1.76867">
        <ele>60.021656</ele>
        <time>2022-12-18T14:05:17.637Z</time>
      </trkpt>
      <trkpt lat="46.51404" lon="-1.76853">
        <ele>59.892791</ele>
        <time>2022-12-18T14:05:20.637Z</time>
      </trkpt>
      <trkpt lat="46.51408" lon="-1.76836">
        <ele>59.726016</ele>
        <time>2022-12-18T14:05:23.633Z</time>
      </trkpt>
      <trkpt lat="46.51413" lon="-1.7682">
        <ele>59.552841</ele>
        <time>2022-12-18T14:05:26.629Z</time>
      </trkpt>
      <trkpt lat="46.51423" lon="-1.76816">
        <ele>59.410316</ele>
        <time>2022-12-18T14:05:29.637Z</time>
      </trkpt>
      <trkpt lat="46.51432" lon="-1.76826">
        <ele>59.256042</ele>
        <time>2022-12-18T14:05:32.635Z</time>
      </trkpt>
      <trkpt lat="46.5144" lon="-1.7684">
        <ele>59.081759</ele>
        <time>2022-12-18T14:05:35.638Z</time>
      </trkpt>
      <trkpt lat="46.51445" lon="-1.76851">
        <ele>58.955892</ele>
        <time>2022-12-18T14:05:38.641Z</time>
      </trkpt>
      <trkpt lat="46.51453" lon="-1.76859">
        <ele>58.828939</ele>
        <time>2022-12-18T14:05:42.641Z</time>
      </trkpt>
      <trkpt lat="46.51461" lon="-1.76867">
        <ele>58.696377</ele>
        <time>2022-12-18T14:05:45.627Z</time>
      </trkpt>
      <trkpt lat="46.5147" lon="-1.76875">
        <ele>58.552078</ele>
        <time>2022-12-18T14:05:48.636Z</time>
      </trkpt>
      <trkpt lat="46.51478" lon="-1.76884">
        <ele>58.414592</ele>
        <time>2022-12-18T14:05:51.644Z</time>
      </trkpt>
      <trkpt lat="46.51486" lon="-1.76894">
        <ele>58.273058</ele>
        <time>2022-12-18T14:05:54.634Z</time>
      </trkpt>
      <trkpt lat="46.51494" lon="-1.76905">
        <ele>58.115194</ele>
        <time>2022-12-18T14:05:58.634Z</time>
      </trkpt>
      <trkpt lat="46.51498" lon="-1.76917">
        <ele>57.989303</ele>
        <time>2022-12-18T14:06:02.635Z</time>
      </trkpt>
      <trkpt lat="46.51494" lon="-1.7693">
        <ele>57.859504</ele>
        <time>2022-12-18T14:06:06.636Z</time>
      </trkpt>
      <trkpt lat="46.51491" lon="-1.76943">
        <ele>57.734113</ele>
        <time>2022-12-18T14:06:09.634Z</time>
      </trkpt>
      <trkpt lat="46.51485" lon="-1.76957">
        <ele>57.570902</ele>
        <time>2022-12-18T14:06:13.632Z</time>
      </trkpt>
      <trkpt lat="46.51474" lon="-1.7696">
        <ele>57.571026</ele>
        <time>2022-12-18T14:06:17.644Z</time>
      </trkpt>
      <trkpt lat="46.51465" lon="-1.76952">
        <ele>57.613609</ele>
        <time>2022-12-18T14:06:22.635Z</time>
      </trkpt>
      <trkpt lat="46.51455" lon="-1.76953">
        <ele>57.652546</ele>
        <time>2022-12-18T14:06:27.628Z</time>
      </trkpt>
      <trkpt lat="46.51448" lon="-1.76966">
        <ele>57.696949</ele>
        <time>2022-12-18T14:06:31.628Z</time>
      </trkpt>
      <trkpt lat="46.51443" lon="-1.76978">
        <ele>57.734018</ele>
        <time>2022-12-18T14:06:35.638Z</time>
      </trkpt>
      <trkpt lat="46.51435" lon="-1.76987">
        <ele>57.773686</ele>
        <time>2022-12-18T14:06:41.628Z</time>
      </trkpt>
      <trkpt lat="46.51428" lon="-1.76995">
        <ele>57.809479</ele>
        <time>2022-12-18T14:06:47.628Z</time>
      </trkpt>
      <trkpt lat="46.51429" lon="-1.76995">
        <ele>57.81325</ele>
        <time>2022-12-18T14:07:06.231Z</time>
      </trkpt>
      <trkpt lat="46.51422" lon="-1.7697">
        <ele>57.886855</ele>
        <time>2022-12-18T14:53:46.981Z</time>
      </trkpt>
      <trkpt lat="46.51421" lon="-1.76987">
        <ele>57.93255</ele>
        <time>2022-12-18T14:54:20.640Z</time>
      </trkpt>
      <trkpt lat="46.51433" lon="-1.76987">
        <ele>57.979545</ele>
        <time>2022-12-18T14:55:18.656Z</time>
      </trkpt>
      <trkpt lat="46.51442" lon="-1.76991">
        <ele>58.018735</ele>
        <time>2022-12-18T14:55:22.632Z</time>
      </trkpt>
      <trkpt lat="46.51451" lon="-1.76997">
        <ele>58.057633</ele>
        <time>2022-12-18T14:55:26.633Z</time>
      </trkpt>
      <trkpt lat="46.51457" lon="-1.77007">
        <ele>58.093181</ele>
        <time>2022-12-18T14:55:30.629Z</time>
      </trkpt>
      <trkpt lat="46.51466" lon="-1.77004">
        <ele>58.128896</ele>
        <time>2022-12-18T14:55:35.657Z</time>
      </trkpt>
      <trkpt lat="46.5147" lon="-1.7699">
        <ele>58.169053</ele>
        <time>2022-12-18T14:55:39.643Z</time>
      </trkpt>
      <trkpt lat="46.51474" lon="-1.76978">
        <ele>58.205978</ele>
        <time>2022-12-18T14:55:42.636Z</time>
      </trkpt>
      <trkpt lat="46.51479" lon="-1.76966">
        <ele>58.238149</ele>
        <time>2022-12-18T14:55:45.626Z</time>
      </trkpt>
      <trkpt lat="46.51485" lon="-1.76951">
        <ele>58.130276</ele>
        <time>2022-12-18T14:55:49.644Z</time>
      </trkpt>
      <trkpt lat="46.51492" lon="-1.76939">
        <ele>58.029523</ele>
        <time>2022-12-18T14:55:53.634Z</time>
      </trkpt>
      <trkpt lat="46.51497" lon="-1.76925">
        <ele>57.931623</ele>
        <time>2022-12-18T14:55:57.648Z</time>
      </trkpt>
      <trkpt lat="46.51497" lon="-1.76912">
        <ele>57.844727</ele>
        <time>2022-12-18T14:56:01.649Z</time>
      </trkpt>
      <trkpt lat="46.51488" lon="-1.76902">
        <ele>57.742027</ele>
        <time>2022-12-18T14:56:05.637Z</time>
      </trkpt>
      <trkpt lat="46.5148" lon="-1.76894">
        <ele>57.646598</ele>
        <time>2022-12-18T14:56:08.645Z</time>
      </trkpt>
      <trkpt lat="46.51471" lon="-1.76885">
        <ele>57.54671</ele>
        <time>2022-12-18T14:56:11.665Z</time>
      </trkpt>
      <trkpt lat="46.51463" lon="-1.76876">
        <ele>57.453605</ele>
        <time>2022-12-18T14:56:14.667Z</time>
      </trkpt>
      <trkpt lat="46.51454" lon="-1.76869">
        <ele>57.35511</ele>
        <time>2022-12-18T14:56:18.638Z</time>
      </trkpt>
      <trkpt lat="46.51443" lon="-1.7686">
        <ele>57.244635</ele>
        <time>2022-12-18T14:56:22.648Z</time>
      </trkpt>
      <trkpt lat="46.51435" lon="-1.76854">
        <ele>57.15905</ele>
        <time>2022-12-18T14:56:25.660Z</time>
      </trkpt>
      <trkpt lat="46.51425" lon="-1.7685">
        <ele>57.059711</ele>
        <time>2022-12-18T14:56:30.646Z</time>
      </trkpt>
      <trkpt lat="46.51415" lon="-1.76851">
        <ele>56.965134</ele>
        <time>2022-12-18T14:56:34.651Z</time>
      </trkpt>
      <trkpt lat="46.51406" lon="-1.7684">
        <ele>56.858396</ele>
        <time>2022-12-18T14:56:38.636Z</time>
      </trkpt>
      <trkpt lat="46.51403" lon="-1.76825">
        <ele>56.756246</ele>
        <time>2022-12-18T14:56:41.636Z</time>
      </trkpt>
      <trkpt lat="46.51401" lon="-1.76809">
        <ele>56.650425</ele>
        <time>2022-12-18T14:56:44.644Z</time>
      </trkpt>
      <trkpt lat="46.51399" lon="-1.76792">
        <ele>56.567421</ele>
        <time>2022-12-18T14:56:47.648Z</time>
      </trkpt>
      <trkpt lat="46.51399" lon="-1.76774">
        <ele>56.609729</ele>
        <time>2022-12-18T14:56:50.642Z</time>
      </trkpt>
      <trkpt lat="46.51399" lon="-1.76759">
        <ele>56.646744</ele>
        <time>2022-12-18T14:56:53.649Z</time>
      </trkpt>
      <trkpt lat="46.51398" lon="-1.76744">
        <ele>56.682215</ele>
        <time>2022-12-18T14:56:56.641Z</time>
      </trkpt>
      <trkpt lat="46.51395" lon="-1.76729">
        <ele>56.721337</ele>
        <time>2022-12-18T14:56:59.626Z</time>
      </trkpt>
      <trkpt lat="46.51393" lon="-1.76713">
        <ele>56.759428</ele>
        <time>2022-12-18T14:57:02.632Z</time>
      </trkpt>
      <trkpt lat="46.51389" lon="-1.767">
        <ele>56.793949</ele>
        <time>2022-12-18T14:57:05.629Z</time>
      </trkpt>
      <trkpt lat="46.51384" lon="-1.76688">
        <ele>56.828597</ele>
        <time>2022-12-18T14:57:08.646Z</time>
      </trkpt>
      <trkpt lat="46.51376" lon="-1.7668">
        <ele>56.861791</ele>
        <time>2022-12-18T14:57:11.632Z</time>
      </trkpt>
      <trkpt lat="46.51365" lon="-1.76677">
        <ele>56.901636</ele>
        <time>2022-12-18T14:57:15.643Z</time>
      </trkpt>
      <trkpt lat="46.51355" lon="-1.76682">
        <ele>56.938264</ele>
        <time>2022-12-18T14:57:18.645Z</time>
      </trkpt>
      <trkpt lat="46.51345" lon="-1.7669">
        <ele>56.977168</ele>
        <time>2022-12-18T14:57:21.649Z</time>
      </trkpt>
      <trkpt lat="46.51338" lon="-1.76701">
        <ele>57.013377</ele>
        <time>2022-12-18T14:57:24.637Z</time>
      </trkpt>
      <trkpt lat="46.51333" lon="-1.76714">
        <ele>57.04902</ele>
        <time>2022-12-18T14:57:27.636Z</time>
      </trkpt>
      <trkpt lat="46.51327" lon="-1.76726">
        <ele>57.086642</ele>
        <time>2022-12-18T14:57:30.642Z</time>
      </trkpt>
      <trkpt lat="46.51321" lon="-1.76738">
        <ele>57.121091</ele>
        <time>2022-12-18T14:57:33.639Z</time>
      </trkpt>
      <trkpt lat="46.51316" lon="-1.76749">
        <ele>57.152711</ele>
        <time>2022-12-18T14:57:36.633Z</time>
      </trkpt>
      <trkpt lat="46.5131" lon="-1.76762">
        <ele>57.18989</ele>
        <time>2022-12-18T14:57:40.646Z</time>
      </trkpt>
      <trkpt lat="46.51303" lon="-1.76773">
        <ele>57.203466</ele>
        <time>2022-12-18T14:57:43.632Z</time>
      </trkpt>
      <trkpt lat="46.51296" lon="-1.7678">
        <ele>57.216328</ele>
        <time>2022-12-18T14:57:46.640Z</time>
      </trkpt>
      <trkpt lat="46.51286" lon="-1.76782">
        <ele>57.229949</ele>
        <time>2022-12-18T14:57:49.631Z</time>
      </trkpt>
      <trkpt lat="46.51277" lon="-1.76774">
        <ele>57.244733</ele>
        <time>2022-12-18T14:57:52.628Z</time>
      </trkpt>
      <trkpt lat="46.51271" lon="-1.76762">
        <ele>57.259356</ele>
        <time>2022-12-18T14:57:55.632Z</time>
      </trkpt>
      <trkpt lat="46.51264" lon="-1.7675">
        <ele>57.274158</ele>
        <time>2022-12-18T14:57:58.664Z</time>
      </trkpt>
      <trkpt lat="46.51257" lon="-1.76738">
        <ele>57.289278</ele>
        <time>2022-12-18T14:58:01.629Z</time>
      </trkpt>
      <trkpt lat="46.51249" lon="-1.76727">
        <ele>57.304907</ele>
        <time>2022-12-18T14:58:04.653Z</time>
      </trkpt>
      <trkpt lat="46.51241" lon="-1.76716">
        <ele>57.320284</ele>
        <time>2022-12-18T14:58:07.642Z</time>
      </trkpt>
      <trkpt lat="46.51235" lon="-1.76705">
        <ele>57.334292</ele>
        <time>2022-12-18T14:58:10.632Z</time>
      </trkpt>
      <trkpt lat="46.51228" lon="-1.76695">
        <ele>57.347815</ele>
        <time>2022-12-18T14:58:13.661Z</time>
      </trkpt>
      <trkpt lat="46.51218" lon="-1.76686">
        <ele>57.363959</ele>
        <time>2022-12-18T14:58:17.639Z</time>
      </trkpt>
      <trkpt lat="46.51207" lon="-1.76684">
        <ele>57.37932</ele>
        <time>2022-12-18T14:58:21.635Z</time>
      </trkpt>
      <trkpt lat="46.51198" lon="-1.76687">
        <ele>57.392855</ele>
        <time>2022-12-18T14:58:25.639Z</time>
      </trkpt>
      <trkpt lat="46.51187" lon="-1.76687">
        <ele>57.408772</ele>
        <time>2022-12-18T14:58:29.642Z</time>
      </trkpt>
      <trkpt lat="46.51175" lon="-1.7669">
        <ele>57.425224</ele>
        <time>2022-12-18T14:58:33.643Z</time>
      </trkpt>
      <trkpt lat="46.51167" lon="-1.76698">
        <ele>57.438805</ele>
        <time>2022-12-18T14:58:36.643Z</time>
      </trkpt>
      <trkpt lat="46.5116" lon="-1.76706">
        <ele>57.377013</ele>
        <time>2022-12-18T14:58:39.645Z</time>
      </trkpt>
      <trkpt lat="46.51152" lon="-1.76714">
        <ele>57.292644</ele>
        <time>2022-12-18T14:58:42.637Z</time>
      </trkpt>
      <trkpt lat="46.51145" lon="-1.76723">
        <ele>57.206713</ele>
        <time>2022-12-18T14:58:45.650Z</time>
      </trkpt>
      <trkpt lat="46.51138" lon="-1.76731">
        <ele>57.123485</ele>
        <time>2022-12-18T14:58:48.633Z</time>
      </trkpt>
      <trkpt lat="46.5113" lon="-1.76738">
        <ele>57.03865</ele>
        <time>2022-12-18T14:58:51.634Z</time>
      </trkpt>
      <trkpt lat="46.51122" lon="-1.76746">
        <ele>56.949877</ele>
        <time>2022-12-18T14:58:54.635Z</time>
      </trkpt>
      <trkpt lat="46.51114" lon="-1.76754">
        <ele>56.865042</ele>
        <time>2022-12-18T14:58:57.630Z</time>
      </trkpt>
      <trkpt lat="46.51106" lon="-1.76761">
        <ele>56.778996</ele>
        <time>2022-12-18T14:59:00.634Z</time>
      </trkpt>
      <trkpt lat="46.51098" lon="-1.76768">
        <ele>56.685711</ele>
        <time>2022-12-18T14:59:03.642Z</time>
      </trkpt>
      <trkpt lat="46.51088" lon="-1.76776">
        <ele>56.587151</ele>
        <time>2022-12-18T14:59:06.627Z</time>
      </trkpt>
      <trkpt lat="46.51079" lon="-1.76784">
        <ele>56.487377</ele>
        <time>2022-12-18T14:59:09.649Z</time>
      </trkpt>
      <trkpt lat="46.51069" lon="-1.76791">
        <ele>56.387201</ele>
        <time>2022-12-18T14:59:12.639Z</time>
      </trkpt>
      <trkpt lat="46.51059" lon="-1.76798">
        <ele>56.287025</ele>
        <time>2022-12-18T14:59:15.632Z</time>
      </trkpt>
      <trkpt lat="46.51049" lon="-1.76806">
        <ele>56.186613</ele>
        <time>2022-12-18T14:59:18.658Z</time>
      </trkpt>
      <trkpt lat="46.5104" lon="-1.76813">
        <ele>56.087582</ele>
        <time>2022-12-18T14:59:21.630Z</time>
      </trkpt>
      <trkpt lat="46.5103" lon="-1.7682">
        <ele>55.986884</ele>
        <time>2022-12-18T14:59:25.642Z</time>
      </trkpt>
      <trkpt lat="46.51024" lon="-1.7683">
        <ele>55.903036</ele>
        <time>2022-12-18T14:59:39.630Z</time>
      </trkpt>
      <trkpt lat="46.51012" lon="-1.76837">
        <ele>55.789096</ele>
        <time>2022-12-18T15:01:11.685Z</time>
      </trkpt>
      <trkpt lat="46.51001" lon="-1.76846">
        <ele>55.725495</ele>
        <time>2022-12-18T15:01:15.636Z</time>
      </trkpt>
      <trkpt lat="46.5099" lon="-1.76853">
        <ele>55.666665</ele>
        <time>2022-12-18T15:01:18.635Z</time>
      </trkpt>
      <trkpt lat="46.5098" lon="-1.76861">
        <ele>55.608145</ele>
        <time>2022-12-18T15:01:21.654Z</time>
      </trkpt>
      <trkpt lat="46.5097" lon="-1.76868">
        <ele>55.550099</ele>
        <time>2022-12-18T15:01:24.635Z</time>
      </trkpt>
      <trkpt lat="46.5096" lon="-1.76875">
        <ele>55.493733</ele>
        <time>2022-12-18T15:01:27.635Z</time>
      </trkpt>
      <trkpt lat="46.5095" lon="-1.76881">
        <ele>55.441746</ele>
        <time>2022-12-18T15:01:33.652Z</time>
      </trkpt>
      <trkpt lat="46.5094" lon="-1.76888">
        <ele>55.383408</ele>
        <time>2022-12-18T15:01:38.635Z</time>
      </trkpt>
      <trkpt lat="46.50932" lon="-1.76894">
        <ele>55.337051</ele>
        <time>2022-12-18T15:01:41.632Z</time>
      </trkpt>
      <trkpt lat="46.50923" lon="-1.769">
        <ele>55.287542</ele>
        <time>2022-12-18T15:01:44.653Z</time>
      </trkpt>
      <trkpt lat="46.50913" lon="-1.76907">
        <ele>55.232252</ele>
        <time>2022-12-18T15:01:47.647Z</time>
      </trkpt>
      <trkpt lat="46.50903" lon="-1.76914">
        <ele>55.17435</ele>
        <time>2022-12-18T15:01:50.646Z</time>
      </trkpt>
      <trkpt lat="46.50892" lon="-1.7692">
        <ele>55.114729</ele>
        <time>2022-12-18T15:01:53.642Z</time>
      </trkpt>
      <trkpt lat="46.50881" lon="-1.76927">
        <ele>55.053618</ele>
        <time>2022-12-18T15:01:56.646Z</time>
      </trkpt>
      <trkpt lat="46.50871" lon="-1.76935">
        <ele>54.995124</ele>
        <time>2022-12-18T15:01:59.647Z</time>
      </trkpt>
      <trkpt lat="46.50861" lon="-1.76941">
        <ele>54.938576</ele>
        <time>2022-12-18T15:02:02.648Z</time>
      </trkpt>
      <trkpt lat="46.50851" lon="-1.76948">
        <ele>54.883871</ele>
        <time>2022-12-18T15:02:05.661Z</time>
      </trkpt>
      <trkpt lat="46.50841" lon="-1.76955">
        <ele>54.821375</ele>
        <time>2022-12-18T15:02:08.642Z</time>
      </trkpt>
      <trkpt lat="46.50831" lon="-1.76962">
        <ele>54.761387</ele>
        <time>2022-12-18T15:02:11.657Z</time>
      </trkpt>
      <trkpt lat="46.50822" lon="-1.76969">
        <ele>54.701226</ele>
        <time>2022-12-18T15:02:14.644Z</time>
      </trkpt>
      <trkpt lat="46.50812" lon="-1.76976">
        <ele>54.644092</ele>
        <time>2022-12-18T15:02:17.644Z</time>
      </trkpt>
      <trkpt lat="46.50804" lon="-1.76982">
        <ele>54.589303</ele>
        <time>2022-12-18T15:02:20.656Z</time>
      </trkpt>
      <trkpt lat="46.50795" lon="-1.76989">
        <ele>54.532963</ele>
        <time>2022-12-18T15:02:23.637Z</time>
      </trkpt>
      <trkpt lat="46.50784" lon="-1.76997">
        <ele>54.466615</ele>
        <time>2022-12-18T15:02:26.639Z</time>
      </trkpt>
      <trkpt lat="46.50772" lon="-1.77004">
        <ele>54.394683</ele>
        <time>2022-12-18T15:02:29.639Z</time>
      </trkpt>
      <trkpt lat="46.5076" lon="-1.77012">
        <ele>54.321127</ele>
        <time>2022-12-18T15:02:32.665Z</time>
      </trkpt>
      <trkpt lat="46.50749" lon="-1.77021">
        <ele>54.25123</ele>
        <time>2022-12-18T15:02:35.643Z</time>
      </trkpt>
      <trkpt lat="46.50738" lon="-1.77028">
        <ele>54.183371</ele>
        <time>2022-12-18T15:02:38.645Z</time>
      </trkpt>
      <trkpt lat="46.50727" lon="-1.77036">
        <ele>54.116847</ele>
        <time>2022-12-18T15:02:41.642Z</time>
      </trkpt>
      <trkpt lat="46.50717" lon="-1.77043">
        <ele>54.051168</ele>
        <time>2022-12-18T15:02:44.635Z</time>
      </trkpt>
      <trkpt lat="46.50707" lon="-1.7705">
        <ele>53.988166</ele>
        <time>2022-12-18T15:02:47.641Z</time>
      </trkpt>
      <trkpt lat="46.50696" lon="-1.77059">
        <ele>53.920951</ele>
        <time>2022-12-18T15:02:50.662Z</time>
      </trkpt>
      <trkpt lat="46.50685" lon="-1.77068">
        <ele>53.862863</ele>
        <time>2022-12-18T15:02:53.641Z</time>
      </trkpt>
      <trkpt lat="46.50674" lon="-1.77075">
        <ele>53.823795</ele>
        <time>2022-12-18T15:02:56.650Z</time>
      </trkpt>
      <trkpt lat="46.50664" lon="-1.77082">
        <ele>53.786397</ele>
        <time>2022-12-18T15:02:59.663Z</time>
      </trkpt>
      <trkpt lat="46.50655" lon="-1.77091">
        <ele>53.751409</ele>
        <time>2022-12-18T15:03:02.648Z</time>
      </trkpt>
      <trkpt lat="46.50645" lon="-1.77099">
        <ele>53.715952</ele>
        <time>2022-12-18T15:03:05.633Z</time>
      </trkpt>
      <trkpt lat="46.50634" lon="-1.77102">
        <ele>53.678463</ele>
        <time>2022-12-18T15:03:08.650Z</time>
      </trkpt>
      <trkpt lat="46.50623" lon="-1.77109">
        <ele>53.639879</ele>
        <time>2022-12-18T15:03:11.635Z</time>
      </trkpt>
      <trkpt lat="46.50613" lon="-1.77119">
        <ele>53.599211</ele>
        <time>2022-12-18T15:03:14.643Z</time>
      </trkpt>
      <trkpt lat="46.50602" lon="-1.7713">
        <ele>53.556229</ele>
        <time>2022-12-18T15:03:17.640Z</time>
      </trkpt>
      <trkpt lat="46.50595" lon="-1.77139">
        <ele>53.526341</ele>
        <time>2022-12-18T15:03:19.635Z</time>
      </trkpt>
      <trkpt lat="46.50586" lon="-1.77152">
        <ele>53.486163</ele>
        <time>2022-12-18T15:03:22.645Z</time>
      </trkpt>
      <trkpt lat="46.50578" lon="-1.77164">
        <ele>53.447054</ele>
        <time>2022-12-18T15:03:25.636Z</time>
      </trkpt>
      <trkpt lat="46.5057" lon="-1.77177">
        <ele>53.409766</ele>
        <time>2022-12-18T15:03:28.637Z</time>
      </trkpt>
      <trkpt lat="46.50563" lon="-1.77188">
        <ele>53.374829</ele>
        <time>2022-12-18T15:03:31.663Z</time>
      </trkpt>
      <trkpt lat="46.50555" lon="-1.772">
        <ele>53.339345</ele>
        <time>2022-12-18T15:03:34.643Z</time>
      </trkpt>
      <trkpt lat="46.50547" lon="-1.77211">
        <ele>53.301417</ele>
        <time>2022-12-18T15:03:37.645Z</time>
      </trkpt>
      <trkpt lat="46.50538" lon="-1.77224">
        <ele>53.352729</ele>
        <time>2022-12-18T15:03:40.635Z</time>
      </trkpt>
      <trkpt lat="46.50529" lon="-1.77236">
        <ele>53.41557</ele>
        <time>2022-12-18T15:03:43.657Z</time>
      </trkpt>
      <trkpt lat="46.50521" lon="-1.77249">
        <ele>53.476467</ele>
        <time>2022-12-18T15:03:46.648Z</time>
      </trkpt>
      <trkpt lat="46.50513" lon="-1.77261">
        <ele>53.535593</ele>
        <time>2022-12-18T15:03:49.644Z</time>
      </trkpt>
      <trkpt lat="46.50505" lon="-1.77272">
        <ele>53.592336</ele>
        <time>2022-12-18T15:03:52.634Z</time>
      </trkpt>
      <trkpt lat="46.50498" lon="-1.77283">
        <ele>53.644642</ele>
        <time>2022-12-18T15:03:55.628Z</time>
      </trkpt>
      <trkpt lat="46.50492" lon="-1.77295">
        <ele>53.69613</ele>
        <time>2022-12-18T15:03:58.635Z</time>
      </trkpt>
      <trkpt lat="46.50485" lon="-1.77306">
        <ele>53.747238</ele>
        <time>2022-12-18T15:04:01.645Z</time>
      </trkpt>
      <trkpt lat="46.50478" lon="-1.77317">
        <ele>53.800843</ele>
        <time>2022-12-18T15:04:04.631Z</time>
      </trkpt>
      <trkpt lat="46.5047" lon="-1.77329">
        <ele>53.858759</ele>
        <time>2022-12-18T15:04:07.637Z</time>
      </trkpt>
      <trkpt lat="46.50463" lon="-1.77341">
        <ele>53.913656</ele>
        <time>2022-12-18T15:04:10.626Z</time>
      </trkpt>
      <trkpt lat="46.50456" lon="-1.77351">
        <ele>53.963061</ele>
        <time>2022-12-18T15:04:13.636Z</time>
      </trkpt>
      <trkpt lat="46.5045" lon="-1.7736">
        <ele>54.009153</ele>
        <time>2022-12-18T15:04:16.646Z</time>
      </trkpt>
      <trkpt lat="46.50441" lon="-1.7737">
        <ele>54.066063</ele>
        <time>2022-12-18T15:04:20.645Z</time>
      </trkpt>
      <trkpt lat="46.50433" lon="-1.77382">
        <ele>54.126711</ele>
        <time>2022-12-18T15:04:24.636Z</time>
      </trkpt>
      <trkpt lat="46.50426" lon="-1.77393">
        <ele>54.180414</ele>
        <time>2022-12-18T15:04:27.652Z</time>
      </trkpt>
      <trkpt lat="46.50418" lon="-1.77404">
        <ele>54.180641</ele>
        <time>2022-12-18T15:04:30.649Z</time>
      </trkpt>
      <trkpt lat="46.50409" lon="-1.77416">
        <ele>54.0821</ele>
        <time>2022-12-18T15:04:33.641Z</time>
      </trkpt>
      <trkpt lat="46.50401" lon="-1.77427">
        <ele>53.985032</ele>
        <time>2022-12-18T15:04:36.643Z</time>
      </trkpt>
      <trkpt lat="46.50393" lon="-1.77438">
        <ele>53.893451</ele>
        <time>2022-12-18T15:04:39.643Z</time>
      </trkpt>
      <trkpt lat="46.50386" lon="-1.77449">
        <ele>53.806092</ele>
        <time>2022-12-18T15:04:42.652Z</time>
      </trkpt>
      <trkpt lat="46.50378" lon="-1.77461">
        <ele>53.708962</ele>
        <time>2022-12-18T15:04:45.642Z</time>
      </trkpt>
      <trkpt lat="46.5037" lon="-1.77473">
        <ele>53.60661</ele>
        <time>2022-12-18T15:04:48.651Z</time>
      </trkpt>
      <trkpt lat="46.50361" lon="-1.77485">
        <ele>53.504113</ele>
        <time>2022-12-18T15:04:51.644Z</time>
      </trkpt>
      <trkpt lat="46.50352" lon="-1.77498">
        <ele>53.395846</ele>
        <time>2022-12-18T15:04:54.639Z</time>
      </trkpt>
      <trkpt lat="46.50342" lon="-1.77512">
        <ele>53.278635</ele>
        <time>2022-12-18T15:04:57.640Z</time>
      </trkpt>
      <trkpt lat="46.50335" lon="-1.77521">
        <ele>53.199269</ele>
        <time>2022-12-18T15:04:59.640Z</time>
      </trkpt>
      <trkpt lat="46.50326" lon="-1.77536">
        <ele>53.083751</ele>
        <time>2022-12-18T15:05:02.664Z</time>
      </trkpt>
      <trkpt lat="46.50319" lon="-1.77545">
        <ele>53.007443</ele>
        <time>2022-12-18T15:05:04.652Z</time>
      </trkpt>
      <trkpt lat="46.5031" lon="-1.77558">
        <ele>52.895325</ele>
        <time>2022-12-18T15:05:07.639Z</time>
      </trkpt>
      <trkpt lat="46.50304" lon="-1.77568">
        <ele>52.817602</ele>
        <time>2022-12-18T15:05:09.639Z</time>
      </trkpt>
      <trkpt lat="46.50294" lon="-1.77582">
        <ele>52.703847</ele>
        <time>2022-12-18T15:05:12.648Z</time>
      </trkpt>
      <trkpt lat="46.50286" lon="-1.77595">
        <ele>52.563368</ele>
        <time>2022-12-18T15:05:15.653Z</time>
      </trkpt>
      <trkpt lat="46.50278" lon="-1.77607">
        <ele>52.406062</ele>
        <time>2022-12-18T15:05:18.654Z</time>
      </trkpt>
      <trkpt lat="46.50268" lon="-1.77621">
        <ele>52.237473</ele>
        <time>2022-12-18T15:05:21.659Z</time>
      </trkpt>
      <trkpt lat="46.50262" lon="-1.77632">
        <ele>52.116422</ele>
        <time>2022-12-18T15:05:23.641Z</time>
      </trkpt>
      <trkpt lat="46.50255" lon="-1.7764">
        <ele>51.995845</ele>
        <time>2022-12-18T15:05:25.643Z</time>
      </trkpt>
      <trkpt lat="46.50246" lon="-1.77653">
        <ele>51.828456</ele>
        <time>2022-12-18T15:05:28.653Z</time>
      </trkpt>
      <trkpt lat="46.50237" lon="-1.77665">
        <ele>51.679421</ele>
        <time>2022-12-18T15:05:31.637Z</time>
      </trkpt>
      <trkpt lat="46.50228" lon="-1.77679">
        <ele>51.510597</ele>
        <time>2022-12-18T15:05:34.653Z</time>
      </trkpt>
      <trkpt lat="46.50222" lon="-1.77689">
        <ele>51.38833</ele>
        <time>2022-12-18T15:05:36.652Z</time>
      </trkpt>
      <trkpt lat="46.50215" lon="-1.77699">
        <ele>51.267063</ele>
        <time>2022-12-18T15:05:38.644Z</time>
      </trkpt>
      <trkpt lat="46.50208" lon="-1.77709">
        <ele>51.146125</ele>
        <time>2022-12-18T15:05:40.664Z</time>
      </trkpt>
      <trkpt lat="46.502" lon="-1.77723">
        <ele>50.980728</ele>
        <time>2022-12-18T15:05:43.652Z</time>
      </trkpt>
      <trkpt lat="46.5019" lon="-1.77736">
        <ele>50.814894</ele>
        <time>2022-12-18T15:05:46.665Z</time>
      </trkpt>
      <trkpt lat="46.50182" lon="-1.77748">
        <ele>50.667962</ele>
        <time>2022-12-18T15:05:49.652Z</time>
      </trkpt>
      <trkpt lat="46.50174" lon="-1.7776">
        <ele>50.524571</ele>
        <time>2022-12-18T15:05:52.652Z</time>
      </trkpt>
      <trkpt lat="46.50167" lon="-1.77772">
        <ele>50.387261</ele>
        <time>2022-12-18T15:05:55.662Z</time>
      </trkpt>
      <trkpt lat="46.50159" lon="-1.77785">
        <ele>50.329923</ele>
        <time>2022-12-18T15:05:58.638Z</time>
      </trkpt>
      <trkpt lat="46.50152" lon="-1.77797">
        <ele>50.277598</ele>
        <time>2022-12-18T15:06:02.645Z</time>
      </trkpt>
      <trkpt lat="46.50147" lon="-1.77809">
        <ele>50.230999</ele>
        <time>2022-12-18T15:06:06.660Z</time>
      </trkpt>
      <trkpt lat="46.50137" lon="-1.77818">
        <ele>50.172391</ele>
        <time>2022-12-18T15:06:10.631Z</time>
      </trkpt>
      <trkpt lat="46.50128" lon="-1.77829">
        <ele>50.115835</ele>
        <time>2022-12-18T15:06:13.630Z</time>
      </trkpt>
      <trkpt lat="46.50118" lon="-1.77841">
        <ele>50.052925</ele>
        <time>2022-12-18T15:06:16.645Z</time>
      </trkpt>
      <trkpt lat="46.50107" lon="-1.77853">
        <ele>49.986568</ele>
        <time>2022-12-18T15:06:19.642Z</time>
      </trkpt>
      <trkpt lat="46.501" lon="-1.77861">
        <ele>49.942656</ele>
        <time>2022-12-18T15:06:21.635Z</time>
      </trkpt>
      <trkpt lat="46.50093" lon="-1.77869">
        <ele>49.898155</ele>
        <time>2022-12-18T15:06:23.639Z</time>
      </trkpt>
      <trkpt lat="46.50082" lon="-1.7788">
        <ele>49.83436</ele>
        <time>2022-12-18T15:06:26.636Z</time>
      </trkpt>
      <trkpt lat="46.50072" lon="-1.77893">
        <ele>49.766783</ele>
        <time>2022-12-18T15:06:29.639Z</time>
      </trkpt>
      <trkpt lat="46.50064" lon="-1.77903">
        <ele>49.717085</ele>
        <time>2022-12-18T15:06:31.639Z</time>
      </trkpt>
      <trkpt lat="46.50056" lon="-1.77912">
        <ele>49.66894</ele>
        <time>2022-12-18T15:06:33.639Z</time>
      </trkpt>
      <trkpt lat="46.50049" lon="-1.7792">
        <ele>49.623577</ele>
        <time>2022-12-18T15:06:35.639Z</time>
      </trkpt>
      <trkpt lat="46.5004" lon="-1.77931">
        <ele>49.565963</ele>
        <time>2022-12-18T15:06:38.641Z</time>
      </trkpt>
      <trkpt lat="46.50032" lon="-1.77938">
        <ele>49.521561</ele>
        <time>2022-12-18T15:06:41.644Z</time>
      </trkpt>
      <trkpt lat="46.50022" lon="-1.77929">
        <ele>49.285787</ele>
        <time>2022-12-18T15:06:45.637Z</time>
      </trkpt>
      <trkpt lat="46.50015" lon="-1.77919">
        <ele>49.068476</ele>
        <time>2022-12-18T15:06:48.637Z</time>
      </trkpt>
      <trkpt lat="46.50008" lon="-1.77905">
        <ele>48.801939</ele>
        <time>2022-12-18T15:06:51.657Z</time>
      </trkpt>
      <trkpt lat="46.5" lon="-1.77891">
        <ele>48.521352</ele>
        <time>2022-12-18T15:06:54.651Z</time>
      </trkpt>
      <trkpt lat="46.49994" lon="-1.77881">
        <ele>48.32107</ele>
        <time>2022-12-18T15:06:56.649Z</time>
      </trkpt>
      <trkpt lat="46.49986" lon="-1.77866">
        <ele>48.028208</ele>
        <time>2022-12-18T15:06:59.644Z</time>
      </trkpt>
      <trkpt lat="46.49979" lon="-1.77852">
        <ele>47.778478</ele>
        <time>2022-12-18T15:07:02.665Z</time>
      </trkpt>
      <trkpt lat="46.49972" lon="-1.77839">
        <ele>47.523757</ele>
        <time>2022-12-18T15:07:05.647Z</time>
      </trkpt>
      <trkpt lat="46.49966" lon="-1.77823">
        <ele>47.238587</ele>
        <time>2022-12-18T15:07:08.648Z</time>
      </trkpt>
      <trkpt lat="46.49961" lon="-1.77812">
        <ele>47.035319</ele>
        <time>2022-12-18T15:07:10.632Z</time>
      </trkpt>
      <trkpt lat="46.49955" lon="-1.77801">
        <ele>46.834519</ele>
        <time>2022-12-18T15:07:12.645Z</time>
      </trkpt>
      <trkpt lat="46.49948" lon="-1.77786">
        <ele>46.544746</ele>
        <time>2022-12-18T15:07:15.630Z</time>
      </trkpt>
      <trkpt lat="46.49941" lon="-1.77773">
        <ele>46.298677</ele>
        <time>2022-12-18T15:07:18.635Z</time>
      </trkpt>
      <trkpt lat="46.49935" lon="-1.7776">
        <ele>46.072909</ele>
        <time>2022-12-18T15:07:21.631Z</time>
      </trkpt>
      <trkpt lat="46.49927" lon="-1.7775">
        <ele>45.827079</ele>
        <time>2022-12-18T15:07:25.643Z</time>
      </trkpt>
      <trkpt lat="46.49916" lon="-1.77743">
        <ele>45.571367</ele>
        <time>2022-12-18T15:07:29.647Z</time>
      </trkpt>
      <trkpt lat="46.49905" lon="-1.77738">
        <ele>45.735745</ele>
        <time>2022-12-18T15:07:33.631Z</time>
      </trkpt>
      <trkpt lat="46.49893" lon="-1.77733">
        <ele>45.967654</ele>
        <time>2022-12-18T15:07:36.649Z</time>
      </trkpt>
      <trkpt lat="46.49882" lon="-1.77729">
        <ele>46.178589</ele>
        <time>2022-12-18T15:07:39.634Z</time>
      </trkpt>
      <trkpt lat="46.49872" lon="-1.77726">
        <ele>46.365309</ele>
        <time>2022-12-18T15:07:42.637Z</time>
      </trkpt>
      <trkpt lat="46.49863" lon="-1.77723">
        <ele>46.541081</ele>
        <time>2022-12-18T15:07:45.658Z</time>
      </trkpt>
      <trkpt lat="46.49853" lon="-1.77723">
        <ele>46.733843</ele>
        <time>2022-12-18T15:07:49.652Z</time>
      </trkpt>
      <trkpt lat="46.49845" lon="-1.77729">
        <ele>46.909029</ele>
        <time>2022-12-18T15:07:54.664Z</time>
      </trkpt>
      <trkpt lat="46.49836" lon="-1.77736">
        <ele>47.103002</ele>
        <time>2022-12-18T15:07:59.656Z</time>
      </trkpt>
      <trkpt lat="46.49826" lon="-1.77736">
        <ele>47.278859</ele>
        <time>2022-12-18T15:08:12.636Z</time>
      </trkpt>
      <trkpt lat="46.49816" lon="-1.77726">
        <ele>47.513817</ele>
        <time>2022-12-18T15:08:16.633Z</time>
      </trkpt>
      <trkpt lat="46.49806" lon="-1.77719">
        <ele>47.71738</ele>
        <time>2022-12-18T15:08:19.637Z</time>
      </trkpt>
      <trkpt lat="46.49796" lon="-1.77717">
        <ele>47.915451</ele>
        <time>2022-12-18T15:08:22.634Z</time>
      </trkpt>
      <trkpt lat="46.49785" lon="-1.7772">
        <ele>48.121907</ele>
        <time>2022-12-18T15:08:25.634Z</time>
      </trkpt>
      <trkpt lat="46.49776" lon="-1.77722">
        <ele>48.305169</ele>
        <time>2022-12-18T15:08:28.632Z</time>
      </trkpt>
      <trkpt lat="46.49765" lon="-1.77724">
        <ele>48.503581</ele>
        <time>2022-12-18T15:08:31.646Z</time>
      </trkpt>
      <trkpt lat="46.49755" lon="-1.77726">
        <ele>48.698251</ele>
        <time>2022-12-18T15:08:34.659Z</time>
      </trkpt>
      <trkpt lat="46.49745" lon="-1.77728">
        <ele>48.886341</ele>
        <time>2022-12-18T15:08:37.649Z</time>
      </trkpt>
      <trkpt lat="46.49733" lon="-1.7773">
        <ele>49.153022</ele>
        <time>2022-12-18T15:08:41.645Z</time>
      </trkpt>
      <trkpt lat="46.49722" lon="-1.77732">
        <ele>49.417606</ele>
        <time>2022-12-18T15:08:45.639Z</time>
      </trkpt>
      <trkpt lat="46.49712" lon="-1.77734">
        <ele>49.659962</ele>
        <time>2022-12-18T15:08:49.637Z</time>
      </trkpt>
      <trkpt lat="46.49702" lon="-1.77737">
        <ele>49.88676</ele>
        <time>2022-12-18T15:08:53.647Z</time>
      </trkpt>
      <trkpt lat="46.49692" lon="-1.77739">
        <ele>50.121408</ele>
        <time>2022-12-18T15:08:57.646Z</time>
      </trkpt>
      <trkpt lat="46.49683" lon="-1.77741">
        <ele>50.350729</ele>
        <time>2022-12-18T15:09:01.641Z</time>
      </trkpt>
      <trkpt lat="46.49673" lon="-1.77744">
        <ele>50.592822</ele>
        <time>2022-12-18T15:09:06.649Z</time>
      </trkpt>
      <trkpt lat="46.49662" lon="-1.77746">
        <ele>50.844687</ele>
        <time>2022-12-18T15:09:11.653Z</time>
      </trkpt>
      <trkpt lat="46.49653" lon="-1.77749">
        <ele>51.063405</ele>
        <time>2022-12-18T15:09:15.658Z</time>
      </trkpt>
      <trkpt lat="46.49644" lon="-1.7775">
        <ele>51.276044</ele>
        <time>2022-12-18T15:09:19.655Z</time>
      </trkpt>
      <trkpt lat="46.49634" lon="-1.77752">
        <ele>51.516979</ele>
        <time>2022-12-18T15:09:24.641Z</time>
      </trkpt>
      <trkpt lat="46.49623" lon="-1.77754">
        <ele>51.758819</ele>
        <time>2022-12-18T15:09:29.645Z</time>
      </trkpt>
      <trkpt lat="46.49613" lon="-1.77757">
        <ele>52.000351</ele>
        <time>2022-12-18T15:09:36.643Z</time>
      </trkpt>
      <trkpt lat="46.49604" lon="-1.77758">
        <ele>52.22574</ele>
        <time>2022-12-18T15:09:42.642Z</time>
      </trkpt>
      <trkpt lat="46.49593" lon="-1.77755">
        <ele>52.47646</ele>
        <time>2022-12-18T15:09:49.640Z</time>
      </trkpt>
      <trkpt lat="46.49586" lon="-1.77746">
        <ele>52.69481</ele>
        <time>2022-12-18T15:09:53.630Z</time>
      </trkpt>
      <trkpt lat="46.49578" lon="-1.77734">
        <ele>52.973684</ele>
        <time>2022-12-18T15:09:57.633Z</time>
      </trkpt>
      <trkpt lat="46.4957" lon="-1.77726">
        <ele>53.137609</ele>
        <time>2022-12-18T15:10:00.631Z</time>
      </trkpt>
      <trkpt lat="46.49561" lon="-1.77714">
        <ele>53.059196</ele>
        <time>2022-12-18T15:10:04.637Z</time>
      </trkpt>
      <trkpt lat="46.49554" lon="-1.77704">
        <ele>52.991726</ele>
        <time>2022-12-18T15:10:07.656Z</time>
      </trkpt>
      <trkpt lat="46.49547" lon="-1.77693">
        <ele>52.920099</ele>
        <time>2022-12-18T15:10:10.639Z</time>
      </trkpt>
      <trkpt lat="46.49539" lon="-1.77681">
        <ele>52.843983</ele>
        <time>2022-12-18T15:10:13.635Z</time>
      </trkpt>
      <trkpt lat="46.4953" lon="-1.7767">
        <ele>52.768978</ele>
        <time>2022-12-18T15:10:16.638Z</time>
      </trkpt>
      <trkpt lat="46.49522" lon="-1.77659">
        <ele>52.694462</ele>
        <time>2022-12-18T15:10:19.663Z</time>
      </trkpt>
      <trkpt lat="46.49513" lon="-1.77647">
        <ele>52.614255</ele>
        <time>2022-12-18T15:10:22.642Z</time>
      </trkpt>
      <trkpt lat="46.49503" lon="-1.77636">
        <ele>52.531612</ele>
        <time>2022-12-18T15:10:25.656Z</time>
      </trkpt>
      <trkpt lat="46.49495" lon="-1.77624">
        <ele>52.451061</ele>
        <time>2022-12-18T15:10:28.646Z</time>
      </trkpt>
      <trkpt lat="46.49488" lon="-1.77614">
        <ele>52.39026</ele>
        <time>2022-12-18T15:10:30.666Z</time>
      </trkpt>
      <trkpt lat="46.49479" lon="-1.77601">
        <ele>52.304697</ele>
        <time>2022-12-18T15:10:33.638Z</time>
      </trkpt>
      <trkpt lat="46.49471" lon="-1.77589">
        <ele>52.228946</ele>
        <time>2022-12-18T15:10:36.644Z</time>
      </trkpt>
      <trkpt lat="46.49462" lon="-1.77578">
        <ele>52.151229</ele>
        <time>2022-12-18T15:10:39.656Z</time>
      </trkpt>
      <trkpt lat="46.49454" lon="-1.77566">
        <ele>52.072589</ele>
        <time>2022-12-18T15:10:42.641Z</time>
      </trkpt>
      <trkpt lat="46.49445" lon="-1.77555">
        <ele>51.994258</ele>
        <time>2022-12-18T15:10:45.637Z</time>
      </trkpt>
      <trkpt lat="46.49437" lon="-1.77545">
        <ele>51.893457</ele>
        <time>2022-12-18T15:10:48.648Z</time>
      </trkpt>
      <trkpt lat="46.49429" lon="-1.77536">
        <ele>51.772538</ele>
        <time>2022-12-18T15:10:51.639Z</time>
      </trkpt>
      <trkpt lat="46.49421" lon="-1.77526">
        <ele>51.636955</ele>
        <time>2022-12-18T15:10:54.655Z</time>
      </trkpt>
      <trkpt lat="46.49413" lon="-1.77514">
        <ele>51.488236</ele>
        <time>2022-12-18T15:10:57.660Z</time>
      </trkpt>
      <trkpt lat="46.49404" lon="-1.77503">
        <ele>51.343914</ele>
        <time>2022-12-18T15:11:00.654Z</time>
      </trkpt>
      <trkpt lat="46.49397" lon="-1.77492">
        <ele>51.211708</ele>
        <time>2022-12-18T15:11:03.658Z</time>
      </trkpt>
      <trkpt lat="46.49388" lon="-1.77482">
        <ele>51.069158</ele>
        <time>2022-12-18T15:11:06.643Z</time>
      </trkpt>
      <trkpt lat="46.49378" lon="-1.77476">
        <ele>50.928967</ele>
        <time>2022-12-18T15:11:09.649Z</time>
      </trkpt>
      <trkpt lat="46.49367" lon="-1.7747">
        <ele>50.777101</ele>
        <time>2022-12-18T15:11:12.661Z</time>
      </trkpt>
      <trkpt lat="46.49356" lon="-1.77464">
        <ele>50.631307</ele>
        <time>2022-12-18T15:11:15.640Z</time>
      </trkpt>
      <trkpt lat="46.49347" lon="-1.77459">
        <ele>50.512887</ele>
        <time>2022-12-18T15:11:18.646Z</time>
      </trkpt>
      <trkpt lat="46.49337" lon="-1.77451">
        <ele>50.367716</ele>
        <time>2022-12-18T15:11:22.658Z</time>
      </trkpt>
      <trkpt lat="46.49329" lon="-1.77445">
        <ele>50.250964</ele>
        <time>2022-12-18T15:11:25.649Z</time>
      </trkpt>
      <trkpt lat="46.49318" lon="-1.77438">
        <ele>50.102732</ele>
        <time>2022-12-18T15:11:28.636Z</time>
      </trkpt>
      <trkpt lat="46.49307" lon="-1.77431">
        <ele>49.949694</ele>
        <time>2022-12-18T15:11:31.645Z</time>
      </trkpt>
      <trkpt lat="46.49295" lon="-1.77424">
        <ele>49.788632</ele>
        <time>2022-12-18T15:11:34.637Z</time>
      </trkpt>
      <trkpt lat="46.49284" lon="-1.77417">
        <ele>49.658527</ele>
        <time>2022-12-18T15:11:37.663Z</time>
      </trkpt>
      <trkpt lat="46.49275" lon="-1.77411">
        <ele>49.596579</ele>
        <time>2022-12-18T15:11:40.654Z</time>
      </trkpt>
      <trkpt lat="46.49266" lon="-1.77405">
        <ele>49.542024</ele>
        <time>2022-12-18T15:11:43.647Z</time>
      </trkpt>
      <trkpt lat="46.49257" lon="-1.77399">
        <ele>49.483565</ele>
        <time>2022-12-18T15:11:46.660Z</time>
      </trkpt>
      <trkpt lat="46.49248" lon="-1.77392">
        <ele>49.426274</ele>
        <time>2022-12-18T15:11:49.636Z</time>
      </trkpt>
      <trkpt lat="46.49238" lon="-1.77385">
        <ele>49.361205</ele>
        <time>2022-12-18T15:11:53.637Z</time>
      </trkpt>
      <trkpt lat="46.49227" lon="-1.77378">
        <ele>49.289352</ele>
        <time>2022-12-18T15:11:56.662Z</time>
      </trkpt>
      <trkpt lat="46.49215" lon="-1.77371">
        <ele>49.217579</ele>
        <time>2022-12-18T15:11:59.647Z</time>
      </trkpt>
      <trkpt lat="46.49204" lon="-1.77365">
        <ele>49.150322</ele>
        <time>2022-12-18T15:12:02.640Z</time>
      </trkpt>
      <trkpt lat="46.49195" lon="-1.7736">
        <ele>49.088997</ele>
        <time>2022-12-18T15:12:05.657Z</time>
      </trkpt>
      <trkpt lat="46.49186" lon="-1.77354">
        <ele>49.034133</ele>
        <time>2022-12-18T15:12:08.641Z</time>
      </trkpt>
      <trkpt lat="46.49177" lon="-1.77348">
        <ele>48.979502</ele>
        <time>2022-12-18T15:12:11.639Z</time>
      </trkpt>
      <trkpt lat="46.49167" lon="-1.77339">
        <ele>48.909504</ele>
        <time>2022-12-18T15:12:15.642Z</time>
      </trkpt>
      <trkpt lat="46.49159" lon="-1.77333">
        <ele>48.855396</ele>
        <time>2022-12-18T15:12:18.659Z</time>
      </trkpt>
      <trkpt lat="46.49148" lon="-1.77326">
        <ele>48.785264</ele>
        <time>2022-12-18T15:12:21.661Z</time>
      </trkpt>
      <trkpt lat="46.49136" lon="-1.77318">
        <ele>48.708696</ele>
        <time>2022-12-18T15:12:24.658Z</time>
      </trkpt>
      <trkpt lat="46.49126" lon="-1.77313">
        <ele>48.650315</ele>
        <time>2022-12-18T15:12:26.643Z</time>
      </trkpt>
      <trkpt lat="46.49117" lon="-1.77308">
        <ele>48.791282</ele>
        <time>2022-12-18T15:12:28.641Z</time>
      </trkpt>
      <trkpt lat="46.49109" lon="-1.77302">
        <ele>49.016956</ele>
        <time>2022-12-18T15:12:30.656Z</time>
      </trkpt>
      <trkpt lat="46.49098" lon="-1.77295">
        <ele>49.310235</ele>
        <time>2022-12-18T15:12:33.650Z</time>
      </trkpt>
      <trkpt lat="46.49088" lon="-1.77289">
        <ele>49.560486</ele>
        <time>2022-12-18T15:12:36.637Z</time>
      </trkpt>
      <trkpt lat="46.49079" lon="-1.77284">
        <ele>49.783922</ele>
        <time>2022-12-18T15:12:39.652Z</time>
      </trkpt>
      <trkpt lat="46.4907" lon="-1.77278">
        <ele>50.013975</ele>
        <time>2022-12-18T15:12:42.643Z</time>
      </trkpt>
      <trkpt lat="46.49061" lon="-1.77276">
        <ele>50.254311</ele>
        <time>2022-12-18T15:12:45.635Z</time>
      </trkpt>
      <trkpt lat="46.49051" lon="-1.7727">
        <ele>50.498223</ele>
        <time>2022-12-18T15:12:48.638Z</time>
      </trkpt>
      <trkpt lat="46.49043" lon="-1.77262">
        <ele>50.73277</ele>
        <time>2022-12-18T15:12:51.660Z</time>
      </trkpt>
      <trkpt lat="46.49037" lon="-1.77252">
        <ele>50.959565</ele>
        <time>2022-12-18T15:12:54.666Z</time>
      </trkpt>
      <trkpt lat="46.49032" lon="-1.77241">
        <ele>51.175534</ele>
        <time>2022-12-18T15:12:57.645Z</time>
      </trkpt>
      <trkpt lat="46.49026" lon="-1.77229">
        <ele>51.410453</ele>
        <time>2022-12-18T15:13:00.648Z</time>
      </trkpt>
      <trkpt lat="46.49021" lon="-1.77217">
        <ele>51.645602</ele>
        <time>2022-12-18T15:13:03.636Z</time>
      </trkpt>
      <trkpt lat="46.49016" lon="-1.77205">
        <ele>51.882735</ele>
        <time>2022-12-18T15:13:06.646Z</time>
      </trkpt>
      <trkpt lat="46.49011" lon="-1.77193">
        <ele>52.118033</ele>
        <time>2022-12-18T15:13:09.641Z</time>
      </trkpt>
      <trkpt lat="46.49005" lon="-1.77181">
        <ele>52.352979</ele>
        <time>2022-12-18T15:13:12.646Z</time>
      </trkpt>
      <trkpt lat="46.49" lon="-1.77169">
        <ele>52.59201</ele>
        <time>2022-12-18T15:13:15.639Z</time>
      </trkpt>
      <trkpt lat="46.48994" lon="-1.77156">
        <ele>52.839183</ele>
        <time>2022-12-18T15:13:18.645Z</time>
      </trkpt>
      <trkpt lat="46.48988" lon="-1.77145">
        <ele>52.955547</ele>
        <time>2022-12-18T15:13:21.651Z</time>
      </trkpt>
      <trkpt lat="46.48983" lon="-1.77132">
        <ele>52.983344</ele>
        <time>2022-12-18T15:13:24.636Z</time>
      </trkpt>
      <trkpt lat="46.48978" lon="-1.77121">
        <ele>53.009444</ele>
        <time>2022-12-18T15:13:27.648Z</time>
      </trkpt>
      <trkpt lat="46.48972" lon="-1.77109">
        <ele>53.035664</ele>
        <time>2022-12-18T15:13:30.645Z</time>
      </trkpt>
      <trkpt lat="46.48967" lon="-1.77097">
        <ele>53.062853</ele>
        <time>2022-12-18T15:13:33.650Z</time>
      </trkpt>
      <trkpt lat="46.48962" lon="-1.77085">
        <ele>53.089867</ele>
        <time>2022-12-18T15:13:36.643Z</time>
      </trkpt>
      <trkpt lat="46.48955" lon="-1.77071">
        <ele>53.121833</ele>
        <time>2022-12-18T15:13:40.648Z</time>
      </trkpt>
      <trkpt lat="46.4895" lon="-1.7706">
        <ele>53.147294</ele>
        <time>2022-12-18T15:13:43.660Z</time>
      </trkpt>
      <trkpt lat="46.48945" lon="-1.77048">
        <ele>53.173073</ele>
        <time>2022-12-18T15:13:46.660Z</time>
      </trkpt>
      <trkpt lat="46.4894" lon="-1.77036">
        <ele>53.199297</ele>
        <time>2022-12-18T15:13:49.655Z</time>
      </trkpt>
      <trkpt lat="46.48934" lon="-1.77024">
        <ele>53.227559</ele>
        <time>2022-12-18T15:13:53.638Z</time>
      </trkpt>
      <trkpt lat="46.48929" lon="-1.77012">
        <ele>53.255022</ele>
        <time>2022-12-18T15:13:57.642Z</time>
      </trkpt>
      <trkpt lat="46.48923" lon="-1.77">
        <ele>53.282333</ele>
        <time>2022-12-18T15:14:01.663Z</time>
      </trkpt>
      <trkpt lat="46.48913" lon="-1.7698">
        <ele>53.32795</ele>
        <time>2022-12-18T15:16:49.630Z</time>
      </trkpt>
      <trkpt lat="46.48907" lon="-1.76968">
        <ele>53.356098</ele>
        <time>2022-12-18T15:16:53.656Z</time>
      </trkpt>
      <trkpt lat="46.48901" lon="-1.76959">
        <ele>53.380892</ele>
        <time>2022-12-18T15:16:56.652Z</time>
      </trkpt>
      <trkpt lat="46.48894" lon="-1.76949">
        <ele>53.406775</ele>
        <time>2022-12-18T15:16:59.649Z</time>
      </trkpt>
      <trkpt lat="46.48886" lon="-1.76941">
        <ele>53.43548</ele>
        <time>2022-12-18T15:17:02.648Z</time>
      </trkpt>
      <trkpt lat="46.48878" lon="-1.76933">
        <ele>53.530392</ele>
        <time>2022-12-18T15:17:05.649Z</time>
      </trkpt>
      <trkpt lat="46.4887" lon="-1.76926">
        <ele>53.620059</ele>
        <time>2022-12-18T15:17:08.634Z</time>
      </trkpt>
      <trkpt lat="46.48861" lon="-1.76917">
        <ele>53.726185</ele>
        <time>2022-12-18T15:17:12.653Z</time>
      </trkpt>
      <trkpt lat="46.48851" lon="-1.76907">
        <ele>53.834944</ele>
        <time>2022-12-18T15:17:17.662Z</time>
      </trkpt>
      <trkpt lat="46.48843" lon="-1.76898">
        <ele>53.941407</ele>
        <time>2022-12-18T15:17:21.651Z</time>
      </trkpt>
      <trkpt lat="46.48833" lon="-1.76889">
        <ele>54.051678</ele>
        <time>2022-12-18T15:17:25.654Z</time>
      </trkpt>
      <trkpt lat="46.48824" lon="-1.7688">
        <ele>54.153943</ele>
        <time>2022-12-18T15:17:29.651Z</time>
      </trkpt>
      <trkpt lat="46.48815" lon="-1.7687">
        <ele>54.261216</ele>
        <time>2022-12-18T15:17:33.646Z</time>
      </trkpt>
      <trkpt lat="46.48805" lon="-1.76861">
        <ele>54.374979</ele>
        <time>2022-12-18T15:17:37.650Z</time>
      </trkpt>
      <trkpt lat="46.48797" lon="-1.76855">
        <ele>54.46232</ele>
        <time>2022-12-18T15:17:40.657Z</time>
      </trkpt>
      <trkpt lat="46.48787" lon="-1.76844">
        <ele>54.578072</ele>
        <time>2022-12-18T15:17:44.655Z</time>
      </trkpt>
      <trkpt lat="46.4878" lon="-1.76836">
        <ele>54.668968</ele>
        <time>2022-12-18T15:17:47.654Z</time>
      </trkpt>
      <trkpt lat="46.48772" lon="-1.76828">
        <ele>54.764141</ele>
        <time>2022-12-18T15:17:50.639Z</time>
      </trkpt>
      <trkpt lat="46.48763" lon="-1.7682">
        <ele>54.866956</ele>
        <time>2022-12-18T15:17:53.631Z</time>
      </trkpt>
      <trkpt lat="46.48753" lon="-1.76813">
        <ele>54.96729</ele>
        <time>2022-12-18T15:17:56.654Z</time>
      </trkpt>
      <trkpt lat="46.48745" lon="-1.76804">
        <ele>55.065698</ele>
        <time>2022-12-18T15:17:59.660Z</time>
      </trkpt>
      <trkpt lat="46.48736" lon="-1.76796">
        <ele>55.138501</ele>
        <time>2022-12-18T15:18:02.656Z</time>
      </trkpt>
      <trkpt lat="46.48728" lon="-1.76788">
        <ele>54.946792</ele>
        <time>2022-12-18T15:18:05.634Z</time>
      </trkpt>
      <trkpt lat="46.48718" lon="-1.76779">
        <ele>54.691444</ele>
        <time>2022-12-18T15:18:09.648Z</time>
      </trkpt>
      <trkpt lat="46.48709" lon="-1.76771">
        <ele>54.466976</ele>
        <time>2022-12-18T15:18:12.652Z</time>
      </trkpt>
      <trkpt lat="46.48699" lon="-1.76762">
        <ele>54.230883</ele>
        <time>2022-12-18T15:18:15.649Z</time>
      </trkpt>
      <trkpt lat="46.48689" lon="-1.76753">
        <ele>53.995254</ele>
        <time>2022-12-18T15:18:18.655Z</time>
      </trkpt>
      <trkpt lat="46.4868" lon="-1.76745">
        <ele>53.756357</ele>
        <time>2022-12-18T15:18:21.661Z</time>
      </trkpt>
      <trkpt lat="46.48671" lon="-1.76736">
        <ele>53.536645</ele>
        <time>2022-12-18T15:18:24.660Z</time>
      </trkpt>
      <trkpt lat="46.48662" lon="-1.76728">
        <ele>53.31281</ele>
        <time>2022-12-18T15:18:27.658Z</time>
      </trkpt>
      <trkpt lat="46.48653" lon="-1.76719">
        <ele>53.08724</ele>
        <time>2022-12-18T15:18:30.653Z</time>
      </trkpt>
      <trkpt lat="46.48644" lon="-1.7671">
        <ele>52.855903</ele>
        <time>2022-12-18T15:18:33.654Z</time>
      </trkpt>
      <trkpt lat="46.48635" lon="-1.76701">
        <ele>52.628403</ele>
        <time>2022-12-18T15:18:36.653Z</time>
      </trkpt>
      <trkpt lat="46.48626" lon="-1.76693">
        <ele>52.402833</ele>
        <time>2022-12-18T15:18:39.656Z</time>
      </trkpt>
      <trkpt lat="46.48616" lon="-1.76684">
        <ele>52.176861</ele>
        <time>2022-12-18T15:18:42.636Z</time>
      </trkpt>
      <trkpt lat="46.48607" lon="-1.76675">
        <ele>51.94299</ele>
        <time>2022-12-18T15:18:45.653Z</time>
      </trkpt>
      <trkpt lat="46.48598" lon="-1.76666">
        <ele>51.717537</ele>
        <time>2022-12-18T15:18:48.650Z</time>
      </trkpt>
      <trkpt lat="46.4859" lon="-1.76657">
        <ele>51.495531</ele>
        <time>2022-12-18T15:18:51.646Z</time>
      </trkpt>
      <trkpt lat="46.48581" lon="-1.76648">
        <ele>51.320386</ele>
        <time>2022-12-18T15:18:54.649Z</time>
      </trkpt>
      <trkpt lat="46.48573" lon="-1.7664">
        <ele>51.174511</ele>
        <time>2022-12-18T15:18:57.644Z</time>
      </trkpt>
      <trkpt lat="46.48564" lon="-1.76631">
        <ele>51.028016</ele>
        <time>2022-12-18T15:19:00.652Z</time>
      </trkpt>
      <trkpt lat="46.48555" lon="-1.76622">
        <ele>50.869034</ele>
        <time>2022-12-18T15:19:03.638Z</time>
      </trkpt>
      <trkpt lat="46.48546" lon="-1.76613">
        <ele>50.718468</ele>
        <time>2022-12-18T15:19:06.655Z</time>
      </trkpt>
      <trkpt lat="46.48538" lon="-1.76605">
        <ele>50.580007</ele>
        <time>2022-12-18T15:19:09.657Z</time>
      </trkpt>
      <trkpt lat="46.4853" lon="-1.76598">
        <ele>50.445938</ele>
        <time>2022-12-18T15:19:12.656Z</time>
      </trkpt>
      <trkpt lat="46.48522" lon="-1.7659">
        <ele>50.309247</ele>
        <time>2022-12-18T15:19:15.648Z</time>
      </trkpt>
      <trkpt lat="46.48514" lon="-1.76582">
        <ele>50.166076</ele>
        <time>2022-12-18T15:19:18.660Z</time>
      </trkpt>
      <trkpt lat="46.48505" lon="-1.76574">
        <ele>50.023562</ele>
        <time>2022-12-18T15:19:21.652Z</time>
      </trkpt>
      <trkpt lat="46.48497" lon="-1.76566">
        <ele>49.880917</ele>
        <time>2022-12-18T15:19:24.630Z</time>
      </trkpt>
      <trkpt lat="46.48488" lon="-1.76559">
        <ele>49.735192</ele>
        <time>2022-12-18T15:19:27.646Z</time>
      </trkpt>
      <trkpt lat="46.48479" lon="-1.76551">
        <ele>49.589953</ele>
        <time>2022-12-18T15:19:30.654Z</time>
      </trkpt>
      <trkpt lat="46.4847" lon="-1.76543">
        <ele>49.443456</ele>
        <time>2022-12-18T15:19:33.650Z</time>
      </trkpt>
      <trkpt lat="46.48462" lon="-1.76534">
        <ele>49.294752</ele>
        <time>2022-12-18T15:19:36.656Z</time>
      </trkpt>
      <trkpt lat="46.48453" lon="-1.76526">
        <ele>49.146803</ele>
        <time>2022-12-18T15:19:39.657Z</time>
      </trkpt>
      <trkpt lat="46.48444" lon="-1.76518">
        <ele>49.007171</ele>
        <time>2022-12-18T15:19:42.646Z</time>
      </trkpt>
      <trkpt lat="46.48437" lon="-1.7651">
        <ele>48.869347</ele>
        <time>2022-12-18T15:19:45.647Z</time>
      </trkpt>
      <trkpt lat="46.48429" lon="-1.76502">
        <ele>48.813624</ele>
        <time>2022-12-18T15:19:48.654Z</time>
      </trkpt>
      <trkpt lat="46.4842" lon="-1.76492">
        <ele>48.747526</ele>
        <time>2022-12-18T15:19:52.643Z</time>
      </trkpt>
      <trkpt lat="46.48413" lon="-1.76483">
        <ele>48.694021</ele>
        <time>2022-12-18T15:19:55.649Z</time>
      </trkpt>
      <trkpt lat="46.48406" lon="-1.76474">
        <ele>48.638317</ele>
        <time>2022-12-18T15:19:58.657Z</time>
      </trkpt>
      <trkpt lat="46.48398" lon="-1.76465">
        <ele>48.581025</ele>
        <time>2022-12-18T15:20:01.658Z</time>
      </trkpt>
      <trkpt lat="46.4839" lon="-1.76456">
        <ele>48.524877</ele>
        <time>2022-12-18T15:20:04.651Z</time>
      </trkpt>
      <trkpt lat="46.48383" lon="-1.76447">
        <ele>48.468533</ele>
        <time>2022-12-18T15:20:07.650Z</time>
      </trkpt>
      <trkpt lat="46.48375" lon="-1.76438">
        <ele>48.412131</ele>
        <time>2022-12-18T15:20:10.653Z</time>
      </trkpt>
      <trkpt lat="46.48367" lon="-1.7643">
        <ele>48.355372</ele>
        <time>2022-12-18T15:20:13.654Z</time>
      </trkpt>
      <trkpt lat="46.4836" lon="-1.76421">
        <ele>48.299976</ele>
        <time>2022-12-18T15:20:16.658Z</time>
      </trkpt>
      <trkpt lat="46.48352" lon="-1.76411">
        <ele>48.242542</ele>
        <time>2022-12-18T15:20:19.657Z</time>
      </trkpt>
      <trkpt lat="46.48344" lon="-1.76403">
        <ele>48.185331</ele>
        <time>2022-12-18T15:20:22.638Z</time>
      </trkpt>
      <trkpt lat="46.48337" lon="-1.76394">
        <ele>48.12759</ele>
        <time>2022-12-18T15:20:25.656Z</time>
      </trkpt>
      <trkpt lat="46.48329" lon="-1.76385">
        <ele>48.069188</ele>
        <time>2022-12-18T15:20:28.631Z</time>
      </trkpt>
      <trkpt lat="46.48321" lon="-1.76375">
        <ele>48.010182</ele>
        <time>2022-12-18T15:20:31.654Z</time>
      </trkpt>
      <trkpt lat="46.48313" lon="-1.76366">
        <ele>47.951291</ele>
        <time>2022-12-18T15:20:34.648Z</time>
      </trkpt>
      <trkpt lat="46.48305" lon="-1.76357">
        <ele>47.892399</ele>
        <time>2022-12-18T15:20:37.634Z</time>
      </trkpt>
      <trkpt lat="46.48297" lon="-1.76348">
        <ele>47.833507</ele>
        <time>2022-12-18T15:20:40.646Z</time>
      </trkpt>
      <trkpt lat="46.48288" lon="-1.76339">
        <ele>47.81062</ele>
        <time>2022-12-18T15:20:43.643Z</time>
      </trkpt>
      <trkpt lat="46.4828" lon="-1.76329">
        <ele>47.792777</ele>
        <time>2022-12-18T15:20:46.643Z</time>
      </trkpt>
      <trkpt lat="46.48271" lon="-1.7632">
        <ele>47.774533</ele>
        <time>2022-12-18T15:20:49.655Z</time>
      </trkpt>
      <trkpt lat="46.48263" lon="-1.7631">
        <ele>47.756267</ele>
        <time>2022-12-18T15:20:52.648Z</time>
      </trkpt>
      <trkpt lat="46.48255" lon="-1.763">
        <ele>47.738014</ele>
        <time>2022-12-18T15:20:55.658Z</time>
      </trkpt>
      <trkpt lat="46.48246" lon="-1.76291">
        <ele>47.719894</ele>
        <time>2022-12-18T15:20:58.649Z</time>
      </trkpt>
      <trkpt lat="46.48238" lon="-1.76281">
        <ele>47.701437</ele>
        <time>2022-12-18T15:21:01.634Z</time>
      </trkpt>
      <trkpt lat="46.48229" lon="-1.76271">
        <ele>47.683398</ele>
        <time>2022-12-18T15:21:04.659Z</time>
      </trkpt>
      <trkpt lat="46.48222" lon="-1.76263">
        <ele>47.667689</ele>
        <time>2022-12-18T15:21:07.650Z</time>
      </trkpt>
      <trkpt lat="46.48214" lon="-1.76254">
        <ele>47.651349</ele>
        <time>2022-12-18T15:21:10.658Z</time>
      </trkpt>
      <trkpt lat="46.48207" lon="-1.76245">
        <ele>47.634792</ele>
        <time>2022-12-18T15:21:13.663Z</time>
      </trkpt>
      <trkpt lat="46.48199" lon="-1.76236">
        <ele>47.617562</ele>
        <time>2022-12-18T15:21:16.654Z</time>
      </trkpt>
      <trkpt lat="46.48191" lon="-1.76226">
        <ele>47.600318</ele>
        <time>2022-12-18T15:21:19.654Z</time>
      </trkpt>
      <trkpt lat="46.48183" lon="-1.76217">
        <ele>47.582329</ele>
        <time>2022-12-18T15:21:22.647Z</time>
      </trkpt>
      <trkpt lat="46.48174" lon="-1.76206">
        <ele>47.563507</ele>
        <time>2022-12-18T15:21:25.656Z</time>
      </trkpt>
      <trkpt lat="46.48165" lon="-1.76196">
        <ele>47.544833</ele>
        <time>2022-12-18T15:21:28.649Z</time>
      </trkpt>
      <trkpt lat="46.48158" lon="-1.76186">
        <ele>47.527365</ele>
        <time>2022-12-18T15:21:31.658Z</time>
      </trkpt>
      <trkpt lat="46.4815" lon="-1.76177">
        <ele>47.711547</ele>
        <time>2022-12-18T15:21:34.648Z</time>
      </trkpt>
      <trkpt lat="46.48143" lon="-1.76168">
        <ele>47.952582</ele>
        <time>2022-12-18T15:21:37.655Z</time>
      </trkpt>
      <trkpt lat="46.48134" lon="-1.76159">
        <ele>48.234281</ele>
        <time>2022-12-18T15:21:41.657Z</time>
      </trkpt>
      <trkpt lat="46.48126" lon="-1.76148">
        <ele>48.529745</ele>
        <time>2022-12-18T15:21:45.641Z</time>
      </trkpt>
      <trkpt lat="46.48118" lon="-1.7614">
        <ele>48.772288</ele>
        <time>2022-12-18T15:21:48.632Z</time>
      </trkpt>
      <trkpt lat="46.48111" lon="-1.76131">
        <ele>49.024801</ele>
        <time>2022-12-18T15:21:51.654Z</time>
      </trkpt>
      <trkpt lat="46.48103" lon="-1.76122">
        <ele>49.274798</ele>
        <time>2022-12-18T15:21:54.649Z</time>
      </trkpt>
      <trkpt lat="46.48096" lon="-1.76114">
        <ele>49.529916</ele>
        <time>2022-12-18T15:21:57.657Z</time>
      </trkpt>
      <trkpt lat="46.48088" lon="-1.76105">
        <ele>49.781827</ele>
        <time>2022-12-18T15:22:00.656Z</time>
      </trkpt>
      <trkpt lat="46.4808" lon="-1.76098">
        <ele>50.02438</ele>
        <time>2022-12-18T15:22:03.645Z</time>
      </trkpt>
      <trkpt lat="46.48072" lon="-1.76092">
        <ele>50.270886</ele>
        <time>2022-12-18T15:22:06.659Z</time>
      </trkpt>
      <trkpt lat="46.48063" lon="-1.76086">
        <ele>50.516721</ele>
        <time>2022-12-18T15:22:09.661Z</time>
      </trkpt>
      <trkpt lat="46.48054" lon="-1.76083">
        <ele>50.761422</ele>
        <time>2022-12-18T15:22:12.646Z</time>
      </trkpt>
      <trkpt lat="46.48044" lon="-1.76077">
        <ele>51.047339</ele>
        <time>2022-12-18T15:22:16.661Z</time>
      </trkpt>
      <trkpt lat="46.48033" lon="-1.76072">
        <ele>51.351349</ele>
        <time>2022-12-18T15:22:20.654Z</time>
      </trkpt>
      <trkpt lat="46.48023" lon="-1.7607">
        <ele>51.603611</ele>
        <time>2022-12-18T15:22:23.654Z</time>
      </trkpt>
      <trkpt lat="46.48013" lon="-1.76067">
        <ele>51.86934</ele>
        <time>2022-12-18T15:22:26.649Z</time>
      </trkpt>
      <trkpt lat="46.48004" lon="-1.76063">
        <ele>52.126191</ele>
        <time>2022-12-18T15:22:29.658Z</time>
      </trkpt>
      <trkpt lat="46.47994" lon="-1.7606">
        <ele>52.223086</ele>
        <time>2022-12-18T15:22:32.656Z</time>
      </trkpt>
      <trkpt lat="46.47984" lon="-1.76057">
        <ele>52.215081</ele>
        <time>2022-12-18T15:22:35.650Z</time>
      </trkpt>
      <trkpt lat="46.47974" lon="-1.76054">
        <ele>52.207381</ele>
        <time>2022-12-18T15:22:38.654Z</time>
      </trkpt>
      <trkpt lat="46.47965" lon="-1.76051">
        <ele>52.200137</ele>
        <time>2022-12-18T15:22:41.643Z</time>
      </trkpt>
      <trkpt lat="46.47954" lon="-1.76047">
        <ele>52.191484</ele>
        <time>2022-12-18T15:22:45.642Z</time>
      </trkpt>
      <trkpt lat="46.47943" lon="-1.76047">
        <ele>52.182927</ele>
        <time>2022-12-18T15:22:49.667Z</time>
      </trkpt>
      <trkpt lat="46.47933" lon="-1.76045">
        <ele>52.174594</ele>
        <time>2022-12-18T15:22:53.656Z</time>
      </trkpt>
      <trkpt lat="46.47921" lon="-1.7604">
        <ele>52.165374</ele>
        <time>2022-12-18T15:22:57.654Z</time>
      </trkpt>
      <trkpt lat="46.47911" lon="-1.76038">
        <ele>52.156988</ele>
        <time>2022-12-18T15:23:01.658Z</time>
      </trkpt>
      <trkpt lat="46.479" lon="-1.76034">
        <ele>52.148178</ele>
        <time>2022-12-18T15:23:05.636Z</time>
      </trkpt>
      <trkpt lat="46.4789" lon="-1.76031">
        <ele>52.140304</ele>
        <time>2022-12-18T15:23:09.648Z</time>
      </trkpt>
      <trkpt lat="46.47881" lon="-1.76028">
        <ele>52.133006</ele>
        <time>2022-12-18T15:23:13.638Z</time>
      </trkpt>
      <trkpt lat="46.4787" lon="-1.76023">
        <ele>52.124541</ele>
        <time>2022-12-18T15:23:18.654Z</time>
      </trkpt>
      <trkpt lat="46.47861" lon="-1.76026">
        <ele>52.116743</ele>
        <time>2022-12-18T15:23:22.648Z</time>
      </trkpt>
      <trkpt lat="46.47852" lon="-1.76029">
        <ele>52.109614</ele>
        <time>2022-12-18T15:23:25.645Z</time>
      </trkpt>
      <trkpt lat="46.47842" lon="-1.76025">
        <ele>52.101918</ele>
        <time>2022-12-18T15:23:28.659Z</time>
      </trkpt>
      <trkpt lat="46.47834" lon="-1.7602">
        <ele>52.09494</ele>
        <time>2022-12-18T15:23:31.646Z</time>
      </trkpt>
      <trkpt lat="46.47825" lon="-1.76015">
        <ele>52.08176</ele>
        <time>2022-12-18T15:23:34.649Z</time>
      </trkpt>
      <trkpt lat="46.47817" lon="-1.76008">
        <ele>51.967984</ele>
        <time>2022-12-18T15:23:37.633Z</time>
      </trkpt>
      <trkpt lat="46.47809" lon="-1.76001">
        <ele>51.8549</ele>
        <time>2022-12-18T15:23:40.654Z</time>
      </trkpt>
      <trkpt lat="46.478" lon="-1.75993">
        <ele>51.734924</ele>
        <time>2022-12-18T15:23:43.643Z</time>
      </trkpt>
      <trkpt lat="46.47791" lon="-1.75986">
        <ele>51.608515</ele>
        <time>2022-12-18T15:23:46.656Z</time>
      </trkpt>
      <trkpt lat="46.47783" lon="-1.75978">
        <ele>51.491068</ele>
        <time>2022-12-18T15:23:49.645Z</time>
      </trkpt>
      <trkpt lat="46.47774" lon="-1.75966">
        <ele>51.3519</ele>
        <time>2022-12-18T15:23:53.657Z</time>
      </trkpt>
      <trkpt lat="46.47768" lon="-1.75955">
        <ele>51.234488</ele>
        <time>2022-12-18T15:23:56.654Z</time>
      </trkpt>
      <trkpt lat="46.47764" lon="-1.75942">
        <ele>51.110758</ele>
        <time>2022-12-18T15:23:59.659Z</time>
      </trkpt>
      <trkpt lat="46.47761" lon="-1.75929">
        <ele>50.99725</ele>
        <time>2022-12-18T15:24:02.655Z</time>
      </trkpt>
      <trkpt lat="46.47756" lon="-1.75913">
        <ele>50.853783</ele>
        <time>2022-12-18T15:24:06.651Z</time>
      </trkpt>
      <trkpt lat="46.47749" lon="-1.75901">
        <ele>50.730126</ele>
        <time>2022-12-18T15:24:09.648Z</time>
      </trkpt>
      <trkpt lat="46.47742" lon="-1.7589">
        <ele>50.600638</ele>
        <time>2022-12-18T15:24:12.657Z</time>
      </trkpt>
      <trkpt lat="46.47734" lon="-1.75878">
        <ele>50.466123</ele>
        <time>2022-12-18T15:24:15.663Z</time>
      </trkpt>
      <trkpt lat="46.47727" lon="-1.75866">
        <ele>50.332603</ele>
        <time>2022-12-18T15:24:18.648Z</time>
      </trkpt>
      <trkpt lat="46.47719" lon="-1.75854">
        <ele>50.200718</ele>
        <time>2022-12-18T15:24:21.645Z</time>
      </trkpt>
      <trkpt lat="46.47711" lon="-1.75843">
        <ele>50.066111</ele>
        <time>2022-12-18T15:24:24.626Z</time>
      </trkpt>
      <trkpt lat="46.47704" lon="-1.75831">
        <ele>49.933145</ele>
        <time>2022-12-18T15:24:27.655Z</time>
      </trkpt>
      <trkpt lat="46.47697" lon="-1.75819">
        <ele>50.013599</ele>
        <time>2022-12-18T15:24:30.645Z</time>
      </trkpt>
      <trkpt lat="46.47689" lon="-1.75808">
        <ele>50.091355</ele>
        <time>2022-12-18T15:24:33.656Z</time>
      </trkpt>
      <trkpt lat="46.47681" lon="-1.75798">
        <ele>50.172315</ele>
        <time>2022-12-18T15:24:36.643Z</time>
      </trkpt>
      <trkpt lat="46.47672" lon="-1.75789">
        <ele>50.253656</ele>
        <time>2022-12-18T15:24:39.646Z</time>
      </trkpt>
      <trkpt lat="46.47663" lon="-1.7578">
        <ele>50.335475</ele>
        <time>2022-12-18T15:24:42.658Z</time>
      </trkpt>
      <trkpt lat="46.47655" lon="-1.75772">
        <ele>50.406875</ele>
        <time>2022-12-18T15:24:45.653Z</time>
      </trkpt>
      <trkpt lat="46.47645" lon="-1.75763">
        <ele>50.490501</ele>
        <time>2022-12-18T15:24:49.639Z</time>
      </trkpt>
      <trkpt lat="46.47636" lon="-1.75756">
        <ele>50.573712</ele>
        <time>2022-12-18T15:24:53.645Z</time>
      </trkpt>
      <trkpt lat="46.47627" lon="-1.75745">
        <ele>50.655004</ele>
        <time>2022-12-18T15:24:57.654Z</time>
      </trkpt>
      <trkpt lat="46.4762" lon="-1.75735">
        <ele>50.732575</ele>
        <time>2022-12-18T15:25:01.660Z</time>
      </trkpt>
      <trkpt lat="46.47613" lon="-1.75724">
        <ele>50.805469</ele>
        <time>2022-12-18T15:25:05.648Z</time>
      </trkpt>
      <trkpt lat="46.47606" lon="-1.75713">
        <ele>50.88319</ele>
        <time>2022-12-18T15:25:09.661Z</time>
      </trkpt>
      <trkpt lat="46.47599" lon="-1.757">
        <ele>50.968691</ele>
        <time>2022-12-18T15:25:13.659Z</time>
      </trkpt>
      <trkpt lat="46.47591" lon="-1.75689">
        <ele>51.055178</ele>
        <time>2022-12-18T15:25:17.651Z</time>
      </trkpt>
      <trkpt lat="46.47581" lon="-1.75679">
        <ele>51.14015</ele>
        <time>2022-12-18T15:25:21.645Z</time>
      </trkpt>
      <trkpt lat="46.47572" lon="-1.75668">
        <ele>51.229043</ele>
        <time>2022-12-18T15:25:25.659Z</time>
      </trkpt>
      <trkpt lat="46.47564" lon="-1.75659">
        <ele>51.288908</ele>
        <time>2022-12-18T15:25:28.645Z</time>
      </trkpt>
      <trkpt lat="46.47557" lon="-1.75649">
        <ele>51.332543</ele>
        <time>2022-12-18T15:25:31.643Z</time>
      </trkpt>
      <trkpt lat="46.47549" lon="-1.75639">
        <ele>51.377705</ele>
        <time>2022-12-18T15:25:34.636Z</time>
      </trkpt>
      <trkpt lat="46.47541" lon="-1.75628">
        <ele>51.423443</ele>
        <time>2022-12-18T15:25:37.633Z</time>
      </trkpt>
      <trkpt lat="46.47534" lon="-1.75616">
        <ele>51.469464</ele>
        <time>2022-12-18T15:25:40.645Z</time>
      </trkpt>
      <trkpt lat="46.47527" lon="-1.75603">
        <ele>51.51554</ele>
        <time>2022-12-18T15:25:43.655Z</time>
      </trkpt>
      <trkpt lat="46.47521" lon="-1.7559">
        <ele>51.561826</ele>
        <time>2022-12-18T15:25:46.639Z</time>
      </trkpt>
      <trkpt lat="46.47517" lon="-1.75576">
        <ele>51.606514</ele>
        <time>2022-12-18T15:25:49.648Z</time>
      </trkpt>
      <trkpt lat="46.47514" lon="-1.75562">
        <ele>51.649566</ele>
        <time>2022-12-18T15:25:52.633Z</time>
      </trkpt>
      <trkpt lat="46.47512" lon="-1.75546">
        <ele>51.694867</ele>
        <time>2022-12-18T15:25:55.643Z</time>
      </trkpt>
      <trkpt lat="46.4751" lon="-1.75532">
        <ele>51.737884</ele>
        <time>2022-12-18T15:25:58.636Z</time>
      </trkpt>
      <trkpt lat="46.47508" lon="-1.75515">
        <ele>51.787765</ele>
        <time>2022-12-18T15:26:02.657Z</time>
      </trkpt>
      <trkpt lat="46.47506" lon="-1.75499">
        <ele>51.835855</ele>
        <time>2022-12-18T15:26:06.653Z</time>
      </trkpt>
      <trkpt lat="46.47503" lon="-1.75484">
        <ele>51.879336</ele>
        <time>2022-12-18T15:26:10.661Z</time>
      </trkpt>
      <trkpt lat="46.47502" lon="-1.75471">
        <ele>51.918125</ele>
        <time>2022-12-18T15:26:14.662Z</time>
      </trkpt>
      <trkpt lat="46.47499" lon="-1.75456">
        <ele>51.963841</ele>
        <time>2022-12-18T15:26:18.658Z</time>
      </trkpt>
      <trkpt lat="46.47496" lon="-1.75442">
        <ele>52.006583</ele>
        <time>2022-12-18T15:26:21.654Z</time>
      </trkpt>
      <trkpt lat="46.47493" lon="-1.75428">
        <ele>52.050782</ele>
        <time>2022-12-18T15:26:24.652Z</time>
      </trkpt>
      <trkpt lat="46.4749" lon="-1.75415">
        <ele>52.091337</ele>
        <time>2022-12-18T15:26:27.635Z</time>
      </trkpt>
      <trkpt lat="46.47482" lon="-1.75406">
        <ele>52.13751</ele>
        <time>2022-12-18T15:26:30.645Z</time>
      </trkpt>
      <trkpt lat="46.47476" lon="-1.7539">
        <ele>52.191644</ele>
        <time>2022-12-18T15:26:33.640Z</time>
      </trkpt>
      <trkpt lat="46.47473" lon="-1.75374">
        <ele>52.245268</ele>
        <time>2022-12-18T15:26:36.660Z</time>
      </trkpt>
      <trkpt lat="46.47471" lon="-1.75358">
        <ele>52.29427</ele>
        <time>2022-12-18T15:26:39.659Z</time>
      </trkpt>
      <trkpt lat="46.47466" lon="-1.75345">
        <ele>52.340645</ele>
        <time>2022-12-18T15:26:42.638Z</time>
      </trkpt>
      <trkpt lat="46.47458" lon="-1.75337">
        <ele>52.383403</ele>
        <time>2022-12-18T15:26:45.655Z</time>
      </trkpt>
      <trkpt lat="46.47453" lon="-1.75326">
        <ele>52.423707</ele>
        <time>2022-12-18T15:26:48.661Z</time>
      </trkpt>
      <trkpt lat="46.47451" lon="-1.75313">
        <ele>52.464983</ele>
        <time>2022-12-18T15:26:51.664Z</time>
      </trkpt>
      <trkpt lat="46.47449" lon="-1.753">
        <ele>52.505725</ele>
        <time>2022-12-18T15:26:54.635Z</time>
      </trkpt>
      <trkpt lat="46.47447" lon="-1.75284">
        <ele>52.556686</ele>
        <time>2022-12-18T15:26:58.652Z</time>
      </trkpt>
      <trkpt lat="46.47446" lon="-1.75268">
        <ele>52.606202</ele>
        <time>2022-12-18T15:27:02.639Z</time>
      </trkpt>
      <trkpt lat="46.47443" lon="-1.75256">
        <ele>52.647226</ele>
        <time>2022-12-18T15:27:05.662Z</time>
      </trkpt>
      <trkpt lat="46.4744" lon="-1.75243">
        <ele>52.689106</ele>
        <time>2022-12-18T15:27:08.656Z</time>
      </trkpt>
      <trkpt lat="46.47437" lon="-1.7523">
        <ele>52.729654</ele>
        <time>2022-12-18T15:27:11.644Z</time>
      </trkpt>
      <trkpt lat="46.47435" lon="-1.75215">
        <ele>52.778787</ele>
        <time>2022-12-18T15:27:15.636Z</time>
      </trkpt>
      <trkpt lat="46.47441" lon="-1.75203">
        <ele>52.823214</ele>
        <time>2022-12-18T15:27:19.643Z</time>
      </trkpt>
      <trkpt lat="46.47445" lon="-1.75191">
        <ele>52.887519</ele>
        <time>2022-12-18T15:27:23.626Z</time>
      </trkpt>
      <trkpt lat="46.47443" lon="-1.75177">
        <ele>52.967218</ele>
        <time>2022-12-18T15:27:27.657Z</time>
      </trkpt>
      <trkpt lat="46.4744" lon="-1.75163">
        <ele>53.049756</ele>
        <time>2022-12-18T15:27:31.661Z</time>
      </trkpt>
      <trkpt lat="46.47438" lon="-1.75148">
        <ele>53.134539</ele>
        <time>2022-12-18T15:27:35.662Z</time>
      </trkpt>
      <trkpt lat="46.47435" lon="-1.75133">
        <ele>53.220525</ele>
        <time>2022-12-18T15:27:39.646Z</time>
      </trkpt>
      <trkpt lat="46.47433" lon="-1.75118">
        <ele>53.308785</ele>
        <time>2022-12-18T15:27:43.655Z</time>
      </trkpt>
      <trkpt lat="46.4743" lon="-1.75101">
        <ele>53.406111</ele>
        <time>2022-12-18T15:27:47.649Z</time>
      </trkpt>
      <trkpt lat="46.47426" lon="-1.75088">
        <ele>53.484838</ele>
        <time>2022-12-18T15:27:50.651Z</time>
      </trkpt>
      <trkpt lat="46.47424" lon="-1.75074">
        <ele>53.562554</ele>
        <time>2022-12-18T15:27:53.662Z</time>
      </trkpt>
      <trkpt lat="46.47421" lon="-1.75061">
        <ele>53.639183</ele>
        <time>2022-12-18T15:27:56.658Z</time>
      </trkpt>
      <trkpt lat="46.47418" lon="-1.75046">
        <ele>53.726098</ele>
        <time>2022-12-18T15:28:00.660Z</time>
      </trkpt>
      <trkpt lat="46.47415" lon="-1.75032">
        <ele>53.81231</ele>
        <time>2022-12-18T15:28:04.648Z</time>
      </trkpt>
      <trkpt lat="46.47413" lon="-1.75019">
        <ele>53.88549</ele>
        <time>2022-12-18T15:28:07.661Z</time>
      </trkpt>
      <trkpt lat="46.4741" lon="-1.75002">
        <ele>53.983221</ele>
        <time>2022-12-18T15:28:11.655Z</time>
      </trkpt>
      <trkpt lat="46.47407" lon="-1.74988">
        <ele>54.065541</ele>
        <time>2022-12-18T15:28:14.659Z</time>
      </trkpt>
      <trkpt lat="46.47404" lon="-1.74973">
        <ele>54.148618</ele>
        <time>2022-12-18T15:28:17.643Z</time>
      </trkpt>
      <trkpt lat="46.47401" lon="-1.74959">
        <ele>54.232393</ele>
        <time>2022-12-18T15:28:20.655Z</time>
      </trkpt>
      <trkpt lat="46.47398" lon="-1.74945">
        <ele>54.293012</ele>
        <time>2022-12-18T15:28:23.659Z</time>
      </trkpt>
      <trkpt lat="46.47395" lon="-1.7493">
        <ele>54.256518</ele>
        <time>2022-12-18T15:28:26.655Z</time>
      </trkpt>
      <trkpt lat="46.47392" lon="-1.74915">
        <ele>54.220735</ele>
        <time>2022-12-18T15:28:29.660Z</time>
      </trkpt>
      <trkpt lat="46.47388" lon="-1.749">
        <ele>54.185444</ele>
        <time>2022-12-18T15:28:32.657Z</time>
      </trkpt>
      <trkpt lat="46.47385" lon="-1.74886">
        <ele>54.149826</ele>
        <time>2022-12-18T15:28:35.635Z</time>
      </trkpt>
      <trkpt lat="46.47382" lon="-1.74871">
        <ele>54.114837</ele>
        <time>2022-12-18T15:28:38.661Z</time>
      </trkpt>
      <trkpt lat="46.47378" lon="-1.74857">
        <ele>54.079808</ele>
        <time>2022-12-18T15:28:41.660Z</time>
      </trkpt>
      <trkpt lat="46.47373" lon="-1.74845">
        <ele>54.047982</ele>
        <time>2022-12-18T15:28:44.656Z</time>
      </trkpt>
      <trkpt lat="46.47369" lon="-1.7483">
        <ele>54.010804</ele>
        <time>2022-12-18T15:28:48.652Z</time>
      </trkpt>
      <trkpt lat="46.47364" lon="-1.74816">
        <ele>53.975309</ele>
        <time>2022-12-18T15:28:51.648Z</time>
      </trkpt>
      <trkpt lat="46.47358" lon="-1.74801">
        <ele>53.933884</ele>
        <time>2022-12-18T15:28:54.658Z</time>
      </trkpt>
      <trkpt lat="46.47351" lon="-1.74786">
        <ele>53.892196</ele>
        <time>2022-12-18T15:28:57.654Z</time>
      </trkpt>
      <trkpt lat="46.47344" lon="-1.74772">
        <ele>53.851614</ele>
        <time>2022-12-18T15:29:00.660Z</time>
      </trkpt>
      <trkpt lat="46.47337" lon="-1.74758">
        <ele>53.811765</ele>
        <time>2022-12-18T15:29:03.661Z</time>
      </trkpt>
      <trkpt lat="46.47329" lon="-1.74745">
        <ele>53.771963</ele>
        <time>2022-12-18T15:29:06.657Z</time>
      </trkpt>
      <trkpt lat="46.4732" lon="-1.74732">
        <ele>53.729065</ele>
        <time>2022-12-18T15:29:09.650Z</time>
      </trkpt>
      <trkpt lat="46.47312" lon="-1.74719">
        <ele>53.691048</ele>
        <time>2022-12-18T15:29:12.646Z</time>
      </trkpt>
      <trkpt lat="46.47304" lon="-1.74707">
        <ele>53.665276</ele>
        <time>2022-12-18T15:29:15.638Z</time>
      </trkpt>
      <trkpt lat="46.47296" lon="-1.74696">
        <ele>53.640067</ele>
        <time>2022-12-18T15:29:18.657Z</time>
      </trkpt>
      <trkpt lat="46.47289" lon="-1.74686">
        <ele>53.615914</ele>
        <time>2022-12-18T15:29:21.660Z</time>
      </trkpt>
      <trkpt lat="46.47282" lon="-1.74675">
        <ele>53.592207</ele>
        <time>2022-12-18T15:29:24.654Z</time>
      </trkpt>
      <trkpt lat="46.47275" lon="-1.74664">
        <ele>53.56916</ele>
        <time>2022-12-18T15:29:27.657Z</time>
      </trkpt>
      <trkpt lat="46.47268" lon="-1.74653">
        <ele>53.545182</ele>
        <time>2022-12-18T15:29:30.638Z</time>
      </trkpt>
      <trkpt lat="46.47261" lon="-1.74642">
        <ele>53.521669</ele>
        <time>2022-12-18T15:29:33.668Z</time>
      </trkpt>
      <trkpt lat="46.47251" lon="-1.74634">
        <ele>53.496201</ele>
        <time>2022-12-18T15:29:37.650Z</time>
      </trkpt>
      <trkpt lat="46.47247" lon="-1.74621">
        <ele>53.4739</ele>
        <time>2022-12-18T15:29:42.661Z</time>
      </trkpt>
      <trkpt lat="46.4724" lon="-1.74611">
        <ele>53.451205</ele>
        <time>2022-12-18T15:29:47.650Z</time>
      </trkpt>
      <trkpt lat="46.47234" lon="-1.74601">
        <ele>53.430275</ele>
        <time>2022-12-18T15:29:50.659Z</time>
      </trkpt>
      <trkpt lat="46.47228" lon="-1.74589">
        <ele>53.406756</ele>
        <time>2022-12-18T15:29:53.649Z</time>
      </trkpt>
      <trkpt lat="46.47222" lon="-1.74576">
        <ele>53.382198</ele>
        <time>2022-12-18T15:29:56.627Z</time>
      </trkpt>
      <trkpt lat="46.47215" lon="-1.74563">
        <ele>53.356201</ele>
        <time>2022-12-18T15:29:59.662Z</time>
      </trkpt>
      <trkpt lat="46.47208" lon="-1.74549">
        <ele>53.327813</ele>
        <time>2022-12-18T15:30:02.649Z</time>
      </trkpt>
      <trkpt lat="46.47201" lon="-1.74534">
        <ele>53.298826</ele>
        <time>2022-12-18T15:30:05.659Z</time>
      </trkpt>
      <trkpt lat="46.47193" lon="-1.74519">
        <ele>53.263367</ele>
        <time>2022-12-18T15:30:08.660Z</time>
      </trkpt>
      <trkpt lat="46.47186" lon="-1.74505">
        <ele>53.221519</ele>
        <time>2022-12-18T15:30:11.661Z</time>
      </trkpt>
      <trkpt lat="46.4718" lon="-1.74492">
        <ele>53.183448</ele>
        <time>2022-12-18T15:30:14.641Z</time>
      </trkpt>
      <trkpt lat="46.47173" lon="-1.74479">
        <ele>53.144989</ele>
        <time>2022-12-18T15:30:17.654Z</time>
      </trkpt>
      <trkpt lat="46.47166" lon="-1.74466">
        <ele>53.103121</ele>
        <time>2022-12-18T15:30:20.658Z</time>
      </trkpt>
      <trkpt lat="46.47158" lon="-1.74452">
        <ele>53.060824</ele>
        <time>2022-12-18T15:30:23.640Z</time>
      </trkpt>
      <trkpt lat="46.47151" lon="-1.74438">
        <ele>53.018609</ele>
        <time>2022-12-18T15:30:26.662Z</time>
      </trkpt>
      <trkpt lat="46.47143" lon="-1.74425">
        <ele>52.977124</ele>
        <time>2022-12-18T15:30:29.657Z</time>
      </trkpt>
      <trkpt lat="46.47135" lon="-1.74413">
        <ele>52.936824</ele>
        <time>2022-12-18T15:30:32.657Z</time>
      </trkpt>
      <trkpt lat="46.47127" lon="-1.74399">
        <ele>52.893925</ele>
        <time>2022-12-18T15:30:35.664Z</time>
      </trkpt>
      <trkpt lat="46.47119" lon="-1.74386">
        <ele>52.850663</ele>
        <time>2022-12-18T15:30:38.654Z</time>
      </trkpt>
      <trkpt lat="46.47111" lon="-1.74373">
        <ele>52.810311</ele>
        <time>2022-12-18T15:30:41.661Z</time>
      </trkpt>
      <trkpt lat="46.47104" lon="-1.74361">
        <ele>52.771425</ele>
        <time>2022-12-18T15:30:44.653Z</time>
      </trkpt>
      <trkpt lat="46.47098" lon="-1.74351">
        <ele>52.738966</ele>
        <time>2022-12-18T15:30:47.652Z</time>
      </trkpt>
      <trkpt lat="46.4709" lon="-1.74338">
        <ele>52.697376</ele>
        <time>2022-12-18T15:30:51.661Z</time>
      </trkpt>
      <trkpt lat="46.47083" lon="-1.74327">
        <ele>52.662866</ele>
        <time>2022-12-18T15:30:54.647Z</time>
      </trkpt>
      <trkpt lat="46.47077" lon="-1.74317">
        <ele>52.658327</ele>
        <time>2022-12-18T15:30:57.645Z</time>
      </trkpt>
      <trkpt lat="46.4707" lon="-1.74306">
        <ele>52.66429</ele>
        <time>2022-12-18T15:31:00.654Z</time>
      </trkpt>
      <trkpt lat="46.47062" lon="-1.74295">
        <ele>52.670259</ele>
        <time>2022-12-18T15:31:03.669Z</time>
      </trkpt>
      <trkpt lat="46.47055" lon="-1.74284">
        <ele>52.676401</ele>
        <time>2022-12-18T15:31:06.651Z</time>
      </trkpt>
      <trkpt lat="46.47048" lon="-1.74274">
        <ele>52.682009</ele>
        <time>2022-12-18T15:31:09.644Z</time>
      </trkpt>
      <trkpt lat="46.47042" lon="-1.74265">
        <ele>52.68742</ele>
        <time>2022-12-18T15:31:12.634Z</time>
      </trkpt>
      <trkpt lat="46.47033" lon="-1.74253">
        <ele>52.694384</ele>
        <time>2022-12-18T15:31:16.658Z</time>
      </trkpt>
      <trkpt lat="46.47025" lon="-1.7424">
        <ele>52.701333</ele>
        <time>2022-12-18T15:31:20.660Z</time>
      </trkpt>
      <trkpt lat="46.47019" lon="-1.7423">
        <ele>52.706843</ele>
        <time>2022-12-18T15:31:23.644Z</time>
      </trkpt>
      <trkpt lat="46.47012" lon="-1.74221">
        <ele>52.712222</ele>
        <time>2022-12-18T15:31:26.647Z</time>
      </trkpt>
      <trkpt lat="46.47004" lon="-1.74213">
        <ele>52.717844</ele>
        <time>2022-12-18T15:31:29.660Z</time>
      </trkpt>
      <trkpt lat="46.46996" lon="-1.74205">
        <ele>52.723514</ele>
        <time>2022-12-18T15:31:32.656Z</time>
      </trkpt>
      <trkpt lat="46.46988" lon="-1.74198">
        <ele>52.729129</ele>
        <time>2022-12-18T15:31:35.656Z</time>
      </trkpt>
      <trkpt lat="46.46979" lon="-1.74192">
        <ele>52.734807</ele>
        <time>2022-12-18T15:31:38.658Z</time>
      </trkpt>
      <trkpt lat="46.46969" lon="-1.74187">
        <ele>52.740777</ele>
        <time>2022-12-18T15:31:41.658Z</time>
      </trkpt>
      <trkpt lat="46.4696" lon="-1.74182">
        <ele>52.746597</ele>
        <time>2022-12-18T15:31:44.654Z</time>
      </trkpt>
      <trkpt lat="46.4695" lon="-1.74177">
        <ele>52.752538</ele>
        <time>2022-12-18T15:31:47.662Z</time>
      </trkpt>
      <trkpt lat="46.46941" lon="-1.74172">
        <ele>52.758519</ele>
        <time>2022-12-18T15:31:50.659Z</time>
      </trkpt>
      <trkpt lat="46.46931" lon="-1.74166">
        <ele>52.782719</ele>
        <time>2022-12-18T15:31:53.650Z</time>
      </trkpt>
      <trkpt lat="46.4692" lon="-1.7416">
        <ele>52.809859</ele>
        <time>2022-12-18T15:31:56.650Z</time>
      </trkpt>
      <trkpt lat="46.4691" lon="-1.74152">
        <ele>52.836829</ele>
        <time>2022-12-18T15:31:59.633Z</time>
      </trkpt>
      <trkpt lat="46.46901" lon="-1.74144">
        <ele>52.863499</ele>
        <time>2022-12-18T15:32:02.656Z</time>
      </trkpt>
      <trkpt lat="46.46892" lon="-1.74135">
        <ele>52.889432</ele>
        <time>2022-12-18T15:32:05.661Z</time>
      </trkpt>
      <trkpt lat="46.46885" lon="-1.74125">
        <ele>52.912337</ele>
        <time>2022-12-18T15:32:08.662Z</time>
      </trkpt>
      <trkpt lat="46.46879" lon="-1.74115">
        <ele>52.935509</ele>
        <time>2022-12-18T15:32:12.657Z</time>
      </trkpt>
      <trkpt lat="46.46873" lon="-1.74103">
        <ele>52.960816</ele>
        <time>2022-12-18T15:32:16.663Z</time>
      </trkpt>
      <trkpt lat="46.46867" lon="-1.74088">
        <ele>52.988857</ele>
        <time>2022-12-18T15:32:20.630Z</time>
      </trkpt>
      <trkpt lat="46.46863" lon="-1.74075">
        <ele>53.01263</ele>
        <time>2022-12-18T15:32:23.635Z</time>
      </trkpt>
      <trkpt lat="46.46859" lon="-1.74062">
        <ele>53.03676</ele>
        <time>2022-12-18T15:32:26.659Z</time>
      </trkpt>
      <trkpt lat="46.46855" lon="-1.74048">
        <ele>53.060339</ele>
        <time>2022-12-18T15:32:29.654Z</time>
      </trkpt>
      <trkpt lat="46.46853" lon="-1.74034">
        <ele>53.084431</ele>
        <time>2022-12-18T15:32:32.642Z</time>
      </trkpt>
      <trkpt lat="46.46851" lon="-1.7402">
        <ele>53.108261</ele>
        <time>2022-12-18T15:32:35.660Z</time>
      </trkpt>
      <trkpt lat="46.4685" lon="-1.74006">
        <ele>53.132207</ele>
        <time>2022-12-18T15:32:38.645Z</time>
      </trkpt>
      <trkpt lat="46.46849" lon="-1.73991">
        <ele>53.15742</ele>
        <time>2022-12-18T15:32:41.661Z</time>
      </trkpt>
      <trkpt lat="46.46849" lon="-1.73977">
        <ele>53.180151</ele>
        <time>2022-12-18T15:32:44.661Z</time>
      </trkpt>
      <trkpt lat="46.46848" lon="-1.7396">
        <ele>53.039305</ele>
        <time>2022-12-18T15:32:48.661Z</time>
      </trkpt>
      <trkpt lat="46.46846" lon="-1.73947">
        <ele>52.840143</ele>
        <time>2022-12-18T15:32:51.659Z</time>
      </trkpt>
      <trkpt lat="46.46844" lon="-1.73934">
        <ele>52.630665</ele>
        <time>2022-12-18T15:32:54.656Z</time>
      </trkpt>
      <trkpt lat="46.46841" lon="-1.73919">
        <ele>52.391542</ele>
        <time>2022-12-18T15:32:57.660Z</time>
      </trkpt>
      <trkpt lat="46.46837" lon="-1.73904">
        <ele>52.146585</ele>
        <time>2022-12-18T15:33:00.658Z</time>
      </trkpt>
      <trkpt lat="46.46834" lon="-1.73889">
        <ele>51.912094</ele>
        <time>2022-12-18T15:33:03.658Z</time>
      </trkpt>
      <trkpt lat="46.46831" lon="-1.73874">
        <ele>51.674823</ele>
        <time>2022-12-18T15:33:06.661Z</time>
      </trkpt>
      <trkpt lat="46.46833" lon="-1.73857">
        <ele>51.421091</ele>
        <time>2022-12-18T15:33:09.661Z</time>
      </trkpt>
      <trkpt lat="46.46835" lon="-1.7384">
        <ele>51.146537</ele>
        <time>2022-12-18T15:33:12.660Z</time>
      </trkpt>
      <trkpt lat="46.46838" lon="-1.73821">
        <ele>50.853131</ele>
        <time>2022-12-18T15:33:15.663Z</time>
      </trkpt>
      <trkpt lat="46.46841" lon="-1.73808">
        <ele>50.641304</ele>
        <time>2022-12-18T15:33:17.661Z</time>
      </trkpt>
      <trkpt lat="46.46844" lon="-1.73794">
        <ele>50.411455</ele>
        <time>2022-12-18T15:33:19.661Z</time>
      </trkpt>
      <trkpt lat="46.46847" lon="-1.73779">
        <ele>50.174587</ele>
        <time>2022-12-18T15:33:21.655Z</time>
      </trkpt>
      <trkpt lat="46.46849" lon="-1.73763">
        <ele>49.932425</ele>
        <time>2022-12-18T15:33:23.639Z</time>
      </trkpt>
      <trkpt lat="46.46847" lon="-1.73747">
        <ele>49.681179</ele>
        <time>2022-12-18T15:33:25.652Z</time>
      </trkpt>
      <trkpt lat="46.46843" lon="-1.73732">
        <ele>49.437459</ele>
        <time>2022-12-18T15:33:27.655Z</time>
      </trkpt>
      <trkpt lat="46.46837" lon="-1.73717">
        <ele>49.213481</ele>
        <time>2022-12-18T15:33:29.660Z</time>
      </trkpt>
      <trkpt lat="46.46832" lon="-1.73705">
        <ele>49.314311</ele>
        <time>2022-12-18T15:33:31.657Z</time>
      </trkpt>
      <trkpt lat="46.46822" lon="-1.73695">
        <ele>49.436687</ele>
        <time>2022-12-18T15:33:34.631Z</time>
      </trkpt>
      <trkpt lat="46.46814" lon="-1.73689">
        <ele>49.529806</ele>
        <time>2022-12-18T15:33:37.658Z</time>
      </trkpt>
      <trkpt lat="46.46804" lon="-1.73685">
        <ele>49.638637</ele>
        <time>2022-12-18T15:33:41.635Z</time>
      </trkpt>
      <trkpt lat="46.46792" lon="-1.73685">
        <ele>49.761217</ele>
        <time>2022-12-18T15:33:45.658Z</time>
      </trkpt>
      <trkpt lat="46.4678" lon="-1.73685">
        <ele>49.875592</ele>
        <time>2022-12-18T15:33:49.663Z</time>
      </trkpt>
      <trkpt lat="46.46769" lon="-1.73685">
        <ele>49.990961</ele>
        <time>2022-12-18T15:33:53.637Z</time>
      </trkpt>
      <trkpt lat="46.46759" lon="-1.73682">
        <ele>50.097208</ele>
        <time>2022-12-18T15:33:58.664Z</time>
      </trkpt>
      <trkpt lat="46.4675" lon="-1.73675">
        <ele>50.198413</ele>
        <time>2022-12-18T15:34:03.636Z</time>
      </trkpt>
      <trkpt lat="46.46744" lon="-1.73666">
        <ele>50.29011</ele>
        <time>2022-12-18T15:34:07.661Z</time>
      </trkpt>
      <trkpt lat="46.46738" lon="-1.73656">
        <ele>50.383769</ele>
        <time>2022-12-18T15:34:11.661Z</time>
      </trkpt>
      <trkpt lat="46.4673" lon="-1.73645">
        <ele>50.492096</ele>
        <time>2022-12-18T15:34:16.656Z</time>
      </trkpt>
      <trkpt lat="46.46724" lon="-1.73636">
        <ele>50.585147</ele>
        <time>2022-12-18T15:34:20.662Z</time>
      </trkpt>
      <trkpt lat="46.46716" lon="-1.73624">
        <ele>50.699138</ele>
        <time>2022-12-18T15:34:25.659Z</time>
      </trkpt>
      <trkpt lat="46.46711" lon="-1.73613">
        <ele>50.794718</ele>
        <time>2022-12-18T15:34:29.662Z</time>
      </trkpt>
      <trkpt lat="46.46704" lon="-1.73602">
        <ele>50.896506</ele>
        <time>2022-12-18T15:34:33.661Z</time>
      </trkpt>
      <trkpt lat="46.46699" lon="-1.73591">
        <ele>50.990325</ele>
        <time>2022-12-18T15:34:37.654Z</time>
      </trkpt>
      <trkpt lat="46.46693" lon="-1.7358">
        <ele>51.109719</ele>
        <time>2022-12-18T15:34:41.659Z</time>
      </trkpt>
      <trkpt lat="46.46686" lon="-1.73568">
        <ele>51.256875</ele>
        <time>2022-12-18T15:34:45.656Z</time>
      </trkpt>
      <trkpt lat="46.4668" lon="-1.73556">
        <ele>51.400899</ele>
        <time>2022-12-18T15:34:49.649Z</time>
      </trkpt>
      <trkpt lat="46.46673" lon="-1.73543">
        <ele>51.566433</ele>
        <time>2022-12-18T15:34:53.662Z</time>
      </trkpt>
      <trkpt lat="46.46669" lon="-1.73531">
        <ele>51.693508</ele>
        <time>2022-12-18T15:34:56.636Z</time>
      </trkpt>
      <trkpt lat="46.46665" lon="-1.73516">
        <ele>51.85305</ele>
        <time>2022-12-18T15:35:00.660Z</time>
      </trkpt>
      <trkpt lat="46.46661" lon="-1.73501">
        <ele>52.008226</ele>
        <time>2022-12-18T15:35:04.657Z</time>
      </trkpt>
      <trkpt lat="46.46657" lon="-1.73485">
        <ele>52.169844</ele>
        <time>2022-12-18T15:35:08.640Z</time>
      </trkpt>
      <trkpt lat="46.46654" lon="-1.73469">
        <ele>52.328035</ele>
        <time>2022-12-18T15:35:12.631Z</time>
      </trkpt>
      <trkpt lat="46.46651" lon="-1.73454">
        <ele>52.483699</ele>
        <time>2022-12-18T15:35:17.656Z</time>
      </trkpt>
      <trkpt lat="46.46648" lon="-1.73439">
        <ele>52.633215</ele>
        <time>2022-12-18T15:35:22.660Z</time>
      </trkpt>
      <trkpt lat="46.46644" lon="-1.73423">
        <ele>52.803714</ele>
        <time>2022-12-18T15:35:26.662Z</time>
      </trkpt>
      <trkpt lat="46.46641" lon="-1.73409">
        <ele>52.946996</ele>
        <time>2022-12-18T15:35:29.659Z</time>
      </trkpt>
      <trkpt lat="46.46638" lon="-1.73396">
        <ele>53.080566</ele>
        <time>2022-12-18T15:35:32.650Z</time>
      </trkpt>
      <trkpt lat="46.46634" lon="-1.7338">
        <ele>53.241223</ele>
        <time>2022-12-18T15:35:36.659Z</time>
      </trkpt>
      <trkpt lat="46.46631" lon="-1.73363">
        <ele>53.410933</ele>
        <time>2022-12-18T15:35:40.659Z</time>
      </trkpt>
      <trkpt lat="46.46628" lon="-1.7335">
        <ele>53.544049</ele>
        <time>2022-12-18T15:35:43.659Z</time>
      </trkpt>
      <trkpt lat="46.46625" lon="-1.73336">
        <ele>53.493401</ele>
        <time>2022-12-18T15:35:46.659Z</time>
      </trkpt>
      <trkpt lat="46.46622" lon="-1.73322">
        <ele>53.387439</ele>
        <time>2022-12-18T15:35:49.658Z</time>
      </trkpt>
      <trkpt lat="46.46619" lon="-1.73308">
        <ele>53.282509</ele>
        <time>2022-12-18T15:35:52.657Z</time>
      </trkpt>
      <trkpt lat="46.46616" lon="-1.73294">
        <ele>53.178488</ele>
        <time>2022-12-18T15:35:55.653Z</time>
      </trkpt>
      <trkpt lat="46.46612" lon="-1.73281">
        <ele>53.077763</ele>
        <time>2022-12-18T15:35:58.660Z</time>
      </trkpt>
      <trkpt lat="46.46609" lon="-1.73266">
        <ele>52.961047</ele>
        <time>2022-12-18T15:36:02.658Z</time>
      </trkpt>
      <trkpt lat="46.46605" lon="-1.7325">
        <ele>52.843655</ele>
        <time>2022-12-18T15:36:06.639Z</time>
      </trkpt>
      <trkpt lat="46.46601" lon="-1.73234">
        <ele>52.720063</ele>
        <time>2022-12-18T15:36:10.652Z</time>
      </trkpt>
      <trkpt lat="46.46597" lon="-1.73222">
        <ele>52.623446</ele>
        <time>2022-12-18T15:36:13.657Z</time>
      </trkpt>
      <trkpt lat="46.46591" lon="-1.73207">
        <ele>52.502136</ele>
        <time>2022-12-18T15:36:17.659Z</time>
      </trkpt>
      <trkpt lat="46.46584" lon="-1.73198">
        <ele>52.408243</ele>
        <time>2022-12-18T15:36:20.654Z</time>
      </trkpt>
      <trkpt lat="46.46576" lon="-1.73193">
        <ele>52.314022</ele>
        <time>2022-12-18T15:36:23.639Z</time>
      </trkpt>
      <trkpt lat="46.46567" lon="-1.73189">
        <ele>52.220296</ele>
        <time>2022-12-18T15:36:26.658Z</time>
      </trkpt>
      <trkpt lat="46.46557" lon="-1.73185">
        <ele>52.113204</ele>
        <time>2022-12-18T15:36:29.659Z</time>
      </trkpt>
      <trkpt lat="46.46547" lon="-1.73181">
        <ele>51.998995</ele>
        <time>2022-12-18T15:36:32.659Z</time>
      </trkpt>
      <trkpt lat="46.46537" lon="-1.73174">
        <ele>51.888632</ele>
        <time>2022-12-18T15:36:35.661Z</time>
      </trkpt>
      <trkpt lat="46.46526" lon="-1.73169">
        <ele>51.770302</ele>
        <time>2022-12-18T15:36:38.652Z</time>
      </trkpt>
      <trkpt lat="46.46513" lon="-1.73164">
        <ele>51.801546</ele>
        <time>2022-12-18T15:36:41.659Z</time>
      </trkpt>
      <trkpt lat="46.46503" lon="-1.73162">
        <ele>51.923077</ele>
        <time>2022-12-18T15:36:43.661Z</time>
      </trkpt>
      <trkpt lat="46.46493" lon="-1.73159">
        <ele>52.043165</ele>
        <time>2022-12-18T15:36:45.634Z</time>
      </trkpt>
      <trkpt lat="46.46483" lon="-1.73156">
        <ele>52.160762</ele>
        <time>2022-12-18T15:36:47.660Z</time>
      </trkpt>
      <trkpt lat="46.46473" lon="-1.73151">
        <ele>52.280441</ele>
        <time>2022-12-18T15:36:49.657Z</time>
      </trkpt>
      <trkpt lat="46.46462" lon="-1.73141">
        <ele>52.432117</ele>
        <time>2022-12-18T15:36:52.659Z</time>
      </trkpt>
      <trkpt lat="46.46456" lon="-1.73127">
        <ele>52.565024</ele>
        <time>2022-12-18T15:36:55.654Z</time>
      </trkpt>
      <trkpt lat="46.46451" lon="-1.73113">
        <ele>52.69471</ele>
        <time>2022-12-18T15:36:59.659Z</time>
      </trkpt>
      <trkpt lat="46.46445" lon="-1.731">
        <ele>52.816917</ele>
        <time>2022-12-18T15:37:03.652Z</time>
      </trkpt>
      <trkpt lat="46.46441" lon="-1.73088">
        <ele>52.927334</ele>
        <time>2022-12-18T15:37:07.660Z</time>
      </trkpt>
      <trkpt lat="46.46433" lon="-1.73076">
        <ele>53.058879</ele>
        <time>2022-12-18T15:37:12.650Z</time>
      </trkpt>
      <trkpt lat="46.46427" lon="-1.73066">
        <ele>53.166433</ele>
        <time>2022-12-18T15:37:16.659Z</time>
      </trkpt>
      <trkpt lat="46.46423" lon="-1.73052">
        <ele>53.28911</ele>
        <time>2022-12-18T15:37:20.669Z</time>
      </trkpt>
      <trkpt lat="46.4642" lon="-1.73038">
        <ele>53.409962</ele>
        <time>2022-12-18T15:37:24.650Z</time>
      </trkpt>
      <trkpt lat="46.46417" lon="-1.73025">
        <ele>53.519581</ele>
        <time>2022-12-18T15:37:28.660Z</time>
      </trkpt>
      <trkpt lat="46.46414" lon="-1.73011">
        <ele>53.633204</ele>
        <time>2022-12-18T15:37:32.660Z</time>
      </trkpt>
      <trkpt lat="46.46411" lon="-1.72999">
        <ele>53.743511</ele>
        <time>2022-12-18T15:37:36.662Z</time>
      </trkpt>
      <trkpt lat="46.46408" lon="-1.72985">
        <ele>53.947843</ele>
        <time>2022-12-18T15:37:40.657Z</time>
      </trkpt>
      <trkpt lat="46.46406" lon="-1.72971">
        <ele>54.309071</ele>
        <time>2022-12-18T15:37:45.649Z</time>
      </trkpt>
      <trkpt lat="46.46403" lon="-1.72958">
        <ele>54.636996</ele>
        <time>2022-12-18T15:37:49.660Z</time>
      </trkpt>
      <trkpt lat="46.46399" lon="-1.72946">
        <ele>54.968285</ele>
        <time>2022-12-18T15:37:53.656Z</time>
      </trkpt>
      <trkpt lat="46.46397" lon="-1.72931">
        <ele>55.338846</ele>
        <time>2022-12-18T15:37:57.666Z</time>
      </trkpt>
      <trkpt lat="46.46393" lon="-1.72915">
        <ele>55.748735</ele>
        <time>2022-12-18T15:38:01.645Z</time>
      </trkpt>
      <trkpt lat="46.46391" lon="-1.72902">
        <ele>56.104859</ele>
        <time>2022-12-18T15:38:05.660Z</time>
      </trkpt>
      <trkpt lat="46.46388" lon="-1.72889">
        <ele>56.435633</ele>
        <time>2022-12-18T15:38:09.660Z</time>
      </trkpt>
      <trkpt lat="46.46384" lon="-1.72876">
        <ele>56.786305</ele>
        <time>2022-12-18T15:38:13.656Z</time>
      </trkpt>
      <trkpt lat="46.46381" lon="-1.72861">
        <ele>57.174673</ele>
        <time>2022-12-18T15:38:18.650Z</time>
      </trkpt>
      <trkpt lat="46.46378" lon="-1.72847">
        <ele>57.517948</ele>
        <time>2022-12-18T15:38:22.666Z</time>
      </trkpt>
      <trkpt lat="46.46376" lon="-1.72834">
        <ele>57.850768</ele>
        <time>2022-12-18T15:38:26.656Z</time>
      </trkpt>
      <trkpt lat="46.46374" lon="-1.7282">
        <ele>58.221261</ele>
        <time>2022-12-18T15:38:30.660Z</time>
      </trkpt>
      <trkpt lat="46.46373" lon="-1.72804">
        <ele>58.594595</ele>
        <time>2022-12-18T15:38:35.661Z</time>
      </trkpt>
      <trkpt lat="46.46373" lon="-1.72788">
        <ele>58.997073</ele>
        <time>2022-12-18T15:38:40.659Z</time>
      </trkpt>
      <trkpt lat="46.46374" lon="-1.72775">
        <ele>59.330167</ele>
        <time>2022-12-18T15:38:44.660Z</time>
      </trkpt>
      <trkpt lat="46.46375" lon="-1.72759">
        <ele>59.711136</ele>
        <time>2022-12-18T15:38:48.658Z</time>
      </trkpt>
      <trkpt lat="46.46377" lon="-1.72745">
        <ele>60.078968</ele>
        <time>2022-12-18T15:38:53.631Z</time>
      </trkpt>
      <trkpt lat="46.46378" lon="-1.72731">
        <ele>60.333747</ele>
        <time>2022-12-18T15:38:57.658Z</time>
      </trkpt>
      <trkpt lat="46.46378" lon="-1.72716">
        <ele>60.507319</ele>
        <time>2022-12-18T15:39:02.659Z</time>
      </trkpt>
      <trkpt lat="46.4638" lon="-1.727">
        <ele>60.68081</ele>
        <time>2022-12-18T15:39:06.660Z</time>
      </trkpt>
      <trkpt lat="46.46382" lon="-1.72684">
        <ele>60.866235</ele>
        <time>2022-12-18T15:39:10.658Z</time>
      </trkpt>
      <trkpt lat="46.46383" lon="-1.72668">
        <ele>61.0513</ele>
        <time>2022-12-18T15:39:14.658Z</time>
      </trkpt>
      <trkpt lat="46.46383" lon="-1.72653">
        <ele>61.221549</ele>
        <time>2022-12-18T15:39:17.662Z</time>
      </trkpt>
      <trkpt lat="46.46381" lon="-1.72637">
        <ele>61.401677</ele>
        <time>2022-12-18T15:39:21.652Z</time>
      </trkpt>
      <trkpt lat="46.46378" lon="-1.72622">
        <ele>61.579621</ele>
        <time>2022-12-18T15:39:25.657Z</time>
      </trkpt>
      <trkpt lat="46.46376" lon="-1.72607">
        <ele>61.755087</ele>
        <time>2022-12-18T15:39:28.659Z</time>
      </trkpt>
      <trkpt lat="46.46376" lon="-1.72591">
        <ele>61.92859</ele>
        <time>2022-12-18T15:39:31.660Z</time>
      </trkpt>
      <trkpt lat="46.46375" lon="-1.72578">
        <ele>62.077273</ele>
        <time>2022-12-18T15:39:34.634Z</time>
      </trkpt>
      <trkpt lat="46.46374" lon="-1.72562">
        <ele>62.263665</ele>
        <time>2022-12-18T15:39:38.658Z</time>
      </trkpt>
      <trkpt lat="46.46372" lon="-1.72548">
        <ele>62.415504</ele>
        <time>2022-12-18T15:39:41.658Z</time>
      </trkpt>
      <trkpt lat="46.4637" lon="-1.72531">
        <ele>62.611199</ele>
        <time>2022-12-18T15:39:45.660Z</time>
      </trkpt>
      <trkpt lat="46.46369" lon="-1.72517">
        <ele>62.775281</ele>
        <time>2022-12-18T15:39:48.639Z</time>
      </trkpt>
      <trkpt lat="46.46367" lon="-1.72503">
        <ele>62.931625</ele>
        <time>2022-12-18T15:39:51.659Z</time>
      </trkpt>
      <trkpt lat="46.46365" lon="-1.72489">
        <ele>63.092623</ele>
        <time>2022-12-18T15:39:54.657Z</time>
      </trkpt>
      <trkpt lat="46.46365" lon="-1.72474">
        <ele>63.162448</ele>
        <time>2022-12-18T15:39:57.657Z</time>
      </trkpt>
      <trkpt lat="46.46364" lon="-1.72461">
        <ele>63.059168</ele>
        <time>2022-12-18T15:40:00.657Z</time>
      </trkpt>
      <trkpt lat="46.46363" lon="-1.72447">
        <ele>62.954407</ele>
        <time>2022-12-18T15:40:03.659Z</time>
      </trkpt>
      <trkpt lat="46.46363" lon="-1.7243">
        <ele>62.825803</ele>
        <time>2022-12-18T15:40:06.657Z</time>
      </trkpt>
      <trkpt lat="46.46362" lon="-1.72414">
        <ele>62.697807</ele>
        <time>2022-12-18T15:40:09.658Z</time>
      </trkpt>
      <trkpt lat="46.46361" lon="-1.72398">
        <ele>62.575024</ele>
        <time>2022-12-18T15:40:12.638Z</time>
      </trkpt>
      <trkpt lat="46.4636" lon="-1.72382">
        <ele>62.453949</ele>
        <time>2022-12-18T15:40:15.639Z</time>
      </trkpt>
      <trkpt lat="46.46358" lon="-1.72369">
        <ele>62.347765</ele>
        <time>2022-12-18T15:40:18.654Z</time>
      </trkpt>
      <trkpt lat="46.46357" lon="-1.72354">
        <ele>62.23644</ele>
        <time>2022-12-18T15:40:21.660Z</time>
      </trkpt>
      <trkpt lat="46.46356" lon="-1.7234">
        <ele>62.125412</ele>
        <time>2022-12-18T15:40:24.660Z</time>
      </trkpt>
      <trkpt lat="46.46354" lon="-1.72323">
        <ele>61.990919</ele>
        <time>2022-12-18T15:40:28.659Z</time>
      </trkpt>
      <trkpt lat="46.46351" lon="-1.7231">
        <ele>61.881523</ele>
        <time>2022-12-18T15:40:31.659Z</time>
      </trkpt>
      <trkpt lat="46.46347" lon="-1.72294">
        <ele>61.755271</ele>
        <time>2022-12-18T15:40:34.645Z</time>
      </trkpt>
      <trkpt lat="46.46343" lon="-1.72278">
        <ele>61.622065</ele>
        <time>2022-12-18T15:40:37.661Z</time>
      </trkpt>
      <trkpt lat="46.4634" lon="-1.72262">
        <ele>61.49794</ele>
        <time>2022-12-18T15:40:40.635Z</time>
      </trkpt>
      <trkpt lat="46.46336" lon="-1.72246">
        <ele>61.363317</ele>
        <time>2022-12-18T15:40:43.662Z</time>
      </trkpt>
      <trkpt lat="46.46333" lon="-1.72231">
        <ele>61.245194</ele>
        <time>2022-12-18T15:40:46.663Z</time>
      </trkpt>
      <trkpt lat="46.4633" lon="-1.72214">
        <ele>60.799962</ele>
        <time>2022-12-18T15:40:50.659Z</time>
      </trkpt>
      <trkpt lat="46.46328" lon="-1.72199">
        <ele>60.25616</ele>
        <time>2022-12-18T15:40:53.663Z</time>
      </trkpt>
      <trkpt lat="46.46325" lon="-1.7218">
        <ele>59.572486</ele>
        <time>2022-12-18T15:40:56.662Z</time>
      </trkpt>
      <trkpt lat="46.46322" lon="-1.72162">
        <ele>58.897081</ele>
        <time>2022-12-18T15:40:59.659Z</time>
      </trkpt>
      <trkpt lat="46.46319" lon="-1.72148">
        <ele>58.353133</ele>
        <time>2022-12-18T15:41:02.660Z</time>
      </trkpt>
      <trkpt lat="46.46316" lon="-1.72133">
        <ele>57.796731</ele>
        <time>2022-12-18T15:41:06.659Z</time>
      </trkpt>
      <trkpt lat="46.46312" lon="-1.7212">
        <ele>57.310219</ele>
        <time>2022-12-18T15:41:09.658Z</time>
      </trkpt>
      <trkpt lat="46.46309" lon="-1.72106">
        <ele>56.78649</ele>
        <time>2022-12-18T15:41:13.658Z</time>
      </trkpt>
      <trkpt lat="46.46305" lon="-1.72093">
        <ele>56.276178</ele>
        <time>2022-12-18T15:41:17.660Z</time>
      </trkpt>
      <trkpt lat="46.46302" lon="-1.7208">
        <ele>55.7687</ele>
        <time>2022-12-18T15:41:20.660Z</time>
      </trkpt>
      <trkpt lat="46.46297" lon="-1.72067">
        <ele>55.263167</ele>
        <time>2022-12-18T15:41:23.639Z</time>
      </trkpt>
      <trkpt lat="46.46293" lon="-1.72055">
        <ele>54.755202</ele>
        <time>2022-12-18T15:41:26.659Z</time>
      </trkpt>
      <trkpt lat="46.46286" lon="-1.72043">
        <ele>54.232115</ele>
        <time>2022-12-18T15:41:30.634Z</time>
      </trkpt>
      <trkpt lat="46.46281" lon="-1.72031">
        <ele>53.700796</ele>
        <time>2022-12-18T15:41:33.652Z</time>
      </trkpt>
      <trkpt lat="46.46275" lon="-1.72018">
        <ele>53.151227</ele>
        <time>2022-12-18T15:41:36.640Z</time>
      </trkpt>
      <trkpt lat="46.46269" lon="-1.72006">
        <ele>52.611051</ele>
        <time>2022-12-18T15:41:39.660Z</time>
      </trkpt>
      <trkpt lat="46.46264" lon="-1.71993">
        <ele>52.085227</ele>
        <time>2022-12-18T15:41:42.658Z</time>
      </trkpt>
      <trkpt lat="46.46258" lon="-1.7198">
        <ele>51.900044</ele>
        <time>2022-12-18T15:41:46.653Z</time>
      </trkpt>
      <trkpt lat="46.46252" lon="-1.7197">
        <ele>51.995314</ele>
        <time>2022-12-18T15:41:50.658Z</time>
      </trkpt>
      <trkpt lat="46.46245" lon="-1.71956">
        <ele>52.112375</ele>
        <time>2022-12-18T15:41:54.657Z</time>
      </trkpt>
      <trkpt lat="46.4624" lon="-1.71941">
        <ele>52.229279</ele>
        <time>2022-12-18T15:41:57.660Z</time>
      </trkpt>
      <trkpt lat="46.46236" lon="-1.7193">
        <ele>52.326154</ele>
        <time>2022-12-18T15:42:00.660Z</time>
      </trkpt>
      <trkpt lat="46.46229" lon="-1.7192">
        <ele>52.423872</ele>
        <time>2022-12-18T15:42:04.659Z</time>
      </trkpt>
      <trkpt lat="46.46222" lon="-1.71908">
        <ele>52.532943</ele>
        <time>2022-12-18T15:42:08.660Z</time>
      </trkpt>
      <trkpt lat="46.46215" lon="-1.71898">
        <ele>52.638471</ele>
        <time>2022-12-18T15:42:11.653Z</time>
      </trkpt>
      <trkpt lat="46.46206" lon="-1.71884">
        <ele>52.773535</ele>
        <time>2022-12-18T15:42:14.657Z</time>
      </trkpt>
      <trkpt lat="46.46199" lon="-1.71874">
        <ele>52.874634</ele>
        <time>2022-12-18T15:42:17.662Z</time>
      </trkpt>
      <trkpt lat="46.46191" lon="-1.71864">
        <ele>52.977221</ele>
        <time>2022-12-18T15:42:20.663Z</time>
      </trkpt>
      <trkpt lat="46.46182" lon="-1.71854">
        <ele>53.10128</ele>
        <time>2022-12-18T15:42:23.647Z</time>
      </trkpt>
      <trkpt lat="46.46173" lon="-1.71842">
        <ele>53.224051</ele>
        <time>2022-12-18T15:42:26.657Z</time>
      </trkpt>
      <trkpt lat="46.46165" lon="-1.71835">
        <ele>53.31904</ele>
        <time>2022-12-18T15:42:29.652Z</time>
      </trkpt>
      <trkpt lat="46.46155" lon="-1.71825">
        <ele>53.442633</ele>
        <time>2022-12-18T15:42:33.638Z</time>
      </trkpt>
      <trkpt lat="46.46148" lon="-1.71816">
        <ele>53.539513</ele>
        <time>2022-12-18T15:42:36.658Z</time>
      </trkpt>
      <trkpt lat="46.4614" lon="-1.71807">
        <ele>53.650157</ele>
        <time>2022-12-18T15:42:40.656Z</time>
      </trkpt>
      <trkpt lat="46.46131" lon="-1.718">
        <ele>53.614914</ele>
        <time>2022-12-18T15:42:44.635Z</time>
      </trkpt>
      <trkpt lat="46.46123" lon="-1.71791">
        <ele>53.488977</ele>
        <time>2022-12-18T15:42:49.635Z</time>
      </trkpt>
      <trkpt lat="46.46116" lon="-1.71781">
        <ele>53.365453</ele>
        <time>2022-12-18T15:42:53.654Z</time>
      </trkpt>
      <trkpt lat="46.46108" lon="-1.71769">
        <ele>53.220737</ele>
        <time>2022-12-18T15:42:57.645Z</time>
      </trkpt>
      <trkpt lat="46.46098" lon="-1.71762">
        <ele>53.073587</ele>
        <time>2022-12-18T15:43:01.649Z</time>
      </trkpt>
      <trkpt lat="46.46092" lon="-1.71752">
        <ele>52.958286</ele>
        <time>2022-12-18T15:43:03.656Z</time>
      </trkpt>
      <trkpt lat="46.46086" lon="-1.71741">
        <ele>52.838952</ele>
        <time>2022-12-18T15:43:05.661Z</time>
      </trkpt>
      <trkpt lat="46.4608" lon="-1.7173">
        <ele>52.722053</ele>
        <time>2022-12-18T15:43:07.659Z</time>
      </trkpt>
      <trkpt lat="46.46072" lon="-1.71716">
        <ele>52.555747</ele>
        <time>2022-12-18T15:43:10.658Z</time>
      </trkpt>
      <trkpt lat="46.46061" lon="-1.71703">
        <ele>52.380696</ele>
        <time>2022-12-18T15:43:13.661Z</time>
      </trkpt>
      <trkpt lat="46.46054" lon="-1.71693">
        <ele>52.253233</ele>
        <time>2022-12-18T15:43:15.659Z</time>
      </trkpt>
      <trkpt lat="46.46044" lon="-1.7168">
        <ele>52.089868</ele>
        <time>2022-12-18T15:43:17.659Z</time>
      </trkpt>
      <trkpt lat="46.46035" lon="-1.71668">
        <ele>51.935998</ele>
        <time>2022-12-18T15:43:19.637Z</time>
      </trkpt>
      <trkpt lat="46.46027" lon="-1.71656">
        <ele>51.784312</ele>
        <time>2022-12-18T15:43:21.656Z</time>
      </trkpt>
      <trkpt lat="46.46018" lon="-1.71647">
        <ele>51.646178</ele>
        <time>2022-12-18T15:43:23.637Z</time>
      </trkpt>
      <trkpt lat="46.46009" lon="-1.71637">
        <ele>51.50581</ele>
        <time>2022-12-18T15:43:25.656Z</time>
      </trkpt>
      <trkpt lat="46.46001" lon="-1.71625">
        <ele>51.299829</ele>
        <time>2022-12-18T15:43:27.656Z</time>
      </trkpt>
      <trkpt lat="46.45993" lon="-1.71612">
        <ele>50.989197</ele>
        <time>2022-12-18T15:43:29.655Z</time>
      </trkpt>
      <trkpt lat="46.45986" lon="-1.716">
        <ele>50.69145</ele>
        <time>2022-12-18T15:43:31.655Z</time>
      </trkpt>
      <trkpt lat="46.4598" lon="-1.71587">
        <ele>50.403388</ele>
        <time>2022-12-18T15:43:33.659Z</time>
      </trkpt>
      <trkpt lat="46.45974" lon="-1.71574">
        <ele>50.116603</ele>
        <time>2022-12-18T15:43:35.662Z</time>
      </trkpt>
      <trkpt lat="46.45967" lon="-1.71562">
        <ele>49.841961</ele>
        <time>2022-12-18T15:43:37.658Z</time>
      </trkpt>
      <trkpt lat="46.45961" lon="-1.71551">
        <ele>49.591722</ele>
        <time>2022-12-18T15:43:39.660Z</time>
      </trkpt>
      <trkpt lat="46.45955" lon="-1.7154">
        <ele>49.33303</ele>
        <time>2022-12-18T15:43:41.659Z</time>
      </trkpt>
      <trkpt lat="46.45947" lon="-1.71526">
        <ele>48.996159</ele>
        <time>2022-12-18T15:43:44.655Z</time>
      </trkpt>
      <trkpt lat="46.45938" lon="-1.71514">
        <ele>48.676845</ele>
        <time>2022-12-18T15:43:47.664Z</time>
      </trkpt>
      <trkpt lat="46.45931" lon="-1.71504">
        <ele>48.4227</ele>
        <time>2022-12-18T15:43:49.658Z</time>
      </trkpt>
      <trkpt lat="46.45925" lon="-1.71493">
        <ele>48.164007</ele>
        <time>2022-12-18T15:43:51.663Z</time>
      </trkpt>
      <trkpt lat="46.4592" lon="-1.71478">
        <ele>47.856034</ele>
        <time>2022-12-18T15:43:53.662Z</time>
      </trkpt>
      <trkpt lat="46.45915" lon="-1.71461">
        <ele>47.513204</ele>
        <time>2022-12-18T15:43:55.646Z</time>
      </trkpt>
      <trkpt lat="46.4591" lon="-1.71441">
        <ele>47.124763</ele>
        <time>2022-12-18T15:43:57.661Z</time>
      </trkpt>
      <trkpt lat="46.45904" lon="-1.7142">
        <ele>46.715946</ele>
        <time>2022-12-18T15:43:59.660Z</time>
      </trkpt>
      <trkpt lat="46.45896" lon="-1.71403">
        <ele>46.872656</ele>
        <time>2022-12-18T15:44:01.661Z</time>
      </trkpt>
      <trkpt lat="46.45887" lon="-1.71392">
        <ele>47.083958</ele>
        <time>2022-12-18T15:44:03.655Z</time>
      </trkpt>
      <trkpt lat="46.45877" lon="-1.71384">
        <ele>47.282061</ele>
        <time>2022-12-18T15:44:05.662Z</time>
      </trkpt>
      <trkpt lat="46.45867" lon="-1.71378">
        <ele>47.459068</ele>
        <time>2022-12-18T15:44:07.659Z</time>
      </trkpt>
      <trkpt lat="46.45855" lon="-1.71372">
        <ele>47.69804</ele>
        <time>2022-12-18T15:44:10.661Z</time>
      </trkpt>
      <trkpt lat="46.45844" lon="-1.71366">
        <ele>47.895522</ele>
        <time>2022-12-18T15:44:13.655Z</time>
      </trkpt>
      <trkpt lat="46.45835" lon="-1.71362">
        <ele>48.062273</ele>
        <time>2022-12-18T15:44:16.649Z</time>
      </trkpt>
      <trkpt lat="46.45825" lon="-1.71357">
        <ele>48.246475</ele>
        <time>2022-12-18T15:44:20.658Z</time>
      </trkpt>
      <trkpt lat="46.45815" lon="-1.71352">
        <ele>48.430319</ele>
        <time>2022-12-18T15:44:25.660Z</time>
      </trkpt>
      <trkpt lat="46.45805" lon="-1.71345">
        <ele>48.626189</ele>
        <time>2022-12-18T15:44:30.662Z</time>
      </trkpt>
      <trkpt lat="46.45795" lon="-1.71338">
        <ele>48.81508</ele>
        <time>2022-12-18T15:44:35.661Z</time>
      </trkpt>
      <trkpt lat="46.45788" lon="-1.71331">
        <ele>48.97408</ele>
        <time>2022-12-18T15:44:40.639Z</time>
      </trkpt>
      <trkpt lat="46.45779" lon="-1.71322">
        <ele>49.150565</ele>
        <time>2022-12-18T15:44:45.652Z</time>
      </trkpt>
      <trkpt lat="46.45772" lon="-1.71315">
        <ele>49.31072</ele>
        <time>2022-12-18T15:44:50.659Z</time>
      </trkpt>
      <trkpt lat="46.45763" lon="-1.71308">
        <ele>49.486176</ele>
        <time>2022-12-18T15:44:56.650Z</time>
      </trkpt>
      <trkpt lat="46.45754" lon="-1.71301">
        <ele>49.659634</ele>
        <time>2022-12-18T15:45:02.663Z</time>
      </trkpt>
      <trkpt lat="46.45746" lon="-1.71292">
        <ele>49.83219</ele>
        <time>2022-12-18T15:45:08.636Z</time>
      </trkpt>
      <trkpt lat="46.45738" lon="-1.71285">
        <ele>49.93932</ele>
        <time>2022-12-18T15:45:13.658Z</time>
      </trkpt>
      <trkpt lat="46.45728" lon="-1.71276">
        <ele>50.068963</ele>
        <time>2022-12-18T15:45:18.650Z</time>
      </trkpt>
      <trkpt lat="46.45719" lon="-1.71268">
        <ele>50.185907</ele>
        <time>2022-12-18T15:45:22.655Z</time>
      </trkpt>
      <trkpt lat="46.4571" lon="-1.7126">
        <ele>50.313889</ele>
        <time>2022-12-18T15:45:26.660Z</time>
      </trkpt>
      <trkpt lat="46.457" lon="-1.71251">
        <ele>50.446983</ele>
        <time>2022-12-18T15:45:30.659Z</time>
      </trkpt>
      <trkpt lat="46.4569" lon="-1.71242">
        <ele>50.575534</ele>
        <time>2022-12-18T15:45:34.651Z</time>
      </trkpt>
      <trkpt lat="46.45682" lon="-1.71236">
        <ele>50.680263</ele>
        <time>2022-12-18T15:45:37.652Z</time>
      </trkpt>
      <trkpt lat="46.45672" lon="-1.71228">
        <ele>50.816337</ele>
        <time>2022-12-18T15:45:41.658Z</time>
      </trkpt>
      <trkpt lat="46.45663" lon="-1.71223">
        <ele>50.922832</ele>
        <time>2022-12-18T15:45:44.664Z</time>
      </trkpt>
      <trkpt lat="46.45654" lon="-1.71217">
        <ele>51.029168</ele>
        <time>2022-12-18T15:45:47.657Z</time>
      </trkpt>
      <trkpt lat="46.45645" lon="-1.71212">
        <ele>51.140189</ele>
        <time>2022-12-18T15:45:50.664Z</time>
      </trkpt>
      <trkpt lat="46.45636" lon="-1.71208">
        <ele>51.245867</ele>
        <time>2022-12-18T15:45:53.659Z</time>
      </trkpt>
      <trkpt lat="46.45625" lon="-1.71204">
        <ele>51.37935</ele>
        <time>2022-12-18T15:45:57.657Z</time>
      </trkpt>
      <trkpt lat="46.45614" lon="-1.712">
        <ele>51.502704</ele>
        <time>2022-12-18T15:46:01.661Z</time>
      </trkpt>
      <trkpt lat="46.45604" lon="-1.71205">
        <ele>51.630804</ele>
        <time>2022-12-18T15:46:06.660Z</time>
      </trkpt>
      <trkpt lat="46.45594" lon="-1.71205">
        <ele>51.736793</ele>
        <time>2022-12-18T15:46:09.662Z</time>
      </trkpt>
      <trkpt lat="46.45584" lon="-1.71203">
        <ele>51.848433</ele>
        <time>2022-12-18T15:46:12.659Z</time>
      </trkpt>
      <trkpt lat="46.45573" lon="-1.71201">
        <ele>51.700838</ele>
        <time>2022-12-18T15:46:15.646Z</time>
      </trkpt>
      <trkpt lat="46.45562" lon="-1.71199">
        <ele>51.55176</ele>
        <time>2022-12-18T15:46:18.660Z</time>
      </trkpt>
      <trkpt lat="46.45552" lon="-1.71194">
        <ele>51.411693</ele>
        <time>2022-12-18T15:46:21.656Z</time>
      </trkpt>
      <trkpt lat="46.45542" lon="-1.71187">
        <ele>51.249517</ele>
        <time>2022-12-18T15:46:25.661Z</time>
      </trkpt>
      <trkpt lat="46.45531" lon="-1.71186">
        <ele>51.105543</ele>
        <time>2022-12-18T15:46:28.668Z</time>
      </trkpt>
      <trkpt lat="46.45519" lon="-1.71183">
        <ele>50.93725</ele>
        <time>2022-12-18T15:46:31.635Z</time>
      </trkpt>
      <trkpt lat="46.45507" lon="-1.7118">
        <ele>50.772802</ele>
        <time>2022-12-18T15:46:34.661Z</time>
      </trkpt>
      <trkpt lat="46.45496" lon="-1.71177">
        <ele>50.616553</ele>
        <time>2022-12-18T15:46:37.667Z</time>
      </trkpt>
      <trkpt lat="46.45486" lon="-1.71176">
        <ele>50.483394</ele>
        <time>2022-12-18T15:46:40.658Z</time>
      </trkpt>
      <trkpt lat="46.45472" lon="-1.71169">
        <ele>50.275386</ele>
        <time>2022-12-18T15:47:36.643Z</time>
      </trkpt>
      <trkpt lat="46.45461" lon="-1.71164">
        <ele>50.127594</ele>
        <time>2022-12-18T15:47:43.656Z</time>
      </trkpt>
      <trkpt lat="46.45451" lon="-1.71158">
        <ele>49.972742</ele>
        <time>2022-12-18T15:47:47.655Z</time>
      </trkpt>
      <trkpt lat="46.45442" lon="-1.71152">
        <ele>49.841267</ele>
        <time>2022-12-18T15:47:50.661Z</time>
      </trkpt>
      <trkpt lat="46.45434" lon="-1.71143">
        <ele>49.704615</ele>
        <time>2022-12-18T15:47:53.656Z</time>
      </trkpt>
      <trkpt lat="46.45426" lon="-1.71133">
        <ele>49.556165</ele>
        <time>2022-12-18T15:47:56.657Z</time>
      </trkpt>
      <trkpt lat="46.45419" lon="-1.71121">
        <ele>49.404278</ele>
        <time>2022-12-18T15:47:59.661Z</time>
      </trkpt>
      <trkpt lat="46.45411" lon="-1.71108">
        <ele>49.605753</ele>
        <time>2022-12-18T15:48:02.660Z</time>
      </trkpt>
      <trkpt lat="46.45403" lon="-1.71093">
        <ele>49.845324</ele>
        <time>2022-12-18T15:48:05.662Z</time>
      </trkpt>
      <trkpt lat="46.45397" lon="-1.71082">
        <ele>50.019465</ele>
        <time>2022-12-18T15:48:07.654Z</time>
      </trkpt>
      <trkpt lat="46.4539" lon="-1.71072">
        <ele>50.197371</ele>
        <time>2022-12-18T15:48:09.663Z</time>
      </trkpt>
      <trkpt lat="46.45383" lon="-1.71062">
        <ele>50.38082</ele>
        <time>2022-12-18T15:48:11.661Z</time>
      </trkpt>
      <trkpt lat="46.45374" lon="-1.7105">
        <ele>50.592508</ele>
        <time>2022-12-18T15:48:14.661Z</time>
      </trkpt>
      <trkpt lat="46.45366" lon="-1.71042">
        <ele>50.776413</ele>
        <time>2022-12-18T15:48:17.658Z</time>
      </trkpt>
      <trkpt lat="46.45359" lon="-1.71033">
        <ele>50.957411</ele>
        <time>2022-12-18T15:48:20.659Z</time>
      </trkpt>
      <trkpt lat="46.4535" lon="-1.71023">
        <ele>51.159175</ele>
        <time>2022-12-18T15:48:24.659Z</time>
      </trkpt>
      <trkpt lat="46.45344" lon="-1.71011">
        <ele>51.347609</ele>
        <time>2022-12-18T15:48:28.659Z</time>
      </trkpt>
      <trkpt lat="46.45339" lon="-1.70996">
        <ele>51.550353</ele>
        <time>2022-12-18T15:48:32.655Z</time>
      </trkpt>
      <trkpt lat="46.45336" lon="-1.70982">
        <ele>51.742863</ele>
        <time>2022-12-18T15:48:36.659Z</time>
      </trkpt>
      <trkpt lat="46.45334" lon="-1.70967">
        <ele>51.930764</ele>
        <time>2022-12-18T15:48:40.662Z</time>
      </trkpt>
      <trkpt lat="46.45331" lon="-1.70951">
        <ele>52.139493</ele>
        <time>2022-12-18T15:48:44.661Z</time>
      </trkpt>
      <trkpt lat="46.45329" lon="-1.70937">
        <ele>52.327754</ele>
        <time>2022-12-18T15:48:48.658Z</time>
      </trkpt>
      <trkpt lat="46.45326" lon="-1.70922">
        <ele>52.523696</ele>
        <time>2022-12-18T15:48:53.670Z</time>
      </trkpt>
      <trkpt lat="46.45324" lon="-1.70907">
        <ele>52.683549</ele>
        <time>2022-12-18T15:48:57.661Z</time>
      </trkpt>
      <trkpt lat="46.45321" lon="-1.70892">
        <ele>52.596815</ele>
        <time>2022-12-18T15:49:01.663Z</time>
      </trkpt>
      <trkpt lat="46.45319" lon="-1.70878">
        <ele>52.512521</ele>
        <time>2022-12-18T15:49:05.661Z</time>
      </trkpt>
      <trkpt lat="46.45317" lon="-1.70862">
        <ele>52.42207</ele>
        <time>2022-12-18T15:49:09.660Z</time>
      </trkpt>
      <trkpt lat="46.45314" lon="-1.70847">
        <ele>52.331517</ele>
        <time>2022-12-18T15:49:13.638Z</time>
      </trkpt>
      <trkpt lat="46.45312" lon="-1.70834">
        <ele>52.257526</ele>
        <time>2022-12-18T15:49:16.642Z</time>
      </trkpt>
      <trkpt lat="46.4531" lon="-1.70821">
        <ele>52.182699</ele>
        <time>2022-12-18T15:49:19.661Z</time>
      </trkpt>
      <trkpt lat="46.45307" lon="-1.70808">
        <ele>52.105287</ele>
        <time>2022-12-18T15:49:22.653Z</time>
      </trkpt>
      <trkpt lat="46.45304" lon="-1.70795">
        <ele>52.027888</ele>
        <time>2022-12-18T15:49:25.662Z</time>
      </trkpt>
      <trkpt lat="46.45301" lon="-1.70782">
        <ele>51.950756</ele>
        <time>2022-12-18T15:49:28.657Z</time>
      </trkpt>
      <trkpt lat="46.45298" lon="-1.70765">
        <ele>51.849488</ele>
        <time>2022-12-18T15:49:32.659Z</time>
      </trkpt>
      <trkpt lat="46.45295" lon="-1.70751">
        <ele>51.767006</ele>
        <time>2022-12-18T15:49:35.648Z</time>
      </trkpt>
      <trkpt lat="46.45293" lon="-1.70737">
        <ele>51.682124</ele>
        <time>2022-12-18T15:49:38.660Z</time>
      </trkpt>
      <trkpt lat="46.4529" lon="-1.70724">
        <ele>51.604725</ele>
        <time>2022-12-18T15:49:41.661Z</time>
      </trkpt>
      <trkpt lat="46.45286" lon="-1.70707">
        <ele>51.504552</ele>
        <time>2022-12-18T15:49:44.662Z</time>
      </trkpt>
      <trkpt lat="46.45283" lon="-1.70693">
        <ele>51.421262</ele>
        <time>2022-12-18T15:49:47.666Z</time>
      </trkpt>
      <trkpt lat="46.4528" lon="-1.70677">
        <ele>51.326557</ele>
        <time>2022-12-18T15:49:50.653Z</time>
      </trkpt>
      <trkpt lat="46.45278" lon="-1.70661">
        <ele>51.234516</ele>
        <time>2022-12-18T15:49:53.660Z</time>
      </trkpt>
      <trkpt lat="46.45276" lon="-1.70643">
        <ele>51.386417</ele>
        <time>2022-12-18T15:49:57.661Z</time>
      </trkpt>
      <trkpt lat="46.45274" lon="-1.70627">
        <ele>51.593856</ele>
        <time>2022-12-18T15:50:00.664Z</time>
      </trkpt>
      <trkpt lat="46.45272" lon="-1.70609">
        <ele>51.820294</ele>
        <time>2022-12-18T15:50:03.656Z</time>
      </trkpt>
      <trkpt lat="46.4527" lon="-1.70593">
        <ele>52.025752</ele>
        <time>2022-12-18T15:50:06.660Z</time>
      </trkpt>
      <trkpt lat="46.45268" lon="-1.70578">
        <ele>52.227789</ele>
        <time>2022-12-18T15:50:09.664Z</time>
      </trkpt>
      <trkpt lat="46.45265" lon="-1.70562">
        <ele>52.432828</ele>
        <time>2022-12-18T15:50:12.660Z</time>
      </trkpt>
      <trkpt lat="46.45262" lon="-1.70546">
        <ele>52.642243</ele>
        <time>2022-12-18T15:50:15.647Z</time>
      </trkpt>
      <trkpt lat="46.45261" lon="-1.70532">
        <ele>52.823133</ele>
        <time>2022-12-18T15:50:18.636Z</time>
      </trkpt>
      <trkpt lat="46.45257" lon="-1.70518">
        <ele>52.999649</ele>
        <time>2022-12-18T15:50:21.660Z</time>
      </trkpt>
      <trkpt lat="46.45254" lon="-1.70506">
        <ele>53.170551</ele>
        <time>2022-12-18T15:50:24.656Z</time>
      </trkpt>
      <trkpt lat="46.45251" lon="-1.70493">
        <ele>53.339104</ele>
        <time>2022-12-18T15:50:27.642Z</time>
      </trkpt>
      <trkpt lat="46.45248" lon="-1.70479">
        <ele>53.521605</ele>
        <time>2022-12-18T15:50:30.643Z</time>
      </trkpt>
      <trkpt lat="46.45245" lon="-1.70465">
        <ele>53.716915</ele>
        <time>2022-12-18T15:50:33.658Z</time>
      </trkpt>
      <trkpt lat="46.45242" lon="-1.70448">
        <ele>53.930219</ele>
        <time>2022-12-18T15:50:36.645Z</time>
      </trkpt>
      <trkpt lat="46.45239" lon="-1.70431">
        <ele>54.149915</ele>
        <time>2022-12-18T15:50:39.648Z</time>
      </trkpt>
      <trkpt lat="46.45236" lon="-1.70416">
        <ele>54.351792</ele>
        <time>2022-12-18T15:50:42.640Z</time>
      </trkpt>
      <trkpt lat="46.45233" lon="-1.70403">
        <ele>54.532443</ele>
        <time>2022-12-18T15:50:45.658Z</time>
      </trkpt>
      <trkpt lat="46.4523" lon="-1.70388">
        <ele>54.799585</ele>
        <time>2022-12-18T15:50:48.663Z</time>
      </trkpt>
      <trkpt lat="46.45226" lon="-1.70376">
        <ele>55.030407</ele>
        <time>2022-12-18T15:50:51.662Z</time>
      </trkpt>
      <trkpt lat="46.45223" lon="-1.70362">
        <ele>55.278283</ele>
        <time>2022-12-18T15:50:54.661Z</time>
      </trkpt>
      <trkpt lat="46.4522" lon="-1.7035">
        <ele>55.505769</ele>
        <time>2022-12-18T15:50:57.663Z</time>
      </trkpt>
      <trkpt lat="46.45217" lon="-1.70336">
        <ele>55.751923</ele>
        <time>2022-12-18T15:51:00.654Z</time>
      </trkpt>
      <trkpt lat="46.45213" lon="-1.70321">
        <ele>56.026351</ele>
        <time>2022-12-18T15:51:03.661Z</time>
      </trkpt>
      <trkpt lat="46.45211" lon="-1.70307">
        <ele>56.274464</ele>
        <time>2022-12-18T15:51:06.661Z</time>
      </trkpt>
      <trkpt lat="46.45207" lon="-1.70293">
        <ele>56.529531</ele>
        <time>2022-12-18T15:51:09.659Z</time>
      </trkpt>
      <trkpt lat="46.45205" lon="-1.70276">
        <ele>56.827714</ele>
        <time>2022-12-18T15:51:12.660Z</time>
      </trkpt>
      <trkpt lat="46.45201" lon="-1.7026">
        <ele>57.114343</ele>
        <time>2022-12-18T15:51:15.660Z</time>
      </trkpt>
      <trkpt lat="46.45195" lon="-1.70247">
        <ele>57.380859</ele>
        <time>2022-12-18T15:51:18.661Z</time>
      </trkpt>
      <trkpt lat="46.45187" lon="-1.70236">
        <ele>57.657109</ele>
        <time>2022-12-18T15:51:21.658Z</time>
      </trkpt>
      <trkpt lat="46.45183" lon="-1.70219">
        <ele>57.957459</ele>
        <time>2022-12-18T15:51:24.662Z</time>
      </trkpt>
      <trkpt lat="46.45185" lon="-1.70203">
        <ele>58.236722</ele>
        <time>2022-12-18T15:51:27.656Z</time>
      </trkpt>
      <trkpt lat="46.45189" lon="-1.70191">
        <ele>58.470695</ele>
        <time>2022-12-18T15:51:31.643Z</time>
      </trkpt>
      <trkpt lat="46.45192" lon="-1.70177">
        <ele>58.720116</ele>
        <time>2022-12-18T15:51:35.640Z</time>
      </trkpt>
      <trkpt lat="46.45194" lon="-1.70163">
        <ele>58.974088</ele>
        <time>2022-12-18T15:51:38.663Z</time>
      </trkpt>
      <trkpt lat="46.45195" lon="-1.70147">
        <ele>58.895416</ele>
        <time>2022-12-18T15:51:41.647Z</time>
      </trkpt>
      <trkpt lat="46.45196" lon="-1.7013">
        <ele>58.809489</ele>
        <time>2022-12-18T15:51:44.660Z</time>
      </trkpt>
      <trkpt lat="46.45197" lon="-1.70113">
        <ele>58.722331</ele>
        <time>2022-12-18T15:51:47.656Z</time>
      </trkpt>
      <trkpt lat="46.45198" lon="-1.70096">
        <ele>58.635464</ele>
        <time>2022-12-18T15:51:50.668Z</time>
      </trkpt>
      <trkpt lat="46.45199" lon="-1.70079">
        <ele>58.548469</ele>
        <time>2022-12-18T15:51:53.660Z</time>
      </trkpt>
      <trkpt lat="46.452" lon="-1.70063">
        <ele>58.464479</ele>
        <time>2022-12-18T15:51:56.656Z</time>
      </trkpt>
      <trkpt lat="46.45202" lon="-1.70047">
        <ele>58.380489</ele>
        <time>2022-12-18T15:51:59.645Z</time>
      </trkpt>
      <trkpt lat="46.45203" lon="-1.70031">
        <ele>58.29599</ele>
        <time>2022-12-18T15:52:02.650Z</time>
      </trkpt>
      <trkpt lat="46.45205" lon="-1.70015">
        <ele>58.213019</ele>
        <time>2022-12-18T15:52:05.651Z</time>
      </trkpt>
      <trkpt lat="46.45207" lon="-1.69998">
        <ele>58.12831</ele>
        <time>2022-12-18T15:52:08.664Z</time>
      </trkpt>
      <trkpt lat="46.45209" lon="-1.69982">
        <ele>58.044248</ele>
        <time>2022-12-18T15:52:11.662Z</time>
      </trkpt>
      <trkpt lat="46.4521" lon="-1.69966">
        <ele>57.957202</ele>
        <time>2022-12-18T15:52:14.658Z</time>
      </trkpt>
      <trkpt lat="46.45212" lon="-1.69948">
        <ele>57.863847</ele>
        <time>2022-12-18T15:52:17.640Z</time>
      </trkpt>
      <trkpt lat="46.45213" lon="-1.6993">
        <ele>57.77128</ele>
        <time>2022-12-18T15:52:20.636Z</time>
      </trkpt>
      <trkpt lat="46.45215" lon="-1.69914">
        <ele>57.688095</ele>
        <time>2022-12-18T15:52:23.667Z</time>
      </trkpt>
      <trkpt lat="46.45215" lon="-1.69899">
        <ele>57.577448</ele>
        <time>2022-12-18T15:52:26.658Z</time>
      </trkpt>
      <trkpt lat="46.45217" lon="-1.69889">
        <ele>57.423798</ele>
        <time>2022-12-18T15:52:51.979Z</time>
      </trkpt>
      <trkpt lat="46.45218" lon="-1.69873">
        <ele>57.191729</ele>
        <time>2022-12-18T15:59:29.647Z</time>
      </trkpt>
      <trkpt lat="46.4522" lon="-1.69859">
        <ele>56.984584</ele>
        <time>2022-12-18T15:59:32.664Z</time>
      </trkpt>
      <trkpt lat="46.45222" lon="-1.6984">
        <ele>56.706954</ele>
        <time>2022-12-18T15:59:35.664Z</time>
      </trkpt>
      <trkpt lat="46.45225" lon="-1.69826">
        <ele>56.502467</ele>
        <time>2022-12-18T15:59:37.666Z</time>
      </trkpt>
      <trkpt lat="46.45227" lon="-1.69813">
        <ele>56.307487</ele>
        <time>2022-12-18T15:59:39.663Z</time>
      </trkpt>
      <trkpt lat="46.45232" lon="-1.69796">
        <ele>56.035022</ele>
        <time>2022-12-18T15:59:42.664Z</time>
      </trkpt>
      <trkpt lat="46.45239" lon="-1.69783">
        <ele>55.796827</ele>
        <time>2022-12-18T15:59:45.658Z</time>
      </trkpt>
      <trkpt lat="46.45246" lon="-1.6977">
        <ele>55.56724</ele>
        <time>2022-12-18T15:59:48.664Z</time>
      </trkpt>
      <trkpt lat="46.45253" lon="-1.69758">
        <ele>55.320132</ele>
        <time>2022-12-18T15:59:51.665Z</time>
      </trkpt>
      <trkpt lat="46.45261" lon="-1.69743">
        <ele>55.063929</ele>
        <time>2022-12-18T15:59:54.662Z</time>
      </trkpt>
      <trkpt lat="46.45267" lon="-1.6973">
        <ele>54.829262</ele>
        <time>2022-12-18T15:59:57.665Z</time>
      </trkpt>
      <trkpt lat="46.45271" lon="-1.69715">
        <ele>54.594783</ele>
        <time>2022-12-18T16:00:00.665Z</time>
      </trkpt>
      <trkpt lat="46.45272" lon="-1.69698">
        <ele>54.34607</ele>
        <time>2022-12-18T16:00:03.665Z</time>
      </trkpt>
      <trkpt lat="46.45271" lon="-1.6968">
        <ele>54.087002</ele>
        <time>2022-12-18T16:00:06.666Z</time>
      </trkpt>
      <trkpt lat="46.45266" lon="-1.69662">
        <ele>53.824766</ele>
        <time>2022-12-18T16:00:09.639Z</time>
      </trkpt>
      <trkpt lat="46.45262" lon="-1.69651">
        <ele>53.655475</ele>
        <time>2022-12-18T16:00:11.664Z</time>
      </trkpt>
      <trkpt lat="46.45254" lon="-1.69636">
        <ele>53.418485</ele>
        <time>2022-12-18T16:00:14.669Z</time>
      </trkpt>
      <trkpt lat="46.45247" lon="-1.69621">
        <ele>53.184745</ele>
        <time>2022-12-18T16:00:17.712Z</time>
      </trkpt>
      <trkpt lat="46.45248" lon="-1.69604">
        <ele>52.971446</ele>
        <time>2022-12-18T16:00:20.645Z</time>
      </trkpt>
      <trkpt lat="46.45247" lon="-1.69586">
        <ele>52.752163</ele>
        <time>2022-12-18T16:00:23.641Z</time>
      </trkpt>
      <trkpt lat="46.45244" lon="-1.69567">
        <ele>52.504849</ele>
        <time>2022-12-18T16:00:26.665Z</time>
      </trkpt>
      <trkpt lat="46.45241" lon="-1.69555">
        <ele>52.338445</ele>
        <time>2022-12-18T16:00:28.644Z</time>
      </trkpt>
      <trkpt lat="46.45237" lon="-1.69536">
        <ele>52.095436</ele>
        <time>2022-12-18T16:00:31.655Z</time>
      </trkpt>
      <trkpt lat="46.45234" lon="-1.69524">
        <ele>51.929862</ele>
        <time>2022-12-18T16:00:33.648Z</time>
      </trkpt>
      <trkpt lat="46.4523" lon="-1.69505">
        <ele>51.685076</ele>
        <time>2022-12-18T16:00:36.665Z</time>
      </trkpt>
      <trkpt lat="46.45227" lon="-1.69492">
        <ele>51.512924</ele>
        <time>2022-12-18T16:00:38.650Z</time>
      </trkpt>
      <trkpt lat="46.45224" lon="-1.69479">
        <ele>51.338373</ele>
        <time>2022-12-18T16:00:40.642Z</time>
      </trkpt>
      <trkpt lat="46.45221" lon="-1.69466">
        <ele>51.161462</ele>
        <time>2022-12-18T16:00:42.676Z</time>
      </trkpt>
      <trkpt lat="46.45218" lon="-1.69454">
        <ele>50.995272</ele>
        <time>2022-12-18T16:00:44.640Z</time>
      </trkpt>
      <trkpt lat="46.45215" lon="-1.69441">
        <ele>50.829101</ele>
        <time>2022-12-18T16:00:46.660Z</time>
      </trkpt>
      <trkpt lat="46.45212" lon="-1.69428">
        <ele>50.66045</ele>
        <time>2022-12-18T16:00:48.664Z</time>
      </trkpt>
      <trkpt lat="46.45208" lon="-1.6941">
        <ele>50.534437</ele>
        <time>2022-12-18T16:00:51.666Z</time>
      </trkpt>
      <trkpt lat="46.45203" lon="-1.69393">
        <ele>50.477463</ele>
        <time>2022-12-18T16:00:54.666Z</time>
      </trkpt>
      <trkpt lat="46.452" lon="-1.69375">
        <ele>50.422273</ele>
        <time>2022-12-18T16:00:57.661Z</time>
      </trkpt>
      <trkpt lat="46.45195" lon="-1.69357">
        <ele>50.364997</ele>
        <time>2022-12-18T16:01:00.661Z</time>
      </trkpt>
      <trkpt lat="46.45192" lon="-1.69344">
        <ele>50.322124</ele>
        <time>2022-12-18T16:01:02.668Z</time>
      </trkpt>
      <trkpt lat="46.45189" lon="-1.6933">
        <ele>50.278827</ele>
        <time>2022-12-18T16:01:04.661Z</time>
      </trkpt>
      <trkpt lat="46.45186" lon="-1.69317">
        <ele>50.23695</ele>
        <time>2022-12-18T16:01:06.666Z</time>
      </trkpt>
      <trkpt lat="46.45182" lon="-1.69304">
        <ele>50.195075</ele>
        <time>2022-12-18T16:01:08.666Z</time>
      </trkpt>
      <trkpt lat="46.45179" lon="-1.69291">
        <ele>50.153768</ele>
        <time>2022-12-18T16:01:10.665Z</time>
      </trkpt>
      <trkpt lat="46.45175" lon="-1.69273">
        <ele>50.097083</ele>
        <time>2022-12-18T16:01:13.661Z</time>
      </trkpt>
      <trkpt lat="46.45171" lon="-1.69257">
        <ele>50.045524</ele>
        <time>2022-12-18T16:01:16.662Z</time>
      </trkpt>
      <trkpt lat="46.45168" lon="-1.69241">
        <ele>49.993798</ele>
        <time>2022-12-18T16:01:19.667Z</time>
      </trkpt>
      <trkpt lat="46.45164" lon="-1.69224">
        <ele>49.941383</ele>
        <time>2022-12-18T16:01:22.668Z</time>
      </trkpt>
      <trkpt lat="46.4516" lon="-1.69208">
        <ele>49.890386</ele>
        <time>2022-12-18T16:01:25.660Z</time>
      </trkpt>
      <trkpt lat="46.45156" lon="-1.69193">
        <ele>49.840964</ele>
        <time>2022-12-18T16:01:28.666Z</time>
      </trkpt>
      <trkpt lat="46.45153" lon="-1.69178">
        <ele>49.79467</ele>
        <time>2022-12-18T16:01:31.669Z</time>
      </trkpt>
      <trkpt lat="46.4515" lon="-1.69164">
        <ele>49.916539</ele>
        <time>2022-12-18T16:01:34.661Z</time>
      </trkpt>
      <trkpt lat="46.45147" lon="-1.6915">
        <ele>50.089217</ele>
        <time>2022-12-18T16:01:37.669Z</time>
      </trkpt>
      <trkpt lat="46.45143" lon="-1.69136">
        <ele>50.258132</ele>
        <time>2022-12-18T16:01:40.665Z</time>
      </trkpt>
      <trkpt lat="46.4514" lon="-1.69123">
        <ele>50.422481</ele>
        <time>2022-12-18T16:01:43.665Z</time>
      </trkpt>
      <trkpt lat="46.45137" lon="-1.6911">
        <ele>50.580222</ele>
        <time>2022-12-18T16:01:46.662Z</time>
      </trkpt>
      <trkpt lat="46.45134" lon="-1.69097">
        <ele>50.737411</ele>
        <time>2022-12-18T16:01:49.667Z</time>
      </trkpt>
      <trkpt lat="46.4513" lon="-1.69085">
        <ele>50.891356</ele>
        <time>2022-12-18T16:01:52.662Z</time>
      </trkpt>
      <trkpt lat="46.45126" lon="-1.69069">
        <ele>51.092005</ele>
        <time>2022-12-18T16:01:56.665Z</time>
      </trkpt>
      <trkpt lat="46.45122" lon="-1.69053">
        <ele>51.290985</ele>
        <time>2022-12-18T16:02:00.666Z</time>
      </trkpt>
      <trkpt lat="46.45118" lon="-1.69037">
        <ele>51.483355</ele>
        <time>2022-12-18T16:02:04.646Z</time>
      </trkpt>
      <trkpt lat="46.45115" lon="-1.69022">
        <ele>51.669681</ele>
        <time>2022-12-18T16:02:08.665Z</time>
      </trkpt>
      <trkpt lat="46.45112" lon="-1.69009">
        <ele>51.831817</ele>
        <time>2022-12-18T16:02:12.668Z</time>
      </trkpt>
      <trkpt lat="46.45109" lon="-1.68994">
        <ele>52.007216</ele>
        <time>2022-12-18T16:02:16.665Z</time>
      </trkpt>
      <trkpt lat="46.45106" lon="-1.6898">
        <ele>52.184989</ele>
        <time>2022-12-18T16:02:20.644Z</time>
      </trkpt>
      <trkpt lat="46.45102" lon="-1.68966">
        <ele>52.355956</ele>
        <time>2022-12-18T16:02:24.663Z</time>
      </trkpt>
      <trkpt lat="46.45099" lon="-1.68951">
        <ele>52.53568</ele>
        <time>2022-12-18T16:02:28.665Z</time>
      </trkpt>
      <trkpt lat="46.45095" lon="-1.68937">
        <ele>52.713779</ele>
        <time>2022-12-18T16:02:32.666Z</time>
      </trkpt>
      <trkpt lat="46.45091" lon="-1.68922">
        <ele>52.909348</ele>
        <time>2022-12-18T16:02:36.666Z</time>
      </trkpt>
      <trkpt lat="46.45088" lon="-1.68907">
        <ele>53.119135</ele>
        <time>2022-12-18T16:02:40.664Z</time>
      </trkpt>
      <trkpt lat="46.45085" lon="-1.68893">
        <ele>53.325056</ele>
        <time>2022-12-18T16:02:44.650Z</time>
      </trkpt>
      <trkpt lat="46.45081" lon="-1.68878">
        <ele>53.536097</ele>
        <time>2022-12-18T16:02:48.648Z</time>
      </trkpt>
      <trkpt lat="46.45078" lon="-1.68864">
        <ele>53.740731</ele>
        <time>2022-12-18T16:02:52.659Z</time>
      </trkpt>
      <trkpt lat="46.45075" lon="-1.68849">
        <ele>53.951809</ele>
        <time>2022-12-18T16:02:56.663Z</time>
      </trkpt>
      <trkpt lat="46.45071" lon="-1.68834">
        <ele>54.172533</ele>
        <time>2022-12-18T16:03:00.661Z</time>
      </trkpt>
      <trkpt lat="46.45068" lon="-1.68818">
        <ele>54.393422</ele>
        <time>2022-12-18T16:03:04.669Z</time>
      </trkpt>
      <trkpt lat="46.45066" lon="-1.68803">
        <ele>54.59979</ele>
        <time>2022-12-18T16:03:08.668Z</time>
      </trkpt>
      <trkpt lat="46.45064" lon="-1.68788">
        <ele>54.806983</ele>
        <time>2022-12-18T16:03:12.666Z</time>
      </trkpt>
      <trkpt lat="46.45062" lon="-1.68773">
        <ele>55.021333</ele>
        <time>2022-12-18T16:03:16.664Z</time>
      </trkpt>
      <trkpt lat="46.4506" lon="-1.68757">
        <ele>55.239976</ele>
        <time>2022-12-18T16:03:20.667Z</time>
      </trkpt>
      <trkpt lat="46.45058" lon="-1.68741">
        <ele>55.457281</ele>
        <time>2022-12-18T16:03:24.665Z</time>
      </trkpt>
      <trkpt lat="46.45056" lon="-1.68726">
        <ele>55.668964</ele>
        <time>2022-12-18T16:03:28.668Z</time>
      </trkpt>
      <trkpt lat="46.45051" lon="-1.68711">
        <ele>55.887411</ele>
        <time>2022-12-18T16:03:32.651Z</time>
      </trkpt>
      <trkpt lat="46.45047" lon="-1.68696">
        <ele>56.108373</ele>
        <time>2022-12-18T16:03:36.670Z</time>
      </trkpt>
      <trkpt lat="46.45042" lon="-1.68682">
        <ele>56.317059</ele>
        <time>2022-12-18T16:03:40.667Z</time>
      </trkpt>
      <trkpt lat="46.45036" lon="-1.68669">
        <ele>56.501512</ele>
        <time>2022-12-18T16:03:44.663Z</time>
      </trkpt>
      <trkpt lat="46.45029" lon="-1.68657">
        <ele>56.681292</ele>
        <time>2022-12-18T16:03:48.663Z</time>
      </trkpt>
      <trkpt lat="46.45021" lon="-1.68646">
        <ele>56.870013</ele>
        <time>2022-12-18T16:03:52.660Z</time>
      </trkpt>
      <trkpt lat="46.45012" lon="-1.68635">
        <ele>57.057826</ele>
        <time>2022-12-18T16:03:56.660Z</time>
      </trkpt>
      <trkpt lat="46.45004" lon="-1.68625">
        <ele>57.241009</ele>
        <time>2022-12-18T16:04:00.661Z</time>
      </trkpt>
      <trkpt lat="46.44994" lon="-1.68616">
        <ele>57.428172</ele>
        <time>2022-12-18T16:04:04.645Z</time>
      </trkpt>
      <trkpt lat="46.44984" lon="-1.68607">
        <ele>57.628985</ele>
        <time>2022-12-18T16:04:08.662Z</time>
      </trkpt>
      <trkpt lat="46.44975" lon="-1.686">
        <ele>57.787279</ele>
        <time>2022-12-18T16:04:11.668Z</time>
      </trkpt>
      <trkpt lat="46.44968" lon="-1.68593">
        <ele>57.94256</ele>
        <time>2022-12-18T16:04:14.667Z</time>
      </trkpt>
      <trkpt lat="46.44959" lon="-1.68585">
        <ele>58.100023</ele>
        <time>2022-12-18T16:04:17.656Z</time>
      </trkpt>
      <trkpt lat="46.4495" lon="-1.68577">
        <ele>58.281989</ele>
        <time>2022-12-18T16:04:21.665Z</time>
      </trkpt>
      <trkpt lat="46.44941" lon="-1.68568">
        <ele>58.466299</ele>
        <time>2022-12-18T16:04:25.666Z</time>
      </trkpt>
      <trkpt lat="46.44931" lon="-1.68558">
        <ele>58.666312</ele>
        <time>2022-12-18T16:04:29.660Z</time>
      </trkpt>
      <trkpt lat="46.44921" lon="-1.6855">
        <ele>58.860861</ele>
        <time>2022-12-18T16:04:33.669Z</time>
      </trkpt>
      <trkpt lat="46.44913" lon="-1.68543">
        <ele>59.009717</ele>
        <time>2022-12-18T16:04:36.664Z</time>
      </trkpt>
      <trkpt lat="46.44905" lon="-1.68536">
        <ele>59.159769</ele>
        <time>2022-12-18T16:04:39.665Z</time>
      </trkpt>
      <trkpt lat="46.44898" lon="-1.68528">
        <ele>59.312813</ele>
        <time>2022-12-18T16:04:42.637Z</time>
      </trkpt>
      <trkpt lat="46.44889" lon="-1.68521">
        <ele>59.406767</ele>
        <time>2022-12-18T16:04:45.635Z</time>
      </trkpt>
      <trkpt lat="46.44882" lon="-1.68513">
        <ele>59.489277</ele>
        <time>2022-12-18T16:04:48.635Z</time>
      </trkpt>
      <trkpt lat="46.44871" lon="-1.68504">
        <ele>59.594878</ele>
        <time>2022-12-18T16:04:52.663Z</time>
      </trkpt>
      <trkpt lat="46.44862" lon="-1.68496">
        <ele>59.684641</ele>
        <time>2022-12-18T16:04:55.645Z</time>
      </trkpt>
      <trkpt lat="46.44854" lon="-1.68488">
        <ele>59.775465</ele>
        <time>2022-12-18T16:04:58.669Z</time>
      </trkpt>
      <trkpt lat="46.44845" lon="-1.6848">
        <ele>59.864909</ele>
        <time>2022-12-18T16:05:01.665Z</time>
      </trkpt>
      <trkpt lat="46.44836" lon="-1.68472">
        <ele>59.957537</ele>
        <time>2022-12-18T16:05:04.661Z</time>
      </trkpt>
      <trkpt lat="46.44827" lon="-1.68464">
        <ele>60.053347</ele>
        <time>2022-12-18T16:05:07.645Z</time>
      </trkpt>
      <trkpt lat="46.44817" lon="-1.68455">
        <ele>60.148738</ele>
        <time>2022-12-18T16:05:10.644Z</time>
      </trkpt>
      <trkpt lat="46.44809" lon="-1.68446">
        <ele>60.24327</ele>
        <time>2022-12-18T16:05:13.665Z</time>
      </trkpt>
      <trkpt lat="46.448" lon="-1.68436">
        <ele>60.340984</ele>
        <time>2022-12-18T16:05:16.647Z</time>
      </trkpt>
      <trkpt lat="46.44791" lon="-1.68425">
        <ele>60.443513</ele>
        <time>2022-12-18T16:05:19.661Z</time>
      </trkpt>
      <trkpt lat="46.44783" lon="-1.68414">
        <ele>60.542425</ele>
        <time>2022-12-18T16:05:22.668Z</time>
      </trkpt>
      <trkpt lat="46.44775" lon="-1.68402">
        <ele>60.640808</ele>
        <time>2022-12-18T16:05:25.662Z</time>
      </trkpt>
      <trkpt lat="46.44768" lon="-1.68388">
        <ele>60.743833</ele>
        <time>2022-12-18T16:05:28.663Z</time>
      </trkpt>
      <trkpt lat="46.44761" lon="-1.68375">
        <ele>60.848684</ele>
        <time>2022-12-18T16:05:31.663Z</time>
      </trkpt>
      <trkpt lat="46.44754" lon="-1.6836">
        <ele>60.892142</ele>
        <time>2022-12-18T16:05:34.661Z</time>
      </trkpt>
      <trkpt lat="46.44748" lon="-1.68345">
        <ele>60.864557</ele>
        <time>2022-12-18T16:05:37.664Z</time>
      </trkpt>
      <trkpt lat="46.44743" lon="-1.68329">
        <ele>60.836722</ele>
        <time>2022-12-18T16:05:40.662Z</time>
      </trkpt>
      <trkpt lat="46.44738" lon="-1.68313">
        <ele>60.809272</ele>
        <time>2022-12-18T16:05:43.657Z</time>
      </trkpt>
      <trkpt lat="46.44734" lon="-1.68298">
        <ele>60.782383</ele>
        <time>2022-12-18T16:05:46.666Z</time>
      </trkpt>
      <trkpt lat="46.4473" lon="-1.68282">
        <ele>60.755663</ele>
        <time>2022-12-18T16:05:49.662Z</time>
      </trkpt>
      <trkpt lat="46.44726" lon="-1.68267">
        <ele>60.729391</ele>
        <time>2022-12-18T16:05:52.663Z</time>
      </trkpt>
      <trkpt lat="46.44722" lon="-1.6825">
        <ele>60.701774</ele>
        <time>2022-12-18T16:05:55.667Z</time>
      </trkpt>
      <trkpt lat="46.44719" lon="-1.68235">
        <ele>60.675284</ele>
        <time>2022-12-18T16:05:58.658Z</time>
      </trkpt>
      <trkpt lat="46.44715" lon="-1.68218">
        <ele>60.647481</ele>
        <time>2022-12-18T16:06:01.665Z</time>
      </trkpt>
      <trkpt lat="46.44712" lon="-1.68201">
        <ele>60.620049</ele>
        <time>2022-12-18T16:06:04.670Z</time>
      </trkpt>
      <trkpt lat="46.4471" lon="-1.68185">
        <ele>60.594</ele>
        <time>2022-12-18T16:06:07.669Z</time>
      </trkpt>
      <trkpt lat="46.44708" lon="-1.68168">
        <ele>60.565491</ele>
        <time>2022-12-18T16:06:10.665Z</time>
      </trkpt>
      <trkpt lat="46.44706" lon="-1.68149">
        <ele>60.535406</ele>
        <time>2022-12-18T16:06:13.664Z</time>
      </trkpt>
      <trkpt lat="46.44704" lon="-1.68131">
        <ele>60.505631</ele>
        <time>2022-12-18T16:06:16.649Z</time>
      </trkpt>
      <trkpt lat="46.44703" lon="-1.68114">
        <ele>60.475589</ele>
        <time>2022-12-18T16:06:19.661Z</time>
      </trkpt>
      <trkpt lat="46.44701" lon="-1.68097">
        <ele>60.442976</ele>
        <time>2022-12-18T16:06:22.662Z</time>
      </trkpt>
      <trkpt lat="46.447" lon="-1.68081">
        <ele>60.412833</ele>
        <time>2022-12-18T16:06:25.665Z</time>
      </trkpt>
      <trkpt lat="46.44699" lon="-1.68064">
        <ele>60.379745</ele>
        <time>2022-12-18T16:06:28.667Z</time>
      </trkpt>
      <trkpt lat="46.44699" lon="-1.6805">
        <ele>60.353074</ele>
        <time>2022-12-18T16:06:30.662Z</time>
      </trkpt>
      <trkpt lat="46.44698" lon="-1.68037">
        <ele>60.326738</ele>
        <time>2022-12-18T16:06:32.668Z</time>
      </trkpt>
      <trkpt lat="46.44699" lon="-1.68022">
        <ele>60.298114</ele>
        <time>2022-12-18T16:06:34.666Z</time>
      </trkpt>
      <trkpt lat="46.44698" lon="-1.68008">
        <ele>60.270473</ele>
        <time>2022-12-18T16:06:36.664Z</time>
      </trkpt>
      <trkpt lat="46.44698" lon="-1.67994">
        <ele>60.244184</ele>
        <time>2022-12-18T16:06:38.636Z</time>
      </trkpt>
      <trkpt lat="46.44698" lon="-1.67981">
        <ele>60.218867</ele>
        <time>2022-12-18T16:06:40.666Z</time>
      </trkpt>
      <trkpt lat="46.44698" lon="-1.67967">
        <ele>60.192583</ele>
        <time>2022-12-18T16:06:42.668Z</time>
      </trkpt>
      <trkpt lat="46.447" lon="-1.67949">
        <ele>60.155748</ele>
        <time>2022-12-18T16:06:45.665Z</time>
      </trkpt>
      <trkpt lat="46.44702" lon="-1.6793">
        <ele>60.119367</ele>
        <time>2022-12-18T16:06:48.666Z</time>
      </trkpt>
      <trkpt lat="46.44703" lon="-1.67912">
        <ele>60.084444</ele>
        <time>2022-12-18T16:06:51.668Z</time>
      </trkpt>
      <trkpt lat="46.44705" lon="-1.67894">
        <ele>60.049333</ele>
        <time>2022-12-18T16:06:54.667Z</time>
      </trkpt>
      <trkpt lat="46.44708" lon="-1.67879">
        <ele>60.019067</ele>
        <time>2022-12-18T16:06:57.666Z</time>
      </trkpt>
      <trkpt lat="46.44709" lon="-1.67862">
        <ele>59.985404</ele>
        <time>2022-12-18T16:07:00.644Z</time>
      </trkpt>
      <trkpt lat="46.4471" lon="-1.67848">
        <ele>59.885557</ele>
        <time>2022-12-18T16:07:02.662Z</time>
      </trkpt>
      <trkpt lat="46.44711" lon="-1.67828">
        <ele>59.726153</ele>
        <time>2022-12-18T16:07:05.667Z</time>
      </trkpt>
      <trkpt lat="46.44712" lon="-1.67814">
        <ele>59.612282</ele>
        <time>2022-12-18T16:07:07.663Z</time>
      </trkpt>
      <trkpt lat="46.44713" lon="-1.678">
        <ele>59.507057</ele>
        <time>2022-12-18T16:07:09.660Z</time>
      </trkpt>
      <trkpt lat="46.44713" lon="-1.67787">
        <ele>59.398631</ele>
        <time>2022-12-18T16:07:11.667Z</time>
      </trkpt>
      <trkpt lat="46.44712" lon="-1.67774">
        <ele>59.294067</ele>
        <time>2022-12-18T16:07:13.646Z</time>
      </trkpt>
      <trkpt lat="46.44712" lon="-1.67754">
        <ele>59.138849</ele>
        <time>2022-12-18T16:07:16.675Z</time>
      </trkpt>
      <trkpt lat="46.44711" lon="-1.67741">
        <ele>59.033088</ele>
        <time>2022-12-18T16:07:18.647Z</time>
      </trkpt>
      <trkpt lat="46.4471" lon="-1.67727">
        <ele>58.925996</ele>
        <time>2022-12-18T16:07:20.666Z</time>
      </trkpt>
      <trkpt lat="46.44708" lon="-1.67713">
        <ele>58.809512</ele>
        <time>2022-12-18T16:07:22.665Z</time>
      </trkpt>
      <trkpt lat="46.44705" lon="-1.67698">
        <ele>58.691496</ele>
        <time>2022-12-18T16:07:24.664Z</time>
      </trkpt>
      <trkpt lat="46.44702" lon="-1.67684">
        <ele>58.573847</ele>
        <time>2022-12-18T16:07:26.662Z</time>
      </trkpt>
      <trkpt lat="46.447" lon="-1.6767">
        <ele>58.455436</ele>
        <time>2022-12-18T16:07:28.659Z</time>
      </trkpt>
      <trkpt lat="46.44696" lon="-1.67655">
        <ele>58.329701</ele>
        <time>2022-12-18T16:07:30.660Z</time>
      </trkpt>
      <trkpt lat="46.44692" lon="-1.6764">
        <ele>58.201674</ele>
        <time>2022-12-18T16:07:32.664Z</time>
      </trkpt>
      <trkpt lat="46.44687" lon="-1.67625">
        <ele>58.070546</ele>
        <time>2022-12-18T16:07:34.673Z</time>
      </trkpt>
      <trkpt lat="46.44682" lon="-1.6761">
        <ele>57.942736</ele>
        <time>2022-12-18T16:07:36.666Z</time>
      </trkpt>
      <trkpt lat="46.44677" lon="-1.67595">
        <ele>57.799358</ele>
        <time>2022-12-18T16:07:38.667Z</time>
      </trkpt>
      <trkpt lat="46.44671" lon="-1.6758">
        <ele>57.645271</ele>
        <time>2022-12-18T16:07:40.663Z</time>
      </trkpt>
      <trkpt lat="46.44665" lon="-1.67567">
        <ele>57.497613</ele>
        <time>2022-12-18T16:07:42.663Z</time>
      </trkpt>
      <trkpt lat="46.44658" lon="-1.67553">
        <ele>57.351403</ele>
        <time>2022-12-18T16:07:44.662Z</time>
      </trkpt>
      <trkpt lat="46.44652" lon="-1.6754">
        <ele>57.208129</ele>
        <time>2022-12-18T16:07:46.651Z</time>
      </trkpt>
      <trkpt lat="46.44646" lon="-1.67527">
        <ele>57.075036</ele>
        <time>2022-12-18T16:07:48.662Z</time>
      </trkpt>
      <trkpt lat="46.4464" lon="-1.67516">
        <ele>56.946119</ele>
        <time>2022-12-18T16:07:50.663Z</time>
      </trkpt>
      <trkpt lat="46.44635" lon="-1.67505">
        <ele>56.827699</ele>
        <time>2022-12-18T16:07:52.664Z</time>
      </trkpt>
      <trkpt lat="46.44629" lon="-1.67492">
        <ele>56.692472</ele>
        <time>2022-12-18T16:07:54.680Z</time>
      </trkpt>
      <trkpt lat="46.44623" lon="-1.6748">
        <ele>56.557225</ele>
        <time>2022-12-18T16:07:56.668Z</time>
      </trkpt>
      <trkpt lat="46.44617" lon="-1.67467">
        <ele>56.415402</ele>
        <time>2022-12-18T16:07:58.662Z</time>
      </trkpt>
      <trkpt lat="46.4461" lon="-1.67453">
        <ele>56.264769</ele>
        <time>2022-12-18T16:08:00.666Z</time>
      </trkpt>
      <trkpt lat="46.44603" lon="-1.67439">
        <ele>56.115611</ele>
        <time>2022-12-18T16:08:02.668Z</time>
      </trkpt>
      <trkpt lat="46.44597" lon="-1.67426">
        <ele>55.974532</ele>
        <time>2022-12-18T16:08:04.666Z</time>
      </trkpt>
      <trkpt lat="46.4459" lon="-1.67414">
        <ele>55.836372</ele>
        <time>2022-12-18T16:08:06.649Z</time>
      </trkpt>
      <trkpt lat="46.44584" lon="-1.67401">
        <ele>55.697421</ele>
        <time>2022-12-18T16:08:08.660Z</time>
      </trkpt>
      <trkpt lat="46.44578" lon="-1.67389">
        <ele>55.573804</ele>
        <time>2022-12-18T16:08:10.663Z</time>
      </trkpt>
      <trkpt lat="46.44572" lon="-1.67377">
        <ele>55.485559</ele>
        <time>2022-12-18T16:08:12.665Z</time>
      </trkpt>
      <trkpt lat="46.44566" lon="-1.67366">
        <ele>55.399905</ele>
        <time>2022-12-18T16:08:14.671Z</time>
      </trkpt>
      <trkpt lat="46.4456" lon="-1.67351">
        <ele>55.292962</ele>
        <time>2022-12-18T16:08:17.647Z</time>
      </trkpt>
      <trkpt lat="46.44554" lon="-1.67339">
        <ele>55.202197</ele>
        <time>2022-12-18T16:08:20.662Z</time>
      </trkpt>
      <trkpt lat="46.44547" lon="-1.67329">
        <ele>55.111652</ele>
        <time>2022-12-18T16:08:23.671Z</time>
      </trkpt>
      <trkpt lat="46.44539" lon="-1.67319">
        <ele>55.018022</ele>
        <time>2022-12-18T16:08:26.649Z</time>
      </trkpt>
      <trkpt lat="46.4453" lon="-1.67311">
        <ele>54.925768</ele>
        <time>2022-12-18T16:08:29.650Z</time>
      </trkpt>
      <trkpt lat="46.44526" lon="-1.67297">
        <ele>54.829871</ele>
        <time>2022-12-18T16:08:32.636Z</time>
      </trkpt>
      <trkpt lat="46.44523" lon="-1.67282">
        <ele>54.733486</ele>
        <time>2022-12-18T16:08:35.661Z</time>
      </trkpt>
      <trkpt lat="46.44517" lon="-1.67265">
        <ele>54.61673</ele>
        <time>2022-12-18T16:08:38.667Z</time>
      </trkpt>
      <trkpt lat="46.44512" lon="-1.67253">
        <ele>54.528834</ele>
        <time>2022-12-18T16:08:40.660Z</time>
      </trkpt>
      <trkpt lat="46.44505" lon="-1.6724">
        <ele>54.435036</ele>
        <time>2022-12-18T16:08:42.667Z</time>
      </trkpt>
      <trkpt lat="46.44499" lon="-1.67228">
        <ele>54.338232</ele>
        <time>2022-12-18T16:08:44.641Z</time>
      </trkpt>
      <trkpt lat="46.44494" lon="-1.67214">
        <ele>54.244201</ele>
        <time>2022-12-18T16:08:46.668Z</time>
      </trkpt>
      <trkpt lat="46.44489" lon="-1.67203">
        <ele>54.159048</ele>
        <time>2022-12-18T16:08:48.662Z</time>
      </trkpt>
      <trkpt lat="46.44483" lon="-1.67192">
        <ele>54.077417</ele>
        <time>2022-12-18T16:08:50.661Z</time>
      </trkpt>
      <trkpt lat="46.44476" lon="-1.67177">
        <ele>53.949889</ele>
        <time>2022-12-18T16:08:53.648Z</time>
      </trkpt>
      <trkpt lat="46.44469" lon="-1.67163">
        <ele>53.788928</ele>
        <time>2022-12-18T16:08:56.662Z</time>
      </trkpt>
      <trkpt lat="46.44463" lon="-1.67147">
        <ele>53.618895</ele>
        <time>2022-12-18T16:08:59.651Z</time>
      </trkpt>
      <trkpt lat="46.44459" lon="-1.67135">
        <ele>53.498537</ele>
        <time>2022-12-18T16:09:01.645Z</time>
      </trkpt>
      <trkpt lat="46.44456" lon="-1.67122">
        <ele>53.376185</ele>
        <time>2022-12-18T16:09:03.662Z</time>
      </trkpt>
      <trkpt lat="46.44452" lon="-1.6711">
        <ele>53.254978</ele>
        <time>2022-12-18T16:09:05.662Z</time>
      </trkpt>
      <trkpt lat="46.44448" lon="-1.67092">
        <ele>53.078452</ele>
        <time>2022-12-18T16:09:08.663Z</time>
      </trkpt>
      <trkpt lat="46.44446" lon="-1.67075">
        <ele>52.915213</ele>
        <time>2022-12-18T16:09:11.665Z</time>
      </trkpt>
      <trkpt lat="46.44444" lon="-1.67059">
        <ele>52.770915</ele>
        <time>2022-12-18T16:09:14.661Z</time>
      </trkpt>
      <trkpt lat="46.44443" lon="-1.67045">
        <ele>52.634829</ele>
        <time>2022-12-18T16:09:17.664Z</time>
      </trkpt>
      <trkpt lat="46.44439" lon="-1.67031">
        <ele>52.499662</ele>
        <time>2022-12-18T16:09:20.638Z</time>
      </trkpt>
      <trkpt lat="46.44431" lon="-1.67023">
        <ele>52.374443</ele>
        <time>2022-12-18T16:09:23.664Z</time>
      </trkpt>
      <trkpt lat="46.4442" lon="-1.67018">
        <ele>52.220734</ele>
        <time>2022-12-18T16:09:27.662Z</time>
      </trkpt>
      <trkpt lat="46.4441" lon="-1.67019">
        <ele>52.08545</ele>
        <time>2022-12-18T16:09:30.651Z</time>
      </trkpt>
      <trkpt lat="46.444" lon="-1.67025">
        <ele>51.938</ele>
        <time>2022-12-18T16:09:33.662Z</time>
      </trkpt>
      <trkpt lat="46.44391" lon="-1.67036">
        <ele>51.779683</ele>
        <time>2022-12-18T16:09:36.661Z</time>
      </trkpt>
      <trkpt lat="46.44381" lon="-1.6705">
        <ele>51.603078</ele>
        <time>2022-12-18T16:09:39.659Z</time>
      </trkpt>
      <trkpt lat="46.44375" lon="-1.67059">
        <ele>51.612325</ele>
        <time>2022-12-18T16:09:41.658Z</time>
      </trkpt>
      <trkpt lat="46.44365" lon="-1.67072">
        <ele>51.654669</ele>
        <time>2022-12-18T16:09:44.662Z</time>
      </trkpt>
      <trkpt lat="46.44359" lon="-1.67082">
        <ele>51.68399</ele>
        <time>2022-12-18T16:09:46.649Z</time>
      </trkpt>
      <trkpt lat="46.44352" lon="-1.67092">
        <ele>51.713655</ele>
        <time>2022-12-18T16:09:48.660Z</time>
      </trkpt>
      <trkpt lat="46.44346" lon="-1.67101">
        <ele>51.74211</ele>
        <time>2022-12-18T16:09:50.655Z</time>
      </trkpt>
      <trkpt lat="46.44337" lon="-1.67114">
        <ele>51.781519</ele>
        <time>2022-12-18T16:09:53.664Z</time>
      </trkpt>
      <trkpt lat="46.44332" lon="-1.67127">
        <ele>51.812523</ele>
        <time>2022-12-18T16:09:58.665Z</time>
      </trkpt>
      <trkpt lat="46.44337" lon="-1.67114">
        <ele>51.84266</ele>
        <time>2022-12-18T16:10:07.645Z</time>
      </trkpt>
      <trkpt lat="46.44346" lon="-1.67099">
        <ele>51.886891</ele>
        <time>2022-12-18T16:10:41.679Z</time>
      </trkpt>
      <trkpt lat="46.44352" lon="-1.67088">
        <ele>51.917498</ele>
        <time>2022-12-18T16:10:44.665Z</time>
      </trkpt>
      <trkpt lat="46.44359" lon="-1.67076">
        <ele>51.951903</ele>
        <time>2022-12-18T16:10:47.671Z</time>
      </trkpt>
      <trkpt lat="46.44367" lon="-1.67063">
        <ele>51.989654</ele>
        <time>2022-12-18T16:10:50.654Z</time>
      </trkpt>
      <trkpt lat="46.44377" lon="-1.67051">
        <ele>52.029622</ele>
        <time>2022-12-18T16:10:53.671Z</time>
      </trkpt>
      <trkpt lat="46.44387" lon="-1.67039">
        <ele>52.070302</ele>
        <time>2022-12-18T16:10:56.660Z</time>
      </trkpt>
      <trkpt lat="46.44396" lon="-1.67026">
        <ele>52.111362</ele>
        <time>2022-12-18T16:10:59.662Z</time>
      </trkpt>
      <trkpt lat="46.44407" lon="-1.67016">
        <ele>52.151609</ele>
        <time>2022-12-18T16:11:02.662Z</time>
      </trkpt>
      <trkpt lat="46.44417" lon="-1.67007">
        <ele>52.358497</ele>
        <time>2022-12-18T16:11:05.663Z</time>
      </trkpt>
      <trkpt lat="46.44426" lon="-1.66997">
        <ele>52.554358</ele>
        <time>2022-12-18T16:11:08.662Z</time>
      </trkpt>
      <trkpt lat="46.44431" lon="-1.66982">
        <ele>52.76089</ele>
        <time>2022-12-18T16:11:12.673Z</time>
      </trkpt>
      <trkpt lat="46.44433" lon="-1.66966">
        <ele>52.963958</ele>
        <time>2022-12-18T16:11:16.669Z</time>
      </trkpt>
      <trkpt lat="46.44432" lon="-1.6695">
        <ele>53.167569</ele>
        <time>2022-12-18T16:11:20.656Z</time>
      </trkpt>
      <trkpt lat="46.4443" lon="-1.66935">
        <ele>53.355327</ele>
        <time>2022-12-18T16:11:58.655Z</time>
      </trkpt>
      <trkpt lat="46.44424" lon="-1.66924">
        <ele>53.526355</ele>
        <time>2022-12-18T16:12:02.667Z</time>
      </trkpt>
      <trkpt lat="46.44419" lon="-1.66911">
        <ele>53.717064</ele>
        <time>2022-12-18T16:12:06.663Z</time>
      </trkpt>
      <trkpt lat="46.44407" lon="-1.66887">
        <ele>54.084574</ele>
        <time>2022-12-18T16:12:45.644Z</time>
      </trkpt>
      <trkpt lat="46.444" lon="-1.66877">
        <ele>54.26267</ele>
        <time>2022-12-18T16:12:49.665Z</time>
      </trkpt>
      <trkpt lat="46.44393" lon="-1.66863">
        <ele>54.476873</ele>
        <time>2022-12-18T16:12:53.661Z</time>
      </trkpt>
      <trkpt lat="46.44387" lon="-1.66852">
        <ele>54.652262</ele>
        <time>2022-12-18T16:12:56.666Z</time>
      </trkpt>
      <trkpt lat="46.44381" lon="-1.6684">
        <ele>54.834661</ele>
        <time>2022-12-18T16:12:59.710Z</time>
      </trkpt>
      <trkpt lat="46.44374" lon="-1.66827">
        <ele>55.033412</ele>
        <time>2022-12-18T16:13:02.662Z</time>
      </trkpt>
      <trkpt lat="46.44368" lon="-1.66814">
        <ele>55.23822</ele>
        <time>2022-12-18T16:13:05.728Z</time>
      </trkpt>
      <trkpt lat="46.44362" lon="-1.668">
        <ele>55.371751</ele>
        <time>2022-12-18T16:13:08.662Z</time>
      </trkpt>
      <trkpt lat="46.44354" lon="-1.66787">
        <ele>55.250439</ele>
        <time>2022-12-18T16:13:11.733Z</time>
      </trkpt>
      <trkpt lat="46.44346" lon="-1.66774">
        <ele>55.122249</ele>
        <time>2022-12-18T16:13:14.664Z</time>
      </trkpt>
      <trkpt lat="46.44338" lon="-1.6676">
        <ele>54.995082</ele>
        <time>2022-12-18T16:13:17.699Z</time>
      </trkpt>
      <trkpt lat="46.44331" lon="-1.66748">
        <ele>54.871342</ele>
        <time>2022-12-18T16:13:20.662Z</time>
      </trkpt>
      <trkpt lat="46.44322" lon="-1.66734">
        <ele>54.740828</ele>
        <time>2022-12-18T16:13:23.714Z</time>
      </trkpt>
      <trkpt lat="46.44313" lon="-1.66721">
        <ele>54.604723</ele>
        <time>2022-12-18T16:13:26.664Z</time>
      </trkpt>
      <trkpt lat="46.44305" lon="-1.66707">
        <ele>54.468306</ele>
        <time>2022-12-18T16:13:29.720Z</time>
      </trkpt>
      <trkpt lat="46.44296" lon="-1.66694">
        <ele>54.335295</ele>
        <time>2022-12-18T16:13:32.663Z</time>
      </trkpt>
      <trkpt lat="46.44287" lon="-1.66681">
        <ele>54.203543</ele>
        <time>2022-12-18T16:13:35.709Z</time>
      </trkpt>
      <trkpt lat="46.44279" lon="-1.66667">
        <ele>54.071068</ele>
        <time>2022-12-18T16:13:38.661Z</time>
      </trkpt>
      <trkpt lat="46.44271" lon="-1.66655">
        <ele>53.947842</ele>
        <time>2022-12-18T16:13:41.661Z</time>
      </trkpt>
      <trkpt lat="46.44264" lon="-1.66643">
        <ele>53.832246</ele>
        <time>2022-12-18T16:13:44.656Z</time>
      </trkpt>
      <trkpt lat="46.44256" lon="-1.6663">
        <ele>53.70857</ele>
        <time>2022-12-18T16:13:47.670Z</time>
      </trkpt>
      <trkpt lat="46.4425" lon="-1.66615">
        <ele>53.581155</ele>
        <time>2022-12-18T16:13:50.665Z</time>
      </trkpt>
      <trkpt lat="46.44246" lon="-1.66597">
        <ele>53.364305</ele>
        <time>2022-12-18T16:13:53.666Z</time>
      </trkpt>
      <trkpt lat="46.44243" lon="-1.66579">
        <ele>53.009905</ele>
        <time>2022-12-18T16:13:56.662Z</time>
      </trkpt>
      <trkpt lat="46.4424" lon="-1.6656">
        <ele>52.659691</ele>
        <time>2022-12-18T16:13:59.662Z</time>
      </trkpt>
      <trkpt lat="46.44239" lon="-1.66542">
        <ele>52.312757</ele>
        <time>2022-12-18T16:14:02.665Z</time>
      </trkpt>
      <trkpt lat="46.44237" lon="-1.66526">
        <ele>52.016977</ele>
        <time>2022-12-18T16:14:05.665Z</time>
      </trkpt>
      <trkpt lat="46.44238" lon="-1.66513">
        <ele>51.767699</ele>
        <time>2022-12-18T16:14:08.665Z</time>
      </trkpt>
      <trkpt lat="46.44243" lon="-1.665">
        <ele>51.491021</ele>
        <time>2022-12-18T16:14:12.678Z</time>
      </trkpt>
      <trkpt lat="46.44239" lon="-1.66484">
        <ele>51.171824</ele>
        <time>2022-12-18T16:14:16.717Z</time>
      </trkpt>
      <trkpt lat="46.44234" lon="-1.66472">
        <ele>50.905888</ele>
        <time>2022-12-18T16:14:19.664Z</time>
      </trkpt>
      <trkpt lat="46.44226" lon="-1.6646">
        <ele>50.602521</ele>
        <time>2022-12-18T16:14:22.721Z</time>
      </trkpt>
      <trkpt lat="46.44218" lon="-1.66448">
        <ele>50.292749</ele>
        <time>2022-12-18T16:14:25.664Z</time>
      </trkpt>
      <trkpt lat="46.44211" lon="-1.66436">
        <ele>49.999838</ele>
        <time>2022-12-18T16:14:28.713Z</time>
      </trkpt>
      <trkpt lat="46.44201" lon="-1.66428">
        <ele>49.70076</ele>
        <time>2022-12-18T16:14:32.663Z</time>
      </trkpt>
      <trkpt lat="46.44193" lon="-1.66421">
        <ele>49.445139</ele>
        <time>2022-12-18T16:14:35.662Z</time>
      </trkpt>
      <trkpt lat="46.44184" lon="-1.66411">
        <ele>49.135043</ele>
        <time>2022-12-18T16:14:38.670Z</time>
      </trkpt>
      <trkpt lat="46.44172" lon="-1.66403">
        <ele>48.78379</ele>
        <time>2022-12-18T16:14:41.666Z</time>
      </trkpt>
      <trkpt lat="46.4416" lon="-1.66395">
        <ele>48.575341</ele>
        <time>2022-12-18T16:14:44.676Z</time>
      </trkpt>
      <trkpt lat="46.44149" lon="-1.66386">
        <ele>48.463309</ele>
        <time>2022-12-18T16:14:47.669Z</time>
      </trkpt>
      <trkpt lat="46.44138" lon="-1.66378">
        <ele>48.3507</ele>
        <time>2022-12-18T16:14:50.675Z</time>
      </trkpt>
      <trkpt lat="46.44125" lon="-1.6637">
        <ele>48.233303</ele>
        <time>2022-12-18T16:14:53.663Z</time>
      </trkpt>
      <trkpt lat="46.44116" lon="-1.66361">
        <ele>48.131572</ele>
        <time>2022-12-18T16:14:56.650Z</time>
      </trkpt>
      <trkpt lat="46.44108" lon="-1.66354">
        <ele>48.045821</ele>
        <time>2022-12-18T16:14:59.665Z</time>
      </trkpt>
      <trkpt lat="46.44098" lon="-1.66356">
        <ele>47.958004</ele>
        <time>2022-12-18T16:15:03.661Z</time>
      </trkpt>
      <trkpt lat="46.44089" lon="-1.66357">
        <ele>47.871114</ele>
        <time>2022-12-18T16:15:06.658Z</time>
      </trkpt>
      <trkpt lat="46.44078" lon="-1.66352">
        <ele>47.770135</ele>
        <time>2022-12-18T16:15:09.669Z</time>
      </trkpt>
      <trkpt lat="46.44068" lon="-1.66344">
        <ele>47.668151</ele>
        <time>2022-12-18T16:15:12.667Z</time>
      </trkpt>
      <trkpt lat="46.44059" lon="-1.66335">
        <ele>47.572186</ele>
        <time>2022-12-18T16:15:15.663Z</time>
      </trkpt>
      <trkpt lat="46.4405" lon="-1.66328">
        <ele>47.484961</ele>
        <time>2022-12-18T16:15:18.662Z</time>
      </trkpt>
      <trkpt lat="46.44043" lon="-1.66321">
        <ele>47.403642</ele>
        <time>2022-12-18T16:15:22.650Z</time>
      </trkpt>
      <trkpt lat="46.44052" lon="-1.66327">
        <ele>47.313298</ele>
        <time>2022-12-18T16:15:29.647Z</time>
      </trkpt>
      <trkpt lat="46.44061" lon="-1.66336">
        <ele>47.21297</ele>
        <time>2022-12-18T16:15:33.731Z</time>
      </trkpt>
      <trkpt lat="46.4407" lon="-1.66343">
        <ele>47.126252</ele>
        <time>2022-12-18T16:15:36.666Z</time>
      </trkpt>
      <trkpt lat="46.44078" lon="-1.66349">
        <ele>47.050818</ele>
        <time>2022-12-18T16:15:39.730Z</time>
      </trkpt>
      <trkpt lat="46.44088" lon="-1.66356">
        <ele>47.171934</ele>
        <time>2022-12-18T16:15:43.665Z</time>
      </trkpt>
      <trkpt lat="46.44098" lon="-1.66357">
        <ele>47.293767</ele>
        <time>2022-12-18T16:15:48.665Z</time>
      </trkpt>
      <trkpt lat="46.44089" lon="-1.66359">
        <ele>47.403007</ele>
        <time>2022-12-18T16:15:58.662Z</time>
      </trkpt>
      <trkpt lat="46.44079" lon="-1.66352">
        <ele>47.530616</ele>
        <time>2022-12-18T16:16:01.675Z</time>
      </trkpt>
      <trkpt lat="46.44067" lon="-1.66345">
        <ele>47.675875</ele>
        <time>2022-12-18T16:16:04.666Z</time>
      </trkpt>
      <trkpt lat="46.44056" lon="-1.66335">
        <ele>47.828665</ele>
        <time>2022-12-18T16:16:07.665Z</time>
      </trkpt>
      <trkpt lat="46.44045" lon="-1.66326">
        <ele>47.975405</ele>
        <time>2022-12-18T16:16:10.654Z</time>
      </trkpt>
      <trkpt lat="46.44035" lon="-1.66316">
        <ele>48.117983</ele>
        <time>2022-12-18T16:16:13.664Z</time>
      </trkpt>
      <trkpt lat="46.44025" lon="-1.66305">
        <ele>48.260078</ele>
        <time>2022-12-18T16:16:16.643Z</time>
      </trkpt>
      <trkpt lat="46.44016" lon="-1.66294">
        <ele>48.402083</ele>
        <time>2022-12-18T16:16:19.675Z</time>
      </trkpt>
      <trkpt lat="46.44008" lon="-1.66282">
        <ele>48.535963</ele>
        <time>2022-12-18T16:16:22.671Z</time>
      </trkpt>
      <trkpt lat="46.44001" lon="-1.6627">
        <ele>48.661278</ele>
        <time>2022-12-18T16:16:25.667Z</time>
      </trkpt>
      <trkpt lat="46.43994" lon="-1.66258">
        <ele>48.782708</ele>
        <time>2022-12-18T16:16:28.665Z</time>
      </trkpt>
      <trkpt lat="46.43989" lon="-1.66247">
        <ele>48.894683</ele>
        <time>2022-12-18T16:16:31.663Z</time>
      </trkpt>
      <trkpt lat="46.43992" lon="-1.66233">
        <ele>49.012533</ele>
        <time>2022-12-18T16:16:35.665Z</time>
      </trkpt>
      <trkpt lat="46.44" lon="-1.66226">
        <ele>49.125485</ele>
        <time>2022-12-18T16:16:41.637Z</time>
      </trkpt>
      <trkpt lat="46.44004" lon="-1.66214">
        <ele>49.119787</ele>
        <time>2022-12-18T16:16:45.664Z</time>
      </trkpt>
      <trkpt lat="46.44009" lon="-1.66197">
        <ele>49.079129</ele>
        <time>2022-12-18T16:16:48.680Z</time>
      </trkpt>
      <trkpt lat="46.44014" lon="-1.66181">
        <ele>49.039479</ele>
        <time>2022-12-18T16:16:51.665Z</time>
      </trkpt>
      <trkpt lat="46.44018" lon="-1.66166">
        <ele>49.005075</ele>
        <time>2022-12-18T16:16:55.664Z</time>
      </trkpt>
      <trkpt lat="46.44022" lon="-1.66152">
        <ele>48.971245</ele>
        <time>2022-12-18T16:16:58.663Z</time>
      </trkpt>
      <trkpt lat="46.44025" lon="-1.66136">
        <ele>48.934521</ele>
        <time>2022-12-18T16:17:01.667Z</time>
      </trkpt>
      <trkpt lat="46.44026" lon="-1.66123">
        <ele>48.905202</ele>
        <time>2022-12-18T16:17:03.663Z</time>
      </trkpt>
      <trkpt lat="46.4403" lon="-1.66108">
        <ele>48.870171</ele>
        <time>2022-12-18T16:17:06.652Z</time>
      </trkpt>
      <trkpt lat="46.44033" lon="-1.66095">
        <ele>48.838698</ele>
        <time>2022-12-18T16:17:09.666Z</time>
      </trkpt>
      <trkpt lat="46.44036" lon="-1.66079">
        <ele>48.802947</ele>
        <time>2022-12-18T16:17:12.664Z</time>
      </trkpt>
      <trkpt lat="46.44038" lon="-1.66061">
        <ele>48.76186</ele>
        <time>2022-12-18T16:17:15.646Z</time>
      </trkpt>
      <trkpt lat="46.4404" lon="-1.66048">
        <ele>48.732159</ele>
        <time>2022-12-18T16:17:17.666Z</time>
      </trkpt>
      <trkpt lat="46.44042" lon="-1.66032">
        <ele>48.695715</ele>
        <time>2022-12-18T16:17:20.665Z</time>
      </trkpt>
      <trkpt lat="46.44043" lon="-1.66013">
        <ele>48.655009</ele>
        <time>2022-12-18T16:17:23.665Z</time>
      </trkpt>
      <trkpt lat="46.44043" lon="-1.65995">
        <ele>48.614408</ele>
        <time>2022-12-18T16:17:26.711Z</time>
      </trkpt>
      <trkpt lat="46.44042" lon="-1.6598">
        <ele>48.579945</ele>
        <time>2022-12-18T16:17:29.652Z</time>
      </trkpt>
      <trkpt lat="46.44039" lon="-1.65963">
        <ele>48.510095</ele>
        <time>2022-12-18T16:17:32.712Z</time>
      </trkpt>
      <trkpt lat="46.44036" lon="-1.65947">
        <ele>48.427023</ele>
        <time>2022-12-18T16:17:35.641Z</time>
      </trkpt>
      <trkpt lat="46.44032" lon="-1.65932">
        <ele>48.349957</ele>
        <time>2022-12-18T16:17:38.692Z</time>
      </trkpt>
      <trkpt lat="46.44028" lon="-1.65917">
        <ele>48.269844</ele>
        <time>2022-12-18T16:17:41.668Z</time>
      </trkpt>
      <trkpt lat="46.44024" lon="-1.65902">
        <ele>48.190729</ele>
        <time>2022-12-18T16:17:44.710Z</time>
      </trkpt>
      <trkpt lat="46.44021" lon="-1.65888">
        <ele>48.117029</ele>
        <time>2022-12-18T16:17:47.663Z</time>
      </trkpt>
      <trkpt lat="46.44018" lon="-1.65872">
        <ele>48.031363</ele>
        <time>2022-12-18T16:17:51.663Z</time>
      </trkpt>
      <trkpt lat="46.44017" lon="-1.65855">
        <ele>47.949561</ele>
        <time>2022-12-18T16:17:56.713Z</time>
      </trkpt>
      <trkpt lat="46.44017" lon="-1.6584">
        <ele>47.87584</ele>
        <time>2022-12-18T16:17:59.674Z</time>
      </trkpt>
      <trkpt lat="46.44016" lon="-1.65825">
        <ele>47.798298</ele>
        <time>2022-12-18T16:18:02.662Z</time>
      </trkpt>
      <trkpt lat="46.44015" lon="-1.6581">
        <ele>47.721748</ele>
        <time>2022-12-18T16:18:05.667Z</time>
      </trkpt>
      <trkpt lat="46.44014" lon="-1.65792">
        <ele>47.635966</ele>
        <time>2022-12-18T16:18:08.672Z</time>
      </trkpt>
      <trkpt lat="46.44014" lon="-1.65776">
        <ele>47.554266</ele>
        <time>2022-12-18T16:18:11.646Z</time>
      </trkpt>
      <trkpt lat="46.44014" lon="-1.65759">
        <ele>47.469015</ele>
        <time>2022-12-18T16:18:14.669Z</time>
      </trkpt>
      <trkpt lat="46.44013" lon="-1.65741">
        <ele>47.380328</ele>
        <time>2022-12-18T16:18:17.669Z</time>
      </trkpt>
      <trkpt lat="46.44013" lon="-1.65722">
        <ele>47.28452</ele>
        <time>2022-12-18T16:18:20.648Z</time>
      </trkpt>
      <trkpt lat="46.44012" lon="-1.65709">
        <ele>47.410825</ele>
        <time>2022-12-18T16:18:22.664Z</time>
      </trkpt>
      <trkpt lat="46.44011" lon="-1.65691">
        <ele>47.695866</ele>
        <time>2022-12-18T16:18:25.715Z</time>
      </trkpt>
      <trkpt lat="46.4401" lon="-1.65673">
        <ele>47.978356</ele>
        <time>2022-12-18T16:18:28.663Z</time>
      </trkpt>
      <trkpt lat="46.4401" lon="-1.65654">
        <ele>48.266441</ele>
        <time>2022-12-18T16:18:31.649Z</time>
      </trkpt>
      <trkpt lat="46.4401" lon="-1.65636">
        <ele>48.559054</ele>
        <time>2022-12-18T16:18:34.663Z</time>
      </trkpt>
      <trkpt lat="46.44009" lon="-1.65617">
        <ele>48.853638</ele>
        <time>2022-12-18T16:18:37.669Z</time>
      </trkpt>
      <trkpt lat="46.44009" lon="-1.65601">
        <ele>49.110036</ele>
        <time>2022-12-18T16:18:40.662Z</time>
      </trkpt>
      <trkpt lat="46.4401" lon="-1.65587">
        <ele>49.328981</ele>
        <time>2022-12-18T16:18:43.653Z</time>
      </trkpt>
      <trkpt lat="46.44009" lon="-1.65572">
        <ele>49.564974</ele>
        <time>2022-12-18T16:18:46.664Z</time>
      </trkpt>
      <trkpt lat="46.4401" lon="-1.65557">
        <ele>49.807484</ele>
        <time>2022-12-18T16:18:49.656Z</time>
      </trkpt>
      <trkpt lat="46.44011" lon="-1.65541">
        <ele>50.050113</ele>
        <time>2022-12-18T16:18:52.657Z</time>
      </trkpt>
      <trkpt lat="46.44013" lon="-1.65527">
        <ele>50.278189</ele>
        <time>2022-12-18T16:18:55.652Z</time>
      </trkpt>
      <trkpt lat="46.44015" lon="-1.65514">
        <ele>50.49449</ele>
        <time>2022-12-18T16:18:58.663Z</time>
      </trkpt>
      <trkpt lat="46.44016" lon="-1.65499">
        <ele>50.720826</ele>
        <time>2022-12-18T16:19:01.667Z</time>
      </trkpt>
      <trkpt lat="46.44018" lon="-1.65482">
        <ele>50.991363</ele>
        <time>2022-12-18T16:19:05.662Z</time>
      </trkpt>
      <trkpt lat="46.4402" lon="-1.65467">
        <ele>51.240554</ele>
        <time>2022-12-18T16:19:09.663Z</time>
      </trkpt>
      <trkpt lat="46.44022" lon="-1.65452">
        <ele>51.284497</ele>
        <time>2022-12-18T16:19:12.717Z</time>
      </trkpt>
      <trkpt lat="46.44023" lon="-1.65438">
        <ele>51.087297</ele>
        <time>2022-12-18T16:19:15.664Z</time>
      </trkpt>
      <trkpt lat="46.44025" lon="-1.65424">
        <ele>50.889427</ele>
        <time>2022-12-18T16:19:18.725Z</time>
      </trkpt>
      <trkpt lat="46.44027" lon="-1.65409">
        <ele>50.693561</ele>
        <time>2022-12-18T16:19:22.663Z</time>
      </trkpt>
      <trkpt lat="46.44028" lon="-1.65391">
        <ele>50.445341</ele>
        <time>2022-12-18T16:19:25.663Z</time>
      </trkpt>
      <trkpt lat="46.4403" lon="-1.65372">
        <ele>50.174609</ele>
        <time>2022-12-18T16:19:28.665Z</time>
      </trkpt>
      <trkpt lat="46.44031" lon="-1.65357">
        <ele>49.97097</ele>
        <time>2022-12-18T16:19:30.661Z</time>
      </trkpt>
      <trkpt lat="46.44031" lon="-1.65343">
        <ele>49.791513</ele>
        <time>2022-12-18T16:19:32.650Z</time>
      </trkpt>
      <trkpt lat="46.44031" lon="-1.6533">
        <ele>49.606924</ele>
        <time>2022-12-18T16:19:34.664Z</time>
      </trkpt>
      <trkpt lat="46.44032" lon="-1.65311">
        <ele>49.35297</ele>
        <time>2022-12-18T16:19:37.666Z</time>
      </trkpt>
      <trkpt lat="46.44032" lon="-1.65293">
        <ele>49.114139</ele>
        <time>2022-12-18T16:19:40.669Z</time>
      </trkpt>
      <trkpt lat="46.44032" lon="-1.65277">
        <ele>48.888638</ele>
        <time>2022-12-18T16:19:43.671Z</time>
      </trkpt>
      <trkpt lat="46.44037" lon="-1.65264">
        <ele>48.696681</ele>
        <time>2022-12-18T16:19:46.670Z</time>
      </trkpt>
      <trkpt lat="46.44047" lon="-1.65256">
        <ele>48.464469</ele>
        <time>2022-12-18T16:19:49.667Z</time>
      </trkpt>
      <trkpt lat="46.44058" lon="-1.65254">
        <ele>48.248184</ele>
        <time>2022-12-18T16:19:51.668Z</time>
      </trkpt>
      <trkpt lat="46.44071" lon="-1.65251">
        <ele>47.997044</ele>
        <time>2022-12-18T16:19:53.717Z</time>
      </trkpt>
      <trkpt lat="46.44083" lon="-1.65244">
        <ele>47.79885</ele>
        <time>2022-12-18T16:19:55.671Z</time>
      </trkpt>
      <trkpt lat="46.44095" lon="-1.65235">
        <ele>47.714367</ele>
        <time>2022-12-18T16:19:57.667Z</time>
      </trkpt>
      <trkpt lat="46.44106" lon="-1.65226">
        <ele>47.63413</ele>
        <time>2022-12-18T16:19:59.715Z</time>
      </trkpt>
      <trkpt lat="46.44117" lon="-1.65217">
        <ele>47.553337</ele>
        <time>2022-12-18T16:20:01.667Z</time>
      </trkpt>
      <trkpt lat="46.44126" lon="-1.65208">
        <ele>47.479974</ele>
        <time>2022-12-18T16:20:03.667Z</time>
      </trkpt>
      <trkpt lat="46.44135" lon="-1.65199">
        <ele>47.410317</ele>
        <time>2022-12-18T16:20:05.735Z</time>
      </trkpt>
      <trkpt lat="46.44143" lon="-1.6519">
        <ele>47.344735</ele>
        <time>2022-12-18T16:20:07.665Z</time>
      </trkpt>
      <trkpt lat="46.44151" lon="-1.65182">
        <ele>47.282294</ele>
        <time>2022-12-18T16:20:09.671Z</time>
      </trkpt>
      <trkpt lat="46.44159" lon="-1.65174">
        <ele>47.221184</ele>
        <time>2022-12-18T16:20:11.664Z</time>
      </trkpt>
      <trkpt lat="46.44168" lon="-1.65168">
        <ele>47.162622</ele>
        <time>2022-12-18T16:20:13.668Z</time>
      </trkpt>
      <trkpt lat="46.44179" lon="-1.65161">
        <ele>47.084863</ele>
        <time>2022-12-18T16:20:16.719Z</time>
      </trkpt>
      <trkpt lat="46.44189" lon="-1.65154">
        <ele>47.012293</ele>
        <time>2022-12-18T16:20:19.662Z</time>
      </trkpt>
      <trkpt lat="46.44199" lon="-1.65145">
        <ele>46.938805</ele>
        <time>2022-12-18T16:20:22.724Z</time>
      </trkpt>
      <trkpt lat="46.4421" lon="-1.65137">
        <ele>46.860655</ele>
        <time>2022-12-18T16:20:25.675Z</time>
      </trkpt>
      <trkpt lat="46.4422" lon="-1.65127">
        <ele>46.782145</ele>
        <time>2022-12-18T16:20:28.730Z</time>
      </trkpt>
      <trkpt lat="46.44228" lon="-1.65117">
        <ele>46.712402</ele>
        <time>2022-12-18T16:20:31.644Z</time>
      </trkpt>
      <trkpt lat="46.44233" lon="-1.65104">
        <ele>46.666155</ele>
        <time>2022-12-18T16:20:34.719Z</time>
      </trkpt>
      <trkpt lat="46.44239" lon="-1.65091">
        <ele>46.63921</ele>
        <time>2022-12-18T16:20:37.675Z</time>
      </trkpt>
      <trkpt lat="46.44247" lon="-1.65082">
        <ele>46.614372</ele>
        <time>2022-12-18T16:20:40.723Z</time>
      </trkpt>
      <trkpt lat="46.44255" lon="-1.65074">
        <ele>46.591001</ele>
        <time>2022-12-18T16:20:44.663Z</time>
      </trkpt>
      <trkpt lat="46.4426" lon="-1.65061">
        <ele>46.566361</ele>
        <time>2022-12-18T16:20:49.673Z</time>
      </trkpt>
      <trkpt lat="46.44261" lon="-1.65046">
        <ele>46.539272</ele>
        <time>2022-12-18T16:20:53.663Z</time>
      </trkpt>
      <trkpt lat="46.44262" lon="-1.65032">
        <ele>46.516176</ele>
        <time>2022-12-18T16:20:56.669Z</time>
      </trkpt>
      <trkpt lat="46.44265" lon="-1.65019">
        <ele>46.493339</ele>
        <time>2022-12-18T16:20:59.662Z</time>
      </trkpt>
      <trkpt lat="46.4427" lon="-1.65005">
        <ele>46.465618</ele>
        <time>2022-12-18T16:21:03.665Z</time>
      </trkpt>
      <trkpt lat="46.44275" lon="-1.64991">
        <ele>46.439199</ele>
        <time>2022-12-18T16:21:07.665Z</time>
      </trkpt>
      <trkpt lat="46.44278" lon="-1.64983">
        <ele>46.423875</ele>
        <time>2022-12-18T16:22:25.401Z</time>
      </trkpt>
      <trkpt lat="46.44278" lon="-1.64983">
        <ele>46.423114</ele>
        <time>2022-12-18T16:23:06.250Z</time>
      </trkpt>
      <trkpt lat="46.44283" lon="-1.64966">
        <ele>46.391048</ele>
        <time>2022-12-18T16:23:44.652Z</time>
      </trkpt>
      <trkpt lat="46.44289" lon="-1.64952">
        <ele>46.362895</ele>
        <time>2022-12-18T16:23:47.646Z</time>
      </trkpt>
      <trkpt lat="46.44294" lon="-1.64938">
        <ele>46.336836</ele>
        <time>2022-12-18T16:23:50.667Z</time>
      </trkpt>
      <trkpt lat="46.44299" lon="-1.64925">
        <ele>46.31125</ele>
        <time>2022-12-18T16:23:54.665Z</time>
      </trkpt>
      <trkpt lat="46.44303" lon="-1.6491">
        <ele>46.284262</ele>
        <time>2022-12-18T16:23:59.651Z</time>
      </trkpt>
      <trkpt lat="46.44306" lon="-1.64896">
        <ele>46.258644</ele>
        <time>2022-12-18T16:24:03.676Z</time>
      </trkpt>
      <trkpt lat="46.44308" lon="-1.64882">
        <ele>46.232085</ele>
        <time>2022-12-18T16:24:06.646Z</time>
      </trkpt>
      <trkpt lat="46.44309" lon="-1.64865">
        <ele>46.148807</ele>
        <time>2022-12-18T16:24:09.662Z</time>
      </trkpt>
      <trkpt lat="46.44309" lon="-1.6485">
        <ele>46.066773</ele>
        <time>2022-12-18T16:24:12.664Z</time>
      </trkpt>
      <trkpt lat="46.44309" lon="-1.64832">
        <ele>45.977001</ele>
        <time>2022-12-18T16:24:15.649Z</time>
      </trkpt>
      <trkpt lat="46.4431" lon="-1.64816">
        <ele>45.89216</ele>
        <time>2022-12-18T16:24:18.672Z</time>
      </trkpt>
      <trkpt lat="46.44318" lon="-1.64806">
        <ele>45.817705</ele>
        <time>2022-12-18T16:24:21.655Z</time>
      </trkpt>
      <trkpt lat="46.44328" lon="-1.64807">
        <ele>45.738848</ele>
        <time>2022-12-18T16:24:24.648Z</time>
      </trkpt>
      <trkpt lat="46.44339" lon="-1.64811">
        <ele>45.65346</ele>
        <time>2022-12-18T16:24:27.665Z</time>
      </trkpt>
      <trkpt lat="46.44351" lon="-1.64815">
        <ele>45.564547</ele>
        <time>2022-12-18T16:24:30.667Z</time>
      </trkpt>
      <trkpt lat="46.44363" lon="-1.64818">
        <ele>45.474027</ele>
        <time>2022-12-18T16:24:33.669Z</time>
      </trkpt>
      <trkpt lat="46.44374" lon="-1.64821">
        <ele>45.386806</ele>
        <time>2022-12-18T16:24:36.658Z</time>
      </trkpt>
      <trkpt lat="46.44385" lon="-1.64825">
        <ele>45.306259</ele>
        <time>2022-12-18T16:24:39.663Z</time>
      </trkpt>
      <trkpt lat="46.44396" lon="-1.64828">
        <ele>45.221945</ele>
        <time>2022-12-18T16:24:42.674Z</time>
      </trkpt>
      <trkpt lat="46.44407" lon="-1.64831">
        <ele>45.135843</ele>
        <time>2022-12-18T16:24:45.670Z</time>
      </trkpt>
      <trkpt lat="46.44418" lon="-1.64836">
        <ele>45.051715</ele>
        <time>2022-12-18T16:24:48.667Z</time>
      </trkpt>
      <trkpt lat="46.44429" lon="-1.6484">
        <ele>44.967279</ele>
        <time>2022-12-18T16:24:51.663Z</time>
      </trkpt>
      <trkpt lat="46.4444" lon="-1.64845">
        <ele>44.880633</ele>
        <time>2022-12-18T16:24:54.664Z</time>
      </trkpt>
      <trkpt lat="46.44451" lon="-1.64849">
        <ele>44.791102</ele>
        <time>2022-12-18T16:24:57.664Z</time>
      </trkpt>
      <trkpt lat="46.44463" lon="-1.64854">
        <ele>44.700413</ele>
        <time>2022-12-18T16:25:00.666Z</time>
      </trkpt>
      <trkpt lat="46.44473" lon="-1.64858">
        <ele>44.617541</ele>
        <time>2022-12-18T16:25:03.672Z</time>
      </trkpt>
      <trkpt lat="46.44483" lon="-1.64862">
        <ele>44.540787</ele>
        <time>2022-12-18T16:25:06.668Z</time>
      </trkpt>
      <trkpt lat="46.44493" lon="-1.64865">
        <ele>44.462093</ele>
        <time>2022-12-18T16:25:09.665Z</time>
      </trkpt>
      <trkpt lat="46.44504" lon="-1.64868">
        <ele>44.383318</ele>
        <time>2022-12-18T16:25:12.665Z</time>
      </trkpt>
      <trkpt lat="46.44515" lon="-1.64868">
        <ele>44.296277</ele>
        <time>2022-12-18T16:25:15.655Z</time>
      </trkpt>
      <trkpt lat="46.44528" lon="-1.64868">
        <ele>44.197877</ele>
        <time>2022-12-18T16:25:18.663Z</time>
      </trkpt>
      <trkpt lat="46.44541" lon="-1.64867">
        <ele>44.09949</ele>
        <time>2022-12-18T16:25:21.661Z</time>
      </trkpt>
      <trkpt lat="46.44554" lon="-1.64866">
        <ele>44.002497</ele>
        <time>2022-12-18T16:25:24.657Z</time>
      </trkpt>
      <trkpt lat="46.44566" lon="-1.64864">
        <ele>43.907091</ele>
        <time>2022-12-18T16:25:27.666Z</time>
      </trkpt>
      <trkpt lat="46.44579" lon="-1.64862">
        <ele>43.811065</ele>
        <time>2022-12-18T16:25:30.664Z</time>
      </trkpt>
      <trkpt lat="46.44592" lon="-1.64859">
        <ele>43.712844</ele>
        <time>2022-12-18T16:25:33.645Z</time>
      </trkpt>
      <trkpt lat="46.44605" lon="-1.64859">
        <ele>43.614466</ele>
        <time>2022-12-18T16:25:36.673Z</time>
      </trkpt>
      <trkpt lat="46.44616" lon="-1.6486">
        <ele>43.532687</ele>
        <time>2022-12-18T16:25:39.664Z</time>
      </trkpt>
      <trkpt lat="46.44625" lon="-1.6486">
        <ele>43.590006</ele>
        <time>2022-12-18T16:25:42.667Z</time>
      </trkpt>
      <trkpt lat="46.44634" lon="-1.64861">
        <ele>43.659928</ele>
        <time>2022-12-18T16:25:45.668Z</time>
      </trkpt>
      <trkpt lat="46.44645" lon="-1.64859">
        <ele>43.745312</ele>
        <time>2022-12-18T16:25:49.655Z</time>
      </trkpt>
      <trkpt lat="46.44655" lon="-1.64855">
        <ele>43.821196</ele>
        <time>2022-12-18T16:25:53.657Z</time>
      </trkpt>
      <trkpt lat="46.44663" lon="-1.64847">
        <ele>43.892731</ele>
        <time>2022-12-18T16:25:58.664Z</time>
      </trkpt>
      <trkpt lat="46.44663" lon="-1.64827">
        <ele>43.998308</ele>
        <time>2022-12-18T16:26:16.656Z</time>
      </trkpt>
      <trkpt lat="46.44653" lon="-1.6482">
        <ele>44.079907</ele>
        <time>2022-12-18T16:26:20.655Z</time>
      </trkpt>
      <trkpt lat="46.44645" lon="-1.64811">
        <ele>44.159847</ele>
        <time>2022-12-18T16:26:23.652Z</time>
      </trkpt>
      <trkpt lat="46.44637" lon="-1.64798">
        <ele>44.249555</ele>
        <time>2022-12-18T16:26:26.649Z</time>
      </trkpt>
      <trkpt lat="46.4463" lon="-1.64786">
        <ele>44.32896</ele>
        <time>2022-12-18T16:26:29.666Z</time>
      </trkpt>
      <trkpt lat="46.44623" lon="-1.64773">
        <ele>44.412003</ele>
        <time>2022-12-18T16:26:34.668Z</time>
      </trkpt>
      <trkpt lat="46.44617" lon="-1.64763">
        <ele>44.480137</ele>
        <time>2022-12-18T16:26:37.647Z</time>
      </trkpt>
      <trkpt lat="46.44612" lon="-1.64753">
        <ele>44.551412</ele>
        <time>2022-12-18T16:26:40.647Z</time>
      </trkpt>
      <trkpt lat="46.44605" lon="-1.64742">
        <ele>44.622977</ele>
        <time>2022-12-18T16:26:43.649Z</time>
      </trkpt>
      <trkpt lat="46.446" lon="-1.64731">
        <ele>44.694663</ele>
        <time>2022-12-18T16:26:46.668Z</time>
      </trkpt>
      <trkpt lat="46.44594" lon="-1.6472">
        <ele>44.765851</ele>
        <time>2022-12-18T16:26:49.677Z</time>
      </trkpt>
      <trkpt lat="46.44591" lon="-1.64706">
        <ele>44.84024</ele>
        <time>2022-12-18T16:26:52.652Z</time>
      </trkpt>
      <trkpt lat="46.44589" lon="-1.64692">
        <ele>44.927048</ele>
        <time>2022-12-18T16:26:55.664Z</time>
      </trkpt>
      <trkpt lat="46.44588" lon="-1.64678">
        <ele>45.027727</ele>
        <time>2022-12-18T16:26:58.667Z</time>
      </trkpt>
      <trkpt lat="46.44586" lon="-1.64664">
        <ele>45.125665</ele>
        <time>2022-12-18T16:27:01.666Z</time>
      </trkpt>
      <trkpt lat="46.44586" lon="-1.64649">
        <ele>45.225604</ele>
        <time>2022-12-18T16:27:04.677Z</time>
      </trkpt>
      <trkpt lat="46.44586" lon="-1.64635">
        <ele>45.325993</ele>
        <time>2022-12-18T16:27:07.668Z</time>
      </trkpt>
      <trkpt lat="46.44587" lon="-1.6462">
        <ele>45.425987</ele>
        <time>2022-12-18T16:27:10.658Z</time>
      </trkpt>
      <trkpt lat="46.44591" lon="-1.64605">
        <ele>45.536286</ele>
        <time>2022-12-18T16:27:14.668Z</time>
      </trkpt>
      <trkpt lat="46.44595" lon="-1.6459">
        <ele>45.650584</ele>
        <time>2022-12-18T16:27:18.664Z</time>
      </trkpt>
      <trkpt lat="46.44598" lon="-1.64576">
        <ele>45.755906</ele>
        <time>2022-12-18T16:27:21.667Z</time>
      </trkpt>
      <trkpt lat="46.446" lon="-1.6456">
        <ele>45.867458</ele>
        <time>2022-12-18T16:27:24.650Z</time>
      </trkpt>
      <trkpt lat="46.44602" lon="-1.64544">
        <ele>45.979256</ele>
        <time>2022-12-18T16:27:27.666Z</time>
      </trkpt>
      <trkpt lat="46.44603" lon="-1.64527">
        <ele>46.093662</ele>
        <time>2022-12-18T16:27:30.667Z</time>
      </trkpt>
      <trkpt lat="46.44605" lon="-1.64511">
        <ele>46.2076</ele>
        <time>2022-12-18T16:27:33.665Z</time>
      </trkpt>
      <trkpt lat="46.44608" lon="-1.64495">
        <ele>46.322316</ele>
        <time>2022-12-18T16:27:36.653Z</time>
      </trkpt>
      <trkpt lat="46.4461" lon="-1.64479">
        <ele>46.435078</ele>
        <time>2022-12-18T16:27:39.664Z</time>
      </trkpt>
      <trkpt lat="46.44614" lon="-1.64467">
        <ele>46.530637</ele>
        <time>2022-12-18T16:27:42.654Z</time>
      </trkpt>
      <trkpt lat="46.44621" lon="-1.64454">
        <ele>46.642061</ele>
        <time>2022-12-18T16:27:46.681Z</time>
      </trkpt>
      <trkpt lat="46.44627" lon="-1.64443">
        <ele>46.815155</ele>
        <time>2022-12-18T16:27:50.646Z</time>
      </trkpt>
      <trkpt lat="46.44637" lon="-1.64441">
        <ele>47.045004</ele>
        <time>2022-12-18T16:27:56.659Z</time>
      </trkpt>
      <trkpt lat="46.44647" lon="-1.64445">
        <ele>47.28211</ele>
        <time>2022-12-18T16:28:00.656Z</time>
      </trkpt>
      <trkpt lat="46.44657" lon="-1.64449">
        <ele>47.531934</ele>
        <time>2022-12-18T16:28:04.676Z</time>
      </trkpt>
      <trkpt lat="46.44667" lon="-1.64448">
        <ele>47.767844</ele>
        <time>2022-12-18T16:28:08.647Z</time>
      </trkpt>
      <trkpt lat="46.44677" lon="-1.64441">
        <ele>48.010083</ele>
        <time>2022-12-18T16:28:13.652Z</time>
      </trkpt>
      <trkpt lat="46.44676" lon="-1.64428">
        <ele>48.231938</ele>
        <time>2022-12-18T16:28:17.653Z</time>
      </trkpt>
      <trkpt lat="46.44675" lon="-1.64412">
        <ele>48.482678</ele>
        <time>2022-12-18T16:28:21.664Z</time>
      </trkpt>
      <trkpt lat="46.44675" lon="-1.64397">
        <ele>48.733457</ele>
        <time>2022-12-18T16:28:26.663Z</time>
      </trkpt>
      <trkpt lat="46.44676" lon="-1.64383">
        <ele>48.958655</ele>
        <time>2022-12-18T16:28:31.648Z</time>
      </trkpt>
      <trkpt lat="46.44677" lon="-1.64367">
        <ele>49.203049</ele>
        <time>2022-12-18T16:28:37.674Z</time>
      </trkpt>
      <trkpt lat="46.44676" lon="-1.64353">
        <ele>49.434831</ele>
        <time>2022-12-18T16:28:43.647Z</time>
      </trkpt>
      <trkpt lat="46.44676" lon="-1.64337">
        <ele>49.685708</ele>
        <time>2022-12-18T16:28:49.658Z</time>
      </trkpt>
      <trkpt lat="46.44676" lon="-1.64324">
        <ele>49.899526</ele>
        <time>2022-12-18T16:28:54.657Z</time>
      </trkpt>
      <trkpt lat="46.44676" lon="-1.64309">
        <ele>50.143886</ele>
        <time>2022-12-18T16:29:00.650Z</time>
      </trkpt>
      <trkpt lat="46.44676" lon="-1.64295">
        <ele>50.360957</ele>
        <time>2022-12-18T16:29:05.654Z</time>
      </trkpt>
      <trkpt lat="46.44676" lon="-1.6428">
        <ele>50.615047</ele>
        <time>2022-12-18T16:29:11.650Z</time>
      </trkpt>
      <trkpt lat="46.44676" lon="-1.64264">
        <ele>50.859575</ele>
        <time>2022-12-18T16:29:16.662Z</time>
      </trkpt>
      <trkpt lat="46.44675" lon="-1.6425">
        <ele>50.928712</ele>
        <time>2022-12-18T16:29:20.649Z</time>
      </trkpt>
      <trkpt lat="46.44676" lon="-1.64234">
        <ele>50.984445</ele>
        <time>2022-12-18T16:29:24.664Z</time>
      </trkpt>
      <trkpt lat="46.44675" lon="-1.64217">
        <ele>51.042367</ele>
        <time>2022-12-18T16:29:28.667Z</time>
      </trkpt>
      <trkpt lat="46.44674" lon="-1.64202">
        <ele>51.097445</ele>
        <time>2022-12-18T16:29:32.665Z</time>
      </trkpt>
      <trkpt lat="46.44674" lon="-1.64188">
        <ele>51.146118</ele>
        <time>2022-12-18T16:29:36.648Z</time>
      </trkpt>
      <trkpt lat="46.4468" lon="-1.64174">
        <ele>51.20226</ele>
        <time>2022-12-18T16:29:41.659Z</time>
      </trkpt>
      <trkpt lat="46.4469" lon="-1.6417">
        <ele>51.25791</ele>
        <time>2022-12-18T16:29:45.666Z</time>
      </trkpt>
      <trkpt lat="46.44698" lon="-1.64159">
        <ele>51.311933</ele>
        <time>2022-12-18T16:29:49.650Z</time>
      </trkpt>
      <trkpt lat="46.44702" lon="-1.64147">
        <ele>51.359173</ele>
        <time>2022-12-18T16:29:52.652Z</time>
      </trkpt>
      <trkpt lat="46.44705" lon="-1.64132">
        <ele>51.412191</ele>
        <time>2022-12-18T16:29:55.665Z</time>
      </trkpt>
      <trkpt lat="46.44708" lon="-1.64117">
        <ele>51.468022</ele>
        <time>2022-12-18T16:29:58.666Z</time>
      </trkpt>
      <trkpt lat="46.44711" lon="-1.64101">
        <ele>51.527074</ele>
        <time>2022-12-18T16:30:01.669Z</time>
      </trkpt>
      <trkpt lat="46.44715" lon="-1.64084">
        <ele>51.589843</ele>
        <time>2022-12-18T16:30:04.676Z</time>
      </trkpt>
      <trkpt lat="46.44718" lon="-1.64067">
        <ele>51.654066</ele>
        <time>2022-12-18T16:30:07.670Z</time>
      </trkpt>
      <trkpt lat="46.44722" lon="-1.6405">
        <ele>51.716762</ele>
        <time>2022-12-18T16:30:10.674Z</time>
      </trkpt>
      <trkpt lat="46.44726" lon="-1.64032">
        <ele>51.780888</ele>
        <time>2022-12-18T16:30:13.665Z</time>
      </trkpt>
      <trkpt lat="46.44729" lon="-1.64016">
        <ele>51.813006</ele>
        <time>2022-12-18T16:30:16.666Z</time>
      </trkpt>
      <trkpt lat="46.44733" lon="-1.64">
        <ele>51.829358</ele>
        <time>2022-12-18T16:30:19.667Z</time>
      </trkpt>
      <trkpt lat="46.44737" lon="-1.63984">
        <ele>51.845848</ele>
        <time>2022-12-18T16:30:22.657Z</time>
      </trkpt>
      <trkpt lat="46.4474" lon="-1.63968">
        <ele>51.862549</ele>
        <time>2022-12-18T16:30:25.666Z</time>
      </trkpt>
      <trkpt lat="46.44744" lon="-1.63952">
        <ele>51.879209</ele>
        <time>2022-12-18T16:30:28.673Z</time>
      </trkpt>
      <trkpt lat="46.44747" lon="-1.63936">
        <ele>51.895395</ele>
        <time>2022-12-18T16:30:31.675Z</time>
      </trkpt>
      <trkpt lat="46.4475" lon="-1.6392">
        <ele>51.9117</ele>
        <time>2022-12-18T16:30:34.677Z</time>
      </trkpt>
      <trkpt lat="46.44753" lon="-1.63904">
        <ele>51.9276</ele>
        <time>2022-12-18T16:30:37.668Z</time>
      </trkpt>
      <trkpt lat="46.44757" lon="-1.63889">
        <ele>51.9437</ele>
        <time>2022-12-18T16:30:40.648Z</time>
      </trkpt>
      <trkpt lat="46.4476" lon="-1.63873">
        <ele>51.959716</ele>
        <time>2022-12-18T16:30:43.673Z</time>
      </trkpt>
      <trkpt lat="46.44764" lon="-1.63856">
        <ele>51.976604</ele>
        <time>2022-12-18T16:30:46.672Z</time>
      </trkpt>
      <trkpt lat="46.44768" lon="-1.6384">
        <ele>51.993622</ele>
        <time>2022-12-18T16:30:49.670Z</time>
      </trkpt>
      <trkpt lat="46.44772" lon="-1.63824">
        <ele>52.010188</ele>
        <time>2022-12-18T16:30:52.665Z</time>
      </trkpt>
      <trkpt lat="46.44775" lon="-1.63807">
        <ele>52.027721</ele>
        <time>2022-12-18T16:30:55.670Z</time>
      </trkpt>
      <trkpt lat="46.44779" lon="-1.6379">
        <ele>52.045132</ele>
        <time>2022-12-18T16:30:58.665Z</time>
      </trkpt>
      <trkpt lat="46.44782" lon="-1.63774">
        <ele>52.020327</ele>
        <time>2022-12-18T16:31:01.658Z</time>
      </trkpt>
      <trkpt lat="46.44786" lon="-1.63757">
        <ele>51.879446</ele>
        <time>2022-12-18T16:31:04.676Z</time>
      </trkpt>
      <trkpt lat="46.4479" lon="-1.6374">
        <ele>51.738224</ele>
        <time>2022-12-18T16:31:07.652Z</time>
      </trkpt>
      <trkpt lat="46.44793" lon="-1.63725">
        <ele>51.615389</ele>
        <time>2022-12-18T16:31:10.665Z</time>
      </trkpt>
      <trkpt lat="46.44796" lon="-1.63712">
        <ele>51.51091</ele>
        <time>2022-12-18T16:31:13.667Z</time>
      </trkpt>
      <trkpt lat="46.44799" lon="-1.63695">
        <ele>51.369478</ele>
        <time>2022-12-18T16:31:16.655Z</time>
      </trkpt>
      <trkpt lat="46.44803" lon="-1.63677">
        <ele>51.218405</ele>
        <time>2022-12-18T16:31:19.681Z</time>
      </trkpt>
      <trkpt lat="46.44806" lon="-1.63664">
        <ele>51.109799</ele>
        <time>2022-12-18T16:31:21.666Z</time>
      </trkpt>
      <trkpt lat="46.4481" lon="-1.63647">
        <ele>50.969676</ele>
        <time>2022-12-18T16:31:24.668Z</time>
      </trkpt>
      <trkpt lat="46.44813" lon="-1.6363">
        <ele>50.831908</ele>
        <time>2022-12-18T16:31:27.678Z</time>
      </trkpt>
      <trkpt lat="46.44816" lon="-1.63613">
        <ele>50.68728</ele>
        <time>2022-12-18T16:31:30.672Z</time>
      </trkpt>
      <trkpt lat="46.44818" lon="-1.63595">
        <ele>50.546163</ele>
        <time>2022-12-18T16:31:33.667Z</time>
      </trkpt>
      <trkpt lat="46.44819" lon="-1.63576">
        <ele>50.39933</ele>
        <time>2022-12-18T16:31:36.648Z</time>
      </trkpt>
      <trkpt lat="46.44817" lon="-1.63558">
        <ele>50.248873</ele>
        <time>2022-12-18T16:31:39.656Z</time>
      </trkpt>
      <trkpt lat="46.44814" lon="-1.63542">
        <ele>50.117333</ele>
        <time>2022-12-18T16:31:42.644Z</time>
      </trkpt>
      <trkpt lat="46.44809" lon="-1.63526">
        <ele>49.983979</ele>
        <time>2022-12-18T16:31:45.658Z</time>
      </trkpt>
      <trkpt lat="46.44805" lon="-1.63511">
        <ele>49.782097</ele>
        <time>2022-12-18T16:31:48.664Z</time>
      </trkpt>
      <trkpt lat="46.44801" lon="-1.63494">
        <ele>49.568457</ele>
        <time>2022-12-18T16:31:51.670Z</time>
      </trkpt>
      <trkpt lat="46.44796" lon="-1.63476">
        <ele>49.339588</ele>
        <time>2022-12-18T16:31:54.675Z</time>
      </trkpt>
      <trkpt lat="46.44792" lon="-1.63464">
        <ele>49.179397</ele>
        <time>2022-12-18T16:31:56.682Z</time>
      </trkpt>
      <trkpt lat="46.44789" lon="-1.63451">
        <ele>49.013208</ele>
        <time>2022-12-18T16:31:58.667Z</time>
      </trkpt>
      <trkpt lat="46.44785" lon="-1.63438">
        <ele>48.847649</ele>
        <time>2022-12-18T16:32:00.666Z</time>
      </trkpt>
      <trkpt lat="46.44782" lon="-1.63426">
        <ele>48.683688</ele>
        <time>2022-12-18T16:32:02.679Z</time>
      </trkpt>
      <trkpt lat="46.44779" lon="-1.63413">
        <ele>48.527047</ele>
        <time>2022-12-18T16:32:04.666Z</time>
      </trkpt>
      <trkpt lat="46.44775" lon="-1.63401">
        <ele>48.361763</ele>
        <time>2022-12-18T16:32:06.669Z</time>
      </trkpt>
      <trkpt lat="46.44772" lon="-1.63388">
        <ele>48.205357</ele>
        <time>2022-12-18T16:32:08.666Z</time>
      </trkpt>
      <trkpt lat="46.44768" lon="-1.63376">
        <ele>48.045166</ele>
        <time>2022-12-18T16:32:10.665Z</time>
      </trkpt>
      <trkpt lat="46.44763" lon="-1.63359">
        <ele>47.824397</ele>
        <time>2022-12-18T16:32:13.673Z</time>
      </trkpt>
      <trkpt lat="46.44759" lon="-1.63343">
        <ele>47.616779</ele>
        <time>2022-12-18T16:32:16.670Z</time>
      </trkpt>
      <trkpt lat="46.44754" lon="-1.63326">
        <ele>47.397413</ele>
        <time>2022-12-18T16:32:19.665Z</time>
      </trkpt>
      <trkpt lat="46.44748" lon="-1.63309">
        <ele>47.165373</ele>
        <time>2022-12-18T16:32:22.660Z</time>
      </trkpt>
      <trkpt lat="46.44743" lon="-1.63291">
        <ele>46.933617</ele>
        <time>2022-12-18T16:32:25.663Z</time>
      </trkpt>
      <trkpt lat="46.44739" lon="-1.63276">
        <ele>46.75504</ele>
        <time>2022-12-18T16:32:28.671Z</time>
      </trkpt>
      <trkpt lat="46.44735" lon="-1.63262">
        <ele>46.603711</ele>
        <time>2022-12-18T16:32:31.654Z</time>
      </trkpt>
      <trkpt lat="46.44729" lon="-1.63249">
        <ele>46.433702</ele>
        <time>2022-12-18T16:32:35.646Z</time>
      </trkpt>
      <trkpt lat="46.44719" lon="-1.63248">
        <ele>46.289558</ele>
        <time>2022-12-18T16:32:39.664Z</time>
      </trkpt>
      <trkpt lat="46.4471" lon="-1.63248">
        <ele>46.147271</ele>
        <time>2022-12-18T16:32:42.670Z</time>
      </trkpt>
      <trkpt lat="46.44699" lon="-1.63247">
        <ele>45.972927</ele>
        <time>2022-12-18T16:32:45.662Z</time>
      </trkpt>
      <trkpt lat="46.44687" lon="-1.63246">
        <ele>45.795671</ele>
        <time>2022-12-18T16:32:48.651Z</time>
      </trkpt>
      <trkpt lat="46.44674" lon="-1.63246">
        <ele>45.595901</ele>
        <time>2022-12-18T16:32:51.666Z</time>
      </trkpt>
      <trkpt lat="46.44664" lon="-1.63246">
        <ele>45.455162</ele>
        <time>2022-12-18T16:32:53.667Z</time>
      </trkpt>
      <trkpt lat="46.44655" lon="-1.63245">
        <ele>45.31713</ele>
        <time>2022-12-18T16:32:55.672Z</time>
      </trkpt>
      <trkpt lat="46.44645" lon="-1.63244">
        <ele>45.16859</ele>
        <time>2022-12-18T16:32:57.671Z</time>
      </trkpt>
      <trkpt lat="46.44635" lon="-1.63243">
        <ele>45.016652</ele>
        <time>2022-12-18T16:32:59.668Z</time>
      </trkpt>
      <trkpt lat="46.44626" lon="-1.63243">
        <ele>44.869844</ele>
        <time>2022-12-18T16:33:01.667Z</time>
      </trkpt>
      <trkpt lat="46.44615" lon="-1.63242">
        <ele>44.712113</ele>
        <time>2022-12-18T16:33:03.670Z</time>
      </trkpt>
      <trkpt lat="46.44605" lon="-1.63242">
        <ele>44.553129</ele>
        <time>2022-12-18T16:33:05.664Z</time>
      </trkpt>
      <trkpt lat="46.44595" lon="-1.63241">
        <ele>44.401739</ele>
        <time>2022-12-18T16:33:07.667Z</time>
      </trkpt>
      <trkpt lat="46.44586" lon="-1.63239">
        <ele>44.258606</ele>
        <time>2022-12-18T16:33:09.651Z</time>
      </trkpt>
      <trkpt lat="46.44576" lon="-1.63239">
        <ele>44.140136</ele>
        <time>2022-12-18T16:33:11.679Z</time>
      </trkpt>
      <trkpt lat="46.44564" lon="-1.63233">
        <ele>44.152904</ele>
        <time>2022-12-18T16:33:14.653Z</time>
      </trkpt>
      <trkpt lat="46.44557" lon="-1.6322">
        <ele>44.164476</ele>
        <time>2022-12-18T16:33:17.655Z</time>
      </trkpt>
      <trkpt lat="46.44554" lon="-1.63206">
        <ele>44.175057</ele>
        <time>2022-12-18T16:33:20.657Z</time>
      </trkpt>
      <trkpt lat="46.4455" lon="-1.63191">
        <ele>44.186284</ele>
        <time>2022-12-18T16:33:23.651Z</time>
      </trkpt>
      <trkpt lat="46.44545" lon="-1.63176">
        <ele>44.198173</ele>
        <time>2022-12-18T16:33:26.669Z</time>
      </trkpt>
      <trkpt lat="46.44538" lon="-1.63164">
        <ele>44.209603</ele>
        <time>2022-12-18T16:33:29.658Z</time>
      </trkpt>
      <trkpt lat="46.4453" lon="-1.63151">
        <ele>44.221619</ele>
        <time>2022-12-18T16:33:32.665Z</time>
      </trkpt>
      <trkpt lat="46.4452" lon="-1.6314">
        <ele>44.234456</ele>
        <time>2022-12-18T16:33:35.649Z</time>
      </trkpt>
      <trkpt lat="46.44509" lon="-1.63129">
        <ele>44.247734</ele>
        <time>2022-12-18T16:33:38.667Z</time>
      </trkpt>
      <trkpt lat="46.44499" lon="-1.63119">
        <ele>44.260384</ele>
        <time>2022-12-18T16:33:41.666Z</time>
      </trkpt>
      <trkpt lat="46.4449" lon="-1.6311">
        <ele>44.271514</ele>
        <time>2022-12-18T16:33:44.665Z</time>
      </trkpt>
      <trkpt lat="46.44481" lon="-1.631">
        <ele>44.283169</ele>
        <time>2022-12-18T16:33:47.670Z</time>
      </trkpt>
      <trkpt lat="46.44472" lon="-1.63091">
        <ele>44.294783</ele>
        <time>2022-12-18T16:33:50.666Z</time>
      </trkpt>
      <trkpt lat="46.44462" lon="-1.63081">
        <ele>44.306659</ele>
        <time>2022-12-18T16:33:53.667Z</time>
      </trkpt>
      <trkpt lat="46.44453" lon="-1.63072">
        <ele>44.3179</ele>
        <time>2022-12-18T16:33:56.665Z</time>
      </trkpt>
      <trkpt lat="46.44446" lon="-1.63063">
        <ele>44.343135</ele>
        <time>2022-12-18T16:33:59.657Z</time>
      </trkpt>
      <trkpt lat="46.4444" lon="-1.63051">
        <ele>44.385062</ele>
        <time>2022-12-18T16:34:02.651Z</time>
      </trkpt>
      <trkpt lat="46.44433" lon="-1.63039">
        <ele>44.433597</ele>
        <time>2022-12-18T16:34:06.671Z</time>
      </trkpt>
      <trkpt lat="46.44427" lon="-1.63024">
        <ele>44.482699</ele>
        <time>2022-12-18T16:34:10.646Z</time>
      </trkpt>
      <trkpt lat="46.44422" lon="-1.63012">
        <ele>44.521928</ele>
        <time>2022-12-18T16:34:13.667Z</time>
      </trkpt>
      <trkpt lat="46.44416" lon="-1.62998">
        <ele>44.570882</ele>
        <time>2022-12-18T16:34:17.665Z</time>
      </trkpt>
      <trkpt lat="46.44412" lon="-1.62984">
        <ele>44.613302</ele>
        <time>2022-12-18T16:34:21.650Z</time>
      </trkpt>
      <trkpt lat="46.44408" lon="-1.62973">
        <ele>44.651643</ele>
        <time>2022-12-18T16:34:25.663Z</time>
      </trkpt>
      <trkpt lat="46.44402" lon="-1.62962">
        <ele>44.691418</ele>
        <time>2022-12-18T16:34:30.647Z</time>
      </trkpt>
      <trkpt lat="46.44393" lon="-1.62962">
        <ele>44.731049</ele>
        <time>2022-12-18T16:34:34.652Z</time>
      </trkpt>
      <trkpt lat="46.4438" lon="-1.62962">
        <ele>44.782058</ele>
        <time>2022-12-18T16:34:38.674Z</time>
      </trkpt>
      <trkpt lat="46.4437" lon="-1.62961">
        <ele>44.826767</ele>
        <time>2022-12-18T16:34:41.667Z</time>
      </trkpt>
      <trkpt lat="46.44358" lon="-1.62961">
        <ele>44.876159</ele>
        <time>2022-12-18T16:34:44.672Z</time>
      </trkpt>
      <trkpt lat="46.44346" lon="-1.6296">
        <ele>44.926333</ele>
        <time>2022-12-18T16:34:47.675Z</time>
      </trkpt>
      <trkpt lat="46.44335" lon="-1.6296">
        <ele>44.973973</ele>
        <time>2022-12-18T16:34:50.678Z</time>
      </trkpt>
      <trkpt lat="46.44324" lon="-1.62961">
        <ele>45.019084</ele>
        <time>2022-12-18T16:34:53.665Z</time>
      </trkpt>
      <trkpt lat="46.44315" lon="-1.6296">
        <ele>45.059591</ele>
        <time>2022-12-18T16:34:56.677Z</time>
      </trkpt>
      <trkpt lat="46.44304" lon="-1.6296">
        <ele>45.087344</ele>
        <time>2022-12-18T16:35:00.678Z</time>
      </trkpt>
      <trkpt lat="46.44295" lon="-1.62959">
        <ele>45.097997</ele>
        <time>2022-12-18T16:35:03.651Z</time>
      </trkpt>
      <trkpt lat="46.44285" lon="-1.62957">
        <ele>45.1097</ele>
        <time>2022-12-18T16:35:06.651Z</time>
      </trkpt>
      <trkpt lat="46.44276" lon="-1.62952">
        <ele>45.121766</ele>
        <time>2022-12-18T16:35:09.653Z</time>
      </trkpt>
      <trkpt lat="46.44267" lon="-1.62946">
        <ele>45.132958</ele>
        <time>2022-12-18T16:35:12.653Z</time>
      </trkpt>
      <trkpt lat="46.44259" lon="-1.62939">
        <ele>45.143697</ele>
        <time>2022-12-18T16:35:16.659Z</time>
      </trkpt>
      <trkpt lat="46.4425" lon="-1.62935">
        <ele>45.155097</ele>
        <time>2022-12-18T16:35:20.655Z</time>
      </trkpt>
      <trkpt lat="46.44241" lon="-1.62931">
        <ele>45.166229</ele>
        <time>2022-12-18T16:35:23.672Z</time>
      </trkpt>
      <trkpt lat="46.44231" lon="-1.62933">
        <ele>45.178633</ele>
        <time>2022-12-18T16:35:26.651Z</time>
      </trkpt>
      <trkpt lat="46.44219" lon="-1.62934">
        <ele>45.192568</ele>
        <time>2022-12-18T16:35:29.647Z</time>
      </trkpt>
      <trkpt lat="46.44207" lon="-1.62934">
        <ele>45.206142</ele>
        <time>2022-12-18T16:35:32.670Z</time>
      </trkpt>
      <trkpt lat="46.44197" lon="-1.62933">
        <ele>45.218548</ele>
        <time>2022-12-18T16:35:35.654Z</time>
      </trkpt>
      <trkpt lat="46.44187" lon="-1.62931">
        <ele>45.230264</ele>
        <time>2022-12-18T16:35:38.646Z</time>
      </trkpt>
      <trkpt lat="46.44177" lon="-1.62926">
        <ele>45.243049</ele>
        <time>2022-12-18T16:35:42.664Z</time>
      </trkpt>
      <trkpt lat="46.44174" lon="-1.62913">
        <ele>45.25423</ele>
        <time>2022-12-18T16:35:48.644Z</time>
      </trkpt>
      <trkpt lat="46.44173" lon="-1.62899">
        <ele>45.265205</ele>
        <time>2022-12-18T16:35:53.656Z</time>
      </trkpt>
      <trkpt lat="46.44169" lon="-1.62884">
        <ele>45.278708</ele>
        <time>2022-12-18T16:35:57.653Z</time>
      </trkpt>
      <trkpt lat="46.44165" lon="-1.6287">
        <ele>45.290599</ele>
        <time>2022-12-18T16:36:00.664Z</time>
      </trkpt>
      <trkpt lat="46.44162" lon="-1.62856">
        <ele>45.345885</ele>
        <time>2022-12-18T16:36:03.647Z</time>
      </trkpt>
      <trkpt lat="46.44159" lon="-1.62841">
        <ele>45.416262</ele>
        <time>2022-12-18T16:36:06.663Z</time>
      </trkpt>
      <trkpt lat="46.44157" lon="-1.62827">
        <ele>45.480795</ele>
        <time>2022-12-18T16:36:09.655Z</time>
      </trkpt>
      <trkpt lat="46.44156" lon="-1.62813">
        <ele>45.543935</ele>
        <time>2022-12-18T16:36:13.650Z</time>
      </trkpt>
      <trkpt lat="46.44156" lon="-1.62809">
        <ele>45.559579</ele>
        <time>2022-12-18T16:36:32.920Z</time>
      </trkpt>
      <trkpt lat="46.44158" lon="-1.62796">
        <ele>45.621037</ele>
        <time>2022-12-18T16:38:34.652Z</time>
      </trkpt>
      <trkpt lat="46.44165" lon="-1.62787">
        <ele>45.681643</ele>
        <time>2022-12-18T16:38:38.648Z</time>
      </trkpt>
      <trkpt lat="46.44174" lon="-1.62776">
        <ele>45.757796</ele>
        <time>2022-12-18T16:38:42.669Z</time>
      </trkpt>
      <trkpt lat="46.44182" lon="-1.62768">
        <ele>45.820794</ele>
        <time>2022-12-18T16:38:45.676Z</time>
      </trkpt>
      <trkpt lat="46.4419" lon="-1.6276">
        <ele>45.881955</ele>
        <time>2022-12-18T16:38:48.669Z</time>
      </trkpt>
      <trkpt lat="46.44198" lon="-1.62752">
        <ele>45.942608</ele>
        <time>2022-12-18T16:38:51.651Z</time>
      </trkpt>
      <trkpt lat="46.44204" lon="-1.62741">
        <ele>46.008762</ele>
        <time>2022-12-18T16:38:54.660Z</time>
      </trkpt>
      <trkpt lat="46.44208" lon="-1.62726">
        <ele>46.082319</ele>
        <time>2022-12-18T16:38:57.657Z</time>
      </trkpt>
      <trkpt lat="46.44209" lon="-1.62709">
        <ele>46.156112</ele>
        <time>2022-12-18T16:39:00.649Z</time>
      </trkpt>
      <trkpt lat="46.44207" lon="-1.62693">
        <ele>46.230881</ele>
        <time>2022-12-18T16:39:03.663Z</time>
      </trkpt>
      <trkpt lat="46.44205" lon="-1.62676">
        <ele>46.309394</ele>
        <time>2022-12-18T16:39:06.668Z</time>
      </trkpt>
      <trkpt lat="46.44204" lon="-1.62659">
        <ele>46.385398</ele>
        <time>2022-12-18T16:39:09.668Z</time>
      </trkpt>
      <trkpt lat="46.44202" lon="-1.62642">
        <ele>46.458738</ele>
        <time>2022-12-18T16:39:12.665Z</time>
      </trkpt>
      <trkpt lat="46.44201" lon="-1.62627">
        <ele>46.390462</ele>
        <time>2022-12-18T16:39:15.680Z</time>
      </trkpt>
      <trkpt lat="46.44199" lon="-1.6261">
        <ele>46.316647</ele>
        <time>2022-12-18T16:39:18.678Z</time>
      </trkpt>
      <trkpt lat="46.44196" lon="-1.62594">
        <ele>46.244024</ele>
        <time>2022-12-18T16:39:21.672Z</time>
      </trkpt>
      <trkpt lat="46.44192" lon="-1.62577">
        <ele>46.164827</ele>
        <time>2022-12-18T16:39:24.655Z</time>
      </trkpt>
      <trkpt lat="46.44189" lon="-1.62561">
        <ele>46.089582</ele>
        <time>2022-12-18T16:39:27.663Z</time>
      </trkpt>
      <trkpt lat="46.44185" lon="-1.62544">
        <ele>46.007655</ele>
        <time>2022-12-18T16:39:30.671Z</time>
      </trkpt>
      <trkpt lat="46.4418" lon="-1.62528">
        <ele>45.93016</ele>
        <time>2022-12-18T16:39:33.675Z</time>
      </trkpt>
      <trkpt lat="46.44173" lon="-1.62512">
        <ele>45.850535</ele>
        <time>2022-12-18T16:39:36.668Z</time>
      </trkpt>
      <trkpt lat="46.44168" lon="-1.62497">
        <ele>45.77373</ele>
        <time>2022-12-18T16:39:39.665Z</time>
      </trkpt>
      <trkpt lat="46.44166" lon="-1.6248">
        <ele>45.699245</ele>
        <time>2022-12-18T16:39:42.658Z</time>
      </trkpt>
      <trkpt lat="46.44167" lon="-1.62465">
        <ele>45.629421</ele>
        <time>2022-12-18T16:39:45.647Z</time>
      </trkpt>
      <trkpt lat="46.44169" lon="-1.62449">
        <ele>45.560593</ele>
        <time>2022-12-18T16:39:48.658Z</time>
      </trkpt>
      <trkpt lat="46.44171" lon="-1.62435">
        <ele>45.496715</ele>
        <time>2022-12-18T16:39:51.669Z</time>
      </trkpt>
      <trkpt lat="46.44174" lon="-1.62421">
        <ele>45.43288</ele>
        <time>2022-12-18T16:39:54.647Z</time>
      </trkpt>
      <trkpt lat="46.44176" lon="-1.62407">
        <ele>45.366046</ele>
        <time>2022-12-18T16:39:57.666Z</time>
      </trkpt>
      <trkpt lat="46.44178" lon="-1.62392">
        <ele>45.304602</ele>
        <time>2022-12-18T16:40:00.668Z</time>
      </trkpt>
      <trkpt lat="46.4418" lon="-1.62377">
        <ele>45.40899</ele>
        <time>2022-12-18T16:40:03.667Z</time>
      </trkpt>
      <trkpt lat="46.4418" lon="-1.62362">
        <ele>45.514004</ele>
        <time>2022-12-18T16:40:06.667Z</time>
      </trkpt>
      <trkpt lat="46.44179" lon="-1.62346">
        <ele>45.62561</ele>
        <time>2022-12-18T16:40:09.657Z</time>
      </trkpt>
      <trkpt lat="46.44175" lon="-1.6233">
        <ele>45.7407</ele>
        <time>2022-12-18T16:40:12.659Z</time>
      </trkpt>
      <trkpt lat="46.44171" lon="-1.62315">
        <ele>45.855147</ele>
        <time>2022-12-18T16:40:15.650Z</time>
      </trkpt>
      <trkpt lat="46.44167" lon="-1.62299">
        <ele>45.969068</ele>
        <time>2022-12-18T16:40:18.668Z</time>
      </trkpt>
      <trkpt lat="46.44162" lon="-1.62284">
        <ele>46.084634</ele>
        <time>2022-12-18T16:40:21.651Z</time>
      </trkpt>
      <trkpt lat="46.44159" lon="-1.62269">
        <ele>46.192588</ele>
        <time>2022-12-18T16:40:24.655Z</time>
      </trkpt>
      <trkpt lat="46.44154" lon="-1.62254">
        <ele>46.299745</ele>
        <time>2022-12-18T16:40:28.668Z</time>
      </trkpt>
      <trkpt lat="46.44152" lon="-1.62239">
        <ele>46.409357</ele>
        <time>2022-12-18T16:40:32.652Z</time>
      </trkpt>
      <trkpt lat="46.44149" lon="-1.62226">
        <ele>46.504416</ele>
        <time>2022-12-18T16:40:35.667Z</time>
      </trkpt>
      <trkpt lat="46.44145" lon="-1.62211">
        <ele>46.610426</ele>
        <time>2022-12-18T16:40:38.665Z</time>
      </trkpt>
      <trkpt lat="46.44141" lon="-1.62197">
        <ele>46.714089</ele>
        <time>2022-12-18T16:40:41.666Z</time>
      </trkpt>
      <trkpt lat="46.44137" lon="-1.62183">
        <ele>46.821927</ele>
        <time>2022-12-18T16:40:44.667Z</time>
      </trkpt>
      <trkpt lat="46.44133" lon="-1.62168">
        <ele>46.932679</ele>
        <time>2022-12-18T16:40:47.671Z</time>
      </trkpt>
      <trkpt lat="46.44128" lon="-1.62153">
        <ele>47.041708</ele>
        <time>2022-12-18T16:40:50.672Z</time>
      </trkpt>
      <trkpt lat="46.44123" lon="-1.62138">
        <ele>47.053495</ele>
        <time>2022-12-18T16:40:53.665Z</time>
      </trkpt>
      <trkpt lat="46.44118" lon="-1.62122">
        <ele>46.976741</ele>
        <time>2022-12-18T16:40:56.668Z</time>
      </trkpt>
      <trkpt lat="46.44112" lon="-1.62105">
        <ele>46.895022</ele>
        <time>2022-12-18T16:40:59.665Z</time>
      </trkpt>
      <trkpt lat="46.44108" lon="-1.62093">
        <ele>46.837982</ele>
        <time>2022-12-18T16:41:01.668Z</time>
      </trkpt>
      <trkpt lat="46.44104" lon="-1.62081">
        <ele>46.779904</ele>
        <time>2022-12-18T16:41:03.669Z</time>
      </trkpt>
      <trkpt lat="46.441" lon="-1.62068">
        <ele>46.721212</ele>
        <time>2022-12-18T16:41:05.664Z</time>
      </trkpt>
      <trkpt lat="46.44096" lon="-1.62055">
        <ele>46.658944</ele>
        <time>2022-12-18T16:41:07.648Z</time>
      </trkpt>
      <trkpt lat="46.44093" lon="-1.62042">
        <ele>46.599945</ele>
        <time>2022-12-18T16:41:09.654Z</time>
      </trkpt>
      <trkpt lat="46.4409" lon="-1.62028">
        <ele>46.537213</ele>
        <time>2022-12-18T16:41:11.669Z</time>
      </trkpt>
      <trkpt lat="46.44088" lon="-1.62013">
        <ele>46.474016</ele>
        <time>2022-12-18T16:41:13.657Z</time>
      </trkpt>
      <trkpt lat="46.44088" lon="-1.61998">
        <ele>46.409663</ele>
        <time>2022-12-18T16:41:15.659Z</time>
      </trkpt>
      <trkpt lat="46.44089" lon="-1.61983">
        <ele>46.345423</ele>
        <time>2022-12-18T16:41:17.655Z</time>
      </trkpt>
      <trkpt lat="46.44091" lon="-1.61968">
        <ele>46.283402</ele>
        <time>2022-12-18T16:41:19.663Z</time>
      </trkpt>
      <trkpt lat="46.44093" lon="-1.61955">
        <ele>46.225419</ele>
        <time>2022-12-18T16:41:21.669Z</time>
      </trkpt>
      <trkpt lat="46.44097" lon="-1.61938">
        <ele>46.147464</ele>
        <time>2022-12-18T16:41:24.655Z</time>
      </trkpt>
      <trkpt lat="46.44101" lon="-1.6192">
        <ele>46.06895</ele>
        <time>2022-12-18T16:41:27.668Z</time>
      </trkpt>
      <trkpt lat="46.44105" lon="-1.61902">
        <ele>45.986208</ele>
        <time>2022-12-18T16:41:30.667Z</time>
      </trkpt>
      <trkpt lat="46.44107" lon="-1.61889">
        <ele>46.021496</ele>
        <time>2022-12-18T16:41:32.651Z</time>
      </trkpt>
      <trkpt lat="46.4411" lon="-1.6187">
        <ele>46.085182</ele>
        <time>2022-12-18T16:41:35.668Z</time>
      </trkpt>
      <trkpt lat="46.44113" lon="-1.61857">
        <ele>46.131884</ele>
        <time>2022-12-18T16:41:37.671Z</time>
      </trkpt>
      <trkpt lat="46.44114" lon="-1.61843">
        <ele>46.180153</ele>
        <time>2022-12-18T16:41:39.665Z</time>
      </trkpt>
      <trkpt lat="46.44116" lon="-1.61828">
        <ele>46.228183</ele>
        <time>2022-12-18T16:41:41.664Z</time>
      </trkpt>
      <trkpt lat="46.4412" lon="-1.61816">
        <ele>46.274185</ele>
        <time>2022-12-18T16:41:43.669Z</time>
      </trkpt>
      <trkpt lat="46.44122" lon="-1.61802">
        <ele>46.321316</ele>
        <time>2022-12-18T16:41:45.668Z</time>
      </trkpt>
      <trkpt lat="46.44125" lon="-1.61784">
        <ele>46.382574</ele>
        <time>2022-12-18T16:41:48.675Z</time>
      </trkpt>
      <trkpt lat="46.44128" lon="-1.6177">
        <ele>46.433238</ele>
        <time>2022-12-18T16:41:51.666Z</time>
      </trkpt>
      <trkpt lat="46.44131" lon="-1.61753">
        <ele>46.489074</ele>
        <time>2022-12-18T16:41:55.657Z</time>
      </trkpt>
      <trkpt lat="46.44134" lon="-1.61734">
        <ele>46.555535</ele>
        <time>2022-12-18T16:42:35.679Z</time>
      </trkpt>
      <trkpt lat="46.44136" lon="-1.61718">
        <ele>46.61197</ele>
        <time>2022-12-18T16:42:39.663Z</time>
      </trkpt>
      <trkpt lat="46.44139" lon="-1.61704">
        <ele>46.658287</ele>
        <time>2022-12-18T16:42:42.660Z</time>
      </trkpt>
      <trkpt lat="46.44142" lon="-1.61691">
        <ele>46.704437</ele>
        <time>2022-12-18T16:42:45.667Z</time>
      </trkpt>
      <trkpt lat="46.44145" lon="-1.61678">
        <ele>46.750976</ele>
        <time>2022-12-18T16:42:48.677Z</time>
      </trkpt>
      <trkpt lat="46.44146" lon="-1.61663">
        <ele>46.802125</ele>
        <time>2022-12-18T16:42:51.665Z</time>
      </trkpt>
      <trkpt lat="46.44149" lon="-1.61645">
        <ele>46.841191</ele>
        <time>2022-12-18T16:42:54.658Z</time>
      </trkpt>
      <trkpt lat="46.44153" lon="-1.61627">
        <ele>46.754588</ele>
        <time>2022-12-18T16:42:57.653Z</time>
      </trkpt>
      <trkpt lat="46.44157" lon="-1.61609">
        <ele>46.668571</ele>
        <time>2022-12-18T16:43:00.651Z</time>
      </trkpt>
      <trkpt lat="46.4416" lon="-1.61597">
        <ele>46.609096</ele>
        <time>2022-12-18T16:43:02.674Z</time>
      </trkpt>
      <trkpt lat="46.44162" lon="-1.61584">
        <ele>46.54893</ele>
        <time>2022-12-18T16:43:04.646Z</time>
      </trkpt>
      <trkpt lat="46.44164" lon="-1.6157">
        <ele>46.485834</ele>
        <time>2022-12-18T16:43:06.667Z</time>
      </trkpt>
      <trkpt lat="46.44165" lon="-1.61557">
        <ele>46.424351</ele>
        <time>2022-12-18T16:43:08.663Z</time>
      </trkpt>
      <trkpt lat="46.44166" lon="-1.61543">
        <ele>46.359382</ele>
        <time>2022-12-18T16:43:10.676Z</time>
      </trkpt>
      <trkpt lat="46.44165" lon="-1.61528">
        <ele>46.292859</ele>
        <time>2022-12-18T16:43:12.667Z</time>
      </trkpt>
      <trkpt lat="46.44164" lon="-1.61514">
        <ele>46.228583</ele>
        <time>2022-12-18T16:43:14.664Z</time>
      </trkpt>
      <trkpt lat="46.44162" lon="-1.615">
        <ele>46.16462</ele>
        <time>2022-12-18T16:43:16.665Z</time>
      </trkpt>
      <trkpt lat="46.4416" lon="-1.61487">
        <ele>46.103628</ele>
        <time>2022-12-18T16:43:18.661Z</time>
      </trkpt>
      <trkpt lat="46.44157" lon="-1.61474">
        <ele>46.041806</ele>
        <time>2022-12-18T16:43:20.663Z</time>
      </trkpt>
      <trkpt lat="46.44153" lon="-1.61461">
        <ele>45.97639</ele>
        <time>2022-12-18T16:43:22.663Z</time>
      </trkpt>
      <trkpt lat="46.44148" lon="-1.61448">
        <ele>45.910213</ele>
        <time>2022-12-18T16:43:24.661Z</time>
      </trkpt>
      <trkpt lat="46.44144" lon="-1.61436">
        <ele>45.845489</ele>
        <time>2022-12-18T16:43:26.662Z</time>
      </trkpt>
      <trkpt lat="46.4414" lon="-1.61423">
        <ele>45.782283</ele>
        <time>2022-12-18T16:43:28.666Z</time>
      </trkpt>
      <trkpt lat="46.44136" lon="-1.61411">
        <ele>45.718835</ele>
        <time>2022-12-18T16:43:30.675Z</time>
      </trkpt>
      <trkpt lat="46.44131" lon="-1.61398">
        <ele>45.666559</ele>
        <time>2022-12-18T16:43:32.658Z</time>
      </trkpt>
      <trkpt lat="46.44127" lon="-1.61385">
        <ele>45.681893</ele>
        <time>2022-12-18T16:43:34.664Z</time>
      </trkpt>
      <trkpt lat="46.44124" lon="-1.61372">
        <ele>45.696837</ele>
        <time>2022-12-18T16:43:36.660Z</time>
      </trkpt>
      <trkpt lat="46.44121" lon="-1.61358">
        <ele>45.712097</ele>
        <time>2022-12-18T16:43:38.650Z</time>
      </trkpt>
      <trkpt lat="46.4412" lon="-1.61343">
        <ele>45.728053</ele>
        <time>2022-12-18T16:43:40.665Z</time>
      </trkpt>
      <trkpt lat="46.4412" lon="-1.61328">
        <ele>45.743492</ele>
        <time>2022-12-18T16:43:42.667Z</time>
      </trkpt>
      <trkpt lat="46.4412" lon="-1.61314">
        <ele>45.7585</ele>
        <time>2022-12-18T16:43:44.666Z</time>
      </trkpt>
      <trkpt lat="46.44122" lon="-1.61299">
        <ele>45.77438</ele>
        <time>2022-12-18T16:43:46.650Z</time>
      </trkpt>
      <trkpt lat="46.44124" lon="-1.61285">
        <ele>45.789969</ele>
        <time>2022-12-18T16:43:48.664Z</time>
      </trkpt>
      <trkpt lat="46.44127" lon="-1.61271">
        <ele>45.805755</ele>
        <time>2022-12-18T16:43:50.667Z</time>
      </trkpt>
      <trkpt lat="46.44132" lon="-1.61258">
        <ele>45.820894</ele>
        <time>2022-12-18T16:43:52.664Z</time>
      </trkpt>
      <trkpt lat="46.44138" lon="-1.61246">
        <ele>45.836382</ele>
        <time>2022-12-18T16:43:54.663Z</time>
      </trkpt>
      <trkpt lat="46.44145" lon="-1.61236">
        <ele>45.851959</ele>
        <time>2022-12-18T16:43:56.652Z</time>
      </trkpt>
      <trkpt lat="46.44153" lon="-1.61227">
        <ele>45.867039</ele>
        <time>2022-12-18T16:43:58.664Z</time>
      </trkpt>
      <trkpt lat="46.44161" lon="-1.6122">
        <ele>45.8812</ele>
        <time>2022-12-18T16:44:00.661Z</time>
      </trkpt>
      <trkpt lat="46.44169" lon="-1.61213">
        <ele>45.895764</ele>
        <time>2022-12-18T16:44:02.664Z</time>
      </trkpt>
      <trkpt lat="46.44177" lon="-1.61206">
        <ele>45.910297</ele>
        <time>2022-12-18T16:44:04.667Z</time>
      </trkpt>
      <trkpt lat="46.44184" lon="-1.61196">
        <ele>45.925192</ele>
        <time>2022-12-18T16:44:06.667Z</time>
      </trkpt>
      <trkpt lat="46.4419" lon="-1.61185">
        <ele>45.939897</ele>
        <time>2022-12-18T16:44:08.675Z</time>
      </trkpt>
      <trkpt lat="46.44192" lon="-1.61171">
        <ele>46.057657</ele>
        <time>2022-12-18T16:44:10.664Z</time>
      </trkpt>
      <trkpt lat="46.44193" lon="-1.61157">
        <ele>46.173845</ele>
        <time>2022-12-18T16:44:12.665Z</time>
      </trkpt>
      <trkpt lat="46.44194" lon="-1.61139">
        <ele>46.325405</ele>
        <time>2022-12-18T16:44:15.655Z</time>
      </trkpt>
      <trkpt lat="46.44192" lon="-1.61122">
        <ele>46.476131</ele>
        <time>2022-12-18T16:44:18.668Z</time>
      </trkpt>
      <trkpt lat="46.4419" lon="-1.61104">
        <ele>46.630761</ele>
        <time>2022-12-18T16:44:21.664Z</time>
      </trkpt>
      <trkpt lat="46.44187" lon="-1.61085">
        <ele>46.79068</ele>
        <time>2022-12-18T16:44:24.666Z</time>
      </trkpt>
      <trkpt lat="46.44185" lon="-1.61066">
        <ele>46.951177</ele>
        <time>2022-12-18T16:44:27.665Z</time>
      </trkpt>
      <trkpt lat="46.44182" lon="-1.61048">
        <ele>47.107309</ele>
        <time>2022-12-18T16:44:30.674Z</time>
      </trkpt>
      <trkpt lat="46.4418" lon="-1.61032">
        <ele>47.240807</ele>
        <time>2022-12-18T16:44:33.667Z</time>
      </trkpt>
      <trkpt lat="46.44179" lon="-1.61019">
        <ele>47.352738</ele>
        <time>2022-12-18T16:44:36.662Z</time>
      </trkpt>
      <trkpt lat="46.44177" lon="-1.61005">
        <ele>47.473281</ele>
        <time>2022-12-18T16:44:40.662Z</time>
      </trkpt>
      <trkpt lat="46.44174" lon="-1.6099">
        <ele>47.6023</ele>
        <time>2022-12-18T16:44:45.665Z</time>
      </trkpt>
      <trkpt lat="46.44172" lon="-1.60976">
        <ele>47.730501</ele>
        <time>2022-12-18T16:44:50.666Z</time>
      </trkpt>
      <trkpt lat="46.4417" lon="-1.6096">
        <ele>47.865872</ele>
        <time>2022-12-18T16:44:55.667Z</time>
      </trkpt>
      <trkpt lat="46.44169" lon="-1.60945">
        <ele>47.988892</ele>
        <time>2022-12-18T16:45:00.665Z</time>
      </trkpt>
      <trkpt lat="46.44168" lon="-1.60931">
        <ele>48.109948</ele>
        <time>2022-12-18T16:45:04.666Z</time>
      </trkpt>
      <trkpt lat="46.44166" lon="-1.60916">
        <ele>48.05894</ele>
        <time>2022-12-18T16:45:08.664Z</time>
      </trkpt>
      <trkpt lat="46.44166" lon="-1.60899">
        <ele>47.957211</ele>
        <time>2022-12-18T16:45:12.663Z</time>
      </trkpt>
      <trkpt lat="46.44166" lon="-1.60882">
        <ele>47.851772</ele>
        <time>2022-12-18T16:45:16.667Z</time>
      </trkpt>
      <trkpt lat="46.44168" lon="-1.60866">
        <ele>47.748558</ele>
        <time>2022-12-18T16:45:20.662Z</time>
      </trkpt>
      <trkpt lat="46.44168" lon="-1.60853">
        <ele>47.666705</ele>
        <time>2022-12-18T16:45:23.668Z</time>
      </trkpt>
      <trkpt lat="46.4417" lon="-1.60839">
        <ele>47.576014</ele>
        <time>2022-12-18T16:45:26.663Z</time>
      </trkpt>
      <trkpt lat="46.44172" lon="-1.60824">
        <ele>47.482165</ele>
        <time>2022-12-18T16:45:29.666Z</time>
      </trkpt>
      <trkpt lat="46.44174" lon="-1.60809">
        <ele>47.389469</ele>
        <time>2022-12-18T16:45:32.670Z</time>
      </trkpt>
      <trkpt lat="46.44177" lon="-1.60794">
        <ele>47.289376</ele>
        <time>2022-12-18T16:45:35.665Z</time>
      </trkpt>
      <trkpt lat="46.44179" lon="-1.60777">
        <ele>47.182397</ele>
        <time>2022-12-18T16:45:38.682Z</time>
      </trkpt>
      <trkpt lat="46.44182" lon="-1.6076">
        <ele>47.076382</ele>
        <time>2022-12-18T16:45:41.646Z</time>
      </trkpt>
      <trkpt lat="46.44184" lon="-1.60744">
        <ele>46.971393</ele>
        <time>2022-12-18T16:45:44.669Z</time>
      </trkpt>
      <trkpt lat="46.44187" lon="-1.60727">
        <ele>46.864353</ele>
        <time>2022-12-18T16:45:47.668Z</time>
      </trkpt>
      <trkpt lat="46.4419" lon="-1.60709">
        <ele>46.750242</ele>
        <time>2022-12-18T16:45:50.664Z</time>
      </trkpt>
      <trkpt lat="46.44191" lon="-1.60696">
        <ele>46.667854</ele>
        <time>2022-12-18T16:45:52.667Z</time>
      </trkpt>
      <trkpt lat="46.44192" lon="-1.60683">
        <ele>46.58106</ele>
        <time>2022-12-18T16:45:54.666Z</time>
      </trkpt>
      <trkpt lat="46.44191" lon="-1.60668">
        <ele>46.482439</ele>
        <time>2022-12-18T16:45:56.666Z</time>
      </trkpt>
      <trkpt lat="46.44189" lon="-1.60652">
        <ele>46.358203</ele>
        <time>2022-12-18T16:45:58.646Z</time>
      </trkpt>
      <trkpt lat="46.44186" lon="-1.60637">
        <ele>46.231331</ele>
        <time>2022-12-18T16:46:00.663Z</time>
      </trkpt>
      <trkpt lat="46.44182" lon="-1.60624">
        <ele>46.116287</ele>
        <time>2022-12-18T16:46:02.664Z</time>
      </trkpt>
      <trkpt lat="46.44179" lon="-1.6061">
        <ele>46.003857</ele>
        <time>2022-12-18T16:46:04.664Z</time>
      </trkpt>
      <trkpt lat="46.44176" lon="-1.60597">
        <ele>45.895171</ele>
        <time>2022-12-18T16:46:06.668Z</time>
      </trkpt>
      <trkpt lat="46.44172" lon="-1.60585">
        <ele>45.787035</ele>
        <time>2022-12-18T16:46:08.661Z</time>
      </trkpt>
      <trkpt lat="46.44169" lon="-1.60571">
        <ele>45.675354</ele>
        <time>2022-12-18T16:46:10.663Z</time>
      </trkpt>
      <trkpt lat="46.44164" lon="-1.60554">
        <ele>45.528364</ele>
        <time>2022-12-18T16:46:13.677Z</time>
      </trkpt>
      <trkpt lat="46.44158" lon="-1.60538">
        <ele>45.383634</ele>
        <time>2022-12-18T16:46:16.665Z</time>
      </trkpt>
      <trkpt lat="46.44154" lon="-1.60526">
        <ele>45.279167</ele>
        <time>2022-12-18T16:46:18.669Z</time>
      </trkpt>
      <trkpt lat="46.44149" lon="-1.60515">
        <ele>45.175327</ele>
        <time>2022-12-18T16:46:20.663Z</time>
      </trkpt>
      <trkpt lat="46.44143" lon="-1.60504">
        <ele>45.060588</ele>
        <time>2022-12-18T16:46:22.657Z</time>
      </trkpt>
      <trkpt lat="46.44137" lon="-1.60493">
        <ele>44.951838</ele>
        <time>2022-12-18T16:46:24.664Z</time>
      </trkpt>
      <trkpt lat="46.4413" lon="-1.60483">
        <ele>44.842475</ele>
        <time>2022-12-18T16:46:26.667Z</time>
      </trkpt>
      <trkpt lat="46.44124" lon="-1.60473">
        <ele>44.733112</ele>
        <time>2022-12-18T16:46:28.666Z</time>
      </trkpt>
      <trkpt lat="46.44118" lon="-1.60462">
        <ele>44.624688</ele>
        <time>2022-12-18T16:46:30.674Z</time>
      </trkpt>
      <trkpt lat="46.44114" lon="-1.6045">
        <ele>44.516057</ele>
        <time>2022-12-18T16:46:32.662Z</time>
      </trkpt>
      <trkpt lat="46.4411" lon="-1.60438">
        <ele>44.431282</ele>
        <time>2022-12-18T16:46:34.650Z</time>
      </trkpt>
      <trkpt lat="46.44106" lon="-1.60425">
        <ele>44.403965</ele>
        <time>2022-12-18T16:46:36.665Z</time>
      </trkpt>
      <trkpt lat="46.44103" lon="-1.60412">
        <ele>44.377347</ele>
        <time>2022-12-18T16:46:38.669Z</time>
      </trkpt>
      <trkpt lat="46.44101" lon="-1.60394">
        <ele>44.340051</ele>
        <time>2022-12-18T16:46:41.648Z</time>
      </trkpt>
      <trkpt lat="46.441" lon="-1.60376">
        <ele>44.305514</ele>
        <time>2022-12-18T16:46:44.670Z</time>
      </trkpt>
      <trkpt lat="46.44098" lon="-1.60362">
        <ele>44.276151</ele>
        <time>2022-12-18T16:46:47.665Z</time>
      </trkpt>
      <trkpt lat="46.44099" lon="-1.60334">
        <ele>44.220998</ele>
        <time>2022-12-18T16:47:34.658Z</time>
      </trkpt>
      <trkpt lat="46.44099" lon="-1.60319">
        <ele>44.193247</ele>
        <time>2022-12-18T16:47:37.660Z</time>
      </trkpt>
      <trkpt lat="46.44101" lon="-1.60304">
        <ele>44.162354</ele>
        <time>2022-12-18T16:47:40.666Z</time>
      </trkpt>
      <trkpt lat="46.44102" lon="-1.60287">
        <ele>44.129474</ele>
        <time>2022-12-18T16:47:43.653Z</time>
      </trkpt>
      <trkpt lat="46.44103" lon="-1.6027">
        <ele>44.095029</ele>
        <time>2022-12-18T16:47:46.671Z</time>
      </trkpt>
      <trkpt lat="46.44104" lon="-1.60252">
        <ele>44.059334</ele>
        <time>2022-12-18T16:47:49.674Z</time>
      </trkpt>
      <trkpt lat="46.44101" lon="-1.60234">
        <ele>44.02301</ele>
        <time>2022-12-18T16:47:52.650Z</time>
      </trkpt>
      <trkpt lat="46.44093" lon="-1.6022">
        <ele>43.98676</ele>
        <time>2022-12-18T16:47:55.649Z</time>
      </trkpt>
      <trkpt lat="46.44081" lon="-1.60214">
        <ele>43.95076</ele>
        <time>2022-12-18T16:47:58.648Z</time>
      </trkpt>
      <trkpt lat="46.44069" lon="-1.60212">
        <ele>43.889033</ele>
        <time>2022-12-18T16:48:01.651Z</time>
      </trkpt>
      <trkpt lat="46.44056" lon="-1.60212">
        <ele>43.750021</ele>
        <time>2022-12-18T16:48:04.674Z</time>
      </trkpt>
      <trkpt lat="46.44043" lon="-1.60213">
        <ele>43.611001</ele>
        <time>2022-12-18T16:48:07.660Z</time>
      </trkpt>
      <trkpt lat="46.44032" lon="-1.60212">
        <ele>43.485146</ele>
        <time>2022-12-18T16:48:10.667Z</time>
      </trkpt>
      <trkpt lat="46.4402" lon="-1.60212">
        <ele>43.351642</ele>
        <time>2022-12-18T16:48:13.650Z</time>
      </trkpt>
      <trkpt lat="46.44006" lon="-1.60212">
        <ele>43.200487</ele>
        <time>2022-12-18T16:48:16.664Z</time>
      </trkpt>
      <trkpt lat="46.43997" lon="-1.60212">
        <ele>43.095677</ele>
        <time>2022-12-18T16:48:18.655Z</time>
      </trkpt>
      <trkpt lat="46.43988" lon="-1.60211">
        <ele>42.995233</ele>
        <time>2022-12-18T16:48:20.648Z</time>
      </trkpt>
      <trkpt lat="46.43974" lon="-1.60212">
        <ele>42.843964</ele>
        <time>2022-12-18T16:48:23.651Z</time>
      </trkpt>
      <trkpt lat="46.43961" lon="-1.60212">
        <ele>42.697221</ele>
        <time>2022-12-18T16:48:26.657Z</time>
      </trkpt>
      <trkpt lat="46.43948" lon="-1.60212">
        <ele>42.553789</ele>
        <time>2022-12-18T16:48:29.655Z</time>
      </trkpt>
      <trkpt lat="46.43935" lon="-1.60211">
        <ele>42.420032</ele>
        <time>2022-12-18T16:48:32.667Z</time>
      </trkpt>
      <trkpt lat="46.43924" lon="-1.60212">
        <ele>42.296351</ele>
        <time>2022-12-18T16:48:35.651Z</time>
      </trkpt>
      <trkpt lat="46.43912" lon="-1.60217">
        <ele>42.15202</ele>
        <time>2022-12-18T16:48:38.661Z</time>
      </trkpt>
      <trkpt lat="46.43904" lon="-1.60224">
        <ele>42.049902</ele>
        <time>2022-12-18T16:48:40.659Z</time>
      </trkpt>
      <trkpt lat="46.43897" lon="-1.60233">
        <ele>41.944885</ele>
        <time>2022-12-18T16:48:42.666Z</time>
      </trkpt>
      <trkpt lat="46.43889" lon="-1.60242">
        <ele>42.02023</ele>
        <time>2022-12-18T16:48:44.664Z</time>
      </trkpt>
      <trkpt lat="46.43881" lon="-1.60252">
        <ele>42.10457</ele>
        <time>2022-12-18T16:48:46.664Z</time>
      </trkpt>
      <trkpt lat="46.43873" lon="-1.60261">
        <ele>42.192463</ele>
        <time>2022-12-18T16:48:48.667Z</time>
      </trkpt>
      <trkpt lat="46.43865" lon="-1.60269">
        <ele>42.27728</ele>
        <time>2022-12-18T16:48:50.667Z</time>
      </trkpt>
      <trkpt lat="46.43856" lon="-1.60278">
        <ele>42.363153</ele>
        <time>2022-12-18T16:48:52.665Z</time>
      </trkpt>
      <trkpt lat="46.43848" lon="-1.60288">
        <ele>42.456985</ele>
        <time>2022-12-18T16:48:54.665Z</time>
      </trkpt>
      <trkpt lat="46.4384" lon="-1.60298">
        <ele>42.542974</ele>
        <time>2022-12-18T16:48:56.649Z</time>
      </trkpt>
      <trkpt lat="46.43833" lon="-1.60309">
        <ele>42.630944</ele>
        <time>2022-12-18T16:48:58.665Z</time>
      </trkpt>
      <trkpt lat="46.43825" lon="-1.6032">
        <ele>42.723113</ele>
        <time>2022-12-18T16:49:00.665Z</time>
      </trkpt>
      <trkpt lat="46.43816" lon="-1.60331">
        <ele>42.816941</ele>
        <time>2022-12-18T16:49:02.674Z</time>
      </trkpt>
      <trkpt lat="46.43808" lon="-1.60341">
        <ele>42.907594</ele>
        <time>2022-12-18T16:49:04.666Z</time>
      </trkpt>
      <trkpt lat="46.438" lon="-1.60351">
        <ele>42.999133</ele>
        <time>2022-12-18T16:49:06.663Z</time>
      </trkpt>
      <trkpt lat="46.43791" lon="-1.6036">
        <ele>43.089371</ele>
        <time>2022-12-18T16:49:08.665Z</time>
      </trkpt>
      <trkpt lat="46.4378" lon="-1.6037">
        <ele>43.198169</ele>
        <time>2022-12-18T16:49:11.662Z</time>
      </trkpt>
      <trkpt lat="46.4377" lon="-1.60381">
        <ele>43.305417</ele>
        <time>2022-12-18T16:49:14.660Z</time>
      </trkpt>
      <trkpt lat="46.43761" lon="-1.60385">
        <ele>43.384312</ele>
        <time>2022-12-18T16:49:16.667Z</time>
      </trkpt>
      <trkpt lat="46.43748" lon="-1.60391">
        <ele>43.449945</ele>
        <time>2022-12-18T16:49:19.667Z</time>
      </trkpt>
      <trkpt lat="46.43734" lon="-1.60389">
        <ele>43.454542</ele>
        <time>2022-12-18T16:49:22.651Z</time>
      </trkpt>
      <trkpt lat="46.43727" lon="-1.60381">
        <ele>43.457692</ele>
        <time>2022-12-18T16:49:24.666Z</time>
      </trkpt>
      <trkpt lat="46.43722" lon="-1.60369">
        <ele>43.460986</ele>
        <time>2022-12-18T16:49:26.664Z</time>
      </trkpt>
      <trkpt lat="46.4372" lon="-1.60355">
        <ele>43.46418</ele>
        <time>2022-12-18T16:49:28.668Z</time>
      </trkpt>
      <trkpt lat="46.4372" lon="-1.60342">
        <ele>43.467285</ele>
        <time>2022-12-18T16:49:30.666Z</time>
      </trkpt>
      <trkpt lat="46.43721" lon="-1.60324">
        <ele>43.471582</ele>
        <time>2022-12-18T16:49:33.675Z</time>
      </trkpt>
      <trkpt lat="46.43722" lon="-1.60309">
        <ele>43.475233</ele>
        <time>2022-12-18T16:49:36.668Z</time>
      </trkpt>
      <trkpt lat="46.43722" lon="-1.60294">
        <ele>43.478745</ele>
        <time>2022-12-18T16:49:39.666Z</time>
      </trkpt>
      <trkpt lat="46.43712" lon="-1.6029">
        <ele>43.482339</ele>
        <time>2022-12-18T16:49:54.647Z</time>
      </trkpt>
      <trkpt lat="46.43701" lon="-1.60292">
        <ele>43.4863</ele>
        <time>2022-12-18T16:49:58.665Z</time>
      </trkpt>
      <trkpt lat="46.4369" lon="-1.60294">
        <ele>43.490105</ele>
        <time>2022-12-18T16:50:01.663Z</time>
      </trkpt>
      <trkpt lat="46.43678" lon="-1.60294">
        <ele>43.494033</ele>
        <time>2022-12-18T16:50:04.648Z</time>
      </trkpt>
      <trkpt lat="46.43666" lon="-1.60295">
        <ele>43.498167</ele>
        <time>2022-12-18T16:50:07.651Z</time>
      </trkpt>
      <trkpt lat="46.43655" lon="-1.60296">
        <ele>43.501887</ele>
        <time>2022-12-18T16:50:10.664Z</time>
      </trkpt>
      <trkpt lat="46.43646" lon="-1.60298">
        <ele>43.505032</ele>
        <time>2022-12-18T16:50:13.657Z</time>
      </trkpt>
      <trkpt lat="46.43637" lon="-1.60298">
        <ele>43.508172</ele>
        <time>2022-12-18T16:50:18.659Z</time>
      </trkpt>
      <trkpt lat="46.43628" lon="-1.60299">
        <ele>43.520468</ele>
        <time>2022-12-18T16:50:22.676Z</time>
      </trkpt>
      <trkpt lat="46.43615" lon="-1.603">
        <ele>43.543185</ele>
        <time>2022-12-18T16:50:26.663Z</time>
      </trkpt>
      <trkpt lat="46.43605" lon="-1.60301">
        <ele>43.562991</ele>
        <time>2022-12-18T16:50:29.662Z</time>
      </trkpt>
      <trkpt lat="46.43593" lon="-1.60301">
        <ele>43.584598</ele>
        <time>2022-12-18T16:50:32.666Z</time>
      </trkpt>
      <trkpt lat="46.43581" lon="-1.60302">
        <ele>43.607186</ele>
        <time>2022-12-18T16:50:35.665Z</time>
      </trkpt>
      <trkpt lat="46.43568" lon="-1.60303">
        <ele>43.630452</ele>
        <time>2022-12-18T16:50:38.652Z</time>
      </trkpt>
      <trkpt lat="46.43557" lon="-1.60293">
        <ele>43.653324</ele>
        <time>2022-12-18T16:50:41.662Z</time>
      </trkpt>
      <trkpt lat="46.43552" lon="-1.60279">
        <ele>43.673503</ele>
        <time>2022-12-18T16:50:44.665Z</time>
      </trkpt>
      <trkpt lat="46.43547" lon="-1.60267">
        <ele>43.692782</ele>
        <time>2022-12-18T16:50:47.663Z</time>
      </trkpt>
      <trkpt lat="46.4354" lon="-1.60254">
        <ele>43.713125</ele>
        <time>2022-12-18T16:50:50.664Z</time>
      </trkpt>
      <trkpt lat="46.43532" lon="-1.60241">
        <ele>43.734818</ele>
        <time>2022-12-18T16:50:53.668Z</time>
      </trkpt>
      <trkpt lat="46.43524" lon="-1.60228">
        <ele>43.756838</ele>
        <time>2022-12-18T16:50:56.664Z</time>
      </trkpt>
      <trkpt lat="46.43516" lon="-1.60216">
        <ele>43.778914</ele>
        <time>2022-12-18T16:50:59.672Z</time>
      </trkpt>
      <trkpt lat="46.43508" lon="-1.60203">
        <ele>43.800841</ele>
        <time>2022-12-18T16:51:02.665Z</time>
      </trkpt>
      <trkpt lat="46.43501" lon="-1.6019">
        <ele>43.822755</ele>
        <time>2022-12-18T16:51:05.664Z</time>
      </trkpt>
      <trkpt lat="46.43493" lon="-1.60177">
        <ele>43.83709</ele>
        <time>2022-12-18T16:51:08.667Z</time>
      </trkpt>
      <trkpt lat="46.43484" lon="-1.6017">
        <ele>43.79896</ele>
        <time>2022-12-18T16:51:11.664Z</time>
      </trkpt>
      <trkpt lat="46.43474" lon="-1.60168">
        <ele>43.766232</ele>
        <time>2022-12-18T16:51:14.665Z</time>
      </trkpt>
      <trkpt lat="46.43464" lon="-1.60162">
        <ele>43.726966</ele>
        <time>2022-12-18T16:51:18.666Z</time>
      </trkpt>
      <trkpt lat="46.4346" lon="-1.60139">
        <ele>43.668003</ele>
        <time>2022-12-18T16:51:58.668Z</time>
      </trkpt>
      <trkpt lat="46.43457" lon="-1.60126">
        <ele>43.635121</ele>
        <time>2022-12-18T16:52:02.662Z</time>
      </trkpt>
      <trkpt lat="46.43456" lon="-1.60109">
        <ele>43.595052</ele>
        <time>2022-12-18T16:52:06.669Z</time>
      </trkpt>
      <trkpt lat="46.43455" lon="-1.60094">
        <ele>43.558597</ele>
        <time>2022-12-18T16:52:09.673Z</time>
      </trkpt>
      <trkpt lat="46.43453" lon="-1.60078">
        <ele>43.518903</ele>
        <time>2022-12-18T16:52:12.677Z</time>
      </trkpt>
      <trkpt lat="46.43452" lon="-1.60062">
        <ele>43.479501</ele>
        <time>2022-12-18T16:52:15.654Z</time>
      </trkpt>
      <trkpt lat="46.43448" lon="-1.60046">
        <ele>43.439431</ele>
        <time>2022-12-18T16:52:18.662Z</time>
      </trkpt>
      <trkpt lat="46.43444" lon="-1.60031">
        <ele>43.399969</ele>
        <time>2022-12-18T16:52:21.650Z</time>
      </trkpt>
      <trkpt lat="46.43441" lon="-1.60016">
        <ele>43.361864</ele>
        <time>2022-12-18T16:52:24.666Z</time>
      </trkpt>
      <trkpt lat="46.43436" lon="-1.60002">
        <ele>43.325668</ele>
        <time>2022-12-18T16:52:27.666Z</time>
      </trkpt>
      <trkpt lat="46.43432" lon="-1.59989">
        <ele>43.289453</ele>
        <time>2022-12-18T16:52:30.663Z</time>
      </trkpt>
      <trkpt lat="46.43426" lon="-1.59976">
        <ele>43.252803</ele>
        <time>2022-12-18T16:52:33.660Z</time>
      </trkpt>
      <trkpt lat="46.4342" lon="-1.59965">
        <ele>43.218315</ele>
        <time>2022-12-18T16:52:36.668Z</time>
      </trkpt>
      <trkpt lat="46.43415" lon="-1.59952">
        <ele>43.212677</ele>
        <time>2022-12-18T16:52:39.663Z</time>
      </trkpt>
      <trkpt lat="46.43411" lon="-1.59938">
        <ele>43.216242</ele>
        <time>2022-12-18T16:52:42.667Z</time>
      </trkpt>
      <trkpt lat="46.43408" lon="-1.59924">
        <ele>43.219869</ele>
        <time>2022-12-18T16:52:45.665Z</time>
      </trkpt>
      <trkpt lat="46.43404" lon="-1.59909">
        <ele>43.223443</ele>
        <time>2022-12-18T16:52:48.652Z</time>
      </trkpt>
      <trkpt lat="46.43401" lon="-1.59895">
        <ele>43.226911</ele>
        <time>2022-12-18T16:52:51.666Z</time>
      </trkpt>
      <trkpt lat="46.43401" lon="-1.5988">
        <ele>43.230394</ele>
        <time>2022-12-18T16:52:54.668Z</time>
      </trkpt>
      <trkpt lat="46.43399" lon="-1.59864">
        <ele>43.234128</ele>
        <time>2022-12-18T16:52:57.665Z</time>
      </trkpt>
      <trkpt lat="46.43395" lon="-1.5985">
        <ele>43.237833</ele>
        <time>2022-12-18T16:53:00.647Z</time>
      </trkpt>
      <trkpt lat="46.43391" lon="-1.59835">
        <ele>43.241536</ele>
        <time>2022-12-18T16:53:03.668Z</time>
      </trkpt>
      <trkpt lat="46.43386" lon="-1.59821">
        <ele>43.245371</ele>
        <time>2022-12-18T16:53:06.666Z</time>
      </trkpt>
      <trkpt lat="46.4338" lon="-1.59805">
        <ele>43.24943</ele>
        <time>2022-12-18T16:53:09.664Z</time>
      </trkpt>
      <trkpt lat="46.43375" lon="-1.5979">
        <ele>43.253454</ele>
        <time>2022-12-18T16:53:12.679Z</time>
      </trkpt>
      <trkpt lat="46.43371" lon="-1.59774">
        <ele>43.257439</ele>
        <time>2022-12-18T16:53:15.676Z</time>
      </trkpt>
      <trkpt lat="46.43367" lon="-1.59758">
        <ele>43.261387</ele>
        <time>2022-12-18T16:53:18.671Z</time>
      </trkpt>
      <trkpt lat="46.43364" lon="-1.59741">
        <ele>43.265511</ele>
        <time>2022-12-18T16:53:21.644Z</time>
      </trkpt>
      <trkpt lat="46.43362" lon="-1.59725">
        <ele>43.269299</ele>
        <time>2022-12-18T16:53:24.667Z</time>
      </trkpt>
      <trkpt lat="46.43359" lon="-1.59711">
        <ele>43.257205</ele>
        <time>2022-12-18T16:53:27.651Z</time>
      </trkpt>
      <trkpt lat="46.43356" lon="-1.59698">
        <ele>43.226209</ele>
        <time>2022-12-18T16:53:30.669Z</time>
      </trkpt>
      <trkpt lat="46.4335" lon="-1.59684">
        <ele>43.191447</ele>
        <time>2022-12-18T16:53:33.671Z</time>
      </trkpt>
      <trkpt lat="46.43344" lon="-1.59671">
        <ele>43.15693</ele>
        <time>2022-12-18T16:53:36.654Z</time>
      </trkpt>
      <trkpt lat="46.43339" lon="-1.5966">
        <ele>43.126401</ele>
        <time>2022-12-18T16:53:39.674Z</time>
      </trkpt>
      <trkpt lat="46.43333" lon="-1.59645">
        <ele>43.089538</ele>
        <time>2022-12-18T16:53:43.678Z</time>
      </trkpt>
      <trkpt lat="46.43327" lon="-1.59632">
        <ele>43.054253</ele>
        <time>2022-12-18T16:53:47.671Z</time>
      </trkpt>
      <trkpt lat="46.43319" lon="-1.59619">
        <ele>43.015454</ele>
        <time>2022-12-18T16:53:51.672Z</time>
      </trkpt>
      <trkpt lat="46.43313" lon="-1.59608">
        <ele>42.986511</ele>
        <time>2022-12-18T16:53:54.665Z</time>
      </trkpt>
      <trkpt lat="46.43307" lon="-1.59597">
        <ele>42.955295</ele>
        <time>2022-12-18T16:53:57.674Z</time>
      </trkpt>
      <trkpt lat="46.433" lon="-1.59587">
        <ele>42.923285</ele>
        <time>2022-12-18T16:54:00.677Z</time>
      </trkpt>
      <trkpt lat="46.43294" lon="-1.59576">
        <ele>42.893324</ele>
        <time>2022-12-18T16:54:03.669Z</time>
      </trkpt>
      <trkpt lat="46.43288" lon="-1.59564">
        <ele>42.85928</ele>
        <time>2022-12-18T16:54:06.665Z</time>
      </trkpt>
      <trkpt lat="46.4328" lon="-1.59551">
        <ele>42.821322</ele>
        <time>2022-12-18T16:54:09.664Z</time>
      </trkpt>
      <trkpt lat="46.43272" lon="-1.59541">
        <ele>42.787723</ele>
        <time>2022-12-18T16:54:12.666Z</time>
      </trkpt>
      <trkpt lat="46.43264" lon="-1.59532">
        <ele>42.756109</ele>
        <time>2022-12-18T16:54:15.672Z</time>
      </trkpt>
      <trkpt lat="46.43257" lon="-1.59525">
        <ele>42.726276</ele>
        <time>2022-12-18T16:54:18.664Z</time>
      </trkpt>
      <trkpt lat="46.43249" lon="-1.59516">
        <ele>42.695662</ele>
        <time>2022-12-18T16:54:21.672Z</time>
      </trkpt>
      <trkpt lat="46.43241" lon="-1.59505">
        <ele>42.698096</ele>
        <time>2022-12-18T16:54:24.666Z</time>
      </trkpt>
      <trkpt lat="46.43233" lon="-1.59495">
        <ele>42.700627</ele>
        <time>2022-12-18T16:54:27.666Z</time>
      </trkpt>
      <trkpt lat="46.43225" lon="-1.59484">
        <ele>42.70315</ele>
        <time>2022-12-18T16:54:30.670Z</time>
      </trkpt>
      <trkpt lat="46.43217" lon="-1.59474">
        <ele>42.70567</ele>
        <time>2022-12-18T16:54:33.678Z</time>
      </trkpt>
      <trkpt lat="46.43209" lon="-1.59463">
        <ele>42.708161</ele>
        <time>2022-12-18T16:54:36.664Z</time>
      </trkpt>
      <trkpt lat="46.432" lon="-1.59452">
        <ele>42.71078</ele>
        <time>2022-12-18T16:54:39.676Z</time>
      </trkpt>
      <trkpt lat="46.43193" lon="-1.5944">
        <ele>42.713464</ele>
        <time>2022-12-18T16:54:42.665Z</time>
      </trkpt>
      <trkpt lat="46.43186" lon="-1.59427">
        <ele>42.716129</ele>
        <time>2022-12-18T16:54:45.670Z</time>
      </trkpt>
      <trkpt lat="46.4318" lon="-1.59414">
        <ele>42.718459</ele>
        <time>2022-12-18T16:54:48.662Z</time>
      </trkpt>
      <trkpt lat="46.43175" lon="-1.59401">
        <ele>42.720914</ele>
        <time>2022-12-18T16:54:51.669Z</time>
      </trkpt>
      <trkpt lat="46.43169" lon="-1.59388">
        <ele>42.72339</ele>
        <time>2022-12-18T16:54:54.659Z</time>
      </trkpt>
      <trkpt lat="46.43163" lon="-1.59375">
        <ele>42.725906</ele>
        <time>2022-12-18T16:54:57.666Z</time>
      </trkpt>
      <trkpt lat="46.43157" lon="-1.59362">
        <ele>42.728513</ele>
        <time>2022-12-18T16:55:00.668Z</time>
      </trkpt>
      <trkpt lat="46.43151" lon="-1.5935">
        <ele>42.73083</ele>
        <time>2022-12-18T16:55:03.667Z</time>
      </trkpt>
      <trkpt lat="46.43144" lon="-1.59338">
        <ele>42.733272</ele>
        <time>2022-12-18T16:55:06.664Z</time>
      </trkpt>
      <trkpt lat="46.43137" lon="-1.59326">
        <ele>42.735747</ele>
        <time>2022-12-18T16:55:09.663Z</time>
      </trkpt>
      <trkpt lat="46.43129" lon="-1.59315">
        <ele>42.750361</ele>
        <time>2022-12-18T16:55:12.669Z</time>
      </trkpt>
      <trkpt lat="46.43121" lon="-1.59305">
        <ele>42.78043</ele>
        <time>2022-12-18T16:55:15.665Z</time>
      </trkpt>
      <trkpt lat="46.43113" lon="-1.59295">
        <ele>42.809899</ele>
        <time>2022-12-18T16:55:18.653Z</time>
      </trkpt>
      <trkpt lat="46.43105" lon="-1.59285">
        <ele>42.840501</ele>
        <time>2022-12-18T16:55:21.673Z</time>
      </trkpt>
      <trkpt lat="46.43096" lon="-1.59276">
        <ele>42.87129</ele>
        <time>2022-12-18T16:55:24.675Z</time>
      </trkpt>
      <trkpt lat="46.43088" lon="-1.59267">
        <ele>42.902192</ele>
        <time>2022-12-18T16:55:27.666Z</time>
      </trkpt>
      <trkpt lat="46.43078" lon="-1.59258">
        <ele>42.933944</ele>
        <time>2022-12-18T16:55:30.678Z</time>
      </trkpt>
      <trkpt lat="46.43069" lon="-1.59251">
        <ele>42.965563</ele>
        <time>2022-12-18T16:55:33.664Z</time>
      </trkpt>
      <trkpt lat="46.4306" lon="-1.59244">
        <ele>42.994054</ele>
        <time>2022-12-18T16:55:36.656Z</time>
      </trkpt>
      <trkpt lat="46.43051" lon="-1.59238">
        <ele>43.022063</ele>
        <time>2022-12-18T16:55:39.679Z</time>
      </trkpt>
      <trkpt lat="46.43043" lon="-1.59228">
        <ele>43.051059</ele>
        <time>2022-12-18T16:55:42.674Z</time>
      </trkpt>
      <trkpt lat="46.43036" lon="-1.59219">
        <ele>43.079238</ele>
        <time>2022-12-18T16:55:45.671Z</time>
      </trkpt>
      <trkpt lat="46.43029" lon="-1.59209">
        <ele>43.106244</ele>
        <time>2022-12-18T16:55:48.667Z</time>
      </trkpt>
      <trkpt lat="46.43022" lon="-1.59198">
        <ele>43.136197</ele>
        <time>2022-12-18T16:55:51.674Z</time>
      </trkpt>
      <trkpt lat="46.43017" lon="-1.59184">
        <ele>43.167931</ele>
        <time>2022-12-18T16:55:54.666Z</time>
      </trkpt>
      <trkpt lat="46.43014" lon="-1.59169">
        <ele>43.197655</ele>
        <time>2022-12-18T16:55:57.666Z</time>
      </trkpt>
      <trkpt lat="46.43012" lon="-1.59155">
        <ele>43.225585</ele>
        <time>2022-12-18T16:56:00.666Z</time>
      </trkpt>
      <trkpt lat="46.43009" lon="-1.59141">
        <ele>43.281151</ele>
        <time>2022-12-18T16:56:03.672Z</time>
      </trkpt>
      <trkpt lat="46.43005" lon="-1.59127">
        <ele>43.536421</ele>
        <time>2022-12-18T16:56:06.670Z</time>
      </trkpt>
      <trkpt lat="46.43" lon="-1.59114">
        <ele>43.791667</ele>
        <time>2022-12-18T16:56:09.673Z</time>
      </trkpt>
      <trkpt lat="46.42994" lon="-1.59102">
        <ele>44.044062</ele>
        <time>2022-12-18T16:56:12.665Z</time>
      </trkpt>
      <trkpt lat="46.42986" lon="-1.59092">
        <ele>44.306835</ele>
        <time>2022-12-18T16:56:15.672Z</time>
      </trkpt>
      <trkpt lat="46.42978" lon="-1.5908">
        <ele>44.586186</ele>
        <time>2022-12-18T16:56:18.655Z</time>
      </trkpt>
      <trkpt lat="46.4297" lon="-1.59069">
        <ele>44.859611</ele>
        <time>2022-12-18T16:56:21.666Z</time>
      </trkpt>
      <trkpt lat="46.42964" lon="-1.59057">
        <ele>45.117569</ele>
        <time>2022-12-18T16:56:24.672Z</time>
      </trkpt>
      <trkpt lat="46.4296" lon="-1.59041">
        <ele>45.400943</ele>
        <time>2022-12-18T16:56:27.669Z</time>
      </trkpt>
      <trkpt lat="46.42957" lon="-1.59025">
        <ele>45.68458</ele>
        <time>2022-12-18T16:56:30.665Z</time>
      </trkpt>
      <trkpt lat="46.42954" lon="-1.59011">
        <ele>45.936725</ele>
        <time>2022-12-18T16:56:33.664Z</time>
      </trkpt>
      <trkpt lat="46.4295" lon="-1.58999">
        <ele>46.166734</ele>
        <time>2022-12-18T16:56:36.675Z</time>
      </trkpt>
      <trkpt lat="46.42944" lon="-1.58988">
        <ele>46.393176</ele>
        <time>2022-12-18T16:56:39.665Z</time>
      </trkpt>
      <trkpt lat="46.42938" lon="-1.58979">
        <ele>46.618401</ele>
        <time>2022-12-18T16:56:42.664Z</time>
      </trkpt>
      <trkpt lat="46.42931" lon="-1.58966">
        <ele>46.885524</ele>
        <time>2022-12-18T16:56:47.659Z</time>
      </trkpt>
      <trkpt lat="46.42925" lon="-1.58956">
        <ele>47.119104</ele>
        <time>2022-12-18T16:56:53.668Z</time>
      </trkpt>
      <trkpt lat="46.42925" lon="-1.58956">
        <ele>47.12913</ele>
        <time>2022-12-18T16:57:06.213Z</time>
      </trkpt>
      <trkpt lat="46.4292" lon="-1.58944">
        <ele>47.371258</ele>
        <time>2022-12-18T17:02:51.660Z</time>
      </trkpt>
      <trkpt lat="46.42914" lon="-1.58932">
        <ele>47.610982</ele>
        <time>2022-12-18T17:03:12.658Z</time>
      </trkpt>
      <trkpt lat="46.42905" lon="-1.58926">
        <ele>47.87171</ele>
        <time>2022-12-18T17:03:23.661Z</time>
      </trkpt>
      <trkpt lat="46.42897" lon="-1.5892">
        <ele>48.128754</ele>
        <time>2022-12-18T17:03:35.658Z</time>
      </trkpt>
      <trkpt lat="46.42888" lon="-1.58915">
        <ele>48.36893</ele>
        <time>2022-12-18T17:03:44.664Z</time>
      </trkpt>
      <trkpt lat="46.42881" lon="-1.58907">
        <ele>48.611301</ele>
        <time>2022-12-18T17:03:53.659Z</time>
      </trkpt>
      <trkpt lat="46.42872" lon="-1.58903">
        <ele>48.865286</ele>
        <time>2022-12-18T17:04:12.658Z</time>
      </trkpt>
      <trkpt lat="46.42863" lon="-1.58897">
        <ele>49.13503</ele>
        <time>2022-12-18T17:04:23.658Z</time>
      </trkpt>
      <trkpt lat="46.42854" lon="-1.58889">
        <ele>49.399881</ele>
        <time>2022-12-18T17:04:32.658Z</time>
      </trkpt>
      <trkpt lat="46.42859" lon="-1.58853">
        <ele>50.083725</ele>
        <time>2022-12-18T17:04:59.666Z</time>
      </trkpt>
      <trkpt lat="46.42862" lon="-1.5884">
        <ele>50.329759</ele>
        <time>2022-12-18T17:05:02.676Z</time>
      </trkpt>
      <trkpt lat="46.42865" lon="-1.58824">
        <ele>50.640716</ele>
        <time>2022-12-18T17:05:05.674Z</time>
      </trkpt>
      <trkpt lat="46.42868" lon="-1.58804">
        <ele>51.005468</ele>
        <time>2022-12-18T17:05:08.662Z</time>
      </trkpt>
      <trkpt lat="46.42869" lon="-1.58791">
        <ele>51.254321</ele>
        <time>2022-12-18T17:05:10.666Z</time>
      </trkpt>
      <trkpt lat="46.42871" lon="-1.58772">
        <ele>51.600507</ele>
        <time>2022-12-18T17:05:13.676Z</time>
      </trkpt>
      <trkpt lat="46.42874" lon="-1.58754">
        <ele>51.946692</ele>
        <time>2022-12-18T17:05:16.659Z</time>
      </trkpt>
      <trkpt lat="46.42875" lon="-1.5874">
        <ele>52.200042</ele>
        <time>2022-12-18T17:05:18.651Z</time>
      </trkpt>
      <trkpt lat="46.42876" lon="-1.58721">
        <ele>52.462322</ele>
        <time>2022-12-18T17:05:21.656Z</time>
      </trkpt>
      <trkpt lat="46.42877" lon="-1.58704">
        <ele>52.322565</ele>
        <time>2022-12-18T17:05:23.667Z</time>
      </trkpt>
      <trkpt lat="46.42879" lon="-1.58689">
        <ele>52.192311</ele>
        <time>2022-12-18T17:05:25.657Z</time>
      </trkpt>
      <trkpt lat="46.4288" lon="-1.58675">
        <ele>52.067685</ele>
        <time>2022-12-18T17:05:27.667Z</time>
      </trkpt>
      <trkpt lat="46.42883" lon="-1.58661">
        <ele>51.941939</ele>
        <time>2022-12-18T17:05:29.650Z</time>
      </trkpt>
      <trkpt lat="46.42885" lon="-1.58648">
        <ele>51.827883</ele>
        <time>2022-12-18T17:05:31.671Z</time>
      </trkpt>
      <trkpt lat="46.42886" lon="-1.58634">
        <ele>51.713949</ele>
        <time>2022-12-18T17:05:33.665Z</time>
      </trkpt>
      <trkpt lat="46.42887" lon="-1.5862">
        <ele>51.592962</ele>
        <time>2022-12-18T17:05:35.655Z</time>
      </trkpt>
      <trkpt lat="46.42889" lon="-1.58607">
        <ele>51.476178</ele>
        <time>2022-12-18T17:05:37.663Z</time>
      </trkpt>
      <trkpt lat="46.42891" lon="-1.58591">
        <ele>51.339075</ele>
        <time>2022-12-18T17:05:39.660Z</time>
      </trkpt>
      <trkpt lat="46.42896" lon="-1.58574">
        <ele>51.18054</ele>
        <time>2022-12-18T17:05:42.659Z</time>
      </trkpt>
      <trkpt lat="46.42898" lon="-1.58555">
        <ele>51.017967</ele>
        <time>2022-12-18T17:05:45.656Z</time>
      </trkpt>
      <trkpt lat="46.429" lon="-1.58542">
        <ele>50.906072</ele>
        <time>2022-12-18T17:05:47.660Z</time>
      </trkpt>
      <trkpt lat="46.42902" lon="-1.58529">
        <ele>50.79075</ele>
        <time>2022-12-18T17:05:49.675Z</time>
      </trkpt>
      <trkpt lat="46.42904" lon="-1.5851">
        <ele>50.623095</ele>
        <time>2022-12-18T17:05:52.672Z</time>
      </trkpt>
      <trkpt lat="46.42907" lon="-1.58491">
        <ele>50.458851</ele>
        <time>2022-12-18T17:05:55.651Z</time>
      </trkpt>
      <trkpt lat="46.4291" lon="-1.58471">
        <ele>50.28701</ele>
        <time>2022-12-18T17:05:58.676Z</time>
      </trkpt>
      <trkpt lat="46.42911" lon="-1.58452">
        <ele>50.327148</ele>
        <time>2022-12-18T17:06:01.672Z</time>
      </trkpt>
      <trkpt lat="46.42913" lon="-1.58438">
        <ele>50.374052</ele>
        <time>2022-12-18T17:06:03.666Z</time>
      </trkpt>
      <trkpt lat="46.42915" lon="-1.58425">
        <ele>50.421093</ele>
        <time>2022-12-18T17:06:05.660Z</time>
      </trkpt>
      <trkpt lat="46.42916" lon="-1.5841">
        <ele>50.471677</ele>
        <time>2022-12-18T17:06:07.658Z</time>
      </trkpt>
      <trkpt lat="46.42918" lon="-1.58395">
        <ele>50.524187</ele>
        <time>2022-12-18T17:06:09.654Z</time>
      </trkpt>
      <trkpt lat="46.4292" lon="-1.58382">
        <ele>50.570454</ele>
        <time>2022-12-18T17:06:11.657Z</time>
      </trkpt>
      <trkpt lat="46.42923" lon="-1.58366">
        <ele>50.626471</ele>
        <time>2022-12-18T17:06:13.653Z</time>
      </trkpt>
      <trkpt lat="46.42923" lon="-1.58353">
        <ele>50.673063</ele>
        <time>2022-12-18T17:06:15.656Z</time>
      </trkpt>
      <trkpt lat="46.42924" lon="-1.58335">
        <ele>50.733345</ele>
        <time>2022-12-18T17:06:18.673Z</time>
      </trkpt>
      <trkpt lat="46.42927" lon="-1.58321">
        <ele>50.784339</ele>
        <time>2022-12-18T17:06:21.690Z</time>
      </trkpt>
      <trkpt lat="46.42929" lon="-1.58307">
        <ele>50.830916</ele>
        <time>2022-12-18T17:06:24.688Z</time>
      </trkpt>
      <trkpt lat="46.42931" lon="-1.5829">
        <ele>50.89101</ele>
        <time>2022-12-18T17:06:28.660Z</time>
      </trkpt>
      <trkpt lat="46.42934" lon="-1.58277">
        <ele>50.939036</ele>
        <time>2022-12-18T17:06:31.653Z</time>
      </trkpt>
      <trkpt lat="46.42935" lon="-1.58261">
        <ele>50.991565</ele>
        <time>2022-12-18T17:06:34.660Z</time>
      </trkpt>
      <trkpt lat="46.42937" lon="-1.58244">
        <ele>51.051684</ele>
        <time>2022-12-18T17:06:37.660Z</time>
      </trkpt>
      <trkpt lat="46.42939" lon="-1.58228">
        <ele>51.109039</ele>
        <time>2022-12-18T17:06:40.673Z</time>
      </trkpt>
      <trkpt lat="46.42941" lon="-1.58211">
        <ele>51.159119</ele>
        <time>2022-12-18T17:06:43.662Z</time>
      </trkpt>
      <trkpt lat="46.42943" lon="-1.58194">
        <ele>51.135005</ele>
        <time>2022-12-18T17:06:46.686Z</time>
      </trkpt>
      <trkpt lat="46.42944" lon="-1.58177">
        <ele>51.109254</ele>
        <time>2022-12-18T17:06:49.658Z</time>
      </trkpt>
      <trkpt lat="46.42946" lon="-1.58159">
        <ele>51.083199</ele>
        <time>2022-12-18T17:06:52.653Z</time>
      </trkpt>
      <trkpt lat="46.42949" lon="-1.58141">
        <ele>51.056652</ele>
        <time>2022-12-18T17:06:55.652Z</time>
      </trkpt>
      <trkpt lat="46.42951" lon="-1.58124">
        <ele>51.03187</ele>
        <time>2022-12-18T17:06:58.659Z</time>
      </trkpt>
      <trkpt lat="46.42953" lon="-1.58108">
        <ele>51.008901</ele>
        <time>2022-12-18T17:07:01.657Z</time>
      </trkpt>
      <trkpt lat="46.42956" lon="-1.58093">
        <ele>50.98582</ele>
        <time>2022-12-18T17:07:04.651Z</time>
      </trkpt>
      <trkpt lat="46.42959" lon="-1.58077">
        <ele>50.961891</ele>
        <time>2022-12-18T17:07:07.658Z</time>
      </trkpt>
      <trkpt lat="46.42961" lon="-1.58059">
        <ele>50.936724</ele>
        <time>2022-12-18T17:07:10.670Z</time>
      </trkpt>
      <trkpt lat="46.42964" lon="-1.58042">
        <ele>50.911094</ele>
        <time>2022-12-18T17:07:13.660Z</time>
      </trkpt>
      <trkpt lat="46.42966" lon="-1.58027">
        <ele>50.889012</ele>
        <time>2022-12-18T17:07:16.661Z</time>
      </trkpt>
      <trkpt lat="46.42967" lon="-1.58013">
        <ele>50.868597</ele>
        <time>2022-12-18T17:07:20.667Z</time>
      </trkpt>
      <trkpt lat="46.42965" lon="-1.58">
        <ele>50.849676</ele>
        <time>2022-12-18T17:07:27.656Z</time>
      </trkpt>
      <trkpt lat="46.42972" lon="-1.57992">
        <ele>50.830278</ele>
        <time>2022-12-18T17:07:33.660Z</time>
      </trkpt>
      <trkpt lat="46.42975" lon="-1.57976">
        <ele>50.807226</ele>
        <time>2022-12-18T17:07:38.674Z</time>
      </trkpt>
      <trkpt lat="46.42991" lon="-1.57958">
        <ele>50.793283</ele>
        <time>2022-12-18T17:09:32.651Z</time>
      </trkpt>
      <trkpt lat="46.43002" lon="-1.57953">
        <ele>50.801153</ele>
        <time>2022-12-18T17:09:35.666Z</time>
      </trkpt>
      <trkpt lat="46.43011" lon="-1.57939">
        <ele>50.810481</ele>
        <time>2022-12-18T17:09:38.647Z</time>
      </trkpt>
      <trkpt lat="46.43015" lon="-1.57922">
        <ele>50.819534</ele>
        <time>2022-12-18T17:09:41.650Z</time>
      </trkpt>
      <trkpt lat="46.43016" lon="-1.57908">
        <ele>50.826355</ele>
        <time>2022-12-18T17:09:43.651Z</time>
      </trkpt>
      <trkpt lat="46.43017" lon="-1.57894">
        <ele>50.833397</ele>
        <time>2022-12-18T17:09:45.658Z</time>
      </trkpt>
      <trkpt lat="46.43019" lon="-1.57879">
        <ele>50.840402</ele>
        <time>2022-12-18T17:09:47.671Z</time>
      </trkpt>
      <trkpt lat="46.4302" lon="-1.57866">
        <ele>50.847165</ele>
        <time>2022-12-18T17:09:49.666Z</time>
      </trkpt>
      <trkpt lat="46.43021" lon="-1.57852">
        <ele>50.853946</ele>
        <time>2022-12-18T17:09:51.667Z</time>
      </trkpt>
      <trkpt lat="46.43024" lon="-1.57834">
        <ele>50.863188</ele>
        <time>2022-12-18T17:09:54.677Z</time>
      </trkpt>
      <trkpt lat="46.43026" lon="-1.57816">
        <ele>50.872058</ele>
        <time>2022-12-18T17:09:57.678Z</time>
      </trkpt>
      <trkpt lat="46.43027" lon="-1.57796">
        <ele>50.881621</ele>
        <time>2022-12-18T17:10:00.674Z</time>
      </trkpt>
      <trkpt lat="46.43028" lon="-1.57784">
        <ele>50.888012</ele>
        <time>2022-12-18T17:10:02.666Z</time>
      </trkpt>
      <trkpt lat="46.43033" lon="-1.57766">
        <ele>50.897416</ele>
        <time>2022-12-18T17:10:05.652Z</time>
      </trkpt>
      <trkpt lat="46.4304" lon="-1.57749">
        <ele>50.906934</ele>
        <time>2022-12-18T17:10:08.655Z</time>
      </trkpt>
      <trkpt lat="46.43046" lon="-1.57737">
        <ele>50.913927</ele>
        <time>2022-12-18T17:10:10.651Z</time>
      </trkpt>
      <trkpt lat="46.4305" lon="-1.57726">
        <ele>51.031173</ele>
        <time>2022-12-18T17:10:12.658Z</time>
      </trkpt>
      <trkpt lat="46.43055" lon="-1.57709">
        <ele>51.19752</ele>
        <time>2022-12-18T17:10:15.664Z</time>
      </trkpt>
      <trkpt lat="46.43058" lon="-1.57695">
        <ele>51.325293</ele>
        <time>2022-12-18T17:10:18.668Z</time>
      </trkpt>
      <trkpt lat="46.43052" lon="-1.57684">
        <ele>51.448137</ele>
        <time>2022-12-18T17:10:24.648Z</time>
      </trkpt>
      <trkpt lat="46.43042" lon="-1.57681">
        <ele>51.57983</ele>
        <time>2022-12-18T17:10:29.655Z</time>
      </trkpt>
      <trkpt lat="46.43031" lon="-1.57678">
        <ele>51.724908</ele>
        <time>2022-12-18T17:10:33.651Z</time>
      </trkpt>
      <trkpt lat="46.43023" lon="-1.57674">
        <ele>51.844534</ele>
        <time>2022-12-18T17:10:36.667Z</time>
      </trkpt>
      <trkpt lat="46.43014" lon="-1.5767">
        <ele>51.96717</ele>
        <time>2022-12-18T17:10:39.666Z</time>
      </trkpt>
      <trkpt lat="46.43004" lon="-1.57666">
        <ele>52.09737</ele>
        <time>2022-12-18T17:10:42.670Z</time>
      </trkpt>
      <trkpt lat="46.42995" lon="-1.57662">
        <ele>52.224038</ele>
        <time>2022-12-18T17:10:45.676Z</time>
      </trkpt>
      <trkpt lat="46.42986" lon="-1.57659">
        <ele>52.345665</ele>
        <time>2022-12-18T17:10:48.656Z</time>
      </trkpt>
      <trkpt lat="46.42975" lon="-1.57654">
        <ele>52.497775</ele>
        <time>2022-12-18T17:10:52.668Z</time>
      </trkpt>
      <trkpt lat="46.42965" lon="-1.57649">
        <ele>52.633966</ele>
        <time>2022-12-18T17:10:56.655Z</time>
      </trkpt>
      <trkpt lat="46.42955" lon="-1.57644">
        <ele>52.770812</ele>
        <time>2022-12-18T17:11:00.672Z</time>
      </trkpt>
      <trkpt lat="46.42945" lon="-1.5764">
        <ele>52.914095</ele>
        <time>2022-12-18T17:11:04.656Z</time>
      </trkpt>
      <trkpt lat="46.42934" lon="-1.57635">
        <ele>53.054609</ele>
        <time>2022-12-18T17:11:08.656Z</time>
      </trkpt>
      <trkpt lat="46.42924" lon="-1.5763">
        <ele>53.194814</ele>
        <time>2022-12-18T17:11:12.661Z</time>
      </trkpt>
      <trkpt lat="46.42915" lon="-1.57624">
        <ele>53.256014</ele>
        <time>2022-12-18T17:11:16.655Z</time>
      </trkpt>
      <trkpt lat="46.42906" lon="-1.57617">
        <ele>53.219312</ele>
        <time>2022-12-18T17:11:20.652Z</time>
      </trkpt>
      <trkpt lat="46.42897" lon="-1.57608">
        <ele>53.180621</ele>
        <time>2022-12-18T17:11:24.651Z</time>
      </trkpt>
      <trkpt lat="46.42888" lon="-1.57598">
        <ele>53.141473</ele>
        <time>2022-12-18T17:11:28.652Z</time>
      </trkpt>
      <trkpt lat="46.42879" lon="-1.57587">
        <ele>53.099349</ele>
        <time>2022-12-18T17:11:32.655Z</time>
      </trkpt>
      <trkpt lat="46.42872" lon="-1.57578">
        <ele>53.066649</ele>
        <time>2022-12-18T17:11:35.660Z</time>
      </trkpt>
      <trkpt lat="46.42863" lon="-1.57569">
        <ele>53.026151</ele>
        <time>2022-12-18T17:11:39.654Z</time>
      </trkpt>
      <trkpt lat="46.42851" lon="-1.57555">
        <ele>52.97248</ele>
        <time>2022-12-18T17:12:04.656Z</time>
      </trkpt>
      <trkpt lat="46.42841" lon="-1.57546">
        <ele>52.928995</ele>
        <time>2022-12-18T17:12:08.653Z</time>
      </trkpt>
      <trkpt lat="46.42831" lon="-1.57538">
        <ele>52.889557</ele>
        <time>2022-12-18T17:12:11.658Z</time>
      </trkpt>
      <trkpt lat="46.42821" lon="-1.57531">
        <ele>52.851721</ele>
        <time>2022-12-18T17:12:14.658Z</time>
      </trkpt>
      <trkpt lat="46.42812" lon="-1.57526">
        <ele>52.817661</ele>
        <time>2022-12-18T17:12:17.653Z</time>
      </trkpt>
      <trkpt lat="46.42803" lon="-1.57522">
        <ele>52.781629</ele>
        <time>2022-12-18T17:12:20.649Z</time>
      </trkpt>
      <trkpt lat="46.42792" lon="-1.5752">
        <ele>52.744535</ele>
        <time>2022-12-18T17:12:23.652Z</time>
      </trkpt>
      <trkpt lat="46.42781" lon="-1.57517">
        <ele>52.704552</ele>
        <time>2022-12-18T17:12:26.650Z</time>
      </trkpt>
      <trkpt lat="46.4277" lon="-1.57515">
        <ele>52.665092</ele>
        <time>2022-12-18T17:12:29.651Z</time>
      </trkpt>
      <trkpt lat="46.42759" lon="-1.57512">
        <ele>52.627874</ele>
        <time>2022-12-18T17:12:32.662Z</time>
      </trkpt>
      <trkpt lat="46.42748" lon="-1.57511">
        <ele>52.601067</ele>
        <time>2022-12-18T17:12:35.651Z</time>
      </trkpt>
      <trkpt lat="46.42735" lon="-1.57509">
        <ele>52.57248</ele>
        <time>2022-12-18T17:12:38.663Z</time>
      </trkpt>
      <trkpt lat="46.42722" lon="-1.57507">
        <ele>52.542911</ele>
        <time>2022-12-18T17:12:41.648Z</time>
      </trkpt>
      <trkpt lat="46.42709" lon="-1.57505">
        <ele>52.513775</ele>
        <time>2022-12-18T17:12:44.651Z</time>
      </trkpt>
      <trkpt lat="46.42696" lon="-1.57503">
        <ele>52.48438</ele>
        <time>2022-12-18T17:12:47.657Z</time>
      </trkpt>
      <trkpt lat="46.42684" lon="-1.57501">
        <ele>52.455416</ele>
        <time>2022-12-18T17:12:50.656Z</time>
      </trkpt>
      <trkpt lat="46.42671" lon="-1.57498">
        <ele>52.42686</ele>
        <time>2022-12-18T17:12:53.666Z</time>
      </trkpt>
      <trkpt lat="46.42659" lon="-1.57496">
        <ele>52.398793</ele>
        <time>2022-12-18T17:12:56.664Z</time>
      </trkpt>
      <trkpt lat="46.42646" lon="-1.57494">
        <ele>52.37035</ele>
        <time>2022-12-18T17:12:59.659Z</time>
      </trkpt>
      <trkpt lat="46.42634" lon="-1.57492">
        <ele>52.342771</ele>
        <time>2022-12-18T17:13:02.647Z</time>
      </trkpt>
      <trkpt lat="46.42623" lon="-1.57491">
        <ele>52.316215</ele>
        <time>2022-12-18T17:13:05.653Z</time>
      </trkpt>
      <trkpt lat="46.42611" lon="-1.57489">
        <ele>52.289495</ele>
        <time>2022-12-18T17:13:08.665Z</time>
      </trkpt>
      <trkpt lat="46.42599" lon="-1.57485">
        <ele>52.262801</ele>
        <time>2022-12-18T17:13:11.654Z</time>
      </trkpt>
      <trkpt lat="46.42588" lon="-1.57484">
        <ele>52.236607</ele>
        <time>2022-12-18T17:13:14.654Z</time>
      </trkpt>
      <trkpt lat="46.42576" lon="-1.57481">
        <ele>52.224369</ele>
        <time>2022-12-18T17:13:17.651Z</time>
      </trkpt>
      <trkpt lat="46.42564" lon="-1.5748">
        <ele>52.223592</ele>
        <time>2022-12-18T17:13:20.658Z</time>
      </trkpt>
      <trkpt lat="46.42551" lon="-1.57478">
        <ele>52.222819</ele>
        <time>2022-12-18T17:13:23.655Z</time>
      </trkpt>
      <trkpt lat="46.42539" lon="-1.57475">
        <ele>52.222046</ele>
        <time>2022-12-18T17:13:26.656Z</time>
      </trkpt>
      <trkpt lat="46.42527" lon="-1.57473">
        <ele>52.221241</ele>
        <time>2022-12-18T17:13:29.647Z</time>
      </trkpt>
      <trkpt lat="46.42514" lon="-1.57471">
        <ele>52.220455</ele>
        <time>2022-12-18T17:13:32.653Z</time>
      </trkpt>
      <trkpt lat="46.42503" lon="-1.57468">
        <ele>52.219723</ele>
        <time>2022-12-18T17:13:35.661Z</time>
      </trkpt>
      <trkpt lat="46.42491" lon="-1.57467">
        <ele>52.218984</ele>
        <time>2022-12-18T17:13:38.652Z</time>
      </trkpt>
      <trkpt lat="46.42479" lon="-1.57466">
        <ele>52.218235</ele>
        <time>2022-12-18T17:13:41.652Z</time>
      </trkpt>
      <trkpt lat="46.42467" lon="-1.57467">
        <ele>52.217489</ele>
        <time>2022-12-18T17:13:44.652Z</time>
      </trkpt>
      <trkpt lat="46.42456" lon="-1.57471">
        <ele>52.216754</ele>
        <time>2022-12-18T17:13:47.666Z</time>
      </trkpt>
      <trkpt lat="46.42444" lon="-1.57466">
        <ele>52.215991</ele>
        <time>2022-12-18T17:13:50.658Z</time>
      </trkpt>
      <trkpt lat="46.42434" lon="-1.57459">
        <ele>52.215243</ele>
        <time>2022-12-18T17:13:53.657Z</time>
      </trkpt>
      <trkpt lat="46.42423" lon="-1.57458">
        <ele>52.21455</ele>
        <time>2022-12-18T17:13:56.659Z</time>
      </trkpt>
      <trkpt lat="46.42413" lon="-1.57458">
        <ele>52.213946</ele>
        <time>2022-12-18T17:13:59.655Z</time>
      </trkpt>
      <trkpt lat="46.42403" lon="-1.57457">
        <ele>52.229811</ele>
        <time>2022-12-18T17:14:02.652Z</time>
      </trkpt>
      <trkpt lat="46.42392" lon="-1.57455">
        <ele>52.292703</ele>
        <time>2022-12-18T17:14:05.649Z</time>
      </trkpt>
      <trkpt lat="46.42381" lon="-1.57454">
        <ele>52.358753</ele>
        <time>2022-12-18T17:14:08.658Z</time>
      </trkpt>
      <trkpt lat="46.42369" lon="-1.57451">
        <ele>52.427637</ele>
        <time>2022-12-18T17:14:11.652Z</time>
      </trkpt>
      <trkpt lat="46.42357" lon="-1.57449">
        <ele>52.498051</ele>
        <time>2022-12-18T17:14:14.650Z</time>
      </trkpt>
      <trkpt lat="46.42345" lon="-1.57447">
        <ele>52.570348</ele>
        <time>2022-12-18T17:14:17.654Z</time>
      </trkpt>
      <trkpt lat="46.42333" lon="-1.57445">
        <ele>52.640095</ele>
        <time>2022-12-18T17:14:20.651Z</time>
      </trkpt>
      <trkpt lat="46.42321" lon="-1.57443">
        <ele>52.708683</ele>
        <time>2022-12-18T17:14:23.653Z</time>
      </trkpt>
      <trkpt lat="46.4231" lon="-1.57442">
        <ele>52.77603</ele>
        <time>2022-12-18T17:14:26.658Z</time>
      </trkpt>
      <trkpt lat="46.42298" lon="-1.57439">
        <ele>52.843942</ele>
        <time>2022-12-18T17:14:29.659Z</time>
      </trkpt>
      <trkpt lat="46.42287" lon="-1.57436">
        <ele>52.908337</ele>
        <time>2022-12-18T17:14:32.649Z</time>
      </trkpt>
      <trkpt lat="46.42277" lon="-1.57434">
        <ele>52.969665</ele>
        <time>2022-12-18T17:14:35.657Z</time>
      </trkpt>
      <trkpt lat="46.42266" lon="-1.57433">
        <ele>53.032197</ele>
        <time>2022-12-18T17:14:38.684Z</time>
      </trkpt>
      <trkpt lat="46.42256" lon="-1.5743">
        <ele>53.095314</ele>
        <time>2022-12-18T17:14:41.674Z</time>
      </trkpt>
      <trkpt lat="46.42246" lon="-1.57428">
        <ele>53.153123</ele>
        <time>2022-12-18T17:14:44.656Z</time>
      </trkpt>
      <trkpt lat="46.42234" lon="-1.57426">
        <ele>53.22225</ele>
        <time>2022-12-18T17:14:47.657Z</time>
      </trkpt>
      <trkpt lat="46.42225" lon="-1.57425">
        <ele>53.265135</ele>
        <time>2022-12-18T17:14:50.658Z</time>
      </trkpt>
      <trkpt lat="46.42213" lon="-1.5742">
        <ele>53.279204</ele>
        <time>2022-12-18T17:14:54.665Z</time>
      </trkpt>
      <trkpt lat="46.42204" lon="-1.57417">
        <ele>53.291383</ele>
        <time>2022-12-18T17:14:57.649Z</time>
      </trkpt>
      <trkpt lat="46.42192" lon="-1.57415">
        <ele>53.305046</ele>
        <time>2022-12-18T17:15:00.657Z</time>
      </trkpt>
      <trkpt lat="46.4218" lon="-1.57414">
        <ele>53.319564</ele>
        <time>2022-12-18T17:15:03.663Z</time>
      </trkpt>
      <trkpt lat="46.42168" lon="-1.57411">
        <ele>53.334696</ele>
        <time>2022-12-18T17:15:06.656Z</time>
      </trkpt>
      <trkpt lat="46.42155" lon="-1.57408">
        <ele>53.350291</ele>
        <time>2022-12-18T17:15:09.652Z</time>
      </trkpt>
      <trkpt lat="46.42142" lon="-1.57406">
        <ele>53.366016</ele>
        <time>2022-12-18T17:15:12.648Z</time>
      </trkpt>
      <trkpt lat="46.42129" lon="-1.57405">
        <ele>53.381207</ele>
        <time>2022-12-18T17:15:15.650Z</time>
      </trkpt>
      <trkpt lat="46.42118" lon="-1.57404">
        <ele>53.39461</ele>
        <time>2022-12-18T17:15:18.654Z</time>
      </trkpt>
      <trkpt lat="46.42108" lon="-1.57404">
        <ele>53.407622</ele>
        <time>2022-12-18T17:15:21.659Z</time>
      </trkpt>
      <trkpt lat="46.42097" lon="-1.57405">
        <ele>53.420402</ele>
        <time>2022-12-18T17:15:24.666Z</time>
      </trkpt>
      <trkpt lat="46.42087" lon="-1.57406">
        <ele>53.43225</ele>
        <time>2022-12-18T17:15:27.662Z</time>
      </trkpt>
      <trkpt lat="46.42078" lon="-1.57406">
        <ele>53.443339</ele>
        <time>2022-12-18T17:15:30.666Z</time>
      </trkpt>
      <trkpt lat="46.42067" lon="-1.57409">
        <ele>53.456766</ele>
        <time>2022-12-18T17:15:34.647Z</time>
      </trkpt>
      <trkpt lat="46.42057" lon="-1.57414">
        <ele>53.469479</ele>
        <time>2022-12-18T17:15:38.655Z</time>
      </trkpt>
      <trkpt lat="46.42047" lon="-1.57425">
        <ele>53.424806</ele>
        <time>2022-12-18T17:15:42.662Z</time>
      </trkpt>
      <trkpt lat="46.4204" lon="-1.57436">
        <ele>53.288358</ele>
        <time>2022-12-18T17:15:46.663Z</time>
      </trkpt>
      <trkpt lat="46.42038" lon="-1.57452">
        <ele>53.159666</ele>
        <time>2022-12-18T17:15:51.654Z</time>
      </trkpt>
      <trkpt lat="46.42038" lon="-1.57468">
        <ele>53.024196</ele>
        <time>2022-12-18T17:15:54.651Z</time>
      </trkpt>
      <trkpt lat="46.42038" lon="-1.57484">
        <ele>52.884564</ele>
        <time>2022-12-18T17:15:57.668Z</time>
      </trkpt>
      <trkpt lat="46.42039" lon="-1.57501">
        <ele>52.742829</ele>
        <time>2022-12-18T17:16:00.655Z</time>
      </trkpt>
      <trkpt lat="46.4204" lon="-1.57519">
        <ele>52.591558</ele>
        <time>2022-12-18T17:16:03.659Z</time>
      </trkpt>
      <trkpt lat="46.42042" lon="-1.57537">
        <ele>52.438742</ele>
        <time>2022-12-18T17:16:06.648Z</time>
      </trkpt>
      <trkpt lat="46.42044" lon="-1.57554">
        <ele>52.292757</ele>
        <time>2022-12-18T17:16:09.658Z</time>
      </trkpt>
      <trkpt lat="46.42046" lon="-1.57572">
        <ele>52.139822</ele>
        <time>2022-12-18T17:16:12.663Z</time>
      </trkpt>
      <trkpt lat="46.42047" lon="-1.5759">
        <ele>51.986173</ele>
        <time>2022-12-18T17:16:15.667Z</time>
      </trkpt>
      <trkpt lat="46.42049" lon="-1.57607">
        <ele>51.843168</ele>
        <time>2022-12-18T17:16:18.658Z</time>
      </trkpt>
      <trkpt lat="46.42051" lon="-1.57622">
        <ele>51.715172</ele>
        <time>2022-12-18T17:16:21.663Z</time>
      </trkpt>
      <trkpt lat="46.42051" lon="-1.57636">
        <ele>51.594496</ele>
        <time>2022-12-18T17:16:24.656Z</time>
      </trkpt>
      <trkpt lat="46.42052" lon="-1.57652">
        <ele>51.458631</ele>
        <time>2022-12-18T17:16:27.649Z</time>
      </trkpt>
      <trkpt lat="46.42053" lon="-1.5767">
        <ele>51.308311</ele>
        <time>2022-12-18T17:16:30.649Z</time>
      </trkpt>
      <trkpt lat="46.42055" lon="-1.57688">
        <ele>51.43766</ele>
        <time>2022-12-18T17:16:33.672Z</time>
      </trkpt>
      <trkpt lat="46.42055" lon="-1.57704">
        <ele>51.603647</ele>
        <time>2022-12-18T17:16:36.650Z</time>
      </trkpt>
      <trkpt lat="46.42056" lon="-1.57721">
        <ele>51.777042</ele>
        <time>2022-12-18T17:16:39.659Z</time>
      </trkpt>
      <trkpt lat="46.42056" lon="-1.57736">
        <ele>51.928795</ele>
        <time>2022-12-18T17:16:42.651Z</time>
      </trkpt>
      <trkpt lat="46.42056" lon="-1.57752">
        <ele>52.089834</ele>
        <time>2022-12-18T17:16:45.658Z</time>
      </trkpt>
      <trkpt lat="46.42054" lon="-1.57769">
        <ele>52.273053</ele>
        <time>2022-12-18T17:16:48.655Z</time>
      </trkpt>
      <trkpt lat="46.42053" lon="-1.57788">
        <ele>52.467336</ele>
        <time>2022-12-18T17:16:51.663Z</time>
      </trkpt>
      <trkpt lat="46.42052" lon="-1.57805">
        <ele>52.642596</ele>
        <time>2022-12-18T17:16:54.661Z</time>
      </trkpt>
      <trkpt lat="46.4205" lon="-1.57821">
        <ele>52.80201</ele>
        <time>2022-12-18T17:16:57.663Z</time>
      </trkpt>
      <trkpt lat="46.4205" lon="-1.57835">
        <ele>52.952946</ele>
        <time>2022-12-18T17:17:00.649Z</time>
      </trkpt>
      <trkpt lat="46.42049" lon="-1.57849">
        <ele>53.095143</ele>
        <time>2022-12-18T17:17:03.650Z</time>
      </trkpt>
      <trkpt lat="46.42048" lon="-1.57864">
        <ele>53.243682</ele>
        <time>2022-12-18T17:17:06.654Z</time>
      </trkpt>
      <trkpt lat="46.42048" lon="-1.57877">
        <ele>53.380876</ele>
        <time>2022-12-18T17:17:09.651Z</time>
      </trkpt>
      <trkpt lat="46.42048" lon="-1.57891">
        <ele>53.52263</ele>
        <time>2022-12-18T17:17:21.657Z</time>
      </trkpt>
      <trkpt lat="46.42046" lon="-1.57904">
        <ele>53.662095</ele>
        <time>2022-12-18T17:17:25.658Z</time>
      </trkpt>
      <trkpt lat="46.42044" lon="-1.57921">
        <ele>53.833876</ele>
        <time>2022-12-18T17:17:29.657Z</time>
      </trkpt>
      <trkpt lat="46.42043" lon="-1.57937">
        <ele>53.944951</ele>
        <time>2022-12-18T17:17:32.652Z</time>
      </trkpt>
      <trkpt lat="46.42043" lon="-1.57954">
        <ele>53.905922</ele>
        <time>2022-12-18T17:17:35.654Z</time>
      </trkpt>
      <trkpt lat="46.42042" lon="-1.57971">
        <ele>53.86732</ele>
        <time>2022-12-18T17:17:38.651Z</time>
      </trkpt>
      <trkpt lat="46.4204" lon="-1.57987">
        <ele>53.831633</ele>
        <time>2022-12-18T17:17:41.667Z</time>
      </trkpt>
      <trkpt lat="46.42039" lon="-1.58002">
        <ele>53.796508</ele>
        <time>2022-12-18T17:17:44.654Z</time>
      </trkpt>
      <trkpt lat="46.42038" lon="-1.58016">
        <ele>53.763638</ele>
        <time>2022-12-18T17:17:47.659Z</time>
      </trkpt>
      <trkpt lat="46.42038" lon="-1.5803">
        <ele>53.732231</ele>
        <time>2022-12-18T17:17:50.655Z</time>
      </trkpt>
      <trkpt lat="46.42037" lon="-1.58044">
        <ele>53.699909</ele>
        <time>2022-12-18T17:17:53.658Z</time>
      </trkpt>
      <trkpt lat="46.42037" lon="-1.58057">
        <ele>53.670094</ele>
        <time>2022-12-18T17:17:56.649Z</time>
      </trkpt>
      <trkpt lat="46.42036" lon="-1.58074">
        <ele>53.632752</ele>
        <time>2022-12-18T17:18:00.656Z</time>
      </trkpt>
      <trkpt lat="46.42035" lon="-1.58088">
        <ele>53.600911</ele>
        <time>2022-12-18T17:18:03.652Z</time>
      </trkpt>
      <trkpt lat="46.42034" lon="-1.58103">
        <ele>53.566645</ele>
        <time>2022-12-18T17:18:06.661Z</time>
      </trkpt>
      <trkpt lat="46.42034" lon="-1.58117">
        <ele>53.533859</ele>
        <time>2022-12-18T17:18:09.655Z</time>
      </trkpt>
      <trkpt lat="46.42034" lon="-1.58131">
        <ele>53.501756</ele>
        <time>2022-12-18T17:18:12.656Z</time>
      </trkpt>
      <trkpt lat="46.42032" lon="-1.58148">
        <ele>53.463318</ele>
        <time>2022-12-18T17:18:16.655Z</time>
      </trkpt>
      <trkpt lat="46.42032" lon="-1.58163">
        <ele>53.427802</ele>
        <time>2022-12-18T17:18:20.659Z</time>
      </trkpt>
      <trkpt lat="46.42031" lon="-1.58179">
        <ele>53.393154</ele>
        <time>2022-12-18T17:18:24.650Z</time>
      </trkpt>
      <trkpt lat="46.42029" lon="-1.58194">
        <ele>53.363181</ele>
        <time>2022-12-18T17:18:28.652Z</time>
      </trkpt>
      <trkpt lat="46.42022" lon="-1.58205">
        <ele>53.384876</ele>
        <time>2022-12-18T17:18:32.649Z</time>
      </trkpt>
      <trkpt lat="46.42014" lon="-1.58212">
        <ele>53.405641</ele>
        <time>2022-12-18T17:18:35.651Z</time>
      </trkpt>
      <trkpt lat="46.42004" lon="-1.58218">
        <ele>53.428194</ele>
        <time>2022-12-18T17:18:38.655Z</time>
      </trkpt>
      <trkpt lat="46.41993" lon="-1.58222">
        <ele>53.452906</ele>
        <time>2022-12-18T17:18:41.655Z</time>
      </trkpt>
      <trkpt lat="46.41983" lon="-1.58229">
        <ele>53.477848</ele>
        <time>2022-12-18T17:18:44.649Z</time>
      </trkpt>
      <trkpt lat="46.41972" lon="-1.58234">
        <ele>53.501351</ele>
        <time>2022-12-18T17:18:47.652Z</time>
      </trkpt>
      <trkpt lat="46.41963" lon="-1.58238">
        <ele>53.521799</ele>
        <time>2022-12-18T17:18:50.650Z</time>
      </trkpt>
      <trkpt lat="46.41954" lon="-1.58242">
        <ele>53.542952</ele>
        <time>2022-12-18T17:18:53.649Z</time>
      </trkpt>
      <trkpt lat="46.41944" lon="-1.58249">
        <ele>53.566169</ele>
        <time>2022-12-18T17:18:56.657Z</time>
      </trkpt>
      <trkpt lat="46.41935" lon="-1.58256">
        <ele>53.588626</ele>
        <time>2022-12-18T17:18:59.652Z</time>
      </trkpt>
      <trkpt lat="46.41926" lon="-1.58262">
        <ele>53.609264</ele>
        <time>2022-12-18T17:19:02.655Z</time>
      </trkpt>
      <trkpt lat="46.41915" lon="-1.5827">
        <ele>53.636038</ele>
        <time>2022-12-18T17:19:06.660Z</time>
      </trkpt>
      <trkpt lat="46.41906" lon="-1.58277">
        <ele>53.658235</ele>
        <time>2022-12-18T17:19:09.654Z</time>
      </trkpt>
      <trkpt lat="46.41896" lon="-1.58285">
        <ele>53.682765</ele>
        <time>2022-12-18T17:19:13.652Z</time>
      </trkpt>
      <trkpt lat="46.41889" lon="-1.58299">
        <ele>53.709092</ele>
        <time>2022-12-18T17:19:17.648Z</time>
      </trkpt>
      <trkpt lat="46.41884" lon="-1.58313">
        <ele>53.731693</ele>
        <time>2022-12-18T17:19:20.647Z</time>
      </trkpt>
      <trkpt lat="46.41883" lon="-1.58329">
        <ele>53.730674</ele>
        <time>2022-12-18T17:19:23.651Z</time>
      </trkpt>
      <trkpt lat="46.41884" lon="-1.58344">
        <ele>53.66693</ele>
        <time>2022-12-18T17:19:26.657Z</time>
      </trkpt>
      <trkpt lat="46.41884" lon="-1.5836">
        <ele>53.6026</ele>
        <time>2022-12-18T17:19:29.648Z</time>
      </trkpt>
      <trkpt lat="46.41885" lon="-1.58378">
        <ele>53.528653</ele>
        <time>2022-12-18T17:19:32.647Z</time>
      </trkpt>
      <trkpt lat="46.41885" lon="-1.58398">
        <ele>53.448191</ele>
        <time>2022-12-18T17:19:35.659Z</time>
      </trkpt>
      <trkpt lat="46.41885" lon="-1.58412">
        <ele>53.391429</ele>
        <time>2022-12-18T17:19:37.652Z</time>
      </trkpt>
      <trkpt lat="46.41885" lon="-1.58425">
        <ele>53.338342</ele>
        <time>2022-12-18T17:19:39.659Z</time>
      </trkpt>
      <trkpt lat="46.41884" lon="-1.58438">
        <ele>53.28439</ele>
        <time>2022-12-18T17:19:41.650Z</time>
      </trkpt>
      <trkpt lat="46.41885" lon="-1.58457">
        <ele>53.205933</ele>
        <time>2022-12-18T17:19:44.652Z</time>
      </trkpt>
      <trkpt lat="46.41885" lon="-1.5847">
        <ele>53.151612</ele>
        <time>2022-12-18T17:19:46.653Z</time>
      </trkpt>
      <trkpt lat="46.41885" lon="-1.58484">
        <ele>53.095233</ele>
        <time>2022-12-18T17:19:48.651Z</time>
      </trkpt>
      <trkpt lat="46.41884" lon="-1.58503">
        <ele>53.018354</ele>
        <time>2022-12-18T17:19:51.655Z</time>
      </trkpt>
      <trkpt lat="46.41885" lon="-1.58522">
        <ele>52.941578</ele>
        <time>2022-12-18T17:19:54.649Z</time>
      </trkpt>
      <trkpt lat="46.41885" lon="-1.5854">
        <ele>52.865887</ele>
        <time>2022-12-18T17:19:57.658Z</time>
      </trkpt>
      <trkpt lat="46.41885" lon="-1.58556">
        <ele>52.80083</ele>
        <time>2022-12-18T17:20:00.648Z</time>
      </trkpt>
      <trkpt lat="46.41885" lon="-1.58572">
        <ele>52.73588</ele>
        <time>2022-12-18T17:20:03.647Z</time>
      </trkpt>
      <trkpt lat="46.41885" lon="-1.58586">
        <ele>52.687383</ele>
        <time>2022-12-18T17:20:06.660Z</time>
      </trkpt>
      <trkpt lat="46.41885" lon="-1.586">
        <ele>52.759259</ele>
        <time>2022-12-18T17:20:10.660Z</time>
      </trkpt>
      <trkpt lat="46.41886" lon="-1.58614">
        <ele>52.832755</ele>
        <time>2022-12-18T17:20:14.652Z</time>
      </trkpt>
      <trkpt lat="46.41886" lon="-1.58631">
        <ele>52.918121</ele>
        <time>2022-12-18T17:20:18.650Z</time>
      </trkpt>
      <trkpt lat="46.41887" lon="-1.58647">
        <ele>53.000332</ele>
        <time>2022-12-18T17:20:22.657Z</time>
      </trkpt>
      <trkpt lat="46.41881" lon="-1.58658">
        <ele>53.071467</ele>
        <time>2022-12-18T17:20:26.649Z</time>
      </trkpt>
      <trkpt lat="46.41869" lon="-1.58662">
        <ele>53.162312</ele>
        <time>2022-12-18T17:20:30.658Z</time>
      </trkpt>
      <trkpt lat="46.4186" lon="-1.58666">
        <ele>53.231537</ele>
        <time>2022-12-18T17:20:33.663Z</time>
      </trkpt>
      <trkpt lat="46.41851" lon="-1.5867">
        <ele>53.303762</ele>
        <time>2022-12-18T17:20:36.649Z</time>
      </trkpt>
      <trkpt lat="46.41841" lon="-1.58676">
        <ele>53.382001</ele>
        <time>2022-12-18T17:20:39.651Z</time>
      </trkpt>
      <trkpt lat="46.41832" lon="-1.5868">
        <ele>53.457607</ele>
        <time>2022-12-18T17:20:42.668Z</time>
      </trkpt>
      <trkpt lat="46.41822" lon="-1.58686">
        <ele>53.535482</ele>
        <time>2022-12-18T17:20:45.654Z</time>
      </trkpt>
      <trkpt lat="46.41811" lon="-1.58692">
        <ele>53.618629</ele>
        <time>2022-12-18T17:20:48.663Z</time>
      </trkpt>
      <trkpt lat="46.41801" lon="-1.58697">
        <ele>53.702982</ele>
        <time>2022-12-18T17:20:51.658Z</time>
      </trkpt>
      <trkpt lat="46.41792" lon="-1.58704">
        <ele>53.778282</ele>
        <time>2022-12-18T17:20:54.654Z</time>
      </trkpt>
      <trkpt lat="46.41783" lon="-1.58711">
        <ele>53.851314</ele>
        <time>2022-12-18T17:20:59.657Z</time>
      </trkpt>
      <trkpt lat="46.41774" lon="-1.58716">
        <ele>53.924138</ele>
        <time>2022-12-18T17:21:04.658Z</time>
      </trkpt>
      <trkpt lat="46.41764" lon="-1.58722">
        <ele>54.007285</ele>
        <time>2022-12-18T17:21:08.667Z</time>
      </trkpt>
      <trkpt lat="46.41754" lon="-1.58728">
        <ele>54.219663</ele>
        <time>2022-12-18T17:21:11.651Z</time>
      </trkpt>
      <trkpt lat="46.41745" lon="-1.58735">
        <ele>54.442973</ele>
        <time>2022-12-18T17:21:14.656Z</time>
      </trkpt>
      <trkpt lat="46.41738" lon="-1.58743">
        <ele>54.649459</ele>
        <time>2022-12-18T17:21:17.657Z</time>
      </trkpt>
      <trkpt lat="46.41728" lon="-1.58754">
        <ele>54.917188</ele>
        <time>2022-12-18T17:21:21.658Z</time>
      </trkpt>
      <trkpt lat="46.41721" lon="-1.58764">
        <ele>55.14395</ele>
        <time>2022-12-18T17:21:24.656Z</time>
      </trkpt>
      <trkpt lat="46.41714" lon="-1.58774">
        <ele>55.369137</ele>
        <time>2022-12-18T17:21:27.659Z</time>
      </trkpt>
      <trkpt lat="46.41707" lon="-1.58785">
        <ele>55.601774</ele>
        <time>2022-12-18T17:21:30.667Z</time>
      </trkpt>
      <trkpt lat="46.41699" lon="-1.58797">
        <ele>55.851216</ele>
        <time>2022-12-18T17:21:33.660Z</time>
      </trkpt>
      <trkpt lat="46.41691" lon="-1.58808">
        <ele>56.096243</ele>
        <time>2022-12-18T17:21:37.659Z</time>
      </trkpt>
      <trkpt lat="46.41684" lon="-1.58817">
        <ele>56.311878</ele>
        <time>2022-12-18T17:21:41.655Z</time>
      </trkpt>
      <trkpt lat="46.41677" lon="-1.58831">
        <ele>56.586313</ele>
        <time>2022-12-18T17:21:45.653Z</time>
      </trkpt>
      <trkpt lat="46.4167" lon="-1.58844">
        <ele>56.832618</ele>
        <time>2022-12-18T17:21:48.658Z</time>
      </trkpt>
      <trkpt lat="46.41664" lon="-1.58858">
        <ele>57.105641</ele>
        <time>2022-12-18T17:21:51.651Z</time>
      </trkpt>
      <trkpt lat="46.41659" lon="-1.5887">
        <ele>57.318367</ele>
        <time>2022-12-18T17:21:54.658Z</time>
      </trkpt>
      <trkpt lat="46.41653" lon="-1.58883">
        <ele>57.563295</ele>
        <time>2022-12-18T17:21:57.651Z</time>
      </trkpt>
      <trkpt lat="46.41646" lon="-1.58897">
        <ele>57.823773</ele>
        <time>2022-12-18T17:22:00.654Z</time>
      </trkpt>
      <trkpt lat="46.41638" lon="-1.58911">
        <ele>58.024274</ele>
        <time>2022-12-18T17:22:03.646Z</time>
      </trkpt>
      <trkpt lat="46.41633" lon="-1.58922">
        <ele>57.782942</ele>
        <time>2022-12-18T17:22:05.654Z</time>
      </trkpt>
      <trkpt lat="46.41627" lon="-1.58933">
        <ele>57.558387</ele>
        <time>2022-12-18T17:22:07.667Z</time>
      </trkpt>
      <trkpt lat="46.41621" lon="-1.58948">
        <ele>57.254341</ele>
        <time>2022-12-18T17:22:10.655Z</time>
      </trkpt>
      <trkpt lat="46.41614" lon="-1.58963">
        <ele>56.935023</ele>
        <time>2022-12-18T17:22:11.559Z</time>
      </trkpt>
      <trkpt lat="46.41606" lon="-1.58979">
        <ele>56.607058</ele>
        <time>2022-12-18T17:22:14.563Z</time>
      </trkpt>
      <trkpt lat="46.41599" lon="-1.58995">
        <ele>56.279093</ele>
        <time>2022-12-18T17:22:17.574Z</time>
      </trkpt>
      <trkpt lat="46.41592" lon="-1.59011">
        <ele>55.948395</ele>
        <time>2022-12-18T17:22:20.554Z</time>
      </trkpt>
      <trkpt lat="46.41585" lon="-1.59025">
        <ele>55.658825</ele>
        <time>2022-12-18T17:22:23.561Z</time>
      </trkpt>
      <trkpt lat="46.4158" lon="-1.59038">
        <ele>55.403123</ele>
        <time>2022-12-18T17:22:26.563Z</time>
      </trkpt>
      <trkpt lat="46.41576" lon="-1.5905">
        <ele>55.167973</ele>
        <time>2022-12-18T17:22:29.561Z</time>
      </trkpt>
      <trkpt lat="46.41571" lon="-1.59061">
        <ele>54.929383</ele>
        <time>2022-12-18T17:22:32.563Z</time>
      </trkpt>
      <trkpt lat="46.41565" lon="-1.59072">
        <ele>54.698072</ele>
        <time>2022-12-18T17:22:35.556Z</time>
      </trkpt>
      <trkpt lat="46.4156" lon="-1.59083">
        <ele>54.471016</ele>
        <time>2022-12-18T17:22:38.559Z</time>
      </trkpt>
      <trkpt lat="46.41554" lon="-1.59095">
        <ele>54.218029</ele>
        <time>2022-12-18T17:22:41.545Z</time>
      </trkpt>
      <trkpt lat="46.41546" lon="-1.59109">
        <ele>53.89778</ele>
        <time>2022-12-18T17:22:44.560Z</time>
      </trkpt>
      <trkpt lat="46.41536" lon="-1.59121">
        <ele>53.586588</ele>
        <time>2022-12-18T17:22:47.558Z</time>
      </trkpt>
      <trkpt lat="46.41527" lon="-1.59132">
        <ele>53.642479</ele>
        <time>2022-12-18T17:22:50.554Z</time>
      </trkpt>
      <trkpt lat="46.41518" lon="-1.59143">
        <ele>53.71764</ele>
        <time>2022-12-18T17:22:53.552Z</time>
      </trkpt>
      <trkpt lat="46.41508" lon="-1.59152">
        <ele>53.790868</ele>
        <time>2022-12-18T17:22:56.565Z</time>
      </trkpt>
      <trkpt lat="46.41498" lon="-1.5916">
        <ele>53.865649</ele>
        <time>2022-12-18T17:22:59.552Z</time>
      </trkpt>
      <trkpt lat="46.41487" lon="-1.59168">
        <ele>53.942828</ele>
        <time>2022-12-18T17:23:02.568Z</time>
      </trkpt>
      <trkpt lat="46.41477" lon="-1.59178">
        <ele>54.018804</ele>
        <time>2022-12-18T17:23:05.549Z</time>
      </trkpt>
      <trkpt lat="46.41467" lon="-1.59187">
        <ele>54.098245</ele>
        <time>2022-12-18T17:23:08.567Z</time>
      </trkpt>
      <trkpt lat="46.41455" lon="-1.59197">
        <ele>54.181841</ele>
        <time>2022-12-18T17:23:11.562Z</time>
      </trkpt>
      <trkpt lat="46.41445" lon="-1.59206">
        <ele>54.261783</ele>
        <time>2022-12-18T17:23:14.559Z</time>
      </trkpt>
      <trkpt lat="46.41434" lon="-1.59215">
        <ele>54.341303</ele>
        <time>2022-12-18T17:23:17.561Z</time>
      </trkpt>
      <trkpt lat="46.41424" lon="-1.59224">
        <ele>54.415162</ele>
        <time>2022-12-18T17:23:20.568Z</time>
      </trkpt>
      <trkpt lat="46.41416" lon="-1.59231">
        <ele>54.473869</ele>
        <time>2022-12-18T17:23:23.562Z</time>
      </trkpt>
      <trkpt lat="46.41407" lon="-1.5924">
        <ele>54.544117</ele>
        <time>2022-12-18T17:23:26.580Z</time>
      </trkpt>
      <trkpt lat="46.41397" lon="-1.59246">
        <ele>54.614075</ele>
        <time>2022-12-18T17:23:29.582Z</time>
      </trkpt>
      <trkpt lat="46.41387" lon="-1.59253">
        <ele>54.688601</ele>
        <time>2022-12-18T17:23:32.567Z</time>
      </trkpt>
      <trkpt lat="46.41377" lon="-1.5926">
        <ele>54.610441</ele>
        <time>2022-12-18T17:23:35.580Z</time>
      </trkpt>
      <trkpt lat="46.41366" lon="-1.59267">
        <ele>54.387045</ele>
        <time>2022-12-18T17:23:38.561Z</time>
      </trkpt>
      <trkpt lat="46.41356" lon="-1.59275">
        <ele>54.165354</ele>
        <time>2022-12-18T17:23:41.568Z</time>
      </trkpt>
      <trkpt lat="46.41344" lon="-1.59282">
        <ele>53.931179</ele>
        <time>2022-12-18T17:23:44.584Z</time>
      </trkpt>
      <trkpt lat="46.41333" lon="-1.5929">
        <ele>53.7022</ele>
        <time>2022-12-18T17:23:47.550Z</time>
      </trkpt>
      <trkpt lat="46.41323" lon="-1.59298">
        <ele>53.49219</ele>
        <time>2022-12-18T17:23:50.594Z</time>
      </trkpt>
      <trkpt lat="46.41313" lon="-1.59304">
        <ele>53.29325</ele>
        <time>2022-12-18T17:23:53.568Z</time>
      </trkpt>
      <trkpt lat="46.41305" lon="-1.59311">
        <ele>53.106394</ele>
        <time>2022-12-18T17:23:56.558Z</time>
      </trkpt>
      <trkpt lat="46.41294" lon="-1.59319">
        <ele>52.882701</ele>
        <time>2022-12-18T17:23:59.569Z</time>
      </trkpt>
      <trkpt lat="46.41284" lon="-1.59328">
        <ele>52.655455</ele>
        <time>2022-12-18T17:24:02.583Z</time>
      </trkpt>
      <trkpt lat="46.41274" lon="-1.59337">
        <ele>52.434996</ele>
        <time>2022-12-18T17:24:05.572Z</time>
      </trkpt>
      <trkpt lat="46.41263" lon="-1.59348">
        <ele>52.203184</ele>
        <time>2022-12-18T17:24:08.580Z</time>
      </trkpt>
      <trkpt lat="46.41254" lon="-1.59359">
        <ele>51.972018</ele>
        <time>2022-12-18T17:24:11.551Z</time>
      </trkpt>
      <trkpt lat="46.41243" lon="-1.5937">
        <ele>51.725092</ele>
        <time>2022-12-18T17:24:14.560Z</time>
      </trkpt>
      <trkpt lat="46.41232" lon="-1.59382">
        <ele>51.48035</ele>
        <time>2022-12-18T17:24:17.570Z</time>
      </trkpt>
      <trkpt lat="46.41222" lon="-1.59392">
        <ele>51.363705</ele>
        <time>2022-12-18T17:24:20.560Z</time>
      </trkpt>
      <trkpt lat="46.41212" lon="-1.59405">
        <ele>51.363705</ele>
        <time>2022-12-18T17:24:23.558Z</time>
      </trkpt>
      <trkpt lat="46.41203" lon="-1.59415">
        <ele>51.363705</ele>
        <time>2022-12-18T17:24:26.560Z</time>
      </trkpt>
      <trkpt lat="46.41193" lon="-1.59425">
        <ele>51.363705</ele>
        <time>2022-12-18T17:24:29.576Z</time>
      </trkpt>
      <trkpt lat="46.41183" lon="-1.59436">
        <ele>51.363705</ele>
        <time>2022-12-18T17:24:32.563Z</time>
      </trkpt>
      <trkpt lat="46.41174" lon="-1.59446">
        <ele>51.363705</ele>
        <time>2022-12-18T17:24:35.558Z</time>
      </trkpt>
      <trkpt lat="46.41166" lon="-1.59454">
        <ele>51.363705</ele>
        <time>2022-12-18T17:24:38.561Z</time>
      </trkpt>
      <trkpt lat="46.41157" lon="-1.59464">
        <ele>51.363705</ele>
        <time>2022-12-18T17:24:42.564Z</time>
      </trkpt>
      <trkpt lat="46.41148" lon="-1.59473">
        <ele>51.363705</ele>
        <time>2022-12-18T17:24:46.562Z</time>
      </trkpt>
      <trkpt lat="46.41141" lon="-1.59483">
        <ele>51.363705</ele>
        <time>2022-12-18T17:24:50.571Z</time>
      </trkpt>
      <trkpt lat="46.41133" lon="-1.59492">
        <ele>51.363705</ele>
        <time>2022-12-18T17:24:54.556Z</time>
      </trkpt>
      <trkpt lat="46.41125" lon="-1.595">
        <ele>51.363705</ele>
        <time>2022-12-18T17:24:59.560Z</time>
      </trkpt>
      <trkpt lat="46.41118" lon="-1.59489">
        <ele>51.363705</ele>
        <time>2022-12-18T17:25:05.572Z</time>
      </trkpt>
      <trkpt lat="46.41113" lon="-1.59475">
        <ele>51.363705</ele>
        <time>2022-12-18T17:25:09.562Z</time>
      </trkpt>
      <trkpt lat="46.41109" lon="-1.5946">
        <ele>51.363705</ele>
        <time>2022-12-18T17:25:13.576Z</time>
      </trkpt>
      <trkpt lat="46.41104" lon="-1.59448">
        <ele>51.363705</ele>
        <time>2022-12-18T17:25:16.562Z</time>
      </trkpt>
      <trkpt lat="46.411" lon="-1.59435">
        <ele>51.363705</ele>
        <time>2022-12-18T17:25:19.571Z</time>
      </trkpt>
      <trkpt lat="46.41096" lon="-1.59423">
        <ele>51.363705</ele>
        <time>2022-12-18T17:25:22.561Z</time>
      </trkpt>
      <trkpt lat="46.41092" lon="-1.5941">
        <ele>51.363705</ele>
        <time>2022-12-18T17:25:25.577Z</time>
      </trkpt>
      <trkpt lat="46.41089" lon="-1.59398">
        <ele>51.363705</ele>
        <time>2022-12-18T17:25:28.562Z</time>
      </trkpt>
      <trkpt lat="46.41086" lon="-1.59384">
        <ele>51.363705</ele>
        <time>2022-12-18T17:25:32.572Z</time>
      </trkpt>
      <trkpt lat="46.41082" lon="-1.5937">
        <ele>51.363705</ele>
        <time>2022-12-18T17:25:38.572Z</time>
      </trkpt>
      <trkpt lat="46.41079" lon="-1.59357">
        <ele>51.363705</ele>
        <time>2022-12-18T17:25:44.570Z</time>
      </trkpt>
      <trkpt lat="46.41075" lon="-1.59345">
        <ele>51.363705</ele>
        <time>2022-12-18T17:25:51.556Z</time>
      </trkpt>
      <trkpt lat="46.41074" lon="-1.59339">
        <ele>51.363705</ele>
        <time>2022-12-18T17:26:43.988Z</time>
        <extensions>
          <visugpx:TrkExtension xmlns:visugpx="https://www.visugpx.com/editgpx/">
            <visugpx:node>1</visugpx:node>
            </visugpx:TrkExtension>
        </extensions>
      </trkpt>
    </trkseg>
  </trk>
</gpx>